<?xml version="1.0" encoding="UTF-8" standalone="no" ?>
<gpx xmlns="http://www.topografix.com/GPX/1/1" xmlns:xsi="http://www.w3.org/2001/XMLSchema-instance" xsi:schemaLocation="http://www.topografix.com/GPX/1/1 http://www.topografix.com/GPX/1/1/gpx.xsd" version="1.1" creator="VisuGPX - https://www.visugpx.com">
  <metadata>
    <name>23 Genève_Valence_Narbonne_Gérone 2012</name>
  </metadata>
  <trk>
    <name><![CDATA[(23) 2012 Genève_Valence_Narbonne_Gérone(E)]]></name>
    <trkseg>
      <trkpt lat="46.21074" lon="6.14214">
        <ele>372.65</ele>
        <time>2012-10-08T05:50:33Z</time>
      </trkpt>
      <trkpt lat="46.21068" lon="6.14175">
        <ele>383.22</ele>
        <time>2012-10-08T05:51:11Z</time>
      </trkpt>
      <trkpt lat="46.20997" lon="6.14094">
        <ele>392.84</ele>
        <time>2012-10-08T05:52:24Z</time>
      </trkpt>
      <trkpt lat="46.20916" lon="6.1402">
        <ele>394.76</ele>
        <time>2012-10-08T05:52:52Z</time>
      </trkpt>
      <trkpt lat="46.20825" lon="6.14037">
        <ele>393.32</ele>
        <time>2012-10-08T05:53:49Z</time>
      </trkpt>
      <trkpt lat="46.2082" lon="6.14197">
        <ele>391.39</ele>
        <time>2012-10-08T05:54:40Z</time>
      </trkpt>
      <trkpt lat="46.20812" lon="6.14328">
        <ele>389.95</ele>
        <time>2012-10-08T05:54:56Z</time>
      </trkpt>
      <trkpt lat="46.20806" lon="6.14458">
        <ele>387.07</ele>
        <time>2012-10-08T05:55:10Z</time>
      </trkpt>
      <trkpt lat="46.20788" lon="6.14566">
        <ele>383.22</ele>
        <time>2012-10-08T05:55:33Z</time>
      </trkpt>
      <trkpt lat="46.20693" lon="6.14646">
        <ele>382.74</ele>
        <time>2012-10-08T05:55:54Z</time>
      </trkpt>
      <trkpt lat="46.20595" lon="6.14696">
        <ele>383.22</ele>
        <time>2012-10-08T05:56:23Z</time>
      </trkpt>
      <trkpt lat="46.20503" lon="6.14665">
        <ele>383.22</ele>
        <time>2012-10-08T05:56:43Z</time>
      </trkpt>
      <trkpt lat="46.20457" lon="6.14741">
        <ele>381.78</ele>
        <time>2012-10-08T05:57:03Z</time>
      </trkpt>
      <trkpt lat="46.20435" lon="6.14873">
        <ele>382.26</ele>
        <time>2012-10-08T05:57:22Z</time>
      </trkpt>
      <trkpt lat="46.20411" lon="6.15003">
        <ele>382.26</ele>
        <time>2012-10-08T05:57:40Z</time>
      </trkpt>
      <trkpt lat="46.2031" lon="6.14997">
        <ele>382.74</ele>
        <time>2012-10-08T05:58:39Z</time>
      </trkpt>
      <trkpt lat="46.20173" lon="6.14975">
        <ele>388.99</ele>
        <time>2012-10-08T05:59:43Z</time>
      </trkpt>
      <trkpt lat="46.20047" lon="6.14933">
        <ele>403.41</ele>
        <time>2012-10-08T06:01:00Z</time>
      </trkpt>
      <trkpt lat="46.19943" lon="6.14935">
        <ele>404.37</ele>
        <time>2012-10-08T06:01:43Z</time>
      </trkpt>
      <trkpt lat="46.19864" lon="6.14992">
        <ele>408.22</ele>
        <time>2012-10-08T06:02:26Z</time>
      </trkpt>
      <trkpt lat="46.19798" lon="6.15088">
        <ele>407.26</ele>
        <time>2012-10-08T06:02:46Z</time>
      </trkpt>
      <trkpt lat="46.19737" lon="6.15184">
        <ele>408.22</ele>
        <time>2012-10-08T06:03:05Z</time>
      </trkpt>
      <trkpt lat="46.19671" lon="6.15279">
        <ele>410.14</ele>
        <time>2012-10-08T06:03:59Z</time>
      </trkpt>
      <trkpt lat="46.19622" lon="6.154">
        <ele>411.58</ele>
        <time>2012-10-08T06:04:40Z</time>
      </trkpt>
      <trkpt lat="46.19573" lon="6.15567">
        <ele>413.5</ele>
        <time>2012-10-08T06:05:24Z</time>
      </trkpt>
      <trkpt lat="46.19546" lon="6.15694">
        <ele>416.39</ele>
        <time>2012-10-08T06:05:48Z</time>
      </trkpt>
      <trkpt lat="46.19503" lon="6.15811">
        <ele>418.79</ele>
        <time>2012-10-08T06:06:12Z</time>
      </trkpt>
      <trkpt lat="46.1945" lon="6.15925">
        <ele>420.71</ele>
        <time>2012-10-08T06:06:34Z</time>
      </trkpt>
      <trkpt lat="46.19391" lon="6.1604">
        <ele>419.75</ele>
        <time>2012-10-08T06:06:52Z</time>
      </trkpt>
      <trkpt lat="46.19341" lon="6.16154">
        <ele>420.23</ele>
        <time>2012-10-08T06:07:08Z</time>
      </trkpt>
      <trkpt lat="46.19297" lon="6.16277">
        <ele>421.19</ele>
        <time>2012-10-08T06:07:25Z</time>
      </trkpt>
      <trkpt lat="46.19242" lon="6.16387">
        <ele>421.19</ele>
        <time>2012-10-08T06:07:46Z</time>
      </trkpt>
      <trkpt lat="46.19183" lon="6.165">
        <ele>422.64</ele>
        <time>2012-10-08T06:08:59Z</time>
      </trkpt>
      <trkpt lat="46.19127" lon="6.16598">
        <ele>425.52</ele>
        <time>2012-10-08T06:09:19Z</time>
      </trkpt>
      <trkpt lat="46.19048" lon="6.16674">
        <ele>426.96</ele>
        <time>2012-10-08T06:09:40Z</time>
      </trkpt>
      <trkpt lat="46.18957" lon="6.16728">
        <ele>427.92</ele>
        <time>2012-10-08T06:10:01Z</time>
      </trkpt>
      <trkpt lat="46.1887" lon="6.16805">
        <ele>429.85</ele>
        <time>2012-10-08T06:10:21Z</time>
      </trkpt>
      <trkpt lat="46.18806" lon="6.1691">
        <ele>431.29</ele>
        <time>2012-10-08T06:10:40Z</time>
      </trkpt>
      <trkpt lat="46.18734" lon="6.16999">
        <ele>430.81</ele>
        <time>2012-10-08T06:10:58Z</time>
      </trkpt>
      <trkpt lat="46.18647" lon="6.17073">
        <ele>426.96</ele>
        <time>2012-10-08T06:11:13Z</time>
      </trkpt>
      <trkpt lat="46.18577" lon="6.17172">
        <ele>423.6</ele>
        <time>2012-10-08T06:11:24Z</time>
      </trkpt>
      <trkpt lat="46.18516" lon="6.17276">
        <ele>424.08</ele>
        <time>2012-10-08T06:11:37Z</time>
      </trkpt>
      <trkpt lat="46.18455" lon="6.1738">
        <ele>421.68</ele>
        <time>2012-10-08T06:11:51Z</time>
      </trkpt>
      <trkpt lat="46.18399" lon="6.17484">
        <ele>423.12</ele>
        <time>2012-10-08T06:12:14Z</time>
      </trkpt>
      <trkpt lat="46.18347" lon="6.17594">
        <ele>426</ele>
        <time>2012-10-08T06:12:36Z</time>
      </trkpt>
      <trkpt lat="46.18311" lon="6.17719">
        <ele>428.4</ele>
        <time>2012-10-08T06:12:58Z</time>
      </trkpt>
      <trkpt lat="46.18288" lon="6.17852">
        <ele>426.48</ele>
        <time>2012-10-08T06:13:15Z</time>
      </trkpt>
      <trkpt lat="46.18243" lon="6.17979">
        <ele>420.23</ele>
        <time>2012-10-08T06:13:27Z</time>
      </trkpt>
      <trkpt lat="46.18184" lon="6.18095">
        <ele>415.43</ele>
        <time>2012-10-08T06:13:38Z</time>
      </trkpt>
      <trkpt lat="46.18135" lon="6.18205">
        <ele>409.66</ele>
        <time>2012-10-08T06:13:47Z</time>
      </trkpt>
      <trkpt lat="46.18056" lon="6.18269">
        <ele>406.29</ele>
        <time>2012-10-08T06:13:57Z</time>
      </trkpt>
      <trkpt lat="46.17956" lon="6.18263">
        <ele>405.33</ele>
        <time>2012-10-08T06:14:10Z</time>
      </trkpt>
      <trkpt lat="46.17872" lon="6.18207">
        <ele>407.26</ele>
        <time>2012-10-08T06:14:27Z</time>
      </trkpt>
      <trkpt lat="46.17816" lon="6.18102">
        <ele>412.54</ele>
        <time>2012-10-08T06:14:52Z</time>
      </trkpt>
      <trkpt lat="46.17751" lon="6.17994">
        <ele>418.79</ele>
        <time>2012-10-08T06:15:23Z</time>
      </trkpt>
      <trkpt lat="46.17661" lon="6.17968">
        <ele>422.16</ele>
        <time>2012-10-08T06:15:51Z</time>
      </trkpt>
      <trkpt lat="46.17581" lon="6.18044">
        <ele>424.08</ele>
        <time>2012-10-08T06:16:15Z</time>
      </trkpt>
      <trkpt lat="46.17501" lon="6.18109">
        <ele>424.08</ele>
        <time>2012-10-08T06:16:34Z</time>
      </trkpt>
      <trkpt lat="46.17417" lon="6.18158">
        <ele>425.04</ele>
        <time>2012-10-08T06:16:52Z</time>
      </trkpt>
      <trkpt lat="46.17336" lon="6.1822">
        <ele>424.56</ele>
        <time>2012-10-08T06:17:09Z</time>
      </trkpt>
      <trkpt lat="46.17247" lon="6.18255">
        <ele>425.04</ele>
        <time>2012-10-08T06:17:30Z</time>
      </trkpt>
      <trkpt lat="46.17155" lon="6.18251">
        <ele>425.52</ele>
        <time>2012-10-08T06:17:48Z</time>
      </trkpt>
      <trkpt lat="46.17064" lon="6.18233">
        <ele>426.48</ele>
        <time>2012-10-08T06:18:05Z</time>
      </trkpt>
      <trkpt lat="46.16993" lon="6.18313">
        <ele>428.4</ele>
        <time>2012-10-08T06:18:24Z</time>
      </trkpt>
      <trkpt lat="46.16921" lon="6.18398">
        <ele>429.37</ele>
        <time>2012-10-08T06:18:43Z</time>
      </trkpt>
      <trkpt lat="46.16837" lon="6.18456">
        <ele>429.85</ele>
        <time>2012-10-08T06:19:01Z</time>
      </trkpt>
      <trkpt lat="46.16777" lon="6.18565">
        <ele>427.44</ele>
        <time>2012-10-08T06:19:16Z</time>
      </trkpt>
      <trkpt lat="46.16713" lon="6.18666">
        <ele>433.21</ele>
        <time>2012-10-08T06:19:35Z</time>
      </trkpt>
      <trkpt lat="46.1667" lon="6.1879">
        <ele>430.81</ele>
        <time>2012-10-08T06:19:53Z</time>
      </trkpt>
      <trkpt lat="46.16628" lon="6.18909">
        <ele>429.85</ele>
        <time>2012-10-08T06:20:31Z</time>
      </trkpt>
      <trkpt lat="46.16643" lon="6.19041">
        <ele>425.52</ele>
        <time>2012-10-08T06:20:45Z</time>
      </trkpt>
      <trkpt lat="46.16669" lon="6.19172">
        <ele>421.19</ele>
        <time>2012-10-08T06:20:57Z</time>
      </trkpt>
      <trkpt lat="46.16671" lon="6.19312">
        <ele>415.91</ele>
        <time>2012-10-08T06:21:08Z</time>
      </trkpt>
      <trkpt lat="46.16643" lon="6.19451">
        <ele>411.1</ele>
        <time>2012-10-08T06:21:18Z</time>
      </trkpt>
      <trkpt lat="46.16665" lon="6.19576">
        <ele>409.66</ele>
        <time>2012-10-08T06:21:28Z</time>
      </trkpt>
      <trkpt lat="46.16697" lon="6.19708">
        <ele>407.74</ele>
        <time>2012-10-08T06:21:40Z</time>
      </trkpt>
      <trkpt lat="46.16728" lon="6.19836">
        <ele>407.74</ele>
        <time>2012-10-08T06:21:53Z</time>
      </trkpt>
      <trkpt lat="46.16765" lon="6.19955">
        <ele>407.26</ele>
        <time>2012-10-08T06:22:07Z</time>
      </trkpt>
      <trkpt lat="46.16791" lon="6.20081">
        <ele>406.77</ele>
        <time>2012-10-08T06:22:22Z</time>
      </trkpt>
      <trkpt lat="46.16822" lon="6.20205">
        <ele>406.29</ele>
        <time>2012-10-08T06:22:36Z</time>
      </trkpt>
      <trkpt lat="46.16857" lon="6.20335">
        <ele>406.29</ele>
        <time>2012-10-08T06:22:51Z</time>
      </trkpt>
      <trkpt lat="46.16889" lon="6.20461">
        <ele>405.33</ele>
        <time>2012-10-08T06:23:06Z</time>
      </trkpt>
      <trkpt lat="46.16924" lon="6.20586">
        <ele>406.77</ele>
        <time>2012-10-08T06:23:22Z</time>
      </trkpt>
      <trkpt lat="46.16968" lon="6.20704">
        <ele>409.66</ele>
        <time>2012-10-08T06:23:39Z</time>
      </trkpt>
      <trkpt lat="46.17018" lon="6.20816">
        <ele>413.5</ele>
        <time>2012-10-08T06:24:02Z</time>
      </trkpt>
      <trkpt lat="46.1707" lon="6.20925">
        <ele>418.31</ele>
        <time>2012-10-08T06:24:28Z</time>
      </trkpt>
      <trkpt lat="46.17115" lon="6.21039">
        <ele>421.68</ele>
        <time>2012-10-08T06:24:53Z</time>
      </trkpt>
      <trkpt lat="46.1713" lon="6.2117">
        <ele>423.12</ele>
        <time>2012-10-08T06:25:14Z</time>
      </trkpt>
      <trkpt lat="46.17129" lon="6.21302">
        <ele>422.16</ele>
        <time>2012-10-08T06:25:31Z</time>
      </trkpt>
      <trkpt lat="46.17156" lon="6.21436">
        <ele>418.79</ele>
        <time>2012-10-08T06:25:45Z</time>
      </trkpt>
      <trkpt lat="46.17212" lon="6.21544">
        <ele>414.47</ele>
        <time>2012-10-08T06:25:56Z</time>
      </trkpt>
      <trkpt lat="46.17269" lon="6.21647">
        <ele>411.1</ele>
        <time>2012-10-08T06:26:07Z</time>
      </trkpt>
      <trkpt lat="46.17324" lon="6.21752">
        <ele>411.1</ele>
        <time>2012-10-08T06:26:19Z</time>
      </trkpt>
      <trkpt lat="46.17377" lon="6.21859">
        <ele>411.1</ele>
        <time>2012-10-08T06:26:32Z</time>
      </trkpt>
      <trkpt lat="46.1743" lon="6.21966">
        <ele>411.1</ele>
        <time>2012-10-08T06:26:47Z</time>
      </trkpt>
      <trkpt lat="46.17483" lon="6.22079">
        <ele>411.58</ele>
        <time>2012-10-08T06:27:07Z</time>
      </trkpt>
      <trkpt lat="46.17538" lon="6.22188">
        <ele>411.1</ele>
        <time>2012-10-08T06:27:31Z</time>
      </trkpt>
      <trkpt lat="46.17517" lon="6.22154">
        <ele>410.14</ele>
        <time>2012-10-08T06:28:01Z</time>
      </trkpt>
      <trkpt lat="46.17517" lon="6.22289">
        <ele>416.87</ele>
        <time>2012-10-08T06:28:32Z</time>
      </trkpt>
      <trkpt lat="46.17518" lon="6.22434">
        <ele>424.56</ele>
        <time>2012-10-08T06:29:14Z</time>
      </trkpt>
      <trkpt lat="46.17575" lon="6.22585">
        <ele>435.61</ele>
        <time>2012-10-08T06:30:06Z</time>
      </trkpt>
      <trkpt lat="46.17664" lon="6.22708">
        <ele>443.31</ele>
        <time>2012-10-08T06:30:44Z</time>
      </trkpt>
      <trkpt lat="46.17733" lon="6.22799">
        <ele>445.23</ele>
        <time>2012-10-08T06:31:12Z</time>
      </trkpt>
      <trkpt lat="46.17787" lon="6.22908">
        <ele>444.75</ele>
        <time>2012-10-08T06:31:32Z</time>
      </trkpt>
      <trkpt lat="46.17812" lon="6.23037">
        <ele>445.23</ele>
        <time>2012-10-08T06:31:52Z</time>
      </trkpt>
      <trkpt lat="46.17831" lon="6.23163">
        <ele>445.71</ele>
        <time>2012-10-08T06:32:09Z</time>
      </trkpt>
      <trkpt lat="46.17835" lon="6.23296">
        <ele>445.23</ele>
        <time>2012-10-08T06:32:25Z</time>
      </trkpt>
      <trkpt lat="46.1778" lon="6.23403">
        <ele>443.79</ele>
        <time>2012-10-08T06:32:38Z</time>
      </trkpt>
      <trkpt lat="46.17696" lon="6.23469">
        <ele>441.38</ele>
        <time>2012-10-08T06:32:51Z</time>
      </trkpt>
      <trkpt lat="46.17617" lon="6.23533">
        <ele>438.5</ele>
        <time>2012-10-08T06:33:03Z</time>
      </trkpt>
      <trkpt lat="46.17538" lon="6.23597">
        <ele>441.38</ele>
        <time>2012-10-08T06:33:21Z</time>
      </trkpt>
      <trkpt lat="46.1746" lon="6.23669">
        <ele>446.67</ele>
        <time>2012-10-08T06:33:49Z</time>
      </trkpt>
      <trkpt lat="46.17378" lon="6.23731">
        <ele>455.8</ele>
        <time>2012-10-08T06:34:30Z</time>
      </trkpt>
      <trkpt lat="46.17294" lon="6.2379">
        <ele>463.49</ele>
        <time>2012-10-08T06:35:10Z</time>
      </trkpt>
      <trkpt lat="46.17212" lon="6.23839">
        <ele>472.14</ele>
        <time>2012-10-08T06:39:27Z</time>
      </trkpt>
      <trkpt lat="46.1712" lon="6.23872">
        <ele>481.76</ele>
        <time>2012-10-08T06:40:14Z</time>
      </trkpt>
      <trkpt lat="46.17026" lon="6.2387">
        <ele>487.05</ele>
        <time>2012-10-08T06:40:51Z</time>
      </trkpt>
      <trkpt lat="46.16933" lon="6.23865">
        <ele>488.97</ele>
        <time>2012-10-08T06:41:15Z</time>
      </trkpt>
      <trkpt lat="46.16842" lon="6.2386">
        <ele>493.77</ele>
        <time>2012-10-08T06:41:40Z</time>
      </trkpt>
      <trkpt lat="46.16748" lon="6.23857">
        <ele>499.06</ele>
        <time>2012-10-08T06:42:07Z</time>
      </trkpt>
      <trkpt lat="46.16654" lon="6.2385">
        <ele>503.87</ele>
        <time>2012-10-08T06:42:37Z</time>
      </trkpt>
      <trkpt lat="46.16567" lon="6.23794">
        <ele>509.64</ele>
        <time>2012-10-08T06:43:06Z</time>
      </trkpt>
      <trkpt lat="46.16488" lon="6.2372">
        <ele>514.92</ele>
        <time>2012-10-08T06:43:34Z</time>
      </trkpt>
      <trkpt lat="46.16399" lon="6.23673">
        <ele>518.77</ele>
        <time>2012-10-08T06:44:06Z</time>
      </trkpt>
      <trkpt lat="46.16322" lon="6.23602">
        <ele>522.61</ele>
        <time>2012-10-08T06:44:36Z</time>
      </trkpt>
      <trkpt lat="46.16266" lon="6.23491">
        <ele>528.38</ele>
        <time>2012-10-08T06:45:09Z</time>
      </trkpt>
      <trkpt lat="46.16203" lon="6.23391">
        <ele>533.67</ele>
        <time>2012-10-08T06:45:44Z</time>
      </trkpt>
      <trkpt lat="46.16152" lon="6.23281">
        <ele>537.51</ele>
        <time>2012-10-08T06:46:16Z</time>
      </trkpt>
      <trkpt lat="46.16158" lon="6.23149">
        <ele>542.32</ele>
        <time>2012-10-08T06:46:48Z</time>
      </trkpt>
      <trkpt lat="46.16128" lon="6.23019">
        <ele>546.65</ele>
        <time>2012-10-08T06:47:21Z</time>
      </trkpt>
      <trkpt lat="46.16135" lon="6.22887">
        <ele>551.93</ele>
        <time>2012-10-08T06:47:54Z</time>
      </trkpt>
      <trkpt lat="46.16088" lon="6.22765">
        <ele>555.78</ele>
        <time>2012-10-08T06:48:28Z</time>
      </trkpt>
      <trkpt lat="46.1602" lon="6.22671">
        <ele>559.62</ele>
        <time>2012-10-08T06:48:59Z</time>
      </trkpt>
      <trkpt lat="46.15944" lon="6.22597">
        <ele>562.03</ele>
        <time>2012-10-08T06:49:26Z</time>
      </trkpt>
      <trkpt lat="46.15856" lon="6.22565">
        <ele>564.43</ele>
        <time>2012-10-08T06:49:51Z</time>
      </trkpt>
      <trkpt lat="46.15765" lon="6.22572">
        <ele>567.32</ele>
        <time>2012-10-08T06:50:16Z</time>
      </trkpt>
      <trkpt lat="46.15677" lon="6.22542">
        <ele>569.72</ele>
        <time>2012-10-08T06:50:40Z</time>
      </trkpt>
      <trkpt lat="46.15587" lon="6.22525">
        <ele>572.12</ele>
        <time>2012-10-08T06:51:04Z</time>
      </trkpt>
      <trkpt lat="46.15504" lon="6.22473">
        <ele>575.01</ele>
        <time>2012-10-08T06:51:30Z</time>
      </trkpt>
      <trkpt lat="46.15425" lon="6.22404">
        <ele>577.41</ele>
        <time>2012-10-08T06:51:55Z</time>
      </trkpt>
      <trkpt lat="46.15355" lon="6.2232">
        <ele>579.81</ele>
        <time>2012-10-08T06:52:27Z</time>
      </trkpt>
      <trkpt lat="46.15309" lon="6.22208">
        <ele>583.18</ele>
        <time>2012-10-08T06:52:52Z</time>
      </trkpt>
      <trkpt lat="46.15246" lon="6.22116">
        <ele>585.1</ele>
        <time>2012-10-08T06:53:17Z</time>
      </trkpt>
      <trkpt lat="46.15165" lon="6.22053">
        <ele>586.54</ele>
        <time>2012-10-08T06:53:47Z</time>
      </trkpt>
      <trkpt lat="46.15084" lon="6.21991">
        <ele>589.43</ele>
        <time>2012-10-08T06:54:11Z</time>
      </trkpt>
      <trkpt lat="46.15002" lon="6.21928">
        <ele>591.83</ele>
        <time>2012-10-08T06:54:35Z</time>
      </trkpt>
      <trkpt lat="46.14915" lon="6.21896">
        <ele>593.27</ele>
        <time>2012-10-08T06:54:57Z</time>
      </trkpt>
      <trkpt lat="46.14824" lon="6.21915">
        <ele>594.23</ele>
        <time>2012-10-08T06:55:18Z</time>
      </trkpt>
      <trkpt lat="46.14735" lon="6.21875">
        <ele>595.19</ele>
        <time>2012-10-08T06:55:38Z</time>
      </trkpt>
      <trkpt lat="46.14647" lon="6.21833">
        <ele>595.67</ele>
        <time>2012-10-08T06:55:56Z</time>
      </trkpt>
      <trkpt lat="46.14564" lon="6.21784">
        <ele>596.15</ele>
        <time>2012-10-08T06:56:13Z</time>
      </trkpt>
      <trkpt lat="46.14475" lon="6.21741">
        <ele>596.15</ele>
        <time>2012-10-08T06:56:31Z</time>
      </trkpt>
      <trkpt lat="46.14382" lon="6.21727">
        <ele>595.67</ele>
        <time>2012-10-08T06:56:49Z</time>
      </trkpt>
      <trkpt lat="46.14295" lon="6.21687">
        <ele>596.64</ele>
        <time>2012-10-08T06:57:06Z</time>
      </trkpt>
      <trkpt lat="46.14208" lon="6.2165">
        <ele>596.64</ele>
        <time>2012-10-08T06:57:23Z</time>
      </trkpt>
      <trkpt lat="46.14119" lon="6.21612">
        <ele>598.08</ele>
        <time>2012-10-08T06:57:42Z</time>
      </trkpt>
      <trkpt lat="46.14027" lon="6.21598">
        <ele>599.52</ele>
        <time>2012-10-08T06:58:02Z</time>
      </trkpt>
      <trkpt lat="46.13934" lon="6.21585">
        <ele>600.48</ele>
        <time>2012-10-08T06:58:22Z</time>
      </trkpt>
      <trkpt lat="46.13858" lon="6.21517">
        <ele>602.4</ele>
        <time>2012-10-08T06:58:42Z</time>
      </trkpt>
      <trkpt lat="46.13776" lon="6.2146">
        <ele>603.36</ele>
        <time>2012-10-08T06:59:02Z</time>
      </trkpt>
      <trkpt lat="46.13692" lon="6.21406">
        <ele>604.33</ele>
        <time>2012-10-08T06:59:22Z</time>
      </trkpt>
      <trkpt lat="46.13623" lon="6.21317">
        <ele>606.73</ele>
        <time>2012-10-08T06:59:42Z</time>
      </trkpt>
      <trkpt lat="46.13544" lon="6.21256">
        <ele>607.69</ele>
        <time>2012-10-08T07:00:01Z</time>
      </trkpt>
      <trkpt lat="46.13461" lon="6.21202">
        <ele>608.65</ele>
        <time>2012-10-08T07:00:20Z</time>
      </trkpt>
      <trkpt lat="46.13386" lon="6.21123">
        <ele>612.02</ele>
        <time>2012-10-08T07:00:43Z</time>
      </trkpt>
      <trkpt lat="46.133" lon="6.21081">
        <ele>614.9</ele>
        <time>2012-10-08T07:01:06Z</time>
      </trkpt>
      <trkpt lat="46.13229" lon="6.21001">
        <ele>618.26</ele>
        <time>2012-10-08T07:01:35Z</time>
      </trkpt>
      <trkpt lat="46.13158" lon="6.20912">
        <ele>621.63</ele>
        <time>2012-10-08T07:02:00Z</time>
      </trkpt>
      <trkpt lat="46.13108" lon="6.20806">
        <ele>624.51</ele>
        <time>2012-10-08T07:02:25Z</time>
      </trkpt>
      <trkpt lat="46.1302" lon="6.2076">
        <ele>627.4</ele>
        <time>2012-10-08T07:02:51Z</time>
      </trkpt>
      <trkpt lat="46.12931" lon="6.20719">
        <ele>629.8</ele>
        <time>2012-10-08T07:03:16Z</time>
      </trkpt>
      <trkpt lat="46.12844" lon="6.20677">
        <ele>633.17</ele>
        <time>2012-10-08T07:03:41Z</time>
      </trkpt>
      <trkpt lat="46.12773" lon="6.20595">
        <ele>636.05</ele>
        <time>2012-10-08T07:04:06Z</time>
      </trkpt>
      <trkpt lat="46.12686" lon="6.20556">
        <ele>638.93</ele>
        <time>2012-10-08T07:04:31Z</time>
      </trkpt>
      <trkpt lat="46.12594" lon="6.20529">
        <ele>642.3</ele>
        <time>2012-10-08T07:04:56Z</time>
      </trkpt>
      <trkpt lat="46.12502" lon="6.20501">
        <ele>645.18</ele>
        <time>2012-10-08T07:05:21Z</time>
      </trkpt>
      <trkpt lat="46.12417" lon="6.2054">
        <ele>647.59</ele>
        <time>2012-10-08T07:05:45Z</time>
      </trkpt>
      <trkpt lat="46.12332" lon="6.20582">
        <ele>650.95</ele>
        <time>2012-10-08T07:06:10Z</time>
      </trkpt>
      <trkpt lat="46.12242" lon="6.20596">
        <ele>654.31</ele>
        <time>2012-10-08T07:06:35Z</time>
      </trkpt>
      <trkpt lat="46.12157" lon="6.20546">
        <ele>657.2</ele>
        <time>2012-10-08T07:07:01Z</time>
      </trkpt>
      <trkpt lat="46.1209" lon="6.20458">
        <ele>663.45</ele>
        <time>2012-10-08T07:07:35Z</time>
      </trkpt>
      <trkpt lat="46.12009" lon="6.20402">
        <ele>668.73</ele>
        <time>2012-10-08T07:08:07Z</time>
      </trkpt>
      <trkpt lat="46.11919" lon="6.20378">
        <ele>674.98</ele>
        <time>2012-10-08T07:08:39Z</time>
      </trkpt>
      <trkpt lat="46.1184" lon="6.20311">
        <ele>680.75</ele>
        <time>2012-10-08T07:09:13Z</time>
      </trkpt>
      <trkpt lat="46.11764" lon="6.20239">
        <ele>685.56</ele>
        <time>2012-10-08T07:09:50Z</time>
      </trkpt>
      <trkpt lat="46.11674" lon="6.20228">
        <ele>691.33</ele>
        <time>2012-10-08T07:10:23Z</time>
      </trkpt>
      <trkpt lat="46.11586" lon="6.202">
        <ele>696.61</ele>
        <time>2012-10-08T07:10:55Z</time>
      </trkpt>
      <trkpt lat="46.11497" lon="6.20154">
        <ele>702.38</ele>
        <time>2012-10-08T07:11:34Z</time>
      </trkpt>
      <trkpt lat="46.11398" lon="6.20154">
        <ele>708.15</ele>
        <time>2012-10-08T07:12:07Z</time>
      </trkpt>
      <trkpt lat="46.11305" lon="6.20135">
        <ele>714.4</ele>
        <time>2012-10-08T07:12:36Z</time>
      </trkpt>
      <trkpt lat="46.11216" lon="6.20088">
        <ele>719.68</ele>
        <time>2012-10-08T07:13:05Z</time>
      </trkpt>
      <trkpt lat="46.11126" lon="6.20039">
        <ele>725.93</ele>
        <time>2012-10-08T07:13:35Z</time>
      </trkpt>
      <trkpt lat="46.11041" lon="6.19981">
        <ele>731.7</ele>
        <time>2012-10-08T07:14:05Z</time>
      </trkpt>
      <trkpt lat="46.10945" lon="6.1994">
        <ele>737.47</ele>
        <time>2012-10-08T07:14:33Z</time>
      </trkpt>
      <trkpt lat="46.10869" lon="6.19863">
        <ele>743.24</ele>
        <time>2012-10-08T07:15:07Z</time>
      </trkpt>
      <trkpt lat="46.10787" lon="6.19815">
        <ele>748.52</ele>
        <time>2012-10-08T07:15:41Z</time>
      </trkpt>
      <trkpt lat="46.10701" lon="6.19767">
        <ele>754.77</ele>
        <time>2012-10-08T07:16:14Z</time>
      </trkpt>
      <trkpt lat="46.10657" lon="6.19652">
        <ele>758.62</ele>
        <time>2012-10-08T07:16:45Z</time>
      </trkpt>
      <trkpt lat="46.10637" lon="6.19526">
        <ele>760.54</ele>
        <time>2012-10-08T07:17:12Z</time>
      </trkpt>
      <trkpt lat="46.10609" lon="6.19413">
        <ele>761.02</ele>
        <time>2012-10-08T07:17:33Z</time>
      </trkpt>
      <trkpt lat="46.10522" lon="6.19446">
        <ele>764.87</ele>
        <time>2012-10-08T07:17:58Z</time>
      </trkpt>
      <trkpt lat="46.10436" lon="6.19478">
        <ele>769.19</ele>
        <time>2012-10-08T07:18:26Z</time>
      </trkpt>
      <trkpt lat="46.10365" lon="6.19396">
        <ele>774.48</ele>
        <time>2012-10-08T07:18:56Z</time>
      </trkpt>
      <trkpt lat="46.10297" lon="6.19308">
        <ele>778.81</ele>
        <time>2012-10-08T07:19:27Z</time>
      </trkpt>
      <trkpt lat="46.10226" lon="6.19227">
        <ele>784.09</ele>
        <time>2012-10-08T07:20:00Z</time>
      </trkpt>
      <trkpt lat="46.10147" lon="6.19158">
        <ele>788.9</ele>
        <time>2012-10-08T07:20:33Z</time>
      </trkpt>
      <trkpt lat="46.10082" lon="6.19066">
        <ele>793.22</ele>
        <time>2012-10-08T07:21:04Z</time>
      </trkpt>
      <trkpt lat="46.10021" lon="6.18969">
        <ele>797.07</ele>
        <time>2012-10-08T07:21:34Z</time>
      </trkpt>
      <trkpt lat="46.10008" lon="6.18838">
        <ele>799.95</ele>
        <time>2012-10-08T07:21:59Z</time>
      </trkpt>
      <trkpt lat="46.09965" lon="6.18737">
        <ele>803.8</ele>
        <time>2012-10-08T07:22:25Z</time>
      </trkpt>
      <trkpt lat="46.09892" lon="6.18788">
        <ele>807.64</ele>
        <time>2012-10-08T07:22:51Z</time>
      </trkpt>
      <trkpt lat="46.09812" lon="6.18841">
        <ele>811.49</ele>
        <time>2012-10-08T07:23:19Z</time>
      </trkpt>
      <trkpt lat="46.09721" lon="6.18828">
        <ele>816.78</ele>
        <time>2012-10-08T07:23:48Z</time>
      </trkpt>
      <trkpt lat="46.09648" lon="6.18757">
        <ele>822.06</ele>
        <time>2012-10-08T07:25:27Z</time>
      </trkpt>
      <trkpt lat="46.09588" lon="6.1866">
        <ele>826.39</ele>
        <time>2012-10-08T07:25:57Z</time>
      </trkpt>
      <trkpt lat="46.09558" lon="6.18537">
        <ele>831.68</ele>
        <time>2012-10-08T07:26:27Z</time>
      </trkpt>
      <trkpt lat="46.09513" lon="6.18427">
        <ele>836.48</ele>
        <time>2012-10-08T07:26:57Z</time>
      </trkpt>
      <trkpt lat="46.09448" lon="6.18336">
        <ele>842.25</ele>
        <time>2012-10-08T07:27:26Z</time>
      </trkpt>
      <trkpt lat="46.09429" lon="6.1821">
        <ele>845.62</ele>
        <time>2012-10-08T07:27:53Z</time>
      </trkpt>
      <trkpt lat="46.09376" lon="6.18105">
        <ele>847.06</ele>
        <time>2012-10-08T07:28:17Z</time>
      </trkpt>
      <trkpt lat="46.09334" lon="6.17989">
        <ele>848.02</ele>
        <time>2012-10-08T07:28:39Z</time>
      </trkpt>
      <trkpt lat="46.09322" lon="6.17859">
        <ele>850.42</ele>
        <time>2012-10-08T07:29:01Z</time>
      </trkpt>
      <trkpt lat="46.09331" lon="6.17736">
        <ele>850.42</ele>
        <time>2012-10-08T07:29:21Z</time>
      </trkpt>
      <trkpt lat="46.09249" lon="6.17669">
        <ele>851.87</ele>
        <time>2012-10-08T07:29:40Z</time>
      </trkpt>
      <trkpt lat="46.09158" lon="6.17646">
        <ele>853.31</ele>
        <time>2012-10-08T07:30:01Z</time>
      </trkpt>
      <trkpt lat="46.0908" lon="6.17594">
        <ele>853.31</ele>
        <time>2012-10-08T07:30:21Z</time>
      </trkpt>
      <trkpt lat="46.09092" lon="6.17466">
        <ele>852.83</ele>
        <time>2012-10-08T07:30:38Z</time>
      </trkpt>
      <trkpt lat="46.09061" lon="6.17358">
        <ele>853.79</ele>
        <time>2012-10-08T07:30:55Z</time>
      </trkpt>
      <trkpt lat="46.08969" lon="6.17353">
        <ele>853.79</ele>
        <time>2012-10-08T07:31:12Z</time>
      </trkpt>
      <trkpt lat="46.08893" lon="6.17286">
        <ele>852.83</ele>
        <time>2012-10-08T07:31:28Z</time>
      </trkpt>
      <trkpt lat="46.08833" lon="6.17183">
        <ele>853.31</ele>
        <time>2012-10-08T07:31:45Z</time>
      </trkpt>
      <trkpt lat="46.08739" lon="6.1717">
        <ele>853.79</ele>
        <time>2012-10-08T07:32:02Z</time>
      </trkpt>
      <trkpt lat="46.08662" lon="6.17104">
        <ele>853.31</ele>
        <time>2012-10-08T07:32:19Z</time>
      </trkpt>
      <trkpt lat="46.08616" lon="6.16992">
        <ele>852.83</ele>
        <time>2012-10-08T07:33:02Z</time>
      </trkpt>
      <trkpt lat="46.08588" lon="6.1687">
        <ele>853.79</ele>
        <time>2012-10-08T07:33:23Z</time>
      </trkpt>
      <trkpt lat="46.08564" lon="6.16747">
        <ele>853.31</ele>
        <time>2012-10-08T07:33:41Z</time>
      </trkpt>
      <trkpt lat="46.08518" lon="6.16627">
        <ele>853.79</ele>
        <time>2012-10-08T07:33:59Z</time>
      </trkpt>
      <trkpt lat="46.08442" lon="6.16556">
        <ele>853.31</ele>
        <time>2012-10-08T07:34:16Z</time>
      </trkpt>
      <trkpt lat="46.08437" lon="6.16428">
        <ele>852.83</ele>
        <time>2012-10-08T07:34:32Z</time>
      </trkpt>
      <trkpt lat="46.08394" lon="6.16315">
        <ele>852.83</ele>
        <time>2012-10-08T07:34:48Z</time>
      </trkpt>
      <trkpt lat="46.08407" lon="6.16182">
        <ele>853.31</ele>
        <time>2012-10-08T07:35:05Z</time>
      </trkpt>
      <trkpt lat="46.08389" lon="6.16054">
        <ele>852.35</ele>
        <time>2012-10-08T07:35:21Z</time>
      </trkpt>
      <trkpt lat="46.08362" lon="6.15926">
        <ele>853.79</ele>
        <time>2012-10-08T07:35:38Z</time>
      </trkpt>
      <trkpt lat="46.08299" lon="6.15834">
        <ele>854.75</ele>
        <time>2012-10-08T07:35:54Z</time>
      </trkpt>
      <trkpt lat="46.08241" lon="6.15736">
        <ele>853.79</ele>
        <time>2012-10-08T07:36:10Z</time>
      </trkpt>
      <trkpt lat="46.08204" lon="6.15614">
        <ele>854.27</ele>
        <time>2012-10-08T07:36:26Z</time>
      </trkpt>
      <trkpt lat="46.08118" lon="6.15581">
        <ele>854.75</ele>
        <time>2012-10-08T07:36:42Z</time>
      </trkpt>
      <trkpt lat="46.08025" lon="6.15595">
        <ele>857.15</ele>
        <time>2012-10-08T07:37:03Z</time>
      </trkpt>
      <trkpt lat="46.07943" lon="6.15538">
        <ele>860.52</ele>
        <time>2012-10-08T07:37:26Z</time>
      </trkpt>
      <trkpt lat="46.07854" lon="6.15513">
        <ele>861.96</ele>
        <time>2012-10-08T07:37:47Z</time>
      </trkpt>
      <trkpt lat="46.07764" lon="6.15495">
        <ele>864.36</ele>
        <time>2012-10-08T07:38:07Z</time>
      </trkpt>
      <trkpt lat="46.07679" lon="6.15453">
        <ele>865.32</ele>
        <time>2012-10-08T07:38:26Z</time>
      </trkpt>
      <trkpt lat="46.07603" lon="6.15375">
        <ele>866.77</ele>
        <time>2012-10-08T07:38:45Z</time>
      </trkpt>
      <trkpt lat="46.07546" lon="6.15267">
        <ele>867.73</ele>
        <time>2012-10-08T07:39:04Z</time>
      </trkpt>
      <trkpt lat="46.07503" lon="6.15145">
        <ele>867.73</ele>
        <time>2012-10-08T07:39:23Z</time>
      </trkpt>
      <trkpt lat="46.07497" lon="6.15014">
        <ele>868.69</ele>
        <time>2012-10-08T07:39:40Z</time>
      </trkpt>
      <trkpt lat="46.07474" lon="6.14889">
        <ele>868.69</ele>
        <time>2012-10-08T07:39:56Z</time>
      </trkpt>
      <trkpt lat="46.07505" lon="6.14765">
        <ele>868.69</ele>
        <time>2012-10-08T07:40:13Z</time>
      </trkpt>
      <trkpt lat="46.07513" lon="6.1464">
        <ele>868.69</ele>
        <time>2012-10-08T07:40:30Z</time>
      </trkpt>
      <trkpt lat="46.07423" lon="6.14622">
        <ele>870.13</ele>
        <time>2012-10-08T07:40:47Z</time>
      </trkpt>
      <trkpt lat="46.07337" lon="6.14661">
        <ele>871.57</ele>
        <time>2012-10-08T07:41:06Z</time>
      </trkpt>
      <trkpt lat="46.07246" lon="6.14639">
        <ele>877.34</ele>
        <time>2012-10-08T07:41:35Z</time>
      </trkpt>
      <trkpt lat="46.07155" lon="6.1467">
        <ele>881.19</ele>
        <time>2012-10-08T07:42:04Z</time>
      </trkpt>
      <trkpt lat="46.0707" lon="6.14632">
        <ele>885.03</ele>
        <time>2012-10-08T07:42:31Z</time>
      </trkpt>
      <trkpt lat="46.06995" lon="6.14554">
        <ele>885.51</ele>
        <time>2012-10-08T07:42:52Z</time>
      </trkpt>
      <trkpt lat="46.06925" lon="6.14468">
        <ele>885.51</ele>
        <time>2012-10-08T07:43:10Z</time>
      </trkpt>
      <trkpt lat="46.0686" lon="6.14368">
        <ele>885.03</ele>
        <time>2012-10-08T07:43:30Z</time>
      </trkpt>
      <trkpt lat="46.06779" lon="6.14301">
        <ele>885.03</ele>
        <time>2012-10-08T07:43:48Z</time>
      </trkpt>
      <trkpt lat="46.06724" lon="6.14201">
        <ele>885.51</ele>
        <time>2012-10-08T07:44:05Z</time>
      </trkpt>
      <trkpt lat="46.06702" lon="6.14075">
        <ele>885.99</ele>
        <time>2012-10-08T07:44:22Z</time>
      </trkpt>
      <trkpt lat="46.06625" lon="6.14022">
        <ele>885.51</ele>
        <time>2012-10-08T07:44:38Z</time>
      </trkpt>
      <trkpt lat="46.06542" lon="6.13974">
        <ele>885.03</ele>
        <time>2012-10-08T07:44:55Z</time>
      </trkpt>
      <trkpt lat="46.065" lon="6.13852">
        <ele>885.03</ele>
        <time>2012-10-08T07:45:12Z</time>
      </trkpt>
      <trkpt lat="46.06435" lon="6.13759">
        <ele>885.51</ele>
        <time>2012-10-08T07:45:28Z</time>
      </trkpt>
      <trkpt lat="46.06407" lon="6.1364">
        <ele>885.03</ele>
        <time>2012-10-08T07:45:44Z</time>
      </trkpt>
      <trkpt lat="46.06414" lon="6.1351">
        <ele>885.03</ele>
        <time>2012-10-08T07:46:00Z</time>
      </trkpt>
      <trkpt lat="46.0634" lon="6.13426">
        <ele>885.03</ele>
        <time>2012-10-08T07:46:16Z</time>
      </trkpt>
      <trkpt lat="46.06295" lon="6.13309">
        <ele>885.03</ele>
        <time>2012-10-08T07:46:32Z</time>
      </trkpt>
      <trkpt lat="46.06213" lon="6.13261">
        <ele>885.03</ele>
        <time>2012-10-08T07:46:47Z</time>
      </trkpt>
      <trkpt lat="46.06156" lon="6.13156">
        <ele>885.03</ele>
        <time>2012-10-08T07:47:03Z</time>
      </trkpt>
      <trkpt lat="46.06066" lon="6.13167">
        <ele>885.03</ele>
        <time>2012-10-08T07:47:19Z</time>
      </trkpt>
      <trkpt lat="46.05975" lon="6.13178">
        <ele>883.11</ele>
        <time>2012-10-08T07:47:33Z</time>
      </trkpt>
      <trkpt lat="46.05885" lon="6.13147">
        <ele>881.67</ele>
        <time>2012-10-08T07:47:47Z</time>
      </trkpt>
      <trkpt lat="46.05806" lon="6.13101">
        <ele>879.26</ele>
        <time>2012-10-08T07:47:59Z</time>
      </trkpt>
      <trkpt lat="46.0576" lon="6.12985">
        <ele>875.42</ele>
        <time>2012-10-08T07:48:10Z</time>
      </trkpt>
      <trkpt lat="46.05662" lon="6.12989">
        <ele>873.01</ele>
        <time>2012-10-08T07:48:21Z</time>
      </trkpt>
      <trkpt lat="46.05569" lon="6.12951">
        <ele>870.13</ele>
        <time>2012-10-08T07:48:32Z</time>
      </trkpt>
      <trkpt lat="46.05483" lon="6.12911">
        <ele>868.69</ele>
        <time>2012-10-08T07:48:43Z</time>
      </trkpt>
      <trkpt lat="46.05414" lon="6.1282">
        <ele>863.88</ele>
        <time>2012-10-08T07:48:53Z</time>
      </trkpt>
      <trkpt lat="46.05337" lon="6.12756">
        <ele>859.08</ele>
        <time>2012-10-08T07:49:02Z</time>
      </trkpt>
      <trkpt lat="46.05245" lon="6.12697">
        <ele>854.75</ele>
        <time>2012-10-08T07:49:12Z</time>
      </trkpt>
      <trkpt lat="46.05163" lon="6.12636">
        <ele>853.79</ele>
        <time>2012-10-08T07:49:22Z</time>
      </trkpt>
      <trkpt lat="46.05084" lon="6.12557">
        <ele>852.83</ele>
        <time>2012-10-08T07:49:34Z</time>
      </trkpt>
      <trkpt lat="46.04995" lon="6.12513">
        <ele>849.94</ele>
        <time>2012-10-08T07:49:46Z</time>
      </trkpt>
      <trkpt lat="46.04902" lon="6.12532">
        <ele>845.62</ele>
        <time>2012-10-08T07:49:56Z</time>
      </trkpt>
      <trkpt lat="46.0481" lon="6.12582">
        <ele>840.33</ele>
        <time>2012-10-08T07:50:06Z</time>
      </trkpt>
      <trkpt lat="46.04714" lon="6.12603">
        <ele>834.56</ele>
        <time>2012-10-08T07:50:16Z</time>
      </trkpt>
      <trkpt lat="46.0462" lon="6.12566">
        <ele>829.27</ele>
        <time>2012-10-08T07:50:26Z</time>
      </trkpt>
      <trkpt lat="46.04559" lon="6.12466">
        <ele>824.47</ele>
        <time>2012-10-08T07:50:35Z</time>
      </trkpt>
      <trkpt lat="46.04489" lon="6.12382">
        <ele>820.14</ele>
        <time>2012-10-08T07:50:44Z</time>
      </trkpt>
      <trkpt lat="46.04394" lon="6.12369">
        <ele>815.34</ele>
        <time>2012-10-08T07:50:53Z</time>
      </trkpt>
      <trkpt lat="46.043" lon="6.12372">
        <ele>810.53</ele>
        <time>2012-10-08T07:51:02Z</time>
      </trkpt>
      <trkpt lat="46.04209" lon="6.12377">
        <ele>805.72</ele>
        <time>2012-10-08T07:51:11Z</time>
      </trkpt>
      <trkpt lat="46.04157" lon="6.12275">
        <ele>801.88</ele>
        <time>2012-10-08T07:51:20Z</time>
      </trkpt>
      <trkpt lat="46.04115" lon="6.12151">
        <ele>797.07</ele>
        <time>2012-10-08T07:51:30Z</time>
      </trkpt>
      <trkpt lat="46.04023" lon="6.12115">
        <ele>793.71</ele>
        <time>2012-10-08T07:51:40Z</time>
      </trkpt>
      <trkpt lat="46.0393" lon="6.1208">
        <ele>790.82</ele>
        <time>2012-10-08T07:51:51Z</time>
      </trkpt>
      <trkpt lat="46.0385" lon="6.12018">
        <ele>789.38</ele>
        <time>2012-10-08T07:52:03Z</time>
      </trkpt>
      <trkpt lat="46.03783" lon="6.11929">
        <ele>787.46</ele>
        <time>2012-10-08T07:52:16Z</time>
      </trkpt>
      <trkpt lat="46.0373" lon="6.11819">
        <ele>786.5</ele>
        <time>2012-10-08T07:52:31Z</time>
      </trkpt>
      <trkpt lat="46.03687" lon="6.11703">
        <ele>786.02</ele>
        <time>2012-10-08T07:52:46Z</time>
      </trkpt>
      <trkpt lat="46.03651" lon="6.11573">
        <ele>785.53</ele>
        <time>2012-10-08T07:53:06Z</time>
      </trkpt>
      <trkpt lat="46.03618" lon="6.11448">
        <ele>786.5</ele>
        <time>2012-10-08T07:53:23Z</time>
      </trkpt>
      <trkpt lat="46.03587" lon="6.11319">
        <ele>785.53</ele>
        <time>2012-10-08T07:53:40Z</time>
      </trkpt>
      <trkpt lat="46.03556" lon="6.11197">
        <ele>785.05</ele>
        <time>2012-10-08T07:53:55Z</time>
      </trkpt>
      <trkpt lat="46.0352" lon="6.11074">
        <ele>782.65</ele>
        <time>2012-10-08T07:54:13Z</time>
      </trkpt>
      <trkpt lat="46.0351" lon="6.10939">
        <ele>782.17</ele>
        <time>2012-10-08T07:54:30Z</time>
      </trkpt>
      <trkpt lat="46.03475" lon="6.10862">
        <ele>782.17</ele>
        <time>2012-10-08T07:54:55Z</time>
      </trkpt>
      <trkpt lat="46.03399" lon="6.10782">
        <ele>784.57</ele>
        <time>2012-10-08T07:55:22Z</time>
      </trkpt>
      <trkpt lat="46.03365" lon="6.10703">
        <ele>789.38</ele>
        <time>2012-10-08T07:56:04Z</time>
      </trkpt>
      <trkpt lat="46.03379" lon="6.10701">
        <ele>787.46</ele>
        <time>2012-10-08T07:56:35Z</time>
      </trkpt>
      <trkpt lat="46.03393" lon="6.10688">
        <ele>782.17</ele>
        <time>2012-10-08T07:57:40Z</time>
      </trkpt>
      <trkpt lat="46.03405" lon="6.10674">
        <ele>797.55</ele>
        <time>2012-10-08T08:13:29Z</time>
      </trkpt>
      <trkpt lat="46.03359" lon="6.10574">
        <ele>798.99</ele>
        <time>2012-10-08T08:14:05Z</time>
      </trkpt>
      <trkpt lat="46.03289" lon="6.10631">
        <ele>800.44</ele>
        <time>2012-10-08T08:14:36Z</time>
      </trkpt>
      <trkpt lat="46.03212" lon="6.10621">
        <ele>798.99</ele>
        <time>2012-10-08T08:15:02Z</time>
      </trkpt>
      <trkpt lat="46.03127" lon="6.10562">
        <ele>796.11</ele>
        <time>2012-10-08T08:15:17Z</time>
      </trkpt>
      <trkpt lat="46.03039" lon="6.10541">
        <ele>791.78</ele>
        <time>2012-10-08T08:15:32Z</time>
      </trkpt>
      <trkpt lat="46.02939" lon="6.10548">
        <ele>786.02</ele>
        <time>2012-10-08T08:15:43Z</time>
      </trkpt>
      <trkpt lat="46.02841" lon="6.10549">
        <ele>783.13</ele>
        <time>2012-10-08T08:15:53Z</time>
      </trkpt>
      <trkpt lat="46.0277" lon="6.10468">
        <ele>777.84</ele>
        <time>2012-10-08T08:16:03Z</time>
      </trkpt>
      <trkpt lat="46.02766" lon="6.10331">
        <ele>775.92</ele>
        <time>2012-10-08T08:16:14Z</time>
      </trkpt>
      <trkpt lat="46.02781" lon="6.10202">
        <ele>773.04</ele>
        <time>2012-10-08T08:16:25Z</time>
      </trkpt>
      <trkpt lat="46.02738" lon="6.10081">
        <ele>770.63</ele>
        <time>2012-10-08T08:16:36Z</time>
      </trkpt>
      <trkpt lat="46.02649" lon="6.10037">
        <ele>768.71</ele>
        <time>2012-10-08T08:16:47Z</time>
      </trkpt>
      <trkpt lat="46.02564" lon="6.10091">
        <ele>765.83</ele>
        <time>2012-10-08T08:16:57Z</time>
      </trkpt>
      <trkpt lat="46.02487" lon="6.10175">
        <ele>761.5</ele>
        <time>2012-10-08T08:17:07Z</time>
      </trkpt>
      <trkpt lat="46.02396" lon="6.1018">
        <ele>756.69</ele>
        <time>2012-10-08T08:17:16Z</time>
      </trkpt>
      <trkpt lat="46.023" lon="6.10206">
        <ele>753.81</ele>
        <time>2012-10-08T08:17:26Z</time>
      </trkpt>
      <trkpt lat="46.02223" lon="6.10278">
        <ele>749</ele>
        <time>2012-10-08T08:17:35Z</time>
      </trkpt>
      <trkpt lat="46.02136" lon="6.10329">
        <ele>744.2</ele>
        <time>2012-10-08T08:17:44Z</time>
      </trkpt>
      <trkpt lat="46.02041" lon="6.10328">
        <ele>738.91</ele>
        <time>2012-10-08T08:17:53Z</time>
      </trkpt>
      <trkpt lat="46.01949" lon="6.10306">
        <ele>733.62</ele>
        <time>2012-10-08T08:18:02Z</time>
      </trkpt>
      <trkpt lat="46.01861" lon="6.10301">
        <ele>728.34</ele>
        <time>2012-10-08T08:18:11Z</time>
      </trkpt>
      <trkpt lat="46.0177" lon="6.10326">
        <ele>724.01</ele>
        <time>2012-10-08T08:18:21Z</time>
      </trkpt>
      <trkpt lat="46.01683" lon="6.10359">
        <ele>717.76</ele>
        <time>2012-10-08T08:18:30Z</time>
      </trkpt>
      <trkpt lat="46.01599" lon="6.10392">
        <ele>711.99</ele>
        <time>2012-10-08T08:18:43Z</time>
      </trkpt>
      <trkpt lat="46.01582" lon="6.10517">
        <ele>710.55</ele>
        <time>2012-10-08T08:18:56Z</time>
      </trkpt>
      <trkpt lat="46.01549" lon="6.10638">
        <ele>705.75</ele>
        <time>2012-10-08T08:19:06Z</time>
      </trkpt>
      <trkpt lat="46.01519" lon="6.10773">
        <ele>700.94</ele>
        <time>2012-10-08T08:19:16Z</time>
      </trkpt>
      <trkpt lat="46.0149" lon="6.10909">
        <ele>695.17</ele>
        <time>2012-10-08T08:19:26Z</time>
      </trkpt>
      <trkpt lat="46.01458" lon="6.11043">
        <ele>689.4</ele>
        <time>2012-10-08T08:19:36Z</time>
      </trkpt>
      <trkpt lat="46.01397" lon="6.1115">
        <ele>683.63</ele>
        <time>2012-10-08T08:19:46Z</time>
      </trkpt>
      <trkpt lat="46.0131" lon="6.11198">
        <ele>678.83</ele>
        <time>2012-10-08T08:19:56Z</time>
      </trkpt>
      <trkpt lat="46.01242" lon="6.11151">
        <ele>675.94</ele>
        <time>2012-10-08T08:24:13Z</time>
      </trkpt>
      <trkpt lat="46.01154" lon="6.11122">
        <ele>676.91</ele>
        <time>2012-10-08T08:24:40Z</time>
      </trkpt>
      <trkpt lat="46.01068" lon="6.11132">
        <ele>676.91</ele>
        <time>2012-10-08T08:25:06Z</time>
      </trkpt>
      <trkpt lat="46.01016" lon="6.1124">
        <ele>676.91</ele>
        <time>2012-10-08T08:25:26Z</time>
      </trkpt>
      <trkpt lat="46.00961" lon="6.11347">
        <ele>676.42</ele>
        <time>2012-10-08T08:25:43Z</time>
      </trkpt>
      <trkpt lat="46.00922" lon="6.11475">
        <ele>674.5</ele>
        <time>2012-10-08T08:25:57Z</time>
      </trkpt>
      <trkpt lat="46.00866" lon="6.1158">
        <ele>672.1</ele>
        <time>2012-10-08T08:26:09Z</time>
      </trkpt>
      <trkpt lat="46.00808" lon="6.11683">
        <ele>669.7</ele>
        <time>2012-10-08T08:26:21Z</time>
      </trkpt>
      <trkpt lat="46.0074" lon="6.11781">
        <ele>666.33</ele>
        <time>2012-10-08T08:26:33Z</time>
      </trkpt>
      <trkpt lat="46.00655" lon="6.11833">
        <ele>663.45</ele>
        <time>2012-10-08T08:26:44Z</time>
      </trkpt>
      <trkpt lat="46.0057" lon="6.11884">
        <ele>661.04</ele>
        <time>2012-10-08T08:26:55Z</time>
      </trkpt>
      <trkpt lat="46.00485" lon="6.11932">
        <ele>658.64</ele>
        <time>2012-10-08T08:27:07Z</time>
      </trkpt>
      <trkpt lat="46.00398" lon="6.11983">
        <ele>657.2</ele>
        <time>2012-10-08T08:27:21Z</time>
      </trkpt>
      <trkpt lat="46.00309" lon="6.12038">
        <ele>654.31</ele>
        <time>2012-10-08T08:27:35Z</time>
      </trkpt>
      <trkpt lat="46.00224" lon="6.12092">
        <ele>652.39</ele>
        <time>2012-10-08T08:27:48Z</time>
      </trkpt>
      <trkpt lat="46.00141" lon="6.1214">
        <ele>650.47</ele>
        <time>2012-10-08T08:28:00Z</time>
      </trkpt>
      <trkpt lat="46.00052" lon="6.12193">
        <ele>649.99</ele>
        <time>2012-10-08T08:28:14Z</time>
      </trkpt>
      <trkpt lat="45.99969" lon="6.12242">
        <ele>650.47</ele>
        <time>2012-10-08T08:28:29Z</time>
      </trkpt>
      <trkpt lat="45.99884" lon="6.12299">
        <ele>649.03</ele>
        <time>2012-10-08T08:28:46Z</time>
      </trkpt>
      <trkpt lat="45.99801" lon="6.12353">
        <ele>648.55</ele>
        <time>2012-10-08T08:29:01Z</time>
      </trkpt>
      <trkpt lat="45.99719" lon="6.12403">
        <ele>647.1</ele>
        <time>2012-10-08T08:29:14Z</time>
      </trkpt>
      <trkpt lat="45.99632" lon="6.12447">
        <ele>646.62</ele>
        <time>2012-10-08T08:29:28Z</time>
      </trkpt>
      <trkpt lat="45.99548" lon="6.1247">
        <ele>648.07</ele>
        <time>2012-10-08T08:29:49Z</time>
      </trkpt>
      <trkpt lat="45.99461" lon="6.12493">
        <ele>650.95</ele>
        <time>2012-10-08T08:30:10Z</time>
      </trkpt>
      <trkpt lat="45.99374" lon="6.12544">
        <ele>654.8</ele>
        <time>2012-10-08T08:30:35Z</time>
      </trkpt>
      <trkpt lat="45.9931" lon="6.1264">
        <ele>657.2</ele>
        <time>2012-10-08T08:30:58Z</time>
      </trkpt>
      <trkpt lat="45.99253" lon="6.12745">
        <ele>656.24</ele>
        <time>2012-10-08T08:31:17Z</time>
      </trkpt>
      <trkpt lat="45.99196" lon="6.12848">
        <ele>654.8</ele>
        <time>2012-10-08T08:31:32Z</time>
      </trkpt>
      <trkpt lat="45.9912" lon="6.12916">
        <ele>653.83</ele>
        <time>2012-10-08T08:31:47Z</time>
      </trkpt>
      <trkpt lat="45.99029" lon="6.1292">
        <ele>652.87</ele>
        <time>2012-10-08T08:32:00Z</time>
      </trkpt>
      <trkpt lat="45.98936" lon="6.12913">
        <ele>649.99</ele>
        <time>2012-10-08T08:32:13Z</time>
      </trkpt>
      <trkpt lat="45.9884" lon="6.12901">
        <ele>648.07</ele>
        <time>2012-10-08T08:32:26Z</time>
      </trkpt>
      <trkpt lat="45.98744" lon="6.12893">
        <ele>646.62</ele>
        <time>2012-10-08T08:32:39Z</time>
      </trkpt>
      <trkpt lat="45.98654" lon="6.12908">
        <ele>646.14</ele>
        <time>2012-10-08T08:32:52Z</time>
      </trkpt>
      <trkpt lat="45.98564" lon="6.12935">
        <ele>646.14</ele>
        <time>2012-10-08T08:33:07Z</time>
      </trkpt>
      <trkpt lat="45.98476" lon="6.12962">
        <ele>648.07</ele>
        <time>2012-10-08T08:33:26Z</time>
      </trkpt>
      <trkpt lat="45.98385" lon="6.12986">
        <ele>649.99</ele>
        <time>2012-10-08T08:33:45Z</time>
      </trkpt>
      <trkpt lat="45.98299" lon="6.13013">
        <ele>649.03</ele>
        <time>2012-10-08T08:34:05Z</time>
      </trkpt>
      <trkpt lat="45.98202" lon="6.13042">
        <ele>646.62</ele>
        <time>2012-10-08T08:34:20Z</time>
      </trkpt>
      <trkpt lat="45.98107" lon="6.13071">
        <ele>642.78</ele>
        <time>2012-10-08T08:34:33Z</time>
      </trkpt>
      <trkpt lat="45.98017" lon="6.13098">
        <ele>641.82</ele>
        <time>2012-10-08T08:34:45Z</time>
      </trkpt>
      <trkpt lat="45.97927" lon="6.13125">
        <ele>640.86</ele>
        <time>2012-10-08T08:34:58Z</time>
      </trkpt>
      <trkpt lat="45.97833" lon="6.13152">
        <ele>639.89</ele>
        <time>2012-10-08T08:35:12Z</time>
      </trkpt>
      <trkpt lat="45.97745" lon="6.13179">
        <ele>637.49</ele>
        <time>2012-10-08T08:35:25Z</time>
      </trkpt>
      <trkpt lat="45.97655" lon="6.13205">
        <ele>633.65</ele>
        <time>2012-10-08T08:35:37Z</time>
      </trkpt>
      <trkpt lat="45.97566" lon="6.13229">
        <ele>630.76</ele>
        <time>2012-10-08T08:35:48Z</time>
      </trkpt>
      <trkpt lat="45.97469" lon="6.13239">
        <ele>629.8</ele>
        <time>2012-10-08T08:36:01Z</time>
      </trkpt>
      <trkpt lat="45.97373" lon="6.13236">
        <ele>629.32</ele>
        <time>2012-10-08T08:36:15Z</time>
      </trkpt>
      <trkpt lat="45.97277" lon="6.13227">
        <ele>627.88</ele>
        <time>2012-10-08T08:36:29Z</time>
      </trkpt>
      <trkpt lat="45.97185" lon="6.1322">
        <ele>627.4</ele>
        <time>2012-10-08T08:36:42Z</time>
      </trkpt>
      <trkpt lat="45.97088" lon="6.13215">
        <ele>625.96</ele>
        <time>2012-10-08T08:36:56Z</time>
      </trkpt>
      <trkpt lat="45.96995" lon="6.13209">
        <ele>623.07</ele>
        <time>2012-10-08T08:37:08Z</time>
      </trkpt>
      <trkpt lat="45.96899" lon="6.13202">
        <ele>617.78</ele>
        <time>2012-10-08T08:37:19Z</time>
      </trkpt>
      <trkpt lat="45.96806" lon="6.13195">
        <ele>613.46</ele>
        <time>2012-10-08T08:37:29Z</time>
      </trkpt>
      <trkpt lat="45.96711" lon="6.13188">
        <ele>610.57</ele>
        <time>2012-10-08T08:37:39Z</time>
      </trkpt>
      <trkpt lat="45.96619" lon="6.1318">
        <ele>611.06</ele>
        <time>2012-10-08T08:37:51Z</time>
      </trkpt>
      <trkpt lat="45.96525" lon="6.13172">
        <ele>613.46</ele>
        <time>2012-10-08T08:38:07Z</time>
      </trkpt>
      <trkpt lat="45.96431" lon="6.13162">
        <ele>613.94</ele>
        <time>2012-10-08T08:38:23Z</time>
      </trkpt>
      <trkpt lat="45.96343" lon="6.13156">
        <ele>612.98</ele>
        <time>2012-10-08T08:38:39Z</time>
      </trkpt>
      <trkpt lat="45.96249" lon="6.13155">
        <ele>611.06</ele>
        <time>2012-10-08T08:38:54Z</time>
      </trkpt>
      <trkpt lat="45.96153" lon="6.13153">
        <ele>610.57</ele>
        <time>2012-10-08T08:39:08Z</time>
      </trkpt>
      <trkpt lat="45.9606" lon="6.13165">
        <ele>609.61</ele>
        <time>2012-10-08T08:39:22Z</time>
      </trkpt>
      <trkpt lat="45.95975" lon="6.13224">
        <ele>610.57</ele>
        <time>2012-10-08T08:39:38Z</time>
      </trkpt>
      <trkpt lat="45.95891" lon="6.13274">
        <ele>611.06</ele>
        <time>2012-10-08T08:39:53Z</time>
      </trkpt>
      <trkpt lat="45.9581" lon="6.13218">
        <ele>608.17</ele>
        <time>2012-10-08T08:40:06Z</time>
      </trkpt>
      <trkpt lat="45.95785" lon="6.13092">
        <ele>603.85</ele>
        <time>2012-10-08T08:40:17Z</time>
      </trkpt>
      <trkpt lat="45.95819" lon="6.12964">
        <ele>601.44</ele>
        <time>2012-10-08T08:40:28Z</time>
      </trkpt>
      <trkpt lat="45.95896" lon="6.12883">
        <ele>598.08</ele>
        <time>2012-10-08T08:40:39Z</time>
      </trkpt>
      <trkpt lat="45.95944" lon="6.12765">
        <ele>594.23</ele>
        <time>2012-10-08T08:40:49Z</time>
      </trkpt>
      <trkpt lat="45.95905" lon="6.12624">
        <ele>589.91</ele>
        <time>2012-10-08T08:40:59Z</time>
      </trkpt>
      <trkpt lat="45.95824" lon="6.1256">
        <ele>586.54</ele>
        <time>2012-10-08T08:41:08Z</time>
      </trkpt>
      <trkpt lat="45.95731" lon="6.12583">
        <ele>583.66</ele>
        <time>2012-10-08T08:41:17Z</time>
      </trkpt>
      <trkpt lat="45.95649" lon="6.12653">
        <ele>577.41</ele>
        <time>2012-10-08T08:41:26Z</time>
      </trkpt>
      <trkpt lat="45.95559" lon="6.12701">
        <ele>573.56</ele>
        <time>2012-10-08T08:41:35Z</time>
      </trkpt>
      <trkpt lat="45.95476" lon="6.12631">
        <ele>568.76</ele>
        <time>2012-10-08T08:41:44Z</time>
      </trkpt>
      <trkpt lat="45.95467" lon="6.12492">
        <ele>563.95</ele>
        <time>2012-10-08T08:41:53Z</time>
      </trkpt>
      <trkpt lat="45.95504" lon="6.12375">
        <ele>559.14</ele>
        <time>2012-10-08T08:42:02Z</time>
      </trkpt>
      <trkpt lat="45.95487" lon="6.12244">
        <ele>554.82</ele>
        <time>2012-10-08T08:42:12Z</time>
      </trkpt>
      <trkpt lat="45.95396" lon="6.12198">
        <ele>551.93</ele>
        <time>2012-10-08T08:42:21Z</time>
      </trkpt>
      <trkpt lat="45.95297" lon="6.12224">
        <ele>551.45</ele>
        <time>2012-10-08T08:42:31Z</time>
      </trkpt>
      <trkpt lat="45.95199" lon="6.12246">
        <ele>545.69</ele>
        <time>2012-10-08T08:42:41Z</time>
      </trkpt>
      <trkpt lat="45.95107" lon="6.1226">
        <ele>539.92</ele>
        <time>2012-10-08T08:42:49Z</time>
      </trkpt>
      <trkpt lat="45.95012" lon="6.12227">
        <ele>533.19</ele>
        <time>2012-10-08T08:42:57Z</time>
      </trkpt>
      <trkpt lat="45.94918" lon="6.12191">
        <ele>528.38</ele>
        <time>2012-10-08T08:43:05Z</time>
      </trkpt>
      <trkpt lat="45.94831" lon="6.12161">
        <ele>524.54</ele>
        <time>2012-10-08T08:43:13Z</time>
      </trkpt>
      <trkpt lat="45.94739" lon="6.12128">
        <ele>519.73</ele>
        <time>2012-10-08T08:43:22Z</time>
      </trkpt>
      <trkpt lat="45.94649" lon="6.12097">
        <ele>515.88</ele>
        <time>2012-10-08T08:43:31Z</time>
      </trkpt>
      <trkpt lat="45.9456" lon="6.12066">
        <ele>511.56</ele>
        <time>2012-10-08T08:43:40Z</time>
      </trkpt>
      <trkpt lat="45.94468" lon="6.1209">
        <ele>508.19</ele>
        <time>2012-10-08T08:43:50Z</time>
      </trkpt>
      <trkpt lat="45.94412" lon="6.12201">
        <ele>503.87</ele>
        <time>2012-10-08T08:44:00Z</time>
      </trkpt>
      <trkpt lat="45.94364" lon="6.12313">
        <ele>500.5</ele>
        <time>2012-10-08T08:44:09Z</time>
      </trkpt>
      <trkpt lat="45.9427" lon="6.1232">
        <ele>497.62</ele>
        <time>2012-10-08T08:44:19Z</time>
      </trkpt>
      <trkpt lat="45.94181" lon="6.12292">
        <ele>495.22</ele>
        <time>2012-10-08T08:44:30Z</time>
      </trkpt>
      <trkpt lat="45.94088" lon="6.1227">
        <ele>494.26</ele>
        <time>2012-10-08T08:44:42Z</time>
      </trkpt>
      <trkpt lat="45.93997" lon="6.12248">
        <ele>492.81</ele>
        <time>2012-10-08T08:45:16Z</time>
      </trkpt>
      <trkpt lat="45.93906" lon="6.12222">
        <ele>491.37</ele>
        <time>2012-10-08T08:45:30Z</time>
      </trkpt>
      <trkpt lat="45.93815" lon="6.12197">
        <ele>490.89</ele>
        <time>2012-10-08T08:45:44Z</time>
      </trkpt>
      <trkpt lat="45.93728" lon="6.12227">
        <ele>488.01</ele>
        <time>2012-10-08T08:45:57Z</time>
      </trkpt>
      <trkpt lat="45.93635" lon="6.12222">
        <ele>486.56</ele>
        <time>2012-10-08T08:46:09Z</time>
      </trkpt>
      <trkpt lat="45.93558" lon="6.1214">
        <ele>483.2</ele>
        <time>2012-10-08T08:46:20Z</time>
      </trkpt>
      <trkpt lat="45.93492" lon="6.12047">
        <ele>483.68</ele>
        <time>2012-10-08T08:46:31Z</time>
      </trkpt>
      <trkpt lat="45.93431" lon="6.1195">
        <ele>481.76</ele>
        <time>2012-10-08T08:46:44Z</time>
      </trkpt>
      <trkpt lat="45.93339" lon="6.11928">
        <ele>475.99</ele>
        <time>2012-10-08T08:46:54Z</time>
      </trkpt>
      <trkpt lat="45.93242" lon="6.11896">
        <ele>470.7</ele>
        <time>2012-10-08T08:47:05Z</time>
      </trkpt>
      <trkpt lat="45.9315" lon="6.11887">
        <ele>466.38</ele>
        <time>2012-10-08T08:47:15Z</time>
      </trkpt>
      <trkpt lat="45.93061" lon="6.11925">
        <ele>462.53</ele>
        <time>2012-10-08T08:47:25Z</time>
      </trkpt>
      <trkpt lat="45.9299" lon="6.12008">
        <ele>460.61</ele>
        <time>2012-10-08T08:47:35Z</time>
      </trkpt>
      <trkpt lat="45.92933" lon="6.12114">
        <ele>462.05</ele>
        <time>2012-10-08T08:47:47Z</time>
      </trkpt>
      <trkpt lat="45.92889" lon="6.12233">
        <ele>463.97</ele>
        <time>2012-10-08T08:48:02Z</time>
      </trkpt>
      <trkpt lat="45.9285" lon="6.12351">
        <ele>466.38</ele>
        <time>2012-10-08T08:48:17Z</time>
      </trkpt>
      <trkpt lat="45.92782" lon="6.12444">
        <ele>467.82</ele>
        <time>2012-10-08T08:48:35Z</time>
      </trkpt>
      <trkpt lat="45.92717" lon="6.12543">
        <ele>473.11</ele>
        <time>2012-10-08T08:48:56Z</time>
      </trkpt>
      <trkpt lat="45.92644" lon="6.12599">
        <ele>476.95</ele>
        <time>2012-10-08T08:49:17Z</time>
      </trkpt>
      <trkpt lat="45.92552" lon="6.1256">
        <ele>475.99</ele>
        <time>2012-10-08T08:49:37Z</time>
      </trkpt>
      <trkpt lat="45.92462" lon="6.12544">
        <ele>477.91</ele>
        <time>2012-10-08T08:49:54Z</time>
      </trkpt>
      <trkpt lat="45.92426" lon="6.12661">
        <ele>476.95</ele>
        <time>2012-10-08T08:50:22Z</time>
      </trkpt>
      <trkpt lat="45.92462" lon="6.12785">
        <ele>476.95</ele>
        <time>2012-10-08T08:50:40Z</time>
      </trkpt>
      <trkpt lat="45.92436" lon="6.12912">
        <ele>477.91</ele>
        <time>2012-10-08T08:50:57Z</time>
      </trkpt>
      <trkpt lat="45.92374" lon="6.13007">
        <ele>477.43</ele>
        <time>2012-10-08T08:51:12Z</time>
      </trkpt>
      <trkpt lat="45.92305" lon="6.13094">
        <ele>477.91</ele>
        <time>2012-10-08T08:51:26Z</time>
      </trkpt>
      <trkpt lat="45.92247" lon="6.13199">
        <ele>477.91</ele>
        <time>2012-10-08T08:51:42Z</time>
      </trkpt>
      <trkpt lat="45.92188" lon="6.13304">
        <ele>478.87</ele>
        <time>2012-10-08T08:51:59Z</time>
      </trkpt>
      <trkpt lat="45.92149" lon="6.13376">
        <ele>480.32</ele>
        <time>2012-10-08T08:53:04Z</time>
      </trkpt>
      <trkpt lat="45.92201" lon="6.13484">
        <ele>489.45</ele>
        <time>2012-10-08T08:53:40Z</time>
      </trkpt>
      <trkpt lat="45.92276" lon="6.13564">
        <ele>498.58</ele>
        <time>2012-10-08T08:54:21Z</time>
      </trkpt>
      <trkpt lat="45.92314" lon="6.13678">
        <ele>507.23</ele>
        <time>2012-10-08T08:55:02Z</time>
      </trkpt>
      <trkpt lat="45.92238" lon="6.13754">
        <ele>512.52</ele>
        <time>2012-10-08T08:55:40Z</time>
      </trkpt>
      <trkpt lat="45.92164" lon="6.13835">
        <ele>514.44</ele>
        <time>2012-10-08T08:56:06Z</time>
      </trkpt>
      <trkpt lat="45.92091" lon="6.13916">
        <ele>515.88</ele>
        <time>2012-10-08T08:56:27Z</time>
      </trkpt>
      <trkpt lat="45.92029" lon="6.14012">
        <ele>515.4</ele>
        <time>2012-10-08T08:56:47Z</time>
      </trkpt>
      <trkpt lat="45.92092" lon="6.14086">
        <ele>518.29</ele>
        <time>2012-10-08T08:57:12Z</time>
      </trkpt>
      <trkpt lat="45.92121" lon="6.14209">
        <ele>518.29</ele>
        <time>2012-10-08T08:57:34Z</time>
      </trkpt>
      <trkpt lat="45.92093" lon="6.14336">
        <ele>515.4</ele>
        <time>2012-10-08T08:57:51Z</time>
      </trkpt>
      <trkpt lat="45.92039" lon="6.14439">
        <ele>511.56</ele>
        <time>2012-10-08T08:58:10Z</time>
      </trkpt>
      <trkpt lat="45.91971" lon="6.14492">
        <ele>508.67</ele>
        <time>2012-10-08T08:58:41Z</time>
      </trkpt>
      <trkpt lat="45.91933" lon="6.14381">
        <ele>505.31</ele>
        <time>2012-10-08T08:59:03Z</time>
      </trkpt>
      <trkpt lat="45.9193" lon="6.14255">
        <ele>506.75</ele>
        <time>2012-10-08T08:59:44Z</time>
      </trkpt>
      <trkpt lat="45.91936" lon="6.14227">
        <ele>510.12</ele>
        <time>2012-10-08T09:14:00Z</time>
      </trkpt>
      <trkpt lat="45.91926" lon="6.14244">
        <ele>510.12</ele>
        <time>2012-10-08T09:14:51Z</time>
      </trkpt>
      <trkpt lat="45.91865" lon="6.14342">
        <ele>508.19</ele>
        <time>2012-10-08T09:15:16Z</time>
      </trkpt>
      <trkpt lat="45.91807" lon="6.1444">
        <ele>504.35</ele>
        <time>2012-10-08T09:15:38Z</time>
      </trkpt>
      <trkpt lat="45.91727" lon="6.14514">
        <ele>498.58</ele>
        <time>2012-10-08T09:16:04Z</time>
      </trkpt>
      <trkpt lat="45.91655" lon="6.14608">
        <ele>488.01</ele>
        <time>2012-10-08T09:16:17Z</time>
      </trkpt>
      <trkpt lat="45.9159" lon="6.14704">
        <ele>479.35</ele>
        <time>2012-10-08T09:16:31Z</time>
      </trkpt>
      <trkpt lat="45.91519" lon="6.14669">
        <ele>475.03</ele>
        <time>2012-10-08T09:17:07Z</time>
      </trkpt>
      <trkpt lat="45.91468" lon="6.14562">
        <ele>472.14</ele>
        <time>2012-10-08T09:17:22Z</time>
      </trkpt>
      <trkpt lat="45.91424" lon="6.14442">
        <ele>471.18</ele>
        <time>2012-10-08T09:17:36Z</time>
      </trkpt>
      <trkpt lat="45.91365" lon="6.14335">
        <ele>470.22</ele>
        <time>2012-10-08T09:17:52Z</time>
      </trkpt>
      <trkpt lat="45.91301" lon="6.14243">
        <ele>469.74</ele>
        <time>2012-10-08T09:18:27Z</time>
      </trkpt>
      <trkpt lat="45.9124" lon="6.14144">
        <ele>469.26</ele>
        <time>2012-10-08T09:18:44Z</time>
      </trkpt>
      <trkpt lat="45.91183" lon="6.1404">
        <ele>469.26</ele>
        <time>2012-10-08T09:19:00Z</time>
      </trkpt>
      <trkpt lat="45.91124" lon="6.13934">
        <ele>468.78</ele>
        <time>2012-10-08T09:19:16Z</time>
      </trkpt>
      <trkpt lat="45.91069" lon="6.13834">
        <ele>467.82</ele>
        <time>2012-10-08T09:19:38Z</time>
      </trkpt>
      <trkpt lat="45.91013" lon="6.1373">
        <ele>468.3</ele>
        <time>2012-10-08T09:20:13Z</time>
      </trkpt>
      <trkpt lat="45.90956" lon="6.13629">
        <ele>467.34</ele>
        <time>2012-10-08T09:20:28Z</time>
      </trkpt>
      <trkpt lat="45.90866" lon="6.13574">
        <ele>466.38</ele>
        <time>2012-10-08T09:20:43Z</time>
      </trkpt>
      <trkpt lat="45.90777" lon="6.13567">
        <ele>465.42</ele>
        <time>2012-10-08T09:21:01Z</time>
      </trkpt>
      <trkpt lat="45.90709" lon="6.13474">
        <ele>465.42</ele>
        <time>2012-10-08T09:21:19Z</time>
      </trkpt>
      <trkpt lat="45.90644" lon="6.13383">
        <ele>464.45</ele>
        <time>2012-10-08T09:21:36Z</time>
      </trkpt>
      <trkpt lat="45.90578" lon="6.1329">
        <ele>464.93</ele>
        <time>2012-10-08T09:21:52Z</time>
      </trkpt>
      <trkpt lat="45.90519" lon="6.1323">
        <ele>463.97</ele>
        <time>2012-10-08T09:22:11Z</time>
      </trkpt>
      <trkpt lat="45.90485" lon="6.13354">
        <ele>464.45</ele>
        <time>2012-10-08T09:22:29Z</time>
      </trkpt>
      <trkpt lat="45.90441" lon="6.13467">
        <ele>463.97</ele>
        <time>2012-10-08T09:22:45Z</time>
      </trkpt>
      <trkpt lat="45.90377" lon="6.13559">
        <ele>463.49</ele>
        <time>2012-10-08T09:23:03Z</time>
      </trkpt>
      <trkpt lat="45.90322" lon="6.13523">
        <ele>463.01</ele>
        <time>2012-10-08T09:24:55Z</time>
      </trkpt>
      <trkpt lat="45.90284" lon="6.13392">
        <ele>462.53</ele>
        <time>2012-10-08T09:25:16Z</time>
      </trkpt>
      <trkpt lat="45.90201" lon="6.1331">
        <ele>462.53</ele>
        <time>2012-10-08T09:25:38Z</time>
      </trkpt>
      <trkpt lat="45.90122" lon="6.13242">
        <ele>463.01</ele>
        <time>2012-10-08T09:25:56Z</time>
      </trkpt>
      <trkpt lat="45.90046" lon="6.1317">
        <ele>462.53</ele>
        <time>2012-10-08T09:26:16Z</time>
      </trkpt>
      <trkpt lat="45.90008" lon="6.13045">
        <ele>462.53</ele>
        <time>2012-10-08T09:27:57Z</time>
      </trkpt>
      <trkpt lat="45.90016" lon="6.12887">
        <ele>462.53</ele>
        <time>2012-10-08T09:28:29Z</time>
      </trkpt>
      <trkpt lat="45.90036" lon="6.12739">
        <ele>462.53</ele>
        <time>2012-10-08T09:29:31Z</time>
      </trkpt>
      <trkpt lat="45.90038" lon="6.12606">
        <ele>462.05</ele>
        <time>2012-10-08T09:30:01Z</time>
      </trkpt>
      <trkpt lat="45.90124" lon="6.12554">
        <ele>463.49</ele>
        <time>2012-10-08T09:31:07Z</time>
      </trkpt>
      <trkpt lat="45.90253" lon="6.12501">
        <ele>464.93</ele>
        <time>2012-10-08T09:32:22Z</time>
      </trkpt>
      <trkpt lat="45.90267" lon="6.12486">
        <ele>464.93</ele>
        <time>2012-10-08T09:35:15Z</time>
      </trkpt>
      <trkpt lat="45.90373" lon="6.12478">
        <ele>465.42</ele>
        <time>2012-10-08T09:37:19Z</time>
      </trkpt>
      <trkpt lat="45.90346" lon="6.12582">
        <ele>465.9</ele>
        <time>2012-10-08T09:37:50Z</time>
      </trkpt>
      <trkpt lat="45.90258" lon="6.12641">
        <ele>465.42</ele>
        <time>2012-10-08T09:38:18Z</time>
      </trkpt>
      <trkpt lat="45.90183" lon="6.12707">
        <ele>464.93</ele>
        <time>2012-10-08T09:38:57Z</time>
      </trkpt>
      <trkpt lat="45.90092" lon="6.12742">
        <ele>463.49</ele>
        <time>2012-10-08T09:39:37Z</time>
      </trkpt>
      <trkpt lat="45.90004" lon="6.12808">
        <ele>464.45</ele>
        <time>2012-10-08T09:40:50Z</time>
      </trkpt>
      <trkpt lat="45.89913" lon="6.12855">
        <ele>463.97</ele>
        <time>2012-10-08T09:41:11Z</time>
      </trkpt>
      <trkpt lat="45.89847" lon="6.12856">
        <ele>463.49</ele>
        <time>2012-10-08T09:42:06Z</time>
      </trkpt>
      <trkpt lat="45.89873" lon="6.12728">
        <ele>462.05</ele>
        <time>2012-10-08T09:43:16Z</time>
      </trkpt>
      <trkpt lat="45.89864" lon="6.12594">
        <ele>463.49</ele>
        <time>2012-10-08T09:45:22Z</time>
      </trkpt>
      <trkpt lat="45.8983" lon="6.12455">
        <ele>463.01</ele>
        <time>2012-10-08T09:46:46Z</time>
      </trkpt>
      <trkpt lat="45.89789" lon="6.12342">
        <ele>463.97</ele>
        <time>2012-10-08T09:47:55Z</time>
      </trkpt>
      <trkpt lat="45.89736" lon="6.12231">
        <ele>463.01</ele>
        <time>2012-10-08T09:48:51Z</time>
      </trkpt>
      <trkpt lat="45.89703" lon="6.12108">
        <ele>463.97</ele>
        <time>2012-10-08T09:49:11Z</time>
      </trkpt>
      <trkpt lat="45.89633" lon="6.12115">
        <ele>463.01</ele>
        <time>2012-10-08T09:49:57Z</time>
      </trkpt>
      <trkpt lat="45.89556" lon="6.12189">
        <ele>463.01</ele>
        <time>2012-10-08T09:50:15Z</time>
      </trkpt>
      <trkpt lat="45.89529" lon="6.12272">
        <ele>464.93</ele>
        <time>2012-10-08T09:50:35Z</time>
      </trkpt>
      <trkpt lat="45.89521" lon="6.12404">
        <ele>472.14</ele>
        <time>2012-10-08T09:51:03Z</time>
      </trkpt>
      <trkpt lat="45.89536" lon="6.12541">
        <ele>480.8</ele>
        <time>2012-10-08T09:51:39Z</time>
      </trkpt>
      <trkpt lat="45.8952" lon="6.12678">
        <ele>488.01</ele>
        <time>2012-10-08T09:52:12Z</time>
      </trkpt>
      <trkpt lat="45.89462" lon="6.12779">
        <ele>492.33</ele>
        <time>2012-10-08T09:53:00Z</time>
      </trkpt>
      <trkpt lat="45.89408" lon="6.12886">
        <ele>489.45</ele>
        <time>2012-10-08T09:53:17Z</time>
      </trkpt>
      <trkpt lat="45.89426" lon="6.12996">
        <ele>490.41</ele>
        <time>2012-10-08T09:53:34Z</time>
      </trkpt>
      <trkpt lat="45.89509" lon="6.12941">
        <ele>481.28</ele>
        <time>2012-10-08T09:53:46Z</time>
      </trkpt>
      <trkpt lat="45.89578" lon="6.13037">
        <ele>472.63</ele>
        <time>2012-10-08T09:53:55Z</time>
      </trkpt>
      <trkpt lat="45.89646" lon="6.13137">
        <ele>464.45</ele>
        <time>2012-10-08T09:54:05Z</time>
      </trkpt>
      <trkpt lat="45.89621" lon="6.13234">
        <ele>463.01</ele>
        <time>2012-10-08T09:54:20Z</time>
      </trkpt>
      <trkpt lat="45.89549" lon="6.13318">
        <ele>463.01</ele>
        <time>2012-10-08T09:54:38Z</time>
      </trkpt>
      <trkpt lat="45.89509" lon="6.1339">
        <ele>462.53</ele>
        <time>2012-10-08T09:55:05Z</time>
      </trkpt>
      <trkpt lat="45.89435" lon="6.13473">
        <ele>462.05</ele>
        <time>2012-10-08T09:55:24Z</time>
      </trkpt>
      <trkpt lat="45.89369" lon="6.1357">
        <ele>462.05</ele>
        <time>2012-10-08T09:55:40Z</time>
      </trkpt>
      <trkpt lat="45.893" lon="6.13665">
        <ele>462.05</ele>
        <time>2012-10-08T09:55:56Z</time>
      </trkpt>
      <trkpt lat="45.8924" lon="6.13764">
        <ele>462.53</ele>
        <time>2012-10-08T09:56:12Z</time>
      </trkpt>
      <trkpt lat="45.89179" lon="6.13868">
        <ele>463.01</ele>
        <time>2012-10-08T09:56:28Z</time>
      </trkpt>
      <trkpt lat="45.89121" lon="6.1397">
        <ele>462.05</ele>
        <time>2012-10-08T09:56:43Z</time>
      </trkpt>
      <trkpt lat="45.89072" lon="6.14086">
        <ele>461.57</ele>
        <time>2012-10-08T09:56:58Z</time>
      </trkpt>
      <trkpt lat="45.89058" lon="6.1422">
        <ele>463.01</ele>
        <time>2012-10-08T09:57:14Z</time>
      </trkpt>
      <trkpt lat="45.89009" lon="6.14328">
        <ele>463.01</ele>
        <time>2012-10-08T09:57:30Z</time>
      </trkpt>
      <trkpt lat="45.88921" lon="6.14362">
        <ele>462.53</ele>
        <time>2012-10-08T09:57:45Z</time>
      </trkpt>
      <trkpt lat="45.88826" lon="6.14363">
        <ele>462.53</ele>
        <time>2012-10-08T09:58:02Z</time>
      </trkpt>
      <trkpt lat="45.88733" lon="6.14337">
        <ele>462.05</ele>
        <time>2012-10-08T09:58:18Z</time>
      </trkpt>
      <trkpt lat="45.88644" lon="6.14301">
        <ele>462.05</ele>
        <time>2012-10-08T09:58:33Z</time>
      </trkpt>
      <trkpt lat="45.88558" lon="6.14256">
        <ele>462.05</ele>
        <time>2012-10-08T09:58:48Z</time>
      </trkpt>
      <trkpt lat="45.88467" lon="6.14229">
        <ele>462.05</ele>
        <time>2012-10-08T09:59:42Z</time>
      </trkpt>
      <trkpt lat="45.88375" lon="6.14215">
        <ele>462.05</ele>
        <time>2012-10-08T09:59:58Z</time>
      </trkpt>
      <trkpt lat="45.88282" lon="6.142">
        <ele>463.01</ele>
        <time>2012-10-08T10:00:15Z</time>
      </trkpt>
      <trkpt lat="45.8819" lon="6.14202">
        <ele>466.38</ele>
        <time>2012-10-08T10:00:34Z</time>
      </trkpt>
      <trkpt lat="45.88102" lon="6.14223">
        <ele>467.82</ele>
        <time>2012-10-08T10:00:58Z</time>
      </trkpt>
      <trkpt lat="45.88012" lon="6.1426">
        <ele>466.86</ele>
        <time>2012-10-08T10:01:14Z</time>
      </trkpt>
      <trkpt lat="45.87921" lon="6.14262">
        <ele>467.34</ele>
        <time>2012-10-08T10:01:29Z</time>
      </trkpt>
      <trkpt lat="45.87826" lon="6.14261">
        <ele>466.86</ele>
        <time>2012-10-08T10:01:44Z</time>
      </trkpt>
      <trkpt lat="45.87738" lon="6.14288">
        <ele>465.42</ele>
        <time>2012-10-08T10:01:58Z</time>
      </trkpt>
      <trkpt lat="45.87648" lon="6.14308">
        <ele>465.42</ele>
        <time>2012-10-08T10:02:12Z</time>
      </trkpt>
      <trkpt lat="45.87557" lon="6.14306">
        <ele>464.93</ele>
        <time>2012-10-08T10:02:26Z</time>
      </trkpt>
      <trkpt lat="45.87467" lon="6.14309">
        <ele>464.93</ele>
        <time>2012-10-08T10:02:40Z</time>
      </trkpt>
      <trkpt lat="45.87375" lon="6.14337">
        <ele>464.45</ele>
        <time>2012-10-08T10:02:54Z</time>
      </trkpt>
      <trkpt lat="45.87286" lon="6.14369">
        <ele>464.45</ele>
        <time>2012-10-08T10:03:08Z</time>
      </trkpt>
      <trkpt lat="45.87195" lon="6.14384">
        <ele>464.93</ele>
        <time>2012-10-08T10:03:22Z</time>
      </trkpt>
      <trkpt lat="45.87105" lon="6.14364">
        <ele>464.93</ele>
        <time>2012-10-08T10:03:36Z</time>
      </trkpt>
      <trkpt lat="45.87017" lon="6.14316">
        <ele>464.45</ele>
        <time>2012-10-08T10:03:50Z</time>
      </trkpt>
      <trkpt lat="45.86929" lon="6.14272">
        <ele>463.97</ele>
        <time>2012-10-08T10:04:04Z</time>
      </trkpt>
      <trkpt lat="45.86835" lon="6.14267">
        <ele>462.53</ele>
        <time>2012-10-08T10:04:18Z</time>
      </trkpt>
      <trkpt lat="45.86743" lon="6.14309">
        <ele>463.01</ele>
        <time>2012-10-08T10:04:32Z</time>
      </trkpt>
      <trkpt lat="45.86656" lon="6.14363">
        <ele>463.01</ele>
        <time>2012-10-08T10:04:46Z</time>
      </trkpt>
      <trkpt lat="45.86562" lon="6.14386">
        <ele>462.53</ele>
        <time>2012-10-08T10:05:00Z</time>
      </trkpt>
      <trkpt lat="45.86468" lon="6.14386">
        <ele>463.01</ele>
        <time>2012-10-08T10:05:14Z</time>
      </trkpt>
      <trkpt lat="45.86375" lon="6.14385">
        <ele>462.53</ele>
        <time>2012-10-08T10:05:28Z</time>
      </trkpt>
      <trkpt lat="45.86282" lon="6.14365">
        <ele>463.01</ele>
        <time>2012-10-08T10:05:42Z</time>
      </trkpt>
      <trkpt lat="45.86204" lon="6.14299">
        <ele>462.53</ele>
        <time>2012-10-08T10:05:56Z</time>
      </trkpt>
      <trkpt lat="45.86116" lon="6.14264">
        <ele>461.57</ele>
        <time>2012-10-08T10:06:10Z</time>
      </trkpt>
      <trkpt lat="45.86028" lon="6.14227">
        <ele>461.57</ele>
        <time>2012-10-08T10:06:25Z</time>
      </trkpt>
      <trkpt lat="45.85948" lon="6.14281">
        <ele>461.57</ele>
        <time>2012-10-08T10:06:48Z</time>
      </trkpt>
      <trkpt lat="45.85948" lon="6.14395">
        <ele>460.13</ele>
        <time>2012-10-08T10:07:21Z</time>
      </trkpt>
      <trkpt lat="45.85972" lon="6.14519">
        <ele>460.61</ele>
        <time>2012-10-08T10:07:56Z</time>
      </trkpt>
      <trkpt lat="45.8596" lon="6.14446">
        <ele>458.69</ele>
        <time>2012-10-08T10:35:32Z</time>
      </trkpt>
      <trkpt lat="45.85938" lon="6.14316">
        <ele>459.65</ele>
        <time>2012-10-08T10:35:59Z</time>
      </trkpt>
      <trkpt lat="45.85943" lon="6.14203">
        <ele>461.09</ele>
        <time>2012-10-08T10:36:28Z</time>
      </trkpt>
      <trkpt lat="45.86035" lon="6.14169">
        <ele>463.49</ele>
        <time>2012-10-08T10:36:48Z</time>
      </trkpt>
      <trkpt lat="45.86126" lon="6.14135">
        <ele>465.42</ele>
        <time>2012-10-08T10:37:09Z</time>
      </trkpt>
      <trkpt lat="45.86214" lon="6.14104">
        <ele>467.82</ele>
        <time>2012-10-08T10:37:29Z</time>
      </trkpt>
      <trkpt lat="45.86244" lon="6.1402">
        <ele>469.26</ele>
        <time>2012-10-08T10:37:50Z</time>
      </trkpt>
      <trkpt lat="45.86178" lon="6.13934">
        <ele>473.11</ele>
        <time>2012-10-08T10:38:14Z</time>
      </trkpt>
      <trkpt lat="45.86094" lon="6.13881">
        <ele>476.95</ele>
        <time>2012-10-08T10:38:43Z</time>
      </trkpt>
      <trkpt lat="45.86005" lon="6.13844">
        <ele>481.76</ele>
        <time>2012-10-08T10:39:15Z</time>
      </trkpt>
      <trkpt lat="45.85913" lon="6.13829">
        <ele>484.64</ele>
        <time>2012-10-08T10:39:45Z</time>
      </trkpt>
      <trkpt lat="45.85822" lon="6.13827">
        <ele>487.05</ele>
        <time>2012-10-08T10:40:14Z</time>
      </trkpt>
      <trkpt lat="45.85727" lon="6.13839">
        <ele>490.41</ele>
        <time>2012-10-08T10:40:46Z</time>
      </trkpt>
      <trkpt lat="45.85631" lon="6.13846">
        <ele>494.26</ele>
        <time>2012-10-08T10:41:18Z</time>
      </trkpt>
      <trkpt lat="45.85534" lon="6.13828">
        <ele>498.1</ele>
        <time>2012-10-08T10:41:51Z</time>
      </trkpt>
      <trkpt lat="45.85441" lon="6.13803">
        <ele>501.95</ele>
        <time>2012-10-08T10:42:23Z</time>
      </trkpt>
      <trkpt lat="45.85349" lon="6.13813">
        <ele>506.27</ele>
        <time>2012-10-08T10:42:54Z</time>
      </trkpt>
      <trkpt lat="45.85245" lon="6.1381">
        <ele>510.6</ele>
        <time>2012-10-08T10:43:30Z</time>
      </trkpt>
      <trkpt lat="45.85145" lon="6.1379">
        <ele>514.92</ele>
        <time>2012-10-08T10:44:05Z</time>
      </trkpt>
      <trkpt lat="45.85066" lon="6.13719">
        <ele>519.25</ele>
        <time>2012-10-08T10:44:36Z</time>
      </trkpt>
      <trkpt lat="45.84975" lon="6.13737">
        <ele>523.09</ele>
        <time>2012-10-08T10:45:08Z</time>
      </trkpt>
      <trkpt lat="45.84926" lon="6.13846">
        <ele>527.9</ele>
        <time>2012-10-08T10:45:41Z</time>
      </trkpt>
      <trkpt lat="45.84831" lon="6.13838">
        <ele>532.23</ele>
        <time>2012-10-08T10:46:15Z</time>
      </trkpt>
      <trkpt lat="45.84726" lon="6.13845">
        <ele>537.03</ele>
        <time>2012-10-08T10:46:50Z</time>
      </trkpt>
      <trkpt lat="45.84625" lon="6.13841">
        <ele>540.4</ele>
        <time>2012-10-08T10:47:24Z</time>
      </trkpt>
      <trkpt lat="45.84534" lon="6.13806">
        <ele>545.2</ele>
        <time>2012-10-08T10:47:56Z</time>
      </trkpt>
      <trkpt lat="45.84441" lon="6.13796">
        <ele>549.05</ele>
        <time>2012-10-08T10:48:27Z</time>
      </trkpt>
      <trkpt lat="45.84348" lon="6.13804">
        <ele>552.9</ele>
        <time>2012-10-08T10:48:59Z</time>
      </trkpt>
      <trkpt lat="45.84247" lon="6.13774">
        <ele>557.7</ele>
        <time>2012-10-08T10:49:33Z</time>
      </trkpt>
      <trkpt lat="45.84181" lon="6.13819">
        <ele>563.95</ele>
        <time>2012-10-08T10:52:58Z</time>
      </trkpt>
      <trkpt lat="45.84231" lon="6.13915">
        <ele>569.24</ele>
        <time>2012-10-08T10:53:31Z</time>
      </trkpt>
      <trkpt lat="45.84144" lon="6.13974">
        <ele>573.56</ele>
        <time>2012-10-08T10:54:03Z</time>
      </trkpt>
      <trkpt lat="45.8405" lon="6.13986">
        <ele>577.89</ele>
        <time>2012-10-08T10:54:33Z</time>
      </trkpt>
      <trkpt lat="45.8395" lon="6.13996">
        <ele>581.73</ele>
        <time>2012-10-08T10:55:34Z</time>
      </trkpt>
      <trkpt lat="45.83857" lon="6.14013">
        <ele>584.62</ele>
        <time>2012-10-08T10:56:03Z</time>
      </trkpt>
      <trkpt lat="45.83772" lon="6.14081">
        <ele>588.46</ele>
        <time>2012-10-08T10:56:35Z</time>
      </trkpt>
      <trkpt lat="45.83682" lon="6.14155">
        <ele>593.75</ele>
        <time>2012-10-08T10:57:09Z</time>
      </trkpt>
      <trkpt lat="45.83574" lon="6.14219">
        <ele>597.12</ele>
        <time>2012-10-08T10:57:43Z</time>
      </trkpt>
      <trkpt lat="45.83475" lon="6.14237">
        <ele>601.92</ele>
        <time>2012-10-08T10:58:11Z</time>
      </trkpt>
      <trkpt lat="45.83383" lon="6.14215">
        <ele>605.77</ele>
        <time>2012-10-08T10:58:37Z</time>
      </trkpt>
      <trkpt lat="45.83291" lon="6.14175">
        <ele>609.13</ele>
        <time>2012-10-08T10:59:04Z</time>
      </trkpt>
      <trkpt lat="45.83209" lon="6.14102">
        <ele>613.46</ele>
        <time>2012-10-08T10:59:30Z</time>
      </trkpt>
      <trkpt lat="45.83121" lon="6.14115">
        <ele>617.3</ele>
        <time>2012-10-08T10:59:58Z</time>
      </trkpt>
      <trkpt lat="45.83019" lon="6.14101">
        <ele>622.11</ele>
        <time>2012-10-08T11:00:33Z</time>
      </trkpt>
      <trkpt lat="45.82938" lon="6.14084">
        <ele>625.96</ele>
        <time>2012-10-08T11:01:04Z</time>
      </trkpt>
      <trkpt lat="45.82898" lon="6.14197">
        <ele>629.8</ele>
        <time>2012-10-08T11:01:34Z</time>
      </trkpt>
      <trkpt lat="45.82809" lon="6.14221">
        <ele>633.17</ele>
        <time>2012-10-08T11:02:04Z</time>
      </trkpt>
      <trkpt lat="45.82716" lon="6.14214">
        <ele>637.01</ele>
        <time>2012-10-08T11:02:35Z</time>
      </trkpt>
      <trkpt lat="45.8262" lon="6.14208">
        <ele>640.86</ele>
        <time>2012-10-08T11:03:05Z</time>
      </trkpt>
      <trkpt lat="45.82558" lon="6.14116">
        <ele>645.18</ele>
        <time>2012-10-08T11:04:12Z</time>
      </trkpt>
      <trkpt lat="45.82499" lon="6.14013">
        <ele>649.03</ele>
        <time>2012-10-08T11:04:42Z</time>
      </trkpt>
      <trkpt lat="45.82443" lon="6.13905">
        <ele>653.35</ele>
        <time>2012-10-08T11:05:12Z</time>
      </trkpt>
      <trkpt lat="45.82386" lon="6.13787">
        <ele>657.2</ele>
        <time>2012-10-08T11:05:43Z</time>
      </trkpt>
      <trkpt lat="45.82359" lon="6.13662">
        <ele>661.52</ele>
        <time>2012-10-08T11:06:14Z</time>
      </trkpt>
      <trkpt lat="45.82262" lon="6.13662">
        <ele>665.37</ele>
        <time>2012-10-08T11:06:42Z</time>
      </trkpt>
      <trkpt lat="45.82183" lon="6.13587">
        <ele>669.7</ele>
        <time>2012-10-08T11:07:10Z</time>
      </trkpt>
      <trkpt lat="45.82123" lon="6.13493">
        <ele>674.02</ele>
        <time>2012-10-08T11:07:39Z</time>
      </trkpt>
      <trkpt lat="45.82054" lon="6.13401">
        <ele>678.83</ele>
        <time>2012-10-08T11:08:15Z</time>
      </trkpt>
      <trkpt lat="45.8194" lon="6.13392">
        <ele>683.15</ele>
        <time>2012-10-08T11:08:50Z</time>
      </trkpt>
      <trkpt lat="45.81853" lon="6.13354">
        <ele>687</ele>
        <time>2012-10-08T11:09:21Z</time>
      </trkpt>
      <trkpt lat="45.81804" lon="6.13481">
        <ele>690.36</ele>
        <time>2012-10-08T11:09:53Z</time>
      </trkpt>
      <trkpt lat="45.81751" lon="6.13589">
        <ele>694.69</ele>
        <time>2012-10-08T11:10:20Z</time>
      </trkpt>
      <trkpt lat="45.8167" lon="6.13672">
        <ele>699.02</ele>
        <time>2012-10-08T11:10:53Z</time>
      </trkpt>
      <trkpt lat="45.81543" lon="6.1377">
        <ele>704.78</ele>
        <time>2012-10-08T11:11:36Z</time>
      </trkpt>
      <trkpt lat="45.81448" lon="6.13776">
        <ele>708.63</ele>
        <time>2012-10-08T11:12:04Z</time>
      </trkpt>
      <trkpt lat="45.8135" lon="6.13774">
        <ele>712.47</ele>
        <time>2012-10-08T11:12:31Z</time>
      </trkpt>
      <trkpt lat="45.81245" lon="6.13724">
        <ele>716.8</ele>
        <time>2012-10-08T11:13:06Z</time>
      </trkpt>
      <trkpt lat="45.81144" lon="6.13691">
        <ele>720.65</ele>
        <time>2012-10-08T11:13:35Z</time>
      </trkpt>
      <trkpt lat="45.81036" lon="6.13683">
        <ele>723.53</ele>
        <time>2012-10-08T11:14:06Z</time>
      </trkpt>
      <trkpt lat="45.80907" lon="6.13681">
        <ele>729.3</ele>
        <time>2012-10-08T11:14:38Z</time>
      </trkpt>
      <trkpt lat="45.80808" lon="6.13614">
        <ele>734.58</ele>
        <time>2012-10-08T11:15:13Z</time>
      </trkpt>
      <trkpt lat="45.80721" lon="6.13552">
        <ele>739.39</ele>
        <time>2012-10-08T11:15:46Z</time>
      </trkpt>
      <trkpt lat="45.80608" lon="6.13557">
        <ele>744.2</ele>
        <time>2012-10-08T11:16:23Z</time>
      </trkpt>
      <trkpt lat="45.80488" lon="6.13596">
        <ele>749</ele>
        <time>2012-10-08T11:16:56Z</time>
      </trkpt>
      <trkpt lat="45.80403" lon="6.13656">
        <ele>753.81</ele>
        <time>2012-10-08T11:17:26Z</time>
      </trkpt>
      <trkpt lat="45.80314" lon="6.13772">
        <ele>760.54</ele>
        <time>2012-10-08T11:18:08Z</time>
      </trkpt>
      <trkpt lat="45.80233" lon="6.13841">
        <ele>765.35</ele>
        <time>2012-10-08T11:18:42Z</time>
      </trkpt>
      <trkpt lat="45.80138" lon="6.13834">
        <ele>771.11</ele>
        <time>2012-10-08T11:19:16Z</time>
      </trkpt>
      <trkpt lat="45.80063" lon="6.13756">
        <ele>777.84</ele>
        <time>2012-10-08T11:20:03Z</time>
      </trkpt>
      <trkpt lat="45.79971" lon="6.13817">
        <ele>783.61</ele>
        <time>2012-10-08T11:20:46Z</time>
      </trkpt>
      <trkpt lat="45.79889" lon="6.13766">
        <ele>790.34</ele>
        <time>2012-10-08T11:21:26Z</time>
      </trkpt>
      <trkpt lat="45.79805" lon="6.13722">
        <ele>796.11</ele>
        <time>2012-10-08T11:22:03Z</time>
      </trkpt>
      <trkpt lat="45.79724" lon="6.13742">
        <ele>801.88</ele>
        <time>2012-10-08T11:22:45Z</time>
      </trkpt>
      <trkpt lat="45.7965" lon="6.13668">
        <ele>807.16</ele>
        <time>2012-10-08T11:23:21Z</time>
      </trkpt>
      <trkpt lat="45.79564" lon="6.1364">
        <ele>812.93</ele>
        <time>2012-10-08T11:23:59Z</time>
      </trkpt>
      <trkpt lat="45.79476" lon="6.13655">
        <ele>819.18</ele>
        <time>2012-10-08T11:24:41Z</time>
      </trkpt>
      <trkpt lat="45.79393" lon="6.13681">
        <ele>824.47</ele>
        <time>2012-10-08T11:25:15Z</time>
      </trkpt>
      <trkpt lat="45.79304" lon="6.13643">
        <ele>828.79</ele>
        <time>2012-10-08T11:25:47Z</time>
      </trkpt>
      <trkpt lat="45.79218" lon="6.13594">
        <ele>833.6</ele>
        <time>2012-10-08T11:26:19Z</time>
      </trkpt>
      <trkpt lat="45.79138" lon="6.13526">
        <ele>838.41</ele>
        <time>2012-10-08T11:26:51Z</time>
      </trkpt>
      <trkpt lat="45.79053" lon="6.13568">
        <ele>843.21</ele>
        <time>2012-10-08T11:27:23Z</time>
      </trkpt>
      <trkpt lat="45.78957" lon="6.13537">
        <ele>845.62</ele>
        <time>2012-10-08T11:27:52Z</time>
      </trkpt>
      <trkpt lat="45.78877" lon="6.13468">
        <ele>847.54</ele>
        <time>2012-10-08T11:28:16Z</time>
      </trkpt>
      <trkpt lat="45.78832" lon="6.13361">
        <ele>850.42</ele>
        <time>2012-10-08T11:28:39Z</time>
      </trkpt>
      <trkpt lat="45.78742" lon="6.1337">
        <ele>852.35</ele>
        <time>2012-10-08T11:29:02Z</time>
      </trkpt>
      <trkpt lat="45.78651" lon="6.13357">
        <ele>854.75</ele>
        <time>2012-10-08T11:32:03Z</time>
      </trkpt>
      <trkpt lat="45.78565" lon="6.1331">
        <ele>857.15</ele>
        <time>2012-10-08T11:32:30Z</time>
      </trkpt>
      <trkpt lat="45.78483" lon="6.13248">
        <ele>860.04</ele>
        <time>2012-10-08T11:32:56Z</time>
      </trkpt>
      <trkpt lat="45.78388" lon="6.13251">
        <ele>861.96</ele>
        <time>2012-10-08T11:33:22Z</time>
      </trkpt>
      <trkpt lat="45.783" lon="6.13222">
        <ele>864.36</ele>
        <time>2012-10-08T11:33:47Z</time>
      </trkpt>
      <trkpt lat="45.78202" lon="6.13206">
        <ele>865.8</ele>
        <time>2012-10-08T11:34:13Z</time>
      </trkpt>
      <trkpt lat="45.78119" lon="6.13158">
        <ele>868.69</ele>
        <time>2012-10-08T11:34:37Z</time>
      </trkpt>
      <trkpt lat="45.78037" lon="6.13096">
        <ele>872.05</ele>
        <time>2012-10-08T11:35:04Z</time>
      </trkpt>
      <trkpt lat="45.77963" lon="6.13171">
        <ele>875.42</ele>
        <time>2012-10-08T11:35:32Z</time>
      </trkpt>
      <trkpt lat="45.77888" lon="6.13259">
        <ele>879.26</ele>
        <time>2012-10-08T11:35:58Z</time>
      </trkpt>
      <trkpt lat="45.77798" lon="6.13255">
        <ele>883.59</ele>
        <time>2012-10-08T11:36:24Z</time>
      </trkpt>
      <trkpt lat="45.77705" lon="6.13272">
        <ele>886.47</ele>
        <time>2012-10-08T11:36:51Z</time>
      </trkpt>
      <trkpt lat="45.77611" lon="6.13269">
        <ele>890.8</ele>
        <time>2012-10-08T11:37:18Z</time>
      </trkpt>
      <trkpt lat="45.77507" lon="6.13281">
        <ele>894.16</ele>
        <time>2012-10-08T11:37:45Z</time>
      </trkpt>
      <trkpt lat="45.77421" lon="6.13268">
        <ele>896.57</ele>
        <time>2012-10-08T11:38:09Z</time>
      </trkpt>
      <trkpt lat="45.77341" lon="6.13276">
        <ele>900.89</ele>
        <time>2012-10-08T11:38:33Z</time>
      </trkpt>
      <trkpt lat="45.77261" lon="6.1321">
        <ele>904.26</ele>
        <time>2012-10-08T11:39:00Z</time>
      </trkpt>
      <trkpt lat="45.77181" lon="6.13157">
        <ele>906.18</ele>
        <time>2012-10-08T11:39:36Z</time>
      </trkpt>
      <trkpt lat="45.77104" lon="6.13073">
        <ele>904.26</ele>
        <time>2012-10-08T11:42:03Z</time>
      </trkpt>
      <trkpt lat="45.77035" lon="6.12991">
        <ele>900.89</ele>
        <time>2012-10-08T11:42:50Z</time>
      </trkpt>
      <trkpt lat="45.77009" lon="6.1286">
        <ele>898.01</ele>
        <time>2012-10-08T11:43:04Z</time>
      </trkpt>
      <trkpt lat="45.76942" lon="6.12764">
        <ele>894.16</ele>
        <time>2012-10-08T11:43:16Z</time>
      </trkpt>
      <trkpt lat="45.76856" lon="6.1271">
        <ele>890.8</ele>
        <time>2012-10-08T11:43:27Z</time>
      </trkpt>
      <trkpt lat="45.76766" lon="6.12705">
        <ele>886.95</ele>
        <time>2012-10-08T11:43:37Z</time>
      </trkpt>
      <trkpt lat="45.76681" lon="6.12659">
        <ele>882.63</ele>
        <time>2012-10-08T11:43:47Z</time>
      </trkpt>
      <trkpt lat="45.76599" lon="6.12602">
        <ele>879.74</ele>
        <time>2012-10-08T11:43:57Z</time>
      </trkpt>
      <trkpt lat="45.76517" lon="6.12539">
        <ele>875.42</ele>
        <time>2012-10-08T11:44:07Z</time>
      </trkpt>
      <trkpt lat="45.76446" lon="6.12448">
        <ele>871.57</ele>
        <time>2012-10-08T11:44:17Z</time>
      </trkpt>
      <trkpt lat="45.76406" lon="6.12334">
        <ele>866.77</ele>
        <time>2012-10-08T11:44:28Z</time>
      </trkpt>
      <trkpt lat="45.76378" lon="6.12215">
        <ele>863.88</ele>
        <time>2012-10-08T11:45:14Z</time>
      </trkpt>
      <trkpt lat="45.76296" lon="6.1215">
        <ele>860.04</ele>
        <time>2012-10-08T11:45:27Z</time>
      </trkpt>
      <trkpt lat="45.76205" lon="6.12103">
        <ele>856.67</ele>
        <time>2012-10-08T11:45:39Z</time>
      </trkpt>
      <trkpt lat="45.76115" lon="6.12053">
        <ele>853.31</ele>
        <time>2012-10-08T11:45:50Z</time>
      </trkpt>
      <trkpt lat="45.76038" lon="6.11983">
        <ele>849.94</ele>
        <time>2012-10-08T11:46:00Z</time>
      </trkpt>
      <trkpt lat="45.75971" lon="6.11895">
        <ele>846.58</ele>
        <time>2012-10-08T11:46:10Z</time>
      </trkpt>
      <trkpt lat="45.75889" lon="6.11837">
        <ele>843.21</ele>
        <time>2012-10-08T11:46:20Z</time>
      </trkpt>
      <trkpt lat="45.75803" lon="6.11788">
        <ele>839.85</ele>
        <time>2012-10-08T11:46:30Z</time>
      </trkpt>
      <trkpt lat="45.75712" lon="6.11759">
        <ele>836.96</ele>
        <time>2012-10-08T11:46:40Z</time>
      </trkpt>
      <trkpt lat="45.75618" lon="6.1173">
        <ele>833.6</ele>
        <time>2012-10-08T11:46:51Z</time>
      </trkpt>
      <trkpt lat="45.75528" lon="6.11701">
        <ele>831.2</ele>
        <time>2012-10-08T11:47:05Z</time>
      </trkpt>
      <trkpt lat="45.75446" lon="6.11647">
        <ele>828.79</ele>
        <time>2012-10-08T11:47:17Z</time>
      </trkpt>
      <trkpt lat="45.75357" lon="6.11607">
        <ele>826.87</ele>
        <time>2012-10-08T11:47:28Z</time>
      </trkpt>
      <trkpt lat="45.75268" lon="6.11558">
        <ele>823.99</ele>
        <time>2012-10-08T11:47:40Z</time>
      </trkpt>
      <trkpt lat="45.7518" lon="6.11513">
        <ele>822.06</ele>
        <time>2012-10-08T11:47:53Z</time>
      </trkpt>
      <trkpt lat="45.75089" lon="6.11464">
        <ele>821.1</ele>
        <time>2012-10-08T11:48:06Z</time>
      </trkpt>
      <trkpt lat="45.74999" lon="6.11435">
        <ele>818.22</ele>
        <time>2012-10-08T11:48:18Z</time>
      </trkpt>
      <trkpt lat="45.74906" lon="6.11411">
        <ele>815.82</ele>
        <time>2012-10-08T11:48:30Z</time>
      </trkpt>
      <trkpt lat="45.74812" lon="6.11432">
        <ele>812.93</ele>
        <time>2012-10-08T11:48:42Z</time>
      </trkpt>
      <trkpt lat="45.7472" lon="6.11433">
        <ele>805.24</ele>
        <time>2012-10-08T11:48:57Z</time>
      </trkpt>
      <trkpt lat="45.74636" lon="6.11407">
        <ele>801.4</ele>
        <time>2012-10-08T11:51:42Z</time>
      </trkpt>
      <trkpt lat="45.74554" lon="6.11443">
        <ele>794.67</ele>
        <time>2012-10-08T11:51:55Z</time>
      </trkpt>
      <trkpt lat="45.74459" lon="6.11427">
        <ele>789.86</ele>
        <time>2012-10-08T11:52:08Z</time>
      </trkpt>
      <trkpt lat="45.74366" lon="6.11432">
        <ele>784.09</ele>
        <time>2012-10-08T11:52:21Z</time>
      </trkpt>
      <trkpt lat="45.74276" lon="6.1139">
        <ele>778.81</ele>
        <time>2012-10-08T11:52:32Z</time>
      </trkpt>
      <trkpt lat="45.74197" lon="6.11326">
        <ele>774</ele>
        <time>2012-10-08T11:52:44Z</time>
      </trkpt>
      <trkpt lat="45.7411" lon="6.11257">
        <ele>769.67</ele>
        <time>2012-10-08T11:52:55Z</time>
      </trkpt>
      <trkpt lat="45.74019" lon="6.11277">
        <ele>764.39</ele>
        <time>2012-10-08T11:53:05Z</time>
      </trkpt>
      <trkpt lat="45.7393" lon="6.11266">
        <ele>760.06</ele>
        <time>2012-10-08T11:53:14Z</time>
      </trkpt>
      <trkpt lat="45.73856" lon="6.11184">
        <ele>752.37</ele>
        <time>2012-10-08T11:53:24Z</time>
      </trkpt>
      <trkpt lat="45.73822" lon="6.11076">
        <ele>746.6</ele>
        <time>2012-10-08T11:53:35Z</time>
      </trkpt>
      <trkpt lat="45.73789" lon="6.11206">
        <ele>742.28</ele>
        <time>2012-10-08T11:53:47Z</time>
      </trkpt>
      <trkpt lat="45.73714" lon="6.11266">
        <ele>736.51</ele>
        <time>2012-10-08T11:53:57Z</time>
      </trkpt>
      <trkpt lat="45.73623" lon="6.11287">
        <ele>731.22</ele>
        <time>2012-10-08T11:54:06Z</time>
      </trkpt>
      <trkpt lat="45.73528" lon="6.11268">
        <ele>724.49</ele>
        <time>2012-10-08T11:54:15Z</time>
      </trkpt>
      <trkpt lat="45.73458" lon="6.11175">
        <ele>717.28</ele>
        <time>2012-10-08T11:54:24Z</time>
      </trkpt>
      <trkpt lat="45.73389" lon="6.11084">
        <ele>712.95</ele>
        <time>2012-10-08T11:54:33Z</time>
      </trkpt>
      <trkpt lat="45.73299" lon="6.11028">
        <ele>705.75</ele>
        <time>2012-10-08T11:54:42Z</time>
      </trkpt>
      <trkpt lat="45.73205" lon="6.10988">
        <ele>700.46</ele>
        <time>2012-10-08T11:54:51Z</time>
      </trkpt>
      <trkpt lat="45.73113" lon="6.10932">
        <ele>694.21</ele>
        <time>2012-10-08T11:55:00Z</time>
      </trkpt>
      <trkpt lat="45.73048" lon="6.10836">
        <ele>688.92</ele>
        <time>2012-10-08T11:55:09Z</time>
      </trkpt>
      <trkpt lat="45.72997" lon="6.10731">
        <ele>683.63</ele>
        <time>2012-10-08T11:55:18Z</time>
      </trkpt>
      <trkpt lat="45.72926" lon="6.10635">
        <ele>677.39</ele>
        <time>2012-10-08T11:55:27Z</time>
      </trkpt>
      <trkpt lat="45.72852" lon="6.10538">
        <ele>671.14</ele>
        <time>2012-10-08T11:55:36Z</time>
      </trkpt>
      <trkpt lat="45.72767" lon="6.10516">
        <ele>666.33</ele>
        <time>2012-10-08T11:55:45Z</time>
      </trkpt>
      <trkpt lat="45.72672" lon="6.10554">
        <ele>659.6</ele>
        <time>2012-10-08T11:55:54Z</time>
      </trkpt>
      <trkpt lat="45.72576" lon="6.10561">
        <ele>655.28</ele>
        <time>2012-10-08T11:56:03Z</time>
      </trkpt>
      <trkpt lat="45.72487" lon="6.10523">
        <ele>651.43</ele>
        <time>2012-10-08T11:56:12Z</time>
      </trkpt>
      <trkpt lat="45.72391" lon="6.10486">
        <ele>647.1</ele>
        <time>2012-10-08T11:56:22Z</time>
      </trkpt>
      <trkpt lat="45.72299" lon="6.10458">
        <ele>642.78</ele>
        <time>2012-10-08T11:56:31Z</time>
      </trkpt>
      <trkpt lat="45.72231" lon="6.10361">
        <ele>635.57</ele>
        <time>2012-10-08T11:56:40Z</time>
      </trkpt>
      <trkpt lat="45.72273" lon="6.10256">
        <ele>628.84</ele>
        <time>2012-10-08T11:56:51Z</time>
      </trkpt>
      <trkpt lat="45.72234" lon="6.10248">
        <ele>627.4</ele>
        <time>2012-10-08T11:57:11Z</time>
      </trkpt>
      <trkpt lat="45.72178" lon="6.10349">
        <ele>624.03</ele>
        <time>2012-10-08T11:57:26Z</time>
      </trkpt>
      <trkpt lat="45.72231" lon="6.10459">
        <ele>618.26</ele>
        <time>2012-10-08T11:57:38Z</time>
      </trkpt>
      <trkpt lat="45.72165" lon="6.10399">
        <ele>612.5</ele>
        <time>2012-10-08T11:57:52Z</time>
      </trkpt>
      <trkpt lat="45.72111" lon="6.1037">
        <ele>606.25</ele>
        <time>2012-10-08T11:58:05Z</time>
      </trkpt>
      <trkpt lat="45.72133" lon="6.10498">
        <ele>601.44</ele>
        <time>2012-10-08T11:58:17Z</time>
      </trkpt>
      <trkpt lat="45.72058" lon="6.10556">
        <ele>597.6</ele>
        <time>2012-10-08T11:58:27Z</time>
      </trkpt>
      <trkpt lat="45.71971" lon="6.10609">
        <ele>598.08</ele>
        <time>2012-10-08T11:58:40Z</time>
      </trkpt>
      <trkpt lat="45.71885" lon="6.10657">
        <ele>600</ele>
        <time>2012-10-08T11:59:00Z</time>
      </trkpt>
      <trkpt lat="45.71799" lon="6.10697">
        <ele>601.44</ele>
        <time>2012-10-08T11:59:21Z</time>
      </trkpt>
      <trkpt lat="45.71803" lon="6.10697">
        <ele>601.44</ele>
        <time>2012-10-08T11:59:51Z</time>
      </trkpt>
      <trkpt lat="45.71714" lon="6.10717">
        <ele>600.96</ele>
        <time>2012-10-08T12:00:09Z</time>
      </trkpt>
      <trkpt lat="45.71622" lon="6.10735">
        <ele>600.48</ele>
        <time>2012-10-08T12:00:27Z</time>
      </trkpt>
      <trkpt lat="45.71555" lon="6.10653">
        <ele>600</ele>
        <time>2012-10-08T12:00:44Z</time>
      </trkpt>
      <trkpt lat="45.71464" lon="6.10619">
        <ele>601.92</ele>
        <time>2012-10-08T12:01:02Z</time>
      </trkpt>
      <trkpt lat="45.71397" lon="6.10556">
        <ele>604.33</ele>
        <time>2012-10-08T12:02:25Z</time>
      </trkpt>
      <trkpt lat="45.7133" lon="6.10462">
        <ele>608.65</ele>
        <time>2012-10-08T12:02:54Z</time>
      </trkpt>
      <trkpt lat="45.71248" lon="6.10437">
        <ele>614.9</ele>
        <time>2012-10-08T12:03:32Z</time>
      </trkpt>
      <trkpt lat="45.71228" lon="6.10416">
        <ele>622.11</ele>
        <time>2012-10-08T12:04:13Z</time>
      </trkpt>
      <trkpt lat="45.71293" lon="6.10361">
        <ele>628.36</ele>
        <time>2012-10-08T12:04:58Z</time>
      </trkpt>
      <trkpt lat="45.71198" lon="6.10373">
        <ele>634.61</ele>
        <time>2012-10-08T12:05:37Z</time>
      </trkpt>
      <trkpt lat="45.71109" lon="6.10424">
        <ele>640.38</ele>
        <time>2012-10-08T12:06:17Z</time>
      </trkpt>
      <trkpt lat="45.71023" lon="6.1039">
        <ele>647.1</ele>
        <time>2012-10-08T12:06:55Z</time>
      </trkpt>
      <trkpt lat="45.70944" lon="6.10459">
        <ele>653.35</ele>
        <time>2012-10-08T12:07:34Z</time>
      </trkpt>
      <trkpt lat="45.70864" lon="6.10515">
        <ele>660.08</ele>
        <time>2012-10-08T12:08:12Z</time>
      </trkpt>
      <trkpt lat="45.70789" lon="6.10589">
        <ele>666.33</ele>
        <time>2012-10-08T12:08:51Z</time>
      </trkpt>
      <trkpt lat="45.70701" lon="6.10583">
        <ele>666.81</ele>
        <time>2012-10-08T12:09:19Z</time>
      </trkpt>
      <trkpt lat="45.70626" lon="6.10514">
        <ele>672.1</ele>
        <time>2012-10-08T12:09:55Z</time>
      </trkpt>
      <trkpt lat="45.70578" lon="6.10438">
        <ele>680.27</ele>
        <time>2012-10-08T12:10:39Z</time>
      </trkpt>
      <trkpt lat="45.70522" lon="6.10449">
        <ele>682.19</ele>
        <time>2012-10-08T12:11:23Z</time>
      </trkpt>
      <trkpt lat="45.70548" lon="6.10336">
        <ele>688.92</ele>
        <time>2012-10-08T12:12:01Z</time>
      </trkpt>
      <trkpt lat="45.70601" lon="6.10228">
        <ele>695.17</ele>
        <time>2012-10-08T12:12:37Z</time>
      </trkpt>
      <trkpt lat="45.7065" lon="6.10118">
        <ele>701.42</ele>
        <time>2012-10-08T12:13:13Z</time>
      </trkpt>
      <trkpt lat="45.70671" lon="6.09994">
        <ele>707.67</ele>
        <time>2012-10-08T12:13:50Z</time>
      </trkpt>
      <trkpt lat="45.70622" lon="6.0989">
        <ele>713.44</ele>
        <time>2012-10-08T12:14:26Z</time>
      </trkpt>
      <trkpt lat="45.70553" lon="6.09805">
        <ele>719.68</ele>
        <time>2012-10-08T12:15:03Z</time>
      </trkpt>
      <trkpt lat="45.70481" lon="6.09734">
        <ele>725.93</ele>
        <time>2012-10-08T12:15:39Z</time>
      </trkpt>
      <trkpt lat="45.70404" lon="6.09691">
        <ele>736.03</ele>
        <time>2012-10-08T12:33:35Z</time>
      </trkpt>
      <trkpt lat="45.70317" lon="6.09659">
        <ele>742.28</ele>
        <time>2012-10-08T12:34:14Z</time>
      </trkpt>
      <trkpt lat="45.70226" lon="6.09644">
        <ele>748.52</ele>
        <time>2012-10-08T12:34:54Z</time>
      </trkpt>
      <trkpt lat="45.70136" lon="6.09646">
        <ele>754.77</ele>
        <time>2012-10-08T12:35:34Z</time>
      </trkpt>
      <trkpt lat="45.70096" lon="6.09534">
        <ele>761.5</ele>
        <time>2012-10-08T12:36:16Z</time>
      </trkpt>
      <trkpt lat="45.70071" lon="6.09411">
        <ele>768.71</ele>
        <time>2012-10-08T12:36:57Z</time>
      </trkpt>
      <trkpt lat="45.69994" lon="6.09347">
        <ele>773.52</ele>
        <time>2012-10-08T12:37:33Z</time>
      </trkpt>
      <trkpt lat="45.6993" lon="6.09254">
        <ele>779.77</ele>
        <time>2012-10-08T12:38:10Z</time>
      </trkpt>
      <trkpt lat="45.69879" lon="6.0915">
        <ele>786.02</ele>
        <time>2012-10-08T12:38:48Z</time>
      </trkpt>
      <trkpt lat="45.69825" lon="6.09045">
        <ele>793.71</ele>
        <time>2012-10-08T12:39:27Z</time>
      </trkpt>
      <trkpt lat="45.69773" lon="6.08939">
        <ele>795.15</ele>
        <time>2012-10-08T12:40:48Z</time>
      </trkpt>
      <trkpt lat="45.69711" lon="6.08843">
        <ele>795.15</ele>
        <time>2012-10-08T12:41:08Z</time>
      </trkpt>
      <trkpt lat="45.69637" lon="6.08774">
        <ele>797.55</ele>
        <time>2012-10-08T12:41:29Z</time>
      </trkpt>
      <trkpt lat="45.69552" lon="6.08737">
        <ele>804.28</ele>
        <time>2012-10-08T12:42:04Z</time>
      </trkpt>
      <trkpt lat="45.69481" lon="6.08659">
        <ele>808.61</ele>
        <time>2012-10-08T12:42:38Z</time>
      </trkpt>
      <trkpt lat="45.69423" lon="6.08555">
        <ele>811.01</ele>
        <time>2012-10-08T12:43:05Z</time>
      </trkpt>
      <trkpt lat="45.69403" lon="6.08427">
        <ele>813.89</ele>
        <time>2012-10-08T12:43:33Z</time>
      </trkpt>
      <trkpt lat="45.6936" lon="6.08315">
        <ele>818.7</ele>
        <time>2012-10-08T12:44:03Z</time>
      </trkpt>
      <trkpt lat="45.69298" lon="6.0822">
        <ele>822.55</ele>
        <time>2012-10-08T12:44:33Z</time>
      </trkpt>
      <trkpt lat="45.69231" lon="6.08125">
        <ele>826.39</ele>
        <time>2012-10-08T12:45:03Z</time>
      </trkpt>
      <trkpt lat="45.69164" lon="6.08035">
        <ele>829.76</ele>
        <time>2012-10-08T12:45:31Z</time>
      </trkpt>
      <trkpt lat="45.69097" lon="6.07944">
        <ele>832.16</ele>
        <time>2012-10-08T12:45:58Z</time>
      </trkpt>
      <trkpt lat="45.69028" lon="6.07852">
        <ele>834.08</ele>
        <time>2012-10-08T12:46:21Z</time>
      </trkpt>
      <trkpt lat="45.68955" lon="6.07763">
        <ele>831.68</ele>
        <time>2012-10-08T12:46:39Z</time>
      </trkpt>
      <trkpt lat="45.68886" lon="6.07678">
        <ele>829.76</ele>
        <time>2012-10-08T12:46:51Z</time>
      </trkpt>
      <trkpt lat="45.68824" lon="6.07579">
        <ele>827.35</ele>
        <time>2012-10-08T12:47:03Z</time>
      </trkpt>
      <trkpt lat="45.68754" lon="6.07485">
        <ele>825.43</ele>
        <time>2012-10-08T12:47:15Z</time>
      </trkpt>
      <trkpt lat="45.687" lon="6.07377">
        <ele>823.03</ele>
        <time>2012-10-08T12:47:27Z</time>
      </trkpt>
      <trkpt lat="45.68645" lon="6.0727">
        <ele>820.14</ele>
        <time>2012-10-08T12:47:38Z</time>
      </trkpt>
      <trkpt lat="45.68587" lon="6.07165">
        <ele>818.7</ele>
        <time>2012-10-08T12:47:50Z</time>
      </trkpt>
      <trkpt lat="45.68543" lon="6.07046">
        <ele>818.7</ele>
        <time>2012-10-08T12:48:05Z</time>
      </trkpt>
      <trkpt lat="45.68477" lon="6.06954">
        <ele>818.22</ele>
        <time>2012-10-08T12:48:20Z</time>
      </trkpt>
      <trkpt lat="45.6841" lon="6.06872">
        <ele>821.58</ele>
        <time>2012-10-08T12:48:40Z</time>
      </trkpt>
      <trkpt lat="45.68364" lon="6.0676">
        <ele>826.39</ele>
        <time>2012-10-08T12:49:07Z</time>
      </trkpt>
      <trkpt lat="45.68306" lon="6.06659">
        <ele>827.83</ele>
        <time>2012-10-08T12:49:30Z</time>
      </trkpt>
      <trkpt lat="45.68249" lon="6.0656">
        <ele>830.24</ele>
        <time>2012-10-08T12:49:53Z</time>
      </trkpt>
      <trkpt lat="45.68185" lon="6.06479">
        <ele>833.6</ele>
        <time>2012-10-08T12:50:16Z</time>
      </trkpt>
      <trkpt lat="45.6813" lon="6.06375">
        <ele>837.45</ele>
        <time>2012-10-08T12:50:44Z</time>
      </trkpt>
      <trkpt lat="45.68057" lon="6.063">
        <ele>837.93</ele>
        <time>2012-10-08T12:51:05Z</time>
      </trkpt>
      <trkpt lat="45.67981" lon="6.06228">
        <ele>840.81</ele>
        <time>2012-10-08T12:51:29Z</time>
      </trkpt>
      <trkpt lat="45.67952" lon="6.06103">
        <ele>846.58</ele>
        <time>2012-10-08T12:52:07Z</time>
      </trkpt>
      <trkpt lat="45.67901" lon="6.06064">
        <ele>853.31</ele>
        <time>2012-10-08T12:52:46Z</time>
      </trkpt>
      <trkpt lat="45.67833" lon="6.06056">
        <ele>861.96</ele>
        <time>2012-10-08T12:53:36Z</time>
      </trkpt>
      <trkpt lat="45.67774" lon="6.05963">
        <ele>868.21</ele>
        <time>2012-10-08T12:54:19Z</time>
      </trkpt>
      <trkpt lat="45.67683" lon="6.0593">
        <ele>875.42</ele>
        <time>2012-10-08T12:55:00Z</time>
      </trkpt>
      <trkpt lat="45.67611" lon="6.05863">
        <ele>884.55</ele>
        <time>2012-10-08T12:55:48Z</time>
      </trkpt>
      <trkpt lat="45.67541" lon="6.05785">
        <ele>892.72</ele>
        <time>2012-10-08T12:56:34Z</time>
      </trkpt>
      <trkpt lat="45.67463" lon="6.05719">
        <ele>897.53</ele>
        <time>2012-10-08T12:57:09Z</time>
      </trkpt>
      <trkpt lat="45.67383" lon="6.05664">
        <ele>900.89</ele>
        <time>2012-10-08T12:57:38Z</time>
      </trkpt>
      <trkpt lat="45.67325" lon="6.05563">
        <ele>904.74</ele>
        <time>2012-10-08T12:58:11Z</time>
      </trkpt>
      <trkpt lat="45.67265" lon="6.05462">
        <ele>911.95</ele>
        <time>2012-10-08T12:58:53Z</time>
      </trkpt>
      <trkpt lat="45.67192" lon="6.05387">
        <ele>922.04</ele>
        <time>2012-10-08T12:59:47Z</time>
      </trkpt>
      <trkpt lat="45.67153" lon="6.05268">
        <ele>927.33</ele>
        <time>2012-10-08T13:00:26Z</time>
      </trkpt>
      <trkpt lat="45.67116" lon="6.05144">
        <ele>931.17</ele>
        <time>2012-10-08T13:01:00Z</time>
      </trkpt>
      <trkpt lat="45.67099" lon="6.05014">
        <ele>934.06</ele>
        <time>2012-10-08T13:01:31Z</time>
      </trkpt>
      <trkpt lat="45.67088" lon="6.04891">
        <ele>936.94</ele>
        <time>2012-10-08T13:02:02Z</time>
      </trkpt>
      <trkpt lat="45.67026" lon="6.04797">
        <ele>938.38</ele>
        <time>2012-10-08T13:02:28Z</time>
      </trkpt>
      <trkpt lat="45.66974" lon="6.04692">
        <ele>939.35</ele>
        <time>2012-10-08T13:02:52Z</time>
      </trkpt>
      <trkpt lat="45.66928" lon="6.04577">
        <ele>938.86</ele>
        <time>2012-10-08T13:03:12Z</time>
      </trkpt>
      <trkpt lat="45.66923" lon="6.04457">
        <ele>936.94</ele>
        <time>2012-10-08T13:03:30Z</time>
      </trkpt>
      <trkpt lat="45.66856" lon="6.0437">
        <ele>935.02</ele>
        <time>2012-10-08T13:03:46Z</time>
      </trkpt>
      <trkpt lat="45.66786" lon="6.04287">
        <ele>942.23</ele>
        <time>2012-10-08T13:04:22Z</time>
      </trkpt>
      <trkpt lat="45.6677" lon="6.04239">
        <ele>948.96</ele>
        <time>2012-10-08T13:05:08Z</time>
      </trkpt>
      <trkpt lat="45.66856" lon="6.04296">
        <ele>953.77</ele>
        <time>2012-10-08T13:05:47Z</time>
      </trkpt>
      <trkpt lat="45.6686" lon="6.04257">
        <ele>959.05</ele>
        <time>2012-10-08T13:06:25Z</time>
      </trkpt>
      <trkpt lat="45.66784" lon="6.04181">
        <ele>966.26</ele>
        <time>2012-10-08T13:07:13Z</time>
      </trkpt>
      <trkpt lat="45.66706" lon="6.04088">
        <ele>973.95</ele>
        <time>2012-10-08T13:08:03Z</time>
      </trkpt>
      <trkpt lat="45.66634" lon="6.03996">
        <ele>981.16</ele>
        <time>2012-10-08T13:08:51Z</time>
      </trkpt>
      <trkpt lat="45.66557" lon="6.03897">
        <ele>988.85</ele>
        <time>2012-10-08T13:09:41Z</time>
      </trkpt>
      <trkpt lat="45.66461" lon="6.03833">
        <ele>996.54</ele>
        <time>2012-10-08T13:10:30Z</time>
      </trkpt>
      <trkpt lat="45.66498" lon="6.03817">
        <ele>1002.31</ele>
        <time>2012-10-08T13:11:13Z</time>
      </trkpt>
      <trkpt lat="45.66469" lon="6.03764">
        <ele>1008.08</ele>
        <time>2012-10-08T13:11:53Z</time>
      </trkpt>
      <trkpt lat="45.66387" lon="6.03697">
        <ele>1014.81</ele>
        <time>2012-10-08T13:12:39Z</time>
      </trkpt>
      <trkpt lat="45.66304" lon="6.03637">
        <ele>1021.54</ele>
        <time>2012-10-08T13:13:25Z</time>
      </trkpt>
      <trkpt lat="45.66212" lon="6.03595">
        <ele>1028.75</ele>
        <time>2012-10-08T13:14:10Z</time>
      </trkpt>
      <trkpt lat="45.66225" lon="6.03562">
        <ele>1034.04</ele>
        <time>2012-10-08T13:14:48Z</time>
      </trkpt>
      <trkpt lat="45.66282" lon="6.03527">
        <ele>1040.28</ele>
        <time>2012-10-08T13:15:37Z</time>
      </trkpt>
      <trkpt lat="45.66195" lon="6.03481">
        <ele>1047.01</ele>
        <time>2012-10-08T13:17:32Z</time>
      </trkpt>
      <trkpt lat="45.66105" lon="6.03439">
        <ele>1053.74</ele>
        <time>2012-10-08T13:18:15Z</time>
      </trkpt>
      <trkpt lat="45.66051" lon="6.03376">
        <ele>1059.51</ele>
        <time>2012-10-08T13:18:55Z</time>
      </trkpt>
      <trkpt lat="45.66143" lon="6.03411">
        <ele>1064.32</ele>
        <time>2012-10-08T13:19:34Z</time>
      </trkpt>
      <trkpt lat="45.6612" lon="6.0336">
        <ele>1070.08</ele>
        <time>2012-10-08T13:20:18Z</time>
      </trkpt>
      <trkpt lat="45.66027" lon="6.03319">
        <ele>1077.29</ele>
        <time>2012-10-08T13:21:09Z</time>
      </trkpt>
      <trkpt lat="45.65943" lon="6.03265">
        <ele>1083.06</ele>
        <time>2012-10-08T13:21:58Z</time>
      </trkpt>
      <trkpt lat="45.65861" lon="6.03203">
        <ele>1089.31</ele>
        <time>2012-10-08T13:22:45Z</time>
      </trkpt>
      <trkpt lat="45.6578" lon="6.0314">
        <ele>1096.52</ele>
        <time>2012-10-08T13:23:29Z</time>
      </trkpt>
      <trkpt lat="45.65699" lon="6.03076">
        <ele>1102.77</ele>
        <time>2012-10-08T13:24:14Z</time>
      </trkpt>
      <trkpt lat="45.65619" lon="6.03005">
        <ele>1109.98</ele>
        <time>2012-10-08T13:25:03Z</time>
      </trkpt>
      <trkpt lat="45.65534" lon="6.02927">
        <ele>1117.67</ele>
        <time>2012-10-08T13:25:55Z</time>
      </trkpt>
      <trkpt lat="45.65456" lon="6.0285">
        <ele>1123.92</ele>
        <time>2012-10-08T13:26:46Z</time>
      </trkpt>
      <trkpt lat="45.6538" lon="6.02768">
        <ele>1131.61</ele>
        <time>2012-10-08T13:27:37Z</time>
      </trkpt>
      <trkpt lat="45.65305" lon="6.02677">
        <ele>1138.82</ele>
        <time>2012-10-08T13:28:32Z</time>
      </trkpt>
      <trkpt lat="45.65233" lon="6.02591">
        <ele>1147.47</ele>
        <time>2012-10-08T13:29:56Z</time>
      </trkpt>
      <trkpt lat="45.65157" lon="6.02506">
        <ele>1155.64</ele>
        <time>2012-10-08T13:30:48Z</time>
      </trkpt>
      <trkpt lat="45.65081" lon="6.02431">
        <ele>1161.89</ele>
        <time>2012-10-08T13:31:34Z</time>
      </trkpt>
      <trkpt lat="45.6501" lon="6.02348">
        <ele>1167.18</ele>
        <time>2012-10-08T13:32:14Z</time>
      </trkpt>
      <trkpt lat="45.64943" lon="6.02258">
        <ele>1171.98</ele>
        <time>2012-10-08T13:32:53Z</time>
      </trkpt>
      <trkpt lat="45.64884" lon="6.0215">
        <ele>1174.87</ele>
        <time>2012-10-08T13:33:29Z</time>
      </trkpt>
      <trkpt lat="45.64828" lon="6.02042">
        <ele>1177.27</ele>
        <time>2012-10-08T13:34:00Z</time>
      </trkpt>
      <trkpt lat="45.6477" lon="6.01936">
        <ele>1177.27</ele>
        <time>2012-10-08T13:34:28Z</time>
      </trkpt>
      <trkpt lat="45.64715" lon="6.01836">
        <ele>1176.79</ele>
        <time>2012-10-08T13:37:54Z</time>
      </trkpt>
      <trkpt lat="45.64653" lon="6.01744">
        <ele>1175.35</ele>
        <time>2012-10-08T13:38:15Z</time>
      </trkpt>
      <trkpt lat="45.64581" lon="6.01666">
        <ele>1175.83</ele>
        <time>2012-10-08T13:38:35Z</time>
      </trkpt>
      <trkpt lat="45.64508" lon="6.01588">
        <ele>1173.91</ele>
        <time>2012-10-08T13:39:30Z</time>
      </trkpt>
      <trkpt lat="45.64444" lon="6.01501">
        <ele>1171.02</ele>
        <time>2012-10-08T13:39:49Z</time>
      </trkpt>
      <trkpt lat="45.64358" lon="6.01452">
        <ele>1167.18</ele>
        <time>2012-10-08T13:40:05Z</time>
      </trkpt>
      <trkpt lat="45.6427" lon="6.01409">
        <ele>1160.45</ele>
        <time>2012-10-08T13:40:16Z</time>
      </trkpt>
      <trkpt lat="45.64191" lon="6.01348">
        <ele>1149.39</ele>
        <time>2012-10-08T13:40:31Z</time>
      </trkpt>
      <trkpt lat="45.64108" lon="6.01303">
        <ele>1143.14</ele>
        <time>2012-10-08T13:41:13Z</time>
      </trkpt>
      <trkpt lat="45.64017" lon="6.01255">
        <ele>1135.45</ele>
        <time>2012-10-08T13:41:23Z</time>
      </trkpt>
      <trkpt lat="45.63934" lon="6.01182">
        <ele>1126.8</ele>
        <time>2012-10-08T13:41:32Z</time>
      </trkpt>
      <trkpt lat="45.63851" lon="6.01119">
        <ele>1120.55</ele>
        <time>2012-10-08T13:41:40Z</time>
      </trkpt>
      <trkpt lat="45.63766" lon="6.01057">
        <ele>1112.86</ele>
        <time>2012-10-08T13:41:48Z</time>
      </trkpt>
      <trkpt lat="45.63683" lon="6.00986">
        <ele>1106.61</ele>
        <time>2012-10-08T13:41:56Z</time>
      </trkpt>
      <trkpt lat="45.63594" lon="6.00925">
        <ele>1099.4</ele>
        <time>2012-10-08T13:42:04Z</time>
      </trkpt>
      <trkpt lat="45.63513" lon="6.00845">
        <ele>1090.75</ele>
        <time>2012-10-08T13:42:12Z</time>
      </trkpt>
      <trkpt lat="45.63434" lon="6.00781">
        <ele>1082.58</ele>
        <time>2012-10-08T13:42:21Z</time>
      </trkpt>
      <trkpt lat="45.63466" lon="6.00878">
        <ele>1076.33</ele>
        <time>2012-10-08T13:42:34Z</time>
      </trkpt>
      <trkpt lat="45.63523" lon="6.00994">
        <ele>1072.49</ele>
        <time>2012-10-08T13:42:45Z</time>
      </trkpt>
      <trkpt lat="45.63529" lon="6.01056">
        <ele>1065.28</ele>
        <time>2012-10-08T13:42:58Z</time>
      </trkpt>
      <trkpt lat="45.63447" lon="6.00987">
        <ele>1059.51</ele>
        <time>2012-10-08T13:43:08Z</time>
      </trkpt>
      <trkpt lat="45.63365" lon="6.00934">
        <ele>1052.78</ele>
        <time>2012-10-08T13:43:16Z</time>
      </trkpt>
      <trkpt lat="45.63283" lon="6.00884">
        <ele>1043.65</ele>
        <time>2012-10-08T13:43:25Z</time>
      </trkpt>
      <trkpt lat="45.63228" lon="6.00781">
        <ele>1036.92</ele>
        <time>2012-10-08T13:43:34Z</time>
      </trkpt>
      <trkpt lat="45.63137" lon="6.00757">
        <ele>1030.19</ele>
        <time>2012-10-08T13:43:42Z</time>
      </trkpt>
      <trkpt lat="45.63053" lon="6.00704">
        <ele>1023.94</ele>
        <time>2012-10-08T13:43:50Z</time>
      </trkpt>
      <trkpt lat="45.62976" lon="6.00661">
        <ele>1015.29</ele>
        <time>2012-10-08T13:43:59Z</time>
      </trkpt>
      <trkpt lat="45.6289" lon="6.00704">
        <ele>1008.08</ele>
        <time>2012-10-08T13:44:07Z</time>
      </trkpt>
      <trkpt lat="45.62804" lon="6.00668">
        <ele>997.02</ele>
        <time>2012-10-08T13:44:17Z</time>
      </trkpt>
      <trkpt lat="45.62723" lon="6.00733">
        <ele>990.78</ele>
        <time>2012-10-08T13:44:26Z</time>
      </trkpt>
      <trkpt lat="45.62628" lon="6.00744">
        <ele>982.6</ele>
        <time>2012-10-08T13:44:34Z</time>
      </trkpt>
      <trkpt lat="45.62541" lon="6.007">
        <ele>973.95</ele>
        <time>2012-10-08T13:44:43Z</time>
      </trkpt>
      <trkpt lat="45.62446" lon="6.00705">
        <ele>965.3</ele>
        <time>2012-10-08T13:44:51Z</time>
      </trkpt>
      <trkpt lat="45.62357" lon="6.00716">
        <ele>955.21</ele>
        <time>2012-10-08T13:45:00Z</time>
      </trkpt>
      <trkpt lat="45.62267" lon="6.00715">
        <ele>946.56</ele>
        <time>2012-10-08T13:45:09Z</time>
      </trkpt>
      <trkpt lat="45.62173" lon="6.0075">
        <ele>939.83</ele>
        <time>2012-10-08T13:45:17Z</time>
      </trkpt>
      <trkpt lat="45.62102" lon="6.00827">
        <ele>929.73</ele>
        <time>2012-10-08T13:45:27Z</time>
      </trkpt>
      <trkpt lat="45.62095" lon="6.00943">
        <ele>923.48</ele>
        <time>2012-10-08T13:45:40Z</time>
      </trkpt>
      <trkpt lat="45.61999" lon="6.00974">
        <ele>920.6</ele>
        <time>2012-10-08T13:45:52Z</time>
      </trkpt>
      <trkpt lat="45.61952" lon="6.01081">
        <ele>916.75</ele>
        <time>2012-10-08T13:46:04Z</time>
      </trkpt>
      <trkpt lat="45.61922" lon="6.01205">
        <ele>915.31</ele>
        <time>2012-10-08T13:46:18Z</time>
      </trkpt>
      <trkpt lat="45.6186" lon="6.013">
        <ele>913.39</ele>
        <time>2012-10-08T13:46:32Z</time>
      </trkpt>
      <trkpt lat="45.6178" lon="6.0137">
        <ele>911.47</ele>
        <time>2012-10-08T13:46:46Z</time>
      </trkpt>
      <trkpt lat="45.61686" lon="6.01399">
        <ele>910.03</ele>
        <time>2012-10-08T13:47:00Z</time>
      </trkpt>
      <trkpt lat="45.61599" lon="6.01443">
        <ele>906.18</ele>
        <time>2012-10-08T13:47:12Z</time>
      </trkpt>
      <trkpt lat="45.61521" lon="6.01532">
        <ele>898.97</ele>
        <time>2012-10-08T13:47:22Z</time>
      </trkpt>
      <trkpt lat="45.61429" lon="6.01487">
        <ele>892.24</ele>
        <time>2012-10-08T13:47:31Z</time>
      </trkpt>
      <trkpt lat="45.61353" lon="6.01401">
        <ele>885.99</ele>
        <time>2012-10-08T13:47:40Z</time>
      </trkpt>
      <trkpt lat="45.61279" lon="6.01308">
        <ele>878.78</ele>
        <time>2012-10-08T13:47:49Z</time>
      </trkpt>
      <trkpt lat="45.61193" lon="6.01277">
        <ele>874.46</ele>
        <time>2012-10-08T13:47:57Z</time>
      </trkpt>
      <trkpt lat="45.61102" lon="6.01299">
        <ele>866.29</ele>
        <time>2012-10-08T13:48:05Z</time>
      </trkpt>
      <trkpt lat="45.61017" lon="6.01359">
        <ele>861.48</ele>
        <time>2012-10-08T13:48:13Z</time>
      </trkpt>
      <trkpt lat="45.60928" lon="6.01407">
        <ele>855.23</ele>
        <time>2012-10-08T13:48:21Z</time>
      </trkpt>
      <trkpt lat="45.60844" lon="6.01455">
        <ele>848.02</ele>
        <time>2012-10-08T13:48:29Z</time>
      </trkpt>
      <trkpt lat="45.60754" lon="6.01475">
        <ele>842.73</ele>
        <time>2012-10-08T13:48:37Z</time>
      </trkpt>
      <trkpt lat="45.60666" lon="6.01512">
        <ele>837.45</ele>
        <time>2012-10-08T13:48:45Z</time>
      </trkpt>
      <trkpt lat="45.60573" lon="6.01534">
        <ele>831.2</ele>
        <time>2012-10-08T13:48:53Z</time>
      </trkpt>
      <trkpt lat="45.60483" lon="6.01565">
        <ele>824.95</ele>
        <time>2012-10-08T13:49:01Z</time>
      </trkpt>
      <trkpt lat="45.60389" lon="6.01586">
        <ele>819.18</ele>
        <time>2012-10-08T13:49:09Z</time>
      </trkpt>
      <trkpt lat="45.603" lon="6.01621">
        <ele>812.93</ele>
        <time>2012-10-08T13:49:17Z</time>
      </trkpt>
      <trkpt lat="45.6021" lon="6.01647">
        <ele>806.68</ele>
        <time>2012-10-08T13:49:25Z</time>
      </trkpt>
      <trkpt lat="45.60119" lon="6.01659">
        <ele>799.95</ele>
        <time>2012-10-08T13:49:33Z</time>
      </trkpt>
      <trkpt lat="45.60028" lon="6.01652">
        <ele>794.19</ele>
        <time>2012-10-08T13:49:41Z</time>
      </trkpt>
      <trkpt lat="45.59937" lon="6.01626">
        <ele>787.94</ele>
        <time>2012-10-08T13:49:49Z</time>
      </trkpt>
      <trkpt lat="45.59852" lon="6.01571">
        <ele>781.69</ele>
        <time>2012-10-08T13:49:57Z</time>
      </trkpt>
      <trkpt lat="45.59758" lon="6.01557">
        <ele>774.96</ele>
        <time>2012-10-08T13:50:05Z</time>
      </trkpt>
      <trkpt lat="45.59662" lon="6.01547">
        <ele>768.23</ele>
        <time>2012-10-08T13:50:13Z</time>
      </trkpt>
      <trkpt lat="45.59578" lon="6.01483">
        <ele>761.5</ele>
        <time>2012-10-08T13:50:21Z</time>
      </trkpt>
      <trkpt lat="45.59486" lon="6.01448">
        <ele>755.25</ele>
        <time>2012-10-08T13:50:29Z</time>
      </trkpt>
      <trkpt lat="45.59403" lon="6.01383">
        <ele>748.04</ele>
        <time>2012-10-08T13:50:37Z</time>
      </trkpt>
      <trkpt lat="45.59327" lon="6.013">
        <ele>741.31</ele>
        <time>2012-10-08T13:50:45Z</time>
      </trkpt>
      <trkpt lat="45.59264" lon="6.01197">
        <ele>734.1</ele>
        <time>2012-10-08T13:50:53Z</time>
      </trkpt>
      <trkpt lat="45.59201" lon="6.01092">
        <ele>726.41</ele>
        <time>2012-10-08T13:51:01Z</time>
      </trkpt>
      <trkpt lat="45.59144" lon="6.00987">
        <ele>720.65</ele>
        <time>2012-10-08T13:51:09Z</time>
      </trkpt>
      <trkpt lat="45.59093" lon="6.00876">
        <ele>714.4</ele>
        <time>2012-10-08T13:51:17Z</time>
      </trkpt>
      <trkpt lat="45.59045" lon="6.00756">
        <ele>705.75</ele>
        <time>2012-10-08T13:51:26Z</time>
      </trkpt>
      <trkpt lat="45.59026" lon="6.0081">
        <ele>699.02</ele>
        <time>2012-10-08T13:51:43Z</time>
      </trkpt>
      <trkpt lat="45.59066" lon="6.00936">
        <ele>693.25</ele>
        <time>2012-10-08T13:51:54Z</time>
      </trkpt>
      <trkpt lat="45.59075" lon="6.01028">
        <ele>684.6</ele>
        <time>2012-10-08T13:52:07Z</time>
      </trkpt>
      <trkpt lat="45.59009" lon="6.00934">
        <ele>679.31</ele>
        <time>2012-10-08T13:52:19Z</time>
      </trkpt>
      <trkpt lat="45.58928" lon="6.00863">
        <ele>672.1</ele>
        <time>2012-10-08T13:52:29Z</time>
      </trkpt>
      <trkpt lat="45.5887" lon="6.00761">
        <ele>664.41</ele>
        <time>2012-10-08T13:52:39Z</time>
      </trkpt>
      <trkpt lat="45.58829" lon="6.00643">
        <ele>658.16</ele>
        <time>2012-10-08T13:52:48Z</time>
      </trkpt>
      <trkpt lat="45.58789" lon="6.00528">
        <ele>652.39</ele>
        <time>2012-10-08T13:52:56Z</time>
      </trkpt>
      <trkpt lat="45.58762" lon="6.00402">
        <ele>646.14</ele>
        <time>2012-10-08T13:53:04Z</time>
      </trkpt>
      <trkpt lat="45.5874" lon="6.00273">
        <ele>639.41</ele>
        <time>2012-10-08T13:53:12Z</time>
      </trkpt>
      <trkpt lat="45.58732" lon="6.0014">
        <ele>630.76</ele>
        <time>2012-10-08T13:53:20Z</time>
      </trkpt>
      <trkpt lat="45.5872" lon="6.00008">
        <ele>622.59</ele>
        <time>2012-10-08T13:53:29Z</time>
      </trkpt>
      <trkpt lat="45.5868" lon="5.99882">
        <ele>614.42</ele>
        <time>2012-10-08T13:53:39Z</time>
      </trkpt>
      <trkpt lat="45.58641" lon="5.99764">
        <ele>606.25</ele>
        <time>2012-10-08T13:53:49Z</time>
      </trkpt>
      <trkpt lat="45.58602" lon="5.99649">
        <ele>598.56</ele>
        <time>2012-10-08T13:54:03Z</time>
      </trkpt>
      <trkpt lat="45.58606" lon="5.99515">
        <ele>594.71</ele>
        <time>2012-10-08T13:54:20Z</time>
      </trkpt>
      <trkpt lat="45.586" lon="5.99388">
        <ele>591.35</ele>
        <time>2012-10-08T13:54:37Z</time>
      </trkpt>
      <trkpt lat="45.58597" lon="5.99253">
        <ele>586.54</ele>
        <time>2012-10-08T13:54:50Z</time>
      </trkpt>
      <trkpt lat="45.58591" lon="5.99123">
        <ele>581.25</ele>
        <time>2012-10-08T13:55:01Z</time>
      </trkpt>
      <trkpt lat="45.58608" lon="5.98996">
        <ele>576.45</ele>
        <time>2012-10-08T13:55:11Z</time>
      </trkpt>
      <trkpt lat="45.58607" lon="5.98861">
        <ele>564.43</ele>
        <time>2012-10-08T13:55:23Z</time>
      </trkpt>
      <trkpt lat="45.58588" lon="5.98725">
        <ele>555.3</ele>
        <time>2012-10-08T13:55:35Z</time>
      </trkpt>
      <trkpt lat="45.5854" lon="5.98611">
        <ele>546.17</ele>
        <time>2012-10-08T13:55:46Z</time>
      </trkpt>
      <trkpt lat="45.58562" lon="5.98487">
        <ele>538.96</ele>
        <time>2012-10-08T13:55:55Z</time>
      </trkpt>
      <trkpt lat="45.58579" lon="5.98353">
        <ele>531.27</ele>
        <time>2012-10-08T13:56:05Z</time>
      </trkpt>
      <trkpt lat="45.58533" lon="5.98274">
        <ele>521.65</ele>
        <time>2012-10-08T13:56:16Z</time>
      </trkpt>
      <trkpt lat="45.58488" lon="5.98397">
        <ele>514.92</ele>
        <time>2012-10-08T13:56:26Z</time>
      </trkpt>
      <trkpt lat="45.58489" lon="5.98312">
        <ele>507.23</ele>
        <time>2012-10-08T13:56:41Z</time>
      </trkpt>
      <trkpt lat="45.5844" lon="5.98189">
        <ele>500.98</ele>
        <time>2012-10-08T13:56:51Z</time>
      </trkpt>
      <trkpt lat="45.58414" lon="5.98061">
        <ele>492.33</ele>
        <time>2012-10-08T13:57:00Z</time>
      </trkpt>
      <trkpt lat="45.58491" lon="5.9799">
        <ele>484.16</ele>
        <time>2012-10-08T13:57:09Z</time>
      </trkpt>
      <trkpt lat="45.5854" lon="5.97917">
        <ele>477.91</ele>
        <time>2012-10-08T13:57:22Z</time>
      </trkpt>
      <trkpt lat="45.58445" lon="5.97951">
        <ele>472.14</ele>
        <time>2012-10-08T13:57:34Z</time>
      </trkpt>
      <trkpt lat="45.58353" lon="5.97949">
        <ele>464.93</ele>
        <time>2012-10-08T13:57:43Z</time>
      </trkpt>
      <trkpt lat="45.58319" lon="5.97933">
        <ele>456.76</ele>
        <time>2012-10-08T13:57:58Z</time>
      </trkpt>
      <trkpt lat="45.58409" lon="5.97887">
        <ele>450.52</ele>
        <time>2012-10-08T13:58:10Z</time>
      </trkpt>
      <trkpt lat="45.58484" lon="5.9782">
        <ele>443.31</ele>
        <time>2012-10-08T13:58:20Z</time>
      </trkpt>
      <trkpt lat="45.58559" lon="5.97759">
        <ele>434.65</ele>
        <time>2012-10-08T13:58:29Z</time>
      </trkpt>
      <trkpt lat="45.5852" lon="5.97694">
        <ele>430.33</ele>
        <time>2012-10-08T13:58:45Z</time>
      </trkpt>
      <trkpt lat="45.58427" lon="5.97658">
        <ele>430.33</ele>
        <time>2012-10-08T13:59:01Z</time>
      </trkpt>
      <trkpt lat="45.58339" lon="5.97608">
        <ele>426.48</ele>
        <time>2012-10-08T13:59:15Z</time>
      </trkpt>
      <trkpt lat="45.58257" lon="5.97565">
        <ele>418.31</ele>
        <time>2012-10-08T13:59:52Z</time>
      </trkpt>
      <trkpt lat="45.58178" lon="5.97504">
        <ele>412.54</ele>
        <time>2012-10-08T14:00:05Z</time>
      </trkpt>
      <trkpt lat="45.58108" lon="5.97412">
        <ele>404.85</ele>
        <time>2012-10-08T14:00:14Z</time>
      </trkpt>
      <trkpt lat="45.58026" lon="5.97362">
        <ele>397.16</ele>
        <time>2012-10-08T14:00:22Z</time>
      </trkpt>
      <trkpt lat="45.57945" lon="5.97314">
        <ele>386.59</ele>
        <time>2012-10-08T14:00:32Z</time>
      </trkpt>
      <trkpt lat="45.57999" lon="5.97207">
        <ele>380.82</ele>
        <time>2012-10-08T14:00:45Z</time>
      </trkpt>
      <trkpt lat="45.58022" lon="5.9709">
        <ele>371.21</ele>
        <time>2012-10-08T14:00:58Z</time>
      </trkpt>
      <trkpt lat="45.57961" lon="5.97168">
        <ele>364.48</ele>
        <time>2012-10-08T14:01:12Z</time>
      </trkpt>
      <trkpt lat="45.57987" lon="5.97042">
        <ele>358.23</ele>
        <time>2012-10-08T14:01:24Z</time>
      </trkpt>
      <trkpt lat="45.58005" lon="5.96905">
        <ele>351.02</ele>
        <time>2012-10-08T14:01:33Z</time>
      </trkpt>
      <trkpt lat="45.57947" lon="5.96802">
        <ele>340.44</ele>
        <time>2012-10-08T14:01:43Z</time>
      </trkpt>
      <trkpt lat="45.57887" lon="5.96714">
        <ele>331.31</ele>
        <time>2012-10-08T14:01:52Z</time>
      </trkpt>
      <trkpt lat="45.57812" lon="5.96639">
        <ele>328.91</ele>
        <time>2012-10-08T14:02:02Z</time>
      </trkpt>
      <trkpt lat="45.5775" lon="5.96545">
        <ele>327.47</ele>
        <time>2012-10-08T14:02:14Z</time>
      </trkpt>
      <trkpt lat="45.57689" lon="5.96481">
        <ele>325.54</ele>
        <time>2012-10-08T14:02:37Z</time>
      </trkpt>
      <trkpt lat="45.57615" lon="5.96407">
        <ele>324.58</ele>
        <time>2012-10-08T14:03:01Z</time>
      </trkpt>
      <trkpt lat="45.57527" lon="5.96432">
        <ele>325.06</ele>
        <time>2012-10-08T14:03:27Z</time>
      </trkpt>
      <trkpt lat="45.57492" lon="5.96454">
        <ele>324.58</ele>
        <time>2012-10-08T14:05:34Z</time>
      </trkpt>
      <trkpt lat="45.57478" lon="5.96326">
        <ele>324.1</ele>
        <time>2012-10-08T14:06:02Z</time>
      </trkpt>
      <trkpt lat="45.57443" lon="5.96201">
        <ele>322.18</ele>
        <time>2012-10-08T14:06:22Z</time>
      </trkpt>
      <trkpt lat="45.57413" lon="5.96073">
        <ele>320.74</ele>
        <time>2012-10-08T14:06:44Z</time>
      </trkpt>
      <trkpt lat="45.5738" lon="5.95948">
        <ele>320.26</ele>
        <time>2012-10-08T14:07:01Z</time>
      </trkpt>
      <trkpt lat="45.57382" lon="5.95838">
        <ele>318.81</ele>
        <time>2012-10-08T14:07:19Z</time>
      </trkpt>
      <trkpt lat="45.57345" lon="5.95827">
        <ele>318.81</ele>
        <time>2012-10-08T14:07:46Z</time>
      </trkpt>
      <trkpt lat="45.57283" lon="5.95788">
        <ele>319.3</ele>
        <time>2012-10-08T14:08:20Z</time>
      </trkpt>
      <trkpt lat="45.57217" lon="5.95708">
        <ele>316.89</ele>
        <time>2012-10-08T14:08:42Z</time>
      </trkpt>
      <trkpt lat="45.57184" lon="5.95582">
        <ele>315.93</ele>
        <time>2012-10-08T14:08:59Z</time>
      </trkpt>
      <trkpt lat="45.5716" lon="5.95453">
        <ele>314.97</ele>
        <time>2012-10-08T14:09:15Z</time>
      </trkpt>
      <trkpt lat="45.57143" lon="5.95321">
        <ele>313.53</ele>
        <time>2012-10-08T14:09:31Z</time>
      </trkpt>
      <trkpt lat="45.57128" lon="5.9519">
        <ele>311.6</ele>
        <time>2012-10-08T14:09:46Z</time>
      </trkpt>
      <trkpt lat="45.57108" lon="5.95064">
        <ele>310.16</ele>
        <time>2012-10-08T14:10:01Z</time>
      </trkpt>
      <trkpt lat="45.57091" lon="5.94934">
        <ele>309.68</ele>
        <time>2012-10-08T14:10:17Z</time>
      </trkpt>
      <trkpt lat="45.57073" lon="5.94806">
        <ele>307.28</ele>
        <time>2012-10-08T14:10:32Z</time>
      </trkpt>
      <trkpt lat="45.5704" lon="5.94683">
        <ele>307.76</ele>
        <time>2012-10-08T14:10:49Z</time>
      </trkpt>
      <trkpt lat="45.57002" lon="5.94557">
        <ele>306.8</ele>
        <time>2012-10-08T14:11:06Z</time>
      </trkpt>
      <trkpt lat="45.56968" lon="5.94431">
        <ele>304.88</ele>
        <time>2012-10-08T14:11:29Z</time>
      </trkpt>
      <trkpt lat="45.56931" lon="5.94311">
        <ele>304.39</ele>
        <time>2012-10-08T14:11:46Z</time>
      </trkpt>
      <trkpt lat="45.56896" lon="5.94193">
        <ele>303.91</ele>
        <time>2012-10-08T14:12:02Z</time>
      </trkpt>
      <trkpt lat="45.56855" lon="5.9407">
        <ele>301.99</ele>
        <time>2012-10-08T14:12:17Z</time>
      </trkpt>
      <trkpt lat="45.56828" lon="5.93947">
        <ele>301.51</ele>
        <time>2012-10-08T14:12:34Z</time>
      </trkpt>
      <trkpt lat="45.56818" lon="5.93813">
        <ele>300.07</ele>
        <time>2012-10-08T14:12:51Z</time>
      </trkpt>
      <trkpt lat="45.56837" lon="5.93685">
        <ele>299.11</ele>
        <time>2012-10-08T14:13:06Z</time>
      </trkpt>
      <trkpt lat="45.56837" lon="5.93549">
        <ele>298.15</ele>
        <time>2012-10-08T14:13:22Z</time>
      </trkpt>
      <trkpt lat="45.56828" lon="5.93416">
        <ele>296.7</ele>
        <time>2012-10-08T14:13:38Z</time>
      </trkpt>
      <trkpt lat="45.56789" lon="5.93353">
        <ele>295.74</ele>
        <time>2012-10-08T14:14:12Z</time>
      </trkpt>
      <trkpt lat="45.56691" lon="5.93377">
        <ele>296.7</ele>
        <time>2012-10-08T14:15:26Z</time>
      </trkpt>
      <trkpt lat="45.56606" lon="5.93419">
        <ele>295.74</ele>
        <time>2012-10-08T14:16:01Z</time>
      </trkpt>
      <trkpt lat="45.56557" lon="5.93365">
        <ele>295.26</ele>
        <time>2012-10-08T14:17:26Z</time>
      </trkpt>
      <trkpt lat="45.5648" lon="5.93285">
        <ele>293.34</ele>
        <time>2012-10-08T14:17:46Z</time>
      </trkpt>
      <trkpt lat="45.56402" lon="5.93208">
        <ele>292.86</ele>
        <time>2012-10-08T14:18:05Z</time>
      </trkpt>
      <trkpt lat="45.5635" lon="5.93097">
        <ele>291.42</ele>
        <time>2012-10-08T14:18:25Z</time>
      </trkpt>
      <trkpt lat="45.56316" lon="5.92974">
        <ele>292.86</ele>
        <time>2012-10-08T14:18:47Z</time>
      </trkpt>
      <trkpt lat="45.56348" lon="5.9285">
        <ele>290.94</ele>
        <time>2012-10-08T14:19:09Z</time>
      </trkpt>
      <trkpt lat="45.56367" lon="5.92723">
        <ele>290.46</ele>
        <time>2012-10-08T14:19:55Z</time>
      </trkpt>
      <trkpt lat="45.56402" lon="5.92593">
        <ele>289.97</ele>
        <time>2012-10-08T14:20:21Z</time>
      </trkpt>
      <trkpt lat="45.56426" lon="5.92468">
        <ele>289.01</ele>
        <time>2012-10-08T14:21:07Z</time>
      </trkpt>
      <trkpt lat="45.56519" lon="5.92471">
        <ele>288.05</ele>
        <time>2012-10-08T14:21:58Z</time>
      </trkpt>
      <trkpt lat="45.56594" lon="5.92572">
        <ele>289.01</ele>
        <time>2012-10-08T14:22:46Z</time>
      </trkpt>
      <trkpt lat="45.56619" lon="5.92691">
        <ele>289.01</ele>
        <time>2012-10-08T14:23:27Z</time>
      </trkpt>
      <trkpt lat="45.56632" lon="5.92826">
        <ele>289.97</ele>
        <time>2012-10-08T14:24:10Z</time>
      </trkpt>
      <trkpt lat="45.56659" lon="5.92775">
        <ele>289.97</ele>
        <time>2012-10-08T14:24:53Z</time>
      </trkpt>
      <trkpt lat="45.56657" lon="5.92637">
        <ele>289.97</ele>
        <time>2012-10-08T14:25:20Z</time>
      </trkpt>
      <trkpt lat="45.56689" lon="5.92538">
        <ele>289.97</ele>
        <time>2012-10-08T14:25:50Z</time>
      </trkpt>
      <trkpt lat="45.56635" lon="5.92415">
        <ele>288.53</ele>
        <time>2012-10-08T14:26:28Z</time>
      </trkpt>
      <trkpt lat="45.5657" lon="5.92399">
        <ele>288.05</ele>
        <time>2012-10-08T14:27:11Z</time>
      </trkpt>
      <trkpt lat="45.56495" lon="5.92412">
        <ele>287.09</ele>
        <time>2012-10-08T14:28:04Z</time>
      </trkpt>
      <trkpt lat="45.5645" lon="5.92257">
        <ele>287.57</ele>
        <time>2012-10-08T14:28:52Z</time>
      </trkpt>
      <trkpt lat="45.56463" lon="5.92136">
        <ele>287.09</ele>
        <time>2012-10-08T14:29:47Z</time>
      </trkpt>
      <trkpt lat="45.5652" lon="5.92032">
        <ele>286.61</ele>
        <time>2012-10-08T14:30:34Z</time>
      </trkpt>
      <trkpt lat="45.56568" lon="5.91988">
        <ele>286.61</ele>
        <time>2012-10-08T14:31:55Z</time>
      </trkpt>
      <trkpt lat="45.5648" lon="5.91909">
        <ele>286.61</ele>
        <time>2012-10-08T14:34:03Z</time>
      </trkpt>
      <trkpt lat="45.56517" lon="5.92023">
        <ele>284.69</ele>
        <time>2012-10-08T14:35:44Z</time>
      </trkpt>
      <trkpt lat="45.56459" lon="5.92122">
        <ele>284.69</ele>
        <time>2012-10-08T14:36:28Z</time>
      </trkpt>
      <trkpt lat="45.56436" lon="5.92135">
        <ele>286.61</ele>
        <time>2012-10-08T14:41:10Z</time>
      </trkpt>
      <trkpt lat="45.56436" lon="5.92135">
        <ele>286.13</ele>
        <time>2012-10-08T14:41:19Z</time>
      </trkpt>
      <trkpt lat="45.56434" lon="5.9213">
        <ele>293.34</ele>
        <time>2012-10-08T16:09:12Z</time>
      </trkpt>
      <trkpt lat="45.56688" lon="5.91844">
        <ele>291.42</ele>
        <time>2012-10-08T16:10:37Z</time>
      </trkpt>
      <trkpt lat="45.56686" lon="5.9185">
        <ele>289.49</ele>
        <time>2012-10-08T16:50:30Z</time>
      </trkpt>
      <trkpt lat="45.57101" lon="5.91937">
        <ele>286.61</ele>
        <time>2012-10-08T16:52:48Z</time>
      </trkpt>
      <trkpt lat="45.57023" lon="5.91976">
        <ele>287.57</ele>
        <time>2012-10-08T16:53:23Z</time>
      </trkpt>
      <trkpt lat="45.56948" lon="5.92055">
        <ele>288.53</ele>
        <time>2012-10-08T16:54:11Z</time>
      </trkpt>
      <trkpt lat="45.56858" lon="5.92116">
        <ele>289.97</ele>
        <time>2012-10-08T16:55:32Z</time>
      </trkpt>
      <trkpt lat="45.56895" lon="5.92114">
        <ele>291.9</ele>
        <time>2012-10-08T16:58:25Z</time>
      </trkpt>
      <trkpt lat="45.56903" lon="5.92098">
        <ele>291.9</ele>
        <time>2012-10-08T17:00:28Z</time>
      </trkpt>
      <trkpt lat="45.56853" lon="5.92172">
        <ele>293.34</ele>
        <time>2012-10-08T17:02:38Z</time>
      </trkpt>
      <trkpt lat="45.56905" lon="5.92196">
        <ele>300.55</ele>
        <time>2012-10-08T17:05:16Z</time>
      </trkpt>
      <trkpt lat="45.5687" lon="5.92202">
        <ele>303.91</ele>
        <time>2012-10-08T17:08:11Z</time>
      </trkpt>
      <trkpt lat="45.56849" lon="5.92218">
        <ele>318.81</ele>
        <time>2012-10-08T17:14:57Z</time>
      </trkpt>
      <trkpt lat="45.56857" lon="5.92224">
        <ele>309.2</ele>
        <time>2012-10-08T17:29:58Z</time>
      </trkpt>
      <trkpt lat="45.56833" lon="5.9222">
        <ele>309.2</ele>
        <time>2012-10-08T17:32:04Z</time>
      </trkpt>
      <trkpt lat="45.56873" lon="5.9221">
        <ele>303.91</ele>
        <time>2012-10-08T17:42:33Z</time>
      </trkpt>
      <trkpt lat="45.56901" lon="5.92148">
        <ele>302.95</ele>
        <time>2012-10-08T17:44:46Z</time>
      </trkpt>
      <trkpt lat="45.56859" lon="5.92227">
        <ele>298.63</ele>
        <time>2012-10-08T17:45:58Z</time>
      </trkpt>
      <trkpt lat="45.5687" lon="5.92211">
        <ele>298.63</ele>
        <time>2012-10-09T06:02:08Z</time>
      </trkpt>
      <trkpt lat="45.56895" lon="5.92146">
        <ele>300.55</ele>
        <time>2012-10-09T06:02:44Z</time>
      </trkpt>
      <trkpt lat="45.56896" lon="5.92098">
        <ele>279.4</ele>
        <time>2012-10-09T06:04:20Z</time>
      </trkpt>
      <trkpt lat="45.56992" lon="5.92034">
        <ele>277.48</ele>
        <time>2012-10-09T06:04:47Z</time>
      </trkpt>
      <trkpt lat="45.57083" lon="5.91959">
        <ele>277</ele>
        <time>2012-10-09T06:05:17Z</time>
      </trkpt>
      <trkpt lat="45.57069" lon="5.91835">
        <ele>278.44</ele>
        <time>2012-10-09T06:05:46Z</time>
      </trkpt>
      <trkpt lat="45.57042" lon="5.91754">
        <ele>279.4</ele>
        <time>2012-10-09T06:06:12Z</time>
      </trkpt>
      <trkpt lat="45.56964" lon="5.91825">
        <ele>278.92</ele>
        <time>2012-10-09T06:06:36Z</time>
      </trkpt>
      <trkpt lat="45.56886" lon="5.91901">
        <ele>278.92</ele>
        <time>2012-10-09T06:06:58Z</time>
      </trkpt>
      <trkpt lat="45.56798" lon="5.9189">
        <ele>278.92</ele>
        <time>2012-10-09T06:07:35Z</time>
      </trkpt>
      <trkpt lat="45.5673" lon="5.91963">
        <ele>278.92</ele>
        <time>2012-10-09T06:08:04Z</time>
      </trkpt>
      <trkpt lat="45.5668" lon="5.92074">
        <ele>278.44</ele>
        <time>2012-10-09T06:08:29Z</time>
      </trkpt>
      <trkpt lat="45.56619" lon="5.92052">
        <ele>278.44</ele>
        <time>2012-10-09T06:08:55Z</time>
      </trkpt>
      <trkpt lat="45.56634" lon="5.91945">
        <ele>278.92</ele>
        <time>2012-10-09T06:10:31Z</time>
      </trkpt>
      <trkpt lat="45.56624" lon="5.91895">
        <ele>277.96</ele>
        <time>2012-10-09T06:12:13Z</time>
      </trkpt>
      <trkpt lat="45.56627" lon="5.91989">
        <ele>278.44</ele>
        <time>2012-10-09T06:13:15Z</time>
      </trkpt>
      <trkpt lat="45.56512" lon="5.92023">
        <ele>278.44</ele>
        <time>2012-10-09T06:14:01Z</time>
      </trkpt>
      <trkpt lat="45.56508" lon="5.91985">
        <ele>278.44</ele>
        <time>2012-10-09T06:18:12Z</time>
      </trkpt>
      <trkpt lat="45.56419" lon="5.91931">
        <ele>280.84</ele>
        <time>2012-10-09T06:18:39Z</time>
      </trkpt>
      <trkpt lat="45.56373" lon="5.91888">
        <ele>281.8</ele>
        <time>2012-10-09T06:19:57Z</time>
      </trkpt>
      <trkpt lat="45.56383" lon="5.91748">
        <ele>283.25</ele>
        <time>2012-10-09T06:20:20Z</time>
      </trkpt>
      <trkpt lat="45.56387" lon="5.91609">
        <ele>284.69</ele>
        <time>2012-10-09T06:20:42Z</time>
      </trkpt>
      <trkpt lat="45.56393" lon="5.91475">
        <ele>286.13</ele>
        <time>2012-10-09T06:21:06Z</time>
      </trkpt>
      <trkpt lat="45.5633" lon="5.91375">
        <ele>288.05</ele>
        <time>2012-10-09T06:21:28Z</time>
      </trkpt>
      <trkpt lat="45.56263" lon="5.91277">
        <ele>289.49</ele>
        <time>2012-10-09T06:21:50Z</time>
      </trkpt>
      <trkpt lat="45.56252" lon="5.91151">
        <ele>291.42</ele>
        <time>2012-10-09T06:22:12Z</time>
      </trkpt>
      <trkpt lat="45.5627" lon="5.9102">
        <ele>291.9</ele>
        <time>2012-10-09T06:22:32Z</time>
      </trkpt>
      <trkpt lat="45.56289" lon="5.90892">
        <ele>293.34</ele>
        <time>2012-10-09T06:22:51Z</time>
      </trkpt>
      <trkpt lat="45.56307" lon="5.90756">
        <ele>294.3</ele>
        <time>2012-10-09T06:23:23Z</time>
      </trkpt>
      <trkpt lat="45.56326" lon="5.90628">
        <ele>295.74</ele>
        <time>2012-10-09T06:23:43Z</time>
      </trkpt>
      <trkpt lat="45.56345" lon="5.90494">
        <ele>296.7</ele>
        <time>2012-10-09T06:24:16Z</time>
      </trkpt>
      <trkpt lat="45.56368" lon="5.90363">
        <ele>298.15</ele>
        <time>2012-10-09T06:24:37Z</time>
      </trkpt>
      <trkpt lat="45.56344" lon="5.90267">
        <ele>298.15</ele>
        <time>2012-10-09T06:24:57Z</time>
      </trkpt>
      <trkpt lat="45.56303" lon="5.90147">
        <ele>297.67</ele>
        <time>2012-10-09T06:25:13Z</time>
      </trkpt>
      <trkpt lat="45.56266" lon="5.90026">
        <ele>297.18</ele>
        <time>2012-10-09T06:25:29Z</time>
      </trkpt>
      <trkpt lat="45.56217" lon="5.89919">
        <ele>297.67</ele>
        <time>2012-10-09T06:25:45Z</time>
      </trkpt>
      <trkpt lat="45.56137" lon="5.89844">
        <ele>299.11</ele>
        <time>2012-10-09T06:26:04Z</time>
      </trkpt>
      <trkpt lat="45.56061" lon="5.8977">
        <ele>301.99</ele>
        <time>2012-10-09T06:26:25Z</time>
      </trkpt>
      <trkpt lat="45.55992" lon="5.89688">
        <ele>304.39</ele>
        <time>2012-10-09T06:26:46Z</time>
      </trkpt>
      <trkpt lat="45.5594" lon="5.89595">
        <ele>305.84</ele>
        <time>2012-10-09T06:27:10Z</time>
      </trkpt>
      <trkpt lat="45.55853" lon="5.89555">
        <ele>307.76</ele>
        <time>2012-10-09T06:27:31Z</time>
      </trkpt>
      <trkpt lat="45.55775" lon="5.89487">
        <ele>310.16</ele>
        <time>2012-10-09T06:27:51Z</time>
      </trkpt>
      <trkpt lat="45.55699" lon="5.89412">
        <ele>311.6</ele>
        <time>2012-10-09T06:28:12Z</time>
      </trkpt>
      <trkpt lat="45.55623" lon="5.89334">
        <ele>314.01</ele>
        <time>2012-10-09T06:28:35Z</time>
      </trkpt>
      <trkpt lat="45.55544" lon="5.89262">
        <ele>315.93</ele>
        <time>2012-10-09T06:28:57Z</time>
      </trkpt>
      <trkpt lat="45.55468" lon="5.89195">
        <ele>317.37</ele>
        <time>2012-10-09T06:29:20Z</time>
      </trkpt>
      <trkpt lat="45.55385" lon="5.89152">
        <ele>320.26</ele>
        <time>2012-10-09T06:29:45Z</time>
      </trkpt>
      <trkpt lat="45.55295" lon="5.89115">
        <ele>323.14</ele>
        <time>2012-10-09T06:31:43Z</time>
      </trkpt>
      <trkpt lat="45.55208" lon="5.8908">
        <ele>326.02</ele>
        <time>2012-10-09T06:32:43Z</time>
      </trkpt>
      <trkpt lat="45.55115" lon="5.89043">
        <ele>327.95</ele>
        <time>2012-10-09T06:33:07Z</time>
      </trkpt>
      <trkpt lat="45.55028" lon="5.89007">
        <ele>331.31</ele>
        <time>2012-10-09T06:33:32Z</time>
      </trkpt>
      <trkpt lat="45.54935" lon="5.88968">
        <ele>333.71</ele>
        <time>2012-10-09T06:33:58Z</time>
      </trkpt>
      <trkpt lat="45.54847" lon="5.88921">
        <ele>336.12</ele>
        <time>2012-10-09T06:34:23Z</time>
      </trkpt>
      <trkpt lat="45.54771" lon="5.88854">
        <ele>338.04</ele>
        <time>2012-10-09T06:34:49Z</time>
      </trkpt>
      <trkpt lat="45.54715" lon="5.88754">
        <ele>341.89</ele>
        <time>2012-10-09T06:35:15Z</time>
      </trkpt>
      <trkpt lat="45.54665" lon="5.88642">
        <ele>344.77</ele>
        <time>2012-10-09T06:35:42Z</time>
      </trkpt>
      <trkpt lat="45.5461" lon="5.88537">
        <ele>348.13</ele>
        <time>2012-10-09T06:36:08Z</time>
      </trkpt>
      <trkpt lat="45.5456" lon="5.88426">
        <ele>350.54</ele>
        <time>2012-10-09T06:36:33Z</time>
      </trkpt>
      <trkpt lat="45.54508" lon="5.88317">
        <ele>353.42</ele>
        <time>2012-10-09T06:36:58Z</time>
      </trkpt>
      <trkpt lat="45.54465" lon="5.88197">
        <ele>355.83</ele>
        <time>2012-10-09T06:37:24Z</time>
      </trkpt>
      <trkpt lat="45.54416" lon="5.88085">
        <ele>358.23</ele>
        <time>2012-10-09T06:37:49Z</time>
      </trkpt>
      <trkpt lat="45.54366" lon="5.87971">
        <ele>359.67</ele>
        <time>2012-10-09T06:38:13Z</time>
      </trkpt>
      <trkpt lat="45.54296" lon="5.87888">
        <ele>361.11</ele>
        <time>2012-10-09T06:38:37Z</time>
      </trkpt>
      <trkpt lat="45.54218" lon="5.87813">
        <ele>362.07</ele>
        <time>2012-10-09T06:38:59Z</time>
      </trkpt>
      <trkpt lat="45.5416" lon="5.87716">
        <ele>363.52</ele>
        <time>2012-10-09T06:39:21Z</time>
      </trkpt>
      <trkpt lat="45.54109" lon="5.87607">
        <ele>366.4</ele>
        <time>2012-10-09T06:39:43Z</time>
      </trkpt>
      <trkpt lat="45.54077" lon="5.87488">
        <ele>371.21</ele>
        <time>2012-10-09T06:40:10Z</time>
      </trkpt>
      <trkpt lat="45.54053" lon="5.8736">
        <ele>375.05</ele>
        <time>2012-10-09T06:40:38Z</time>
      </trkpt>
      <trkpt lat="45.54003" lon="5.87254">
        <ele>377.45</ele>
        <time>2012-10-09T06:41:05Z</time>
      </trkpt>
      <trkpt lat="45.53952" lon="5.87146">
        <ele>380.34</ele>
        <time>2012-10-09T06:41:33Z</time>
      </trkpt>
      <trkpt lat="45.53892" lon="5.87044">
        <ele>383.7</ele>
        <time>2012-10-09T06:42:01Z</time>
      </trkpt>
      <trkpt lat="45.53832" lon="5.86942">
        <ele>386.11</ele>
        <time>2012-10-09T06:42:27Z</time>
      </trkpt>
      <trkpt lat="45.53771" lon="5.86842">
        <ele>388.03</ele>
        <time>2012-10-09T06:42:52Z</time>
      </trkpt>
      <trkpt lat="45.53704" lon="5.86758">
        <ele>389.95</ele>
        <time>2012-10-09T06:43:16Z</time>
      </trkpt>
      <trkpt lat="45.53627" lon="5.8669">
        <ele>392.36</ele>
        <time>2012-10-09T06:43:41Z</time>
      </trkpt>
      <trkpt lat="45.53569" lon="5.86618">
        <ele>393.32</ele>
        <time>2012-10-09T06:45:22Z</time>
      </trkpt>
      <trkpt lat="45.53499" lon="5.86573">
        <ele>395.72</ele>
        <time>2012-10-09T06:49:03Z</time>
      </trkpt>
      <trkpt lat="45.53412" lon="5.86523">
        <ele>399.08</ele>
        <time>2012-10-09T06:49:32Z</time>
      </trkpt>
      <trkpt lat="45.53336" lon="5.86445">
        <ele>404.85</ele>
        <time>2012-10-09T06:50:09Z</time>
      </trkpt>
      <trkpt lat="45.5328" lon="5.86339">
        <ele>408.7</ele>
        <time>2012-10-09T06:50:42Z</time>
      </trkpt>
      <trkpt lat="45.53207" lon="5.86258">
        <ele>413.02</ele>
        <time>2012-10-09T06:51:14Z</time>
      </trkpt>
      <trkpt lat="45.53118" lon="5.86218">
        <ele>418.31</ele>
        <time>2012-10-09T06:51:46Z</time>
      </trkpt>
      <trkpt lat="45.53025" lon="5.86184">
        <ele>424.08</ele>
        <time>2012-10-09T06:52:19Z</time>
      </trkpt>
      <trkpt lat="45.52941" lon="5.8612">
        <ele>428.89</ele>
        <time>2012-10-09T06:52:52Z</time>
      </trkpt>
      <trkpt lat="45.52861" lon="5.86041">
        <ele>433.21</ele>
        <time>2012-10-09T06:53:24Z</time>
      </trkpt>
      <trkpt lat="45.52791" lon="5.85956">
        <ele>437.06</ele>
        <time>2012-10-09T06:53:55Z</time>
      </trkpt>
      <trkpt lat="45.52739" lon="5.85847">
        <ele>441.86</ele>
        <time>2012-10-09T06:54:26Z</time>
      </trkpt>
      <trkpt lat="45.52663" lon="5.85767">
        <ele>444.75</ele>
        <time>2012-10-09T06:54:56Z</time>
      </trkpt>
      <trkpt lat="45.52589" lon="5.85694">
        <ele>449.07</ele>
        <time>2012-10-09T06:55:24Z</time>
      </trkpt>
      <trkpt lat="45.52528" lon="5.85599">
        <ele>452.92</ele>
        <time>2012-10-09T06:55:55Z</time>
      </trkpt>
      <trkpt lat="45.52449" lon="5.8552">
        <ele>457.24</ele>
        <time>2012-10-09T06:56:27Z</time>
      </trkpt>
      <trkpt lat="45.52353" lon="5.85494">
        <ele>461.09</ele>
        <time>2012-10-09T06:56:57Z</time>
      </trkpt>
      <trkpt lat="45.5226" lon="5.85513">
        <ele>465.9</ele>
        <time>2012-10-09T06:57:29Z</time>
      </trkpt>
      <trkpt lat="45.52168" lon="5.85497">
        <ele>469.74</ele>
        <time>2012-10-09T06:57:59Z</time>
      </trkpt>
      <trkpt lat="45.52081" lon="5.85453">
        <ele>473.59</ele>
        <time>2012-10-09T06:58:28Z</time>
      </trkpt>
      <trkpt lat="45.51997" lon="5.85396">
        <ele>475.51</ele>
        <time>2012-10-09T06:58:55Z</time>
      </trkpt>
      <trkpt lat="45.51907" lon="5.85359">
        <ele>476.47</ele>
        <time>2012-10-09T06:59:19Z</time>
      </trkpt>
      <trkpt lat="45.51819" lon="5.85322">
        <ele>477.43</ele>
        <time>2012-10-09T06:59:41Z</time>
      </trkpt>
      <trkpt lat="45.51735" lon="5.85292">
        <ele>477.43</ele>
        <time>2012-10-09T07:00:00Z</time>
      </trkpt>
      <trkpt lat="45.51646" lon="5.85256">
        <ele>477.91</ele>
        <time>2012-10-09T07:00:20Z</time>
      </trkpt>
      <trkpt lat="45.51556" lon="5.85218">
        <ele>478.39</ele>
        <time>2012-10-09T07:00:40Z</time>
      </trkpt>
      <trkpt lat="45.51467" lon="5.85182">
        <ele>479.35</ele>
        <time>2012-10-09T07:01:00Z</time>
      </trkpt>
      <trkpt lat="45.51378" lon="5.85145">
        <ele>479.84</ele>
        <time>2012-10-09T07:01:20Z</time>
      </trkpt>
      <trkpt lat="45.51291" lon="5.85107">
        <ele>480.8</ele>
        <time>2012-10-09T07:01:39Z</time>
      </trkpt>
      <trkpt lat="45.51199" lon="5.8507">
        <ele>481.28</ele>
        <time>2012-10-09T07:01:59Z</time>
      </trkpt>
      <trkpt lat="45.51112" lon="5.85035">
        <ele>481.76</ele>
        <time>2012-10-09T07:02:18Z</time>
      </trkpt>
      <trkpt lat="45.51024" lon="5.85011">
        <ele>483.68</ele>
        <time>2012-10-09T07:02:38Z</time>
      </trkpt>
      <trkpt lat="45.50932" lon="5.84989">
        <ele>483.2</ele>
        <time>2012-10-09T07:02:57Z</time>
      </trkpt>
      <trkpt lat="45.50845" lon="5.8496">
        <ele>483.68</ele>
        <time>2012-10-09T07:03:14Z</time>
      </trkpt>
      <trkpt lat="45.50759" lon="5.84919">
        <ele>486.08</ele>
        <time>2012-10-09T07:03:33Z</time>
      </trkpt>
      <trkpt lat="45.50671" lon="5.84877">
        <ele>488.01</ele>
        <time>2012-10-09T07:03:54Z</time>
      </trkpt>
      <trkpt lat="45.50586" lon="5.84835">
        <ele>489.45</ele>
        <time>2012-10-09T07:04:14Z</time>
      </trkpt>
      <trkpt lat="45.505" lon="5.84792">
        <ele>492.81</ele>
        <time>2012-10-09T07:04:35Z</time>
      </trkpt>
      <trkpt lat="45.50416" lon="5.84731">
        <ele>496.18</ele>
        <time>2012-10-09T07:04:56Z</time>
      </trkpt>
      <trkpt lat="45.50344" lon="5.84648">
        <ele>500.02</ele>
        <time>2012-10-09T07:05:17Z</time>
      </trkpt>
      <trkpt lat="45.50275" lon="5.84556">
        <ele>501.95</ele>
        <time>2012-10-09T07:05:38Z</time>
      </trkpt>
      <trkpt lat="45.50207" lon="5.84465">
        <ele>502.43</ele>
        <time>2012-10-09T07:06:00Z</time>
      </trkpt>
      <trkpt lat="45.50137" lon="5.84382">
        <ele>504.35</ele>
        <time>2012-10-09T07:06:23Z</time>
      </trkpt>
      <trkpt lat="45.50063" lon="5.84313">
        <ele>505.79</ele>
        <time>2012-10-09T07:06:49Z</time>
      </trkpt>
      <trkpt lat="45.50014" lon="5.84279">
        <ele>505.31</ele>
        <time>2012-10-09T07:13:18Z</time>
      </trkpt>
      <trkpt lat="45.49959" lon="5.84175">
        <ele>508.67</ele>
        <time>2012-10-09T07:13:48Z</time>
      </trkpt>
      <trkpt lat="45.49928" lon="5.84053">
        <ele>512.52</ele>
        <time>2012-10-09T07:14:16Z</time>
      </trkpt>
      <trkpt lat="45.49855" lon="5.83974">
        <ele>514.92</ele>
        <time>2012-10-09T07:14:43Z</time>
      </trkpt>
      <trkpt lat="45.49771" lon="5.83925">
        <ele>518.77</ele>
        <time>2012-10-09T07:15:10Z</time>
      </trkpt>
      <trkpt lat="45.49681" lon="5.8389">
        <ele>523.09</ele>
        <time>2012-10-09T07:15:40Z</time>
      </trkpt>
      <trkpt lat="45.49607" lon="5.83802">
        <ele>528.38</ele>
        <time>2012-10-09T07:16:14Z</time>
      </trkpt>
      <trkpt lat="45.49524" lon="5.83743">
        <ele>533.67</ele>
        <time>2012-10-09T07:16:45Z</time>
      </trkpt>
      <trkpt lat="45.4944" lon="5.83687">
        <ele>537.51</ele>
        <time>2012-10-09T07:17:15Z</time>
      </trkpt>
      <trkpt lat="45.49354" lon="5.83638">
        <ele>538.96</ele>
        <time>2012-10-09T07:17:42Z</time>
      </trkpt>
      <trkpt lat="45.49265" lon="5.83589">
        <ele>540.4</ele>
        <time>2012-10-09T07:18:08Z</time>
      </trkpt>
      <trkpt lat="45.49176" lon="5.83542">
        <ele>542.32</ele>
        <time>2012-10-09T07:18:34Z</time>
      </trkpt>
      <trkpt lat="45.49081" lon="5.83535">
        <ele>543.76</ele>
        <time>2012-10-09T07:18:58Z</time>
      </trkpt>
      <trkpt lat="45.48988" lon="5.83535">
        <ele>546.17</ele>
        <time>2012-10-09T07:19:21Z</time>
      </trkpt>
      <trkpt lat="45.48891" lon="5.83534">
        <ele>548.57</ele>
        <time>2012-10-09T07:19:48Z</time>
      </trkpt>
      <trkpt lat="45.48798" lon="5.83537">
        <ele>552.9</ele>
        <time>2012-10-09T07:20:17Z</time>
      </trkpt>
      <trkpt lat="45.48707" lon="5.83524">
        <ele>556.26</ele>
        <time>2012-10-09T07:20:45Z</time>
      </trkpt>
      <trkpt lat="45.4862" lon="5.83475">
        <ele>558.66</ele>
        <time>2012-10-09T07:21:11Z</time>
      </trkpt>
      <trkpt lat="45.48537" lon="5.8342">
        <ele>562.03</ele>
        <time>2012-10-09T07:21:37Z</time>
      </trkpt>
      <trkpt lat="45.48453" lon="5.83363">
        <ele>565.87</ele>
        <time>2012-10-09T07:22:07Z</time>
      </trkpt>
      <trkpt lat="45.48369" lon="5.83307">
        <ele>569.24</ele>
        <time>2012-10-09T07:22:36Z</time>
      </trkpt>
      <trkpt lat="45.48284" lon="5.8325">
        <ele>573.08</ele>
        <time>2012-10-09T07:23:05Z</time>
      </trkpt>
      <trkpt lat="45.48201" lon="5.83195">
        <ele>577.89</ele>
        <time>2012-10-09T07:23:35Z</time>
      </trkpt>
      <trkpt lat="45.48116" lon="5.83139">
        <ele>579.33</ele>
        <time>2012-10-09T07:24:01Z</time>
      </trkpt>
      <trkpt lat="45.48031" lon="5.83082">
        <ele>579.81</ele>
        <time>2012-10-09T07:24:23Z</time>
      </trkpt>
      <trkpt lat="45.4795" lon="5.83028">
        <ele>580.77</ele>
        <time>2012-10-09T07:24:42Z</time>
      </trkpt>
      <trkpt lat="45.47869" lon="5.82963">
        <ele>582.22</ele>
        <time>2012-10-09T07:25:05Z</time>
      </trkpt>
      <trkpt lat="45.47814" lon="5.82861">
        <ele>586.06</ele>
        <time>2012-10-09T07:25:33Z</time>
      </trkpt>
      <trkpt lat="45.47749" lon="5.8277">
        <ele>589.43</ele>
        <time>2012-10-09T07:26:02Z</time>
      </trkpt>
      <trkpt lat="45.47668" lon="5.82709">
        <ele>593.27</ele>
        <time>2012-10-09T07:26:30Z</time>
      </trkpt>
      <trkpt lat="45.47592" lon="5.82638">
        <ele>597.12</ele>
        <time>2012-10-09T07:26:58Z</time>
      </trkpt>
      <trkpt lat="45.47525" lon="5.82547">
        <ele>602.88</ele>
        <time>2012-10-09T07:27:32Z</time>
      </trkpt>
      <trkpt lat="45.47456" lon="5.82457">
        <ele>608.65</ele>
        <time>2012-10-09T07:28:07Z</time>
      </trkpt>
      <trkpt lat="45.47389" lon="5.82355">
        <ele>614.42</ele>
        <time>2012-10-09T07:28:38Z</time>
      </trkpt>
      <trkpt lat="45.47325" lon="5.82258">
        <ele>620.19</ele>
        <time>2012-10-09T07:29:07Z</time>
      </trkpt>
      <trkpt lat="45.47259" lon="5.82165">
        <ele>622.59</ele>
        <time>2012-10-09T07:29:32Z</time>
      </trkpt>
      <trkpt lat="45.47194" lon="5.82069">
        <ele>623.55</ele>
        <time>2012-10-09T07:29:55Z</time>
      </trkpt>
      <trkpt lat="45.47129" lon="5.81977">
        <ele>624.99</ele>
        <time>2012-10-09T07:30:16Z</time>
      </trkpt>
      <trkpt lat="45.47063" lon="5.81885">
        <ele>625.96</ele>
        <time>2012-10-09T07:30:37Z</time>
      </trkpt>
      <trkpt lat="45.46999" lon="5.8179">
        <ele>627.4</ele>
        <time>2012-10-09T07:36:12Z</time>
      </trkpt>
      <trkpt lat="45.46935" lon="5.81698">
        <ele>628.36</ele>
        <time>2012-10-09T07:36:33Z</time>
      </trkpt>
      <trkpt lat="45.46862" lon="5.81617">
        <ele>627.88</ele>
        <time>2012-10-09T07:36:52Z</time>
      </trkpt>
      <trkpt lat="45.4678" lon="5.81557">
        <ele>627.88</ele>
        <time>2012-10-09T07:37:11Z</time>
      </trkpt>
      <trkpt lat="45.46689" lon="5.81515">
        <ele>625.47</ele>
        <time>2012-10-09T07:37:28Z</time>
      </trkpt>
      <trkpt lat="45.46599" lon="5.81471">
        <ele>623.55</ele>
        <time>2012-10-09T07:37:43Z</time>
      </trkpt>
      <trkpt lat="45.46512" lon="5.81428">
        <ele>620.67</ele>
        <time>2012-10-09T07:37:56Z</time>
      </trkpt>
      <trkpt lat="45.46424" lon="5.81375">
        <ele>617.3</ele>
        <time>2012-10-09T07:38:09Z</time>
      </trkpt>
      <trkpt lat="45.46344" lon="5.81312">
        <ele>615.38</ele>
        <time>2012-10-09T07:38:22Z</time>
      </trkpt>
      <trkpt lat="45.46262" lon="5.81242">
        <ele>613.46</ele>
        <time>2012-10-09T07:38:36Z</time>
      </trkpt>
      <trkpt lat="45.46181" lon="5.81179">
        <ele>611.54</ele>
        <time>2012-10-09T07:38:49Z</time>
      </trkpt>
      <trkpt lat="45.46094" lon="5.81124">
        <ele>609.61</ele>
        <time>2012-10-09T07:39:02Z</time>
      </trkpt>
      <trkpt lat="45.46008" lon="5.81061">
        <ele>607.21</ele>
        <time>2012-10-09T07:39:15Z</time>
      </trkpt>
      <trkpt lat="45.45945" lon="5.80953">
        <ele>604.81</ele>
        <time>2012-10-09T07:39:28Z</time>
      </trkpt>
      <trkpt lat="45.45889" lon="5.80848">
        <ele>602.88</ele>
        <time>2012-10-09T07:39:41Z</time>
      </trkpt>
      <trkpt lat="45.45882" lon="5.80725">
        <ele>599.04</ele>
        <time>2012-10-09T07:39:53Z</time>
      </trkpt>
      <trkpt lat="45.45881" lon="5.80596">
        <ele>596.15</ele>
        <time>2012-10-09T07:40:05Z</time>
      </trkpt>
      <trkpt lat="45.45827" lon="5.80486">
        <ele>592.31</ele>
        <time>2012-10-09T07:40:16Z</time>
      </trkpt>
      <trkpt lat="45.45769" lon="5.80375">
        <ele>589.43</ele>
        <time>2012-10-09T07:40:28Z</time>
      </trkpt>
      <trkpt lat="45.45705" lon="5.80271">
        <ele>587.02</ele>
        <time>2012-10-09T07:40:41Z</time>
      </trkpt>
      <trkpt lat="45.45625" lon="5.80204">
        <ele>583.18</ele>
        <time>2012-10-09T07:40:54Z</time>
      </trkpt>
      <trkpt lat="45.45533" lon="5.80218">
        <ele>579.81</ele>
        <time>2012-10-09T07:41:05Z</time>
      </trkpt>
      <trkpt lat="45.45443" lon="5.8022">
        <ele>574.53</ele>
        <time>2012-10-09T07:41:15Z</time>
      </trkpt>
      <trkpt lat="45.45365" lon="5.80161">
        <ele>569.72</ele>
        <time>2012-10-09T07:41:25Z</time>
      </trkpt>
      <trkpt lat="45.45309" lon="5.8005">
        <ele>566.35</ele>
        <time>2012-10-09T07:41:36Z</time>
      </trkpt>
      <trkpt lat="45.45301" lon="5.79923">
        <ele>564.43</ele>
        <time>2012-10-09T07:41:47Z</time>
      </trkpt>
      <trkpt lat="45.45343" lon="5.79801">
        <ele>561.07</ele>
        <time>2012-10-09T07:41:59Z</time>
      </trkpt>
      <trkpt lat="45.45411" lon="5.79712">
        <ele>558.18</ele>
        <time>2012-10-09T07:42:11Z</time>
      </trkpt>
      <trkpt lat="45.45441" lon="5.79584">
        <ele>555.78</ele>
        <time>2012-10-09T07:42:24Z</time>
      </trkpt>
      <trkpt lat="45.45412" lon="5.79449">
        <ele>551.93</ele>
        <time>2012-10-09T07:42:37Z</time>
      </trkpt>
      <trkpt lat="45.45368" lon="5.79333">
        <ele>548.09</ele>
        <time>2012-10-09T07:42:48Z</time>
      </trkpt>
      <trkpt lat="45.45358" lon="5.79203">
        <ele>543.76</ele>
        <time>2012-10-09T07:42:59Z</time>
      </trkpt>
      <trkpt lat="45.45355" lon="5.79129">
        <ele>538.96</ele>
        <time>2012-10-09T07:43:12Z</time>
      </trkpt>
      <trkpt lat="45.45355" lon="5.79121">
        <ele>530.79</ele>
        <time>2012-10-09T07:43:26Z</time>
      </trkpt>
      <trkpt lat="45.45355" lon="5.79124">
        <ele>526.94</ele>
        <time>2012-10-09T07:43:35Z</time>
      </trkpt>
      <trkpt lat="45.45483" lon="5.78787">
        <ele>523.09</ele>
        <time>2012-10-09T07:43:48Z</time>
      </trkpt>
      <trkpt lat="45.45573" lon="5.78726">
        <ele>517.81</ele>
        <time>2012-10-09T07:43:59Z</time>
      </trkpt>
      <trkpt lat="45.45667" lon="5.78671">
        <ele>511.56</ele>
        <time>2012-10-09T07:44:09Z</time>
      </trkpt>
      <trkpt lat="45.45694" lon="5.78559">
        <ele>508.19</ele>
        <time>2012-10-09T07:44:18Z</time>
      </trkpt>
      <trkpt lat="45.45651" lon="5.7844">
        <ele>502.91</ele>
        <time>2012-10-09T07:44:28Z</time>
      </trkpt>
      <trkpt lat="45.45617" lon="5.78313">
        <ele>497.14</ele>
        <time>2012-10-09T07:44:38Z</time>
      </trkpt>
      <trkpt lat="45.45587" lon="5.78181">
        <ele>492.33</ele>
        <time>2012-10-09T07:44:48Z</time>
      </trkpt>
      <trkpt lat="45.45556" lon="5.78049">
        <ele>486.08</ele>
        <time>2012-10-09T07:44:58Z</time>
      </trkpt>
      <trkpt lat="45.45539" lon="5.77912">
        <ele>481.28</ele>
        <time>2012-10-09T07:45:08Z</time>
      </trkpt>
      <trkpt lat="45.45534" lon="5.77773">
        <ele>475.99</ele>
        <time>2012-10-09T07:45:18Z</time>
      </trkpt>
      <trkpt lat="45.45502" lon="5.77653">
        <ele>471.18</ele>
        <time>2012-10-09T07:45:27Z</time>
      </trkpt>
      <trkpt lat="45.45524" lon="5.7752">
        <ele>465.9</ele>
        <time>2012-10-09T07:45:37Z</time>
      </trkpt>
      <trkpt lat="45.45547" lon="5.77397">
        <ele>461.09</ele>
        <time>2012-10-09T07:45:47Z</time>
      </trkpt>
      <trkpt lat="45.45511" lon="5.77277">
        <ele>455.8</ele>
        <time>2012-10-09T07:45:57Z</time>
      </trkpt>
      <trkpt lat="45.45466" lon="5.77154">
        <ele>450.52</ele>
        <time>2012-10-09T07:46:07Z</time>
      </trkpt>
      <trkpt lat="45.45406" lon="5.77057">
        <ele>446.19</ele>
        <time>2012-10-09T07:46:16Z</time>
      </trkpt>
      <trkpt lat="45.45332" lon="5.76982">
        <ele>442.34</ele>
        <time>2012-10-09T07:46:25Z</time>
      </trkpt>
      <trkpt lat="45.45252" lon="5.76897">
        <ele>438.02</ele>
        <time>2012-10-09T07:46:35Z</time>
      </trkpt>
      <trkpt lat="45.45174" lon="5.76816">
        <ele>434.17</ele>
        <time>2012-10-09T07:46:45Z</time>
      </trkpt>
      <trkpt lat="45.45097" lon="5.76736">
        <ele>432.25</ele>
        <time>2012-10-09T07:46:56Z</time>
      </trkpt>
      <trkpt lat="45.45018" lon="5.76663">
        <ele>431.29</ele>
        <time>2012-10-09T07:47:08Z</time>
      </trkpt>
      <trkpt lat="45.44938" lon="5.76599">
        <ele>427.92</ele>
        <time>2012-10-09T07:47:19Z</time>
      </trkpt>
      <trkpt lat="45.44855" lon="5.76541">
        <ele>425.04</ele>
        <time>2012-10-09T07:47:29Z</time>
      </trkpt>
      <trkpt lat="45.4477" lon="5.76479">
        <ele>422.16</ele>
        <time>2012-10-09T07:47:40Z</time>
      </trkpt>
      <trkpt lat="45.44688" lon="5.76416">
        <ele>418.79</ele>
        <time>2012-10-09T07:47:52Z</time>
      </trkpt>
      <trkpt lat="45.44604" lon="5.7637">
        <ele>414.95</ele>
        <time>2012-10-09T07:48:05Z</time>
      </trkpt>
      <trkpt lat="45.44516" lon="5.76384">
        <ele>412.06</ele>
        <time>2012-10-09T07:48:20Z</time>
      </trkpt>
      <trkpt lat="45.44425" lon="5.76381">
        <ele>408.7</ele>
        <time>2012-10-09T07:48:32Z</time>
      </trkpt>
      <trkpt lat="45.4433" lon="5.76397">
        <ele>406.29</ele>
        <time>2012-10-09T07:48:44Z</time>
      </trkpt>
      <trkpt lat="45.44238" lon="5.7643">
        <ele>404.37</ele>
        <time>2012-10-09T07:48:56Z</time>
      </trkpt>
      <trkpt lat="45.4415" lon="5.76466">
        <ele>402.93</ele>
        <time>2012-10-09T07:49:08Z</time>
      </trkpt>
      <trkpt lat="45.44059" lon="5.765">
        <ele>401.01</ele>
        <time>2012-10-09T07:49:20Z</time>
      </trkpt>
      <trkpt lat="45.43965" lon="5.76523">
        <ele>400.53</ele>
        <time>2012-10-09T07:49:33Z</time>
      </trkpt>
      <trkpt lat="45.43874" lon="5.76534">
        <ele>400.53</ele>
        <time>2012-10-09T07:49:46Z</time>
      </trkpt>
      <trkpt lat="45.43783" lon="5.76541">
        <ele>400.05</ele>
        <time>2012-10-09T07:50:00Z</time>
      </trkpt>
      <trkpt lat="45.43688" lon="5.76549">
        <ele>401.49</ele>
        <time>2012-10-09T07:50:16Z</time>
      </trkpt>
      <trkpt lat="45.43594" lon="5.76553">
        <ele>402.93</ele>
        <time>2012-10-09T07:50:34Z</time>
      </trkpt>
      <trkpt lat="45.43503" lon="5.76553">
        <ele>404.37</ele>
        <time>2012-10-09T07:50:51Z</time>
      </trkpt>
      <trkpt lat="45.43408" lon="5.76539">
        <ele>404.85</ele>
        <time>2012-10-09T07:51:08Z</time>
      </trkpt>
      <trkpt lat="45.43318" lon="5.76515">
        <ele>405.81</ele>
        <time>2012-10-09T07:51:24Z</time>
      </trkpt>
      <trkpt lat="45.43228" lon="5.76481">
        <ele>405.81</ele>
        <time>2012-10-09T07:51:40Z</time>
      </trkpt>
      <trkpt lat="45.43142" lon="5.76436">
        <ele>404.85</ele>
        <time>2012-10-09T07:51:55Z</time>
      </trkpt>
      <trkpt lat="45.43054" lon="5.76382">
        <ele>404.37</ele>
        <time>2012-10-09T07:52:10Z</time>
      </trkpt>
      <trkpt lat="45.42971" lon="5.76323">
        <ele>402.45</ele>
        <time>2012-10-09T07:52:24Z</time>
      </trkpt>
      <trkpt lat="45.42886" lon="5.76261">
        <ele>401.01</ele>
        <time>2012-10-09T07:52:39Z</time>
      </trkpt>
      <trkpt lat="45.42803" lon="5.76198">
        <ele>400.05</ele>
        <time>2012-10-09T07:52:53Z</time>
      </trkpt>
      <trkpt lat="45.42728" lon="5.76121">
        <ele>399.08</ele>
        <time>2012-10-09T07:53:07Z</time>
      </trkpt>
      <trkpt lat="45.42663" lon="5.76029">
        <ele>399.08</ele>
        <time>2012-10-09T07:53:21Z</time>
      </trkpt>
      <trkpt lat="45.42607" lon="5.75923">
        <ele>398.6</ele>
        <time>2012-10-09T07:53:36Z</time>
      </trkpt>
      <trkpt lat="45.42558" lon="5.75812">
        <ele>398.12</ele>
        <time>2012-10-09T07:53:51Z</time>
      </trkpt>
      <trkpt lat="45.42498" lon="5.75709">
        <ele>397.16</ele>
        <time>2012-10-09T07:54:07Z</time>
      </trkpt>
      <trkpt lat="45.42441" lon="5.75624">
        <ele>396.68</ele>
        <time>2012-10-09T07:54:24Z</time>
      </trkpt>
      <trkpt lat="45.42384" lon="5.7552">
        <ele>396.2</ele>
        <time>2012-10-09T07:54:40Z</time>
      </trkpt>
      <trkpt lat="45.42308" lon="5.75442">
        <ele>395.24</ele>
        <time>2012-10-09T07:54:55Z</time>
      </trkpt>
      <trkpt lat="45.4223" lon="5.75377">
        <ele>394.28</ele>
        <time>2012-10-09T07:55:09Z</time>
      </trkpt>
      <trkpt lat="45.42147" lon="5.75325">
        <ele>395.72</ele>
        <time>2012-10-09T07:55:24Z</time>
      </trkpt>
      <trkpt lat="45.42061" lon="5.75284">
        <ele>394.76</ele>
        <time>2012-10-09T07:55:39Z</time>
      </trkpt>
      <trkpt lat="45.41969" lon="5.7524">
        <ele>395.24</ele>
        <time>2012-10-09T07:55:55Z</time>
      </trkpt>
      <trkpt lat="45.41874" lon="5.75198">
        <ele>394.76</ele>
        <time>2012-10-09T07:56:11Z</time>
      </trkpt>
      <trkpt lat="45.41785" lon="5.75155">
        <ele>394.28</ele>
        <time>2012-10-09T07:56:26Z</time>
      </trkpt>
      <trkpt lat="45.41694" lon="5.75112">
        <ele>394.28</ele>
        <time>2012-10-09T07:56:42Z</time>
      </trkpt>
      <trkpt lat="45.41604" lon="5.75069">
        <ele>394.28</ele>
        <time>2012-10-09T07:56:57Z</time>
      </trkpt>
      <trkpt lat="45.41514" lon="5.75027">
        <ele>394.76</ele>
        <time>2012-10-09T07:57:12Z</time>
      </trkpt>
      <trkpt lat="45.41427" lon="5.74994">
        <ele>394.76</ele>
        <time>2012-10-09T07:57:27Z</time>
      </trkpt>
      <trkpt lat="45.41345" lon="5.74963">
        <ele>395.72</ele>
        <time>2012-10-09T07:57:44Z</time>
      </trkpt>
      <trkpt lat="45.41264" lon="5.74907">
        <ele>396.2</ele>
        <time>2012-10-09T07:58:00Z</time>
      </trkpt>
      <trkpt lat="45.41178" lon="5.74869">
        <ele>396.2</ele>
        <time>2012-10-09T07:58:16Z</time>
      </trkpt>
      <trkpt lat="45.41086" lon="5.74827">
        <ele>397.64</ele>
        <time>2012-10-09T07:58:33Z</time>
      </trkpt>
      <trkpt lat="45.40998" lon="5.74786">
        <ele>398.12</ele>
        <time>2012-10-09T07:58:50Z</time>
      </trkpt>
      <trkpt lat="45.40914" lon="5.74747">
        <ele>399.08</ele>
        <time>2012-10-09T07:59:07Z</time>
      </trkpt>
      <trkpt lat="45.40827" lon="5.74706">
        <ele>399.57</ele>
        <time>2012-10-09T07:59:24Z</time>
      </trkpt>
      <trkpt lat="45.40739" lon="5.74665">
        <ele>400.05</ele>
        <time>2012-10-09T07:59:41Z</time>
      </trkpt>
      <trkpt lat="45.40649" lon="5.74623">
        <ele>401.01</ele>
        <time>2012-10-09T07:59:58Z</time>
      </trkpt>
      <trkpt lat="45.40563" lon="5.74582">
        <ele>401.49</ele>
        <time>2012-10-09T08:00:14Z</time>
      </trkpt>
      <trkpt lat="45.40474" lon="5.74541">
        <ele>401.97</ele>
        <time>2012-10-09T08:00:31Z</time>
      </trkpt>
      <trkpt lat="45.40389" lon="5.74502">
        <ele>402.93</ele>
        <time>2012-10-09T08:00:47Z</time>
      </trkpt>
      <trkpt lat="45.40301" lon="5.74462">
        <ele>403.41</ele>
        <time>2012-10-09T08:01:03Z</time>
      </trkpt>
      <trkpt lat="45.40214" lon="5.74421">
        <ele>403.89</ele>
        <time>2012-10-09T08:01:19Z</time>
      </trkpt>
      <trkpt lat="45.40126" lon="5.7438">
        <ele>405.33</ele>
        <time>2012-10-09T08:01:35Z</time>
      </trkpt>
      <trkpt lat="45.40037" lon="5.74339">
        <ele>406.29</ele>
        <time>2012-10-09T08:01:51Z</time>
      </trkpt>
      <trkpt lat="45.39951" lon="5.743">
        <ele>407.26</ele>
        <time>2012-10-09T08:02:07Z</time>
      </trkpt>
      <trkpt lat="45.39864" lon="5.74273">
        <ele>408.7</ele>
        <time>2012-10-09T08:02:28Z</time>
      </trkpt>
      <trkpt lat="45.3978" lon="5.74221">
        <ele>408.22</ele>
        <time>2012-10-09T08:02:47Z</time>
      </trkpt>
      <trkpt lat="45.39693" lon="5.74179">
        <ele>410.62</ele>
        <time>2012-10-09T08:03:05Z</time>
      </trkpt>
      <trkpt lat="45.39605" lon="5.74139">
        <ele>411.58</ele>
        <time>2012-10-09T08:03:23Z</time>
      </trkpt>
      <trkpt lat="45.39514" lon="5.74103">
        <ele>412.06</ele>
        <time>2012-10-09T08:03:41Z</time>
      </trkpt>
      <trkpt lat="45.39426" lon="5.74067">
        <ele>415.43</ele>
        <time>2012-10-09T08:04:02Z</time>
      </trkpt>
      <trkpt lat="45.39333" lon="5.7403">
        <ele>416.39</ele>
        <time>2012-10-09T08:04:23Z</time>
      </trkpt>
      <trkpt lat="45.39243" lon="5.74001">
        <ele>416.39</ele>
        <time>2012-10-09T08:04:40Z</time>
      </trkpt>
      <trkpt lat="45.39152" lon="5.7396">
        <ele>417.35</ele>
        <time>2012-10-09T08:04:57Z</time>
      </trkpt>
      <trkpt lat="45.3907" lon="5.73901">
        <ele>417.83</ele>
        <time>2012-10-09T08:05:14Z</time>
      </trkpt>
      <trkpt lat="45.3899" lon="5.73835">
        <ele>419.27</ele>
        <time>2012-10-09T08:05:31Z</time>
      </trkpt>
      <trkpt lat="45.38911" lon="5.73771">
        <ele>419.75</ele>
        <time>2012-10-09T08:05:49Z</time>
      </trkpt>
      <trkpt lat="45.38821" lon="5.73722">
        <ele>421.19</ele>
        <time>2012-10-09T08:06:07Z</time>
      </trkpt>
      <trkpt lat="45.38731" lon="5.73703">
        <ele>423.12</ele>
        <time>2012-10-09T08:06:27Z</time>
      </trkpt>
      <trkpt lat="45.38707" lon="5.73577">
        <ele>422.16</ele>
        <time>2012-10-09T08:07:14Z</time>
      </trkpt>
      <trkpt lat="45.38743" lon="5.7348">
        <ele>420.71</ele>
        <time>2012-10-09T08:08:58Z</time>
      </trkpt>
      <trkpt lat="45.38698" lon="5.73572">
        <ele>421.68</ele>
        <time>2012-10-09T08:10:24Z</time>
      </trkpt>
      <trkpt lat="45.38609" lon="5.73576">
        <ele>423.6</ele>
        <time>2012-10-09T08:11:14Z</time>
      </trkpt>
      <trkpt lat="45.38704" lon="5.73567">
        <ele>421.68</ele>
        <time>2012-10-09T08:11:55Z</time>
      </trkpt>
      <trkpt lat="45.38715" lon="5.73461">
        <ele>425.52</ele>
        <time>2012-10-09T08:29:01Z</time>
      </trkpt>
      <trkpt lat="45.38743" lon="5.73333">
        <ele>426</ele>
        <time>2012-10-09T08:29:28Z</time>
      </trkpt>
      <trkpt lat="45.38759" lon="5.73201">
        <ele>424.08</ele>
        <time>2012-10-09T08:29:47Z</time>
      </trkpt>
      <trkpt lat="45.38774" lon="5.73069">
        <ele>422.16</ele>
        <time>2012-10-09T08:30:03Z</time>
      </trkpt>
      <trkpt lat="45.3879" lon="5.72942">
        <ele>422.16</ele>
        <time>2012-10-09T08:30:21Z</time>
      </trkpt>
      <trkpt lat="45.3881" lon="5.7281">
        <ele>422.16</ele>
        <time>2012-10-09T08:30:38Z</time>
      </trkpt>
      <trkpt lat="45.38833" lon="5.72677">
        <ele>420.71</ele>
        <time>2012-10-09T08:30:56Z</time>
      </trkpt>
      <trkpt lat="45.3885" lon="5.72544">
        <ele>419.75</ele>
        <time>2012-10-09T08:31:11Z</time>
      </trkpt>
      <trkpt lat="45.38861" lon="5.72415">
        <ele>418.31</ele>
        <time>2012-10-09T08:31:25Z</time>
      </trkpt>
      <trkpt lat="45.38856" lon="5.72284">
        <ele>417.83</ele>
        <time>2012-10-09T08:31:39Z</time>
      </trkpt>
      <trkpt lat="45.38843" lon="5.72153">
        <ele>415.91</ele>
        <time>2012-10-09T08:31:53Z</time>
      </trkpt>
      <trkpt lat="45.38815" lon="5.72022">
        <ele>415.91</ele>
        <time>2012-10-09T08:32:08Z</time>
      </trkpt>
      <trkpt lat="45.38775" lon="5.71905">
        <ele>415.43</ele>
        <time>2012-10-09T08:32:22Z</time>
      </trkpt>
      <trkpt lat="45.38724" lon="5.71794">
        <ele>412.06</ele>
        <time>2012-10-09T08:32:35Z</time>
      </trkpt>
      <trkpt lat="45.3867" lon="5.71681">
        <ele>411.58</ele>
        <time>2012-10-09T08:32:48Z</time>
      </trkpt>
      <trkpt lat="45.38616" lon="5.71573">
        <ele>411.1</ele>
        <time>2012-10-09T08:33:01Z</time>
      </trkpt>
      <trkpt lat="45.38559" lon="5.71462">
        <ele>411.1</ele>
        <time>2012-10-09T08:33:15Z</time>
      </trkpt>
      <trkpt lat="45.38508" lon="5.71357">
        <ele>411.1</ele>
        <time>2012-10-09T08:33:29Z</time>
      </trkpt>
      <trkpt lat="45.38455" lon="5.71252">
        <ele>411.58</ele>
        <time>2012-10-09T08:33:44Z</time>
      </trkpt>
      <trkpt lat="45.38401" lon="5.71143">
        <ele>412.06</ele>
        <time>2012-10-09T08:34:01Z</time>
      </trkpt>
      <trkpt lat="45.38347" lon="5.71033">
        <ele>412.06</ele>
        <time>2012-10-09T08:34:17Z</time>
      </trkpt>
      <trkpt lat="45.38293" lon="5.70923">
        <ele>411.58</ele>
        <time>2012-10-09T08:34:33Z</time>
      </trkpt>
      <trkpt lat="45.3824" lon="5.70816">
        <ele>412.06</ele>
        <time>2012-10-09T08:34:48Z</time>
      </trkpt>
      <trkpt lat="45.38173" lon="5.70732">
        <ele>411.58</ele>
        <time>2012-10-09T08:35:04Z</time>
      </trkpt>
      <trkpt lat="45.38104" lon="5.7064">
        <ele>412.06</ele>
        <time>2012-10-09T08:35:21Z</time>
      </trkpt>
      <trkpt lat="45.38056" lon="5.70535">
        <ele>412.54</ele>
        <time>2012-10-09T08:35:37Z</time>
      </trkpt>
      <trkpt lat="45.38004" lon="5.70426">
        <ele>413.02</ele>
        <time>2012-10-09T08:35:55Z</time>
      </trkpt>
      <trkpt lat="45.3796" lon="5.70308">
        <ele>413.98</ele>
        <time>2012-10-09T08:36:15Z</time>
      </trkpt>
      <trkpt lat="45.37931" lon="5.70185">
        <ele>416.87</ele>
        <time>2012-10-09T08:36:35Z</time>
      </trkpt>
      <trkpt lat="45.37878" lon="5.70081">
        <ele>417.35</ele>
        <time>2012-10-09T08:36:55Z</time>
      </trkpt>
      <trkpt lat="45.37818" lon="5.6998">
        <ele>419.27</ele>
        <time>2012-10-09T08:37:16Z</time>
      </trkpt>
      <trkpt lat="45.37761" lon="5.6988">
        <ele>421.68</ele>
        <time>2012-10-09T08:37:38Z</time>
      </trkpt>
      <trkpt lat="45.37689" lon="5.69799">
        <ele>424.08</ele>
        <time>2012-10-09T08:38:00Z</time>
      </trkpt>
      <trkpt lat="45.37613" lon="5.69761">
        <ele>424.56</ele>
        <time>2012-10-09T08:39:33Z</time>
      </trkpt>
      <trkpt lat="45.37515" lon="5.69707">
        <ele>423.12</ele>
        <time>2012-10-09T08:40:15Z</time>
      </trkpt>
      <trkpt lat="45.3742" lon="5.69676">
        <ele>421.68</ele>
        <time>2012-10-09T08:40:34Z</time>
      </trkpt>
      <trkpt lat="45.37346" lon="5.69594">
        <ele>420.23</ele>
        <time>2012-10-09T08:40:51Z</time>
      </trkpt>
      <trkpt lat="45.37288" lon="5.69492">
        <ele>419.27</ele>
        <time>2012-10-09T08:41:06Z</time>
      </trkpt>
      <trkpt lat="45.37232" lon="5.69389">
        <ele>418.31</ele>
        <time>2012-10-09T08:41:21Z</time>
      </trkpt>
      <trkpt lat="45.3719" lon="5.69268">
        <ele>416.87</ele>
        <time>2012-10-09T08:41:36Z</time>
      </trkpt>
      <trkpt lat="45.37177" lon="5.69133">
        <ele>417.83</ele>
        <time>2012-10-09T08:41:51Z</time>
      </trkpt>
      <trkpt lat="45.37162" lon="5.69004">
        <ele>418.31</ele>
        <time>2012-10-09T08:42:09Z</time>
      </trkpt>
      <trkpt lat="45.37113" lon="5.68895">
        <ele>420.71</ele>
        <time>2012-10-09T08:42:30Z</time>
      </trkpt>
      <trkpt lat="45.37051" lon="5.68799">
        <ele>423.12</ele>
        <time>2012-10-09T08:42:53Z</time>
      </trkpt>
      <trkpt lat="45.36977" lon="5.68725">
        <ele>426</ele>
        <time>2012-10-09T08:43:16Z</time>
      </trkpt>
      <trkpt lat="45.36899" lon="5.68663">
        <ele>428.4</ele>
        <time>2012-10-09T08:43:39Z</time>
      </trkpt>
      <trkpt lat="45.36819" lon="5.68599">
        <ele>430.33</ele>
        <time>2012-10-09T08:44:03Z</time>
      </trkpt>
      <trkpt lat="45.36732" lon="5.68553">
        <ele>433.69</ele>
        <time>2012-10-09T08:44:28Z</time>
      </trkpt>
      <trkpt lat="45.36653" lon="5.68482">
        <ele>436.58</ele>
        <time>2012-10-09T08:44:52Z</time>
      </trkpt>
      <trkpt lat="45.36578" lon="5.68402">
        <ele>438.5</ele>
        <time>2012-10-09T08:45:16Z</time>
      </trkpt>
      <trkpt lat="45.36505" lon="5.68324">
        <ele>441.38</ele>
        <time>2012-10-09T08:45:39Z</time>
      </trkpt>
      <trkpt lat="45.36429" lon="5.68244">
        <ele>443.31</ele>
        <time>2012-10-09T08:46:02Z</time>
      </trkpt>
      <trkpt lat="45.36356" lon="5.68163">
        <ele>445.71</ele>
        <time>2012-10-09T08:46:24Z</time>
      </trkpt>
      <trkpt lat="45.36305" lon="5.6805">
        <ele>447.63</ele>
        <time>2012-10-09T08:46:46Z</time>
      </trkpt>
      <trkpt lat="45.36292" lon="5.67922">
        <ele>449.07</ele>
        <time>2012-10-09T08:47:09Z</time>
      </trkpt>
      <trkpt lat="45.36326" lon="5.67798">
        <ele>447.63</ele>
        <time>2012-10-09T08:47:27Z</time>
      </trkpt>
      <trkpt lat="45.36361" lon="5.67677">
        <ele>447.63</ele>
        <time>2012-10-09T08:47:43Z</time>
      </trkpt>
      <trkpt lat="45.36327" lon="5.67571">
        <ele>453.4</ele>
        <time>2012-10-09T08:48:12Z</time>
      </trkpt>
      <trkpt lat="45.3624" lon="5.67495">
        <ele>461.57</ele>
        <time>2012-10-09T08:48:58Z</time>
      </trkpt>
      <trkpt lat="45.36159" lon="5.67428">
        <ele>470.7</ele>
        <time>2012-10-09T08:49:43Z</time>
      </trkpt>
      <trkpt lat="45.36086" lon="5.67343">
        <ele>477.91</ele>
        <time>2012-10-09T08:50:29Z</time>
      </trkpt>
      <trkpt lat="45.3607" lon="5.67243">
        <ele>483.68</ele>
        <time>2012-10-09T08:51:18Z</time>
      </trkpt>
      <trkpt lat="45.36097" lon="5.67364">
        <ele>477.43</ele>
        <time>2012-10-09T08:51:39Z</time>
      </trkpt>
      <trkpt lat="45.36166" lon="5.67447">
        <ele>471.18</ele>
        <time>2012-10-09T08:51:49Z</time>
      </trkpt>
      <trkpt lat="45.36246" lon="5.67507">
        <ele>463.01</ele>
        <time>2012-10-09T08:51:59Z</time>
      </trkpt>
      <trkpt lat="45.36323" lon="5.67575">
        <ele>455.8</ele>
        <time>2012-10-09T08:52:08Z</time>
      </trkpt>
      <trkpt lat="45.36368" lon="5.67677">
        <ele>449.07</ele>
        <time>2012-10-09T08:52:17Z</time>
      </trkpt>
      <trkpt lat="45.36325" lon="5.67795">
        <ele>447.63</ele>
        <time>2012-10-09T08:52:27Z</time>
      </trkpt>
      <trkpt lat="45.36288" lon="5.67907">
        <ele>449.07</ele>
        <time>2012-10-09T08:52:43Z</time>
      </trkpt>
      <trkpt lat="45.36207" lon="5.67836">
        <ele>451.48</ele>
        <time>2012-10-09T08:53:08Z</time>
      </trkpt>
      <trkpt lat="45.36135" lon="5.67756">
        <ele>452.92</ele>
        <time>2012-10-09T08:53:31Z</time>
      </trkpt>
      <trkpt lat="45.36057" lon="5.67678">
        <ele>456.28</ele>
        <time>2012-10-09T08:53:56Z</time>
      </trkpt>
      <trkpt lat="45.35972" lon="5.67628">
        <ele>457.72</ele>
        <time>2012-10-09T08:54:19Z</time>
      </trkpt>
      <trkpt lat="45.35888" lon="5.6757">
        <ele>460.13</ele>
        <time>2012-10-09T08:54:43Z</time>
      </trkpt>
      <trkpt lat="45.35801" lon="5.67528">
        <ele>463.97</ele>
        <time>2012-10-09T08:55:11Z</time>
      </trkpt>
      <trkpt lat="45.35722" lon="5.67458">
        <ele>468.3</ele>
        <time>2012-10-09T08:55:45Z</time>
      </trkpt>
      <trkpt lat="45.35642" lon="5.67384">
        <ele>471.66</ele>
        <time>2012-10-09T08:56:18Z</time>
      </trkpt>
      <trkpt lat="45.35559" lon="5.67324">
        <ele>475.51</ele>
        <time>2012-10-09T08:56:48Z</time>
      </trkpt>
      <trkpt lat="45.35473" lon="5.67258">
        <ele>479.84</ele>
        <time>2012-10-09T08:57:19Z</time>
      </trkpt>
      <trkpt lat="45.35385" lon="5.67221">
        <ele>483.2</ele>
        <time>2012-10-09T08:57:48Z</time>
      </trkpt>
      <trkpt lat="45.35294" lon="5.67208">
        <ele>485.6</ele>
        <time>2012-10-09T08:58:15Z</time>
      </trkpt>
      <trkpt lat="45.35204" lon="5.67168">
        <ele>487.53</ele>
        <time>2012-10-09T08:58:38Z</time>
      </trkpt>
      <trkpt lat="45.35125" lon="5.67097">
        <ele>492.81</ele>
        <time>2012-10-09T08:59:09Z</time>
      </trkpt>
      <trkpt lat="45.35056" lon="5.67012">
        <ele>496.66</ele>
        <time>2012-10-09T08:59:40Z</time>
      </trkpt>
      <trkpt lat="45.35001" lon="5.66908">
        <ele>501.46</ele>
        <time>2012-10-09T09:00:13Z</time>
      </trkpt>
      <trkpt lat="45.34915" lon="5.66852">
        <ele>505.79</ele>
        <time>2012-10-09T09:00:47Z</time>
      </trkpt>
      <trkpt lat="45.34816" lon="5.66825">
        <ele>509.16</ele>
        <time>2012-10-09T09:01:23Z</time>
      </trkpt>
      <trkpt lat="45.34717" lon="5.66794">
        <ele>511.56</ele>
        <time>2012-10-09T09:01:48Z</time>
      </trkpt>
      <trkpt lat="45.34626" lon="5.66765">
        <ele>513</ele>
        <time>2012-10-09T09:02:11Z</time>
      </trkpt>
      <trkpt lat="45.34531" lon="5.66743">
        <ele>518.29</ele>
        <time>2012-10-09T09:02:41Z</time>
      </trkpt>
      <trkpt lat="45.34436" lon="5.66682">
        <ele>523.58</ele>
        <time>2012-10-09T09:03:14Z</time>
      </trkpt>
      <trkpt lat="45.34336" lon="5.66626">
        <ele>530.3</ele>
        <time>2012-10-09T09:03:47Z</time>
      </trkpt>
      <trkpt lat="45.34256" lon="5.66537">
        <ele>535.11</ele>
        <time>2012-10-09T09:04:16Z</time>
      </trkpt>
      <trkpt lat="45.34171" lon="5.66474">
        <ele>539.92</ele>
        <time>2012-10-09T09:04:44Z</time>
      </trkpt>
      <trkpt lat="45.34087" lon="5.66401">
        <ele>545.2</ele>
        <time>2012-10-09T09:05:14Z</time>
      </trkpt>
      <trkpt lat="45.33999" lon="5.66343">
        <ele>549.05</ele>
        <time>2012-10-09T09:05:44Z</time>
      </trkpt>
      <trkpt lat="45.33924" lon="5.66256">
        <ele>553.86</ele>
        <time>2012-10-09T09:06:16Z</time>
      </trkpt>
      <trkpt lat="45.33846" lon="5.66188">
        <ele>558.66</ele>
        <time>2012-10-09T09:06:47Z</time>
      </trkpt>
      <trkpt lat="45.33759" lon="5.66154">
        <ele>562.99</ele>
        <time>2012-10-09T09:07:17Z</time>
      </trkpt>
      <trkpt lat="45.33701" lon="5.66054">
        <ele>567.8</ele>
        <time>2012-10-09T09:07:47Z</time>
      </trkpt>
      <trkpt lat="45.33625" lon="5.65972">
        <ele>571.64</ele>
        <time>2012-10-09T09:08:18Z</time>
      </trkpt>
      <trkpt lat="45.3352" lon="5.65933">
        <ele>576.45</ele>
        <time>2012-10-09T09:08:52Z</time>
      </trkpt>
      <trkpt lat="45.33417" lon="5.65914">
        <ele>580.29</ele>
        <time>2012-10-09T09:09:22Z</time>
      </trkpt>
      <trkpt lat="45.33325" lon="5.65905">
        <ele>584.62</ele>
        <time>2012-10-09T09:09:51Z</time>
      </trkpt>
      <trkpt lat="45.33236" lon="5.65869">
        <ele>587.98</ele>
        <time>2012-10-09T09:10:19Z</time>
      </trkpt>
      <trkpt lat="45.33147" lon="5.65842">
        <ele>591.83</ele>
        <time>2012-10-09T09:10:46Z</time>
      </trkpt>
      <trkpt lat="45.33053" lon="5.6582">
        <ele>591.83</ele>
        <time>2012-10-09T09:11:07Z</time>
      </trkpt>
      <trkpt lat="45.32959" lon="5.65829">
        <ele>592.31</ele>
        <time>2012-10-09T09:12:33Z</time>
      </trkpt>
      <trkpt lat="45.32886" lon="5.65757">
        <ele>587.02</ele>
        <time>2012-10-09T09:12:49Z</time>
      </trkpt>
      <trkpt lat="45.32806" lon="5.65701">
        <ele>580.29</ele>
        <time>2012-10-09T09:13:21Z</time>
      </trkpt>
      <trkpt lat="45.32709" lon="5.65677">
        <ele>573.56</ele>
        <time>2012-10-09T09:13:33Z</time>
      </trkpt>
      <trkpt lat="45.32616" lon="5.65655">
        <ele>566.35</ele>
        <time>2012-10-09T09:13:42Z</time>
      </trkpt>
      <trkpt lat="45.3253" lon="5.65609">
        <ele>559.14</ele>
        <time>2012-10-09T09:13:50Z</time>
      </trkpt>
      <trkpt lat="45.32444" lon="5.65555">
        <ele>550.97</ele>
        <time>2012-10-09T09:13:58Z</time>
      </trkpt>
      <trkpt lat="45.32362" lon="5.65498">
        <ele>543.76</ele>
        <time>2012-10-09T09:14:06Z</time>
      </trkpt>
      <trkpt lat="45.32287" lon="5.65426">
        <ele>537.99</ele>
        <time>2012-10-09T09:14:14Z</time>
      </trkpt>
      <trkpt lat="45.32198" lon="5.65384">
        <ele>531.27</ele>
        <time>2012-10-09T09:14:22Z</time>
      </trkpt>
      <trkpt lat="45.32102" lon="5.65365">
        <ele>523.09</ele>
        <time>2012-10-09T09:14:30Z</time>
      </trkpt>
      <trkpt lat="45.32005" lon="5.6533">
        <ele>515.88</ele>
        <time>2012-10-09T09:14:38Z</time>
      </trkpt>
      <trkpt lat="45.31908" lon="5.65292">
        <ele>510.6</ele>
        <time>2012-10-09T09:14:47Z</time>
      </trkpt>
      <trkpt lat="45.31816" lon="5.65269">
        <ele>506.75</ele>
        <time>2012-10-09T09:14:57Z</time>
      </trkpt>
      <trkpt lat="45.3173" lon="5.65213">
        <ele>504.83</ele>
        <time>2012-10-09T09:15:09Z</time>
      </trkpt>
      <trkpt lat="45.31642" lon="5.65153">
        <ele>501.95</ele>
        <time>2012-10-09T09:15:21Z</time>
      </trkpt>
      <trkpt lat="45.31558" lon="5.65103">
        <ele>498.1</ele>
        <time>2012-10-09T09:15:31Z</time>
      </trkpt>
      <trkpt lat="45.3147" lon="5.65041">
        <ele>494.74</ele>
        <time>2012-10-09T09:15:42Z</time>
      </trkpt>
      <trkpt lat="45.31399" lon="5.64961">
        <ele>492.81</ele>
        <time>2012-10-09T09:15:54Z</time>
      </trkpt>
      <trkpt lat="45.31342" lon="5.64854">
        <ele>490.89</ele>
        <time>2012-10-09T09:16:07Z</time>
      </trkpt>
      <trkpt lat="45.31259" lon="5.64814">
        <ele>490.41</ele>
        <time>2012-10-09T09:16:22Z</time>
      </trkpt>
      <trkpt lat="45.31175" lon="5.64752">
        <ele>487.05</ele>
        <time>2012-10-09T09:16:37Z</time>
      </trkpt>
      <trkpt lat="45.31112" lon="5.6465">
        <ele>481.76</ele>
        <time>2012-10-09T09:16:49Z</time>
      </trkpt>
      <trkpt lat="45.31058" lon="5.64544">
        <ele>476.95</ele>
        <time>2012-10-09T09:16:59Z</time>
      </trkpt>
      <trkpt lat="45.31019" lon="5.64415">
        <ele>467.34</ele>
        <time>2012-10-09T09:17:09Z</time>
      </trkpt>
      <trkpt lat="45.30947" lon="5.64333">
        <ele>459.17</ele>
        <time>2012-10-09T09:17:18Z</time>
      </trkpt>
      <trkpt lat="45.30913" lon="5.64223">
        <ele>449.55</ele>
        <time>2012-10-09T09:17:27Z</time>
      </trkpt>
      <trkpt lat="45.30984" lon="5.64121">
        <ele>441.38</ele>
        <time>2012-10-09T09:17:36Z</time>
      </trkpt>
      <trkpt lat="45.30977" lon="5.6399">
        <ele>431.77</ele>
        <time>2012-10-09T09:17:48Z</time>
      </trkpt>
      <trkpt lat="45.30878" lon="5.63882">
        <ele>422.16</ele>
        <time>2012-10-09T09:17:57Z</time>
      </trkpt>
      <trkpt lat="45.30789" lon="5.63777">
        <ele>413.02</ele>
        <time>2012-10-09T09:18:05Z</time>
      </trkpt>
      <trkpt lat="45.30709" lon="5.63717">
        <ele>406.29</ele>
        <time>2012-10-09T09:18:13Z</time>
      </trkpt>
      <trkpt lat="45.3063" lon="5.63654">
        <ele>394.76</ele>
        <time>2012-10-09T09:18:23Z</time>
      </trkpt>
      <trkpt lat="45.30536" lon="5.63618">
        <ele>387.07</ele>
        <time>2012-10-09T09:18:33Z</time>
      </trkpt>
      <trkpt lat="45.30443" lon="5.63606">
        <ele>377.94</ele>
        <time>2012-10-09T09:18:42Z</time>
      </trkpt>
      <trkpt lat="45.30366" lon="5.63546">
        <ele>368.32</ele>
        <time>2012-10-09T09:18:51Z</time>
      </trkpt>
      <trkpt lat="45.30279" lon="5.63543">
        <ele>362.07</ele>
        <time>2012-10-09T09:18:59Z</time>
      </trkpt>
      <trkpt lat="45.30187" lon="5.63524">
        <ele>351.98</ele>
        <time>2012-10-09T09:19:07Z</time>
      </trkpt>
      <trkpt lat="45.30099" lon="5.6349">
        <ele>343.81</ele>
        <time>2012-10-09T09:19:16Z</time>
      </trkpt>
      <trkpt lat="45.30104" lon="5.6352">
        <ele>340.92</ele>
        <time>2012-10-09T09:19:32Z</time>
      </trkpt>
      <trkpt lat="45.30198" lon="5.63604">
        <ele>336.12</ele>
        <time>2012-10-09T09:19:46Z</time>
      </trkpt>
      <trkpt lat="45.30277" lon="5.63665">
        <ele>326.99</ele>
        <time>2012-10-09T09:19:57Z</time>
      </trkpt>
      <trkpt lat="45.30318" lon="5.63791">
        <ele>321.22</ele>
        <time>2012-10-09T09:20:07Z</time>
      </trkpt>
      <trkpt lat="45.30362" lon="5.63889">
        <ele>313.05</ele>
        <time>2012-10-09T09:20:18Z</time>
      </trkpt>
      <trkpt lat="45.30291" lon="5.63878">
        <ele>304.39</ele>
        <time>2012-10-09T09:20:31Z</time>
      </trkpt>
      <trkpt lat="45.30197" lon="5.63833">
        <ele>298.15</ele>
        <time>2012-10-09T09:20:41Z</time>
      </trkpt>
      <trkpt lat="45.301" lon="5.63812">
        <ele>290.94</ele>
        <time>2012-10-09T09:20:50Z</time>
      </trkpt>
      <trkpt lat="45.30006" lon="5.63798">
        <ele>280.84</ele>
        <time>2012-10-09T09:21:00Z</time>
      </trkpt>
      <trkpt lat="45.29913" lon="5.63807">
        <ele>275.07</ele>
        <time>2012-10-09T09:21:11Z</time>
      </trkpt>
      <trkpt lat="45.29844" lon="5.63724">
        <ele>267.86</ele>
        <time>2012-10-09T09:21:25Z</time>
      </trkpt>
      <trkpt lat="45.29803" lon="5.63609">
        <ele>263.06</ele>
        <time>2012-10-09T09:21:49Z</time>
      </trkpt>
      <trkpt lat="45.29827" lon="5.63481">
        <ele>256.81</ele>
        <time>2012-10-09T09:22:19Z</time>
      </trkpt>
      <trkpt lat="45.2985" lon="5.63352">
        <ele>249.6</ele>
        <time>2012-10-09T09:22:31Z</time>
      </trkpt>
      <trkpt lat="45.29883" lon="5.63225">
        <ele>242.39</ele>
        <time>2012-10-09T09:22:43Z</time>
      </trkpt>
      <trkpt lat="45.29925" lon="5.63159">
        <ele>237.1</ele>
        <time>2012-10-09T09:23:05Z</time>
      </trkpt>
      <trkpt lat="45.29878" lon="5.63171">
        <ele>240.47</ele>
        <time>2012-10-09T09:23:36Z</time>
      </trkpt>
      <trkpt lat="45.29885" lon="5.6304">
        <ele>234.22</ele>
        <time>2012-10-09T09:23:50Z</time>
      </trkpt>
      <trkpt lat="45.29881" lon="5.62903">
        <ele>229.41</ele>
        <time>2012-10-09T09:24:03Z</time>
      </trkpt>
      <trkpt lat="45.29839" lon="5.6282">
        <ele>226.05</ele>
        <time>2012-10-09T09:25:00Z</time>
      </trkpt>
      <trkpt lat="45.29751" lon="5.6285">
        <ele>227.97</ele>
        <time>2012-10-09T09:25:21Z</time>
      </trkpt>
      <trkpt lat="45.29662" lon="5.62873">
        <ele>229.89</ele>
        <time>2012-10-09T09:25:42Z</time>
      </trkpt>
      <trkpt lat="45.29573" lon="5.62841">
        <ele>230.85</ele>
        <time>2012-10-09T09:26:09Z</time>
      </trkpt>
      <trkpt lat="45.29505" lon="5.62755">
        <ele>229.41</ele>
        <time>2012-10-09T09:26:53Z</time>
      </trkpt>
      <trkpt lat="45.2947" lon="5.62661">
        <ele>224.61</ele>
        <time>2012-10-09T09:27:40Z</time>
      </trkpt>
      <trkpt lat="45.2946" lon="5.62525">
        <ele>221.24</ele>
        <time>2012-10-09T09:28:38Z</time>
      </trkpt>
      <trkpt lat="45.29451" lon="5.62392">
        <ele>219.32</ele>
        <time>2012-10-09T09:28:53Z</time>
      </trkpt>
      <trkpt lat="45.29442" lon="5.62258">
        <ele>216.43</ele>
        <time>2012-10-09T09:29:07Z</time>
      </trkpt>
      <trkpt lat="45.2946" lon="5.6213">
        <ele>208.74</ele>
        <time>2012-10-09T09:29:20Z</time>
      </trkpt>
      <trkpt lat="45.29494" lon="5.6201">
        <ele>206.82</ele>
        <time>2012-10-09T09:29:34Z</time>
      </trkpt>
      <trkpt lat="45.29553" lon="5.61916">
        <ele>210.19</ele>
        <time>2012-10-09T09:29:53Z</time>
      </trkpt>
      <trkpt lat="45.29628" lon="5.61816">
        <ele>210.67</ele>
        <time>2012-10-09T09:30:29Z</time>
      </trkpt>
      <trkpt lat="45.29582" lon="5.61769">
        <ele>210.19</ele>
        <time>2012-10-09T09:30:59Z</time>
      </trkpt>
      <trkpt lat="45.29481" lon="5.61786">
        <ele>211.63</ele>
        <time>2012-10-09T09:31:20Z</time>
      </trkpt>
      <trkpt lat="45.29393" lon="5.61768">
        <ele>210.19</ele>
        <time>2012-10-09T09:31:46Z</time>
      </trkpt>
      <trkpt lat="45.29296" lon="5.61777">
        <ele>211.15</ele>
        <time>2012-10-09T09:32:09Z</time>
      </trkpt>
      <trkpt lat="45.29201" lon="5.61807">
        <ele>211.15</ele>
        <time>2012-10-09T09:32:26Z</time>
      </trkpt>
      <trkpt lat="45.29106" lon="5.61824">
        <ele>211.63</ele>
        <time>2012-10-09T09:32:42Z</time>
      </trkpt>
      <trkpt lat="45.29013" lon="5.61841">
        <ele>212.11</ele>
        <time>2012-10-09T09:32:58Z</time>
      </trkpt>
      <trkpt lat="45.2892" lon="5.61867">
        <ele>212.11</ele>
        <time>2012-10-09T09:33:14Z</time>
      </trkpt>
      <trkpt lat="45.28826" lon="5.61887">
        <ele>213.07</ele>
        <time>2012-10-09T09:33:30Z</time>
      </trkpt>
      <trkpt lat="45.28731" lon="5.61908">
        <ele>212.59</ele>
        <time>2012-10-09T09:33:45Z</time>
      </trkpt>
      <trkpt lat="45.28636" lon="5.6193">
        <ele>212.11</ele>
        <time>2012-10-09T09:34:00Z</time>
      </trkpt>
      <trkpt lat="45.28544" lon="5.61957">
        <ele>212.11</ele>
        <time>2012-10-09T09:34:15Z</time>
      </trkpt>
      <trkpt lat="45.28453" lon="5.61973">
        <ele>212.11</ele>
        <time>2012-10-09T09:34:30Z</time>
      </trkpt>
      <trkpt lat="45.28357" lon="5.61993">
        <ele>212.11</ele>
        <time>2012-10-09T09:34:46Z</time>
      </trkpt>
      <trkpt lat="45.28257" lon="5.62015">
        <ele>212.11</ele>
        <time>2012-10-09T09:35:03Z</time>
      </trkpt>
      <trkpt lat="45.28164" lon="5.62036">
        <ele>211.63</ele>
        <time>2012-10-09T09:35:19Z</time>
      </trkpt>
      <trkpt lat="45.28072" lon="5.62052">
        <ele>211.63</ele>
        <time>2012-10-09T09:35:35Z</time>
      </trkpt>
      <trkpt lat="45.27978" lon="5.62058">
        <ele>212.11</ele>
        <time>2012-10-09T09:35:51Z</time>
      </trkpt>
      <trkpt lat="45.27881" lon="5.62061">
        <ele>212.11</ele>
        <time>2012-10-09T09:36:08Z</time>
      </trkpt>
      <trkpt lat="45.27783" lon="5.62071">
        <ele>212.11</ele>
        <time>2012-10-09T09:36:25Z</time>
      </trkpt>
      <trkpt lat="45.27687" lon="5.62092">
        <ele>211.15</ele>
        <time>2012-10-09T09:36:42Z</time>
      </trkpt>
      <trkpt lat="45.27592" lon="5.62123">
        <ele>211.15</ele>
        <time>2012-10-09T09:37:00Z</time>
      </trkpt>
      <trkpt lat="45.27493" lon="5.62123">
        <ele>211.15</ele>
        <time>2012-10-09T09:37:19Z</time>
      </trkpt>
      <trkpt lat="45.274" lon="5.62139">
        <ele>211.63</ele>
        <time>2012-10-09T09:37:36Z</time>
      </trkpt>
      <trkpt lat="45.27307" lon="5.62167">
        <ele>210.67</ele>
        <time>2012-10-09T09:37:54Z</time>
      </trkpt>
      <trkpt lat="45.27244" lon="5.62212">
        <ele>210.19</ele>
        <time>2012-10-09T09:39:53Z</time>
      </trkpt>
      <trkpt lat="45.27344" lon="5.62154">
        <ele>210.19</ele>
        <time>2012-10-09T09:40:22Z</time>
      </trkpt>
      <trkpt lat="45.27445" lon="5.62135">
        <ele>210.19</ele>
        <time>2012-10-09T09:40:42Z</time>
      </trkpt>
      <trkpt lat="45.27538" lon="5.62141">
        <ele>210.19</ele>
        <time>2012-10-09T09:40:59Z</time>
      </trkpt>
      <trkpt lat="45.27635" lon="5.62116">
        <ele>210.19</ele>
        <time>2012-10-09T09:41:18Z</time>
      </trkpt>
      <trkpt lat="45.27742" lon="5.62091">
        <ele>209.7</ele>
        <time>2012-10-09T09:41:37Z</time>
      </trkpt>
      <trkpt lat="45.27856" lon="5.62068">
        <ele>208.74</ele>
        <time>2012-10-09T09:41:56Z</time>
      </trkpt>
      <trkpt lat="45.27957" lon="5.62067">
        <ele>209.22</ele>
        <time>2012-10-09T09:42:13Z</time>
      </trkpt>
      <trkpt lat="45.28057" lon="5.62064">
        <ele>209.22</ele>
        <time>2012-10-09T09:42:29Z</time>
      </trkpt>
      <trkpt lat="45.28155" lon="5.62048">
        <ele>208.74</ele>
        <time>2012-10-09T09:42:45Z</time>
      </trkpt>
      <trkpt lat="45.28253" lon="5.62028">
        <ele>208.26</ele>
        <time>2012-10-09T09:43:01Z</time>
      </trkpt>
      <trkpt lat="45.28348" lon="5.62009">
        <ele>207.3</ele>
        <time>2012-10-09T09:43:17Z</time>
      </trkpt>
      <trkpt lat="45.28446" lon="5.61989">
        <ele>206.82</ele>
        <time>2012-10-09T09:43:33Z</time>
      </trkpt>
      <trkpt lat="45.28547" lon="5.61971">
        <ele>206.34</ele>
        <time>2012-10-09T09:43:51Z</time>
      </trkpt>
      <trkpt lat="45.28648" lon="5.6194">
        <ele>205.86</ele>
        <time>2012-10-09T09:44:10Z</time>
      </trkpt>
      <trkpt lat="45.2875" lon="5.61914">
        <ele>206.34</ele>
        <time>2012-10-09T09:44:28Z</time>
      </trkpt>
      <trkpt lat="45.28852" lon="5.61891">
        <ele>205.86</ele>
        <time>2012-10-09T09:44:47Z</time>
      </trkpt>
      <trkpt lat="45.28952" lon="5.61867">
        <ele>205.38</ele>
        <time>2012-10-09T09:45:05Z</time>
      </trkpt>
      <trkpt lat="45.29051" lon="5.61846">
        <ele>204.9</ele>
        <time>2012-10-09T09:45:23Z</time>
      </trkpt>
      <trkpt lat="45.29152" lon="5.61823">
        <ele>203.46</ele>
        <time>2012-10-09T09:45:41Z</time>
      </trkpt>
      <trkpt lat="45.29249" lon="5.61797">
        <ele>203.46</ele>
        <time>2012-10-09T09:45:58Z</time>
      </trkpt>
      <trkpt lat="45.29354" lon="5.61763">
        <ele>202.98</ele>
        <time>2012-10-09T09:46:18Z</time>
      </trkpt>
      <trkpt lat="45.29462" lon="5.61738">
        <ele>202.98</ele>
        <time>2012-10-09T09:46:43Z</time>
      </trkpt>
      <trkpt lat="45.29572" lon="5.61722">
        <ele>203.46</ele>
        <time>2012-10-09T09:47:08Z</time>
      </trkpt>
      <trkpt lat="45.29675" lon="5.61656">
        <ele>203.46</ele>
        <time>2012-10-09T09:47:30Z</time>
      </trkpt>
      <trkpt lat="45.29765" lon="5.61582">
        <ele>202.98</ele>
        <time>2012-10-09T09:47:49Z</time>
      </trkpt>
      <trkpt lat="45.29851" lon="5.61493">
        <ele>202.01</ele>
        <time>2012-10-09T09:48:07Z</time>
      </trkpt>
      <trkpt lat="45.29931" lon="5.61406">
        <ele>201.53</ele>
        <time>2012-10-09T09:48:50Z</time>
      </trkpt>
      <trkpt lat="45.29996" lon="5.61307">
        <ele>202.01</ele>
        <time>2012-10-09T09:49:10Z</time>
      </trkpt>
      <trkpt lat="45.30056" lon="5.61201">
        <ele>202.01</ele>
        <time>2012-10-09T09:49:28Z</time>
      </trkpt>
      <trkpt lat="45.30105" lon="5.61074">
        <ele>202.01</ele>
        <time>2012-10-09T09:49:46Z</time>
      </trkpt>
      <trkpt lat="45.30148" lon="5.60952">
        <ele>202.01</ele>
        <time>2012-10-09T09:50:02Z</time>
      </trkpt>
      <trkpt lat="45.30193" lon="5.60828">
        <ele>202.49</ele>
        <time>2012-10-09T09:50:19Z</time>
      </trkpt>
      <trkpt lat="45.30241" lon="5.60709">
        <ele>202.49</ele>
        <time>2012-10-09T09:50:37Z</time>
      </trkpt>
      <trkpt lat="45.30275" lon="5.60579">
        <ele>203.94</ele>
        <time>2012-10-09T09:50:54Z</time>
      </trkpt>
      <trkpt lat="45.30298" lon="5.60443">
        <ele>202.98</ele>
        <time>2012-10-09T09:51:11Z</time>
      </trkpt>
      <trkpt lat="45.30312" lon="5.60308">
        <ele>202.98</ele>
        <time>2012-10-09T09:51:27Z</time>
      </trkpt>
      <trkpt lat="45.30322" lon="5.60174">
        <ele>202.98</ele>
        <time>2012-10-09T09:51:43Z</time>
      </trkpt>
      <trkpt lat="45.30323" lon="5.60035">
        <ele>199.13</ele>
        <time>2012-10-09T09:51:59Z</time>
      </trkpt>
      <trkpt lat="45.30334" lon="5.59909">
        <ele>202.49</ele>
        <time>2012-10-09T09:52:16Z</time>
      </trkpt>
      <trkpt lat="45.30338" lon="5.59769">
        <ele>202.49</ele>
        <time>2012-10-09T09:52:34Z</time>
      </trkpt>
      <trkpt lat="45.30324" lon="5.59636">
        <ele>202.98</ele>
        <time>2012-10-09T09:52:51Z</time>
      </trkpt>
      <trkpt lat="45.30321" lon="5.59503">
        <ele>202.49</ele>
        <time>2012-10-09T09:53:08Z</time>
      </trkpt>
      <trkpt lat="45.30321" lon="5.59359">
        <ele>202.49</ele>
        <time>2012-10-09T09:53:25Z</time>
      </trkpt>
      <trkpt lat="45.30299" lon="5.59226">
        <ele>202.01</ele>
        <time>2012-10-09T09:53:41Z</time>
      </trkpt>
      <trkpt lat="45.30272" lon="5.59096">
        <ele>202.01</ele>
        <time>2012-10-09T09:53:57Z</time>
      </trkpt>
      <trkpt lat="45.30233" lon="5.58972">
        <ele>201.53</ele>
        <time>2012-10-09T09:54:13Z</time>
      </trkpt>
      <trkpt lat="45.30184" lon="5.58853">
        <ele>201.53</ele>
        <time>2012-10-09T09:54:29Z</time>
      </trkpt>
      <trkpt lat="45.30123" lon="5.58748">
        <ele>202.01</ele>
        <time>2012-10-09T09:54:46Z</time>
      </trkpt>
      <trkpt lat="45.30058" lon="5.58645">
        <ele>201.53</ele>
        <time>2012-10-09T09:55:02Z</time>
      </trkpt>
      <trkpt lat="45.29987" lon="5.58545">
        <ele>201.05</ele>
        <time>2012-10-09T09:55:20Z</time>
      </trkpt>
      <trkpt lat="45.29919" lon="5.58443">
        <ele>200.57</ele>
        <time>2012-10-09T09:55:37Z</time>
      </trkpt>
      <trkpt lat="45.29848" lon="5.58341">
        <ele>200.57</ele>
        <time>2012-10-09T09:55:53Z</time>
      </trkpt>
      <trkpt lat="45.29775" lon="5.58236">
        <ele>201.53</ele>
        <time>2012-10-09T09:56:11Z</time>
      </trkpt>
      <trkpt lat="45.29714" lon="5.58129">
        <ele>201.05</ele>
        <time>2012-10-09T09:56:27Z</time>
      </trkpt>
      <trkpt lat="45.29672" lon="5.58003">
        <ele>200.09</ele>
        <time>2012-10-09T09:56:43Z</time>
      </trkpt>
      <trkpt lat="45.29644" lon="5.57869">
        <ele>200.57</ele>
        <time>2012-10-09T09:57:00Z</time>
      </trkpt>
      <trkpt lat="45.29639" lon="5.57737">
        <ele>200.57</ele>
        <time>2012-10-09T09:57:16Z</time>
      </trkpt>
      <trkpt lat="45.29654" lon="5.57607">
        <ele>200.57</ele>
        <time>2012-10-09T09:57:32Z</time>
      </trkpt>
      <trkpt lat="45.29692" lon="5.57475">
        <ele>201.05</ele>
        <time>2012-10-09T09:57:48Z</time>
      </trkpt>
      <trkpt lat="45.29726" lon="5.57344">
        <ele>200.57</ele>
        <time>2012-10-09T09:58:09Z</time>
      </trkpt>
      <trkpt lat="45.29757" lon="5.57214">
        <ele>200.57</ele>
        <time>2012-10-09T09:58:27Z</time>
      </trkpt>
      <trkpt lat="45.29791" lon="5.57083">
        <ele>200.09</ele>
        <time>2012-10-09T09:58:45Z</time>
      </trkpt>
      <trkpt lat="45.29832" lon="5.56945">
        <ele>199.61</ele>
        <time>2012-10-09T09:59:03Z</time>
      </trkpt>
      <trkpt lat="45.29869" lon="5.5681">
        <ele>201.05</ele>
        <time>2012-10-09T09:59:22Z</time>
      </trkpt>
      <trkpt lat="45.29892" lon="5.56671">
        <ele>201.05</ele>
        <time>2012-10-09T09:59:39Z</time>
      </trkpt>
      <trkpt lat="45.29889" lon="5.56532">
        <ele>201.53</ele>
        <time>2012-10-09T09:59:55Z</time>
      </trkpt>
      <trkpt lat="45.29859" lon="5.564">
        <ele>201.05</ele>
        <time>2012-10-09T10:00:11Z</time>
      </trkpt>
      <trkpt lat="45.29813" lon="5.56293">
        <ele>200.09</ele>
        <time>2012-10-09T10:00:35Z</time>
      </trkpt>
      <trkpt lat="45.29745" lon="5.56196">
        <ele>200.57</ele>
        <time>2012-10-09T10:02:01Z</time>
      </trkpt>
      <trkpt lat="45.29672" lon="5.56106">
        <ele>201.05</ele>
        <time>2012-10-09T10:02:19Z</time>
      </trkpt>
      <trkpt lat="45.296" lon="5.56017">
        <ele>200.09</ele>
        <time>2012-10-09T10:02:36Z</time>
      </trkpt>
      <trkpt lat="45.2953" lon="5.55931">
        <ele>200.57</ele>
        <time>2012-10-09T10:02:52Z</time>
      </trkpt>
      <trkpt lat="45.29469" lon="5.55829">
        <ele>200.57</ele>
        <time>2012-10-09T10:03:08Z</time>
      </trkpt>
      <trkpt lat="45.29421" lon="5.55714">
        <ele>200.09</ele>
        <time>2012-10-09T10:03:24Z</time>
      </trkpt>
      <trkpt lat="45.29388" lon="5.55587">
        <ele>200.09</ele>
        <time>2012-10-09T10:03:40Z</time>
      </trkpt>
      <trkpt lat="45.29375" lon="5.5545">
        <ele>199.61</ele>
        <time>2012-10-09T10:03:56Z</time>
      </trkpt>
      <trkpt lat="45.29376" lon="5.55319">
        <ele>199.61</ele>
        <time>2012-10-09T10:04:11Z</time>
      </trkpt>
      <trkpt lat="45.29384" lon="5.55188">
        <ele>199.13</ele>
        <time>2012-10-09T10:04:26Z</time>
      </trkpt>
      <trkpt lat="45.29394" lon="5.55052">
        <ele>200.09</ele>
        <time>2012-10-09T10:04:42Z</time>
      </trkpt>
      <trkpt lat="45.29385" lon="5.54917">
        <ele>199.13</ele>
        <time>2012-10-09T10:04:57Z</time>
      </trkpt>
      <trkpt lat="45.29373" lon="5.54781">
        <ele>199.13</ele>
        <time>2012-10-09T10:05:13Z</time>
      </trkpt>
      <trkpt lat="45.29361" lon="5.54642">
        <ele>198.65</ele>
        <time>2012-10-09T10:05:30Z</time>
      </trkpt>
      <trkpt lat="45.29345" lon="5.54494">
        <ele>199.13</ele>
        <time>2012-10-09T10:05:47Z</time>
      </trkpt>
      <trkpt lat="45.29325" lon="5.5436">
        <ele>199.61</ele>
        <time>2012-10-09T10:06:02Z</time>
      </trkpt>
      <trkpt lat="45.29303" lon="5.54223">
        <ele>198.65</ele>
        <time>2012-10-09T10:06:18Z</time>
      </trkpt>
      <trkpt lat="45.29282" lon="5.54087">
        <ele>198.65</ele>
        <time>2012-10-09T10:06:34Z</time>
      </trkpt>
      <trkpt lat="45.2926" lon="5.53948">
        <ele>198.65</ele>
        <time>2012-10-09T10:06:49Z</time>
      </trkpt>
      <trkpt lat="45.29234" lon="5.53822">
        <ele>197.69</ele>
        <time>2012-10-09T10:07:04Z</time>
      </trkpt>
      <trkpt lat="45.29211" lon="5.53689">
        <ele>198.65</ele>
        <time>2012-10-09T10:07:20Z</time>
      </trkpt>
      <trkpt lat="45.29188" lon="5.53558">
        <ele>198.65</ele>
        <time>2012-10-09T10:07:36Z</time>
      </trkpt>
      <trkpt lat="45.29161" lon="5.53417">
        <ele>198.17</ele>
        <time>2012-10-09T10:07:53Z</time>
      </trkpt>
      <trkpt lat="45.29123" lon="5.53273">
        <ele>198.17</ele>
        <time>2012-10-09T10:08:09Z</time>
      </trkpt>
      <trkpt lat="45.29079" lon="5.53147">
        <ele>199.13</ele>
        <time>2012-10-09T10:08:25Z</time>
      </trkpt>
      <trkpt lat="45.29044" lon="5.53084">
        <ele>198.17</ele>
        <time>2012-10-09T10:09:09Z</time>
      </trkpt>
      <trkpt lat="45.2899" lon="5.52978">
        <ele>198.65</ele>
        <time>2012-10-09T10:14:45Z</time>
      </trkpt>
      <trkpt lat="45.28919" lon="5.52874">
        <ele>199.13</ele>
        <time>2012-10-09T10:15:07Z</time>
      </trkpt>
      <trkpt lat="45.28832" lon="5.52824">
        <ele>199.61</ele>
        <time>2012-10-09T10:15:24Z</time>
      </trkpt>
      <trkpt lat="45.28749" lon="5.52763">
        <ele>199.61</ele>
        <time>2012-10-09T10:15:42Z</time>
      </trkpt>
      <trkpt lat="45.28675" lon="5.52685">
        <ele>197.69</ele>
        <time>2012-10-09T10:16:06Z</time>
      </trkpt>
      <trkpt lat="45.28634" lon="5.52686">
        <ele>196.73</ele>
        <time>2012-10-09T10:17:42Z</time>
      </trkpt>
      <trkpt lat="45.2854" lon="5.52634">
        <ele>199.13</ele>
        <time>2012-10-09T10:18:10Z</time>
      </trkpt>
      <trkpt lat="45.28445" lon="5.5259">
        <ele>198.65</ele>
        <time>2012-10-09T10:18:34Z</time>
      </trkpt>
      <trkpt lat="45.2835" lon="5.52557">
        <ele>197.21</ele>
        <time>2012-10-09T10:18:50Z</time>
      </trkpt>
      <trkpt lat="45.28255" lon="5.52528">
        <ele>197.21</ele>
        <time>2012-10-09T10:19:06Z</time>
      </trkpt>
      <trkpt lat="45.28157" lon="5.52494">
        <ele>197.69</ele>
        <time>2012-10-09T10:19:22Z</time>
      </trkpt>
      <trkpt lat="45.28064" lon="5.52463">
        <ele>196.73</ele>
        <time>2012-10-09T10:19:38Z</time>
      </trkpt>
      <trkpt lat="45.27969" lon="5.52428">
        <ele>197.21</ele>
        <time>2012-10-09T10:19:54Z</time>
      </trkpt>
      <trkpt lat="45.27876" lon="5.52399">
        <ele>197.69</ele>
        <time>2012-10-09T10:20:10Z</time>
      </trkpt>
      <trkpt lat="45.27785" lon="5.52363">
        <ele>198.17</ele>
        <time>2012-10-09T10:20:26Z</time>
      </trkpt>
      <trkpt lat="45.27689" lon="5.5233">
        <ele>197.69</ele>
        <time>2012-10-09T10:20:43Z</time>
      </trkpt>
      <trkpt lat="45.27596" lon="5.52295">
        <ele>197.69</ele>
        <time>2012-10-09T10:20:59Z</time>
      </trkpt>
      <trkpt lat="45.27503" lon="5.52259">
        <ele>198.65</ele>
        <time>2012-10-09T10:21:15Z</time>
      </trkpt>
      <trkpt lat="45.27412" lon="5.52225">
        <ele>198.17</ele>
        <time>2012-10-09T10:21:30Z</time>
      </trkpt>
      <trkpt lat="45.27319" lon="5.52205">
        <ele>197.69</ele>
        <time>2012-10-09T10:21:45Z</time>
      </trkpt>
      <trkpt lat="45.27227" lon="5.52173">
        <ele>197.69</ele>
        <time>2012-10-09T10:22:00Z</time>
      </trkpt>
      <trkpt lat="45.27138" lon="5.52145">
        <ele>196.73</ele>
        <time>2012-10-09T10:22:14Z</time>
      </trkpt>
      <trkpt lat="45.27046" lon="5.52114">
        <ele>196.25</ele>
        <time>2012-10-09T10:22:29Z</time>
      </trkpt>
      <trkpt lat="45.26956" lon="5.52091">
        <ele>196.25</ele>
        <time>2012-10-09T10:22:44Z</time>
      </trkpt>
      <trkpt lat="45.26861" lon="5.52064">
        <ele>195.28</ele>
        <time>2012-10-09T10:23:00Z</time>
      </trkpt>
      <trkpt lat="45.26768" lon="5.52038">
        <ele>195.28</ele>
        <time>2012-10-09T10:23:16Z</time>
      </trkpt>
      <trkpt lat="45.26672" lon="5.52005">
        <ele>195.28</ele>
        <time>2012-10-09T10:23:33Z</time>
      </trkpt>
      <trkpt lat="45.26588" lon="5.51949">
        <ele>195.28</ele>
        <time>2012-10-09T10:23:49Z</time>
      </trkpt>
      <trkpt lat="45.26508" lon="5.51885">
        <ele>195.77</ele>
        <time>2012-10-09T10:24:05Z</time>
      </trkpt>
      <trkpt lat="45.26425" lon="5.51824">
        <ele>196.25</ele>
        <time>2012-10-09T10:24:21Z</time>
      </trkpt>
      <trkpt lat="45.26341" lon="5.51765">
        <ele>194.8</ele>
        <time>2012-10-09T10:24:36Z</time>
      </trkpt>
      <trkpt lat="45.26256" lon="5.51709">
        <ele>195.28</ele>
        <time>2012-10-09T10:24:53Z</time>
      </trkpt>
      <trkpt lat="45.26171" lon="5.51647">
        <ele>194.32</ele>
        <time>2012-10-09T10:25:09Z</time>
      </trkpt>
      <trkpt lat="45.26093" lon="5.51576">
        <ele>194.8</ele>
        <time>2012-10-09T10:25:23Z</time>
      </trkpt>
      <trkpt lat="45.26015" lon="5.51498">
        <ele>194.8</ele>
        <time>2012-10-09T10:25:38Z</time>
      </trkpt>
      <trkpt lat="45.25938" lon="5.5142">
        <ele>194.8</ele>
        <time>2012-10-09T10:25:54Z</time>
      </trkpt>
      <trkpt lat="45.25859" lon="5.51344">
        <ele>194.32</ele>
        <time>2012-10-09T10:26:10Z</time>
      </trkpt>
      <trkpt lat="45.2578" lon="5.51269">
        <ele>194.32</ele>
        <time>2012-10-09T10:26:26Z</time>
      </trkpt>
      <trkpt lat="45.25706" lon="5.51193">
        <ele>194.8</ele>
        <time>2012-10-09T10:26:41Z</time>
      </trkpt>
      <trkpt lat="45.25627" lon="5.51113">
        <ele>194.8</ele>
        <time>2012-10-09T10:26:58Z</time>
      </trkpt>
      <trkpt lat="45.25547" lon="5.51038">
        <ele>194.32</ele>
        <time>2012-10-09T10:27:15Z</time>
      </trkpt>
      <trkpt lat="45.25471" lon="5.50963">
        <ele>194.32</ele>
        <time>2012-10-09T10:27:31Z</time>
      </trkpt>
      <trkpt lat="45.25392" lon="5.50887">
        <ele>194.32</ele>
        <time>2012-10-09T10:27:47Z</time>
      </trkpt>
      <trkpt lat="45.25313" lon="5.50811">
        <ele>193.84</ele>
        <time>2012-10-09T10:28:03Z</time>
      </trkpt>
      <trkpt lat="45.2523" lon="5.50737">
        <ele>193.84</ele>
        <time>2012-10-09T10:28:19Z</time>
      </trkpt>
      <trkpt lat="45.25149" lon="5.50662">
        <ele>192.88</ele>
        <time>2012-10-09T10:28:34Z</time>
      </trkpt>
      <trkpt lat="45.25063" lon="5.50595">
        <ele>192.88</ele>
        <time>2012-10-09T10:28:49Z</time>
      </trkpt>
      <trkpt lat="45.24981" lon="5.50539">
        <ele>193.36</ele>
        <time>2012-10-09T10:29:05Z</time>
      </trkpt>
      <trkpt lat="45.24893" lon="5.5048">
        <ele>193.36</ele>
        <time>2012-10-09T10:29:22Z</time>
      </trkpt>
      <trkpt lat="45.24804" lon="5.50427">
        <ele>193.84</ele>
        <time>2012-10-09T10:29:38Z</time>
      </trkpt>
      <trkpt lat="45.24718" lon="5.50377">
        <ele>192.88</ele>
        <time>2012-10-09T10:29:53Z</time>
      </trkpt>
      <trkpt lat="45.24627" lon="5.50332">
        <ele>191.92</ele>
        <time>2012-10-09T10:30:08Z</time>
      </trkpt>
      <trkpt lat="45.24534" lon="5.50279">
        <ele>191.92</ele>
        <time>2012-10-09T10:30:24Z</time>
      </trkpt>
      <trkpt lat="45.24451" lon="5.50218">
        <ele>191.92</ele>
        <time>2012-10-09T10:30:39Z</time>
      </trkpt>
      <trkpt lat="45.24369" lon="5.50151">
        <ele>191.44</ele>
        <time>2012-10-09T10:30:55Z</time>
      </trkpt>
      <trkpt lat="45.24288" lon="5.50082">
        <ele>191.44</ele>
        <time>2012-10-09T10:31:11Z</time>
      </trkpt>
      <trkpt lat="45.2421" lon="5.50008">
        <ele>191.92</ele>
        <time>2012-10-09T10:31:26Z</time>
      </trkpt>
      <trkpt lat="45.24134" lon="5.4993">
        <ele>192.4</ele>
        <time>2012-10-09T10:31:41Z</time>
      </trkpt>
      <trkpt lat="45.24055" lon="5.49849">
        <ele>193.36</ele>
        <time>2012-10-09T10:32:03Z</time>
      </trkpt>
      <trkpt lat="45.23981" lon="5.49752">
        <ele>192.4</ele>
        <time>2012-10-09T10:32:27Z</time>
      </trkpt>
      <trkpt lat="45.23919" lon="5.49642">
        <ele>191.92</ele>
        <time>2012-10-09T10:32:44Z</time>
      </trkpt>
      <trkpt lat="45.23863" lon="5.49534">
        <ele>192.88</ele>
        <time>2012-10-09T10:33:00Z</time>
      </trkpt>
      <trkpt lat="45.23805" lon="5.4943">
        <ele>191.92</ele>
        <time>2012-10-09T10:33:17Z</time>
      </trkpt>
      <trkpt lat="45.23749" lon="5.49324">
        <ele>191.92</ele>
        <time>2012-10-09T10:33:34Z</time>
      </trkpt>
      <trkpt lat="45.23696" lon="5.49217">
        <ele>192.4</ele>
        <time>2012-10-09T10:33:50Z</time>
      </trkpt>
      <trkpt lat="45.2364" lon="5.49112">
        <ele>193.36</ele>
        <time>2012-10-09T10:34:06Z</time>
      </trkpt>
      <trkpt lat="45.2358" lon="5.49007">
        <ele>193.84</ele>
        <time>2012-10-09T10:34:22Z</time>
      </trkpt>
      <trkpt lat="45.2352" lon="5.48903">
        <ele>191.44</ele>
        <time>2012-10-09T10:34:36Z</time>
      </trkpt>
      <trkpt lat="45.23458" lon="5.48805">
        <ele>190.96</ele>
        <time>2012-10-09T10:34:50Z</time>
      </trkpt>
      <trkpt lat="45.23394" lon="5.48711">
        <ele>189.52</ele>
        <time>2012-10-09T10:35:15Z</time>
      </trkpt>
      <trkpt lat="45.2332" lon="5.48619">
        <ele>190</ele>
        <time>2012-10-09T10:35:35Z</time>
      </trkpt>
      <trkpt lat="45.23237" lon="5.48555">
        <ele>190.96</ele>
        <time>2012-10-09T10:35:52Z</time>
      </trkpt>
      <trkpt lat="45.23147" lon="5.48512">
        <ele>190.48</ele>
        <time>2012-10-09T10:36:08Z</time>
      </trkpt>
      <trkpt lat="45.23055" lon="5.4849">
        <ele>192.4</ele>
        <time>2012-10-09T10:36:24Z</time>
      </trkpt>
      <trkpt lat="45.2296" lon="5.48481">
        <ele>192.4</ele>
        <time>2012-10-09T10:36:40Z</time>
      </trkpt>
      <trkpt lat="45.22865" lon="5.48492">
        <ele>189.52</ele>
        <time>2012-10-09T10:36:55Z</time>
      </trkpt>
      <trkpt lat="45.22774" lon="5.48509">
        <ele>192.4</ele>
        <time>2012-10-09T10:37:11Z</time>
      </trkpt>
      <trkpt lat="45.22683" lon="5.48532">
        <ele>192.88</ele>
        <time>2012-10-09T10:37:28Z</time>
      </trkpt>
      <trkpt lat="45.22588" lon="5.48557">
        <ele>192.88</ele>
        <time>2012-10-09T10:37:46Z</time>
      </trkpt>
      <trkpt lat="45.22491" lon="5.48571">
        <ele>193.36</ele>
        <time>2012-10-09T10:38:02Z</time>
      </trkpt>
      <trkpt lat="45.22397" lon="5.48568">
        <ele>193.36</ele>
        <time>2012-10-09T10:38:18Z</time>
      </trkpt>
      <trkpt lat="45.22306" lon="5.48535">
        <ele>192.88</ele>
        <time>2012-10-09T10:38:34Z</time>
      </trkpt>
      <trkpt lat="45.22226" lon="5.48465">
        <ele>192.88</ele>
        <time>2012-10-09T10:38:51Z</time>
      </trkpt>
      <trkpt lat="45.22164" lon="5.48373">
        <ele>192.88</ele>
        <time>2012-10-09T10:39:07Z</time>
      </trkpt>
      <trkpt lat="45.22104" lon="5.48274">
        <ele>193.36</ele>
        <time>2012-10-09T10:39:23Z</time>
      </trkpt>
      <trkpt lat="45.22045" lon="5.48171">
        <ele>193.36</ele>
        <time>2012-10-09T10:39:39Z</time>
      </trkpt>
      <trkpt lat="45.21993" lon="5.48062">
        <ele>192.88</ele>
        <time>2012-10-09T10:39:55Z</time>
      </trkpt>
      <trkpt lat="45.21938" lon="5.47949">
        <ele>192.88</ele>
        <time>2012-10-09T10:40:11Z</time>
      </trkpt>
      <trkpt lat="45.21868" lon="5.47859">
        <ele>192.4</ele>
        <time>2012-10-09T10:40:26Z</time>
      </trkpt>
      <trkpt lat="45.21798" lon="5.47773">
        <ele>192.4</ele>
        <time>2012-10-09T10:40:41Z</time>
      </trkpt>
      <trkpt lat="45.21722" lon="5.47701">
        <ele>191.92</ele>
        <time>2012-10-09T10:40:56Z</time>
      </trkpt>
      <trkpt lat="45.2164" lon="5.47632">
        <ele>192.4</ele>
        <time>2012-10-09T10:41:12Z</time>
      </trkpt>
      <trkpt lat="45.21556" lon="5.47565">
        <ele>192.88</ele>
        <time>2012-10-09T10:41:28Z</time>
      </trkpt>
      <trkpt lat="45.21475" lon="5.47492">
        <ele>192.88</ele>
        <time>2012-10-09T10:41:45Z</time>
      </trkpt>
      <trkpt lat="45.21398" lon="5.47412">
        <ele>193.36</ele>
        <time>2012-10-09T10:42:01Z</time>
      </trkpt>
      <trkpt lat="45.21329" lon="5.47328">
        <ele>192.88</ele>
        <time>2012-10-09T10:42:16Z</time>
      </trkpt>
      <trkpt lat="45.21265" lon="5.47229">
        <ele>192.88</ele>
        <time>2012-10-09T10:42:32Z</time>
      </trkpt>
      <trkpt lat="45.21192" lon="5.47126">
        <ele>192.88</ele>
        <time>2012-10-09T10:44:44Z</time>
      </trkpt>
      <trkpt lat="45.2113" lon="5.47028">
        <ele>193.36</ele>
        <time>2012-10-09T10:45:03Z</time>
      </trkpt>
      <trkpt lat="45.21063" lon="5.46926">
        <ele>193.84</ele>
        <time>2012-10-09T10:45:21Z</time>
      </trkpt>
      <trkpt lat="45.20996" lon="5.46823">
        <ele>193.84</ele>
        <time>2012-10-09T10:45:39Z</time>
      </trkpt>
      <trkpt lat="45.20933" lon="5.46724">
        <ele>192.88</ele>
        <time>2012-10-09T10:45:55Z</time>
      </trkpt>
      <trkpt lat="45.20877" lon="5.46611">
        <ele>193.84</ele>
        <time>2012-10-09T10:46:25Z</time>
      </trkpt>
      <trkpt lat="45.2081" lon="5.46686">
        <ele>194.8</ele>
        <time>2012-10-09T10:47:31Z</time>
      </trkpt>
      <trkpt lat="45.20747" lon="5.46782">
        <ele>194.32</ele>
        <time>2012-10-09T10:47:55Z</time>
      </trkpt>
      <trkpt lat="45.20677" lon="5.46871">
        <ele>197.69</ele>
        <time>2012-10-09T10:48:20Z</time>
      </trkpt>
      <trkpt lat="45.20607" lon="5.46959">
        <ele>199.61</ele>
        <time>2012-10-09T10:48:44Z</time>
      </trkpt>
      <trkpt lat="45.20532" lon="5.47039">
        <ele>199.13</ele>
        <time>2012-10-09T10:49:06Z</time>
      </trkpt>
      <trkpt lat="45.20456" lon="5.47114">
        <ele>199.61</ele>
        <time>2012-10-09T10:49:30Z</time>
      </trkpt>
      <trkpt lat="45.20416" lon="5.47014">
        <ele>199.13</ele>
        <time>2012-10-09T10:52:11Z</time>
      </trkpt>
      <trkpt lat="45.20402" lon="5.46881">
        <ele>197.21</ele>
        <time>2012-10-09T10:52:25Z</time>
      </trkpt>
      <trkpt lat="45.20396" lon="5.46748">
        <ele>195.28</ele>
        <time>2012-10-09T10:52:38Z</time>
      </trkpt>
      <trkpt lat="45.20392" lon="5.46617">
        <ele>196.25</ele>
        <time>2012-10-09T10:52:52Z</time>
      </trkpt>
      <trkpt lat="45.20388" lon="5.46489">
        <ele>201.05</ele>
        <time>2012-10-09T10:53:11Z</time>
      </trkpt>
      <trkpt lat="45.20383" lon="5.46356">
        <ele>205.38</ele>
        <time>2012-10-09T10:53:31Z</time>
      </trkpt>
      <trkpt lat="45.20378" lon="5.46224">
        <ele>207.3</ele>
        <time>2012-10-09T10:53:51Z</time>
      </trkpt>
      <trkpt lat="45.20364" lon="5.46094">
        <ele>206.34</ele>
        <time>2012-10-09T10:54:08Z</time>
      </trkpt>
      <trkpt lat="45.20316" lon="5.45978">
        <ele>204.9</ele>
        <time>2012-10-09T10:54:23Z</time>
      </trkpt>
      <trkpt lat="45.20256" lon="5.45882">
        <ele>207.78</ele>
        <time>2012-10-09T10:54:39Z</time>
      </trkpt>
      <trkpt lat="45.20198" lon="5.4578">
        <ele>210.67</ele>
        <time>2012-10-09T10:54:59Z</time>
      </trkpt>
      <trkpt lat="45.20144" lon="5.45669">
        <ele>214.03</ele>
        <time>2012-10-09T10:55:20Z</time>
      </trkpt>
      <trkpt lat="45.20095" lon="5.45557">
        <ele>216.43</ele>
        <time>2012-10-09T10:55:40Z</time>
      </trkpt>
      <trkpt lat="45.20047" lon="5.45443">
        <ele>217.4</ele>
        <time>2012-10-09T10:55:59Z</time>
      </trkpt>
      <trkpt lat="45.2" lon="5.45331">
        <ele>217.88</ele>
        <time>2012-10-09T10:56:16Z</time>
      </trkpt>
      <trkpt lat="45.19953" lon="5.45218">
        <ele>218.36</ele>
        <time>2012-10-09T10:56:32Z</time>
      </trkpt>
      <trkpt lat="45.1992" lon="5.45099">
        <ele>218.84</ele>
        <time>2012-10-09T10:56:48Z</time>
      </trkpt>
      <trkpt lat="45.19892" lon="5.44977">
        <ele>219.32</ele>
        <time>2012-10-09T10:57:04Z</time>
      </trkpt>
      <trkpt lat="45.19862" lon="5.4485">
        <ele>218.84</ele>
        <time>2012-10-09T10:57:21Z</time>
      </trkpt>
      <trkpt lat="45.19833" lon="5.44726">
        <ele>218.36</ele>
        <time>2012-10-09T10:57:36Z</time>
      </trkpt>
      <trkpt lat="45.19819" lon="5.4459">
        <ele>219.32</ele>
        <time>2012-10-09T10:57:52Z</time>
      </trkpt>
      <trkpt lat="45.1982" lon="5.44461">
        <ele>219.32</ele>
        <time>2012-10-09T10:58:07Z</time>
      </trkpt>
      <trkpt lat="45.19821" lon="5.44332">
        <ele>219.32</ele>
        <time>2012-10-09T10:58:22Z</time>
      </trkpt>
      <trkpt lat="45.1982" lon="5.44203">
        <ele>219.32</ele>
        <time>2012-10-09T10:58:37Z</time>
      </trkpt>
      <trkpt lat="45.1982" lon="5.44074">
        <ele>218.84</ele>
        <time>2012-10-09T10:58:52Z</time>
      </trkpt>
      <trkpt lat="45.1982" lon="5.43944">
        <ele>220.28</ele>
        <time>2012-10-09T10:59:08Z</time>
      </trkpt>
      <trkpt lat="45.19821" lon="5.43809">
        <ele>221.72</ele>
        <time>2012-10-09T10:59:25Z</time>
      </trkpt>
      <trkpt lat="45.19817" lon="5.43676">
        <ele>223.16</ele>
        <time>2012-10-09T10:59:41Z</time>
      </trkpt>
      <trkpt lat="45.19793" lon="5.43553">
        <ele>222.68</ele>
        <time>2012-10-09T10:59:56Z</time>
      </trkpt>
      <trkpt lat="45.1977" lon="5.43428">
        <ele>222.68</ele>
        <time>2012-10-09T11:00:10Z</time>
      </trkpt>
      <trkpt lat="45.19748" lon="5.43302">
        <ele>223.64</ele>
        <time>2012-10-09T11:00:25Z</time>
      </trkpt>
      <trkpt lat="45.19725" lon="5.43173">
        <ele>225.09</ele>
        <time>2012-10-09T11:00:43Z</time>
      </trkpt>
      <trkpt lat="45.19692" lon="5.43053">
        <ele>226.05</ele>
        <time>2012-10-09T11:01:01Z</time>
      </trkpt>
      <trkpt lat="45.19629" lon="5.42956">
        <ele>227.97</ele>
        <time>2012-10-09T11:01:18Z</time>
      </trkpt>
      <trkpt lat="45.19555" lon="5.42874">
        <ele>228.45</ele>
        <time>2012-10-09T11:01:35Z</time>
      </trkpt>
      <trkpt lat="45.19482" lon="5.4279">
        <ele>229.89</ele>
        <time>2012-10-09T11:01:55Z</time>
      </trkpt>
      <trkpt lat="45.19408" lon="5.42708">
        <ele>231.33</ele>
        <time>2012-10-09T11:02:46Z</time>
      </trkpt>
      <trkpt lat="45.19463" lon="5.4261">
        <ele>227.01</ele>
        <time>2012-10-09T11:03:04Z</time>
      </trkpt>
      <trkpt lat="45.19499" lon="5.42491">
        <ele>225.57</ele>
        <time>2012-10-09T11:03:19Z</time>
      </trkpt>
      <trkpt lat="45.19495" lon="5.42498">
        <ele>225.09</ele>
        <time>2012-10-09T11:04:38Z</time>
      </trkpt>
      <trkpt lat="45.19457" lon="5.42616">
        <ele>225.09</ele>
        <time>2012-10-09T11:04:57Z</time>
      </trkpt>
      <trkpt lat="45.19396" lon="5.42698">
        <ele>231.33</ele>
        <time>2012-10-09T11:05:25Z</time>
      </trkpt>
      <trkpt lat="45.19322" lon="5.42616">
        <ele>232.3</ele>
        <time>2012-10-09T11:05:47Z</time>
      </trkpt>
      <trkpt lat="45.19249" lon="5.4254">
        <ele>233.26</ele>
        <time>2012-10-09T11:06:05Z</time>
      </trkpt>
      <trkpt lat="45.19159" lon="5.42496">
        <ele>234.22</ele>
        <time>2012-10-09T11:06:23Z</time>
      </trkpt>
      <trkpt lat="45.19068" lon="5.42468">
        <ele>236.62</ele>
        <time>2012-10-09T11:06:41Z</time>
      </trkpt>
      <trkpt lat="45.18977" lon="5.42438">
        <ele>238.06</ele>
        <time>2012-10-09T11:06:59Z</time>
      </trkpt>
      <trkpt lat="45.18883" lon="5.42431">
        <ele>240.95</ele>
        <time>2012-10-09T11:07:19Z</time>
      </trkpt>
      <trkpt lat="45.18792" lon="5.42466">
        <ele>241.91</ele>
        <time>2012-10-09T11:07:38Z</time>
      </trkpt>
      <trkpt lat="45.18702" lon="5.42508">
        <ele>242.39</ele>
        <time>2012-10-09T11:07:56Z</time>
      </trkpt>
      <trkpt lat="45.18614" lon="5.42547">
        <ele>242.87</ele>
        <time>2012-10-09T11:08:14Z</time>
      </trkpt>
      <trkpt lat="45.18524" lon="5.42585">
        <ele>242.87</ele>
        <time>2012-10-09T11:08:32Z</time>
      </trkpt>
      <trkpt lat="45.1843" lon="5.42593">
        <ele>243.35</ele>
        <time>2012-10-09T11:08:49Z</time>
      </trkpt>
      <trkpt lat="45.18346" lon="5.42545">
        <ele>244.31</ele>
        <time>2012-10-09T11:09:06Z</time>
      </trkpt>
      <trkpt lat="45.18277" lon="5.42454">
        <ele>247.68</ele>
        <time>2012-10-09T11:09:28Z</time>
      </trkpt>
      <trkpt lat="45.18218" lon="5.42349">
        <ele>251.04</ele>
        <time>2012-10-09T11:09:49Z</time>
      </trkpt>
      <trkpt lat="45.18177" lon="5.42228">
        <ele>253.44</ele>
        <time>2012-10-09T11:10:09Z</time>
      </trkpt>
      <trkpt lat="45.18118" lon="5.42134">
        <ele>255.85</ele>
        <time>2012-10-09T11:11:36Z</time>
      </trkpt>
      <trkpt lat="45.18044" lon="5.42045">
        <ele>259.21</ele>
        <time>2012-10-09T11:12:01Z</time>
      </trkpt>
      <trkpt lat="45.1799" lon="5.41937">
        <ele>262.58</ele>
        <time>2012-10-09T11:12:25Z</time>
      </trkpt>
      <trkpt lat="45.17924" lon="5.41846">
        <ele>265.46</ele>
        <time>2012-10-09T11:12:49Z</time>
      </trkpt>
      <trkpt lat="45.17847" lon="5.41774">
        <ele>267.86</ele>
        <time>2012-10-09T11:13:12Z</time>
      </trkpt>
      <trkpt lat="45.17768" lon="5.417">
        <ele>271.71</ele>
        <time>2012-10-09T11:13:35Z</time>
      </trkpt>
      <trkpt lat="45.17688" lon="5.41641">
        <ele>274.11</ele>
        <time>2012-10-09T11:13:56Z</time>
      </trkpt>
      <trkpt lat="45.176" lon="5.41588">
        <ele>275.07</ele>
        <time>2012-10-09T11:14:17Z</time>
      </trkpt>
      <trkpt lat="45.17513" lon="5.41536">
        <ele>276.04</ele>
        <time>2012-10-09T11:14:37Z</time>
      </trkpt>
      <trkpt lat="45.1743" lon="5.41486">
        <ele>277.96</ele>
        <time>2012-10-09T11:14:56Z</time>
      </trkpt>
      <trkpt lat="45.17342" lon="5.41434">
        <ele>278.92</ele>
        <time>2012-10-09T11:15:15Z</time>
      </trkpt>
      <trkpt lat="45.17261" lon="5.41375">
        <ele>280.36</ele>
        <time>2012-10-09T11:15:33Z</time>
      </trkpt>
      <trkpt lat="45.17184" lon="5.41307">
        <ele>281.32</ele>
        <time>2012-10-09T11:15:51Z</time>
      </trkpt>
      <trkpt lat="45.17106" lon="5.4124">
        <ele>281.8</ele>
        <time>2012-10-09T11:16:11Z</time>
      </trkpt>
      <trkpt lat="45.17042" lon="5.41167">
        <ele>281.32</ele>
        <time>2012-10-09T11:16:50Z</time>
      </trkpt>
      <trkpt lat="45.1704" lon="5.41211">
        <ele>286.61</ele>
        <time>2012-10-09T11:48:27Z</time>
      </trkpt>
      <trkpt lat="45.17023" lon="5.41195">
        <ele>286.61</ele>
        <time>2012-10-09T11:50:17Z</time>
      </trkpt>
      <trkpt lat="45.16992" lon="5.41104">
        <ele>282.77</ele>
        <time>2012-10-09T11:50:39Z</time>
      </trkpt>
      <trkpt lat="45.16921" lon="5.41015">
        <ele>277.48</ele>
        <time>2012-10-09T11:50:52Z</time>
      </trkpt>
      <trkpt lat="45.16867" lon="5.40916">
        <ele>275.56</ele>
        <time>2012-10-09T11:51:56Z</time>
      </trkpt>
      <trkpt lat="45.16851" lon="5.40786">
        <ele>277</ele>
        <time>2012-10-09T11:52:13Z</time>
      </trkpt>
      <trkpt lat="45.1684" lon="5.40659">
        <ele>277.96</ele>
        <time>2012-10-09T11:52:29Z</time>
      </trkpt>
      <trkpt lat="45.16812" lon="5.40538">
        <ele>277</ele>
        <time>2012-10-09T11:52:45Z</time>
      </trkpt>
      <trkpt lat="45.16765" lon="5.40428">
        <ele>276.04</ele>
        <time>2012-10-09T11:52:59Z</time>
      </trkpt>
      <trkpt lat="45.16712" lon="5.40315">
        <ele>274.59</ele>
        <time>2012-10-09T11:53:12Z</time>
      </trkpt>
      <trkpt lat="45.16659" lon="5.40203">
        <ele>272.67</ele>
        <time>2012-10-09T11:53:25Z</time>
      </trkpt>
      <trkpt lat="45.166" lon="5.40098">
        <ele>272.19</ele>
        <time>2012-10-09T11:53:39Z</time>
      </trkpt>
      <trkpt lat="45.16536" lon="5.39995">
        <ele>271.23</ele>
        <time>2012-10-09T11:53:53Z</time>
      </trkpt>
      <trkpt lat="45.16473" lon="5.39897">
        <ele>271.71</ele>
        <time>2012-10-09T11:54:07Z</time>
      </trkpt>
      <trkpt lat="45.16408" lon="5.39795">
        <ele>271.71</ele>
        <time>2012-10-09T11:54:22Z</time>
      </trkpt>
      <trkpt lat="45.1635" lon="5.3969">
        <ele>272.19</ele>
        <time>2012-10-09T11:54:37Z</time>
      </trkpt>
      <trkpt lat="45.16292" lon="5.39594">
        <ele>271.23</ele>
        <time>2012-10-09T11:54:51Z</time>
      </trkpt>
      <trkpt lat="45.1623" lon="5.3949">
        <ele>270.27</ele>
        <time>2012-10-09T11:55:05Z</time>
      </trkpt>
      <trkpt lat="45.16173" lon="5.3939">
        <ele>269.31</ele>
        <time>2012-10-09T11:55:20Z</time>
      </trkpt>
      <trkpt lat="45.16118" lon="5.39289">
        <ele>268.35</ele>
        <time>2012-10-09T11:56:36Z</time>
      </trkpt>
      <trkpt lat="45.16069" lon="5.39181">
        <ele>266.42</ele>
        <time>2012-10-09T11:56:51Z</time>
      </trkpt>
      <trkpt lat="45.1601" lon="5.39075">
        <ele>264.98</ele>
        <time>2012-10-09T11:57:04Z</time>
      </trkpt>
      <trkpt lat="45.15942" lon="5.38979">
        <ele>264.5</ele>
        <time>2012-10-09T11:57:17Z</time>
      </trkpt>
      <trkpt lat="45.15877" lon="5.38881">
        <ele>264.02</ele>
        <time>2012-10-09T11:57:30Z</time>
      </trkpt>
      <trkpt lat="45.15819" lon="5.38775">
        <ele>264.02</ele>
        <time>2012-10-09T11:57:43Z</time>
      </trkpt>
      <trkpt lat="45.15766" lon="5.38662">
        <ele>261.14</ele>
        <time>2012-10-09T11:57:56Z</time>
      </trkpt>
      <trkpt lat="45.15714" lon="5.38555">
        <ele>258.73</ele>
        <time>2012-10-09T11:58:07Z</time>
      </trkpt>
      <trkpt lat="45.15656" lon="5.38449">
        <ele>256.33</ele>
        <time>2012-10-09T11:58:17Z</time>
      </trkpt>
      <trkpt lat="45.15588" lon="5.38353">
        <ele>253.44</ele>
        <time>2012-10-09T11:58:27Z</time>
      </trkpt>
      <trkpt lat="45.15522" lon="5.38258">
        <ele>250.08</ele>
        <time>2012-10-09T11:58:37Z</time>
      </trkpt>
      <trkpt lat="45.15465" lon="5.38144">
        <ele>248.16</ele>
        <time>2012-10-09T11:58:47Z</time>
      </trkpt>
      <trkpt lat="45.15408" lon="5.38034">
        <ele>243.35</ele>
        <time>2012-10-09T11:58:57Z</time>
      </trkpt>
      <trkpt lat="45.15331" lon="5.37953">
        <ele>242.39</ele>
        <time>2012-10-09T11:59:08Z</time>
      </trkpt>
      <trkpt lat="45.15247" lon="5.37907">
        <ele>241.91</ele>
        <time>2012-10-09T11:59:20Z</time>
      </trkpt>
      <trkpt lat="45.15159" lon="5.3786">
        <ele>242.39</ele>
        <time>2012-10-09T11:59:35Z</time>
      </trkpt>
      <trkpt lat="45.15074" lon="5.37807">
        <ele>243.35</ele>
        <time>2012-10-09T11:59:53Z</time>
      </trkpt>
      <trkpt lat="45.14997" lon="5.37744">
        <ele>244.31</ele>
        <time>2012-10-09T12:00:09Z</time>
      </trkpt>
      <trkpt lat="45.14919" lon="5.37675">
        <ele>245.27</ele>
        <time>2012-10-09T12:00:25Z</time>
      </trkpt>
      <trkpt lat="45.14839" lon="5.37606">
        <ele>247.2</ele>
        <time>2012-10-09T12:00:41Z</time>
      </trkpt>
      <trkpt lat="45.14759" lon="5.37538">
        <ele>248.64</ele>
        <time>2012-10-09T12:00:58Z</time>
      </trkpt>
      <trkpt lat="45.14686" lon="5.37468">
        <ele>249.6</ele>
        <time>2012-10-09T12:01:16Z</time>
      </trkpt>
      <trkpt lat="45.14606" lon="5.37386">
        <ele>251.52</ele>
        <time>2012-10-09T12:01:34Z</time>
      </trkpt>
      <trkpt lat="45.14524" lon="5.37337">
        <ele>252</ele>
        <time>2012-10-09T12:01:51Z</time>
      </trkpt>
      <trkpt lat="45.14448" lon="5.37271">
        <ele>250.08</ele>
        <time>2012-10-09T12:02:05Z</time>
      </trkpt>
      <trkpt lat="45.14379" lon="5.37187">
        <ele>247.2</ele>
        <time>2012-10-09T12:02:17Z</time>
      </trkpt>
      <trkpt lat="45.1431" lon="5.37103">
        <ele>245.75</ele>
        <time>2012-10-09T12:02:28Z</time>
      </trkpt>
      <trkpt lat="45.1424" lon="5.37021">
        <ele>242.87</ele>
        <time>2012-10-09T12:02:38Z</time>
      </trkpt>
      <trkpt lat="45.14171" lon="5.3694">
        <ele>240.47</ele>
        <time>2012-10-09T12:02:48Z</time>
      </trkpt>
      <trkpt lat="45.14098" lon="5.36852">
        <ele>239.51</ele>
        <time>2012-10-09T12:02:59Z</time>
      </trkpt>
      <trkpt lat="45.14025" lon="5.36764">
        <ele>237.1</ele>
        <time>2012-10-09T12:03:10Z</time>
      </trkpt>
      <trkpt lat="45.13956" lon="5.36682">
        <ele>235.66</ele>
        <time>2012-10-09T12:03:20Z</time>
      </trkpt>
      <trkpt lat="45.13883" lon="5.36596">
        <ele>234.7</ele>
        <time>2012-10-09T12:03:31Z</time>
      </trkpt>
      <trkpt lat="45.13803" lon="5.36521">
        <ele>234.22</ele>
        <time>2012-10-09T12:03:43Z</time>
      </trkpt>
      <trkpt lat="45.13727" lon="5.36449">
        <ele>232.78</ele>
        <time>2012-10-09T12:03:54Z</time>
      </trkpt>
      <trkpt lat="45.1365" lon="5.36366">
        <ele>235.18</ele>
        <time>2012-10-09T12:04:06Z</time>
      </trkpt>
      <trkpt lat="45.13575" lon="5.36287">
        <ele>235.18</ele>
        <time>2012-10-09T12:04:22Z</time>
      </trkpt>
      <trkpt lat="45.13492" lon="5.36223">
        <ele>235.66</ele>
        <time>2012-10-09T12:04:39Z</time>
      </trkpt>
      <trkpt lat="45.13419" lon="5.36166">
        <ele>236.14</ele>
        <time>2012-10-09T12:07:15Z</time>
      </trkpt>
      <trkpt lat="45.13335" lon="5.36104">
        <ele>238.06</ele>
        <time>2012-10-09T12:07:34Z</time>
      </trkpt>
      <trkpt lat="45.13254" lon="5.36043">
        <ele>238.54</ele>
        <time>2012-10-09T12:07:51Z</time>
      </trkpt>
      <trkpt lat="45.1318" lon="5.35968">
        <ele>239.02</ele>
        <time>2012-10-09T12:08:07Z</time>
      </trkpt>
      <trkpt lat="45.13137" lon="5.35851">
        <ele>237.1</ele>
        <time>2012-10-09T12:08:20Z</time>
      </trkpt>
      <trkpt lat="45.13098" lon="5.35727">
        <ele>234.7</ele>
        <time>2012-10-09T12:08:33Z</time>
      </trkpt>
      <trkpt lat="45.13049" lon="5.35609">
        <ele>233.26</ele>
        <time>2012-10-09T12:08:45Z</time>
      </trkpt>
      <trkpt lat="45.12995" lon="5.35498">
        <ele>230.37</ele>
        <time>2012-10-09T12:08:56Z</time>
      </trkpt>
      <trkpt lat="45.12938" lon="5.35391">
        <ele>228.93</ele>
        <time>2012-10-09T12:09:07Z</time>
      </trkpt>
      <trkpt lat="45.12874" lon="5.35295">
        <ele>228.45</ele>
        <time>2012-10-09T12:09:19Z</time>
      </trkpt>
      <trkpt lat="45.1282" lon="5.35183">
        <ele>227.01</ele>
        <time>2012-10-09T12:09:32Z</time>
      </trkpt>
      <trkpt lat="45.12773" lon="5.35076">
        <ele>227.97</ele>
        <time>2012-10-09T12:09:45Z</time>
      </trkpt>
      <trkpt lat="45.12723" lon="5.34964">
        <ele>227.01</ele>
        <time>2012-10-09T12:10:00Z</time>
      </trkpt>
      <trkpt lat="45.12675" lon="5.34855">
        <ele>227.01</ele>
        <time>2012-10-09T12:10:14Z</time>
      </trkpt>
      <trkpt lat="45.12639" lon="5.34732">
        <ele>224.61</ele>
        <time>2012-10-09T12:10:27Z</time>
      </trkpt>
      <trkpt lat="45.12619" lon="5.346">
        <ele>223.64</ele>
        <time>2012-10-09T12:10:40Z</time>
      </trkpt>
      <trkpt lat="45.12599" lon="5.34468">
        <ele>222.68</ele>
        <time>2012-10-09T12:10:54Z</time>
      </trkpt>
      <trkpt lat="45.1258" lon="5.34341">
        <ele>221.72</ele>
        <time>2012-10-09T12:11:06Z</time>
      </trkpt>
      <trkpt lat="45.12561" lon="5.34211">
        <ele>220.28</ele>
        <time>2012-10-09T12:11:19Z</time>
      </trkpt>
      <trkpt lat="45.12541" lon="5.34083">
        <ele>220.28</ele>
        <time>2012-10-09T12:11:33Z</time>
      </trkpt>
      <trkpt lat="45.12521" lon="5.33949">
        <ele>220.28</ele>
        <time>2012-10-09T12:11:48Z</time>
      </trkpt>
      <trkpt lat="45.125" lon="5.33823">
        <ele>219.8</ele>
        <time>2012-10-09T12:12:02Z</time>
      </trkpt>
      <trkpt lat="45.1248" lon="5.33698">
        <ele>218.36</ele>
        <time>2012-10-09T12:12:18Z</time>
      </trkpt>
      <trkpt lat="45.12569" lon="5.33693">
        <ele>213.07</ele>
        <time>2012-10-09T12:12:48Z</time>
      </trkpt>
      <trkpt lat="45.12518" lon="5.33698">
        <ele>216.91</ele>
        <time>2012-10-09T12:13:30Z</time>
      </trkpt>
      <trkpt lat="45.12445" lon="5.33609">
        <ele>219.8</ele>
        <time>2012-10-09T12:13:57Z</time>
      </trkpt>
      <trkpt lat="45.12369" lon="5.33536">
        <ele>220.28</ele>
        <time>2012-10-09T12:14:17Z</time>
      </trkpt>
      <trkpt lat="45.12291" lon="5.33469">
        <ele>222.68</ele>
        <time>2012-10-09T12:14:35Z</time>
      </trkpt>
      <trkpt lat="45.12213" lon="5.33399">
        <ele>224.12</ele>
        <time>2012-10-09T12:14:52Z</time>
      </trkpt>
      <trkpt lat="45.12143" lon="5.33317">
        <ele>223.64</ele>
        <time>2012-10-09T12:15:07Z</time>
      </trkpt>
      <trkpt lat="45.1208" lon="5.3323">
        <ele>224.61</ele>
        <time>2012-10-09T12:15:21Z</time>
      </trkpt>
      <trkpt lat="45.12014" lon="5.33141">
        <ele>227.01</ele>
        <time>2012-10-09T12:15:38Z</time>
      </trkpt>
      <trkpt lat="45.11947" lon="5.33047">
        <ele>228.45</ele>
        <time>2012-10-09T12:15:55Z</time>
      </trkpt>
      <trkpt lat="45.11882" lon="5.32956">
        <ele>228.45</ele>
        <time>2012-10-09T12:16:11Z</time>
      </trkpt>
      <trkpt lat="45.11816" lon="5.32868">
        <ele>228.45</ele>
        <time>2012-10-09T12:16:26Z</time>
      </trkpt>
      <trkpt lat="45.11752" lon="5.32779">
        <ele>228.45</ele>
        <time>2012-10-09T12:16:41Z</time>
      </trkpt>
      <trkpt lat="45.11689" lon="5.32689">
        <ele>227.97</ele>
        <time>2012-10-09T12:17:07Z</time>
      </trkpt>
      <trkpt lat="45.11622" lon="5.32598">
        <ele>229.41</ele>
        <time>2012-10-09T12:17:24Z</time>
      </trkpt>
      <trkpt lat="45.11556" lon="5.32506">
        <ele>229.89</ele>
        <time>2012-10-09T12:17:42Z</time>
      </trkpt>
      <trkpt lat="45.11488" lon="5.32413">
        <ele>231.33</ele>
        <time>2012-10-09T12:18:00Z</time>
      </trkpt>
      <trkpt lat="45.11423" lon="5.32324">
        <ele>231.33</ele>
        <time>2012-10-09T12:18:16Z</time>
      </trkpt>
      <trkpt lat="45.11349" lon="5.32242">
        <ele>231.81</ele>
        <time>2012-10-09T12:18:32Z</time>
      </trkpt>
      <trkpt lat="45.11275" lon="5.32168">
        <ele>231.33</ele>
        <time>2012-10-09T12:18:47Z</time>
      </trkpt>
      <trkpt lat="45.11198" lon="5.32089">
        <ele>231.81</ele>
        <time>2012-10-09T12:19:02Z</time>
      </trkpt>
      <trkpt lat="45.11122" lon="5.32012">
        <ele>231.33</ele>
        <time>2012-10-09T12:19:17Z</time>
      </trkpt>
      <trkpt lat="45.11045" lon="5.31938">
        <ele>232.3</ele>
        <time>2012-10-09T12:19:33Z</time>
      </trkpt>
      <trkpt lat="45.10972" lon="5.31861">
        <ele>231.81</ele>
        <time>2012-10-09T12:19:47Z</time>
      </trkpt>
      <trkpt lat="45.10898" lon="5.31784">
        <ele>232.3</ele>
        <time>2012-10-09T12:20:04Z</time>
      </trkpt>
      <trkpt lat="45.10822" lon="5.31709">
        <ele>233.26</ele>
        <time>2012-10-09T12:20:22Z</time>
      </trkpt>
      <trkpt lat="45.10748" lon="5.31634">
        <ele>233.26</ele>
        <time>2012-10-09T12:20:37Z</time>
      </trkpt>
      <trkpt lat="45.10672" lon="5.31556">
        <ele>232.78</ele>
        <time>2012-10-09T12:20:52Z</time>
      </trkpt>
      <trkpt lat="45.10597" lon="5.31482">
        <ele>232.78</ele>
        <time>2012-10-09T12:21:06Z</time>
      </trkpt>
      <trkpt lat="45.10524" lon="5.31409">
        <ele>232.78</ele>
        <time>2012-10-09T12:21:20Z</time>
      </trkpt>
      <trkpt lat="45.10451" lon="5.31336">
        <ele>233.26</ele>
        <time>2012-10-09T12:22:29Z</time>
      </trkpt>
      <trkpt lat="45.10375" lon="5.31258">
        <ele>232.78</ele>
        <time>2012-10-09T12:22:45Z</time>
      </trkpt>
      <trkpt lat="45.10298" lon="5.31181">
        <ele>232.3</ele>
        <time>2012-10-09T12:23:00Z</time>
      </trkpt>
      <trkpt lat="45.10224" lon="5.31106">
        <ele>231.81</ele>
        <time>2012-10-09T12:23:14Z</time>
      </trkpt>
      <trkpt lat="45.10148" lon="5.31031">
        <ele>232.78</ele>
        <time>2012-10-09T12:23:28Z</time>
      </trkpt>
      <trkpt lat="45.10072" lon="5.30953">
        <ele>233.26</ele>
        <time>2012-10-09T12:23:43Z</time>
      </trkpt>
      <trkpt lat="45.09994" lon="5.30874">
        <ele>232.78</ele>
        <time>2012-10-09T12:23:58Z</time>
      </trkpt>
      <trkpt lat="45.0992" lon="5.308">
        <ele>233.26</ele>
        <time>2012-10-09T12:24:12Z</time>
      </trkpt>
      <trkpt lat="45.09847" lon="5.30726">
        <ele>234.22</ele>
        <time>2012-10-09T12:24:26Z</time>
      </trkpt>
      <trkpt lat="45.09773" lon="5.30652">
        <ele>233.74</ele>
        <time>2012-10-09T12:24:40Z</time>
      </trkpt>
      <trkpt lat="45.09698" lon="5.30577">
        <ele>233.74</ele>
        <time>2012-10-09T12:24:54Z</time>
      </trkpt>
      <trkpt lat="45.09622" lon="5.305">
        <ele>233.74</ele>
        <time>2012-10-09T12:25:08Z</time>
      </trkpt>
      <trkpt lat="45.09548" lon="5.30426">
        <ele>233.26</ele>
        <time>2012-10-09T12:25:21Z</time>
      </trkpt>
      <trkpt lat="45.09471" lon="5.30348">
        <ele>232.3</ele>
        <time>2012-10-09T12:25:35Z</time>
      </trkpt>
      <trkpt lat="45.09393" lon="5.3027">
        <ele>232.3</ele>
        <time>2012-10-09T12:25:49Z</time>
      </trkpt>
      <trkpt lat="45.09315" lon="5.30192">
        <ele>232.3</ele>
        <time>2012-10-09T12:26:03Z</time>
      </trkpt>
      <trkpt lat="45.09238" lon="5.30114">
        <ele>231.33</ele>
        <time>2012-10-09T12:26:17Z</time>
      </trkpt>
      <trkpt lat="45.09164" lon="5.3004">
        <ele>231.33</ele>
        <time>2012-10-09T12:26:30Z</time>
      </trkpt>
      <trkpt lat="45.09092" lon="5.29966">
        <ele>230.37</ele>
        <time>2012-10-09T12:26:43Z</time>
      </trkpt>
      <trkpt lat="45.09026" lon="5.29881">
        <ele>229.89</ele>
        <time>2012-10-09T12:26:57Z</time>
      </trkpt>
      <trkpt lat="45.08947" lon="5.29822">
        <ele>229.89</ele>
        <time>2012-10-09T12:27:11Z</time>
      </trkpt>
      <trkpt lat="45.08872" lon="5.29756">
        <ele>228.93</ele>
        <time>2012-10-09T12:27:28Z</time>
      </trkpt>
      <trkpt lat="45.08802" lon="5.29677">
        <ele>227.97</ele>
        <time>2012-10-09T12:28:40Z</time>
      </trkpt>
      <trkpt lat="45.08727" lon="5.29602">
        <ele>227.97</ele>
        <time>2012-10-09T12:28:54Z</time>
      </trkpt>
      <trkpt lat="45.08654" lon="5.29528">
        <ele>226.53</ele>
        <time>2012-10-09T12:29:07Z</time>
      </trkpt>
      <trkpt lat="45.08576" lon="5.2945">
        <ele>227.49</ele>
        <time>2012-10-09T12:29:21Z</time>
      </trkpt>
      <trkpt lat="45.08503" lon="5.29374">
        <ele>226.05</ele>
        <time>2012-10-09T12:29:34Z</time>
      </trkpt>
      <trkpt lat="45.08429" lon="5.29302">
        <ele>226.05</ele>
        <time>2012-10-09T12:30:23Z</time>
      </trkpt>
      <trkpt lat="45.08354" lon="5.29226">
        <ele>226.05</ele>
        <time>2012-10-09T12:30:41Z</time>
      </trkpt>
      <trkpt lat="45.08275" lon="5.29146">
        <ele>225.09</ele>
        <time>2012-10-09T12:30:56Z</time>
      </trkpt>
      <trkpt lat="45.08199" lon="5.29067">
        <ele>224.61</ele>
        <time>2012-10-09T12:31:10Z</time>
      </trkpt>
      <trkpt lat="45.08121" lon="5.28989">
        <ele>224.12</ele>
        <time>2012-10-09T12:31:24Z</time>
      </trkpt>
      <trkpt lat="45.08046" lon="5.28915">
        <ele>224.12</ele>
        <time>2012-10-09T12:31:38Z</time>
      </trkpt>
      <trkpt lat="45.07969" lon="5.28836">
        <ele>223.64</ele>
        <time>2012-10-09T12:31:54Z</time>
      </trkpt>
      <trkpt lat="45.07891" lon="5.28756">
        <ele>222.68</ele>
        <time>2012-10-09T12:32:08Z</time>
      </trkpt>
      <trkpt lat="45.07812" lon="5.28678">
        <ele>222.68</ele>
        <time>2012-10-09T12:32:22Z</time>
      </trkpt>
      <trkpt lat="45.07734" lon="5.28599">
        <ele>222.2</ele>
        <time>2012-10-09T12:32:36Z</time>
      </trkpt>
      <trkpt lat="45.07661" lon="5.28518">
        <ele>221.24</ele>
        <time>2012-10-09T12:32:50Z</time>
      </trkpt>
      <trkpt lat="45.07593" lon="5.28458">
        <ele>221.24</ele>
        <time>2012-10-09T12:33:06Z</time>
      </trkpt>
      <trkpt lat="45.07518" lon="5.28381">
        <ele>220.28</ele>
        <time>2012-10-09T12:33:20Z</time>
      </trkpt>
      <trkpt lat="45.0744" lon="5.28305">
        <ele>220.28</ele>
        <time>2012-10-09T12:33:34Z</time>
      </trkpt>
      <trkpt lat="45.07365" lon="5.28228">
        <ele>219.8</ele>
        <time>2012-10-09T12:33:51Z</time>
      </trkpt>
      <trkpt lat="45.07294" lon="5.28151">
        <ele>220.76</ele>
        <time>2012-10-09T12:34:06Z</time>
      </trkpt>
      <trkpt lat="45.07219" lon="5.2808">
        <ele>220.76</ele>
        <time>2012-10-09T12:34:20Z</time>
      </trkpt>
      <trkpt lat="45.07146" lon="5.28006">
        <ele>220.76</ele>
        <time>2012-10-09T12:34:34Z</time>
      </trkpt>
      <trkpt lat="45.07077" lon="5.27926">
        <ele>220.28</ele>
        <time>2012-10-09T12:34:48Z</time>
      </trkpt>
      <trkpt lat="45.07007" lon="5.27843">
        <ele>220.28</ele>
        <time>2012-10-09T12:35:02Z</time>
      </trkpt>
      <trkpt lat="45.06934" lon="5.27758">
        <ele>219.32</ele>
        <time>2012-10-09T12:35:16Z</time>
      </trkpt>
      <trkpt lat="45.06863" lon="5.27677">
        <ele>218.36</ele>
        <time>2012-10-09T12:35:29Z</time>
      </trkpt>
      <trkpt lat="45.06793" lon="5.27594">
        <ele>217.4</ele>
        <time>2012-10-09T12:35:43Z</time>
      </trkpt>
      <trkpt lat="45.06722" lon="5.27511">
        <ele>216.91</ele>
        <time>2012-10-09T12:35:56Z</time>
      </trkpt>
      <trkpt lat="45.06659" lon="5.2741">
        <ele>215.95</ele>
        <time>2012-10-09T12:36:09Z</time>
      </trkpt>
      <trkpt lat="45.06615" lon="5.27291">
        <ele>214.51</ele>
        <time>2012-10-09T12:36:22Z</time>
      </trkpt>
      <trkpt lat="45.06573" lon="5.27176">
        <ele>213.55</ele>
        <time>2012-10-09T12:36:34Z</time>
      </trkpt>
      <trkpt lat="45.0653" lon="5.2706">
        <ele>212.59</ele>
        <time>2012-10-09T12:36:46Z</time>
      </trkpt>
      <trkpt lat="45.06486" lon="5.2694">
        <ele>211.63</ele>
        <time>2012-10-09T12:36:59Z</time>
      </trkpt>
      <trkpt lat="45.06446" lon="5.26824">
        <ele>211.15</ele>
        <time>2012-10-09T12:37:13Z</time>
      </trkpt>
      <trkpt lat="45.06403" lon="5.26718">
        <ele>210.19</ele>
        <time>2012-10-09T12:37:30Z</time>
      </trkpt>
      <trkpt lat="45.0636" lon="5.26599">
        <ele>208.74</ele>
        <time>2012-10-09T12:37:44Z</time>
      </trkpt>
      <trkpt lat="45.06312" lon="5.26485">
        <ele>207.78</ele>
        <time>2012-10-09T12:37:57Z</time>
      </trkpt>
      <trkpt lat="45.06253" lon="5.2638">
        <ele>206.82</ele>
        <time>2012-10-09T12:38:10Z</time>
      </trkpt>
      <trkpt lat="45.06239" lon="5.26244">
        <ele>204.9</ele>
        <time>2012-10-09T12:38:23Z</time>
      </trkpt>
      <trkpt lat="45.06227" lon="5.26109">
        <ele>203.46</ele>
        <time>2012-10-09T12:38:37Z</time>
      </trkpt>
      <trkpt lat="45.06216" lon="5.25982">
        <ele>202.01</ele>
        <time>2012-10-09T12:38:49Z</time>
      </trkpt>
      <trkpt lat="45.06194" lon="5.25853">
        <ele>200.57</ele>
        <time>2012-10-09T12:39:03Z</time>
      </trkpt>
      <trkpt lat="45.06173" lon="5.25723">
        <ele>198.65</ele>
        <time>2012-10-09T12:39:17Z</time>
      </trkpt>
      <trkpt lat="45.06149" lon="5.25595">
        <ele>196.73</ele>
        <time>2012-10-09T12:39:32Z</time>
      </trkpt>
      <trkpt lat="45.06138" lon="5.25469">
        <ele>194.8</ele>
        <time>2012-10-09T12:40:37Z</time>
      </trkpt>
      <trkpt lat="45.06156" lon="5.25338">
        <ele>193.36</ele>
        <time>2012-10-09T12:40:53Z</time>
      </trkpt>
      <trkpt lat="45.06179" lon="5.25206">
        <ele>191.92</ele>
        <time>2012-10-09T12:41:07Z</time>
      </trkpt>
      <trkpt lat="45.06196" lon="5.25072">
        <ele>190</ele>
        <time>2012-10-09T12:41:22Z</time>
      </trkpt>
      <trkpt lat="45.062" lon="5.24939">
        <ele>189.04</ele>
        <time>2012-10-09T12:41:40Z</time>
      </trkpt>
      <trkpt lat="45.06186" lon="5.24801">
        <ele>186.63</ele>
        <time>2012-10-09T12:42:00Z</time>
      </trkpt>
      <trkpt lat="45.06121" lon="5.24727">
        <ele>185.19</ele>
        <time>2012-10-09T12:42:16Z</time>
      </trkpt>
      <trkpt lat="45.06031" lon="5.2469">
        <ele>188.08</ele>
        <time>2012-10-09T12:42:41Z</time>
      </trkpt>
      <trkpt lat="45.05989" lon="5.24583">
        <ele>190.96</ele>
        <time>2012-10-09T12:43:08Z</time>
      </trkpt>
      <trkpt lat="45.05985" lon="5.24455">
        <ele>194.32</ele>
        <time>2012-10-09T12:43:34Z</time>
      </trkpt>
      <trkpt lat="45.06017" lon="5.24336">
        <ele>196.25</ele>
        <time>2012-10-09T12:44:01Z</time>
      </trkpt>
      <trkpt lat="45.06094" lon="5.24274">
        <ele>199.13</ele>
        <time>2012-10-09T12:44:22Z</time>
      </trkpt>
      <trkpt lat="45.06191" lon="5.24266">
        <ele>201.53</ele>
        <time>2012-10-09T12:44:53Z</time>
      </trkpt>
      <trkpt lat="45.06283" lon="5.24251">
        <ele>203.46</ele>
        <time>2012-10-09T12:46:21Z</time>
      </trkpt>
      <trkpt lat="45.06376" lon="5.24205">
        <ele>202.98</ele>
        <time>2012-10-09T12:46:46Z</time>
      </trkpt>
      <trkpt lat="45.06461" lon="5.2415">
        <ele>202.01</ele>
        <time>2012-10-09T12:47:03Z</time>
      </trkpt>
      <trkpt lat="45.0655" lon="5.24094">
        <ele>200.57</ele>
        <time>2012-10-09T12:47:18Z</time>
      </trkpt>
      <trkpt lat="45.06567" lon="5.2397">
        <ele>199.13</ele>
        <time>2012-10-09T12:47:31Z</time>
      </trkpt>
      <trkpt lat="45.06572" lon="5.23837">
        <ele>200.09</ele>
        <time>2012-10-09T12:47:44Z</time>
      </trkpt>
      <trkpt lat="45.06558" lon="5.23709">
        <ele>202.49</ele>
        <time>2012-10-09T12:48:00Z</time>
      </trkpt>
      <trkpt lat="45.06599" lon="5.23591">
        <ele>205.86</ele>
        <time>2012-10-09T12:48:20Z</time>
      </trkpt>
      <trkpt lat="45.06618" lon="5.23459">
        <ele>208.74</ele>
        <time>2012-10-09T12:48:43Z</time>
      </trkpt>
      <trkpt lat="45.06617" lon="5.2332">
        <ele>209.22</ele>
        <time>2012-10-09T12:49:02Z</time>
      </trkpt>
      <trkpt lat="45.06622" lon="5.23181">
        <ele>209.7</ele>
        <time>2012-10-09T12:49:20Z</time>
      </trkpt>
      <trkpt lat="45.06618" lon="5.23049">
        <ele>209.22</ele>
        <time>2012-10-09T12:55:39Z</time>
      </trkpt>
      <trkpt lat="45.06603" lon="5.22923">
        <ele>209.7</ele>
        <time>2012-10-09T12:55:56Z</time>
      </trkpt>
      <trkpt lat="45.06572" lon="5.22804">
        <ele>209.7</ele>
        <time>2012-10-09T12:56:12Z</time>
      </trkpt>
      <trkpt lat="45.06536" lon="5.22681">
        <ele>209.22</ele>
        <time>2012-10-09T12:56:28Z</time>
      </trkpt>
      <trkpt lat="45.06501" lon="5.22557">
        <ele>209.22</ele>
        <time>2012-10-09T12:56:43Z</time>
      </trkpt>
      <trkpt lat="45.06466" lon="5.22431">
        <ele>209.7</ele>
        <time>2012-10-09T12:56:58Z</time>
      </trkpt>
      <trkpt lat="45.06429" lon="5.22307">
        <ele>210.67</ele>
        <time>2012-10-09T12:57:13Z</time>
      </trkpt>
      <trkpt lat="45.06394" lon="5.22183">
        <ele>209.22</ele>
        <time>2012-10-09T12:57:28Z</time>
      </trkpt>
      <trkpt lat="45.06359" lon="5.22059">
        <ele>209.22</ele>
        <time>2012-10-09T12:57:42Z</time>
      </trkpt>
      <trkpt lat="45.06323" lon="5.21936">
        <ele>208.74</ele>
        <time>2012-10-09T12:57:56Z</time>
      </trkpt>
      <trkpt lat="45.06286" lon="5.2181">
        <ele>209.22</ele>
        <time>2012-10-09T12:58:10Z</time>
      </trkpt>
      <trkpt lat="45.06252" lon="5.21689">
        <ele>209.22</ele>
        <time>2012-10-09T12:58:24Z</time>
      </trkpt>
      <trkpt lat="45.06217" lon="5.21565">
        <ele>209.7</ele>
        <time>2012-10-09T12:58:39Z</time>
      </trkpt>
      <trkpt lat="45.06183" lon="5.2144">
        <ele>208.74</ele>
        <time>2012-10-09T12:58:54Z</time>
      </trkpt>
      <trkpt lat="45.06151" lon="5.21314">
        <ele>208.74</ele>
        <time>2012-10-09T12:59:09Z</time>
      </trkpt>
      <trkpt lat="45.06116" lon="5.21191">
        <ele>208.26</ele>
        <time>2012-10-09T12:59:24Z</time>
      </trkpt>
      <trkpt lat="45.0608" lon="5.21068">
        <ele>208.74</ele>
        <time>2012-10-09T12:59:39Z</time>
      </trkpt>
      <trkpt lat="45.06044" lon="5.20949">
        <ele>208.74</ele>
        <time>2012-10-09T12:59:53Z</time>
      </trkpt>
      <trkpt lat="45.06006" lon="5.20828">
        <ele>209.22</ele>
        <time>2012-10-09T13:00:07Z</time>
      </trkpt>
      <trkpt lat="45.05971" lon="5.20704">
        <ele>208.26</ele>
        <time>2012-10-09T13:00:21Z</time>
      </trkpt>
      <trkpt lat="45.05935" lon="5.20578">
        <ele>207.78</ele>
        <time>2012-10-09T13:00:35Z</time>
      </trkpt>
      <trkpt lat="45.059" lon="5.20458">
        <ele>207.3</ele>
        <time>2012-10-09T13:00:48Z</time>
      </trkpt>
      <trkpt lat="45.05865" lon="5.20331">
        <ele>206.34</ele>
        <time>2012-10-09T13:01:01Z</time>
      </trkpt>
      <trkpt lat="45.05829" lon="5.20206">
        <ele>206.82</ele>
        <time>2012-10-09T13:01:14Z</time>
      </trkpt>
      <trkpt lat="45.05796" lon="5.20086">
        <ele>206.34</ele>
        <time>2012-10-09T13:01:27Z</time>
      </trkpt>
      <trkpt lat="45.05761" lon="5.19964">
        <ele>206.34</ele>
        <time>2012-10-09T13:01:40Z</time>
      </trkpt>
      <trkpt lat="45.05728" lon="5.19839">
        <ele>207.3</ele>
        <time>2012-10-09T13:01:53Z</time>
      </trkpt>
      <trkpt lat="45.05695" lon="5.19715">
        <ele>207.78</ele>
        <time>2012-10-09T13:02:07Z</time>
      </trkpt>
      <trkpt lat="45.05658" lon="5.19592">
        <ele>209.7</ele>
        <time>2012-10-09T13:02:23Z</time>
      </trkpt>
      <trkpt lat="45.05619" lon="5.19471">
        <ele>213.55</ele>
        <time>2012-10-09T13:02:40Z</time>
      </trkpt>
      <trkpt lat="45.05584" lon="5.1935">
        <ele>214.51</ele>
        <time>2012-10-09T13:02:58Z</time>
      </trkpt>
      <trkpt lat="45.0555" lon="5.19229">
        <ele>214.99</ele>
        <time>2012-10-09T13:03:14Z</time>
      </trkpt>
      <trkpt lat="45.05514" lon="5.19104">
        <ele>215.47</ele>
        <time>2012-10-09T13:03:30Z</time>
      </trkpt>
      <trkpt lat="45.05479" lon="5.18983">
        <ele>215.47</ele>
        <time>2012-10-09T13:03:45Z</time>
      </trkpt>
      <trkpt lat="45.05444" lon="5.18858">
        <ele>215.95</ele>
        <time>2012-10-09T13:04:00Z</time>
      </trkpt>
      <trkpt lat="45.05409" lon="5.18735">
        <ele>216.91</ele>
        <time>2012-10-09T13:04:15Z</time>
      </trkpt>
      <trkpt lat="45.05374" lon="5.18615">
        <ele>216.91</ele>
        <time>2012-10-09T13:04:29Z</time>
      </trkpt>
      <trkpt lat="45.05339" lon="5.18492">
        <ele>216.91</ele>
        <time>2012-10-09T13:04:43Z</time>
      </trkpt>
      <trkpt lat="45.05304" lon="5.18367">
        <ele>216.91</ele>
        <time>2012-10-09T13:04:58Z</time>
      </trkpt>
      <trkpt lat="45.05269" lon="5.18243">
        <ele>216.91</ele>
        <time>2012-10-09T13:05:12Z</time>
      </trkpt>
      <trkpt lat="45.05233" lon="5.18121">
        <ele>215.47</ele>
        <time>2012-10-09T13:05:26Z</time>
      </trkpt>
      <trkpt lat="45.052" lon="5.18003">
        <ele>214.99</ele>
        <time>2012-10-09T13:05:39Z</time>
      </trkpt>
      <trkpt lat="45.05166" lon="5.17879">
        <ele>215.47</ele>
        <time>2012-10-09T13:05:52Z</time>
      </trkpt>
      <trkpt lat="45.0513" lon="5.17752">
        <ele>214.99</ele>
        <time>2012-10-09T13:06:05Z</time>
      </trkpt>
      <trkpt lat="45.05093" lon="5.17634">
        <ele>214.51</ele>
        <time>2012-10-09T13:06:17Z</time>
      </trkpt>
      <trkpt lat="45.05058" lon="5.17511">
        <ele>213.55</ele>
        <time>2012-10-09T13:06:29Z</time>
      </trkpt>
      <trkpt lat="45.05012" lon="5.17398">
        <ele>214.03</ele>
        <time>2012-10-09T13:06:41Z</time>
      </trkpt>
      <trkpt lat="45.04952" lon="5.17301">
        <ele>214.51</ele>
        <time>2012-10-09T13:06:54Z</time>
      </trkpt>
      <trkpt lat="45.04892" lon="5.17198">
        <ele>214.03</ele>
        <time>2012-10-09T13:07:08Z</time>
      </trkpt>
      <trkpt lat="45.04862" lon="5.17071">
        <ele>215.47</ele>
        <time>2012-10-09T13:07:22Z</time>
      </trkpt>
      <trkpt lat="45.04873" lon="5.16942">
        <ele>215.95</ele>
        <time>2012-10-09T13:07:36Z</time>
      </trkpt>
      <trkpt lat="45.04908" lon="5.16819">
        <ele>214.99</ele>
        <time>2012-10-09T13:07:51Z</time>
      </trkpt>
      <trkpt lat="45.04937" lon="5.16693">
        <ele>214.03</ele>
        <time>2012-10-09T13:08:05Z</time>
      </trkpt>
      <trkpt lat="45.04942" lon="5.16563">
        <ele>212.59</ele>
        <time>2012-10-09T13:08:18Z</time>
      </trkpt>
      <trkpt lat="45.04932" lon="5.16428">
        <ele>211.15</ele>
        <time>2012-10-09T13:08:31Z</time>
      </trkpt>
      <trkpt lat="45.04935" lon="5.16297">
        <ele>210.67</ele>
        <time>2012-10-09T13:08:45Z</time>
      </trkpt>
      <trkpt lat="45.04913" lon="5.16175">
        <ele>210.67</ele>
        <time>2012-10-09T13:08:58Z</time>
      </trkpt>
      <trkpt lat="45.04904" lon="5.16042">
        <ele>209.7</ele>
        <time>2012-10-09T13:09:12Z</time>
      </trkpt>
      <trkpt lat="45.04905" lon="5.15909">
        <ele>210.19</ele>
        <time>2012-10-09T13:09:26Z</time>
      </trkpt>
      <trkpt lat="45.04916" lon="5.15779">
        <ele>209.22</ele>
        <time>2012-10-09T13:09:39Z</time>
      </trkpt>
      <trkpt lat="45.04919" lon="5.15651">
        <ele>208.74</ele>
        <time>2012-10-09T13:09:52Z</time>
      </trkpt>
      <trkpt lat="45.04929" lon="5.15524">
        <ele>208.26</ele>
        <time>2012-10-09T13:10:05Z</time>
      </trkpt>
      <trkpt lat="45.04949" lon="5.154">
        <ele>206.82</ele>
        <time>2012-10-09T13:10:56Z</time>
      </trkpt>
      <trkpt lat="45.04994" lon="5.15281">
        <ele>202.49</ele>
        <time>2012-10-09T13:11:14Z</time>
      </trkpt>
      <trkpt lat="45.05038" lon="5.15163">
        <ele>198.17</ele>
        <time>2012-10-09T13:11:26Z</time>
      </trkpt>
      <trkpt lat="45.05038" lon="5.15022">
        <ele>191.92</ele>
        <time>2012-10-09T13:11:37Z</time>
      </trkpt>
      <trkpt lat="45.05037" lon="5.14892">
        <ele>188.56</ele>
        <time>2012-10-09T13:11:46Z</time>
      </trkpt>
      <trkpt lat="45.05037" lon="5.14758">
        <ele>182.79</ele>
        <time>2012-10-09T13:11:55Z</time>
      </trkpt>
      <trkpt lat="45.05036" lon="5.1462">
        <ele>177.02</ele>
        <time>2012-10-09T13:12:04Z</time>
      </trkpt>
      <trkpt lat="45.05021" lon="5.1449">
        <ele>172.69</ele>
        <time>2012-10-09T13:12:13Z</time>
      </trkpt>
      <trkpt lat="45.04957" lon="5.14388">
        <ele>167.41</ele>
        <time>2012-10-09T13:12:22Z</time>
      </trkpt>
      <trkpt lat="45.04966" lon="5.14255">
        <ele>166.45</ele>
        <time>2012-10-09T13:12:33Z</time>
      </trkpt>
      <trkpt lat="45.04939" lon="5.14134">
        <ele>166.93</ele>
        <time>2012-10-09T13:12:48Z</time>
      </trkpt>
      <trkpt lat="45.0487" lon="5.14045">
        <ele>166.93</ele>
        <time>2012-10-09T13:13:03Z</time>
      </trkpt>
      <trkpt lat="45.048" lon="5.13956">
        <ele>167.41</ele>
        <time>2012-10-09T13:13:18Z</time>
      </trkpt>
      <trkpt lat="45.04733" lon="5.13871">
        <ele>166.93</ele>
        <time>2012-10-09T13:13:33Z</time>
      </trkpt>
      <trkpt lat="45.04662" lon="5.13781">
        <ele>167.41</ele>
        <time>2012-10-09T13:13:48Z</time>
      </trkpt>
      <trkpt lat="45.04594" lon="5.13695">
        <ele>167.41</ele>
        <time>2012-10-09T13:14:02Z</time>
      </trkpt>
      <trkpt lat="45.04521" lon="5.13611">
        <ele>166.93</ele>
        <time>2012-10-09T13:14:16Z</time>
      </trkpt>
      <trkpt lat="45.04449" lon="5.13533">
        <ele>166.93</ele>
        <time>2012-10-09T13:14:30Z</time>
      </trkpt>
      <trkpt lat="45.04377" lon="5.13456">
        <ele>166.93</ele>
        <time>2012-10-09T13:14:44Z</time>
      </trkpt>
      <trkpt lat="45.04305" lon="5.13377">
        <ele>166.93</ele>
        <time>2012-10-09T13:14:58Z</time>
      </trkpt>
      <trkpt lat="45.04231" lon="5.13296">
        <ele>167.41</ele>
        <time>2012-10-09T13:15:12Z</time>
      </trkpt>
      <trkpt lat="45.04157" lon="5.13212">
        <ele>167.41</ele>
        <time>2012-10-09T13:15:26Z</time>
      </trkpt>
      <trkpt lat="45.04086" lon="5.13133">
        <ele>166.93</ele>
        <time>2012-10-09T13:15:39Z</time>
      </trkpt>
      <trkpt lat="45.04013" lon="5.13052">
        <ele>166.45</ele>
        <time>2012-10-09T13:15:53Z</time>
      </trkpt>
      <trkpt lat="45.03941" lon="5.12963">
        <ele>166.93</ele>
        <time>2012-10-09T13:16:07Z</time>
      </trkpt>
      <trkpt lat="45.03876" lon="5.12864">
        <ele>166.93</ele>
        <time>2012-10-09T13:16:21Z</time>
      </trkpt>
      <trkpt lat="45.03818" lon="5.12763">
        <ele>165.48</ele>
        <time>2012-10-09T13:16:35Z</time>
      </trkpt>
      <trkpt lat="45.03764" lon="5.12657">
        <ele>165.48</ele>
        <time>2012-10-09T13:16:49Z</time>
      </trkpt>
      <trkpt lat="45.03719" lon="5.12544">
        <ele>165</ele>
        <time>2012-10-09T13:17:03Z</time>
      </trkpt>
      <trkpt lat="45.03673" lon="5.12425">
        <ele>165.96</ele>
        <time>2012-10-09T13:17:17Z</time>
      </trkpt>
      <trkpt lat="45.03632" lon="5.12301">
        <ele>167.41</ele>
        <time>2012-10-09T13:17:32Z</time>
      </trkpt>
      <trkpt lat="45.03596" lon="5.12185">
        <ele>166.93</ele>
        <time>2012-10-09T13:17:47Z</time>
      </trkpt>
      <trkpt lat="45.03559" lon="5.12064">
        <ele>168.85</ele>
        <time>2012-10-09T13:18:04Z</time>
      </trkpt>
      <trkpt lat="45.0352" lon="5.1194">
        <ele>170.77</ele>
        <time>2012-10-09T13:18:22Z</time>
      </trkpt>
      <trkpt lat="45.03491" lon="5.11814">
        <ele>172.21</ele>
        <time>2012-10-09T13:18:39Z</time>
      </trkpt>
      <trkpt lat="45.03469" lon="5.11684">
        <ele>172.69</ele>
        <time>2012-10-09T13:18:56Z</time>
      </trkpt>
      <trkpt lat="45.03449" lon="5.11556">
        <ele>174.14</ele>
        <time>2012-10-09T13:19:13Z</time>
      </trkpt>
      <trkpt lat="45.03429" lon="5.11428">
        <ele>175.1</ele>
        <time>2012-10-09T13:19:31Z</time>
      </trkpt>
      <trkpt lat="45.03411" lon="5.11304">
        <ele>177.02</ele>
        <time>2012-10-09T13:19:49Z</time>
      </trkpt>
      <trkpt lat="45.03393" lon="5.11175">
        <ele>178.94</ele>
        <time>2012-10-09T13:20:07Z</time>
      </trkpt>
      <trkpt lat="45.03391" lon="5.11044">
        <ele>180.87</ele>
        <time>2012-10-09T13:20:24Z</time>
      </trkpt>
      <trkpt lat="45.03401" lon="5.10914">
        <ele>181.83</ele>
        <time>2012-10-09T13:20:41Z</time>
      </trkpt>
      <trkpt lat="45.0341" lon="5.10786">
        <ele>182.79</ele>
        <time>2012-10-09T13:20:56Z</time>
      </trkpt>
      <trkpt lat="45.0342" lon="5.10655">
        <ele>184.23</ele>
        <time>2012-10-09T13:21:11Z</time>
      </trkpt>
      <trkpt lat="45.0343" lon="5.10522">
        <ele>184.71</ele>
        <time>2012-10-09T13:21:26Z</time>
      </trkpt>
      <trkpt lat="45.03439" lon="5.10394">
        <ele>185.19</ele>
        <time>2012-10-09T13:21:41Z</time>
      </trkpt>
      <trkpt lat="45.03448" lon="5.10261">
        <ele>185.19</ele>
        <time>2012-10-09T13:21:56Z</time>
      </trkpt>
      <trkpt lat="45.03458" lon="5.10131">
        <ele>185.67</ele>
        <time>2012-10-09T13:22:10Z</time>
      </trkpt>
      <trkpt lat="45.03467" lon="5.1">
        <ele>185.19</ele>
        <time>2012-10-09T13:22:24Z</time>
      </trkpt>
      <trkpt lat="45.03475" lon="5.09867">
        <ele>183.75</ele>
        <time>2012-10-09T13:22:38Z</time>
      </trkpt>
      <trkpt lat="45.03484" lon="5.09737">
        <ele>181.35</ele>
        <time>2012-10-09T13:22:50Z</time>
      </trkpt>
      <trkpt lat="45.03494" lon="5.09604">
        <ele>178.94</ele>
        <time>2012-10-09T13:23:01Z</time>
      </trkpt>
      <trkpt lat="45.03502" lon="5.09474">
        <ele>177.02</ele>
        <time>2012-10-09T13:23:11Z</time>
      </trkpt>
      <trkpt lat="45.03513" lon="5.09345">
        <ele>178.94</ele>
        <time>2012-10-09T13:23:23Z</time>
      </trkpt>
      <trkpt lat="45.03523" lon="5.09213">
        <ele>179.9</ele>
        <time>2012-10-09T13:23:38Z</time>
      </trkpt>
      <trkpt lat="45.03532" lon="5.09085">
        <ele>182.79</ele>
        <time>2012-10-09T13:23:54Z</time>
      </trkpt>
      <trkpt lat="45.03541" lon="5.08957">
        <ele>183.75</ele>
        <time>2012-10-09T13:24:10Z</time>
      </trkpt>
      <trkpt lat="45.0355" lon="5.0883">
        <ele>183.75</ele>
        <time>2012-10-09T13:24:25Z</time>
      </trkpt>
      <trkpt lat="45.03561" lon="5.08701">
        <ele>183.75</ele>
        <time>2012-10-09T13:24:40Z</time>
      </trkpt>
      <trkpt lat="45.0357" lon="5.0857">
        <ele>182.79</ele>
        <time>2012-10-09T13:24:55Z</time>
      </trkpt>
      <trkpt lat="45.03577" lon="5.08443">
        <ele>182.79</ele>
        <time>2012-10-09T13:25:10Z</time>
      </trkpt>
      <trkpt lat="45.03585" lon="5.08316">
        <ele>182.31</ele>
        <time>2012-10-09T13:25:25Z</time>
      </trkpt>
      <trkpt lat="45.03615" lon="5.08208">
        <ele>181.83</ele>
        <time>2012-10-09T13:25:47Z</time>
      </trkpt>
      <trkpt lat="45.03603" lon="5.0808">
        <ele>180.38</ele>
        <time>2012-10-09T13:26:05Z</time>
      </trkpt>
      <trkpt lat="45.03612" lon="5.07957">
        <ele>179.42</ele>
        <time>2012-10-09T13:28:44Z</time>
      </trkpt>
      <trkpt lat="45.03621" lon="5.07825">
        <ele>178.94</ele>
        <time>2012-10-09T13:29:03Z</time>
      </trkpt>
      <trkpt lat="45.0363" lon="5.07697">
        <ele>178.94</ele>
        <time>2012-10-09T13:29:19Z</time>
      </trkpt>
      <trkpt lat="45.03638" lon="5.07562">
        <ele>177.98</ele>
        <time>2012-10-09T13:29:35Z</time>
      </trkpt>
      <trkpt lat="45.03647" lon="5.07426">
        <ele>177.02</ele>
        <time>2012-10-09T13:29:50Z</time>
      </trkpt>
      <trkpt lat="45.03655" lon="5.0729">
        <ele>177.5</ele>
        <time>2012-10-09T13:30:05Z</time>
      </trkpt>
      <trkpt lat="45.03672" lon="5.07157">
        <ele>177.5</ele>
        <time>2012-10-09T13:30:20Z</time>
      </trkpt>
      <trkpt lat="45.03713" lon="5.07039">
        <ele>175.58</ele>
        <time>2012-10-09T13:30:35Z</time>
      </trkpt>
      <trkpt lat="45.03758" lon="5.06926">
        <ele>175.58</ele>
        <time>2012-10-09T13:30:50Z</time>
      </trkpt>
      <trkpt lat="45.03802" lon="5.06815">
        <ele>175.1</ele>
        <time>2012-10-09T13:31:05Z</time>
      </trkpt>
      <trkpt lat="45.03847" lon="5.067">
        <ele>174.14</ele>
        <time>2012-10-09T13:31:20Z</time>
      </trkpt>
      <trkpt lat="45.03892" lon="5.06584">
        <ele>173.17</ele>
        <time>2012-10-09T13:31:35Z</time>
      </trkpt>
      <trkpt lat="45.03929" lon="5.06467">
        <ele>172.69</ele>
        <time>2012-10-09T13:31:50Z</time>
      </trkpt>
      <trkpt lat="45.03952" lon="5.06334">
        <ele>171.73</ele>
        <time>2012-10-09T13:32:05Z</time>
      </trkpt>
      <trkpt lat="45.03967" lon="5.06209">
        <ele>170.29</ele>
        <time>2012-10-09T13:32:20Z</time>
      </trkpt>
      <trkpt lat="45.0398" lon="5.06075">
        <ele>169.81</ele>
        <time>2012-10-09T13:32:35Z</time>
      </trkpt>
      <trkpt lat="45.03991" lon="5.05944">
        <ele>169.33</ele>
        <time>2012-10-09T13:32:50Z</time>
      </trkpt>
      <trkpt lat="45.04004" lon="5.05809">
        <ele>169.33</ele>
        <time>2012-10-09T13:33:05Z</time>
      </trkpt>
      <trkpt lat="45.04018" lon="5.05675">
        <ele>166.93</ele>
        <time>2012-10-09T13:33:20Z</time>
      </trkpt>
      <trkpt lat="45.04024" lon="5.05552">
        <ele>167.89</ele>
        <time>2012-10-09T13:33:46Z</time>
      </trkpt>
      <trkpt lat="45.04024" lon="5.05516">
        <ele>165.48</ele>
        <time>2012-10-09T13:37:00Z</time>
      </trkpt>
      <trkpt lat="45.03947" lon="5.05558">
        <ele>167.89</ele>
        <time>2012-10-09T13:37:23Z</time>
      </trkpt>
      <trkpt lat="45.03855" lon="5.05538">
        <ele>170.77</ele>
        <time>2012-10-09T13:37:43Z</time>
      </trkpt>
      <trkpt lat="45.03766" lon="5.0551">
        <ele>171.25</ele>
        <time>2012-10-09T13:38:03Z</time>
      </trkpt>
      <trkpt lat="45.03682" lon="5.0545">
        <ele>169.33</ele>
        <time>2012-10-09T13:38:19Z</time>
      </trkpt>
      <trkpt lat="45.03605" lon="5.05382">
        <ele>168.85</ele>
        <time>2012-10-09T13:38:32Z</time>
      </trkpt>
      <trkpt lat="45.03526" lon="5.05312">
        <ele>168.85</ele>
        <time>2012-10-09T13:38:58Z</time>
      </trkpt>
      <trkpt lat="45.03442" lon="5.05239">
        <ele>169.81</ele>
        <time>2012-10-09T13:39:28Z</time>
      </trkpt>
      <trkpt lat="45.03363" lon="5.05171">
        <ele>170.29</ele>
        <time>2012-10-09T13:39:45Z</time>
      </trkpt>
      <trkpt lat="45.03284" lon="5.05103">
        <ele>169.81</ele>
        <time>2012-10-09T13:40:01Z</time>
      </trkpt>
      <trkpt lat="45.03209" lon="5.05022">
        <ele>167.41</ele>
        <time>2012-10-09T13:40:15Z</time>
      </trkpt>
      <trkpt lat="45.03171" lon="5.04901">
        <ele>164.04</ele>
        <time>2012-10-09T13:40:26Z</time>
      </trkpt>
      <trkpt lat="45.03141" lon="5.04778">
        <ele>160.2</ele>
        <time>2012-10-09T13:40:37Z</time>
      </trkpt>
      <trkpt lat="45.03061" lon="5.0473">
        <ele>157.31</ele>
        <time>2012-10-09T13:40:48Z</time>
      </trkpt>
      <trkpt lat="45.02967" lon="5.04729">
        <ele>159.72</ele>
        <time>2012-10-09T13:41:02Z</time>
      </trkpt>
      <trkpt lat="45.02877" lon="5.04692">
        <ele>165.48</ele>
        <time>2012-10-09T13:41:24Z</time>
      </trkpt>
      <trkpt lat="45.02799" lon="5.04623">
        <ele>170.29</ele>
        <time>2012-10-09T13:41:49Z</time>
      </trkpt>
      <trkpt lat="45.02734" lon="5.04526">
        <ele>174.62</ele>
        <time>2012-10-09T13:42:19Z</time>
      </trkpt>
      <trkpt lat="45.02673" lon="5.04432">
        <ele>179.9</ele>
        <time>2012-10-09T13:42:46Z</time>
      </trkpt>
      <trkpt lat="45.02611" lon="5.04333">
        <ele>184.71</ele>
        <time>2012-10-09T13:43:13Z</time>
      </trkpt>
      <trkpt lat="45.02548" lon="5.04236">
        <ele>189.04</ele>
        <time>2012-10-09T13:43:38Z</time>
      </trkpt>
      <trkpt lat="45.02485" lon="5.04135">
        <ele>192.4</ele>
        <time>2012-10-09T13:44:01Z</time>
      </trkpt>
      <trkpt lat="45.02419" lon="5.04041">
        <ele>193.84</ele>
        <time>2012-10-09T13:44:22Z</time>
      </trkpt>
      <trkpt lat="45.02372" lon="5.03942">
        <ele>193.84</ele>
        <time>2012-10-09T13:44:45Z</time>
      </trkpt>
      <trkpt lat="45.02308" lon="5.03856">
        <ele>194.32</ele>
        <time>2012-10-09T13:45:06Z</time>
      </trkpt>
      <trkpt lat="45.02245" lon="5.03751">
        <ele>194.32</ele>
        <time>2012-10-09T13:45:23Z</time>
      </trkpt>
      <trkpt lat="45.02182" lon="5.03649">
        <ele>194.8</ele>
        <time>2012-10-09T13:45:39Z</time>
      </trkpt>
      <trkpt lat="45.02119" lon="5.03551">
        <ele>193.84</ele>
        <time>2012-10-09T13:45:54Z</time>
      </trkpt>
      <trkpt lat="45.02058" lon="5.03451">
        <ele>194.8</ele>
        <time>2012-10-09T13:46:09Z</time>
      </trkpt>
      <trkpt lat="45.01995" lon="5.03363">
        <ele>192.88</ele>
        <time>2012-10-09T13:46:25Z</time>
      </trkpt>
      <trkpt lat="45.01991" lon="5.03259">
        <ele>193.36</ele>
        <time>2012-10-09T13:46:44Z</time>
      </trkpt>
      <trkpt lat="45.01917" lon="5.03191">
        <ele>192.4</ele>
        <time>2012-10-09T13:47:03Z</time>
      </trkpt>
      <trkpt lat="45.01853" lon="5.03091">
        <ele>192.4</ele>
        <time>2012-10-09T13:47:19Z</time>
      </trkpt>
      <trkpt lat="45.01789" lon="5.02993">
        <ele>191.44</ele>
        <time>2012-10-09T13:47:34Z</time>
      </trkpt>
      <trkpt lat="45.01724" lon="5.02896">
        <ele>190.96</ele>
        <time>2012-10-09T13:47:49Z</time>
      </trkpt>
      <trkpt lat="45.01662" lon="5.02802">
        <ele>191.44</ele>
        <time>2012-10-09T13:48:03Z</time>
      </trkpt>
      <trkpt lat="45.01603" lon="5.02705">
        <ele>191.44</ele>
        <time>2012-10-09T13:48:17Z</time>
      </trkpt>
      <trkpt lat="45.01538" lon="5.02602">
        <ele>189.04</ele>
        <time>2012-10-09T13:48:31Z</time>
      </trkpt>
      <trkpt lat="45.01476" lon="5.02504">
        <ele>190</ele>
        <time>2012-10-09T13:48:46Z</time>
      </trkpt>
      <trkpt lat="45.01414" lon="5.02406">
        <ele>190</ele>
        <time>2012-10-09T13:49:01Z</time>
      </trkpt>
      <trkpt lat="45.01354" lon="5.02311">
        <ele>189.04</ele>
        <time>2012-10-09T13:49:15Z</time>
      </trkpt>
      <trkpt lat="45.01324" lon="5.02189">
        <ele>188.56</ele>
        <time>2012-10-09T13:49:29Z</time>
      </trkpt>
      <trkpt lat="45.01268" lon="5.02086">
        <ele>186.63</ele>
        <time>2012-10-09T13:49:42Z</time>
      </trkpt>
      <trkpt lat="45.01195" lon="5.0201">
        <ele>183.75</ele>
        <time>2012-10-09T13:49:52Z</time>
      </trkpt>
      <trkpt lat="45.0112" lon="5.01924">
        <ele>184.71</ele>
        <time>2012-10-09T13:50:03Z</time>
      </trkpt>
      <trkpt lat="45.01057" lon="5.01827">
        <ele>188.08</ele>
        <time>2012-10-09T13:50:19Z</time>
      </trkpt>
      <trkpt lat="45.00996" lon="5.01729">
        <ele>189.04</ele>
        <time>2012-10-09T13:50:35Z</time>
      </trkpt>
      <trkpt lat="45.00935" lon="5.01632">
        <ele>187.59</ele>
        <time>2012-10-09T13:50:49Z</time>
      </trkpt>
      <trkpt lat="45.00874" lon="5.0153">
        <ele>187.59</ele>
        <time>2012-10-09T13:51:03Z</time>
      </trkpt>
      <trkpt lat="45.00813" lon="5.01432">
        <ele>186.15</ele>
        <time>2012-10-09T13:51:15Z</time>
      </trkpt>
      <trkpt lat="45.00752" lon="5.01336">
        <ele>186.63</ele>
        <time>2012-10-09T13:51:27Z</time>
      </trkpt>
      <trkpt lat="45.00688" lon="5.01235">
        <ele>187.11</ele>
        <time>2012-10-09T13:51:42Z</time>
      </trkpt>
      <trkpt lat="45.00626" lon="5.01136">
        <ele>187.11</ele>
        <time>2012-10-09T13:51:56Z</time>
      </trkpt>
      <trkpt lat="45.00564" lon="5.01037">
        <ele>186.63</ele>
        <time>2012-10-09T13:52:11Z</time>
      </trkpt>
      <trkpt lat="45.00501" lon="5.00938">
        <ele>186.15</ele>
        <time>2012-10-09T13:52:25Z</time>
      </trkpt>
      <trkpt lat="45.00441" lon="5.00841">
        <ele>185.19</ele>
        <time>2012-10-09T13:52:38Z</time>
      </trkpt>
      <trkpt lat="45.00379" lon="5.00742">
        <ele>185.67</ele>
        <time>2012-10-09T13:52:51Z</time>
      </trkpt>
      <trkpt lat="45.00317" lon="5.00644">
        <ele>184.23</ele>
        <time>2012-10-09T13:53:04Z</time>
      </trkpt>
      <trkpt lat="45.00256" lon="5.00546">
        <ele>184.23</ele>
        <time>2012-10-09T13:53:16Z</time>
      </trkpt>
      <trkpt lat="45.00193" lon="5.00447">
        <ele>183.27</ele>
        <time>2012-10-09T13:53:28Z</time>
      </trkpt>
      <trkpt lat="45.00143" lon="5.00343">
        <ele>184.23</ele>
        <time>2012-10-09T13:53:40Z</time>
      </trkpt>
      <trkpt lat="45.00139" lon="5.00214">
        <ele>185.67</ele>
        <time>2012-10-09T13:53:55Z</time>
      </trkpt>
      <trkpt lat="45.00111" lon="5.00092">
        <ele>185.19</ele>
        <time>2012-10-09T13:54:09Z</time>
      </trkpt>
      <trkpt lat="45.00069" lon="4.99973">
        <ele>185.19</ele>
        <time>2012-10-09T13:54:23Z</time>
      </trkpt>
      <trkpt lat="45.00063" lon="4.99847">
        <ele>184.71</ele>
        <time>2012-10-09T13:54:37Z</time>
      </trkpt>
      <trkpt lat="45.00002" lon="4.9975">
        <ele>183.27</ele>
        <time>2012-10-09T13:54:50Z</time>
      </trkpt>
      <trkpt lat="44.99937" lon="4.99668">
        <ele>183.27</ele>
        <time>2012-10-09T13:55:09Z</time>
      </trkpt>
      <trkpt lat="44.99863" lon="4.99738">
        <ele>180.87</ele>
        <time>2012-10-09T13:55:26Z</time>
      </trkpt>
      <trkpt lat="44.9979" lon="4.99818">
        <ele>179.9</ele>
        <time>2012-10-09T13:55:38Z</time>
      </trkpt>
      <trkpt lat="44.99727" lon="4.99919">
        <ele>180.87</ele>
        <time>2012-10-09T13:55:52Z</time>
      </trkpt>
      <trkpt lat="44.99684" lon="5.00027">
        <ele>183.27</ele>
        <time>2012-10-09T13:56:13Z</time>
      </trkpt>
      <trkpt lat="44.99608" lon="4.99959">
        <ele>183.75</ele>
        <time>2012-10-09T13:56:31Z</time>
      </trkpt>
      <trkpt lat="44.9954" lon="4.99875">
        <ele>184.23</ele>
        <time>2012-10-09T13:56:47Z</time>
      </trkpt>
      <trkpt lat="44.99543" lon="4.99761">
        <ele>184.71</ele>
        <time>2012-10-09T13:57:03Z</time>
      </trkpt>
      <trkpt lat="44.99548" lon="4.99677">
        <ele>182.31</ele>
        <time>2012-10-09T14:06:01Z</time>
      </trkpt>
      <trkpt lat="44.99535" lon="4.99548">
        <ele>183.75</ele>
        <time>2012-10-09T14:06:23Z</time>
      </trkpt>
      <trkpt lat="44.99503" lon="4.99433">
        <ele>183.27</ele>
        <time>2012-10-09T14:06:42Z</time>
      </trkpt>
      <trkpt lat="44.99441" lon="4.99334">
        <ele>183.75</ele>
        <time>2012-10-09T14:06:58Z</time>
      </trkpt>
      <trkpt lat="44.9938" lon="4.99231">
        <ele>181.83</ele>
        <time>2012-10-09T14:07:13Z</time>
      </trkpt>
      <trkpt lat="44.9932" lon="4.99127">
        <ele>180.87</ele>
        <time>2012-10-09T14:07:27Z</time>
      </trkpt>
      <trkpt lat="44.9926" lon="4.99026">
        <ele>180.87</ele>
        <time>2012-10-09T14:07:41Z</time>
      </trkpt>
      <trkpt lat="44.99201" lon="4.98924">
        <ele>179.42</ele>
        <time>2012-10-09T14:07:55Z</time>
      </trkpt>
      <trkpt lat="44.99145" lon="4.98827">
        <ele>179.42</ele>
        <time>2012-10-09T14:08:08Z</time>
      </trkpt>
      <trkpt lat="44.99084" lon="4.9873">
        <ele>178.94</ele>
        <time>2012-10-09T14:08:21Z</time>
      </trkpt>
      <trkpt lat="44.99023" lon="4.98636">
        <ele>178.46</ele>
        <time>2012-10-09T14:08:34Z</time>
      </trkpt>
      <trkpt lat="44.9896" lon="4.98543">
        <ele>178.46</ele>
        <time>2012-10-09T14:08:47Z</time>
      </trkpt>
      <trkpt lat="44.98893" lon="4.98448">
        <ele>178.94</ele>
        <time>2012-10-09T14:09:01Z</time>
      </trkpt>
      <trkpt lat="44.98827" lon="4.98353">
        <ele>180.38</ele>
        <time>2012-10-09T14:09:17Z</time>
      </trkpt>
      <trkpt lat="44.98765" lon="4.9826">
        <ele>179.9</ele>
        <time>2012-10-09T14:09:32Z</time>
      </trkpt>
      <trkpt lat="44.98684" lon="4.98205">
        <ele>178.46</ele>
        <time>2012-10-09T14:09:47Z</time>
      </trkpt>
      <trkpt lat="44.98592" lon="4.98184">
        <ele>177.98</ele>
        <time>2012-10-09T14:10:01Z</time>
      </trkpt>
      <trkpt lat="44.98501" lon="4.9815">
        <ele>177.02</ele>
        <time>2012-10-09T14:10:15Z</time>
      </trkpt>
      <trkpt lat="44.98417" lon="4.98099">
        <ele>177.02</ele>
        <time>2012-10-09T14:10:29Z</time>
      </trkpt>
      <trkpt lat="44.98398" lon="4.97971">
        <ele>176.54</ele>
        <time>2012-10-09T14:10:44Z</time>
      </trkpt>
      <trkpt lat="44.98377" lon="4.97892">
        <ele>175.1</ele>
        <time>2012-10-09T14:11:01Z</time>
      </trkpt>
      <trkpt lat="44.98407" lon="4.97893">
        <ele>175.1</ele>
        <time>2012-10-09T14:11:56Z</time>
      </trkpt>
      <trkpt lat="44.98318" lon="4.97901">
        <ele>175.58</ele>
        <time>2012-10-09T14:12:17Z</time>
      </trkpt>
      <trkpt lat="44.98232" lon="4.9786">
        <ele>174.62</ele>
        <time>2012-10-09T14:13:02Z</time>
      </trkpt>
      <trkpt lat="44.98154" lon="4.97783">
        <ele>175.58</ele>
        <time>2012-10-09T14:13:27Z</time>
      </trkpt>
      <trkpt lat="44.98088" lon="4.977">
        <ele>174.62</ele>
        <time>2012-10-09T14:13:45Z</time>
      </trkpt>
      <trkpt lat="44.98022" lon="4.97607">
        <ele>174.62</ele>
        <time>2012-10-09T14:14:05Z</time>
      </trkpt>
      <trkpt lat="44.97949" lon="4.97523">
        <ele>174.14</ele>
        <time>2012-10-09T14:14:22Z</time>
      </trkpt>
      <trkpt lat="44.97886" lon="4.97432">
        <ele>174.62</ele>
        <time>2012-10-09T14:14:39Z</time>
      </trkpt>
      <trkpt lat="44.97865" lon="4.97344">
        <ele>174.62</ele>
        <time>2012-10-09T14:15:01Z</time>
      </trkpt>
      <trkpt lat="44.97784" lon="4.97287">
        <ele>174.62</ele>
        <time>2012-10-09T14:15:18Z</time>
      </trkpt>
      <trkpt lat="44.97698" lon="4.97246">
        <ele>174.62</ele>
        <time>2012-10-09T14:15:35Z</time>
      </trkpt>
      <trkpt lat="44.97603" lon="4.9725">
        <ele>173.66</ele>
        <time>2012-10-09T14:15:52Z</time>
      </trkpt>
      <trkpt lat="44.97532" lon="4.9717">
        <ele>173.17</ele>
        <time>2012-10-09T14:16:08Z</time>
      </trkpt>
      <trkpt lat="44.97468" lon="4.97075">
        <ele>170.77</ele>
        <time>2012-10-09T14:16:22Z</time>
      </trkpt>
      <trkpt lat="44.97404" lon="4.96989">
        <ele>169.33</ele>
        <time>2012-10-09T14:16:38Z</time>
      </trkpt>
      <trkpt lat="44.97344" lon="4.97039">
        <ele>167.41</ele>
        <time>2012-10-09T14:16:58Z</time>
      </trkpt>
      <trkpt lat="44.97266" lon="4.9697">
        <ele>170.77</ele>
        <time>2012-10-09T14:17:23Z</time>
      </trkpt>
      <trkpt lat="44.97181" lon="4.96916">
        <ele>172.21</ele>
        <time>2012-10-09T14:17:46Z</time>
      </trkpt>
      <trkpt lat="44.97095" lon="4.9686">
        <ele>172.69</ele>
        <time>2012-10-09T14:18:06Z</time>
      </trkpt>
      <trkpt lat="44.9701" lon="4.96805">
        <ele>172.69</ele>
        <time>2012-10-09T14:18:25Z</time>
      </trkpt>
      <trkpt lat="44.96927" lon="4.96751">
        <ele>172.69</ele>
        <time>2012-10-09T14:18:42Z</time>
      </trkpt>
      <trkpt lat="44.96845" lon="4.96696">
        <ele>171.73</ele>
        <time>2012-10-09T14:18:58Z</time>
      </trkpt>
      <trkpt lat="44.96763" lon="4.96637">
        <ele>171.73</ele>
        <time>2012-10-09T14:19:13Z</time>
      </trkpt>
      <trkpt lat="44.96681" lon="4.96575">
        <ele>170.29</ele>
        <time>2012-10-09T14:19:31Z</time>
      </trkpt>
      <trkpt lat="44.96614" lon="4.96653">
        <ele>170.77</ele>
        <time>2012-10-09T14:19:59Z</time>
      </trkpt>
      <trkpt lat="44.96531" lon="4.96706">
        <ele>170.77</ele>
        <time>2012-10-09T14:20:16Z</time>
      </trkpt>
      <trkpt lat="44.96449" lon="4.96767">
        <ele>170.77</ele>
        <time>2012-10-09T14:20:32Z</time>
      </trkpt>
      <trkpt lat="44.96365" lon="4.96829">
        <ele>171.25</ele>
        <time>2012-10-09T14:20:49Z</time>
      </trkpt>
      <trkpt lat="44.96286" lon="4.96894">
        <ele>171.73</ele>
        <time>2012-10-09T14:21:08Z</time>
      </trkpt>
      <trkpt lat="44.96229" lon="4.96993">
        <ele>171.73</ele>
        <time>2012-10-09T14:21:25Z</time>
      </trkpt>
      <trkpt lat="44.9615" lon="4.97061">
        <ele>172.21</ele>
        <time>2012-10-09T14:21:42Z</time>
      </trkpt>
      <trkpt lat="44.96069" lon="4.97068">
        <ele>173.66</ele>
        <time>2012-10-09T14:22:02Z</time>
      </trkpt>
      <trkpt lat="44.96028" lon="4.96948">
        <ele>173.17</ele>
        <time>2012-10-09T14:22:18Z</time>
      </trkpt>
      <trkpt lat="44.95994" lon="4.96831">
        <ele>172.21</ele>
        <time>2012-10-09T14:22:33Z</time>
      </trkpt>
      <trkpt lat="44.95959" lon="4.96712">
        <ele>171.73</ele>
        <time>2012-10-09T14:22:47Z</time>
      </trkpt>
      <trkpt lat="44.95922" lon="4.96588">
        <ele>170.77</ele>
        <time>2012-10-09T14:23:02Z</time>
      </trkpt>
      <trkpt lat="44.95887" lon="4.96471">
        <ele>170.77</ele>
        <time>2012-10-09T14:23:16Z</time>
      </trkpt>
      <trkpt lat="44.95832" lon="4.96367">
        <ele>169.81</ele>
        <time>2012-10-09T14:23:30Z</time>
      </trkpt>
      <trkpt lat="44.95785" lon="4.96259">
        <ele>169.33</ele>
        <time>2012-10-09T14:23:44Z</time>
      </trkpt>
      <trkpt lat="44.95756" lon="4.96132">
        <ele>169.81</ele>
        <time>2012-10-09T14:23:59Z</time>
      </trkpt>
      <trkpt lat="44.95719" lon="4.96007">
        <ele>168.37</ele>
        <time>2012-10-09T14:24:14Z</time>
      </trkpt>
      <trkpt lat="44.95666" lon="4.95905">
        <ele>167.89</ele>
        <time>2012-10-09T14:24:28Z</time>
      </trkpt>
      <trkpt lat="44.95608" lon="4.95805">
        <ele>166.93</ele>
        <time>2012-10-09T14:24:42Z</time>
      </trkpt>
      <trkpt lat="44.9555" lon="4.95706">
        <ele>166.93</ele>
        <time>2012-10-09T14:24:55Z</time>
      </trkpt>
      <trkpt lat="44.95515" lon="4.95587">
        <ele>166.93</ele>
        <time>2012-10-09T14:25:09Z</time>
      </trkpt>
      <trkpt lat="44.95483" lon="4.95459">
        <ele>167.41</ele>
        <time>2012-10-09T14:25:24Z</time>
      </trkpt>
      <trkpt lat="44.95452" lon="4.9533">
        <ele>166.45</ele>
        <time>2012-10-09T14:25:39Z</time>
      </trkpt>
      <trkpt lat="44.95422" lon="4.95202">
        <ele>167.41</ele>
        <time>2012-10-09T14:25:54Z</time>
      </trkpt>
      <trkpt lat="44.95391" lon="4.95079">
        <ele>167.41</ele>
        <time>2012-10-09T14:26:08Z</time>
      </trkpt>
      <trkpt lat="44.95359" lon="4.94959">
        <ele>166.93</ele>
        <time>2012-10-09T14:26:24Z</time>
      </trkpt>
      <trkpt lat="44.95321" lon="4.94841">
        <ele>166.93</ele>
        <time>2012-10-09T14:26:40Z</time>
      </trkpt>
      <trkpt lat="44.95276" lon="4.94731">
        <ele>166.93</ele>
        <time>2012-10-09T14:26:55Z</time>
      </trkpt>
      <trkpt lat="44.95242" lon="4.94611">
        <ele>167.41</ele>
        <time>2012-10-09T14:27:10Z</time>
      </trkpt>
      <trkpt lat="44.95228" lon="4.94484">
        <ele>165.96</ele>
        <time>2012-10-09T14:27:24Z</time>
      </trkpt>
      <trkpt lat="44.95211" lon="4.94352">
        <ele>165.48</ele>
        <time>2012-10-09T14:27:38Z</time>
      </trkpt>
      <trkpt lat="44.95196" lon="4.94226">
        <ele>163.56</ele>
        <time>2012-10-09T14:27:51Z</time>
      </trkpt>
      <trkpt lat="44.95158" lon="4.94112">
        <ele>163.56</ele>
        <time>2012-10-09T14:28:04Z</time>
      </trkpt>
      <trkpt lat="44.95096" lon="4.94019">
        <ele>163.08</ele>
        <time>2012-10-09T14:28:17Z</time>
      </trkpt>
      <trkpt lat="44.95031" lon="4.93928">
        <ele>164.52</ele>
        <time>2012-10-09T14:28:30Z</time>
      </trkpt>
      <trkpt lat="44.9497" lon="4.93831">
        <ele>165.96</ele>
        <time>2012-10-09T14:28:46Z</time>
      </trkpt>
      <trkpt lat="44.94911" lon="4.93733">
        <ele>165</ele>
        <time>2012-10-09T14:29:03Z</time>
      </trkpt>
      <trkpt lat="44.94856" lon="4.9363">
        <ele>165</ele>
        <time>2012-10-09T14:29:19Z</time>
      </trkpt>
      <trkpt lat="44.94794" lon="4.93527">
        <ele>164.52</ele>
        <time>2012-10-09T14:29:36Z</time>
      </trkpt>
      <trkpt lat="44.94735" lon="4.93428">
        <ele>165.48</ele>
        <time>2012-10-09T14:29:51Z</time>
      </trkpt>
      <trkpt lat="44.94673" lon="4.93331">
        <ele>165.48</ele>
        <time>2012-10-09T14:30:06Z</time>
      </trkpt>
      <trkpt lat="44.94598" lon="4.93259">
        <ele>165</ele>
        <time>2012-10-09T14:30:20Z</time>
      </trkpt>
      <trkpt lat="44.94525" lon="4.93175">
        <ele>164.04</ele>
        <time>2012-10-09T14:30:34Z</time>
      </trkpt>
      <trkpt lat="44.94495" lon="4.9305">
        <ele>164.52</ele>
        <time>2012-10-09T14:30:48Z</time>
      </trkpt>
      <trkpt lat="44.94469" lon="4.92923">
        <ele>165</ele>
        <time>2012-10-09T14:31:03Z</time>
      </trkpt>
      <trkpt lat="44.94428" lon="4.92804">
        <ele>164.52</ele>
        <time>2012-10-09T14:31:17Z</time>
      </trkpt>
      <trkpt lat="44.94389" lon="4.92683">
        <ele>164.04</ele>
        <time>2012-10-09T14:31:31Z</time>
      </trkpt>
      <trkpt lat="44.9435" lon="4.92561">
        <ele>164.04</ele>
        <time>2012-10-09T14:31:46Z</time>
      </trkpt>
      <trkpt lat="44.94324" lon="4.92432">
        <ele>164.04</ele>
        <time>2012-10-09T14:32:01Z</time>
      </trkpt>
      <trkpt lat="44.9432" lon="4.92304">
        <ele>164.04</ele>
        <time>2012-10-09T14:32:18Z</time>
      </trkpt>
      <trkpt lat="44.94411" lon="4.92279">
        <ele>164.04</ele>
        <time>2012-10-09T14:32:35Z</time>
      </trkpt>
      <trkpt lat="44.94496" lon="4.9224">
        <ele>163.56</ele>
        <time>2012-10-09T14:32:52Z</time>
      </trkpt>
      <trkpt lat="44.94485" lon="4.92153">
        <ele>163.08</ele>
        <time>2012-10-09T14:33:12Z</time>
      </trkpt>
      <trkpt lat="44.94415" lon="4.9206">
        <ele>163.56</ele>
        <time>2012-10-09T14:33:28Z</time>
      </trkpt>
      <trkpt lat="44.94342" lon="4.91976">
        <ele>162.6</ele>
        <time>2012-10-09T14:33:44Z</time>
      </trkpt>
      <trkpt lat="44.9427" lon="4.91893">
        <ele>162.12</ele>
        <time>2012-10-09T14:34:01Z</time>
      </trkpt>
      <trkpt lat="44.94201" lon="4.91812">
        <ele>162.12</ele>
        <time>2012-10-09T14:34:20Z</time>
      </trkpt>
      <trkpt lat="44.94131" lon="4.9173">
        <ele>163.08</ele>
        <time>2012-10-09T14:34:37Z</time>
      </trkpt>
      <trkpt lat="44.94062" lon="4.91677">
        <ele>161.64</ele>
        <time>2012-10-09T14:35:02Z</time>
      </trkpt>
      <trkpt lat="44.94004" lon="4.91622">
        <ele>160.68</ele>
        <time>2012-10-09T14:35:55Z</time>
      </trkpt>
      <trkpt lat="44.93931" lon="4.91667">
        <ele>160.68</ele>
        <time>2012-10-09T14:36:27Z</time>
      </trkpt>
      <trkpt lat="44.93858" lon="4.91746">
        <ele>160.68</ele>
        <time>2012-10-09T14:36:52Z</time>
      </trkpt>
      <trkpt lat="44.93908" lon="4.91694">
        <ele>161.16</ele>
        <time>2012-10-09T14:38:59Z</time>
      </trkpt>
      <trkpt lat="44.93976" lon="4.91601">
        <ele>160.2</ele>
        <time>2012-10-09T14:40:17Z</time>
      </trkpt>
      <trkpt lat="44.94042" lon="4.91536">
        <ele>160.68</ele>
        <time>2012-10-09T14:40:34Z</time>
      </trkpt>
      <trkpt lat="44.94074" lon="4.91425">
        <ele>160.2</ele>
        <time>2012-10-09T14:40:50Z</time>
      </trkpt>
      <trkpt lat="44.94088" lon="4.91313">
        <ele>159.72</ele>
        <time>2012-10-09T14:41:06Z</time>
      </trkpt>
      <trkpt lat="44.94061" lon="4.9119">
        <ele>159.24</ele>
        <time>2012-10-09T14:41:20Z</time>
      </trkpt>
      <trkpt lat="44.9404" lon="4.91066">
        <ele>157.79</ele>
        <time>2012-10-09T14:41:34Z</time>
      </trkpt>
      <trkpt lat="44.94018" lon="4.90935">
        <ele>157.31</ele>
        <time>2012-10-09T14:41:49Z</time>
      </trkpt>
      <trkpt lat="44.93997" lon="4.90807">
        <ele>152.99</ele>
        <time>2012-10-09T14:42:00Z</time>
      </trkpt>
      <trkpt lat="44.93976" lon="4.9068">
        <ele>145.78</ele>
        <time>2012-10-09T14:42:09Z</time>
      </trkpt>
      <trkpt lat="44.93951" lon="4.90558">
        <ele>141.45</ele>
        <time>2012-10-09T14:42:17Z</time>
      </trkpt>
      <trkpt lat="44.93924" lon="4.90429">
        <ele>136.16</ele>
        <time>2012-10-09T14:42:26Z</time>
      </trkpt>
      <trkpt lat="44.93898" lon="4.90303">
        <ele>136.64</ele>
        <time>2012-10-09T14:42:38Z</time>
      </trkpt>
      <trkpt lat="44.93873" lon="4.90173">
        <ele>136.16</ele>
        <time>2012-10-09T14:42:57Z</time>
      </trkpt>
      <trkpt lat="44.93843" lon="4.90041">
        <ele>136.16</ele>
        <time>2012-10-09T14:43:14Z</time>
      </trkpt>
      <trkpt lat="44.93815" lon="4.89914">
        <ele>135.68</ele>
        <time>2012-10-09T14:43:29Z</time>
      </trkpt>
      <trkpt lat="44.93787" lon="4.89785">
        <ele>135.68</ele>
        <time>2012-10-09T14:43:45Z</time>
      </trkpt>
      <trkpt lat="44.93762" lon="4.89664">
        <ele>134.24</ele>
        <time>2012-10-09T14:44:06Z</time>
      </trkpt>
      <trkpt lat="44.93693" lon="4.89591">
        <ele>134.24</ele>
        <time>2012-10-09T14:44:28Z</time>
      </trkpt>
      <trkpt lat="44.9361" lon="4.89537">
        <ele>135.2</ele>
        <time>2012-10-09T14:45:12Z</time>
      </trkpt>
      <trkpt lat="44.93528" lon="4.89482">
        <ele>136.16</ele>
        <time>2012-10-09T14:45:38Z</time>
      </trkpt>
      <trkpt lat="44.93455" lon="4.89542">
        <ele>136.64</ele>
        <time>2012-10-09T14:46:05Z</time>
      </trkpt>
      <trkpt lat="44.93379" lon="4.8962">
        <ele>136.64</ele>
        <time>2012-10-09T14:46:45Z</time>
      </trkpt>
      <trkpt lat="44.93296" lon="4.89583">
        <ele>136.16</ele>
        <time>2012-10-09T14:47:05Z</time>
      </trkpt>
      <trkpt lat="44.93212" lon="4.89529">
        <ele>136.64</ele>
        <time>2012-10-09T14:47:25Z</time>
      </trkpt>
      <trkpt lat="44.93139" lon="4.89464">
        <ele>137.13</ele>
        <time>2012-10-09T14:48:02Z</time>
      </trkpt>
      <trkpt lat="44.93066" lon="4.89396">
        <ele>135.2</ele>
        <time>2012-10-09T14:48:31Z</time>
      </trkpt>
      <trkpt lat="44.93052" lon="4.89292">
        <ele>135.68</ele>
        <time>2012-10-09T14:53:08Z</time>
      </trkpt>
      <trkpt lat="44.931" lon="4.89283">
        <ele>135.68</ele>
        <time>2012-10-09T14:56:08Z</time>
      </trkpt>
      <trkpt lat="44.93046" lon="4.89299">
        <ele>135.68</ele>
        <time>2012-10-09T15:00:44Z</time>
      </trkpt>
      <trkpt lat="44.93068" lon="4.89401">
        <ele>137.61</ele>
        <time>2012-10-09T15:03:02Z</time>
      </trkpt>
      <trkpt lat="44.93149" lon="4.89468">
        <ele>138.57</ele>
        <time>2012-10-09T15:03:33Z</time>
      </trkpt>
      <trkpt lat="44.93237" lon="4.89522">
        <ele>138.09</ele>
        <time>2012-10-09T15:04:07Z</time>
      </trkpt>
      <trkpt lat="44.93233" lon="4.89563">
        <ele>137.13</ele>
        <time>2012-10-09T15:09:25Z</time>
      </trkpt>
      <trkpt lat="44.93198" lon="4.89496">
        <ele>136.64</ele>
        <time>2012-10-09T15:11:18Z</time>
      </trkpt>
      <trkpt lat="44.9311" lon="4.89439">
        <ele>136.64</ele>
        <time>2012-10-09T15:11:41Z</time>
      </trkpt>
      <trkpt lat="44.93062" lon="4.89341">
        <ele>135.68</ele>
        <time>2012-10-09T15:12:01Z</time>
      </trkpt>
      <trkpt lat="44.9305" lon="4.89226">
        <ele>133.28</ele>
        <time>2012-10-09T15:12:31Z</time>
      </trkpt>
      <trkpt lat="44.93054" lon="4.89096">
        <ele>133.76</ele>
        <time>2012-10-09T15:12:48Z</time>
      </trkpt>
      <trkpt lat="44.93057" lon="4.88963">
        <ele>131.36</ele>
        <time>2012-10-09T15:13:34Z</time>
      </trkpt>
      <trkpt lat="44.93072" lon="4.88834">
        <ele>127.03</ele>
        <time>2012-10-09T15:13:48Z</time>
      </trkpt>
      <trkpt lat="44.93102" lon="4.88708">
        <ele>122.71</ele>
        <time>2012-10-09T15:14:01Z</time>
      </trkpt>
      <trkpt lat="44.93135" lon="4.88595">
        <ele>119.82</ele>
        <time>2012-10-09T15:14:40Z</time>
      </trkpt>
      <trkpt lat="44.93162" lon="4.88476">
        <ele>117.9</ele>
        <time>2012-10-09T15:15:15Z</time>
      </trkpt>
      <trkpt lat="44.93081" lon="4.8841">
        <ele>117.42</ele>
        <time>2012-10-09T15:15:45Z</time>
      </trkpt>
      <trkpt lat="44.93" lon="4.88343">
        <ele>117.42</ele>
        <time>2012-10-09T15:16:01Z</time>
      </trkpt>
      <trkpt lat="44.92911" lon="4.88295">
        <ele>117.42</ele>
        <time>2012-10-09T15:16:17Z</time>
      </trkpt>
      <trkpt lat="44.92819" lon="4.88269">
        <ele>118.38</ele>
        <time>2012-10-09T15:16:33Z</time>
      </trkpt>
      <trkpt lat="44.92725" lon="4.88251">
        <ele>117.9</ele>
        <time>2012-10-09T15:16:48Z</time>
      </trkpt>
      <trkpt lat="44.92637" lon="4.88221">
        <ele>117.42</ele>
        <time>2012-10-09T15:17:02Z</time>
      </trkpt>
      <trkpt lat="44.92554" lon="4.88158">
        <ele>117.42</ele>
        <time>2012-10-09T15:17:17Z</time>
      </trkpt>
      <trkpt lat="44.92475" lon="4.88096">
        <ele>117.9</ele>
        <time>2012-10-09T15:17:32Z</time>
      </trkpt>
      <trkpt lat="44.9242" lon="4.87988">
        <ele>120.3</ele>
        <time>2012-10-09T15:17:50Z</time>
      </trkpt>
      <trkpt lat="44.92394" lon="4.87864">
        <ele>125.11</ele>
        <time>2012-10-09T15:18:12Z</time>
      </trkpt>
      <trkpt lat="44.92359" lon="4.87741">
        <ele>123.19</ele>
        <time>2012-10-09T15:18:32Z</time>
      </trkpt>
      <trkpt lat="44.92277" lon="4.8767">
        <ele>119.34</ele>
        <time>2012-10-09T15:18:45Z</time>
      </trkpt>
      <trkpt lat="44.92182" lon="4.87657">
        <ele>116.46</ele>
        <time>2012-10-09T15:18:57Z</time>
      </trkpt>
      <trkpt lat="44.92091" lon="4.87633">
        <ele>115.98</ele>
        <time>2012-10-09T15:19:11Z</time>
      </trkpt>
      <trkpt lat="44.91998" lon="4.87596">
        <ele>116.46</ele>
        <time>2012-10-09T15:19:27Z</time>
      </trkpt>
      <trkpt lat="44.91906" lon="4.87557">
        <ele>115.5</ele>
        <time>2012-10-09T15:19:43Z</time>
      </trkpt>
      <trkpt lat="44.91858" lon="4.87534">
        <ele>115.98</ele>
        <time>2012-10-09T15:20:58Z</time>
      </trkpt>
      <trkpt lat="44.918" lon="4.87586">
        <ele>117.42</ele>
        <time>2012-10-09T15:23:00Z</time>
      </trkpt>
      <trkpt lat="44.918" lon="4.87585">
        <ele>114.05</ele>
        <time>2012-10-09T15:23:05Z</time>
      </trkpt>
      <trkpt lat="44.91798" lon="4.87582">
        <ele>111.65</ele>
        <time>2012-10-09T21:05:25Z</time>
      </trkpt>
      <trkpt lat="44.91778" lon="4.87416">
        <ele>113.57</ele>
        <time>2012-10-09T21:10:35Z</time>
      </trkpt>
      <trkpt lat="44.91777" lon="4.87412">
        <ele>120.3</ele>
        <time>2012-10-10T05:12:30Z</time>
      </trkpt>
      <trkpt lat="44.918" lon="4.87464">
        <ele>118.86</ele>
        <time>2012-10-10T05:12:50Z</time>
      </trkpt>
      <trkpt lat="44.91794" lon="4.87461">
        <ele>121.26</ele>
        <time>2012-10-10T05:14:52Z</time>
      </trkpt>
      <trkpt lat="44.91857" lon="4.87475">
        <ele>121.26</ele>
        <time>2012-10-10T05:17:22Z</time>
      </trkpt>
      <trkpt lat="44.9178" lon="4.87429">
        <ele>119.82</ele>
        <time>2012-10-10T05:57:38Z</time>
      </trkpt>
      <trkpt lat="44.91784" lon="4.87422">
        <ele>107.32</ele>
        <time>2012-10-10T05:58:53Z</time>
      </trkpt>
      <trkpt lat="44.9186" lon="4.87507">
        <ele>106.84</ele>
        <time>2012-10-10T06:00:31Z</time>
      </trkpt>
      <trkpt lat="44.9178" lon="4.87508">
        <ele>106.84</ele>
        <time>2012-10-10T06:00:58Z</time>
      </trkpt>
      <trkpt lat="44.91688" lon="4.87531">
        <ele>106.84</ele>
        <time>2012-10-10T06:01:16Z</time>
      </trkpt>
      <trkpt lat="44.91635" lon="4.87647">
        <ele>106.84</ele>
        <time>2012-10-10T06:01:36Z</time>
      </trkpt>
      <trkpt lat="44.91547" lon="4.87682">
        <ele>109.25</ele>
        <time>2012-10-10T06:01:58Z</time>
      </trkpt>
      <trkpt lat="44.91549" lon="4.87571">
        <ele>109.25</ele>
        <time>2012-10-10T06:02:23Z</time>
      </trkpt>
      <trkpt lat="44.91464" lon="4.8751">
        <ele>109.25</ele>
        <time>2012-10-10T06:02:48Z</time>
      </trkpt>
      <trkpt lat="44.91378" lon="4.87448">
        <ele>109.73</ele>
        <time>2012-10-10T06:03:12Z</time>
      </trkpt>
      <trkpt lat="44.91293" lon="4.87387">
        <ele>109.25</ele>
        <time>2012-10-10T06:03:32Z</time>
      </trkpt>
      <trkpt lat="44.91209" lon="4.87328">
        <ele>109.25</ele>
        <time>2012-10-10T06:03:50Z</time>
      </trkpt>
      <trkpt lat="44.91125" lon="4.87267">
        <ele>109.73</ele>
        <time>2012-10-10T06:04:08Z</time>
      </trkpt>
      <trkpt lat="44.91037" lon="4.87205">
        <ele>108.77</ele>
        <time>2012-10-10T06:04:26Z</time>
      </trkpt>
      <trkpt lat="44.90955" lon="4.87146">
        <ele>109.73</ele>
        <time>2012-10-10T06:04:43Z</time>
      </trkpt>
      <trkpt lat="44.90875" lon="4.87079">
        <ele>109.73</ele>
        <time>2012-10-10T06:05:01Z</time>
      </trkpt>
      <trkpt lat="44.90796" lon="4.87006">
        <ele>110.69</ele>
        <time>2012-10-10T06:06:01Z</time>
      </trkpt>
      <trkpt lat="44.90716" lon="4.86952">
        <ele>107.81</ele>
        <time>2012-10-10T06:06:20Z</time>
      </trkpt>
      <trkpt lat="44.90661" lon="4.87058">
        <ele>109.73</ele>
        <time>2012-10-10T06:06:38Z</time>
      </trkpt>
      <trkpt lat="44.90617" lon="4.87173">
        <ele>109.25</ele>
        <time>2012-10-10T06:07:02Z</time>
      </trkpt>
      <trkpt lat="44.90577" lon="4.8723">
        <ele>110.21</ele>
        <time>2012-10-10T06:07:22Z</time>
      </trkpt>
      <trkpt lat="44.90532" lon="4.87153">
        <ele>111.65</ele>
        <time>2012-10-10T06:07:43Z</time>
      </trkpt>
      <trkpt lat="44.90593" lon="4.87058">
        <ele>115.98</ele>
        <time>2012-10-10T06:08:08Z</time>
      </trkpt>
      <trkpt lat="44.90652" lon="4.86962">
        <ele>120.78</ele>
        <time>2012-10-10T06:08:36Z</time>
      </trkpt>
      <trkpt lat="44.90714" lon="4.86864">
        <ele>125.11</ele>
        <time>2012-10-10T06:09:06Z</time>
      </trkpt>
      <trkpt lat="44.90774" lon="4.86768">
        <ele>127.03</ele>
        <time>2012-10-10T06:10:04Z</time>
      </trkpt>
      <trkpt lat="44.90834" lon="4.86669">
        <ele>127.99</ele>
        <time>2012-10-10T06:10:26Z</time>
      </trkpt>
      <trkpt lat="44.90896" lon="4.86571">
        <ele>127.03</ele>
        <time>2012-10-10T06:10:45Z</time>
      </trkpt>
      <trkpt lat="44.90956" lon="4.86476">
        <ele>123.67</ele>
        <time>2012-10-10T06:11:02Z</time>
      </trkpt>
      <trkpt lat="44.91022" lon="4.86387">
        <ele>118.86</ele>
        <time>2012-10-10T06:11:19Z</time>
      </trkpt>
      <trkpt lat="44.91101" lon="4.86321">
        <ele>113.57</ele>
        <time>2012-10-10T06:11:30Z</time>
      </trkpt>
      <trkpt lat="44.91194" lon="4.86282">
        <ele>112.13</ele>
        <time>2012-10-10T06:11:41Z</time>
      </trkpt>
      <trkpt lat="44.91288" lon="4.86279">
        <ele>111.17</ele>
        <time>2012-10-10T06:11:53Z</time>
      </trkpt>
      <trkpt lat="44.9138" lon="4.86301">
        <ele>111.65</ele>
        <time>2012-10-10T06:12:08Z</time>
      </trkpt>
      <trkpt lat="44.9147" lon="4.86325">
        <ele>112.61</ele>
        <time>2012-10-10T06:12:24Z</time>
      </trkpt>
      <trkpt lat="44.91565" lon="4.86349">
        <ele>113.09</ele>
        <time>2012-10-10T06:12:42Z</time>
      </trkpt>
      <trkpt lat="44.91657" lon="4.86352">
        <ele>112.13</ele>
        <time>2012-10-10T06:12:58Z</time>
      </trkpt>
      <trkpt lat="44.91613" lon="4.86379">
        <ele>109.73</ele>
        <time>2012-10-10T06:13:25Z</time>
      </trkpt>
      <trkpt lat="44.91518" lon="4.86376">
        <ele>108.77</ele>
        <time>2012-10-10T06:13:39Z</time>
      </trkpt>
      <trkpt lat="44.91431" lon="4.86392">
        <ele>108.29</ele>
        <time>2012-10-10T06:13:59Z</time>
      </trkpt>
      <trkpt lat="44.91341" lon="4.86369">
        <ele>108.29</ele>
        <time>2012-10-10T06:14:17Z</time>
      </trkpt>
      <trkpt lat="44.9125" lon="4.86338">
        <ele>108.29</ele>
        <time>2012-10-10T06:14:34Z</time>
      </trkpt>
      <trkpt lat="44.91159" lon="4.86328">
        <ele>107.32</ele>
        <time>2012-10-10T06:14:50Z</time>
      </trkpt>
      <trkpt lat="44.91105" lon="4.86433">
        <ele>107.81</ele>
        <time>2012-10-10T06:15:07Z</time>
      </trkpt>
      <trkpt lat="44.91039" lon="4.86395">
        <ele>109.25</ele>
        <time>2012-10-10T06:15:27Z</time>
      </trkpt>
      <trkpt lat="44.90992" lon="4.86287">
        <ele>109.73</ele>
        <time>2012-10-10T06:15:44Z</time>
      </trkpt>
      <trkpt lat="44.90972" lon="4.86163">
        <ele>109.25</ele>
        <time>2012-10-10T06:16:03Z</time>
      </trkpt>
      <trkpt lat="44.90978" lon="4.86028">
        <ele>109.25</ele>
        <time>2012-10-10T06:16:22Z</time>
      </trkpt>
      <trkpt lat="44.90984" lon="4.85888">
        <ele>109.73</ele>
        <time>2012-10-10T06:16:41Z</time>
      </trkpt>
      <trkpt lat="44.90991" lon="4.85751">
        <ele>109.25</ele>
        <time>2012-10-10T06:16:59Z</time>
      </trkpt>
      <trkpt lat="44.91002" lon="4.85612">
        <ele>109.73</ele>
        <time>2012-10-10T06:17:17Z</time>
      </trkpt>
      <trkpt lat="44.90943" lon="4.85521">
        <ele>109.73</ele>
        <time>2012-10-10T06:17:37Z</time>
      </trkpt>
      <trkpt lat="44.90854" lon="4.85467">
        <ele>109.73</ele>
        <time>2012-10-10T06:17:54Z</time>
      </trkpt>
      <trkpt lat="44.90904" lon="4.85495">
        <ele>109.25</ele>
        <time>2012-10-10T06:18:49Z</time>
      </trkpt>
      <trkpt lat="44.90985" lon="4.85559">
        <ele>110.69</ele>
        <time>2012-10-10T06:19:08Z</time>
      </trkpt>
      <trkpt lat="44.91033" lon="4.8549">
        <ele>111.17</ele>
        <time>2012-10-10T06:19:33Z</time>
      </trkpt>
      <trkpt lat="44.9111" lon="4.85561">
        <ele>110.69</ele>
        <time>2012-10-10T06:20:21Z</time>
      </trkpt>
      <trkpt lat="44.91185" lon="4.85639">
        <ele>110.69</ele>
        <time>2012-10-10T06:20:40Z</time>
      </trkpt>
      <trkpt lat="44.91264" lon="4.8571">
        <ele>112.13</ele>
        <time>2012-10-10T06:21:00Z</time>
      </trkpt>
      <trkpt lat="44.91327" lon="4.85808">
        <ele>111.65</ele>
        <time>2012-10-10T06:21:20Z</time>
      </trkpt>
      <trkpt lat="44.9139" lon="4.85906">
        <ele>111.17</ele>
        <time>2012-10-10T06:21:38Z</time>
      </trkpt>
      <trkpt lat="44.91477" lon="4.85949">
        <ele>113.57</ele>
        <time>2012-10-10T06:22:01Z</time>
      </trkpt>
      <trkpt lat="44.91564" lon="4.85979">
        <ele>114.53</ele>
        <time>2012-10-10T06:22:22Z</time>
      </trkpt>
      <trkpt lat="44.91655" lon="4.8596">
        <ele>114.05</ele>
        <time>2012-10-10T06:22:42Z</time>
      </trkpt>
      <trkpt lat="44.91747" lon="4.85931">
        <ele>114.05</ele>
        <time>2012-10-10T06:23:01Z</time>
      </trkpt>
      <trkpt lat="44.91828" lon="4.85892">
        <ele>114.53</ele>
        <time>2012-10-10T06:24:39Z</time>
      </trkpt>
      <trkpt lat="44.91769" lon="4.85802">
        <ele>115.01</ele>
        <time>2012-10-10T06:25:42Z</time>
      </trkpt>
      <trkpt lat="44.91685" lon="4.85745">
        <ele>115.98</ele>
        <time>2012-10-10T06:26:00Z</time>
      </trkpt>
      <trkpt lat="44.91608" lon="4.85677">
        <ele>116.94</ele>
        <time>2012-10-10T06:26:20Z</time>
      </trkpt>
      <trkpt lat="44.91522" lon="4.85703">
        <ele>115.98</ele>
        <time>2012-10-10T06:26:38Z</time>
      </trkpt>
      <trkpt lat="44.91437" lon="4.85658">
        <ele>115.98</ele>
        <time>2012-10-10T06:26:54Z</time>
      </trkpt>
      <trkpt lat="44.91351" lon="4.85613">
        <ele>115.98</ele>
        <time>2012-10-10T06:27:09Z</time>
      </trkpt>
      <trkpt lat="44.91263" lon="4.85568">
        <ele>114.53</ele>
        <time>2012-10-10T06:27:24Z</time>
      </trkpt>
      <trkpt lat="44.91174" lon="4.85519">
        <ele>115.01</ele>
        <time>2012-10-10T06:27:40Z</time>
      </trkpt>
      <trkpt lat="44.9109" lon="4.85461">
        <ele>115.5</ele>
        <time>2012-10-10T06:27:56Z</time>
      </trkpt>
      <trkpt lat="44.91004" lon="4.85413">
        <ele>115.01</ele>
        <time>2012-10-10T06:28:12Z</time>
      </trkpt>
      <trkpt lat="44.9091" lon="4.85375">
        <ele>112.61</ele>
        <time>2012-10-10T06:28:28Z</time>
      </trkpt>
      <trkpt lat="44.90815" lon="4.85351">
        <ele>115.5</ele>
        <time>2012-10-10T06:28:44Z</time>
      </trkpt>
      <trkpt lat="44.90723" lon="4.85343">
        <ele>115.5</ele>
        <time>2012-10-10T06:29:00Z</time>
      </trkpt>
      <trkpt lat="44.90625" lon="4.85339">
        <ele>115.98</ele>
        <time>2012-10-10T06:29:16Z</time>
      </trkpt>
      <trkpt lat="44.9053" lon="4.85336">
        <ele>116.46</ele>
        <time>2012-10-10T06:29:32Z</time>
      </trkpt>
      <trkpt lat="44.90434" lon="4.8533">
        <ele>116.94</ele>
        <time>2012-10-10T06:29:49Z</time>
      </trkpt>
      <trkpt lat="44.90341" lon="4.85308">
        <ele>117.42</ele>
        <time>2012-10-10T06:30:05Z</time>
      </trkpt>
      <trkpt lat="44.90252" lon="4.85272">
        <ele>117.42</ele>
        <time>2012-10-10T06:30:21Z</time>
      </trkpt>
      <trkpt lat="44.90162" lon="4.85235">
        <ele>117.42</ele>
        <time>2012-10-10T06:30:37Z</time>
      </trkpt>
      <trkpt lat="44.90071" lon="4.8521">
        <ele>117.9</ele>
        <time>2012-10-10T06:30:53Z</time>
      </trkpt>
      <trkpt lat="44.89977" lon="4.85198">
        <ele>116.94</ele>
        <time>2012-10-10T06:31:09Z</time>
      </trkpt>
      <trkpt lat="44.89886" lon="4.85193">
        <ele>115.5</ele>
        <time>2012-10-10T06:31:23Z</time>
      </trkpt>
      <trkpt lat="44.89791" lon="4.85182">
        <ele>115.5</ele>
        <time>2012-10-10T06:31:38Z</time>
      </trkpt>
      <trkpt lat="44.89702" lon="4.85181">
        <ele>114.05</ele>
        <time>2012-10-10T06:32:25Z</time>
      </trkpt>
      <trkpt lat="44.89607" lon="4.85165">
        <ele>114.05</ele>
        <time>2012-10-10T06:32:44Z</time>
      </trkpt>
      <trkpt lat="44.89512" lon="4.85133">
        <ele>113.09</ele>
        <time>2012-10-10T06:33:00Z</time>
      </trkpt>
      <trkpt lat="44.89418" lon="4.85105">
        <ele>113.57</ele>
        <time>2012-10-10T06:33:16Z</time>
      </trkpt>
      <trkpt lat="44.89325" lon="4.85076">
        <ele>114.05</ele>
        <time>2012-10-10T06:33:32Z</time>
      </trkpt>
      <trkpt lat="44.89234" lon="4.8505">
        <ele>113.57</ele>
        <time>2012-10-10T06:33:48Z</time>
      </trkpt>
      <trkpt lat="44.89142" lon="4.8504">
        <ele>113.57</ele>
        <time>2012-10-10T06:34:04Z</time>
      </trkpt>
      <trkpt lat="44.89053" lon="4.85032">
        <ele>114.05</ele>
        <time>2012-10-10T06:34:20Z</time>
      </trkpt>
      <trkpt lat="44.88968" lon="4.85077">
        <ele>113.09</ele>
        <time>2012-10-10T06:34:35Z</time>
      </trkpt>
      <trkpt lat="44.88874" lon="4.85107">
        <ele>113.09</ele>
        <time>2012-10-10T06:34:51Z</time>
      </trkpt>
      <trkpt lat="44.88782" lon="4.85124">
        <ele>112.61</ele>
        <time>2012-10-10T06:35:07Z</time>
      </trkpt>
      <trkpt lat="44.88691" lon="4.85134">
        <ele>113.09</ele>
        <time>2012-10-10T06:35:23Z</time>
      </trkpt>
      <trkpt lat="44.886" lon="4.85144">
        <ele>112.61</ele>
        <time>2012-10-10T06:35:39Z</time>
      </trkpt>
      <trkpt lat="44.88508" lon="4.85126">
        <ele>113.09</ele>
        <time>2012-10-10T06:35:55Z</time>
      </trkpt>
      <trkpt lat="44.88416" lon="4.85095">
        <ele>113.57</ele>
        <time>2012-10-10T06:36:12Z</time>
      </trkpt>
      <trkpt lat="44.88323" lon="4.85065">
        <ele>114.05</ele>
        <time>2012-10-10T06:36:30Z</time>
      </trkpt>
      <trkpt lat="44.88232" lon="4.85032">
        <ele>115.01</ele>
        <time>2012-10-10T06:36:48Z</time>
      </trkpt>
      <trkpt lat="44.88146" lon="4.84984">
        <ele>115.01</ele>
        <time>2012-10-10T06:37:06Z</time>
      </trkpt>
      <trkpt lat="44.88064" lon="4.8492">
        <ele>115.01</ele>
        <time>2012-10-10T06:37:23Z</time>
      </trkpt>
      <trkpt lat="44.87981" lon="4.84853">
        <ele>114.05</ele>
        <time>2012-10-10T06:37:39Z</time>
      </trkpt>
      <trkpt lat="44.879" lon="4.84788">
        <ele>114.53</ele>
        <time>2012-10-10T06:37:54Z</time>
      </trkpt>
      <trkpt lat="44.87817" lon="4.8472">
        <ele>114.05</ele>
        <time>2012-10-10T06:38:09Z</time>
      </trkpt>
      <trkpt lat="44.87733" lon="4.84653">
        <ele>113.57</ele>
        <time>2012-10-10T06:38:24Z</time>
      </trkpt>
      <trkpt lat="44.87649" lon="4.84586">
        <ele>114.53</ele>
        <time>2012-10-10T06:38:39Z</time>
      </trkpt>
      <trkpt lat="44.8757" lon="4.84521">
        <ele>115.01</ele>
        <time>2012-10-10T06:38:54Z</time>
      </trkpt>
      <trkpt lat="44.87492" lon="4.84458">
        <ele>115.5</ele>
        <time>2012-10-10T06:39:09Z</time>
      </trkpt>
      <trkpt lat="44.87411" lon="4.84393">
        <ele>115.5</ele>
        <time>2012-10-10T06:39:25Z</time>
      </trkpt>
      <trkpt lat="44.87331" lon="4.84329">
        <ele>115.98</ele>
        <time>2012-10-10T06:39:41Z</time>
      </trkpt>
      <trkpt lat="44.87248" lon="4.84262">
        <ele>116.94</ele>
        <time>2012-10-10T06:39:58Z</time>
      </trkpt>
      <trkpt lat="44.8717" lon="4.84199">
        <ele>116.94</ele>
        <time>2012-10-10T06:40:14Z</time>
      </trkpt>
      <trkpt lat="44.87091" lon="4.84135">
        <ele>116.94</ele>
        <time>2012-10-10T06:40:30Z</time>
      </trkpt>
      <trkpt lat="44.8701" lon="4.8407">
        <ele>116.46</ele>
        <time>2012-10-10T06:40:45Z</time>
      </trkpt>
      <trkpt lat="44.86931" lon="4.84006">
        <ele>115.5</ele>
        <time>2012-10-10T06:40:59Z</time>
      </trkpt>
      <trkpt lat="44.86847" lon="4.8394">
        <ele>115.01</ele>
        <time>2012-10-10T06:41:14Z</time>
      </trkpt>
      <trkpt lat="44.86767" lon="4.83873">
        <ele>115.01</ele>
        <time>2012-10-10T06:41:28Z</time>
      </trkpt>
      <trkpt lat="44.86688" lon="4.83808">
        <ele>115.01</ele>
        <time>2012-10-10T06:41:42Z</time>
      </trkpt>
      <trkpt lat="44.86605" lon="4.83745">
        <ele>115.01</ele>
        <time>2012-10-10T06:41:57Z</time>
      </trkpt>
      <trkpt lat="44.86523" lon="4.8368">
        <ele>115.98</ele>
        <time>2012-10-10T06:42:13Z</time>
      </trkpt>
      <trkpt lat="44.86443" lon="4.83614">
        <ele>116.94</ele>
        <time>2012-10-10T06:42:29Z</time>
      </trkpt>
      <trkpt lat="44.86364" lon="4.83552">
        <ele>117.42</ele>
        <time>2012-10-10T06:42:45Z</time>
      </trkpt>
      <trkpt lat="44.86282" lon="4.83489">
        <ele>117.9</ele>
        <time>2012-10-10T06:43:24Z</time>
      </trkpt>
      <trkpt lat="44.86201" lon="4.83424">
        <ele>119.82</ele>
        <time>2012-10-10T06:43:46Z</time>
      </trkpt>
      <trkpt lat="44.86118" lon="4.83357">
        <ele>120.3</ele>
        <time>2012-10-10T06:44:08Z</time>
      </trkpt>
      <trkpt lat="44.86041" lon="4.83281">
        <ele>120.78</ele>
        <time>2012-10-10T06:44:31Z</time>
      </trkpt>
      <trkpt lat="44.8596" lon="4.83226">
        <ele>119.34</ele>
        <time>2012-10-10T06:44:48Z</time>
      </trkpt>
      <trkpt lat="44.85868" lon="4.83211">
        <ele>118.86</ele>
        <time>2012-10-10T06:45:04Z</time>
      </trkpt>
      <trkpt lat="44.85776" lon="4.83181">
        <ele>118.86</ele>
        <time>2012-10-10T06:45:20Z</time>
      </trkpt>
      <trkpt lat="44.85695" lon="4.83124">
        <ele>118.86</ele>
        <time>2012-10-10T06:45:35Z</time>
      </trkpt>
      <trkpt lat="44.85632" lon="4.83033">
        <ele>118.38</ele>
        <time>2012-10-10T06:45:50Z</time>
      </trkpt>
      <trkpt lat="44.85549" lon="4.82988">
        <ele>117.9</ele>
        <time>2012-10-10T06:46:07Z</time>
      </trkpt>
      <trkpt lat="44.85466" lon="4.82931">
        <ele>117.9</ele>
        <time>2012-10-10T06:46:23Z</time>
      </trkpt>
      <trkpt lat="44.85379" lon="4.82874">
        <ele>118.86</ele>
        <time>2012-10-10T06:46:40Z</time>
      </trkpt>
      <trkpt lat="44.85294" lon="4.8283">
        <ele>118.38</ele>
        <time>2012-10-10T06:46:56Z</time>
      </trkpt>
      <trkpt lat="44.85209" lon="4.82777">
        <ele>117.42</ele>
        <time>2012-10-10T06:47:11Z</time>
      </trkpt>
      <trkpt lat="44.85131" lon="4.82702">
        <ele>118.38</ele>
        <time>2012-10-10T06:47:27Z</time>
      </trkpt>
      <trkpt lat="44.8507" lon="4.82599">
        <ele>118.86</ele>
        <time>2012-10-10T06:47:44Z</time>
      </trkpt>
      <trkpt lat="44.85012" lon="4.82498">
        <ele>119.82</ele>
        <time>2012-10-10T06:48:00Z</time>
      </trkpt>
      <trkpt lat="44.84954" lon="4.824">
        <ele>120.3</ele>
        <time>2012-10-10T06:48:16Z</time>
      </trkpt>
      <trkpt lat="44.84894" lon="4.82304">
        <ele>121.74</ele>
        <time>2012-10-10T06:48:33Z</time>
      </trkpt>
      <trkpt lat="44.84829" lon="4.82208">
        <ele>122.22</ele>
        <time>2012-10-10T06:48:49Z</time>
      </trkpt>
      <trkpt lat="44.84758" lon="4.82121">
        <ele>121.74</ele>
        <time>2012-10-10T06:49:04Z</time>
      </trkpt>
      <trkpt lat="44.84686" lon="4.82032">
        <ele>121.26</ele>
        <time>2012-10-10T06:49:19Z</time>
      </trkpt>
      <trkpt lat="44.84617" lon="4.81948">
        <ele>120.78</ele>
        <time>2012-10-10T06:49:33Z</time>
      </trkpt>
      <trkpt lat="44.84545" lon="4.81868">
        <ele>120.3</ele>
        <time>2012-10-10T06:49:46Z</time>
      </trkpt>
      <trkpt lat="44.84463" lon="4.81802">
        <ele>118.86</ele>
        <time>2012-10-10T06:49:58Z</time>
      </trkpt>
      <trkpt lat="44.84373" lon="4.81752">
        <ele>117.9</ele>
        <time>2012-10-10T06:50:10Z</time>
      </trkpt>
      <trkpt lat="44.84289" lon="4.81703">
        <ele>117.42</ele>
        <time>2012-10-10T06:50:22Z</time>
      </trkpt>
      <trkpt lat="44.84201" lon="4.81655">
        <ele>118.38</ele>
        <time>2012-10-10T06:50:36Z</time>
      </trkpt>
      <trkpt lat="44.84117" lon="4.81608">
        <ele>118.38</ele>
        <time>2012-10-10T06:50:50Z</time>
      </trkpt>
      <trkpt lat="44.84029" lon="4.81559">
        <ele>119.34</ele>
        <time>2012-10-10T06:51:05Z</time>
      </trkpt>
      <trkpt lat="44.83942" lon="4.81511">
        <ele>119.82</ele>
        <time>2012-10-10T06:51:20Z</time>
      </trkpt>
      <trkpt lat="44.83852" lon="4.81464">
        <ele>120.3</ele>
        <time>2012-10-10T06:51:36Z</time>
      </trkpt>
      <trkpt lat="44.83767" lon="4.81415">
        <ele>120.3</ele>
        <time>2012-10-10T06:51:51Z</time>
      </trkpt>
      <trkpt lat="44.83681" lon="4.81365">
        <ele>118.86</ele>
        <time>2012-10-10T06:52:05Z</time>
      </trkpt>
      <trkpt lat="44.83591" lon="4.81328">
        <ele>120.3</ele>
        <time>2012-10-10T06:52:24Z</time>
      </trkpt>
      <trkpt lat="44.83509" lon="4.81277">
        <ele>120.78</ele>
        <time>2012-10-10T06:52:41Z</time>
      </trkpt>
      <trkpt lat="44.83428" lon="4.81213">
        <ele>115.98</ele>
        <time>2012-10-10T06:52:53Z</time>
      </trkpt>
      <trkpt lat="44.83356" lon="4.81123">
        <ele>113.09</ele>
        <time>2012-10-10T06:53:04Z</time>
      </trkpt>
      <trkpt lat="44.83291" lon="4.81022">
        <ele>110.21</ele>
        <time>2012-10-10T06:53:16Z</time>
      </trkpt>
      <trkpt lat="44.83229" lon="4.80923">
        <ele>108.77</ele>
        <time>2012-10-10T06:53:28Z</time>
      </trkpt>
      <trkpt lat="44.83176" lon="4.80816">
        <ele>106.84</ele>
        <time>2012-10-10T06:53:40Z</time>
      </trkpt>
      <trkpt lat="44.83108" lon="4.80735">
        <ele>107.32</ele>
        <time>2012-10-10T06:53:54Z</time>
      </trkpt>
      <trkpt lat="44.83029" lon="4.80669">
        <ele>107.81</ele>
        <time>2012-10-10T06:54:09Z</time>
      </trkpt>
      <trkpt lat="44.82944" lon="4.80601">
        <ele>107.32</ele>
        <time>2012-10-10T06:54:24Z</time>
      </trkpt>
      <trkpt lat="44.82862" lon="4.80543">
        <ele>106.84</ele>
        <time>2012-10-10T06:54:38Z</time>
      </trkpt>
      <trkpt lat="44.82779" lon="4.80471">
        <ele>107.32</ele>
        <time>2012-10-10T06:54:54Z</time>
      </trkpt>
      <trkpt lat="44.82702" lon="4.80389">
        <ele>107.32</ele>
        <time>2012-10-10T06:55:10Z</time>
      </trkpt>
      <trkpt lat="44.82641" lon="4.80293">
        <ele>108.29</ele>
        <time>2012-10-10T06:55:46Z</time>
      </trkpt>
      <trkpt lat="44.82585" lon="4.80185">
        <ele>107.81</ele>
        <time>2012-10-10T06:56:06Z</time>
      </trkpt>
      <trkpt lat="44.8253" lon="4.80079">
        <ele>108.29</ele>
        <time>2012-10-10T06:56:25Z</time>
      </trkpt>
      <trkpt lat="44.82512" lon="4.79961">
        <ele>109.73</ele>
        <time>2012-10-10T06:56:47Z</time>
      </trkpt>
      <trkpt lat="44.82589" lon="4.79929">
        <ele>106.84</ele>
        <time>2012-10-10T06:57:14Z</time>
      </trkpt>
      <trkpt lat="44.82626" lon="4.80034">
        <ele>109.73</ele>
        <time>2012-10-10T06:57:49Z</time>
      </trkpt>
      <trkpt lat="44.8263" lon="4.80163">
        <ele>108.77</ele>
        <time>2012-10-10T06:58:17Z</time>
      </trkpt>
      <trkpt lat="44.82616" lon="4.80279">
        <ele>107.32</ele>
        <time>2012-10-10T06:59:08Z</time>
      </trkpt>
      <trkpt lat="44.8258" lon="4.80173">
        <ele>107.81</ele>
        <time>2012-10-10T06:59:35Z</time>
      </trkpt>
      <trkpt lat="44.82526" lon="4.80069">
        <ele>108.29</ele>
        <time>2012-10-10T06:59:53Z</time>
      </trkpt>
      <trkpt lat="44.82476" lon="4.79969">
        <ele>110.69</ele>
        <time>2012-10-10T07:00:15Z</time>
      </trkpt>
      <trkpt lat="44.82424" lon="4.79863">
        <ele>109.73</ele>
        <time>2012-10-10T07:03:38Z</time>
      </trkpt>
      <trkpt lat="44.8237" lon="4.79759">
        <ele>108.77</ele>
        <time>2012-10-10T07:03:55Z</time>
      </trkpt>
      <trkpt lat="44.82314" lon="4.7965">
        <ele>109.25</ele>
        <time>2012-10-10T07:04:11Z</time>
      </trkpt>
      <trkpt lat="44.82261" lon="4.79546">
        <ele>109.25</ele>
        <time>2012-10-10T07:04:26Z</time>
      </trkpt>
      <trkpt lat="44.82202" lon="4.79441">
        <ele>109.73</ele>
        <time>2012-10-10T07:04:43Z</time>
      </trkpt>
      <trkpt lat="44.82119" lon="4.79389">
        <ele>109.73</ele>
        <time>2012-10-10T07:04:59Z</time>
      </trkpt>
      <trkpt lat="44.82024" lon="4.79371">
        <ele>109.25</ele>
        <time>2012-10-10T07:05:15Z</time>
      </trkpt>
      <trkpt lat="44.81934" lon="4.79354">
        <ele>109.25</ele>
        <time>2012-10-10T07:05:30Z</time>
      </trkpt>
      <trkpt lat="44.8184" lon="4.79337">
        <ele>109.25</ele>
        <time>2012-10-10T07:05:46Z</time>
      </trkpt>
      <trkpt lat="44.8175" lon="4.7932">
        <ele>109.73</ele>
        <time>2012-10-10T07:06:01Z</time>
      </trkpt>
      <trkpt lat="44.81659" lon="4.79289">
        <ele>111.65</ele>
        <time>2012-10-10T07:06:19Z</time>
      </trkpt>
      <trkpt lat="44.8157" lon="4.7925">
        <ele>115.5</ele>
        <time>2012-10-10T07:06:42Z</time>
      </trkpt>
      <trkpt lat="44.81483" lon="4.79206">
        <ele>118.86</ele>
        <time>2012-10-10T07:07:04Z</time>
      </trkpt>
      <trkpt lat="44.81395" lon="4.79164">
        <ele>120.78</ele>
        <time>2012-10-10T07:07:26Z</time>
      </trkpt>
      <trkpt lat="44.81323" lon="4.7908">
        <ele>120.3</ele>
        <time>2012-10-10T07:07:48Z</time>
      </trkpt>
      <trkpt lat="44.8126" lon="4.78984">
        <ele>118.38</ele>
        <time>2012-10-10T07:08:03Z</time>
      </trkpt>
      <trkpt lat="44.81193" lon="4.78886">
        <ele>115.98</ele>
        <time>2012-10-10T07:08:16Z</time>
      </trkpt>
      <trkpt lat="44.81124" lon="4.78802">
        <ele>113.57</ele>
        <time>2012-10-10T07:08:28Z</time>
      </trkpt>
      <trkpt lat="44.81051" lon="4.78716">
        <ele>111.17</ele>
        <time>2012-10-10T07:08:41Z</time>
      </trkpt>
      <trkpt lat="44.80972" lon="4.78662">
        <ele>108.77</ele>
        <time>2012-10-10T07:08:54Z</time>
      </trkpt>
      <trkpt lat="44.80884" lon="4.7861">
        <ele>105.4</ele>
        <time>2012-10-10T07:09:07Z</time>
      </trkpt>
      <trkpt lat="44.80808" lon="4.78534">
        <ele>103.48</ele>
        <time>2012-10-10T07:09:20Z</time>
      </trkpt>
      <trkpt lat="44.80738" lon="4.78442">
        <ele>102.52</ele>
        <time>2012-10-10T07:09:34Z</time>
      </trkpt>
      <trkpt lat="44.80669" lon="4.78352">
        <ele>102.52</ele>
        <time>2012-10-10T07:09:48Z</time>
      </trkpt>
      <trkpt lat="44.80587" lon="4.78294">
        <ele>103</ele>
        <time>2012-10-10T07:10:03Z</time>
      </trkpt>
      <trkpt lat="44.80495" lon="4.78295">
        <ele>103.96</ele>
        <time>2012-10-10T07:10:21Z</time>
      </trkpt>
      <trkpt lat="44.80406" lon="4.78265">
        <ele>103</ele>
        <time>2012-10-10T07:10:37Z</time>
      </trkpt>
      <trkpt lat="44.80322" lon="4.78207">
        <ele>103</ele>
        <time>2012-10-10T07:10:52Z</time>
      </trkpt>
      <trkpt lat="44.80237" lon="4.78146">
        <ele>102.52</ele>
        <time>2012-10-10T07:11:08Z</time>
      </trkpt>
      <trkpt lat="44.80148" lon="4.78129">
        <ele>102.04</ele>
        <time>2012-10-10T07:11:27Z</time>
      </trkpt>
      <trkpt lat="44.80079" lon="4.78145">
        <ele>102.52</ele>
        <time>2012-10-10T07:13:18Z</time>
      </trkpt>
      <trkpt lat="44.79987" lon="4.78141">
        <ele>102.04</ele>
        <time>2012-10-10T07:13:48Z</time>
      </trkpt>
      <trkpt lat="44.79903" lon="4.78091">
        <ele>102.04</ele>
        <time>2012-10-10T07:14:08Z</time>
      </trkpt>
      <trkpt lat="44.79818" lon="4.78037">
        <ele>101.56</ele>
        <time>2012-10-10T07:14:25Z</time>
      </trkpt>
      <trkpt lat="44.79736" lon="4.77985">
        <ele>102.04</ele>
        <time>2012-10-10T07:14:41Z</time>
      </trkpt>
      <trkpt lat="44.79655" lon="4.77926">
        <ele>102.04</ele>
        <time>2012-10-10T07:14:57Z</time>
      </trkpt>
      <trkpt lat="44.7957" lon="4.77867">
        <ele>102.04</ele>
        <time>2012-10-10T07:15:13Z</time>
      </trkpt>
      <trkpt lat="44.79487" lon="4.77803">
        <ele>102.52</ele>
        <time>2012-10-10T07:15:29Z</time>
      </trkpt>
      <trkpt lat="44.7941" lon="4.77738">
        <ele>102.04</ele>
        <time>2012-10-10T07:15:44Z</time>
      </trkpt>
      <trkpt lat="44.79332" lon="4.77671">
        <ele>102.52</ele>
        <time>2012-10-10T07:15:59Z</time>
      </trkpt>
      <trkpt lat="44.79252" lon="4.77603">
        <ele>102.52</ele>
        <time>2012-10-10T07:16:15Z</time>
      </trkpt>
      <trkpt lat="44.79169" lon="4.77537">
        <ele>102.52</ele>
        <time>2012-10-10T07:16:30Z</time>
      </trkpt>
      <trkpt lat="44.79088" lon="4.77466">
        <ele>101.56</ele>
        <time>2012-10-10T07:16:45Z</time>
      </trkpt>
      <trkpt lat="44.79013" lon="4.77395">
        <ele>101.56</ele>
        <time>2012-10-10T07:16:59Z</time>
      </trkpt>
      <trkpt lat="44.78934" lon="4.77319">
        <ele>101.56</ele>
        <time>2012-10-10T07:17:14Z</time>
      </trkpt>
      <trkpt lat="44.78855" lon="4.77245">
        <ele>101.08</ele>
        <time>2012-10-10T07:17:29Z</time>
      </trkpt>
      <trkpt lat="44.78777" lon="4.7718">
        <ele>101.56</ele>
        <time>2012-10-10T07:17:44Z</time>
      </trkpt>
      <trkpt lat="44.78701" lon="4.77106">
        <ele>101.56</ele>
        <time>2012-10-10T07:18:00Z</time>
      </trkpt>
      <trkpt lat="44.78623" lon="4.77032">
        <ele>101.08</ele>
        <time>2012-10-10T07:18:16Z</time>
      </trkpt>
      <trkpt lat="44.78547" lon="4.7696">
        <ele>101.08</ele>
        <time>2012-10-10T07:18:31Z</time>
      </trkpt>
      <trkpt lat="44.78471" lon="4.76886">
        <ele>99.63</ele>
        <time>2012-10-10T07:18:46Z</time>
      </trkpt>
      <trkpt lat="44.78388" lon="4.76836">
        <ele>101.08</ele>
        <time>2012-10-10T07:19:01Z</time>
      </trkpt>
      <trkpt lat="44.78308" lon="4.76774">
        <ele>101.56</ele>
        <time>2012-10-10T07:19:17Z</time>
      </trkpt>
      <trkpt lat="44.78238" lon="4.76689">
        <ele>103</ele>
        <time>2012-10-10T07:19:34Z</time>
      </trkpt>
      <trkpt lat="44.78168" lon="4.76605">
        <ele>103</ele>
        <time>2012-10-10T07:19:50Z</time>
      </trkpt>
      <trkpt lat="44.78099" lon="4.76521">
        <ele>102.52</ele>
        <time>2012-10-10T07:20:04Z</time>
      </trkpt>
      <trkpt lat="44.7803" lon="4.76437">
        <ele>102.04</ele>
        <time>2012-10-10T07:20:18Z</time>
      </trkpt>
      <trkpt lat="44.77959" lon="4.76351">
        <ele>102.52</ele>
        <time>2012-10-10T07:20:33Z</time>
      </trkpt>
      <trkpt lat="44.77887" lon="4.76273">
        <ele>103.96</ele>
        <time>2012-10-10T07:20:50Z</time>
      </trkpt>
      <trkpt lat="44.77803" lon="4.76227">
        <ele>104.92</ele>
        <time>2012-10-10T07:21:08Z</time>
      </trkpt>
      <trkpt lat="44.77717" lon="4.76174">
        <ele>105.4</ele>
        <time>2012-10-10T07:21:26Z</time>
      </trkpt>
      <trkpt lat="44.77642" lon="4.76097">
        <ele>104.92</ele>
        <time>2012-10-10T07:21:42Z</time>
      </trkpt>
      <trkpt lat="44.77573" lon="4.76016">
        <ele>102.04</ele>
        <time>2012-10-10T07:22:33Z</time>
      </trkpt>
      <trkpt lat="44.77493" lon="4.75954">
        <ele>100.6</ele>
        <time>2012-10-10T07:22:50Z</time>
      </trkpt>
      <trkpt lat="44.77408" lon="4.75898">
        <ele>100.11</ele>
        <time>2012-10-10T07:23:04Z</time>
      </trkpt>
      <trkpt lat="44.77325" lon="4.75848">
        <ele>100.6</ele>
        <time>2012-10-10T07:23:17Z</time>
      </trkpt>
      <trkpt lat="44.77243" lon="4.75791">
        <ele>100.6</ele>
        <time>2012-10-10T07:23:30Z</time>
      </trkpt>
      <trkpt lat="44.77168" lon="4.75717">
        <ele>100.6</ele>
        <time>2012-10-10T07:23:43Z</time>
      </trkpt>
      <trkpt lat="44.771" lon="4.75631">
        <ele>100.6</ele>
        <time>2012-10-10T07:23:56Z</time>
      </trkpt>
      <trkpt lat="44.77028" lon="4.75543">
        <ele>101.56</ele>
        <time>2012-10-10T07:24:10Z</time>
      </trkpt>
      <trkpt lat="44.7695" lon="4.75468">
        <ele>102.04</ele>
        <time>2012-10-10T07:24:25Z</time>
      </trkpt>
      <trkpt lat="44.76865" lon="4.75417">
        <ele>103</ele>
        <time>2012-10-10T07:24:41Z</time>
      </trkpt>
      <trkpt lat="44.76774" lon="4.75388">
        <ele>103.48</ele>
        <time>2012-10-10T07:24:57Z</time>
      </trkpt>
      <trkpt lat="44.76682" lon="4.75362">
        <ele>102.04</ele>
        <time>2012-10-10T07:25:12Z</time>
      </trkpt>
      <trkpt lat="44.76589" lon="4.75327">
        <ele>101.08</ele>
        <time>2012-10-10T07:25:26Z</time>
      </trkpt>
      <trkpt lat="44.76497" lon="4.75289">
        <ele>101.08</ele>
        <time>2012-10-10T07:25:40Z</time>
      </trkpt>
      <trkpt lat="44.7641" lon="4.75253">
        <ele>100.6</ele>
        <time>2012-10-10T07:25:54Z</time>
      </trkpt>
      <trkpt lat="44.76322" lon="4.75216">
        <ele>100.6</ele>
        <time>2012-10-10T07:26:08Z</time>
      </trkpt>
      <trkpt lat="44.7623" lon="4.75185">
        <ele>101.08</ele>
        <time>2012-10-10T07:26:22Z</time>
      </trkpt>
      <trkpt lat="44.76142" lon="4.75149">
        <ele>99.15</ele>
        <time>2012-10-10T07:26:35Z</time>
      </trkpt>
      <trkpt lat="44.76056" lon="4.75109">
        <ele>99.63</ele>
        <time>2012-10-10T07:26:48Z</time>
      </trkpt>
      <trkpt lat="44.75965" lon="4.75069">
        <ele>99.15</ele>
        <time>2012-10-10T07:27:02Z</time>
      </trkpt>
      <trkpt lat="44.75876" lon="4.75037">
        <ele>99.63</ele>
        <time>2012-10-10T07:27:16Z</time>
      </trkpt>
      <trkpt lat="44.75785" lon="4.7503">
        <ele>99.63</ele>
        <time>2012-10-10T07:27:30Z</time>
      </trkpt>
      <trkpt lat="44.75694" lon="4.75027">
        <ele>99.15</ele>
        <time>2012-10-10T07:27:47Z</time>
      </trkpt>
      <trkpt lat="44.75614" lon="4.74965">
        <ele>99.15</ele>
        <time>2012-10-10T07:28:08Z</time>
      </trkpt>
      <trkpt lat="44.75607" lon="4.74859">
        <ele>100.6</ele>
        <time>2012-10-10T07:28:44Z</time>
      </trkpt>
      <trkpt lat="44.75604" lon="4.74859">
        <ele>98.67</ele>
        <time>2012-10-10T07:30:02Z</time>
      </trkpt>
      <trkpt lat="44.75604" lon="4.74859">
        <ele>91.94</ele>
        <time>2012-10-10T07:51:10Z</time>
      </trkpt>
      <trkpt lat="44.75674" lon="4.74696">
        <ele>100.6</ele>
        <time>2012-10-10T07:53:21Z</time>
      </trkpt>
      <trkpt lat="44.75708" lon="4.74575">
        <ele>103.96</ele>
        <time>2012-10-10T07:53:48Z</time>
      </trkpt>
      <trkpt lat="44.75795" lon="4.74558">
        <ele>104.44</ele>
        <time>2012-10-10T07:54:08Z</time>
      </trkpt>
      <trkpt lat="44.75877" lon="4.74504">
        <ele>103.48</ele>
        <time>2012-10-10T07:54:26Z</time>
      </trkpt>
      <trkpt lat="44.75923" lon="4.74395">
        <ele>103.96</ele>
        <time>2012-10-10T07:54:42Z</time>
      </trkpt>
      <trkpt lat="44.75919" lon="4.74268">
        <ele>103.96</ele>
        <time>2012-10-10T07:54:58Z</time>
      </trkpt>
      <trkpt lat="44.75893" lon="4.74144">
        <ele>104.44</ele>
        <time>2012-10-10T07:55:15Z</time>
      </trkpt>
      <trkpt lat="44.75868" lon="4.7402">
        <ele>104.92</ele>
        <time>2012-10-10T07:55:33Z</time>
      </trkpt>
      <trkpt lat="44.75844" lon="4.73896">
        <ele>105.4</ele>
        <time>2012-10-10T07:55:51Z</time>
      </trkpt>
      <trkpt lat="44.75833" lon="4.73764">
        <ele>106.36</ele>
        <time>2012-10-10T07:56:09Z</time>
      </trkpt>
      <trkpt lat="44.75857" lon="4.73634">
        <ele>106.84</ele>
        <time>2012-10-10T07:56:26Z</time>
      </trkpt>
      <trkpt lat="44.75884" lon="4.73509">
        <ele>107.81</ele>
        <time>2012-10-10T07:56:43Z</time>
      </trkpt>
      <trkpt lat="44.75948" lon="4.73422">
        <ele>107.81</ele>
        <time>2012-10-10T07:57:00Z</time>
      </trkpt>
      <trkpt lat="44.76023" lon="4.73348">
        <ele>109.25</ele>
        <time>2012-10-10T07:57:17Z</time>
      </trkpt>
      <trkpt lat="44.76081" lon="4.73242">
        <ele>110.21</ele>
        <time>2012-10-10T07:57:35Z</time>
      </trkpt>
      <trkpt lat="44.76108" lon="4.73111">
        <ele>111.65</ele>
        <time>2012-10-10T07:57:53Z</time>
      </trkpt>
      <trkpt lat="44.76132" lon="4.72985">
        <ele>112.61</ele>
        <time>2012-10-10T07:58:12Z</time>
      </trkpt>
      <trkpt lat="44.76153" lon="4.72858">
        <ele>114.05</ele>
        <time>2012-10-10T07:58:31Z</time>
      </trkpt>
      <trkpt lat="44.76136" lon="4.72734">
        <ele>115.01</ele>
        <time>2012-10-10T07:58:49Z</time>
      </trkpt>
      <trkpt lat="44.76143" lon="4.72603">
        <ele>118.38</ele>
        <time>2012-10-10T07:59:11Z</time>
      </trkpt>
      <trkpt lat="44.76135" lon="4.72467">
        <ele>120.3</ele>
        <time>2012-10-10T07:59:39Z</time>
      </trkpt>
      <trkpt lat="44.76136" lon="4.72326">
        <ele>120.78</ele>
        <time>2012-10-10T08:00:01Z</time>
      </trkpt>
      <trkpt lat="44.76147" lon="4.72194">
        <ele>119.34</ele>
        <time>2012-10-10T08:00:19Z</time>
      </trkpt>
      <trkpt lat="44.76162" lon="4.72059">
        <ele>118.86</ele>
        <time>2012-10-10T08:00:35Z</time>
      </trkpt>
      <trkpt lat="44.76125" lon="4.71936">
        <ele>119.34</ele>
        <time>2012-10-10T08:00:53Z</time>
      </trkpt>
      <trkpt lat="44.76088" lon="4.71818">
        <ele>120.78</ele>
        <time>2012-10-10T08:01:12Z</time>
      </trkpt>
      <trkpt lat="44.76054" lon="4.71692">
        <ele>122.22</ele>
        <time>2012-10-10T08:01:32Z</time>
      </trkpt>
      <trkpt lat="44.76016" lon="4.71569">
        <ele>123.19</ele>
        <time>2012-10-10T08:01:51Z</time>
      </trkpt>
      <trkpt lat="44.75969" lon="4.71454">
        <ele>124.15</ele>
        <time>2012-10-10T08:02:10Z</time>
      </trkpt>
      <trkpt lat="44.7592" lon="4.71344">
        <ele>125.11</ele>
        <time>2012-10-10T08:02:28Z</time>
      </trkpt>
      <trkpt lat="44.7587" lon="4.71234">
        <ele>126.55</ele>
        <time>2012-10-10T08:02:47Z</time>
      </trkpt>
      <trkpt lat="44.75819" lon="4.71122">
        <ele>127.03</ele>
        <time>2012-10-10T08:03:05Z</time>
      </trkpt>
      <trkpt lat="44.75768" lon="4.71012">
        <ele>127.51</ele>
        <time>2012-10-10T08:03:22Z</time>
      </trkpt>
      <trkpt lat="44.75717" lon="4.70903">
        <ele>127.99</ele>
        <time>2012-10-10T08:03:39Z</time>
      </trkpt>
      <trkpt lat="44.75666" lon="4.7079">
        <ele>128.47</ele>
        <time>2012-10-10T08:03:56Z</time>
      </trkpt>
      <trkpt lat="44.75614" lon="4.70681">
        <ele>129.43</ele>
        <time>2012-10-10T08:04:13Z</time>
      </trkpt>
      <trkpt lat="44.75569" lon="4.70568">
        <ele>129.92</ele>
        <time>2012-10-10T08:04:30Z</time>
      </trkpt>
      <trkpt lat="44.7555" lon="4.7044">
        <ele>130.4</ele>
        <time>2012-10-10T08:04:47Z</time>
      </trkpt>
      <trkpt lat="44.75532" lon="4.70309">
        <ele>131.84</ele>
        <time>2012-10-10T08:05:04Z</time>
      </trkpt>
      <trkpt lat="44.75513" lon="4.7018">
        <ele>132.32</ele>
        <time>2012-10-10T08:05:21Z</time>
      </trkpt>
      <trkpt lat="44.75496" lon="4.70046">
        <ele>134.24</ele>
        <time>2012-10-10T08:05:39Z</time>
      </trkpt>
      <trkpt lat="44.75476" lon="4.69918">
        <ele>135.2</ele>
        <time>2012-10-10T08:05:57Z</time>
      </trkpt>
      <trkpt lat="44.7544" lon="4.69799">
        <ele>136.16</ele>
        <time>2012-10-10T08:06:15Z</time>
      </trkpt>
      <trkpt lat="44.75397" lon="4.69679">
        <ele>137.13</ele>
        <time>2012-10-10T08:06:33Z</time>
      </trkpt>
      <trkpt lat="44.75356" lon="4.69561">
        <ele>139.05</ele>
        <time>2012-10-10T08:06:51Z</time>
      </trkpt>
      <trkpt lat="44.75315" lon="4.69443">
        <ele>140.01</ele>
        <time>2012-10-10T08:07:09Z</time>
      </trkpt>
      <trkpt lat="44.75272" lon="4.69326">
        <ele>140.49</ele>
        <time>2012-10-10T08:07:26Z</time>
      </trkpt>
      <trkpt lat="44.75232" lon="4.69206">
        <ele>139.53</ele>
        <time>2012-10-10T08:07:42Z</time>
      </trkpt>
      <trkpt lat="44.75187" lon="4.69087">
        <ele>139.53</ele>
        <time>2012-10-10T08:07:58Z</time>
      </trkpt>
      <trkpt lat="44.75152" lon="4.68968">
        <ele>139.53</ele>
        <time>2012-10-10T08:08:13Z</time>
      </trkpt>
      <trkpt lat="44.75147" lon="4.68843">
        <ele>138.57</ele>
        <time>2012-10-10T08:08:28Z</time>
      </trkpt>
      <trkpt lat="44.75185" lon="4.68723">
        <ele>139.53</ele>
        <time>2012-10-10T08:08:44Z</time>
      </trkpt>
      <trkpt lat="44.75236" lon="4.68619">
        <ele>139.53</ele>
        <time>2012-10-10T08:09:01Z</time>
      </trkpt>
      <trkpt lat="44.75284" lon="4.68509">
        <ele>141.45</ele>
        <time>2012-10-10T08:09:19Z</time>
      </trkpt>
      <trkpt lat="44.753" lon="4.68378">
        <ele>142.41</ele>
        <time>2012-10-10T08:09:37Z</time>
      </trkpt>
      <trkpt lat="44.75285" lon="4.6825">
        <ele>142.89</ele>
        <time>2012-10-10T08:09:54Z</time>
      </trkpt>
      <trkpt lat="44.75262" lon="4.68121">
        <ele>143.85</ele>
        <time>2012-10-10T08:10:12Z</time>
      </trkpt>
      <trkpt lat="44.75226" lon="4.68004">
        <ele>145.78</ele>
        <time>2012-10-10T08:10:30Z</time>
      </trkpt>
      <trkpt lat="44.75161" lon="4.67909">
        <ele>147.22</ele>
        <time>2012-10-10T08:10:48Z</time>
      </trkpt>
      <trkpt lat="44.75084" lon="4.67829">
        <ele>147.7</ele>
        <time>2012-10-10T08:11:07Z</time>
      </trkpt>
      <trkpt lat="44.74992" lon="4.67801">
        <ele>149.14</ele>
        <time>2012-10-10T08:11:25Z</time>
      </trkpt>
      <trkpt lat="44.74905" lon="4.67756">
        <ele>150.1</ele>
        <time>2012-10-10T08:11:43Z</time>
      </trkpt>
      <trkpt lat="44.74825" lon="4.67695">
        <ele>151.06</ele>
        <time>2012-10-10T08:12:00Z</time>
      </trkpt>
      <trkpt lat="44.74757" lon="4.67611">
        <ele>151.06</ele>
        <time>2012-10-10T08:12:16Z</time>
      </trkpt>
      <trkpt lat="44.74701" lon="4.67505">
        <ele>151.06</ele>
        <time>2012-10-10T08:12:32Z</time>
      </trkpt>
      <trkpt lat="44.74648" lon="4.67398">
        <ele>152.03</ele>
        <time>2012-10-10T08:12:49Z</time>
      </trkpt>
      <trkpt lat="44.74613" lon="4.67274">
        <ele>152.51</ele>
        <time>2012-10-10T08:13:06Z</time>
      </trkpt>
      <trkpt lat="44.74575" lon="4.67151">
        <ele>152.99</ele>
        <time>2012-10-10T08:13:24Z</time>
      </trkpt>
      <trkpt lat="44.74519" lon="4.67047">
        <ele>153.95</ele>
        <time>2012-10-10T08:13:42Z</time>
      </trkpt>
      <trkpt lat="44.74461" lon="4.66944">
        <ele>155.87</ele>
        <time>2012-10-10T08:14:00Z</time>
      </trkpt>
      <trkpt lat="44.74408" lon="4.66836">
        <ele>157.79</ele>
        <time>2012-10-10T08:14:19Z</time>
      </trkpt>
      <trkpt lat="44.74353" lon="4.66731">
        <ele>158.75</ele>
        <time>2012-10-10T08:14:38Z</time>
      </trkpt>
      <trkpt lat="44.74306" lon="4.66622">
        <ele>161.16</ele>
        <time>2012-10-10T08:14:57Z</time>
      </trkpt>
      <trkpt lat="44.74288" lon="4.66497">
        <ele>163.08</ele>
        <time>2012-10-10T08:15:16Z</time>
      </trkpt>
      <trkpt lat="44.74314" lon="4.66371">
        <ele>165.48</ele>
        <time>2012-10-10T08:15:35Z</time>
      </trkpt>
      <trkpt lat="44.74307" lon="4.66242">
        <ele>165.96</ele>
        <time>2012-10-10T08:15:54Z</time>
      </trkpt>
      <trkpt lat="44.74253" lon="4.66142">
        <ele>165.96</ele>
        <time>2012-10-10T08:16:10Z</time>
      </trkpt>
      <trkpt lat="44.74198" lon="4.66034">
        <ele>166.93</ele>
        <time>2012-10-10T08:16:27Z</time>
      </trkpt>
      <trkpt lat="44.74138" lon="4.65941">
        <ele>167.89</ele>
        <time>2012-10-10T08:16:44Z</time>
      </trkpt>
      <trkpt lat="44.74066" lon="4.65857">
        <ele>169.33</ele>
        <time>2012-10-10T08:17:02Z</time>
      </trkpt>
      <trkpt lat="44.74016" lon="4.65747">
        <ele>170.29</ele>
        <time>2012-10-10T08:17:19Z</time>
      </trkpt>
      <trkpt lat="44.74003" lon="4.65615">
        <ele>171.73</ele>
        <time>2012-10-10T08:17:36Z</time>
      </trkpt>
      <trkpt lat="44.73979" lon="4.65488">
        <ele>172.69</ele>
        <time>2012-10-10T08:17:52Z</time>
      </trkpt>
      <trkpt lat="44.73963" lon="4.65355">
        <ele>173.17</ele>
        <time>2012-10-10T08:18:08Z</time>
      </trkpt>
      <trkpt lat="44.73957" lon="4.65222">
        <ele>173.66</ele>
        <time>2012-10-10T08:18:24Z</time>
      </trkpt>
      <trkpt lat="44.73953" lon="4.6509">
        <ele>175.1</ele>
        <time>2012-10-10T08:18:41Z</time>
      </trkpt>
      <trkpt lat="44.73947" lon="4.6495">
        <ele>177.5</ele>
        <time>2012-10-10T08:19:00Z</time>
      </trkpt>
      <trkpt lat="44.73915" lon="4.64827">
        <ele>178.46</ele>
        <time>2012-10-10T08:19:17Z</time>
      </trkpt>
      <trkpt lat="44.73864" lon="4.64717">
        <ele>178.46</ele>
        <time>2012-10-10T08:19:34Z</time>
      </trkpt>
      <trkpt lat="44.73835" lon="4.64591">
        <ele>180.38</ele>
        <time>2012-10-10T08:19:51Z</time>
      </trkpt>
      <trkpt lat="44.73816" lon="4.64458">
        <ele>179.9</ele>
        <time>2012-10-10T08:20:08Z</time>
      </trkpt>
      <trkpt lat="44.73797" lon="4.64331">
        <ele>179.9</ele>
        <time>2012-10-10T08:20:24Z</time>
      </trkpt>
      <trkpt lat="44.73769" lon="4.6421">
        <ele>179.9</ele>
        <time>2012-10-10T08:20:40Z</time>
      </trkpt>
      <trkpt lat="44.73724" lon="4.641">
        <ele>180.87</ele>
        <time>2012-10-10T08:20:56Z</time>
      </trkpt>
      <trkpt lat="44.73679" lon="4.63985">
        <ele>181.83</ele>
        <time>2012-10-10T08:21:13Z</time>
      </trkpt>
      <trkpt lat="44.73651" lon="4.6386">
        <ele>183.27</ele>
        <time>2012-10-10T08:21:31Z</time>
      </trkpt>
      <trkpt lat="44.73637" lon="4.63727">
        <ele>185.19</ele>
        <time>2012-10-10T08:21:52Z</time>
      </trkpt>
      <trkpt lat="44.73626" lon="4.63593">
        <ele>188.08</ele>
        <time>2012-10-10T08:22:12Z</time>
      </trkpt>
      <trkpt lat="44.7361" lon="4.63464">
        <ele>190.48</ele>
        <time>2012-10-10T08:22:33Z</time>
      </trkpt>
      <trkpt lat="44.73568" lon="4.63367">
        <ele>191.44</ele>
        <time>2012-10-10T08:25:03Z</time>
      </trkpt>
      <trkpt lat="44.73516" lon="4.6326">
        <ele>192.88</ele>
        <time>2012-10-10T08:25:23Z</time>
      </trkpt>
      <trkpt lat="44.73477" lon="4.63141">
        <ele>193.36</ele>
        <time>2012-10-10T08:25:41Z</time>
      </trkpt>
      <trkpt lat="44.73497" lon="4.63016">
        <ele>194.8</ele>
        <time>2012-10-10T08:26:34Z</time>
      </trkpt>
      <trkpt lat="44.73522" lon="4.6289">
        <ele>196.25</ele>
        <time>2012-10-10T08:26:56Z</time>
      </trkpt>
      <trkpt lat="44.73565" lon="4.62775">
        <ele>198.65</ele>
        <time>2012-10-10T08:27:16Z</time>
      </trkpt>
      <trkpt lat="44.73637" lon="4.62697">
        <ele>200.57</ele>
        <time>2012-10-10T08:27:36Z</time>
      </trkpt>
      <trkpt lat="44.73664" lon="4.62568">
        <ele>201.53</ele>
        <time>2012-10-10T08:27:55Z</time>
      </trkpt>
      <trkpt lat="44.73645" lon="4.62448">
        <ele>202.98</ele>
        <time>2012-10-10T08:28:14Z</time>
      </trkpt>
      <trkpt lat="44.73596" lon="4.62335">
        <ele>205.38</ele>
        <time>2012-10-10T08:28:38Z</time>
      </trkpt>
      <trkpt lat="44.73597" lon="4.62209">
        <ele>209.22</ele>
        <time>2012-10-10T08:29:36Z</time>
      </trkpt>
      <trkpt lat="44.73661" lon="4.62125">
        <ele>212.11</ele>
        <time>2012-10-10T08:30:02Z</time>
      </trkpt>
      <trkpt lat="44.73721" lon="4.62031">
        <ele>215.95</ele>
        <time>2012-10-10T08:30:27Z</time>
      </trkpt>
      <trkpt lat="44.7371" lon="4.61907">
        <ele>217.4</ele>
        <time>2012-10-10T08:30:52Z</time>
      </trkpt>
      <trkpt lat="44.73629" lon="4.61849">
        <ele>220.28</ele>
        <time>2012-10-10T08:31:19Z</time>
      </trkpt>
      <trkpt lat="44.73536" lon="4.61851">
        <ele>222.2</ele>
        <time>2012-10-10T08:31:44Z</time>
      </trkpt>
      <trkpt lat="44.73489" lon="4.61738">
        <ele>225.09</ele>
        <time>2012-10-10T08:32:07Z</time>
      </trkpt>
      <trkpt lat="44.73534" lon="4.61633">
        <ele>226.05</ele>
        <time>2012-10-10T08:32:29Z</time>
      </trkpt>
      <trkpt lat="44.73621" lon="4.61614">
        <ele>228.45</ele>
        <time>2012-10-10T08:32:51Z</time>
      </trkpt>
      <trkpt lat="44.73703" lon="4.61581">
        <ele>231.81</ele>
        <time>2012-10-10T08:33:14Z</time>
      </trkpt>
      <trkpt lat="44.7368" lon="4.61466">
        <ele>232.78</ele>
        <time>2012-10-10T08:33:36Z</time>
      </trkpt>
      <trkpt lat="44.73635" lon="4.6135">
        <ele>238.54</ele>
        <time>2012-10-10T08:34:04Z</time>
      </trkpt>
      <trkpt lat="44.73596" lon="4.61213">
        <ele>245.27</ele>
        <time>2012-10-10T08:34:40Z</time>
      </trkpt>
      <trkpt lat="44.73556" lon="4.6109">
        <ele>250.08</ele>
        <time>2012-10-10T08:35:14Z</time>
      </trkpt>
      <trkpt lat="44.73485" lon="4.61">
        <ele>256.33</ele>
        <time>2012-10-10T08:35:52Z</time>
      </trkpt>
      <trkpt lat="44.73474" lon="4.60882">
        <ele>262.1</ele>
        <time>2012-10-10T08:36:26Z</time>
      </trkpt>
      <trkpt lat="44.73436" lon="4.60759">
        <ele>267.86</ele>
        <time>2012-10-10T08:37:06Z</time>
      </trkpt>
      <trkpt lat="44.73381" lon="4.60664">
        <ele>272.19</ele>
        <time>2012-10-10T08:37:38Z</time>
      </trkpt>
      <trkpt lat="44.7344" lon="4.60561">
        <ele>277.96</ele>
        <time>2012-10-10T08:38:11Z</time>
      </trkpt>
      <trkpt lat="44.73503" lon="4.60463">
        <ele>284.21</ele>
        <time>2012-10-10T08:38:44Z</time>
      </trkpt>
      <trkpt lat="44.73545" lon="4.60341">
        <ele>290.94</ele>
        <time>2012-10-10T08:39:24Z</time>
      </trkpt>
      <trkpt lat="44.73516" lon="4.60214">
        <ele>295.74</ele>
        <time>2012-10-10T08:40:01Z</time>
      </trkpt>
      <trkpt lat="44.73471" lon="4.601">
        <ele>300.55</ele>
        <time>2012-10-10T08:41:04Z</time>
      </trkpt>
      <trkpt lat="44.73484" lon="4.59969">
        <ele>302.47</ele>
        <time>2012-10-10T08:41:30Z</time>
      </trkpt>
      <trkpt lat="44.73475" lon="4.59822">
        <ele>303.91</ele>
        <time>2012-10-10T08:42:22Z</time>
      </trkpt>
      <trkpt lat="44.73496" lon="4.59695">
        <ele>308.24</ele>
        <time>2012-10-10T08:42:52Z</time>
      </trkpt>
      <trkpt lat="44.73536" lon="4.597">
        <ele>310.64</ele>
        <time>2012-10-10T08:49:19Z</time>
      </trkpt>
      <trkpt lat="44.7353" lon="4.59814">
        <ele>309.68</ele>
        <time>2012-10-10T08:51:32Z</time>
      </trkpt>
      <trkpt lat="44.7353" lon="4.59823">
        <ele>311.12</ele>
        <time>2012-10-10T08:56:09Z</time>
      </trkpt>
      <trkpt lat="44.73577" lon="4.59747">
        <ele>316.41</ele>
        <time>2012-10-10T09:03:12Z</time>
      </trkpt>
      <trkpt lat="44.73637" lon="4.59812">
        <ele>312.57</ele>
        <time>2012-10-10T09:04:01Z</time>
      </trkpt>
      <trkpt lat="44.7356" lon="4.59808">
        <ele>314.97</ele>
        <time>2012-10-10T09:05:01Z</time>
      </trkpt>
      <trkpt lat="44.7355" lon="4.59696">
        <ele>319.78</ele>
        <time>2012-10-10T09:06:04Z</time>
      </trkpt>
      <trkpt lat="44.73507" lon="4.59601">
        <ele>319.78</ele>
        <time>2012-10-10T09:08:55Z</time>
      </trkpt>
      <trkpt lat="44.73502" lon="4.59477">
        <ele>324.58</ele>
        <time>2012-10-10T09:09:35Z</time>
      </trkpt>
      <trkpt lat="44.73419" lon="4.59405">
        <ele>328.91</ele>
        <time>2012-10-10T09:10:14Z</time>
      </trkpt>
      <trkpt lat="44.73316" lon="4.59386">
        <ele>333.23</ele>
        <time>2012-10-10T09:10:49Z</time>
      </trkpt>
      <trkpt lat="44.7326" lon="4.5929">
        <ele>336.12</ele>
        <time>2012-10-10T09:11:19Z</time>
      </trkpt>
      <trkpt lat="44.732" lon="4.59177">
        <ele>339</ele>
        <time>2012-10-10T09:11:53Z</time>
      </trkpt>
      <trkpt lat="44.73151" lon="4.59053">
        <ele>342.37</ele>
        <time>2012-10-10T09:12:24Z</time>
      </trkpt>
      <trkpt lat="44.73143" lon="4.58922">
        <ele>344.77</ele>
        <time>2012-10-10T09:12:52Z</time>
      </trkpt>
      <trkpt lat="44.73179" lon="4.58795">
        <ele>347.65</ele>
        <time>2012-10-10T09:13:54Z</time>
      </trkpt>
      <trkpt lat="44.73218" lon="4.58675">
        <ele>350.06</ele>
        <time>2012-10-10T09:14:20Z</time>
      </trkpt>
      <trkpt lat="44.73251" lon="4.58555">
        <ele>353.42</ele>
        <time>2012-10-10T09:14:46Z</time>
      </trkpt>
      <trkpt lat="44.73238" lon="4.58428">
        <ele>355.83</ele>
        <time>2012-10-10T09:15:12Z</time>
      </trkpt>
      <trkpt lat="44.73216" lon="4.583">
        <ele>359.19</ele>
        <time>2012-10-10T09:15:38Z</time>
      </trkpt>
      <trkpt lat="44.73178" lon="4.58185">
        <ele>362.55</ele>
        <time>2012-10-10T09:16:05Z</time>
      </trkpt>
      <trkpt lat="44.73107" lon="4.58096">
        <ele>366.4</ele>
        <time>2012-10-10T09:16:32Z</time>
      </trkpt>
      <trkpt lat="44.73048" lon="4.57992">
        <ele>369.76</ele>
        <time>2012-10-10T09:16:59Z</time>
      </trkpt>
      <trkpt lat="44.73018" lon="4.57869">
        <ele>373.13</ele>
        <time>2012-10-10T09:17:26Z</time>
      </trkpt>
      <trkpt lat="44.72991" lon="4.57748">
        <ele>377.45</ele>
        <time>2012-10-10T09:17:53Z</time>
      </trkpt>
      <trkpt lat="44.72962" lon="4.57626">
        <ele>381.3</ele>
        <time>2012-10-10T09:18:16Z</time>
      </trkpt>
      <trkpt lat="44.72935" lon="4.57501">
        <ele>384.18</ele>
        <time>2012-10-10T09:18:38Z</time>
      </trkpt>
      <trkpt lat="44.72906" lon="4.57378">
        <ele>388.51</ele>
        <time>2012-10-10T09:19:00Z</time>
      </trkpt>
      <trkpt lat="44.72881" lon="4.57256">
        <ele>392.36</ele>
        <time>2012-10-10T09:19:22Z</time>
      </trkpt>
      <trkpt lat="44.72891" lon="4.57129">
        <ele>396.68</ele>
        <time>2012-10-10T09:19:44Z</time>
      </trkpt>
      <trkpt lat="44.7293" lon="4.57008">
        <ele>401.01</ele>
        <time>2012-10-10T09:20:14Z</time>
      </trkpt>
      <trkpt lat="44.72947" lon="4.56886">
        <ele>404.85</ele>
        <time>2012-10-10T09:20:44Z</time>
      </trkpt>
      <trkpt lat="44.72928" lon="4.56762">
        <ele>408.7</ele>
        <time>2012-10-10T09:21:13Z</time>
      </trkpt>
      <trkpt lat="44.72915" lon="4.56633">
        <ele>412.06</ele>
        <time>2012-10-10T09:21:42Z</time>
      </trkpt>
      <trkpt lat="44.72939" lon="4.56512">
        <ele>416.39</ele>
        <time>2012-10-10T09:22:12Z</time>
      </trkpt>
      <trkpt lat="44.72912" lon="4.56387">
        <ele>420.71</ele>
        <time>2012-10-10T09:22:42Z</time>
      </trkpt>
      <trkpt lat="44.7289" lon="4.56264">
        <ele>424.08</ele>
        <time>2012-10-10T09:23:11Z</time>
      </trkpt>
      <trkpt lat="44.72834" lon="4.56162">
        <ele>427.92</ele>
        <time>2012-10-10T09:23:39Z</time>
      </trkpt>
      <trkpt lat="44.72852" lon="4.56036">
        <ele>432.25</ele>
        <time>2012-10-10T09:24:08Z</time>
      </trkpt>
      <trkpt lat="44.72802" lon="4.55935">
        <ele>435.61</ele>
        <time>2012-10-10T09:24:36Z</time>
      </trkpt>
      <trkpt lat="44.72798" lon="4.55804">
        <ele>440.42</ele>
        <time>2012-10-10T09:25:04Z</time>
      </trkpt>
      <trkpt lat="44.7277" lon="4.5568">
        <ele>444.27</ele>
        <time>2012-10-10T09:25:33Z</time>
      </trkpt>
      <trkpt lat="44.72783" lon="4.55558">
        <ele>448.11</ele>
        <time>2012-10-10T09:26:04Z</time>
      </trkpt>
      <trkpt lat="44.72769" lon="4.55437">
        <ele>453.4</ele>
        <time>2012-10-10T09:27:25Z</time>
      </trkpt>
      <trkpt lat="44.72693" lon="4.55369">
        <ele>457.72</ele>
        <time>2012-10-10T09:27:55Z</time>
      </trkpt>
      <trkpt lat="44.72636" lon="4.55268">
        <ele>461.09</ele>
        <time>2012-10-10T09:28:24Z</time>
      </trkpt>
      <trkpt lat="44.726" lon="4.55147">
        <ele>464.93</ele>
        <time>2012-10-10T09:28:53Z</time>
      </trkpt>
      <trkpt lat="44.72571" lon="4.55026">
        <ele>468.78</ele>
        <time>2012-10-10T09:29:22Z</time>
      </trkpt>
      <trkpt lat="44.72593" lon="4.549">
        <ele>473.11</ele>
        <time>2012-10-10T09:29:51Z</time>
      </trkpt>
      <trkpt lat="44.72626" lon="4.54778">
        <ele>477.91</ele>
        <time>2012-10-10T09:30:20Z</time>
      </trkpt>
      <trkpt lat="44.72672" lon="4.54664">
        <ele>481.76</ele>
        <time>2012-10-10T09:30:49Z</time>
      </trkpt>
      <trkpt lat="44.72729" lon="4.54557">
        <ele>485.6</ele>
        <time>2012-10-10T09:31:17Z</time>
      </trkpt>
      <trkpt lat="44.72795" lon="4.54472">
        <ele>489.93</ele>
        <time>2012-10-10T09:31:44Z</time>
      </trkpt>
      <trkpt lat="44.72865" lon="4.5439">
        <ele>494.26</ele>
        <time>2012-10-10T09:32:14Z</time>
      </trkpt>
      <trkpt lat="44.72878" lon="4.54269">
        <ele>498.1</ele>
        <time>2012-10-10T09:32:43Z</time>
      </trkpt>
      <trkpt lat="44.72866" lon="4.54141">
        <ele>502.43</ele>
        <time>2012-10-10T09:33:12Z</time>
      </trkpt>
      <trkpt lat="44.72845" lon="4.54022">
        <ele>506.27</ele>
        <time>2012-10-10T09:33:41Z</time>
      </trkpt>
      <trkpt lat="44.7279" lon="4.53928">
        <ele>510.6</ele>
        <time>2012-10-10T09:34:10Z</time>
      </trkpt>
      <trkpt lat="44.72761" lon="4.54028">
        <ele>513</ele>
        <time>2012-10-10T09:34:38Z</time>
      </trkpt>
      <trkpt lat="44.7272" lon="4.54137">
        <ele>517.81</ele>
        <time>2012-10-10T09:35:04Z</time>
      </trkpt>
      <trkpt lat="44.72649" lon="4.54186">
        <ele>524.06</ele>
        <time>2012-10-10T09:35:36Z</time>
      </trkpt>
      <trkpt lat="44.72561" lon="4.54166">
        <ele>529.82</ele>
        <time>2012-10-10T09:36:09Z</time>
      </trkpt>
      <trkpt lat="44.72484" lon="4.54098">
        <ele>535.11</ele>
        <time>2012-10-10T09:36:41Z</time>
      </trkpt>
      <trkpt lat="44.72419" lon="4.54009">
        <ele>539.92</ele>
        <time>2012-10-10T09:37:11Z</time>
      </trkpt>
      <trkpt lat="44.7235" lon="4.53949">
        <ele>544.72</ele>
        <time>2012-10-10T09:37:40Z</time>
      </trkpt>
      <trkpt lat="44.72264" lon="4.53913">
        <ele>548.57</ele>
        <time>2012-10-10T09:38:09Z</time>
      </trkpt>
      <trkpt lat="44.7219" lon="4.5383">
        <ele>551.93</ele>
        <time>2012-10-10T09:38:38Z</time>
      </trkpt>
      <trkpt lat="44.7216" lon="4.53708">
        <ele>556.74</ele>
        <time>2012-10-10T09:39:07Z</time>
      </trkpt>
      <trkpt lat="44.72153" lon="4.53581">
        <ele>561.07</ele>
        <time>2012-10-10T09:39:36Z</time>
      </trkpt>
      <trkpt lat="44.72106" lon="4.53494">
        <ele>564.43</ele>
        <time>2012-10-10T09:40:04Z</time>
      </trkpt>
      <trkpt lat="44.72113" lon="4.53368">
        <ele>568.76</ele>
        <time>2012-10-10T09:40:32Z</time>
      </trkpt>
      <trkpt lat="44.7204" lon="4.53305">
        <ele>573.08</ele>
        <time>2012-10-10T09:41:01Z</time>
      </trkpt>
      <trkpt lat="44.7195" lon="4.5329">
        <ele>576.45</ele>
        <time>2012-10-10T09:41:29Z</time>
      </trkpt>
      <trkpt lat="44.71946" lon="4.53169">
        <ele>581.25</ele>
        <time>2012-10-10T09:41:57Z</time>
      </trkpt>
      <trkpt lat="44.71951" lon="4.53038">
        <ele>585.1</ele>
        <time>2012-10-10T09:42:26Z</time>
      </trkpt>
      <trkpt lat="44.71977" lon="4.52925">
        <ele>589.43</ele>
        <time>2012-10-10T09:42:57Z</time>
      </trkpt>
      <trkpt lat="44.72022" lon="4.52822">
        <ele>594.23</ele>
        <time>2012-10-10T09:43:29Z</time>
      </trkpt>
      <trkpt lat="44.72032" lon="4.52696">
        <ele>598.56</ele>
        <time>2012-10-10T09:43:59Z</time>
      </trkpt>
      <trkpt lat="44.72118" lon="4.52715">
        <ele>603.85</ele>
        <time>2012-10-10T09:44:31Z</time>
      </trkpt>
      <trkpt lat="44.72211" lon="4.52695">
        <ele>607.21</ele>
        <time>2012-10-10T09:45:01Z</time>
      </trkpt>
      <trkpt lat="44.72292" lon="4.52639">
        <ele>611.54</ele>
        <time>2012-10-10T09:45:31Z</time>
      </trkpt>
      <trkpt lat="44.72345" lon="4.52534">
        <ele>615.86</ele>
        <time>2012-10-10T09:45:59Z</time>
      </trkpt>
      <trkpt lat="44.7234" lon="4.5241">
        <ele>619.23</ele>
        <time>2012-10-10T09:46:27Z</time>
      </trkpt>
      <trkpt lat="44.72298" lon="4.52296">
        <ele>623.07</ele>
        <time>2012-10-10T09:46:56Z</time>
      </trkpt>
      <trkpt lat="44.72254" lon="4.52179">
        <ele>626.44</ele>
        <time>2012-10-10T09:47:23Z</time>
      </trkpt>
      <trkpt lat="44.72256" lon="4.52052">
        <ele>631.24</ele>
        <time>2012-10-10T09:47:52Z</time>
      </trkpt>
      <trkpt lat="44.72296" lon="4.51935">
        <ele>636.53</ele>
        <time>2012-10-10T09:48:23Z</time>
      </trkpt>
      <trkpt lat="44.72352" lon="4.51837">
        <ele>640.86</ele>
        <time>2012-10-10T09:50:31Z</time>
      </trkpt>
      <trkpt lat="44.72405" lon="4.51736">
        <ele>644.7</ele>
        <time>2012-10-10T09:51:05Z</time>
      </trkpt>
      <trkpt lat="44.72395" lon="4.51611">
        <ele>649.99</ele>
        <time>2012-10-10T09:51:36Z</time>
      </trkpt>
      <trkpt lat="44.72375" lon="4.51496">
        <ele>654.8</ele>
        <time>2012-10-10T09:52:07Z</time>
      </trkpt>
      <trkpt lat="44.72355" lon="4.51377">
        <ele>660.56</ele>
        <time>2012-10-10T09:52:42Z</time>
      </trkpt>
      <trkpt lat="44.72293" lon="4.51277">
        <ele>664.89</ele>
        <time>2012-10-10T09:53:14Z</time>
      </trkpt>
      <trkpt lat="44.72261" lon="4.51155">
        <ele>668.25</ele>
        <time>2012-10-10T09:53:46Z</time>
      </trkpt>
      <trkpt lat="44.72277" lon="4.51034">
        <ele>672.1</ele>
        <time>2012-10-10T09:54:18Z</time>
      </trkpt>
      <trkpt lat="44.72355" lon="4.50966">
        <ele>675.94</ele>
        <time>2012-10-10T09:54:49Z</time>
      </trkpt>
      <trkpt lat="44.72436" lon="4.50984">
        <ele>679.79</ele>
        <time>2012-10-10T09:55:20Z</time>
      </trkpt>
      <trkpt lat="44.72519" lon="4.50944">
        <ele>684.12</ele>
        <time>2012-10-10T09:55:51Z</time>
      </trkpt>
      <trkpt lat="44.72607" lon="4.50921">
        <ele>687.48</ele>
        <time>2012-10-10T09:56:21Z</time>
      </trkpt>
      <trkpt lat="44.72696" lon="4.50883">
        <ele>692.29</ele>
        <time>2012-10-10T09:56:50Z</time>
      </trkpt>
      <trkpt lat="44.72788" lon="4.5085">
        <ele>696.13</ele>
        <time>2012-10-10T09:57:51Z</time>
      </trkpt>
      <trkpt lat="44.7283" lon="4.50744">
        <ele>698.53</ele>
        <time>2012-10-10T10:00:21Z</time>
      </trkpt>
      <trkpt lat="44.72831" lon="4.50612">
        <ele>701.9</ele>
        <time>2012-10-10T10:00:50Z</time>
      </trkpt>
      <trkpt lat="44.72867" lon="4.5049">
        <ele>704.78</ele>
        <time>2012-10-10T10:01:18Z</time>
      </trkpt>
      <trkpt lat="44.72843" lon="4.50369">
        <ele>707.67</ele>
        <time>2012-10-10T10:01:44Z</time>
      </trkpt>
      <trkpt lat="44.72812" lon="4.50245">
        <ele>711.03</ele>
        <time>2012-10-10T10:02:07Z</time>
      </trkpt>
      <trkpt lat="44.7278" lon="4.50119">
        <ele>712.95</ele>
        <time>2012-10-10T10:02:30Z</time>
      </trkpt>
      <trkpt lat="44.72744" lon="4.5">
        <ele>717.28</ele>
        <time>2012-10-10T10:02:54Z</time>
      </trkpt>
      <trkpt lat="44.72703" lon="4.49879">
        <ele>723.53</ele>
        <time>2012-10-10T10:03:31Z</time>
      </trkpt>
      <trkpt lat="44.72667" lon="4.49761">
        <ele>728.82</ele>
        <time>2012-10-10T10:04:09Z</time>
      </trkpt>
      <trkpt lat="44.72625" lon="4.49648">
        <ele>735.55</ele>
        <time>2012-10-10T10:04:46Z</time>
      </trkpt>
      <trkpt lat="44.72547" lon="4.49586">
        <ele>741.79</ele>
        <time>2012-10-10T10:05:22Z</time>
      </trkpt>
      <trkpt lat="44.72461" lon="4.49543">
        <ele>748.52</ele>
        <time>2012-10-10T10:05:58Z</time>
      </trkpt>
      <trkpt lat="44.72369" lon="4.49529">
        <ele>752.85</ele>
        <time>2012-10-10T10:06:32Z</time>
      </trkpt>
      <trkpt lat="44.72275" lon="4.49542">
        <ele>761.02</ele>
        <time>2012-10-10T10:07:06Z</time>
      </trkpt>
      <trkpt lat="44.72187" lon="4.49501">
        <ele>767.75</ele>
        <time>2012-10-10T10:07:39Z</time>
      </trkpt>
      <trkpt lat="44.72097" lon="4.49499">
        <ele>773.04</ele>
        <time>2012-10-10T10:08:16Z</time>
      </trkpt>
      <trkpt lat="44.72011" lon="4.49456">
        <ele>778.81</ele>
        <time>2012-10-10T10:08:55Z</time>
      </trkpt>
      <trkpt lat="44.71954" lon="4.49354">
        <ele>785.53</ele>
        <time>2012-10-10T10:09:34Z</time>
      </trkpt>
      <trkpt lat="44.71876" lon="4.49305">
        <ele>791.3</ele>
        <time>2012-10-10T10:10:56Z</time>
      </trkpt>
      <trkpt lat="44.71817" lon="4.49314">
        <ele>795.15</ele>
        <time>2012-10-10T10:17:14Z</time>
      </trkpt>
      <trkpt lat="44.71745" lon="4.4927">
        <ele>791.3</ele>
        <time>2012-10-10T10:19:41Z</time>
      </trkpt>
      <trkpt lat="44.71715" lon="4.49137">
        <ele>784.57</ele>
        <time>2012-10-10T10:19:52Z</time>
      </trkpt>
      <trkpt lat="44.71694" lon="4.49008">
        <ele>778.81</ele>
        <time>2012-10-10T10:20:00Z</time>
      </trkpt>
      <trkpt lat="44.71675" lon="4.48876">
        <ele>774</ele>
        <time>2012-10-10T10:20:08Z</time>
      </trkpt>
      <trkpt lat="44.71666" lon="4.48778">
        <ele>764.87</ele>
        <time>2012-10-10T10:20:19Z</time>
      </trkpt>
      <trkpt lat="44.71588" lon="4.48754">
        <ele>759.1</ele>
        <time>2012-10-10T10:20:30Z</time>
      </trkpt>
      <trkpt lat="44.71521" lon="4.48679">
        <ele>752.37</ele>
        <time>2012-10-10T10:20:43Z</time>
      </trkpt>
      <trkpt lat="44.71542" lon="4.48795">
        <ele>747.08</ele>
        <time>2012-10-10T10:22:25Z</time>
      </trkpt>
      <trkpt lat="44.71581" lon="4.48915">
        <ele>742.28</ele>
        <time>2012-10-10T10:22:37Z</time>
      </trkpt>
      <trkpt lat="44.71541" lon="4.49033">
        <ele>737.47</ele>
        <time>2012-10-10T10:22:47Z</time>
      </trkpt>
      <trkpt lat="44.71452" lon="4.48977">
        <ele>729.3</ele>
        <time>2012-10-10T10:22:57Z</time>
      </trkpt>
      <trkpt lat="44.71355" lon="4.48974">
        <ele>722.09</ele>
        <time>2012-10-10T10:23:07Z</time>
      </trkpt>
      <trkpt lat="44.71265" lon="4.48961">
        <ele>716.32</ele>
        <time>2012-10-10T10:23:16Z</time>
      </trkpt>
      <trkpt lat="44.71171" lon="4.4894">
        <ele>709.59</ele>
        <time>2012-10-10T10:23:26Z</time>
      </trkpt>
      <trkpt lat="44.71088" lon="4.48896">
        <ele>703.82</ele>
        <time>2012-10-10T10:23:36Z</time>
      </trkpt>
      <trkpt lat="44.71019" lon="4.48804">
        <ele>697.09</ele>
        <time>2012-10-10T10:23:47Z</time>
      </trkpt>
      <trkpt lat="44.70934" lon="4.48752">
        <ele>691.33</ele>
        <time>2012-10-10T10:23:58Z</time>
      </trkpt>
      <trkpt lat="44.70855" lon="4.48811">
        <ele>684.12</ele>
        <time>2012-10-10T10:24:08Z</time>
      </trkpt>
      <trkpt lat="44.70769" lon="4.48855">
        <ele>678.83</ele>
        <time>2012-10-10T10:24:18Z</time>
      </trkpt>
      <trkpt lat="44.70688" lon="4.48816">
        <ele>672.1</ele>
        <time>2012-10-10T10:24:29Z</time>
      </trkpt>
      <trkpt lat="44.70676" lon="4.48683">
        <ele>665.85</ele>
        <time>2012-10-10T10:24:40Z</time>
      </trkpt>
      <trkpt lat="44.70645" lon="4.48557">
        <ele>659.6</ele>
        <time>2012-10-10T10:24:51Z</time>
      </trkpt>
      <trkpt lat="44.70599" lon="4.48438">
        <ele>652.87</ele>
        <time>2012-10-10T10:25:02Z</time>
      </trkpt>
      <trkpt lat="44.70523" lon="4.48354">
        <ele>646.14</ele>
        <time>2012-10-10T10:25:13Z</time>
      </trkpt>
      <trkpt lat="44.70464" lon="4.48252">
        <ele>640.38</ele>
        <time>2012-10-10T10:25:24Z</time>
      </trkpt>
      <trkpt lat="44.70438" lon="4.48218">
        <ele>636.53</ele>
        <time>2012-10-10T10:26:36Z</time>
      </trkpt>
      <trkpt lat="44.7035" lon="4.48183">
        <ele>630.28</ele>
        <time>2012-10-10T10:26:48Z</time>
      </trkpt>
      <trkpt lat="44.70261" lon="4.48203">
        <ele>624.51</ele>
        <time>2012-10-10T10:26:56Z</time>
      </trkpt>
      <trkpt lat="44.70166" lon="4.48166">
        <ele>618.75</ele>
        <time>2012-10-10T10:27:04Z</time>
      </trkpt>
      <trkpt lat="44.70065" lon="4.48177">
        <ele>612.02</ele>
        <time>2012-10-10T10:27:12Z</time>
      </trkpt>
      <trkpt lat="44.69966" lon="4.48196">
        <ele>606.73</ele>
        <time>2012-10-10T10:27:20Z</time>
      </trkpt>
      <trkpt lat="44.69879" lon="4.48158">
        <ele>600.48</ele>
        <time>2012-10-10T10:27:28Z</time>
      </trkpt>
      <trkpt lat="44.69845" lon="4.48033">
        <ele>590.87</ele>
        <time>2012-10-10T10:27:36Z</time>
      </trkpt>
      <trkpt lat="44.69785" lon="4.47924">
        <ele>586.54</ele>
        <time>2012-10-10T10:27:44Z</time>
      </trkpt>
      <trkpt lat="44.69716" lon="4.47823">
        <ele>582.7</ele>
        <time>2012-10-10T10:27:52Z</time>
      </trkpt>
      <trkpt lat="44.6963" lon="4.4777">
        <ele>578.85</ele>
        <time>2012-10-10T10:28:00Z</time>
      </trkpt>
      <trkpt lat="44.69544" lon="4.47738">
        <ele>575.01</ele>
        <time>2012-10-10T10:28:08Z</time>
      </trkpt>
      <trkpt lat="44.69458" lon="4.47704">
        <ele>568.28</ele>
        <time>2012-10-10T10:28:16Z</time>
      </trkpt>
      <trkpt lat="44.69392" lon="4.47601">
        <ele>562.51</ele>
        <time>2012-10-10T10:28:25Z</time>
      </trkpt>
      <trkpt lat="44.69326" lon="4.47514">
        <ele>558.18</ele>
        <time>2012-10-10T10:28:33Z</time>
      </trkpt>
      <trkpt lat="44.69236" lon="4.47453">
        <ele>551.93</ele>
        <time>2012-10-10T10:28:42Z</time>
      </trkpt>
      <trkpt lat="44.69201" lon="4.47323">
        <ele>547.61</ele>
        <time>2012-10-10T10:28:51Z</time>
      </trkpt>
      <trkpt lat="44.69136" lon="4.47224">
        <ele>542.8</ele>
        <time>2012-10-10T10:29:00Z</time>
      </trkpt>
      <trkpt lat="44.6905" lon="4.47156">
        <ele>537.03</ele>
        <time>2012-10-10T10:29:09Z</time>
      </trkpt>
      <trkpt lat="44.68972" lon="4.47091">
        <ele>533.67</ele>
        <time>2012-10-10T10:29:17Z</time>
      </trkpt>
      <trkpt lat="44.68895" lon="4.47024">
        <ele>530.3</ele>
        <time>2012-10-10T10:29:25Z</time>
      </trkpt>
      <trkpt lat="44.68817" lon="4.4696">
        <ele>526.46</ele>
        <time>2012-10-10T10:29:33Z</time>
      </trkpt>
      <trkpt lat="44.6874" lon="4.46896">
        <ele>523.58</ele>
        <time>2012-10-10T10:29:41Z</time>
      </trkpt>
      <trkpt lat="44.68674" lon="4.46793">
        <ele>518.77</ele>
        <time>2012-10-10T10:29:50Z</time>
      </trkpt>
      <trkpt lat="44.68618" lon="4.4669">
        <ele>514.44</ele>
        <time>2012-10-10T10:29:58Z</time>
      </trkpt>
      <trkpt lat="44.68546" lon="4.466">
        <ele>507.71</ele>
        <time>2012-10-10T10:30:06Z</time>
      </trkpt>
      <trkpt lat="44.68469" lon="4.46537">
        <ele>502.43</ele>
        <time>2012-10-10T10:30:13Z</time>
      </trkpt>
      <trkpt lat="44.68389" lon="4.46475">
        <ele>497.14</ele>
        <time>2012-10-10T10:30:20Z</time>
      </trkpt>
      <trkpt lat="44.68309" lon="4.46413">
        <ele>491.85</ele>
        <time>2012-10-10T10:30:27Z</time>
      </trkpt>
      <trkpt lat="44.68266" lon="4.46306">
        <ele>485.6</ele>
        <time>2012-10-10T10:30:35Z</time>
      </trkpt>
      <trkpt lat="44.68258" lon="4.46186">
        <ele>477.91</ele>
        <time>2012-10-10T10:30:44Z</time>
      </trkpt>
      <trkpt lat="44.68173" lon="4.46131">
        <ele>468.78</ele>
        <time>2012-10-10T10:30:56Z</time>
      </trkpt>
      <trkpt lat="44.68078" lon="4.4611">
        <ele>463.01</ele>
        <time>2012-10-10T10:31:08Z</time>
      </trkpt>
      <trkpt lat="44.67982" lon="4.46113">
        <ele>456.76</ele>
        <time>2012-10-10T10:31:19Z</time>
      </trkpt>
      <trkpt lat="44.67891" lon="4.46097">
        <ele>449.55</ele>
        <time>2012-10-10T10:31:29Z</time>
      </trkpt>
      <trkpt lat="44.67798" lon="4.46091">
        <ele>443.31</ele>
        <time>2012-10-10T10:31:39Z</time>
      </trkpt>
      <trkpt lat="44.67706" lon="4.46066">
        <ele>438.02</ele>
        <time>2012-10-10T10:31:49Z</time>
      </trkpt>
      <trkpt lat="44.67617" lon="4.46031">
        <ele>431.29</ele>
        <time>2012-10-10T10:31:59Z</time>
      </trkpt>
      <trkpt lat="44.67523" lon="4.46038">
        <ele>425.52</ele>
        <time>2012-10-10T10:32:09Z</time>
      </trkpt>
      <trkpt lat="44.67436" lon="4.46004">
        <ele>418.79</ele>
        <time>2012-10-10T10:32:18Z</time>
      </trkpt>
      <trkpt lat="44.67377" lon="4.45908">
        <ele>412.54</ele>
        <time>2012-10-10T10:32:27Z</time>
      </trkpt>
      <trkpt lat="44.67292" lon="4.45841">
        <ele>402.93</ele>
        <time>2012-10-10T10:32:37Z</time>
      </trkpt>
      <trkpt lat="44.67205" lon="4.45789">
        <ele>396.2</ele>
        <time>2012-10-10T10:32:47Z</time>
      </trkpt>
      <trkpt lat="44.67118" lon="4.45734">
        <ele>388.51</ele>
        <time>2012-10-10T10:32:57Z</time>
      </trkpt>
      <trkpt lat="44.67037" lon="4.45675">
        <ele>383.22</ele>
        <time>2012-10-10T10:33:07Z</time>
      </trkpt>
      <trkpt lat="44.66958" lon="4.45615">
        <ele>376.97</ele>
        <time>2012-10-10T10:33:17Z</time>
      </trkpt>
      <trkpt lat="44.66873" lon="4.45553">
        <ele>370.73</ele>
        <time>2012-10-10T10:33:28Z</time>
      </trkpt>
      <trkpt lat="44.66804" lon="4.45464">
        <ele>364.96</ele>
        <time>2012-10-10T10:33:39Z</time>
      </trkpt>
      <trkpt lat="44.66742" lon="4.4536">
        <ele>360.15</ele>
        <time>2012-10-10T10:33:50Z</time>
      </trkpt>
      <trkpt lat="44.66666" lon="4.45305">
        <ele>355.83</ele>
        <time>2012-10-10T10:34:02Z</time>
      </trkpt>
      <trkpt lat="44.66571" lon="4.4532">
        <ele>351.02</ele>
        <time>2012-10-10T10:34:13Z</time>
      </trkpt>
      <trkpt lat="44.66481" lon="4.453">
        <ele>346.69</ele>
        <time>2012-10-10T10:34:22Z</time>
      </trkpt>
      <trkpt lat="44.66402" lon="4.45236">
        <ele>342.37</ele>
        <time>2012-10-10T10:34:30Z</time>
      </trkpt>
      <trkpt lat="44.66325" lon="4.45169">
        <ele>338.52</ele>
        <time>2012-10-10T10:34:38Z</time>
      </trkpt>
      <trkpt lat="44.66246" lon="4.45102">
        <ele>334.68</ele>
        <time>2012-10-10T10:34:46Z</time>
      </trkpt>
      <trkpt lat="44.66167" lon="4.45034">
        <ele>329.87</ele>
        <time>2012-10-10T10:34:54Z</time>
      </trkpt>
      <trkpt lat="44.66079" lon="4.44971">
        <ele>325.06</ele>
        <time>2012-10-10T10:35:02Z</time>
      </trkpt>
      <trkpt lat="44.65982" lon="4.44946">
        <ele>320.26</ele>
        <time>2012-10-10T10:35:10Z</time>
      </trkpt>
      <trkpt lat="44.65885" lon="4.44931">
        <ele>316.41</ele>
        <time>2012-10-10T10:35:19Z</time>
      </trkpt>
      <trkpt lat="44.65798" lon="4.4489">
        <ele>312.57</ele>
        <time>2012-10-10T10:35:28Z</time>
      </trkpt>
      <trkpt lat="44.65719" lon="4.44818">
        <ele>310.16</ele>
        <time>2012-10-10T10:35:37Z</time>
      </trkpt>
      <trkpt lat="44.65643" lon="4.44741">
        <ele>307.76</ele>
        <time>2012-10-10T10:35:46Z</time>
      </trkpt>
      <trkpt lat="44.65563" lon="4.44675">
        <ele>304.39</ele>
        <time>2012-10-10T10:35:55Z</time>
      </trkpt>
      <trkpt lat="44.65486" lon="4.44603">
        <ele>304.88</ele>
        <time>2012-10-10T10:36:05Z</time>
      </trkpt>
      <trkpt lat="44.65411" lon="4.44533">
        <ele>303.43</ele>
        <time>2012-10-10T10:36:16Z</time>
      </trkpt>
      <trkpt lat="44.65331" lon="4.44459">
        <ele>303.43</ele>
        <time>2012-10-10T10:36:28Z</time>
      </trkpt>
      <trkpt lat="44.65251" lon="4.44383">
        <ele>303.43</ele>
        <time>2012-10-10T10:36:41Z</time>
      </trkpt>
      <trkpt lat="44.65177" lon="4.44306">
        <ele>300.07</ele>
        <time>2012-10-10T10:36:52Z</time>
      </trkpt>
      <trkpt lat="44.65101" lon="4.4423">
        <ele>297.18</ele>
        <time>2012-10-10T10:37:02Z</time>
      </trkpt>
      <trkpt lat="44.65022" lon="4.44149">
        <ele>292.86</ele>
        <time>2012-10-10T10:37:12Z</time>
      </trkpt>
      <trkpt lat="44.64948" lon="4.44073">
        <ele>289.49</ele>
        <time>2012-10-10T10:37:21Z</time>
      </trkpt>
      <trkpt lat="44.64874" lon="4.43994">
        <ele>287.09</ele>
        <time>2012-10-10T10:37:30Z</time>
      </trkpt>
      <trkpt lat="44.64796" lon="4.43914">
        <ele>286.61</ele>
        <time>2012-10-10T10:37:41Z</time>
      </trkpt>
      <trkpt lat="44.64723" lon="4.43838">
        <ele>286.61</ele>
        <time>2012-10-10T10:37:53Z</time>
      </trkpt>
      <trkpt lat="44.64652" lon="4.43756">
        <ele>286.61</ele>
        <time>2012-10-10T10:38:07Z</time>
      </trkpt>
      <trkpt lat="44.64595" lon="4.43653">
        <ele>288.53</ele>
        <time>2012-10-10T10:38:24Z</time>
      </trkpt>
      <trkpt lat="44.6454" lon="4.43558">
        <ele>288.53</ele>
        <time>2012-10-10T10:40:34Z</time>
      </trkpt>
      <trkpt lat="44.64479" lon="4.43454">
        <ele>287.57</ele>
        <time>2012-10-10T10:40:52Z</time>
      </trkpt>
      <trkpt lat="44.64412" lon="4.43366">
        <ele>284.21</ele>
        <time>2012-10-10T10:41:05Z</time>
      </trkpt>
      <trkpt lat="44.64341" lon="4.43279">
        <ele>280.36</ele>
        <time>2012-10-10T10:41:17Z</time>
      </trkpt>
      <trkpt lat="44.6427" lon="4.43194">
        <ele>277.48</ele>
        <time>2012-10-10T10:41:28Z</time>
      </trkpt>
      <trkpt lat="44.64196" lon="4.43101">
        <ele>274.11</ele>
        <time>2012-10-10T10:41:39Z</time>
      </trkpt>
      <trkpt lat="44.64126" lon="4.43013">
        <ele>272.19</ele>
        <time>2012-10-10T10:41:49Z</time>
      </trkpt>
      <trkpt lat="44.64055" lon="4.42925">
        <ele>269.79</ele>
        <time>2012-10-10T10:41:59Z</time>
      </trkpt>
      <trkpt lat="44.63988" lon="4.42836">
        <ele>268.35</ele>
        <time>2012-10-10T10:42:09Z</time>
      </trkpt>
      <trkpt lat="44.63932" lon="4.42726">
        <ele>265.94</ele>
        <time>2012-10-10T10:42:20Z</time>
      </trkpt>
      <trkpt lat="44.63876" lon="4.42619">
        <ele>264.02</ele>
        <time>2012-10-10T10:42:31Z</time>
      </trkpt>
      <trkpt lat="44.63798" lon="4.4255">
        <ele>262.1</ele>
        <time>2012-10-10T10:42:42Z</time>
      </trkpt>
      <trkpt lat="44.63714" lon="4.42494">
        <ele>259.69</ele>
        <time>2012-10-10T10:42:53Z</time>
      </trkpt>
      <trkpt lat="44.63629" lon="4.42437">
        <ele>256.81</ele>
        <time>2012-10-10T10:43:04Z</time>
      </trkpt>
      <trkpt lat="44.6354" lon="4.42379">
        <ele>254.41</ele>
        <time>2012-10-10T10:43:15Z</time>
      </trkpt>
      <trkpt lat="44.63454" lon="4.42321">
        <ele>253.44</ele>
        <time>2012-10-10T10:43:26Z</time>
      </trkpt>
      <trkpt lat="44.63371" lon="4.42266">
        <ele>251.04</ele>
        <time>2012-10-10T10:43:37Z</time>
      </trkpt>
      <trkpt lat="44.63288" lon="4.4221">
        <ele>247.68</ele>
        <time>2012-10-10T10:43:48Z</time>
      </trkpt>
      <trkpt lat="44.63203" lon="4.42154">
        <ele>244.79</ele>
        <time>2012-10-10T10:43:59Z</time>
      </trkpt>
      <trkpt lat="44.6312" lon="4.42099">
        <ele>242.39</ele>
        <time>2012-10-10T10:44:10Z</time>
      </trkpt>
      <trkpt lat="44.63031" lon="4.42053">
        <ele>238.54</ele>
        <time>2012-10-10T10:44:21Z</time>
      </trkpt>
      <trkpt lat="44.62937" lon="4.42031">
        <ele>234.22</ele>
        <time>2012-10-10T10:44:31Z</time>
      </trkpt>
      <trkpt lat="44.62845" lon="4.42019">
        <ele>228.93</ele>
        <time>2012-10-10T10:44:40Z</time>
      </trkpt>
      <trkpt lat="44.6275" lon="4.41985">
        <ele>224.61</ele>
        <time>2012-10-10T10:44:49Z</time>
      </trkpt>
      <trkpt lat="44.62665" lon="4.41937">
        <ele>222.2</ele>
        <time>2012-10-10T10:44:58Z</time>
      </trkpt>
      <trkpt lat="44.62582" lon="4.41882">
        <ele>220.28</ele>
        <time>2012-10-10T10:45:09Z</time>
      </trkpt>
      <trkpt lat="44.62495" lon="4.4184">
        <ele>220.28</ele>
        <time>2012-10-10T10:45:24Z</time>
      </trkpt>
      <trkpt lat="44.62414" lon="4.41782">
        <ele>222.68</ele>
        <time>2012-10-10T10:45:41Z</time>
      </trkpt>
      <trkpt lat="44.62337" lon="4.41709">
        <ele>223.64</ele>
        <time>2012-10-10T10:47:18Z</time>
      </trkpt>
      <trkpt lat="44.62266" lon="4.41622">
        <ele>222.68</ele>
        <time>2012-10-10T10:47:36Z</time>
      </trkpt>
      <trkpt lat="44.62204" lon="4.41531">
        <ele>220.76</ele>
        <time>2012-10-10T10:47:50Z</time>
      </trkpt>
      <trkpt lat="44.62143" lon="4.41435">
        <ele>219.8</ele>
        <time>2012-10-10T10:48:03Z</time>
      </trkpt>
      <trkpt lat="44.6208" lon="4.41341">
        <ele>221.24</ele>
        <time>2012-10-10T10:48:19Z</time>
      </trkpt>
      <trkpt lat="44.62018" lon="4.41244">
        <ele>221.72</ele>
        <time>2012-10-10T10:48:37Z</time>
      </trkpt>
      <trkpt lat="44.61956" lon="4.41148">
        <ele>222.2</ele>
        <time>2012-10-10T10:48:54Z</time>
      </trkpt>
      <trkpt lat="44.61894" lon="4.41056">
        <ele>224.12</ele>
        <time>2012-10-10T10:49:11Z</time>
      </trkpt>
      <trkpt lat="44.61821" lon="4.40978">
        <ele>225.09</ele>
        <time>2012-10-10T10:49:28Z</time>
      </trkpt>
      <trkpt lat="44.61738" lon="4.40924">
        <ele>226.53</ele>
        <time>2012-10-10T10:49:44Z</time>
      </trkpt>
      <trkpt lat="44.61648" lon="4.40894">
        <ele>227.01</ele>
        <time>2012-10-10T10:50:01Z</time>
      </trkpt>
      <trkpt lat="44.61557" lon="4.40873">
        <ele>226.53</ele>
        <time>2012-10-10T10:50:19Z</time>
      </trkpt>
      <trkpt lat="44.61464" lon="4.40851">
        <ele>226.53</ele>
        <time>2012-10-10T10:50:36Z</time>
      </trkpt>
      <trkpt lat="44.61372" lon="4.40824">
        <ele>225.09</ele>
        <time>2012-10-10T10:50:52Z</time>
      </trkpt>
      <trkpt lat="44.61335" lon="4.40746">
        <ele>224.61</ele>
        <time>2012-10-10T10:51:13Z</time>
      </trkpt>
      <trkpt lat="44.61403" lon="4.40654">
        <ele>226.05</ele>
        <time>2012-10-10T10:51:36Z</time>
      </trkpt>
      <trkpt lat="44.61474" lon="4.40571">
        <ele>227.01</ele>
        <time>2012-10-10T10:51:55Z</time>
      </trkpt>
      <trkpt lat="44.61531" lon="4.40474">
        <ele>228.93</ele>
        <time>2012-10-10T10:52:15Z</time>
      </trkpt>
      <trkpt lat="44.6157" lon="4.4039">
        <ele>228.93</ele>
        <time>2012-10-10T10:52:36Z</time>
      </trkpt>
      <trkpt lat="44.61545" lon="4.40277">
        <ele>230.85</ele>
        <time>2012-10-10T10:52:55Z</time>
      </trkpt>
      <trkpt lat="44.61558" lon="4.40147">
        <ele>233.26</ele>
        <time>2012-10-10T10:53:15Z</time>
      </trkpt>
      <trkpt lat="44.61545" lon="4.40024">
        <ele>236.62</ele>
        <time>2012-10-10T10:53:40Z</time>
      </trkpt>
      <trkpt lat="44.61522" lon="4.39891">
        <ele>242.39</ele>
        <time>2012-10-10T10:54:15Z</time>
      </trkpt>
      <trkpt lat="44.61503" lon="4.3976">
        <ele>248.16</ele>
        <time>2012-10-10T10:54:49Z</time>
      </trkpt>
      <trkpt lat="44.6148" lon="4.39637">
        <ele>254.41</ele>
        <time>2012-10-10T10:55:27Z</time>
      </trkpt>
      <trkpt lat="44.61434" lon="4.39518">
        <ele>260.65</ele>
        <time>2012-10-10T10:56:02Z</time>
      </trkpt>
      <trkpt lat="44.61392" lon="4.39388">
        <ele>267.38</ele>
        <time>2012-10-10T10:56:39Z</time>
      </trkpt>
      <trkpt lat="44.61466" lon="4.39346">
        <ele>274.11</ele>
        <time>2012-10-10T10:57:16Z</time>
      </trkpt>
      <trkpt lat="44.6156" lon="4.39341">
        <ele>278.92</ele>
        <time>2012-10-10T10:57:52Z</time>
      </trkpt>
      <trkpt lat="44.61652" lon="4.39322">
        <ele>284.69</ele>
        <time>2012-10-10T10:58:25Z</time>
      </trkpt>
      <trkpt lat="44.61742" lon="4.39333">
        <ele>290.94</ele>
        <time>2012-10-10T10:58:57Z</time>
      </trkpt>
      <trkpt lat="44.61831" lon="4.39383">
        <ele>296.7</ele>
        <time>2012-10-10T10:59:30Z</time>
      </trkpt>
      <trkpt lat="44.61799" lon="4.39255">
        <ele>299.11</ele>
        <time>2012-10-10T11:00:00Z</time>
      </trkpt>
      <trkpt lat="44.61771" lon="4.39126">
        <ele>304.39</ele>
        <time>2012-10-10T11:00:34Z</time>
      </trkpt>
      <trkpt lat="44.61759" lon="4.38995">
        <ele>309.2</ele>
        <time>2012-10-10T11:01:11Z</time>
      </trkpt>
      <trkpt lat="44.61798" lon="4.38956">
        <ele>314.01</ele>
        <time>2012-10-10T11:01:51Z</time>
      </trkpt>
      <trkpt lat="44.61866" lon="4.39054">
        <ele>317.37</ele>
        <time>2012-10-10T11:02:26Z</time>
      </trkpt>
      <trkpt lat="44.61948" lon="4.39013">
        <ele>323.14</ele>
        <time>2012-10-10T11:03:51Z</time>
      </trkpt>
      <trkpt lat="44.6198" lon="4.3914">
        <ele>324.58</ele>
        <time>2012-10-10T11:04:32Z</time>
      </trkpt>
      <trkpt lat="44.62067" lon="4.39223">
        <ele>320.74</ele>
        <time>2012-10-10T11:05:03Z</time>
      </trkpt>
      <trkpt lat="44.62018" lon="4.39182">
        <ele>322.66</ele>
        <time>2012-10-10T11:05:44Z</time>
      </trkpt>
      <trkpt lat="44.62065" lon="4.39056">
        <ele>326.02</ele>
        <time>2012-10-10T11:07:25Z</time>
      </trkpt>
      <trkpt lat="44.6208" lon="4.39015">
        <ele>325.06</ele>
        <time>2012-10-10T11:13:25Z</time>
      </trkpt>
      <trkpt lat="44.62081" lon="4.39013">
        <ele>314.49</ele>
        <time>2012-10-10T11:48:42Z</time>
      </trkpt>
      <trkpt lat="44.61858" lon="4.38879">
        <ele>308.72</ele>
        <time>2012-10-10T11:49:51Z</time>
      </trkpt>
      <trkpt lat="44.61765" lon="4.38937">
        <ele>304.88</ele>
        <time>2012-10-10T11:50:40Z</time>
      </trkpt>
      <trkpt lat="44.6175" lon="4.3904">
        <ele>301.51</ele>
        <time>2012-10-10T11:52:01Z</time>
      </trkpt>
      <trkpt lat="44.6178" lon="4.39162">
        <ele>297.67</ele>
        <time>2012-10-10T11:52:17Z</time>
      </trkpt>
      <trkpt lat="44.61806" lon="4.39297">
        <ele>292.86</ele>
        <time>2012-10-10T11:52:32Z</time>
      </trkpt>
      <trkpt lat="44.61778" lon="4.39353">
        <ele>287.57</ele>
        <time>2012-10-10T11:52:54Z</time>
      </trkpt>
      <trkpt lat="44.61689" lon="4.39316">
        <ele>282.28</ele>
        <time>2012-10-10T11:53:07Z</time>
      </trkpt>
      <trkpt lat="44.61596" lon="4.39331">
        <ele>277</ele>
        <time>2012-10-10T11:53:18Z</time>
      </trkpt>
      <trkpt lat="44.61499" lon="4.39345">
        <ele>270.75</ele>
        <time>2012-10-10T11:53:31Z</time>
      </trkpt>
      <trkpt lat="44.61407" lon="4.3934">
        <ele>264.98</ele>
        <time>2012-10-10T11:53:42Z</time>
      </trkpt>
      <trkpt lat="44.61318" lon="4.39367">
        <ele>259.21</ele>
        <time>2012-10-10T11:53:56Z</time>
      </trkpt>
      <trkpt lat="44.61251" lon="4.3928">
        <ele>254.41</ele>
        <time>2012-10-10T11:54:11Z</time>
      </trkpt>
      <trkpt lat="44.61184" lon="4.39183">
        <ele>250.08</ele>
        <time>2012-10-10T11:54:24Z</time>
      </trkpt>
      <trkpt lat="44.61118" lon="4.39084">
        <ele>249.12</ele>
        <time>2012-10-10T11:54:40Z</time>
      </trkpt>
      <trkpt lat="44.61057" lon="4.38992">
        <ele>248.64</ele>
        <time>2012-10-10T11:55:00Z</time>
      </trkpt>
      <trkpt lat="44.6098" lon="4.38959">
        <ele>243.83</ele>
        <time>2012-10-10T11:55:45Z</time>
      </trkpt>
      <trkpt lat="44.6091" lon="4.39052">
        <ele>239.02</ele>
        <time>2012-10-10T11:56:03Z</time>
      </trkpt>
      <trkpt lat="44.60836" lon="4.39135">
        <ele>233.26</ele>
        <time>2012-10-10T11:56:18Z</time>
      </trkpt>
      <trkpt lat="44.60768" lon="4.39216">
        <ele>229.41</ele>
        <time>2012-10-10T11:56:31Z</time>
      </trkpt>
      <trkpt lat="44.60703" lon="4.39303">
        <ele>227.49</ele>
        <time>2012-10-10T11:57:26Z</time>
      </trkpt>
      <trkpt lat="44.60617" lon="4.39358">
        <ele>224.61</ele>
        <time>2012-10-10T11:57:40Z</time>
      </trkpt>
      <trkpt lat="44.60539" lon="4.3943">
        <ele>221.24</ele>
        <time>2012-10-10T11:57:53Z</time>
      </trkpt>
      <trkpt lat="44.60461" lon="4.39502">
        <ele>214.51</ele>
        <time>2012-10-10T11:58:04Z</time>
      </trkpt>
      <trkpt lat="44.60414" lon="4.39616">
        <ele>206.82</ele>
        <time>2012-10-10T11:58:14Z</time>
      </trkpt>
      <trkpt lat="44.60332" lon="4.39644">
        <ele>203.94</ele>
        <time>2012-10-10T11:58:26Z</time>
      </trkpt>
      <trkpt lat="44.60241" lon="4.39648">
        <ele>202.01</ele>
        <time>2012-10-10T11:58:39Z</time>
      </trkpt>
      <trkpt lat="44.60158" lon="4.39631">
        <ele>200.57</ele>
        <time>2012-10-10T11:59:07Z</time>
      </trkpt>
      <trkpt lat="44.60228" lon="4.39653">
        <ele>200.57</ele>
        <time>2012-10-10T12:02:10Z</time>
      </trkpt>
      <trkpt lat="44.60235" lon="4.39648">
        <ele>201.05</ele>
        <time>2012-10-10T12:02:42Z</time>
      </trkpt>
      <trkpt lat="44.60155" lon="4.39709">
        <ele>198.65</ele>
        <time>2012-10-10T12:02:58Z</time>
      </trkpt>
      <trkpt lat="44.60064" lon="4.39746">
        <ele>199.13</ele>
        <time>2012-10-10T12:03:13Z</time>
      </trkpt>
      <trkpt lat="44.60066" lon="4.39704">
        <ele>199.61</ele>
        <time>2012-10-10T12:03:49Z</time>
      </trkpt>
      <trkpt lat="44.60073" lon="4.39754">
        <ele>199.13</ele>
        <time>2012-10-10T12:05:14Z</time>
      </trkpt>
      <trkpt lat="44.60158" lon="4.3971">
        <ele>198.65</ele>
        <time>2012-10-10T12:05:38Z</time>
      </trkpt>
      <trkpt lat="44.60162" lon="4.39634">
        <ele>200.57</ele>
        <time>2012-10-10T12:06:04Z</time>
      </trkpt>
      <trkpt lat="44.60136" lon="4.39539">
        <ele>200.57</ele>
        <time>2012-10-10T12:06:23Z</time>
      </trkpt>
      <trkpt lat="44.60128" lon="4.39416">
        <ele>200.57</ele>
        <time>2012-10-10T12:06:44Z</time>
      </trkpt>
      <trkpt lat="44.60101" lon="4.39294">
        <ele>201.05</ele>
        <time>2012-10-10T12:07:05Z</time>
      </trkpt>
      <trkpt lat="44.6013" lon="4.39177">
        <ele>203.46</ele>
        <time>2012-10-10T12:07:30Z</time>
      </trkpt>
      <trkpt lat="44.60139" lon="4.39049">
        <ele>211.15</ele>
        <time>2012-10-10T12:08:11Z</time>
      </trkpt>
      <trkpt lat="44.60145" lon="4.38917">
        <ele>218.84</ele>
        <time>2012-10-10T12:08:55Z</time>
      </trkpt>
      <trkpt lat="44.6017" lon="4.38791">
        <ele>222.2</ele>
        <time>2012-10-10T12:09:28Z</time>
      </trkpt>
      <trkpt lat="44.6021" lon="4.38684">
        <ele>223.64</ele>
        <time>2012-10-10T12:09:59Z</time>
      </trkpt>
      <trkpt lat="44.60299" lon="4.3864">
        <ele>225.57</ele>
        <time>2012-10-10T12:10:25Z</time>
      </trkpt>
      <trkpt lat="44.60325" lon="4.38611">
        <ele>226.05</ele>
        <time>2012-10-10T12:10:50Z</time>
      </trkpt>
      <trkpt lat="44.60238" lon="4.38664">
        <ele>224.61</ele>
        <time>2012-10-10T12:12:09Z</time>
      </trkpt>
      <trkpt lat="44.60151" lon="4.38685">
        <ele>223.16</ele>
        <time>2012-10-10T12:12:27Z</time>
      </trkpt>
      <trkpt lat="44.60061" lon="4.38646">
        <ele>222.2</ele>
        <time>2012-10-10T12:12:46Z</time>
      </trkpt>
      <trkpt lat="44.59985" lon="4.38568">
        <ele>219.32</ele>
        <time>2012-10-10T12:13:02Z</time>
      </trkpt>
      <trkpt lat="44.59919" lon="4.38473">
        <ele>219.8</ele>
        <time>2012-10-10T12:13:17Z</time>
      </trkpt>
      <trkpt lat="44.59862" lon="4.38413">
        <ele>219.8</ele>
        <time>2012-10-10T12:13:35Z</time>
      </trkpt>
      <trkpt lat="44.59786" lon="4.38333">
        <ele>221.24</ele>
        <time>2012-10-10T12:13:52Z</time>
      </trkpt>
      <trkpt lat="44.59715" lon="4.38243">
        <ele>222.2</ele>
        <time>2012-10-10T12:14:09Z</time>
      </trkpt>
      <trkpt lat="44.59643" lon="4.38162">
        <ele>222.68</ele>
        <time>2012-10-10T12:14:26Z</time>
      </trkpt>
      <trkpt lat="44.59574" lon="4.38083">
        <ele>224.12</ele>
        <time>2012-10-10T12:14:45Z</time>
      </trkpt>
      <trkpt lat="44.59504" lon="4.37997">
        <ele>222.68</ele>
        <time>2012-10-10T12:15:01Z</time>
      </trkpt>
      <trkpt lat="44.5943" lon="4.37909">
        <ele>221.72</ele>
        <time>2012-10-10T12:15:16Z</time>
      </trkpt>
      <trkpt lat="44.59358" lon="4.37827">
        <ele>221.24</ele>
        <time>2012-10-10T12:15:30Z</time>
      </trkpt>
      <trkpt lat="44.59288" lon="4.37738">
        <ele>220.28</ele>
        <time>2012-10-10T12:15:45Z</time>
      </trkpt>
      <trkpt lat="44.59213" lon="4.37662">
        <ele>220.28</ele>
        <time>2012-10-10T12:16:03Z</time>
      </trkpt>
      <trkpt lat="44.59143" lon="4.37568">
        <ele>219.32</ele>
        <time>2012-10-10T12:16:18Z</time>
      </trkpt>
      <trkpt lat="44.59072" lon="4.37481">
        <ele>219.32</ele>
        <time>2012-10-10T12:16:32Z</time>
      </trkpt>
      <trkpt lat="44.58995" lon="4.3741">
        <ele>222.68</ele>
        <time>2012-10-10T12:16:49Z</time>
      </trkpt>
      <trkpt lat="44.58912" lon="4.37366">
        <ele>226.05</ele>
        <time>2012-10-10T12:17:07Z</time>
      </trkpt>
      <trkpt lat="44.58829" lon="4.3732">
        <ele>226.05</ele>
        <time>2012-10-10T12:17:27Z</time>
      </trkpt>
      <trkpt lat="44.58739" lon="4.37302">
        <ele>226.53</ele>
        <time>2012-10-10T12:17:44Z</time>
      </trkpt>
      <trkpt lat="44.58645" lon="4.37279">
        <ele>227.97</ele>
        <time>2012-10-10T12:18:01Z</time>
      </trkpt>
      <trkpt lat="44.58556" lon="4.37234">
        <ele>227.01</ele>
        <time>2012-10-10T12:18:17Z</time>
      </trkpt>
      <trkpt lat="44.58477" lon="4.37162">
        <ele>227.01</ele>
        <time>2012-10-10T12:18:33Z</time>
      </trkpt>
      <trkpt lat="44.58396" lon="4.3709">
        <ele>227.01</ele>
        <time>2012-10-10T12:18:49Z</time>
      </trkpt>
      <trkpt lat="44.58311" lon="4.3703">
        <ele>227.49</ele>
        <time>2012-10-10T12:19:05Z</time>
      </trkpt>
      <trkpt lat="44.58228" lon="4.36978">
        <ele>227.49</ele>
        <time>2012-10-10T12:19:20Z</time>
      </trkpt>
      <trkpt lat="44.58142" lon="4.36953">
        <ele>227.97</ele>
        <time>2012-10-10T12:19:35Z</time>
      </trkpt>
      <trkpt lat="44.5805" lon="4.36964">
        <ele>227.49</ele>
        <time>2012-10-10T12:19:50Z</time>
      </trkpt>
      <trkpt lat="44.57954" lon="4.36971">
        <ele>227.01</ele>
        <time>2012-10-10T12:20:06Z</time>
      </trkpt>
      <trkpt lat="44.57859" lon="4.3695">
        <ele>226.53</ele>
        <time>2012-10-10T12:20:21Z</time>
      </trkpt>
      <trkpt lat="44.57767" lon="4.36926">
        <ele>225.57</ele>
        <time>2012-10-10T12:20:35Z</time>
      </trkpt>
      <trkpt lat="44.57674" lon="4.36904">
        <ele>225.57</ele>
        <time>2012-10-10T12:20:50Z</time>
      </trkpt>
      <trkpt lat="44.57584" lon="4.36902">
        <ele>224.61</ele>
        <time>2012-10-10T12:21:03Z</time>
      </trkpt>
      <trkpt lat="44.57492" lon="4.36895">
        <ele>222.68</ele>
        <time>2012-10-10T12:21:16Z</time>
      </trkpt>
      <trkpt lat="44.57397" lon="4.36889">
        <ele>222.2</ele>
        <time>2012-10-10T12:21:30Z</time>
      </trkpt>
      <trkpt lat="44.57305" lon="4.36884">
        <ele>221.24</ele>
        <time>2012-10-10T12:21:43Z</time>
      </trkpt>
      <trkpt lat="44.57215" lon="4.3688">
        <ele>220.76</ele>
        <time>2012-10-10T12:21:56Z</time>
      </trkpt>
      <trkpt lat="44.57122" lon="4.36875">
        <ele>219.32</ele>
        <time>2012-10-10T12:22:10Z</time>
      </trkpt>
      <trkpt lat="44.57028" lon="4.36847">
        <ele>218.36</ele>
        <time>2012-10-10T12:22:24Z</time>
      </trkpt>
      <trkpt lat="44.56938" lon="4.36801">
        <ele>216.91</ele>
        <time>2012-10-10T12:22:38Z</time>
      </trkpt>
      <trkpt lat="44.56851" lon="4.36767">
        <ele>214.99</ele>
        <time>2012-10-10T12:22:52Z</time>
      </trkpt>
      <trkpt lat="44.56763" lon="4.36716">
        <ele>214.51</ele>
        <time>2012-10-10T12:23:06Z</time>
      </trkpt>
      <trkpt lat="44.56682" lon="4.36655">
        <ele>215.47</ele>
        <time>2012-10-10T12:23:20Z</time>
      </trkpt>
      <trkpt lat="44.56612" lon="4.36574">
        <ele>218.84</ele>
        <time>2012-10-10T12:23:37Z</time>
      </trkpt>
      <trkpt lat="44.56546" lon="4.36485">
        <ele>220.28</ele>
        <time>2012-10-10T12:23:56Z</time>
      </trkpt>
      <trkpt lat="44.56485" lon="4.36391">
        <ele>221.72</ele>
        <time>2012-10-10T12:24:20Z</time>
      </trkpt>
      <trkpt lat="44.56457" lon="4.36341">
        <ele>223.16</ele>
        <time>2012-10-10T12:30:27Z</time>
      </trkpt>
      <trkpt lat="44.56377" lon="4.36257">
        <ele>224.61</ele>
        <time>2012-10-10T12:30:51Z</time>
      </trkpt>
      <trkpt lat="44.56295" lon="4.36199">
        <ele>224.61</ele>
        <time>2012-10-10T12:31:10Z</time>
      </trkpt>
      <trkpt lat="44.56212" lon="4.36147">
        <ele>225.09</ele>
        <time>2012-10-10T12:31:28Z</time>
      </trkpt>
      <trkpt lat="44.5615" lon="4.36047">
        <ele>226.53</ele>
        <time>2012-10-10T12:31:46Z</time>
      </trkpt>
      <trkpt lat="44.56078" lon="4.35963">
        <ele>227.97</ele>
        <time>2012-10-10T12:32:05Z</time>
      </trkpt>
      <trkpt lat="44.55997" lon="4.35906">
        <ele>228.93</ele>
        <time>2012-10-10T12:32:23Z</time>
      </trkpt>
      <trkpt lat="44.5591" lon="4.35866">
        <ele>229.89</ele>
        <time>2012-10-10T12:32:41Z</time>
      </trkpt>
      <trkpt lat="44.55822" lon="4.35827">
        <ele>231.33</ele>
        <time>2012-10-10T12:32:59Z</time>
      </trkpt>
      <trkpt lat="44.55732" lon="4.35787">
        <ele>233.74</ele>
        <time>2012-10-10T12:33:18Z</time>
      </trkpt>
      <trkpt lat="44.55645" lon="4.35741">
        <ele>237.1</ele>
        <time>2012-10-10T12:33:38Z</time>
      </trkpt>
      <trkpt lat="44.55563" lon="4.35677">
        <ele>239.99</ele>
        <time>2012-10-10T12:34:01Z</time>
      </trkpt>
      <trkpt lat="44.55477" lon="4.35624">
        <ele>243.35</ele>
        <time>2012-10-10T12:34:24Z</time>
      </trkpt>
      <trkpt lat="44.55389" lon="4.35647">
        <ele>244.79</ele>
        <time>2012-10-10T12:34:45Z</time>
      </trkpt>
      <trkpt lat="44.55298" lon="4.3566">
        <ele>246.23</ele>
        <time>2012-10-10T12:35:04Z</time>
      </trkpt>
      <trkpt lat="44.55207" lon="4.35633">
        <ele>243.83</ele>
        <time>2012-10-10T12:35:20Z</time>
      </trkpt>
      <trkpt lat="44.5512" lon="4.3558">
        <ele>241.43</ele>
        <time>2012-10-10T12:35:33Z</time>
      </trkpt>
      <trkpt lat="44.55032" lon="4.35547">
        <ele>239.02</ele>
        <time>2012-10-10T12:35:45Z</time>
      </trkpt>
      <trkpt lat="44.54936" lon="4.35548">
        <ele>237.1</ele>
        <time>2012-10-10T12:35:57Z</time>
      </trkpt>
      <trkpt lat="44.54853" lon="4.3552">
        <ele>234.22</ele>
        <time>2012-10-10T12:39:22Z</time>
      </trkpt>
      <trkpt lat="44.54764" lon="4.35488">
        <ele>232.3</ele>
        <time>2012-10-10T12:39:41Z</time>
      </trkpt>
      <trkpt lat="44.54681" lon="4.35436">
        <ele>230.85</ele>
        <time>2012-10-10T12:39:56Z</time>
      </trkpt>
      <trkpt lat="44.54601" lon="4.35377">
        <ele>229.89</ele>
        <time>2012-10-10T12:40:11Z</time>
      </trkpt>
      <trkpt lat="44.54513" lon="4.3533">
        <ele>229.89</ele>
        <time>2012-10-10T12:40:27Z</time>
      </trkpt>
      <trkpt lat="44.54424" lon="4.35302">
        <ele>227.49</ele>
        <time>2012-10-10T12:40:41Z</time>
      </trkpt>
      <trkpt lat="44.54347" lon="4.35229">
        <ele>227.97</ele>
        <time>2012-10-10T12:40:56Z</time>
      </trkpt>
      <trkpt lat="44.54273" lon="4.35152">
        <ele>232.78</ele>
        <time>2012-10-10T12:41:21Z</time>
      </trkpt>
      <trkpt lat="44.54197" lon="4.35087">
        <ele>238.06</ele>
        <time>2012-10-10T12:41:50Z</time>
      </trkpt>
      <trkpt lat="44.54112" lon="4.35112">
        <ele>241.91</ele>
        <time>2012-10-10T12:42:18Z</time>
      </trkpt>
      <trkpt lat="44.54029" lon="4.35041">
        <ele>240.95</ele>
        <time>2012-10-10T12:42:37Z</time>
      </trkpt>
      <trkpt lat="44.53971" lon="4.34943">
        <ele>238.06</ele>
        <time>2012-10-10T12:42:49Z</time>
      </trkpt>
      <trkpt lat="44.53928" lon="4.34826">
        <ele>234.22</ele>
        <time>2012-10-10T12:43:00Z</time>
      </trkpt>
      <trkpt lat="44.53857" lon="4.34746">
        <ele>229.89</ele>
        <time>2012-10-10T12:43:10Z</time>
      </trkpt>
      <trkpt lat="44.53772" lon="4.34672">
        <ele>226.05</ele>
        <time>2012-10-10T12:43:20Z</time>
      </trkpt>
      <trkpt lat="44.53698" lon="4.34601">
        <ele>223.16</ele>
        <time>2012-10-10T12:43:29Z</time>
      </trkpt>
      <trkpt lat="44.53629" lon="4.3451">
        <ele>219.8</ele>
        <time>2012-10-10T12:43:39Z</time>
      </trkpt>
      <trkpt lat="44.53541" lon="4.34463">
        <ele>215.95</ele>
        <time>2012-10-10T12:43:48Z</time>
      </trkpt>
      <trkpt lat="44.53456" lon="4.34403">
        <ele>211.63</ele>
        <time>2012-10-10T12:43:57Z</time>
      </trkpt>
      <trkpt lat="44.53381" lon="4.34323">
        <ele>208.26</ele>
        <time>2012-10-10T12:44:07Z</time>
      </trkpt>
      <trkpt lat="44.53305" lon="4.34239">
        <ele>204.9</ele>
        <time>2012-10-10T12:44:19Z</time>
      </trkpt>
      <trkpt lat="44.53228" lon="4.34156">
        <ele>202.01</ele>
        <time>2012-10-10T12:44:31Z</time>
      </trkpt>
      <trkpt lat="44.53156" lon="4.34085">
        <ele>202.49</ele>
        <time>2012-10-10T12:44:43Z</time>
      </trkpt>
      <trkpt lat="44.53074" lon="4.34026">
        <ele>202.01</ele>
        <time>2012-10-10T12:44:57Z</time>
      </trkpt>
      <trkpt lat="44.52994" lon="4.33968">
        <ele>201.05</ele>
        <time>2012-10-10T12:45:10Z</time>
      </trkpt>
      <trkpt lat="44.52906" lon="4.33923">
        <ele>197.69</ele>
        <time>2012-10-10T12:45:22Z</time>
      </trkpt>
      <trkpt lat="44.52809" lon="4.33909">
        <ele>195.77</ele>
        <time>2012-10-10T12:45:34Z</time>
      </trkpt>
      <trkpt lat="44.5272" lon="4.33877">
        <ele>194.32</ele>
        <time>2012-10-10T12:45:45Z</time>
      </trkpt>
      <trkpt lat="44.52631" lon="4.33862">
        <ele>191.44</ele>
        <time>2012-10-10T12:45:56Z</time>
      </trkpt>
      <trkpt lat="44.5254" lon="4.3385">
        <ele>189.52</ele>
        <time>2012-10-10T12:46:07Z</time>
      </trkpt>
      <trkpt lat="44.52446" lon="4.33847">
        <ele>187.11</ele>
        <time>2012-10-10T12:46:18Z</time>
      </trkpt>
      <trkpt lat="44.52351" lon="4.33856">
        <ele>185.19</ele>
        <time>2012-10-10T12:46:29Z</time>
      </trkpt>
      <trkpt lat="44.52261" lon="4.33817">
        <ele>183.27</ele>
        <time>2012-10-10T12:46:40Z</time>
      </trkpt>
      <trkpt lat="44.52189" lon="4.33736">
        <ele>183.27</ele>
        <time>2012-10-10T12:46:52Z</time>
      </trkpt>
      <trkpt lat="44.52137" lon="4.33626">
        <ele>182.79</ele>
        <time>2012-10-10T12:47:05Z</time>
      </trkpt>
      <trkpt lat="44.52087" lon="4.3352">
        <ele>181.83</ele>
        <time>2012-10-10T12:47:18Z</time>
      </trkpt>
      <trkpt lat="44.52046" lon="4.33403">
        <ele>180.87</ele>
        <time>2012-10-10T12:47:32Z</time>
      </trkpt>
      <trkpt lat="44.52022" lon="4.33276">
        <ele>178.94</ele>
        <time>2012-10-10T12:47:45Z</time>
      </trkpt>
      <trkpt lat="44.52056" lon="4.33157">
        <ele>177.5</ele>
        <time>2012-10-10T12:47:56Z</time>
      </trkpt>
      <trkpt lat="44.52114" lon="4.33052">
        <ele>177.5</ele>
        <time>2012-10-10T12:48:09Z</time>
      </trkpt>
      <trkpt lat="44.52121" lon="4.32929">
        <ele>176.54</ele>
        <time>2012-10-10T12:48:23Z</time>
      </trkpt>
      <trkpt lat="44.52075" lon="4.32819">
        <ele>177.98</ele>
        <time>2012-10-10T12:48:39Z</time>
      </trkpt>
      <trkpt lat="44.52027" lon="4.32711">
        <ele>179.9</ele>
        <time>2012-10-10T12:48:57Z</time>
      </trkpt>
      <trkpt lat="44.51976" lon="4.32599">
        <ele>182.31</ele>
        <time>2012-10-10T12:49:16Z</time>
      </trkpt>
      <trkpt lat="44.51931" lon="4.32483">
        <ele>182.79</ele>
        <time>2012-10-10T12:49:35Z</time>
      </trkpt>
      <trkpt lat="44.51882" lon="4.3237">
        <ele>183.75</ele>
        <time>2012-10-10T12:49:53Z</time>
      </trkpt>
      <trkpt lat="44.51818" lon="4.32275">
        <ele>184.71</ele>
        <time>2012-10-10T12:50:10Z</time>
      </trkpt>
      <trkpt lat="44.5174" lon="4.32199">
        <ele>184.71</ele>
        <time>2012-10-10T12:50:26Z</time>
      </trkpt>
      <trkpt lat="44.51666" lon="4.32127">
        <ele>184.71</ele>
        <time>2012-10-10T12:50:41Z</time>
      </trkpt>
      <trkpt lat="44.51589" lon="4.32054">
        <ele>185.19</ele>
        <time>2012-10-10T12:50:57Z</time>
      </trkpt>
      <trkpt lat="44.51514" lon="4.31983">
        <ele>185.19</ele>
        <time>2012-10-10T12:51:12Z</time>
      </trkpt>
      <trkpt lat="44.5144" lon="4.31909">
        <ele>185.67</ele>
        <time>2012-10-10T12:51:27Z</time>
      </trkpt>
      <trkpt lat="44.51373" lon="4.31818">
        <ele>185.19</ele>
        <time>2012-10-10T12:51:42Z</time>
      </trkpt>
      <trkpt lat="44.51297" lon="4.31752">
        <ele>186.63</ele>
        <time>2012-10-10T12:51:58Z</time>
      </trkpt>
      <trkpt lat="44.5121" lon="4.31701">
        <ele>186.63</ele>
        <time>2012-10-10T12:52:15Z</time>
      </trkpt>
      <trkpt lat="44.51133" lon="4.31688">
        <ele>184.23</ele>
        <time>2012-10-10T12:54:14Z</time>
      </trkpt>
      <trkpt lat="44.51038" lon="4.3169">
        <ele>181.35</ele>
        <time>2012-10-10T12:54:28Z</time>
      </trkpt>
      <trkpt lat="44.50946" lon="4.31684">
        <ele>177.5</ele>
        <time>2012-10-10T12:54:39Z</time>
      </trkpt>
      <trkpt lat="44.50859" lon="4.31633">
        <ele>172.21</ele>
        <time>2012-10-10T12:54:49Z</time>
      </trkpt>
      <trkpt lat="44.50776" lon="4.31564">
        <ele>167.41</ele>
        <time>2012-10-10T12:54:59Z</time>
      </trkpt>
      <trkpt lat="44.50736" lon="4.31446">
        <ele>167.41</ele>
        <time>2012-10-10T12:55:11Z</time>
      </trkpt>
      <trkpt lat="44.50684" lon="4.31337">
        <ele>166.93</ele>
        <time>2012-10-10T12:55:25Z</time>
      </trkpt>
      <trkpt lat="44.50629" lon="4.31236">
        <ele>169.81</ele>
        <time>2012-10-10T12:55:42Z</time>
      </trkpt>
      <trkpt lat="44.50573" lon="4.31134">
        <ele>171.25</ele>
        <time>2012-10-10T12:56:03Z</time>
      </trkpt>
      <trkpt lat="44.50518" lon="4.31032">
        <ele>173.17</ele>
        <time>2012-10-10T12:56:24Z</time>
      </trkpt>
      <trkpt lat="44.50479" lon="4.30911">
        <ele>173.17</ele>
        <time>2012-10-10T12:56:43Z</time>
      </trkpt>
      <trkpt lat="44.50459" lon="4.30781">
        <ele>173.66</ele>
        <time>2012-10-10T12:57:00Z</time>
      </trkpt>
      <trkpt lat="44.5048" lon="4.30655">
        <ele>178.94</ele>
        <time>2012-10-10T12:57:21Z</time>
      </trkpt>
      <trkpt lat="44.5047" lon="4.30526">
        <ele>181.83</ele>
        <time>2012-10-10T12:57:42Z</time>
      </trkpt>
      <trkpt lat="44.5044" lon="4.30406">
        <ele>183.27</ele>
        <time>2012-10-10T12:58:07Z</time>
      </trkpt>
      <trkpt lat="44.504" lon="4.30288">
        <ele>184.23</ele>
        <time>2012-10-10T12:58:28Z</time>
      </trkpt>
      <trkpt lat="44.50376" lon="4.30162">
        <ele>186.15</ele>
        <time>2012-10-10T12:58:48Z</time>
      </trkpt>
      <trkpt lat="44.50364" lon="4.30034">
        <ele>187.11</ele>
        <time>2012-10-10T12:59:07Z</time>
      </trkpt>
      <trkpt lat="44.50333" lon="4.29905">
        <ele>185.67</ele>
        <time>2012-10-10T12:59:24Z</time>
      </trkpt>
      <trkpt lat="44.503" lon="4.29779">
        <ele>183.75</ele>
        <time>2012-10-10T12:59:38Z</time>
      </trkpt>
      <trkpt lat="44.50261" lon="4.29659">
        <ele>182.31</ele>
        <time>2012-10-10T12:59:52Z</time>
      </trkpt>
      <trkpt lat="44.50216" lon="4.29551">
        <ele>183.27</ele>
        <time>2012-10-10T13:00:06Z</time>
      </trkpt>
      <trkpt lat="44.50168" lon="4.29439">
        <ele>183.75</ele>
        <time>2012-10-10T13:00:23Z</time>
      </trkpt>
      <trkpt lat="44.50121" lon="4.2933">
        <ele>185.19</ele>
        <time>2012-10-10T13:00:41Z</time>
      </trkpt>
      <trkpt lat="44.50072" lon="4.29218">
        <ele>185.67</ele>
        <time>2012-10-10T13:01:00Z</time>
      </trkpt>
      <trkpt lat="44.50025" lon="4.29109">
        <ele>187.11</ele>
        <time>2012-10-10T13:01:18Z</time>
      </trkpt>
      <trkpt lat="44.4998" lon="4.28998">
        <ele>189.04</ele>
        <time>2012-10-10T13:01:36Z</time>
      </trkpt>
      <trkpt lat="44.49944" lon="4.28876">
        <ele>191.92</ele>
        <time>2012-10-10T13:01:56Z</time>
      </trkpt>
      <trkpt lat="44.49898" lon="4.28769">
        <ele>194.8</ele>
        <time>2012-10-10T13:02:16Z</time>
      </trkpt>
      <trkpt lat="44.49846" lon="4.2866">
        <ele>196.25</ele>
        <time>2012-10-10T13:02:38Z</time>
      </trkpt>
      <trkpt lat="44.49802" lon="4.28544">
        <ele>196.73</ele>
        <time>2012-10-10T13:02:58Z</time>
      </trkpt>
      <trkpt lat="44.49769" lon="4.2842">
        <ele>198.17</ele>
        <time>2012-10-10T13:03:18Z</time>
      </trkpt>
      <trkpt lat="44.49737" lon="4.28298">
        <ele>197.69</ele>
        <time>2012-10-10T13:03:37Z</time>
      </trkpt>
      <trkpt lat="44.49693" lon="4.28184">
        <ele>197.21</ele>
        <time>2012-10-10T13:03:56Z</time>
      </trkpt>
      <trkpt lat="44.49647" lon="4.28077">
        <ele>196.25</ele>
        <time>2012-10-10T13:04:12Z</time>
      </trkpt>
      <trkpt lat="44.4958" lon="4.27996">
        <ele>194.32</ele>
        <time>2012-10-10T13:04:26Z</time>
      </trkpt>
      <trkpt lat="44.49499" lon="4.27926">
        <ele>193.36</ele>
        <time>2012-10-10T13:04:40Z</time>
      </trkpt>
      <trkpt lat="44.49415" lon="4.27862">
        <ele>192.88</ele>
        <time>2012-10-10T13:04:55Z</time>
      </trkpt>
      <trkpt lat="44.49343" lon="4.27775">
        <ele>191.44</ele>
        <time>2012-10-10T13:05:09Z</time>
      </trkpt>
      <trkpt lat="44.49283" lon="4.27678">
        <ele>190</ele>
        <time>2012-10-10T13:05:22Z</time>
      </trkpt>
      <trkpt lat="44.49221" lon="4.27577">
        <ele>188.56</ele>
        <time>2012-10-10T13:05:35Z</time>
      </trkpt>
      <trkpt lat="44.49163" lon="4.2748">
        <ele>188.08</ele>
        <time>2012-10-10T13:05:49Z</time>
      </trkpt>
      <trkpt lat="44.49093" lon="4.27385">
        <ele>185.67</ele>
        <time>2012-10-10T13:06:03Z</time>
      </trkpt>
      <trkpt lat="44.49026" lon="4.273">
        <ele>183.75</ele>
        <time>2012-10-10T13:06:14Z</time>
      </trkpt>
      <trkpt lat="44.48955" lon="4.27213">
        <ele>181.83</ele>
        <time>2012-10-10T13:06:25Z</time>
      </trkpt>
      <trkpt lat="44.48885" lon="4.2713">
        <ele>180.38</ele>
        <time>2012-10-10T13:06:36Z</time>
      </trkpt>
      <trkpt lat="44.48804" lon="4.27064">
        <ele>179.42</ele>
        <time>2012-10-10T13:06:48Z</time>
      </trkpt>
      <trkpt lat="44.48721" lon="4.27011">
        <ele>178.46</ele>
        <time>2012-10-10T13:07:00Z</time>
      </trkpt>
      <trkpt lat="44.48638" lon="4.2696">
        <ele>177.98</ele>
        <time>2012-10-10T13:07:12Z</time>
      </trkpt>
      <trkpt lat="44.48553" lon="4.26915">
        <ele>177.02</ele>
        <time>2012-10-10T13:07:24Z</time>
      </trkpt>
      <trkpt lat="44.48473" lon="4.26858">
        <ele>175.58</ele>
        <time>2012-10-10T13:07:36Z</time>
      </trkpt>
      <trkpt lat="44.48413" lon="4.26761">
        <ele>174.62</ele>
        <time>2012-10-10T13:07:49Z</time>
      </trkpt>
      <trkpt lat="44.48376" lon="4.26647">
        <ele>174.14</ele>
        <time>2012-10-10T13:08:04Z</time>
      </trkpt>
      <trkpt lat="44.48387" lon="4.26516">
        <ele>173.17</ele>
        <time>2012-10-10T13:08:19Z</time>
      </trkpt>
      <trkpt lat="44.48416" lon="4.26398">
        <ele>171.73</ele>
        <time>2012-10-10T13:08:33Z</time>
      </trkpt>
      <trkpt lat="44.4848" lon="4.26298">
        <ele>170.77</ele>
        <time>2012-10-10T13:08:48Z</time>
      </trkpt>
      <trkpt lat="44.48519" lon="4.2618">
        <ele>171.25</ele>
        <time>2012-10-10T13:09:05Z</time>
      </trkpt>
      <trkpt lat="44.48508" lon="4.26056">
        <ele>173.17</ele>
        <time>2012-10-10T13:09:24Z</time>
      </trkpt>
      <trkpt lat="44.48462" lon="4.25945">
        <ele>174.62</ele>
        <time>2012-10-10T13:09:43Z</time>
      </trkpt>
      <trkpt lat="44.48415" lon="4.25839">
        <ele>177.02</ele>
        <time>2012-10-10T13:10:03Z</time>
      </trkpt>
      <trkpt lat="44.48357" lon="4.25738">
        <ele>177.02</ele>
        <time>2012-10-10T13:10:24Z</time>
      </trkpt>
      <trkpt lat="44.48293" lon="4.25648">
        <ele>174.62</ele>
        <time>2012-10-10T13:10:40Z</time>
      </trkpt>
      <trkpt lat="44.48255" lon="4.2553">
        <ele>174.14</ele>
        <time>2012-10-10T13:10:57Z</time>
      </trkpt>
      <trkpt lat="44.48208" lon="4.25422">
        <ele>172.69</ele>
        <time>2012-10-10T13:12:26Z</time>
      </trkpt>
      <trkpt lat="44.48175" lon="4.25297">
        <ele>170.77</ele>
        <time>2012-10-10T13:12:44Z</time>
      </trkpt>
      <trkpt lat="44.4816" lon="4.2517">
        <ele>170.29</ele>
        <time>2012-10-10T13:13:00Z</time>
      </trkpt>
      <trkpt lat="44.48106" lon="4.25066">
        <ele>170.29</ele>
        <time>2012-10-10T13:13:18Z</time>
      </trkpt>
      <trkpt lat="44.48054" lon="4.24964">
        <ele>168.37</ele>
        <time>2012-10-10T13:14:04Z</time>
      </trkpt>
      <trkpt lat="44.48005" lon="4.24858">
        <ele>167.41</ele>
        <time>2012-10-10T13:14:20Z</time>
      </trkpt>
      <trkpt lat="44.47973" lon="4.24739">
        <ele>167.89</ele>
        <time>2012-10-10T13:14:39Z</time>
      </trkpt>
      <trkpt lat="44.47906" lon="4.24672">
        <ele>168.37</ele>
        <time>2012-10-10T13:14:58Z</time>
      </trkpt>
      <trkpt lat="44.47832" lon="4.24597">
        <ele>168.37</ele>
        <time>2012-10-10T13:15:14Z</time>
      </trkpt>
      <trkpt lat="44.47744" lon="4.24574">
        <ele>169.81</ele>
        <time>2012-10-10T13:15:31Z</time>
      </trkpt>
      <trkpt lat="44.4766" lon="4.24525">
        <ele>172.21</ele>
        <time>2012-10-10T13:15:50Z</time>
      </trkpt>
      <trkpt lat="44.47604" lon="4.24422">
        <ele>173.66</ele>
        <time>2012-10-10T13:16:12Z</time>
      </trkpt>
      <trkpt lat="44.47581" lon="4.24299">
        <ele>175.58</ele>
        <time>2012-10-10T13:16:34Z</time>
      </trkpt>
      <trkpt lat="44.47556" lon="4.24174">
        <ele>177.98</ele>
        <time>2012-10-10T13:16:56Z</time>
      </trkpt>
      <trkpt lat="44.47519" lon="4.24059">
        <ele>179.42</ele>
        <time>2012-10-10T13:17:17Z</time>
      </trkpt>
      <trkpt lat="44.47466" lon="4.23958">
        <ele>183.27</ele>
        <time>2012-10-10T13:17:44Z</time>
      </trkpt>
      <trkpt lat="44.47399" lon="4.23871">
        <ele>187.59</ele>
        <time>2012-10-10T13:18:14Z</time>
      </trkpt>
      <trkpt lat="44.47325" lon="4.23798">
        <ele>191.44</ele>
        <time>2012-10-10T13:18:43Z</time>
      </trkpt>
      <trkpt lat="44.47256" lon="4.23714">
        <ele>195.77</ele>
        <time>2012-10-10T13:19:12Z</time>
      </trkpt>
      <trkpt lat="44.472" lon="4.23611">
        <ele>199.61</ele>
        <time>2012-10-10T13:19:41Z</time>
      </trkpt>
      <trkpt lat="44.47138" lon="4.2352">
        <ele>202.49</ele>
        <time>2012-10-10T13:20:09Z</time>
      </trkpt>
      <trkpt lat="44.47072" lon="4.23426">
        <ele>207.3</ele>
        <time>2012-10-10T13:20:38Z</time>
      </trkpt>
      <trkpt lat="44.47027" lon="4.23316">
        <ele>210.19</ele>
        <time>2012-10-10T13:21:07Z</time>
      </trkpt>
      <trkpt lat="44.46983" lon="4.23203">
        <ele>214.51</ele>
        <time>2012-10-10T13:21:38Z</time>
      </trkpt>
      <trkpt lat="44.46919" lon="4.23112">
        <ele>220.76</ele>
        <time>2012-10-10T13:22:12Z</time>
      </trkpt>
      <trkpt lat="44.46841" lon="4.23043">
        <ele>227.01</ele>
        <time>2012-10-10T13:22:55Z</time>
      </trkpt>
      <trkpt lat="44.46762" lon="4.22979">
        <ele>233.74</ele>
        <time>2012-10-10T13:23:35Z</time>
      </trkpt>
      <trkpt lat="44.46683" lon="4.22918">
        <ele>241.91</ele>
        <time>2012-10-10T13:24:10Z</time>
      </trkpt>
      <trkpt lat="44.46605" lon="4.22856">
        <ele>248.64</ele>
        <time>2012-10-10T13:24:44Z</time>
      </trkpt>
      <trkpt lat="44.46526" lon="4.22793">
        <ele>255.37</ele>
        <time>2012-10-10T13:25:17Z</time>
      </trkpt>
      <trkpt lat="44.46446" lon="4.22731">
        <ele>261.14</ele>
        <time>2012-10-10T13:25:47Z</time>
      </trkpt>
      <trkpt lat="44.46361" lon="4.22688">
        <ele>263.54</ele>
        <time>2012-10-10T13:26:14Z</time>
      </trkpt>
      <trkpt lat="44.46275" lon="4.22645">
        <ele>264.98</ele>
        <time>2012-10-10T13:26:36Z</time>
      </trkpt>
      <trkpt lat="44.46191" lon="4.22597">
        <ele>264.98</ele>
        <time>2012-10-10T13:26:56Z</time>
      </trkpt>
      <trkpt lat="44.4612" lon="4.22517">
        <ele>265.94</ele>
        <time>2012-10-10T13:27:17Z</time>
      </trkpt>
      <trkpt lat="44.46065" lon="4.22413">
        <ele>264.98</ele>
        <time>2012-10-10T13:27:43Z</time>
      </trkpt>
      <trkpt lat="44.4601" lon="4.22315">
        <ele>262.58</ele>
        <time>2012-10-10T13:29:28Z</time>
      </trkpt>
      <trkpt lat="44.45953" lon="4.2221">
        <ele>258.73</ele>
        <time>2012-10-10T13:29:42Z</time>
      </trkpt>
      <trkpt lat="44.45898" lon="4.22109">
        <ele>255.37</ele>
        <time>2012-10-10T13:29:53Z</time>
      </trkpt>
      <trkpt lat="44.45839" lon="4.22021">
        <ele>252</ele>
        <time>2012-10-10T13:30:06Z</time>
      </trkpt>
      <trkpt lat="44.4575" lon="4.2198">
        <ele>252.96</ele>
        <time>2012-10-10T13:30:22Z</time>
      </trkpt>
      <trkpt lat="44.45665" lon="4.21935">
        <ele>257.29</ele>
        <time>2012-10-10T13:30:45Z</time>
      </trkpt>
      <trkpt lat="44.45575" lon="4.21913">
        <ele>261.14</ele>
        <time>2012-10-10T13:31:12Z</time>
      </trkpt>
      <trkpt lat="44.45494" lon="4.21975">
        <ele>264.5</ele>
        <time>2012-10-10T13:31:38Z</time>
      </trkpt>
      <trkpt lat="44.45418" lon="4.22047">
        <ele>266.9</ele>
        <time>2012-10-10T13:32:04Z</time>
      </trkpt>
      <trkpt lat="44.45332" lon="4.22093">
        <ele>270.75</ele>
        <time>2012-10-10T13:32:31Z</time>
      </trkpt>
      <trkpt lat="44.4524" lon="4.22103">
        <ele>269.31</ele>
        <time>2012-10-10T13:32:59Z</time>
      </trkpt>
      <trkpt lat="44.45246" lon="4.22105">
        <ele>269.79</ele>
        <time>2012-10-10T13:33:27Z</time>
      </trkpt>
      <trkpt lat="44.45339" lon="4.22093">
        <ele>270.75</ele>
        <time>2012-10-10T13:33:52Z</time>
      </trkpt>
      <trkpt lat="44.45378" lon="4.22122">
        <ele>270.27</ele>
        <time>2012-10-10T13:34:29Z</time>
      </trkpt>
      <trkpt lat="44.45329" lon="4.22091">
        <ele>271.23</ele>
        <time>2012-10-10T13:35:40Z</time>
      </trkpt>
      <trkpt lat="44.45232" lon="4.22104">
        <ele>270.75</ele>
        <time>2012-10-10T13:35:59Z</time>
      </trkpt>
      <trkpt lat="44.45137" lon="4.22108">
        <ele>267.38</ele>
        <time>2012-10-10T13:36:14Z</time>
      </trkpt>
      <trkpt lat="44.45044" lon="4.2213">
        <ele>264.5</ele>
        <time>2012-10-10T13:36:27Z</time>
      </trkpt>
      <trkpt lat="44.4495" lon="4.22142">
        <ele>263.54</ele>
        <time>2012-10-10T13:36:40Z</time>
      </trkpt>
      <trkpt lat="44.44864" lon="4.2217">
        <ele>263.54</ele>
        <time>2012-10-10T13:36:55Z</time>
      </trkpt>
      <trkpt lat="44.44779" lon="4.22217">
        <ele>263.54</ele>
        <time>2012-10-10T13:37:09Z</time>
      </trkpt>
      <trkpt lat="44.44692" lon="4.2226">
        <ele>260.17</ele>
        <time>2012-10-10T13:37:22Z</time>
      </trkpt>
      <trkpt lat="44.44604" lon="4.22303">
        <ele>257.29</ele>
        <time>2012-10-10T13:37:34Z</time>
      </trkpt>
      <trkpt lat="44.44512" lon="4.22328">
        <ele>252.48</ele>
        <time>2012-10-10T13:37:44Z</time>
      </trkpt>
      <trkpt lat="44.44422" lon="4.22344">
        <ele>248.64</ele>
        <time>2012-10-10T13:37:53Z</time>
      </trkpt>
      <trkpt lat="44.44337" lon="4.22407">
        <ele>246.23</ele>
        <time>2012-10-10T13:38:03Z</time>
      </trkpt>
      <trkpt lat="44.44254" lon="4.22473">
        <ele>246.23</ele>
        <time>2012-10-10T13:38:14Z</time>
      </trkpt>
      <trkpt lat="44.44168" lon="4.22511">
        <ele>248.64</ele>
        <time>2012-10-10T13:38:28Z</time>
      </trkpt>
      <trkpt lat="44.44078" lon="4.22496">
        <ele>252.48</ele>
        <time>2012-10-10T13:38:46Z</time>
      </trkpt>
      <trkpt lat="44.43984" lon="4.22505">
        <ele>249.6</ele>
        <time>2012-10-10T13:39:01Z</time>
      </trkpt>
      <trkpt lat="44.43888" lon="4.22514">
        <ele>247.2</ele>
        <time>2012-10-10T13:39:15Z</time>
      </trkpt>
      <trkpt lat="44.43801" lon="4.22486">
        <ele>245.75</ele>
        <time>2012-10-10T13:39:27Z</time>
      </trkpt>
      <trkpt lat="44.43707" lon="4.2245">
        <ele>242.87</ele>
        <time>2012-10-10T13:39:39Z</time>
      </trkpt>
      <trkpt lat="44.43617" lon="4.22435">
        <ele>238.54</ele>
        <time>2012-10-10T13:39:49Z</time>
      </trkpt>
      <trkpt lat="44.43519" lon="4.22414">
        <ele>236.14</ele>
        <time>2012-10-10T13:39:59Z</time>
      </trkpt>
      <trkpt lat="44.43426" lon="4.2242">
        <ele>233.26</ele>
        <time>2012-10-10T13:40:09Z</time>
      </trkpt>
      <trkpt lat="44.43349" lon="4.22493">
        <ele>230.37</ele>
        <time>2012-10-10T13:40:19Z</time>
      </trkpt>
      <trkpt lat="44.43277" lon="4.22568">
        <ele>227.97</ele>
        <time>2012-10-10T13:40:29Z</time>
      </trkpt>
      <trkpt lat="44.43191" lon="4.22609">
        <ele>225.09</ele>
        <time>2012-10-10T13:40:39Z</time>
      </trkpt>
      <trkpt lat="44.43099" lon="4.22649">
        <ele>221.72</ele>
        <time>2012-10-10T13:40:49Z</time>
      </trkpt>
      <trkpt lat="44.43003" lon="4.22681">
        <ele>217.4</ele>
        <time>2012-10-10T13:40:59Z</time>
      </trkpt>
      <trkpt lat="44.42906" lon="4.22703">
        <ele>214.03</ele>
        <time>2012-10-10T13:41:09Z</time>
      </trkpt>
      <trkpt lat="44.42822" lon="4.2275">
        <ele>211.63</ele>
        <time>2012-10-10T13:41:19Z</time>
      </trkpt>
      <trkpt lat="44.42745" lon="4.2283">
        <ele>209.22</ele>
        <time>2012-10-10T13:41:30Z</time>
      </trkpt>
      <trkpt lat="44.42664" lon="4.22888">
        <ele>208.26</ele>
        <time>2012-10-10T13:41:41Z</time>
      </trkpt>
      <trkpt lat="44.42576" lon="4.22915">
        <ele>208.74</ele>
        <time>2012-10-10T13:41:55Z</time>
      </trkpt>
      <trkpt lat="44.42486" lon="4.22931">
        <ele>211.63</ele>
        <time>2012-10-10T13:42:14Z</time>
      </trkpt>
      <trkpt lat="44.42397" lon="4.2297">
        <ele>212.59</ele>
        <time>2012-10-10T13:42:32Z</time>
      </trkpt>
      <trkpt lat="44.42311" lon="4.23022">
        <ele>212.59</ele>
        <time>2012-10-10T13:42:49Z</time>
      </trkpt>
      <trkpt lat="44.42255" lon="4.23052">
        <ele>211.15</ele>
        <time>2012-10-10T13:54:38Z</time>
      </trkpt>
      <trkpt lat="44.42159" lon="4.23074">
        <ele>207.3</ele>
        <time>2012-10-10T13:54:55Z</time>
      </trkpt>
      <trkpt lat="44.42069" lon="4.23087">
        <ele>204.42</ele>
        <time>2012-10-10T13:55:07Z</time>
      </trkpt>
      <trkpt lat="44.41987" lon="4.23148">
        <ele>199.61</ele>
        <time>2012-10-10T13:55:19Z</time>
      </trkpt>
      <trkpt lat="44.41918" lon="4.23241">
        <ele>195.77</ele>
        <time>2012-10-10T13:55:30Z</time>
      </trkpt>
      <trkpt lat="44.41841" lon="4.23323">
        <ele>191.44</ele>
        <time>2012-10-10T13:55:41Z</time>
      </trkpt>
      <trkpt lat="44.41753" lon="4.23383">
        <ele>187.59</ele>
        <time>2012-10-10T13:55:52Z</time>
      </trkpt>
      <trkpt lat="44.41668" lon="4.23442">
        <ele>183.75</ele>
        <time>2012-10-10T13:56:03Z</time>
      </trkpt>
      <trkpt lat="44.41572" lon="4.23459">
        <ele>181.83</ele>
        <time>2012-10-10T13:56:15Z</time>
      </trkpt>
      <trkpt lat="44.4148" lon="4.2346">
        <ele>178.46</ele>
        <time>2012-10-10T13:56:26Z</time>
      </trkpt>
      <trkpt lat="44.41384" lon="4.23462">
        <ele>177.98</ele>
        <time>2012-10-10T13:56:39Z</time>
      </trkpt>
      <trkpt lat="44.41288" lon="4.23462">
        <ele>177.02</ele>
        <time>2012-10-10T13:56:53Z</time>
      </trkpt>
      <trkpt lat="44.41192" lon="4.23465">
        <ele>174.62</ele>
        <time>2012-10-10T13:57:06Z</time>
      </trkpt>
      <trkpt lat="44.41096" lon="4.23473">
        <ele>171.73</ele>
        <time>2012-10-10T13:57:18Z</time>
      </trkpt>
      <trkpt lat="44.41002" lon="4.23483">
        <ele>169.81</ele>
        <time>2012-10-10T13:57:30Z</time>
      </trkpt>
      <trkpt lat="44.40905" lon="4.23494">
        <ele>167.89</ele>
        <time>2012-10-10T13:57:42Z</time>
      </trkpt>
      <trkpt lat="44.4081" lon="4.235">
        <ele>167.41</ele>
        <time>2012-10-10T13:57:54Z</time>
      </trkpt>
      <trkpt lat="44.40717" lon="4.23486">
        <ele>166.45</ele>
        <time>2012-10-10T13:58:06Z</time>
      </trkpt>
      <trkpt lat="44.40622" lon="4.23464">
        <ele>164.52</ele>
        <time>2012-10-10T13:58:20Z</time>
      </trkpt>
      <trkpt lat="44.40531" lon="4.2343">
        <ele>162.12</ele>
        <time>2012-10-10T13:58:32Z</time>
      </trkpt>
      <trkpt lat="44.40453" lon="4.23367">
        <ele>159.24</ele>
        <time>2012-10-10T13:58:43Z</time>
      </trkpt>
      <trkpt lat="44.40384" lon="4.23274">
        <ele>155.87</ele>
        <time>2012-10-10T13:58:54Z</time>
      </trkpt>
      <trkpt lat="44.403" lon="4.23222">
        <ele>152.99</ele>
        <time>2012-10-10T13:59:05Z</time>
      </trkpt>
      <trkpt lat="44.40219" lon="4.23273">
        <ele>149.14</ele>
        <time>2012-10-10T13:59:15Z</time>
      </trkpt>
      <trkpt lat="44.40133" lon="4.23315">
        <ele>146.26</ele>
        <time>2012-10-10T13:59:25Z</time>
      </trkpt>
      <trkpt lat="44.40044" lon="4.2328">
        <ele>144.34</ele>
        <time>2012-10-10T13:59:36Z</time>
      </trkpt>
      <trkpt lat="44.39955" lon="4.23258">
        <ele>145.78</ele>
        <time>2012-10-10T13:59:51Z</time>
      </trkpt>
      <trkpt lat="44.39869" lon="4.23209">
        <ele>147.7</ele>
        <time>2012-10-10T14:00:12Z</time>
      </trkpt>
      <trkpt lat="44.39777" lon="4.23201">
        <ele>151.06</ele>
        <time>2012-10-10T14:00:34Z</time>
      </trkpt>
      <trkpt lat="44.39696" lon="4.2315">
        <ele>148.66</ele>
        <time>2012-10-10T14:00:53Z</time>
      </trkpt>
      <trkpt lat="44.39598" lon="4.23139">
        <ele>143.37</ele>
        <time>2012-10-10T14:01:06Z</time>
      </trkpt>
      <trkpt lat="44.39509" lon="4.23182">
        <ele>139.53</ele>
        <time>2012-10-10T14:01:17Z</time>
      </trkpt>
      <trkpt lat="44.3943" lon="4.23251">
        <ele>134.72</ele>
        <time>2012-10-10T14:01:27Z</time>
      </trkpt>
      <trkpt lat="44.39349" lon="4.23321">
        <ele>131.84</ele>
        <time>2012-10-10T14:01:38Z</time>
      </trkpt>
      <trkpt lat="44.39274" lon="4.23397">
        <ele>130.88</ele>
        <time>2012-10-10T14:01:50Z</time>
      </trkpt>
      <trkpt lat="44.39189" lon="4.23412">
        <ele>130.4</ele>
        <time>2012-10-10T14:02:04Z</time>
      </trkpt>
      <trkpt lat="44.39097" lon="4.23396">
        <ele>129.92</ele>
        <time>2012-10-10T14:02:57Z</time>
      </trkpt>
      <trkpt lat="44.39001" lon="4.23381">
        <ele>129.43</ele>
        <time>2012-10-10T14:03:11Z</time>
      </trkpt>
      <trkpt lat="44.38908" lon="4.23365">
        <ele>127.03</ele>
        <time>2012-10-10T14:03:24Z</time>
      </trkpt>
      <trkpt lat="44.38817" lon="4.23352">
        <ele>126.55</ele>
        <time>2012-10-10T14:03:37Z</time>
      </trkpt>
      <trkpt lat="44.38722" lon="4.23337">
        <ele>126.55</ele>
        <time>2012-10-10T14:03:52Z</time>
      </trkpt>
      <trkpt lat="44.38631" lon="4.23324">
        <ele>126.55</ele>
        <time>2012-10-10T14:06:28Z</time>
      </trkpt>
      <trkpt lat="44.38539" lon="4.23299">
        <ele>127.51</ele>
        <time>2012-10-10T14:06:48Z</time>
      </trkpt>
      <trkpt lat="44.38452" lon="4.23261">
        <ele>128.95</ele>
        <time>2012-10-10T14:07:07Z</time>
      </trkpt>
      <trkpt lat="44.38368" lon="4.23208">
        <ele>129.92</ele>
        <time>2012-10-10T14:07:26Z</time>
      </trkpt>
      <trkpt lat="44.3829" lon="4.23141">
        <ele>130.88</ele>
        <time>2012-10-10T14:07:45Z</time>
      </trkpt>
      <trkpt lat="44.38219" lon="4.23061">
        <ele>131.84</ele>
        <time>2012-10-10T14:08:03Z</time>
      </trkpt>
      <trkpt lat="44.38154" lon="4.22966">
        <ele>133.28</ele>
        <time>2012-10-10T14:08:21Z</time>
      </trkpt>
      <trkpt lat="44.38097" lon="4.22863">
        <ele>134.72</ele>
        <time>2012-10-10T14:08:38Z</time>
      </trkpt>
      <trkpt lat="44.38042" lon="4.22759">
        <ele>135.2</ele>
        <time>2012-10-10T14:08:55Z</time>
      </trkpt>
      <trkpt lat="44.37988" lon="4.22658">
        <ele>135.68</ele>
        <time>2012-10-10T14:09:12Z</time>
      </trkpt>
      <trkpt lat="44.37933" lon="4.22554">
        <ele>136.16</ele>
        <time>2012-10-10T14:09:29Z</time>
      </trkpt>
      <trkpt lat="44.37878" lon="4.22451">
        <ele>137.13</ele>
        <time>2012-10-10T14:09:46Z</time>
      </trkpt>
      <trkpt lat="44.37821" lon="4.22344">
        <ele>137.13</ele>
        <time>2012-10-10T14:10:03Z</time>
      </trkpt>
      <trkpt lat="44.37766" lon="4.2224">
        <ele>136.64</ele>
        <time>2012-10-10T14:10:20Z</time>
      </trkpt>
      <trkpt lat="44.3771" lon="4.22135">
        <ele>136.64</ele>
        <time>2012-10-10T14:10:36Z</time>
      </trkpt>
      <trkpt lat="44.37655" lon="4.2203">
        <ele>136.64</ele>
        <time>2012-10-10T14:10:52Z</time>
      </trkpt>
      <trkpt lat="44.376" lon="4.21927">
        <ele>136.64</ele>
        <time>2012-10-10T14:11:07Z</time>
      </trkpt>
      <trkpt lat="44.37546" lon="4.21826">
        <ele>136.64</ele>
        <time>2012-10-10T14:11:22Z</time>
      </trkpt>
      <trkpt lat="44.37491" lon="4.21722">
        <ele>136.64</ele>
        <time>2012-10-10T14:11:37Z</time>
      </trkpt>
      <trkpt lat="44.37437" lon="4.21621">
        <ele>136.64</ele>
        <time>2012-10-10T14:11:52Z</time>
      </trkpt>
      <trkpt lat="44.37383" lon="4.21519">
        <ele>136.64</ele>
        <time>2012-10-10T14:12:07Z</time>
      </trkpt>
      <trkpt lat="44.37327" lon="4.21413">
        <ele>137.13</ele>
        <time>2012-10-10T14:12:22Z</time>
      </trkpt>
      <trkpt lat="44.37271" lon="4.21309">
        <ele>136.64</ele>
        <time>2012-10-10T14:12:37Z</time>
      </trkpt>
      <trkpt lat="44.37215" lon="4.21206">
        <ele>137.13</ele>
        <time>2012-10-10T14:12:52Z</time>
      </trkpt>
      <trkpt lat="44.37161" lon="4.21103">
        <ele>137.13</ele>
        <time>2012-10-10T14:13:07Z</time>
      </trkpt>
      <trkpt lat="44.37108" lon="4.21002">
        <ele>137.13</ele>
        <time>2012-10-10T14:13:22Z</time>
      </trkpt>
      <trkpt lat="44.37051" lon="4.20896">
        <ele>138.09</ele>
        <time>2012-10-10T14:13:38Z</time>
      </trkpt>
      <trkpt lat="44.36995" lon="4.20793">
        <ele>138.09</ele>
        <time>2012-10-10T14:13:54Z</time>
      </trkpt>
      <trkpt lat="44.36941" lon="4.20688">
        <ele>138.57</ele>
        <time>2012-10-10T14:14:10Z</time>
      </trkpt>
      <trkpt lat="44.36886" lon="4.20585">
        <ele>139.53</ele>
        <time>2012-10-10T14:14:26Z</time>
      </trkpt>
      <trkpt lat="44.36832" lon="4.20482">
        <ele>140.01</ele>
        <time>2012-10-10T14:14:42Z</time>
      </trkpt>
      <trkpt lat="44.36777" lon="4.20378">
        <ele>140.49</ele>
        <time>2012-10-10T14:14:59Z</time>
      </trkpt>
      <trkpt lat="44.36721" lon="4.20273">
        <ele>141.93</ele>
        <time>2012-10-10T14:15:16Z</time>
      </trkpt>
      <trkpt lat="44.36666" lon="4.2017">
        <ele>142.89</ele>
        <time>2012-10-10T14:15:33Z</time>
      </trkpt>
      <trkpt lat="44.36612" lon="4.20068">
        <ele>143.85</ele>
        <time>2012-10-10T14:15:50Z</time>
      </trkpt>
      <trkpt lat="44.36558" lon="4.19966">
        <ele>144.82</ele>
        <time>2012-10-10T14:16:07Z</time>
      </trkpt>
      <trkpt lat="44.36503" lon="4.19863">
        <ele>145.3</ele>
        <time>2012-10-10T14:16:24Z</time>
      </trkpt>
      <trkpt lat="44.36448" lon="4.19759">
        <ele>146.26</ele>
        <time>2012-10-10T14:16:41Z</time>
      </trkpt>
      <trkpt lat="44.36392" lon="4.19655">
        <ele>148.18</ele>
        <time>2012-10-10T14:16:58Z</time>
      </trkpt>
      <trkpt lat="44.36337" lon="4.1955">
        <ele>149.14</ele>
        <time>2012-10-10T14:17:15Z</time>
      </trkpt>
      <trkpt lat="44.36282" lon="4.19446">
        <ele>151.54</ele>
        <time>2012-10-10T14:17:33Z</time>
      </trkpt>
      <trkpt lat="44.36227" lon="4.19343">
        <ele>153.95</ele>
        <time>2012-10-10T14:17:53Z</time>
      </trkpt>
      <trkpt lat="44.36174" lon="4.19242">
        <ele>155.87</ele>
        <time>2012-10-10T14:18:13Z</time>
      </trkpt>
      <trkpt lat="44.3612" lon="4.19141">
        <ele>158.27</ele>
        <time>2012-10-10T14:18:33Z</time>
      </trkpt>
      <trkpt lat="44.36064" lon="4.19036">
        <ele>160.2</ele>
        <time>2012-10-10T14:18:53Z</time>
      </trkpt>
      <trkpt lat="44.36009" lon="4.18931">
        <ele>162.6</ele>
        <time>2012-10-10T14:19:13Z</time>
      </trkpt>
      <trkpt lat="44.35954" lon="4.18827">
        <ele>164.04</ele>
        <time>2012-10-10T14:19:34Z</time>
      </trkpt>
      <trkpt lat="44.35899" lon="4.1872">
        <ele>166.93</ele>
        <time>2012-10-10T14:20:41Z</time>
      </trkpt>
      <trkpt lat="44.35841" lon="4.18615">
        <ele>169.33</ele>
        <time>2012-10-10T14:21:06Z</time>
      </trkpt>
      <trkpt lat="44.35787" lon="4.18512">
        <ele>173.17</ele>
        <time>2012-10-10T14:21:32Z</time>
      </trkpt>
      <trkpt lat="44.35729" lon="4.1841">
        <ele>177.02</ele>
        <time>2012-10-10T14:21:59Z</time>
      </trkpt>
      <trkpt lat="44.35668" lon="4.18321">
        <ele>180.87</ele>
        <time>2012-10-10T14:22:25Z</time>
      </trkpt>
      <trkpt lat="44.35624" lon="4.18209">
        <ele>184.71</ele>
        <time>2012-10-10T14:22:52Z</time>
      </trkpt>
      <trkpt lat="44.3554" lon="4.18176">
        <ele>188.56</ele>
        <time>2012-10-10T14:23:19Z</time>
      </trkpt>
      <trkpt lat="44.35492" lon="4.18075">
        <ele>192.88</ele>
        <time>2012-10-10T14:23:47Z</time>
      </trkpt>
      <trkpt lat="44.35401" lon="4.18073">
        <ele>196.25</ele>
        <time>2012-10-10T14:24:14Z</time>
      </trkpt>
      <trkpt lat="44.35345" lon="4.17981">
        <ele>201.05</ele>
        <time>2012-10-10T14:24:45Z</time>
      </trkpt>
      <trkpt lat="44.35277" lon="4.17895">
        <ele>205.38</ele>
        <time>2012-10-10T14:25:15Z</time>
      </trkpt>
      <trkpt lat="44.35236" lon="4.17772">
        <ele>209.22</ele>
        <time>2012-10-10T14:25:48Z</time>
      </trkpt>
      <trkpt lat="44.35182" lon="4.17667">
        <ele>212.59</ele>
        <time>2012-10-10T14:26:17Z</time>
      </trkpt>
      <trkpt lat="44.35128" lon="4.17562">
        <ele>217.88</ele>
        <time>2012-10-10T14:26:45Z</time>
      </trkpt>
      <trkpt lat="44.35101" lon="4.17441">
        <ele>220.28</ele>
        <time>2012-10-10T14:27:11Z</time>
      </trkpt>
      <trkpt lat="44.35101" lon="4.17316">
        <ele>222.68</ele>
        <time>2012-10-10T14:27:36Z</time>
      </trkpt>
      <trkpt lat="44.35099" lon="4.17189">
        <ele>226.53</ele>
        <time>2012-10-10T14:28:01Z</time>
      </trkpt>
      <trkpt lat="44.35074" lon="4.17069">
        <ele>228.45</ele>
        <time>2012-10-10T14:28:25Z</time>
      </trkpt>
      <trkpt lat="44.3509" lon="4.16945">
        <ele>231.33</ele>
        <time>2012-10-10T14:28:49Z</time>
      </trkpt>
      <trkpt lat="44.35096" lon="4.16815">
        <ele>234.7</ele>
        <time>2012-10-10T14:29:14Z</time>
      </trkpt>
      <trkpt lat="44.35045" lon="4.16713">
        <ele>236.62</ele>
        <time>2012-10-10T14:29:38Z</time>
      </trkpt>
      <trkpt lat="44.34957" lon="4.1669">
        <ele>240.47</ele>
        <time>2012-10-10T14:30:03Z</time>
      </trkpt>
      <trkpt lat="44.34866" lon="4.16676">
        <ele>243.83</ele>
        <time>2012-10-10T14:30:28Z</time>
      </trkpt>
      <trkpt lat="44.34783" lon="4.16625">
        <ele>247.2</ele>
        <time>2012-10-10T14:30:54Z</time>
      </trkpt>
      <trkpt lat="44.34711" lon="4.16539">
        <ele>251.04</ele>
        <time>2012-10-10T14:31:20Z</time>
      </trkpt>
      <trkpt lat="44.34627" lon="4.16485">
        <ele>254.41</ele>
        <time>2012-10-10T14:31:45Z</time>
      </trkpt>
      <trkpt lat="44.34544" lon="4.16427">
        <ele>257.77</ele>
        <time>2012-10-10T14:32:10Z</time>
      </trkpt>
      <trkpt lat="44.34493" lon="4.16319">
        <ele>261.62</ele>
        <time>2012-10-10T14:32:34Z</time>
      </trkpt>
      <trkpt lat="44.34465" lon="4.16202">
        <ele>264.98</ele>
        <time>2012-10-10T14:32:59Z</time>
      </trkpt>
      <trkpt lat="44.34446" lon="4.16073">
        <ele>268.35</ele>
        <time>2012-10-10T14:33:22Z</time>
      </trkpt>
      <trkpt lat="44.34429" lon="4.15948">
        <ele>272.19</ele>
        <time>2012-10-10T14:33:44Z</time>
      </trkpt>
      <trkpt lat="44.34389" lon="4.15834">
        <ele>273.63</ele>
        <time>2012-10-10T14:34:04Z</time>
      </trkpt>
      <trkpt lat="44.3432" lon="4.15751">
        <ele>272.67</ele>
        <time>2012-10-10T14:34:22Z</time>
      </trkpt>
      <trkpt lat="44.34249" lon="4.15674">
        <ele>271.23</ele>
        <time>2012-10-10T14:34:37Z</time>
      </trkpt>
      <trkpt lat="44.34173" lon="4.15592">
        <ele>268.35</ele>
        <time>2012-10-10T14:34:51Z</time>
      </trkpt>
      <trkpt lat="44.341" lon="4.15511">
        <ele>266.9</ele>
        <time>2012-10-10T14:35:04Z</time>
      </trkpt>
      <trkpt lat="44.34026" lon="4.15438">
        <ele>264.02</ele>
        <time>2012-10-10T14:35:17Z</time>
      </trkpt>
      <trkpt lat="44.33947" lon="4.15373">
        <ele>262.1</ele>
        <time>2012-10-10T14:35:32Z</time>
      </trkpt>
      <trkpt lat="44.33915" lon="4.15336">
        <ele>264.02</ele>
        <time>2012-10-10T14:42:18Z</time>
      </trkpt>
      <trkpt lat="44.33869" lon="4.15316">
        <ele>270.27</ele>
        <time>2012-10-10T14:55:25Z</time>
      </trkpt>
      <trkpt lat="44.33778" lon="4.15284">
        <ele>269.79</ele>
        <time>2012-10-10T14:55:46Z</time>
      </trkpt>
      <trkpt lat="44.33686" lon="4.15254">
        <ele>269.31</ele>
        <time>2012-10-10T14:56:04Z</time>
      </trkpt>
      <trkpt lat="44.33597" lon="4.15212">
        <ele>269.31</ele>
        <time>2012-10-10T14:56:22Z</time>
      </trkpt>
      <trkpt lat="44.33517" lon="4.15152">
        <ele>270.75</ele>
        <time>2012-10-10T14:56:40Z</time>
      </trkpt>
      <trkpt lat="44.3344" lon="4.15089">
        <ele>270.27</ele>
        <time>2012-10-10T14:56:57Z</time>
      </trkpt>
      <trkpt lat="44.33347" lon="4.15079">
        <ele>270.75</ele>
        <time>2012-10-10T14:57:13Z</time>
      </trkpt>
      <trkpt lat="44.3326" lon="4.15052">
        <ele>270.27</ele>
        <time>2012-10-10T14:57:28Z</time>
      </trkpt>
      <trkpt lat="44.33167" lon="4.15039">
        <ele>269.31</ele>
        <time>2012-10-10T14:57:44Z</time>
      </trkpt>
      <trkpt lat="44.33079" lon="4.15083">
        <ele>266.42</ele>
        <time>2012-10-10T14:57:58Z</time>
      </trkpt>
      <trkpt lat="44.32995" lon="4.15145">
        <ele>264.5</ele>
        <time>2012-10-10T14:58:11Z</time>
      </trkpt>
      <trkpt lat="44.32908" lon="4.15197">
        <ele>262.58</ele>
        <time>2012-10-10T14:58:24Z</time>
      </trkpt>
      <trkpt lat="44.32824" lon="4.15157">
        <ele>262.1</ele>
        <time>2012-10-10T14:58:36Z</time>
      </trkpt>
      <trkpt lat="44.32742" lon="4.15103">
        <ele>262.58</ele>
        <time>2012-10-10T14:58:50Z</time>
      </trkpt>
      <trkpt lat="44.32668" lon="4.15024">
        <ele>264.02</ele>
        <time>2012-10-10T14:59:09Z</time>
      </trkpt>
      <trkpt lat="44.32599" lon="4.14943">
        <ele>267.86</ele>
        <time>2012-10-10T14:59:32Z</time>
      </trkpt>
      <trkpt lat="44.32518" lon="4.14884">
        <ele>270.27</ele>
        <time>2012-10-10T14:59:58Z</time>
      </trkpt>
      <trkpt lat="44.32426" lon="4.1487">
        <ele>272.19</ele>
        <time>2012-10-10T15:00:22Z</time>
      </trkpt>
      <trkpt lat="44.32338" lon="4.14904">
        <ele>271.23</ele>
        <time>2012-10-10T15:00:40Z</time>
      </trkpt>
      <trkpt lat="44.3226" lon="4.14974">
        <ele>268.83</ele>
        <time>2012-10-10T15:00:56Z</time>
      </trkpt>
      <trkpt lat="44.32181" lon="4.15043">
        <ele>268.35</ele>
        <time>2012-10-10T15:01:10Z</time>
      </trkpt>
      <trkpt lat="44.32099" lon="4.15117">
        <ele>266.42</ele>
        <time>2012-10-10T15:01:23Z</time>
      </trkpt>
      <trkpt lat="44.32015" lon="4.15192">
        <ele>264.98</ele>
        <time>2012-10-10T15:01:35Z</time>
      </trkpt>
      <trkpt lat="44.31939" lon="4.15261">
        <ele>263.06</ele>
        <time>2012-10-10T15:01:46Z</time>
      </trkpt>
      <trkpt lat="44.31863" lon="4.15328">
        <ele>261.14</ele>
        <time>2012-10-10T15:01:57Z</time>
      </trkpt>
      <trkpt lat="44.31782" lon="4.15401">
        <ele>258.73</ele>
        <time>2012-10-10T15:02:09Z</time>
      </trkpt>
      <trkpt lat="44.31702" lon="4.15471">
        <ele>259.21</ele>
        <time>2012-10-10T15:02:22Z</time>
      </trkpt>
      <trkpt lat="44.31624" lon="4.15541">
        <ele>257.77</ele>
        <time>2012-10-10T15:02:36Z</time>
      </trkpt>
      <trkpt lat="44.31547" lon="4.15609">
        <ele>257.29</ele>
        <time>2012-10-10T15:02:51Z</time>
      </trkpt>
      <trkpt lat="44.31469" lon="4.1568">
        <ele>257.77</ele>
        <time>2012-10-10T15:03:07Z</time>
      </trkpt>
      <trkpt lat="44.31392" lon="4.15749">
        <ele>260.65</ele>
        <time>2012-10-10T15:03:26Z</time>
      </trkpt>
      <trkpt lat="44.31314" lon="4.15818">
        <ele>263.06</ele>
        <time>2012-10-10T15:03:48Z</time>
      </trkpt>
      <trkpt lat="44.31236" lon="4.15888">
        <ele>265.94</ele>
        <time>2012-10-10T15:04:10Z</time>
      </trkpt>
      <trkpt lat="44.31158" lon="4.15958">
        <ele>267.86</ele>
        <time>2012-10-10T15:04:33Z</time>
      </trkpt>
      <trkpt lat="44.31078" lon="4.16027">
        <ele>269.31</ele>
        <time>2012-10-10T15:04:53Z</time>
      </trkpt>
      <trkpt lat="44.30999" lon="4.16096">
        <ele>270.75</ele>
        <time>2012-10-10T15:05:12Z</time>
      </trkpt>
      <trkpt lat="44.30921" lon="4.16163">
        <ele>271.71</ele>
        <time>2012-10-10T15:05:31Z</time>
      </trkpt>
      <trkpt lat="44.30838" lon="4.16211">
        <ele>274.11</ele>
        <time>2012-10-10T15:05:53Z</time>
      </trkpt>
      <trkpt lat="44.3077" lon="4.16298">
        <ele>275.56</ele>
        <time>2012-10-10T15:06:14Z</time>
      </trkpt>
      <trkpt lat="44.30693" lon="4.16369">
        <ele>277.48</ele>
        <time>2012-10-10T15:06:33Z</time>
      </trkpt>
      <trkpt lat="44.30616" lon="4.16438">
        <ele>279.4</ele>
        <time>2012-10-10T15:06:52Z</time>
      </trkpt>
      <trkpt lat="44.30539" lon="4.16507">
        <ele>281.32</ele>
        <time>2012-10-10T15:07:11Z</time>
      </trkpt>
      <trkpt lat="44.30463" lon="4.16576">
        <ele>283.25</ele>
        <time>2012-10-10T15:07:30Z</time>
      </trkpt>
      <trkpt lat="44.30387" lon="4.16645">
        <ele>285.65</ele>
        <time>2012-10-10T15:07:49Z</time>
      </trkpt>
      <trkpt lat="44.3031" lon="4.16713">
        <ele>286.13</ele>
        <time>2012-10-10T15:08:07Z</time>
      </trkpt>
      <trkpt lat="44.30234" lon="4.16782">
        <ele>285.17</ele>
        <time>2012-10-10T15:08:23Z</time>
      </trkpt>
      <trkpt lat="44.30158" lon="4.16851">
        <ele>283.73</ele>
        <time>2012-10-10T15:08:36Z</time>
      </trkpt>
      <trkpt lat="44.30079" lon="4.16922">
        <ele>280.84</ele>
        <time>2012-10-10T15:08:50Z</time>
      </trkpt>
      <trkpt lat="44.30002" lon="4.16988">
        <ele>278.92</ele>
        <time>2012-10-10T15:10:01Z</time>
      </trkpt>
      <trkpt lat="44.29919" lon="4.17056">
        <ele>277</ele>
        <time>2012-10-10T15:10:15Z</time>
      </trkpt>
      <trkpt lat="44.29843" lon="4.17126">
        <ele>275.56</ele>
        <time>2012-10-10T15:10:28Z</time>
      </trkpt>
      <trkpt lat="44.29787" lon="4.17231">
        <ele>273.63</ele>
        <time>2012-10-10T15:10:41Z</time>
      </trkpt>
      <trkpt lat="44.29735" lon="4.17345">
        <ele>272.19</ele>
        <time>2012-10-10T15:10:54Z</time>
      </trkpt>
      <trkpt lat="44.29683" lon="4.17457">
        <ele>271.23</ele>
        <time>2012-10-10T15:11:07Z</time>
      </trkpt>
      <trkpt lat="44.29631" lon="4.17568">
        <ele>272.67</ele>
        <time>2012-10-10T15:11:22Z</time>
      </trkpt>
      <trkpt lat="44.29575" lon="4.17676">
        <ele>273.15</ele>
        <time>2012-10-10T15:11:39Z</time>
      </trkpt>
      <trkpt lat="44.29523" lon="4.17787">
        <ele>275.07</ele>
        <time>2012-10-10T15:11:56Z</time>
      </trkpt>
      <trkpt lat="44.29472" lon="4.17898">
        <ele>275.07</ele>
        <time>2012-10-10T15:12:12Z</time>
      </trkpt>
      <trkpt lat="44.29443" lon="4.18017">
        <ele>273.15</ele>
        <time>2012-10-10T15:12:27Z</time>
      </trkpt>
      <trkpt lat="44.29405" lon="4.1813">
        <ele>270.75</ele>
        <time>2012-10-10T15:13:08Z</time>
      </trkpt>
      <trkpt lat="44.29351" lon="4.18244">
        <ele>267.38</ele>
        <time>2012-10-10T15:13:21Z</time>
      </trkpt>
      <trkpt lat="44.29264" lon="4.18275">
        <ele>262.58</ele>
        <time>2012-10-10T15:13:31Z</time>
      </trkpt>
      <trkpt lat="44.2918" lon="4.18228">
        <ele>256.81</ele>
        <time>2012-10-10T15:13:40Z</time>
      </trkpt>
      <trkpt lat="44.29094" lon="4.18284">
        <ele>251.52</ele>
        <time>2012-10-10T15:13:49Z</time>
      </trkpt>
      <trkpt lat="44.29015" lon="4.18338">
        <ele>246.23</ele>
        <time>2012-10-10T15:13:57Z</time>
      </trkpt>
      <trkpt lat="44.28937" lon="4.18272">
        <ele>242.39</ele>
        <time>2012-10-10T15:14:06Z</time>
      </trkpt>
      <trkpt lat="44.2885" lon="4.18236">
        <ele>238.06</ele>
        <time>2012-10-10T15:14:16Z</time>
      </trkpt>
      <trkpt lat="44.28761" lon="4.18273">
        <ele>235.18</ele>
        <time>2012-10-10T15:14:25Z</time>
      </trkpt>
      <trkpt lat="44.28694" lon="4.18351">
        <ele>231.81</ele>
        <time>2012-10-10T15:14:34Z</time>
      </trkpt>
      <trkpt lat="44.28677" lon="4.18476">
        <ele>226.53</ele>
        <time>2012-10-10T15:14:43Z</time>
      </trkpt>
      <trkpt lat="44.28631" lon="4.18592">
        <ele>223.16</ele>
        <time>2012-10-10T15:14:53Z</time>
      </trkpt>
      <trkpt lat="44.28564" lon="4.18682">
        <ele>219.32</ele>
        <time>2012-10-10T15:15:03Z</time>
      </trkpt>
      <trkpt lat="44.28505" lon="4.18776">
        <ele>214.51</ele>
        <time>2012-10-10T15:15:13Z</time>
      </trkpt>
      <trkpt lat="44.28477" lon="4.189">
        <ele>211.15</ele>
        <time>2012-10-10T15:15:23Z</time>
      </trkpt>
      <trkpt lat="44.28437" lon="4.19018">
        <ele>208.26</ele>
        <time>2012-10-10T15:15:33Z</time>
      </trkpt>
      <trkpt lat="44.2839" lon="4.19127">
        <ele>204.9</ele>
        <time>2012-10-10T15:15:43Z</time>
      </trkpt>
      <trkpt lat="44.28357" lon="4.19252">
        <ele>201.53</ele>
        <time>2012-10-10T15:15:54Z</time>
      </trkpt>
      <trkpt lat="44.28329" lon="4.19375">
        <ele>199.61</ele>
        <time>2012-10-10T15:16:05Z</time>
      </trkpt>
      <trkpt lat="44.283" lon="4.19494">
        <ele>196.25</ele>
        <time>2012-10-10T15:16:16Z</time>
      </trkpt>
      <trkpt lat="44.28267" lon="4.19615">
        <ele>192.88</ele>
        <time>2012-10-10T15:16:27Z</time>
      </trkpt>
      <trkpt lat="44.28189" lon="4.19686">
        <ele>190.48</ele>
        <time>2012-10-10T15:16:38Z</time>
      </trkpt>
      <trkpt lat="44.28102" lon="4.1973">
        <ele>188.08</ele>
        <time>2012-10-10T15:16:49Z</time>
      </trkpt>
      <trkpt lat="44.28024" lon="4.19803">
        <ele>185.19</ele>
        <time>2012-10-10T15:17:00Z</time>
      </trkpt>
      <trkpt lat="44.27933" lon="4.19842">
        <ele>182.79</ele>
        <time>2012-10-10T15:17:11Z</time>
      </trkpt>
      <trkpt lat="44.27841" lon="4.19855">
        <ele>179.42</ele>
        <time>2012-10-10T15:17:22Z</time>
      </trkpt>
      <trkpt lat="44.27745" lon="4.19861">
        <ele>177.02</ele>
        <time>2012-10-10T15:17:34Z</time>
      </trkpt>
      <trkpt lat="44.27654" lon="4.19851">
        <ele>175.1</ele>
        <time>2012-10-10T15:17:45Z</time>
      </trkpt>
      <trkpt lat="44.27561" lon="4.19818">
        <ele>172.21</ele>
        <time>2012-10-10T15:17:57Z</time>
      </trkpt>
      <trkpt lat="44.27507" lon="4.19915">
        <ele>169.81</ele>
        <time>2012-10-10T15:18:08Z</time>
      </trkpt>
      <trkpt lat="44.27417" lon="4.19894">
        <ele>166.93</ele>
        <time>2012-10-10T15:18:19Z</time>
      </trkpt>
      <trkpt lat="44.27329" lon="4.19837">
        <ele>165</ele>
        <time>2012-10-10T15:18:30Z</time>
      </trkpt>
      <trkpt lat="44.27251" lon="4.19774">
        <ele>162.12</ele>
        <time>2012-10-10T15:18:41Z</time>
      </trkpt>
      <trkpt lat="44.27177" lon="4.19703">
        <ele>160.2</ele>
        <time>2012-10-10T15:18:52Z</time>
      </trkpt>
      <trkpt lat="44.27099" lon="4.19638">
        <ele>156.83</ele>
        <time>2012-10-10T15:19:02Z</time>
      </trkpt>
      <trkpt lat="44.27005" lon="4.19601">
        <ele>156.35</ele>
        <time>2012-10-10T15:19:13Z</time>
      </trkpt>
      <trkpt lat="44.26909" lon="4.19578">
        <ele>155.87</ele>
        <time>2012-10-10T15:19:25Z</time>
      </trkpt>
      <trkpt lat="44.26819" lon="4.19574">
        <ele>154.91</ele>
        <time>2012-10-10T15:19:37Z</time>
      </trkpt>
      <trkpt lat="44.26738" lon="4.19612">
        <ele>154.91</ele>
        <time>2012-10-10T15:19:50Z</time>
      </trkpt>
      <trkpt lat="44.26687" lon="4.19715">
        <ele>155.39</ele>
        <time>2012-10-10T15:20:05Z</time>
      </trkpt>
      <trkpt lat="44.26633" lon="4.19819">
        <ele>154.43</ele>
        <time>2012-10-10T15:20:20Z</time>
      </trkpt>
      <trkpt lat="44.26575" lon="4.19927">
        <ele>154.91</ele>
        <time>2012-10-10T15:20:35Z</time>
      </trkpt>
      <trkpt lat="44.26516" lon="4.20024">
        <ele>154.43</ele>
        <time>2012-10-10T15:20:49Z</time>
      </trkpt>
      <trkpt lat="44.26429" lon="4.20054">
        <ele>153.47</ele>
        <time>2012-10-10T15:21:03Z</time>
      </trkpt>
      <trkpt lat="44.26339" lon="4.20019">
        <ele>154.91</ele>
        <time>2012-10-10T15:21:18Z</time>
      </trkpt>
      <trkpt lat="44.26247" lon="4.19988">
        <ele>156.35</ele>
        <time>2012-10-10T15:21:40Z</time>
      </trkpt>
      <trkpt lat="44.26184" lon="4.19919">
        <ele>152.99</ele>
        <time>2012-10-10T15:22:08Z</time>
      </trkpt>
      <trkpt lat="44.26127" lon="4.19806">
        <ele>153.95</ele>
        <time>2012-10-10T15:22:58Z</time>
      </trkpt>
      <trkpt lat="44.26057" lon="4.19804">
        <ele>152.99</ele>
        <time>2012-10-10T15:24:26Z</time>
      </trkpt>
      <trkpt lat="44.26015" lon="4.19686">
        <ele>153.95</ele>
        <time>2012-10-10T15:25:35Z</time>
      </trkpt>
      <trkpt lat="44.25972" lon="4.19563">
        <ele>155.87</ele>
        <time>2012-10-10T15:26:00Z</time>
      </trkpt>
      <trkpt lat="44.25929" lon="4.19445">
        <ele>157.79</ele>
        <time>2012-10-10T15:26:23Z</time>
      </trkpt>
      <trkpt lat="44.25888" lon="4.19327">
        <ele>160.2</ele>
        <time>2012-10-10T15:26:46Z</time>
      </trkpt>
      <trkpt lat="44.25847" lon="4.19207">
        <ele>163.08</ele>
        <time>2012-10-10T15:27:10Z</time>
      </trkpt>
      <trkpt lat="44.25803" lon="4.19093">
        <ele>166.45</ele>
        <time>2012-10-10T15:27:36Z</time>
      </trkpt>
      <trkpt lat="44.25767" lon="4.18972">
        <ele>170.29</ele>
        <time>2012-10-10T15:28:05Z</time>
      </trkpt>
      <trkpt lat="44.25717" lon="4.18862">
        <ele>174.14</ele>
        <time>2012-10-10T15:28:33Z</time>
      </trkpt>
      <trkpt lat="44.25662" lon="4.18765">
        <ele>177.98</ele>
        <time>2012-10-10T15:28:59Z</time>
      </trkpt>
      <trkpt lat="44.25605" lon="4.18669">
        <ele>181.35</ele>
        <time>2012-10-10T15:29:27Z</time>
      </trkpt>
      <trkpt lat="44.25539" lon="4.18579">
        <ele>187.11</ele>
        <time>2012-10-10T15:29:59Z</time>
      </trkpt>
      <trkpt lat="44.25482" lon="4.18477">
        <ele>190.96</ele>
        <time>2012-10-10T15:30:33Z</time>
      </trkpt>
      <trkpt lat="44.25426" lon="4.18375">
        <ele>194.8</ele>
        <time>2012-10-10T15:31:04Z</time>
      </trkpt>
      <trkpt lat="44.2536" lon="4.18295">
        <ele>198.65</ele>
        <time>2012-10-10T15:31:33Z</time>
      </trkpt>
      <trkpt lat="44.25271" lon="4.18273">
        <ele>201.05</ele>
        <time>2012-10-10T15:31:58Z</time>
      </trkpt>
      <trkpt lat="44.25185" lon="4.18237">
        <ele>203.94</ele>
        <time>2012-10-10T15:32:24Z</time>
      </trkpt>
      <trkpt lat="44.25097" lon="4.18201">
        <ele>206.82</ele>
        <time>2012-10-10T15:32:50Z</time>
      </trkpt>
      <trkpt lat="44.25016" lon="4.18147">
        <ele>209.7</ele>
        <time>2012-10-10T15:33:16Z</time>
      </trkpt>
      <trkpt lat="44.24927" lon="4.18127">
        <ele>215.47</ele>
        <time>2012-10-10T15:33:48Z</time>
      </trkpt>
      <trkpt lat="44.24836" lon="4.18133">
        <ele>221.24</ele>
        <time>2012-10-10T15:34:23Z</time>
      </trkpt>
      <trkpt lat="44.24746" lon="4.18126">
        <ele>227.97</ele>
        <time>2012-10-10T15:34:58Z</time>
      </trkpt>
      <trkpt lat="44.24655" lon="4.18118">
        <ele>233.26</ele>
        <time>2012-10-10T15:35:35Z</time>
      </trkpt>
      <trkpt lat="44.24571" lon="4.18064">
        <ele>236.14</ele>
        <time>2012-10-10T15:36:04Z</time>
      </trkpt>
      <trkpt lat="44.24507" lon="4.17974">
        <ele>235.18</ele>
        <time>2012-10-10T15:37:00Z</time>
      </trkpt>
      <trkpt lat="44.24429" lon="4.1791">
        <ele>231.81</ele>
        <time>2012-10-10T15:37:13Z</time>
      </trkpt>
      <trkpt lat="44.24344" lon="4.1784">
        <ele>226.05</ele>
        <time>2012-10-10T15:37:24Z</time>
      </trkpt>
      <trkpt lat="44.24286" lon="4.17745">
        <ele>222.68</ele>
        <time>2012-10-10T15:37:33Z</time>
      </trkpt>
      <trkpt lat="44.24233" lon="4.17638">
        <ele>223.64</ele>
        <time>2012-10-10T15:37:44Z</time>
      </trkpt>
      <trkpt lat="44.24162" lon="4.17557">
        <ele>227.49</ele>
        <time>2012-10-10T15:38:01Z</time>
      </trkpt>
      <trkpt lat="44.24085" lon="4.17482">
        <ele>230.85</ele>
        <time>2012-10-10T15:38:22Z</time>
      </trkpt>
      <trkpt lat="44.24008" lon="4.17409">
        <ele>232.3</ele>
        <time>2012-10-10T15:38:42Z</time>
      </trkpt>
      <trkpt lat="44.23929" lon="4.17339">
        <ele>233.74</ele>
        <time>2012-10-10T15:39:02Z</time>
      </trkpt>
      <trkpt lat="44.23855" lon="4.17263">
        <ele>236.14</ele>
        <time>2012-10-10T15:39:22Z</time>
      </trkpt>
      <trkpt lat="44.23794" lon="4.17166">
        <ele>238.06</ele>
        <time>2012-10-10T15:39:44Z</time>
      </trkpt>
      <trkpt lat="44.23755" lon="4.17046">
        <ele>239.02</ele>
        <time>2012-10-10T15:40:05Z</time>
      </trkpt>
      <trkpt lat="44.23726" lon="4.16921">
        <ele>240.47</ele>
        <time>2012-10-10T15:40:24Z</time>
      </trkpt>
      <trkpt lat="44.23695" lon="4.16804">
        <ele>241.43</ele>
        <time>2012-10-10T15:40:42Z</time>
      </trkpt>
      <trkpt lat="44.23644" lon="4.16699">
        <ele>242.39</ele>
        <time>2012-10-10T15:41:01Z</time>
      </trkpt>
      <trkpt lat="44.23571" lon="4.16619">
        <ele>243.83</ele>
        <time>2012-10-10T15:41:20Z</time>
      </trkpt>
      <trkpt lat="44.23491" lon="4.16553">
        <ele>242.87</ele>
        <time>2012-10-10T15:41:37Z</time>
      </trkpt>
      <trkpt lat="44.23409" lon="4.16484">
        <ele>240.95</ele>
        <time>2012-10-10T15:41:52Z</time>
      </trkpt>
      <trkpt lat="44.23335" lon="4.16411">
        <ele>237.1</ele>
        <time>2012-10-10T15:42:03Z</time>
      </trkpt>
      <trkpt lat="44.23263" lon="4.16335">
        <ele>232.78</ele>
        <time>2012-10-10T15:42:12Z</time>
      </trkpt>
      <trkpt lat="44.23183" lon="4.16254">
        <ele>228.45</ele>
        <time>2012-10-10T15:42:21Z</time>
      </trkpt>
      <trkpt lat="44.23098" lon="4.16211">
        <ele>224.12</ele>
        <time>2012-10-10T15:42:29Z</time>
      </trkpt>
      <trkpt lat="44.23008" lon="4.1621">
        <ele>219.32</ele>
        <time>2012-10-10T15:42:37Z</time>
      </trkpt>
      <trkpt lat="44.22916" lon="4.16216">
        <ele>213.55</ele>
        <time>2012-10-10T15:42:45Z</time>
      </trkpt>
      <trkpt lat="44.22825" lon="4.1622">
        <ele>209.22</ele>
        <time>2012-10-10T15:42:53Z</time>
      </trkpt>
      <trkpt lat="44.22733" lon="4.16213">
        <ele>202.49</ele>
        <time>2012-10-10T15:43:05Z</time>
      </trkpt>
      <trkpt lat="44.22645" lon="4.16229">
        <ele>200.09</ele>
        <time>2012-10-10T15:43:16Z</time>
      </trkpt>
      <trkpt lat="44.22555" lon="4.16245">
        <ele>196.25</ele>
        <time>2012-10-10T15:43:26Z</time>
      </trkpt>
      <trkpt lat="44.22467" lon="4.16277">
        <ele>193.36</ele>
        <time>2012-10-10T15:43:36Z</time>
      </trkpt>
      <trkpt lat="44.22374" lon="4.16262">
        <ele>190.48</ele>
        <time>2012-10-10T15:43:46Z</time>
      </trkpt>
      <trkpt lat="44.22303" lon="4.1618">
        <ele>190</ele>
        <time>2012-10-10T15:43:57Z</time>
      </trkpt>
      <trkpt lat="44.22229" lon="4.16107">
        <ele>191.44</ele>
        <time>2012-10-10T15:44:12Z</time>
      </trkpt>
      <trkpt lat="44.22152" lon="4.16037">
        <ele>192.88</ele>
        <time>2012-10-10T15:44:30Z</time>
      </trkpt>
      <trkpt lat="44.22077" lon="4.15963">
        <ele>195.28</ele>
        <time>2012-10-10T15:44:51Z</time>
      </trkpt>
      <trkpt lat="44.22007" lon="4.15887">
        <ele>199.61</ele>
        <time>2012-10-10T15:45:16Z</time>
      </trkpt>
      <trkpt lat="44.21934" lon="4.15808">
        <ele>202.49</ele>
        <time>2012-10-10T15:45:42Z</time>
      </trkpt>
      <trkpt lat="44.2186" lon="4.15727">
        <ele>204.42</ele>
        <time>2012-10-10T15:46:04Z</time>
      </trkpt>
      <trkpt lat="44.21787" lon="4.15648">
        <ele>204.42</ele>
        <time>2012-10-10T15:46:22Z</time>
      </trkpt>
      <trkpt lat="44.21721" lon="4.15555">
        <ele>204.42</ele>
        <time>2012-10-10T15:46:38Z</time>
      </trkpt>
      <trkpt lat="44.21662" lon="4.15459">
        <ele>206.34</ele>
        <time>2012-10-10T15:46:55Z</time>
      </trkpt>
      <trkpt lat="44.21593" lon="4.15375">
        <ele>209.7</ele>
        <time>2012-10-10T15:47:18Z</time>
      </trkpt>
      <trkpt lat="44.21525" lon="4.15294">
        <ele>212.59</ele>
        <time>2012-10-10T15:47:42Z</time>
      </trkpt>
      <trkpt lat="44.21462" lon="4.15205">
        <ele>215.95</ele>
        <time>2012-10-10T15:48:08Z</time>
      </trkpt>
      <trkpt lat="44.21399" lon="4.15112">
        <ele>219.8</ele>
        <time>2012-10-10T15:48:35Z</time>
      </trkpt>
      <trkpt lat="44.21345" lon="4.15011">
        <ele>223.16</ele>
        <time>2012-10-10T15:49:01Z</time>
      </trkpt>
      <trkpt lat="44.21296" lon="4.149">
        <ele>227.97</ele>
        <time>2012-10-10T15:49:28Z</time>
      </trkpt>
      <trkpt lat="44.21237" lon="4.14803">
        <ele>231.33</ele>
        <time>2012-10-10T15:49:54Z</time>
      </trkpt>
      <trkpt lat="44.21168" lon="4.1472">
        <ele>234.7</ele>
        <time>2012-10-10T15:50:19Z</time>
      </trkpt>
      <trkpt lat="44.21104" lon="4.14628">
        <ele>238.06</ele>
        <time>2012-10-10T15:50:44Z</time>
      </trkpt>
      <trkpt lat="44.21045" lon="4.14532">
        <ele>240.95</ele>
        <time>2012-10-10T15:51:07Z</time>
      </trkpt>
      <trkpt lat="44.20981" lon="4.14436">
        <ele>242.87</ele>
        <time>2012-10-10T15:51:28Z</time>
      </trkpt>
      <trkpt lat="44.20912" lon="4.14353">
        <ele>243.83</ele>
        <time>2012-10-10T15:51:46Z</time>
      </trkpt>
      <trkpt lat="44.20836" lon="4.14282">
        <ele>246.72</ele>
        <time>2012-10-10T15:52:05Z</time>
      </trkpt>
      <trkpt lat="44.20751" lon="4.14229">
        <ele>245.27</ele>
        <time>2012-10-10T15:52:24Z</time>
      </trkpt>
      <trkpt lat="44.20666" lon="4.14184">
        <ele>243.35</ele>
        <time>2012-10-10T15:52:39Z</time>
      </trkpt>
      <trkpt lat="44.20581" lon="4.14133">
        <ele>239.02</ele>
        <time>2012-10-10T15:52:53Z</time>
      </trkpt>
      <trkpt lat="44.20506" lon="4.14068">
        <ele>237.58</ele>
        <time>2012-10-10T15:54:49Z</time>
      </trkpt>
      <trkpt lat="44.20433" lon="4.13987">
        <ele>238.54</ele>
        <time>2012-10-10T15:55:12Z</time>
      </trkpt>
      <trkpt lat="44.20357" lon="4.13913">
        <ele>240.95</ele>
        <time>2012-10-10T15:55:33Z</time>
      </trkpt>
      <trkpt lat="44.20274" lon="4.13859">
        <ele>242.39</ele>
        <time>2012-10-10T15:55:54Z</time>
      </trkpt>
      <trkpt lat="44.20189" lon="4.13809">
        <ele>244.31</ele>
        <time>2012-10-10T15:56:16Z</time>
      </trkpt>
      <trkpt lat="44.20105" lon="4.13757">
        <ele>246.23</ele>
        <time>2012-10-10T15:56:38Z</time>
      </trkpt>
      <trkpt lat="44.20025" lon="4.13696">
        <ele>248.64</ele>
        <time>2012-10-10T15:57:00Z</time>
      </trkpt>
      <trkpt lat="44.19947" lon="4.13627">
        <ele>249.12</ele>
        <time>2012-10-10T15:57:21Z</time>
      </trkpt>
      <trkpt lat="44.19868" lon="4.13549">
        <ele>246.72</ele>
        <time>2012-10-10T15:57:36Z</time>
      </trkpt>
      <trkpt lat="44.19787" lon="4.13485">
        <ele>243.83</ele>
        <time>2012-10-10T15:57:48Z</time>
      </trkpt>
      <trkpt lat="44.19695" lon="4.13442">
        <ele>239.51</ele>
        <time>2012-10-10T15:57:59Z</time>
      </trkpt>
      <trkpt lat="44.19608" lon="4.13392">
        <ele>239.51</ele>
        <time>2012-10-10T15:58:10Z</time>
      </trkpt>
      <trkpt lat="44.19525" lon="4.13333">
        <ele>238.54</ele>
        <time>2012-10-10T15:58:23Z</time>
      </trkpt>
      <trkpt lat="44.1944" lon="4.13274">
        <ele>237.58</ele>
        <time>2012-10-10T15:58:36Z</time>
      </trkpt>
      <trkpt lat="44.19354" lon="4.13221">
        <ele>235.18</ele>
        <time>2012-10-10T15:58:48Z</time>
      </trkpt>
      <trkpt lat="44.19267" lon="4.13174">
        <ele>233.74</ele>
        <time>2012-10-10T15:58:59Z</time>
      </trkpt>
      <trkpt lat="44.19181" lon="4.13127">
        <ele>232.78</ele>
        <time>2012-10-10T15:59:11Z</time>
      </trkpt>
      <trkpt lat="44.19092" lon="4.13079">
        <ele>232.3</ele>
        <time>2012-10-10T15:59:25Z</time>
      </trkpt>
      <trkpt lat="44.19006" lon="4.13031">
        <ele>231.33</ele>
        <time>2012-10-10T15:59:38Z</time>
      </trkpt>
      <trkpt lat="44.18915" lon="4.12979">
        <ele>228.45</ele>
        <time>2012-10-10T15:59:50Z</time>
      </trkpt>
      <trkpt lat="44.18831" lon="4.12932">
        <ele>227.49</ele>
        <time>2012-10-10T16:00:02Z</time>
      </trkpt>
      <trkpt lat="44.18746" lon="4.12887">
        <ele>227.01</ele>
        <time>2012-10-10T16:00:15Z</time>
      </trkpt>
      <trkpt lat="44.18656" lon="4.12839">
        <ele>226.53</ele>
        <time>2012-10-10T16:00:29Z</time>
      </trkpt>
      <trkpt lat="44.18569" lon="4.1279">
        <ele>229.89</ele>
        <time>2012-10-10T16:00:45Z</time>
      </trkpt>
      <trkpt lat="44.18484" lon="4.12732">
        <ele>231.33</ele>
        <time>2012-10-10T16:01:02Z</time>
      </trkpt>
      <trkpt lat="44.18404" lon="4.12655">
        <ele>228.45</ele>
        <time>2012-10-10T16:01:16Z</time>
      </trkpt>
      <trkpt lat="44.18324" lon="4.12577">
        <ele>226.53</ele>
        <time>2012-10-10T16:01:28Z</time>
      </trkpt>
      <trkpt lat="44.1825" lon="4.12505">
        <ele>223.64</ele>
        <time>2012-10-10T16:01:39Z</time>
      </trkpt>
      <trkpt lat="44.18173" lon="4.12432">
        <ele>221.72</ele>
        <time>2012-10-10T16:01:50Z</time>
      </trkpt>
      <trkpt lat="44.18099" lon="4.1236">
        <ele>220.28</ele>
        <time>2012-10-10T16:02:01Z</time>
      </trkpt>
      <trkpt lat="44.1803" lon="4.12279">
        <ele>218.36</ele>
        <time>2012-10-10T16:02:13Z</time>
      </trkpt>
      <trkpt lat="44.17966" lon="4.12178">
        <ele>217.88</ele>
        <time>2012-10-10T16:02:26Z</time>
      </trkpt>
      <trkpt lat="44.17903" lon="4.12078">
        <ele>216.91</ele>
        <time>2012-10-10T16:02:39Z</time>
      </trkpt>
      <trkpt lat="44.17842" lon="4.11978">
        <ele>215.95</ele>
        <time>2012-10-10T16:02:51Z</time>
      </trkpt>
      <trkpt lat="44.17788" lon="4.11865">
        <ele>216.91</ele>
        <time>2012-10-10T16:03:05Z</time>
      </trkpt>
      <trkpt lat="44.17742" lon="4.11751">
        <ele>214.51</ele>
        <time>2012-10-10T16:03:18Z</time>
      </trkpt>
      <trkpt lat="44.17669" lon="4.11675">
        <ele>211.63</ele>
        <time>2012-10-10T16:03:29Z</time>
      </trkpt>
      <trkpt lat="44.17604" lon="4.11589">
        <ele>207.78</ele>
        <time>2012-10-10T16:03:39Z</time>
      </trkpt>
      <trkpt lat="44.1756" lon="4.11471">
        <ele>203.94</ele>
        <time>2012-10-10T16:03:50Z</time>
      </trkpt>
      <trkpt lat="44.17497" lon="4.11367">
        <ele>200.57</ele>
        <time>2012-10-10T16:04:00Z</time>
      </trkpt>
      <trkpt lat="44.17463" lon="4.1125">
        <ele>195.77</ele>
        <time>2012-10-10T16:04:10Z</time>
      </trkpt>
      <trkpt lat="44.1745" lon="4.11128">
        <ele>192.4</ele>
        <time>2012-10-10T16:04:20Z</time>
      </trkpt>
      <trkpt lat="44.17409" lon="4.11007">
        <ele>187.11</ele>
        <time>2012-10-10T16:04:41Z</time>
      </trkpt>
      <trkpt lat="44.17368" lon="4.10885">
        <ele>184.23</ele>
        <time>2012-10-10T16:04:55Z</time>
      </trkpt>
      <trkpt lat="44.17325" lon="4.10771">
        <ele>182.31</ele>
        <time>2012-10-10T16:05:08Z</time>
      </trkpt>
      <trkpt lat="44.17258" lon="4.10675">
        <ele>180.38</ele>
        <time>2012-10-10T16:05:21Z</time>
      </trkpt>
      <trkpt lat="44.17191" lon="4.10578">
        <ele>178.94</ele>
        <time>2012-10-10T16:05:34Z</time>
      </trkpt>
      <trkpt lat="44.17124" lon="4.10492">
        <ele>177.5</ele>
        <time>2012-10-10T16:06:14Z</time>
      </trkpt>
      <trkpt lat="44.17046" lon="4.10425">
        <ele>178.46</ele>
        <time>2012-10-10T16:06:32Z</time>
      </trkpt>
      <trkpt lat="44.16976" lon="4.10346">
        <ele>178.46</ele>
        <time>2012-10-10T16:06:48Z</time>
      </trkpt>
      <trkpt lat="44.16903" lon="4.10268">
        <ele>177.98</ele>
        <time>2012-10-10T16:07:03Z</time>
      </trkpt>
      <trkpt lat="44.16829" lon="4.10188">
        <ele>177.02</ele>
        <time>2012-10-10T16:07:18Z</time>
      </trkpt>
      <trkpt lat="44.16758" lon="4.10109">
        <ele>175.1</ele>
        <time>2012-10-10T16:07:32Z</time>
      </trkpt>
      <trkpt lat="44.16682" lon="4.10047">
        <ele>174.14</ele>
        <time>2012-10-10T16:07:48Z</time>
      </trkpt>
      <trkpt lat="44.166" lon="4.09993">
        <ele>174.62</ele>
        <time>2012-10-10T16:08:02Z</time>
      </trkpt>
      <trkpt lat="44.16519" lon="4.09924">
        <ele>172.69</ele>
        <time>2012-10-10T16:08:17Z</time>
      </trkpt>
      <trkpt lat="44.16442" lon="4.09858">
        <ele>172.21</ele>
        <time>2012-10-10T16:08:30Z</time>
      </trkpt>
      <trkpt lat="44.16364" lon="4.09787">
        <ele>170.77</ele>
        <time>2012-10-10T16:08:43Z</time>
      </trkpt>
      <trkpt lat="44.16283" lon="4.09713">
        <ele>168.85</ele>
        <time>2012-10-10T16:08:56Z</time>
      </trkpt>
      <trkpt lat="44.16204" lon="4.09649">
        <ele>167.89</ele>
        <time>2012-10-10T16:09:08Z</time>
      </trkpt>
      <trkpt lat="44.16122" lon="4.09581">
        <ele>167.41</ele>
        <time>2012-10-10T16:09:21Z</time>
      </trkpt>
      <trkpt lat="44.1604" lon="4.09511">
        <ele>167.89</ele>
        <time>2012-10-10T16:09:35Z</time>
      </trkpt>
      <trkpt lat="44.15959" lon="4.09445">
        <ele>165.96</ele>
        <time>2012-10-10T16:09:52Z</time>
      </trkpt>
      <trkpt lat="44.15886" lon="4.09368">
        <ele>165.48</ele>
        <time>2012-10-10T16:10:08Z</time>
      </trkpt>
      <trkpt lat="44.15814" lon="4.09292">
        <ele>164.52</ele>
        <time>2012-10-10T16:10:21Z</time>
      </trkpt>
      <trkpt lat="44.15744" lon="4.09208">
        <ele>163.56</ele>
        <time>2012-10-10T16:10:34Z</time>
      </trkpt>
      <trkpt lat="44.15688" lon="4.09116">
        <ele>165.48</ele>
        <time>2012-10-10T16:10:50Z</time>
      </trkpt>
      <trkpt lat="44.15605" lon="4.09176">
        <ele>164.52</ele>
        <time>2012-10-10T16:11:05Z</time>
      </trkpt>
      <trkpt lat="44.15509" lon="4.0917">
        <ele>163.56</ele>
        <time>2012-10-10T16:11:21Z</time>
      </trkpt>
      <trkpt lat="44.15419" lon="4.09157">
        <ele>163.08</ele>
        <time>2012-10-10T16:11:35Z</time>
      </trkpt>
      <trkpt lat="44.15323" lon="4.0915">
        <ele>161.16</ele>
        <time>2012-10-10T16:11:50Z</time>
      </trkpt>
      <trkpt lat="44.15228" lon="4.09157">
        <ele>161.16</ele>
        <time>2012-10-10T16:12:05Z</time>
      </trkpt>
      <trkpt lat="44.15136" lon="4.09123">
        <ele>159.24</ele>
        <time>2012-10-10T16:12:19Z</time>
      </trkpt>
      <trkpt lat="44.15045" lon="4.0909">
        <ele>156.83</ele>
        <time>2012-10-10T16:12:33Z</time>
      </trkpt>
      <trkpt lat="44.14956" lon="4.09058">
        <ele>157.31</ele>
        <time>2012-10-10T16:12:48Z</time>
      </trkpt>
      <trkpt lat="44.14872" lon="4.09002">
        <ele>156.83</ele>
        <time>2012-10-10T16:13:03Z</time>
      </trkpt>
      <trkpt lat="44.14789" lon="4.08945">
        <ele>154.43</ele>
        <time>2012-10-10T16:13:19Z</time>
      </trkpt>
      <trkpt lat="44.14699" lon="4.08904">
        <ele>152.99</ele>
        <time>2012-10-10T16:13:33Z</time>
      </trkpt>
      <trkpt lat="44.14608" lon="4.08876">
        <ele>152.03</ele>
        <time>2012-10-10T16:13:47Z</time>
      </trkpt>
      <trkpt lat="44.14515" lon="4.08869">
        <ele>152.03</ele>
        <time>2012-10-10T16:14:49Z</time>
      </trkpt>
      <trkpt lat="44.14421" lon="4.0887">
        <ele>150.1</ele>
        <time>2012-10-10T16:15:06Z</time>
      </trkpt>
      <trkpt lat="44.14324" lon="4.08869">
        <ele>148.18</ele>
        <time>2012-10-10T16:15:21Z</time>
      </trkpt>
      <trkpt lat="44.14233" lon="4.0887">
        <ele>148.18</ele>
        <time>2012-10-10T16:15:35Z</time>
      </trkpt>
      <trkpt lat="44.1414" lon="4.0887">
        <ele>148.18</ele>
        <time>2012-10-10T16:15:50Z</time>
      </trkpt>
      <trkpt lat="44.1405" lon="4.08868">
        <ele>148.66</ele>
        <time>2012-10-10T16:16:05Z</time>
      </trkpt>
      <trkpt lat="44.13964" lon="4.08852">
        <ele>147.7</ele>
        <time>2012-10-10T16:16:22Z</time>
      </trkpt>
      <trkpt lat="44.13898" lon="4.08765">
        <ele>150.1</ele>
        <time>2012-10-10T16:16:42Z</time>
      </trkpt>
      <trkpt lat="44.13832" lon="4.08671">
        <ele>153.47</ele>
        <time>2012-10-10T16:17:03Z</time>
      </trkpt>
      <trkpt lat="44.1377" lon="4.08578">
        <ele>152.99</ele>
        <time>2012-10-10T16:17:21Z</time>
      </trkpt>
      <trkpt lat="44.13705" lon="4.08484">
        <ele>150.1</ele>
        <time>2012-10-10T16:17:35Z</time>
      </trkpt>
      <trkpt lat="44.13618" lon="4.08439">
        <ele>150.1</ele>
        <time>2012-10-10T16:17:49Z</time>
      </trkpt>
      <trkpt lat="44.13528" lon="4.08398">
        <ele>150.58</ele>
        <time>2012-10-10T16:18:04Z</time>
      </trkpt>
      <trkpt lat="44.13444" lon="4.08351">
        <ele>151.54</ele>
        <time>2012-10-10T16:18:21Z</time>
      </trkpt>
      <trkpt lat="44.1336" lon="4.083">
        <ele>152.51</ele>
        <time>2012-10-10T16:18:41Z</time>
      </trkpt>
      <trkpt lat="44.13278" lon="4.08235">
        <ele>150.1</ele>
        <time>2012-10-10T16:18:56Z</time>
      </trkpt>
      <trkpt lat="44.13201" lon="4.08153">
        <ele>148.18</ele>
        <time>2012-10-10T16:19:09Z</time>
      </trkpt>
      <trkpt lat="44.13129" lon="4.08077">
        <ele>148.18</ele>
        <time>2012-10-10T16:19:21Z</time>
      </trkpt>
      <trkpt lat="44.1304" lon="4.08051">
        <ele>150.1</ele>
        <time>2012-10-10T16:19:36Z</time>
      </trkpt>
      <trkpt lat="44.12964" lon="4.07987">
        <ele>150.1</ele>
        <time>2012-10-10T16:19:54Z</time>
      </trkpt>
      <trkpt lat="44.12889" lon="4.07908">
        <ele>148.66</ele>
        <time>2012-10-10T16:20:11Z</time>
      </trkpt>
      <trkpt lat="44.12798" lon="4.07885">
        <ele>147.7</ele>
        <time>2012-10-10T16:20:27Z</time>
      </trkpt>
      <trkpt lat="44.12714" lon="4.0787">
        <ele>145.78</ele>
        <time>2012-10-10T16:20:56Z</time>
      </trkpt>
      <trkpt lat="44.12628" lon="4.07909">
        <ele>144.34</ele>
        <time>2012-10-10T16:21:19Z</time>
      </trkpt>
      <trkpt lat="44.12572" lon="4.07825">
        <ele>145.3</ele>
        <time>2012-10-10T16:21:45Z</time>
      </trkpt>
      <trkpt lat="44.12531" lon="4.07708">
        <ele>147.7</ele>
        <time>2012-10-10T16:22:11Z</time>
      </trkpt>
      <trkpt lat="44.12462" lon="4.07683">
        <ele>143.85</ele>
        <time>2012-10-10T16:22:41Z</time>
      </trkpt>
      <trkpt lat="44.12503" lon="4.07675">
        <ele>175.58</ele>
        <time>2012-10-10T17:03:18Z</time>
      </trkpt>
      <trkpt lat="44.12561" lon="4.07801">
        <ele>173.66</ele>
        <time>2012-10-10T17:03:43Z</time>
      </trkpt>
      <trkpt lat="44.12603" lon="4.07913">
        <ele>170.77</ele>
        <time>2012-10-10T17:04:02Z</time>
      </trkpt>
      <trkpt lat="44.12643" lon="4.08025">
        <ele>169.33</ele>
        <time>2012-10-10T17:04:24Z</time>
      </trkpt>
      <trkpt lat="44.12686" lon="4.08141">
        <ele>167.89</ele>
        <time>2012-10-10T17:04:46Z</time>
      </trkpt>
      <trkpt lat="44.12727" lon="4.08264">
        <ele>168.37</ele>
        <time>2012-10-10T17:05:09Z</time>
      </trkpt>
      <trkpt lat="44.12755" lon="4.08377">
        <ele>167.89</ele>
        <time>2012-10-10T17:06:33Z</time>
      </trkpt>
      <trkpt lat="44.12717" lon="4.08478">
        <ele>166.93</ele>
        <time>2012-10-10T17:07:12Z</time>
      </trkpt>
      <trkpt lat="44.12761" lon="4.08448">
        <ele>167.89</ele>
        <time>2012-10-11T06:52:45Z</time>
      </trkpt>
      <trkpt lat="44.12745" lon="4.08321">
        <ele>167.41</ele>
        <time>2012-10-11T06:53:05Z</time>
      </trkpt>
      <trkpt lat="44.12706" lon="4.08203">
        <ele>165.96</ele>
        <time>2012-10-11T06:53:25Z</time>
      </trkpt>
      <trkpt lat="44.12665" lon="4.08083">
        <ele>165.48</ele>
        <time>2012-10-11T06:53:45Z</time>
      </trkpt>
      <trkpt lat="44.12674" lon="4.0798">
        <ele>166.93</ele>
        <time>2012-10-11T06:54:15Z</time>
      </trkpt>
      <trkpt lat="44.12737" lon="4.07881">
        <ele>168.37</ele>
        <time>2012-10-11T06:54:44Z</time>
      </trkpt>
      <trkpt lat="44.12736" lon="4.07757">
        <ele>166.45</ele>
        <time>2012-10-11T06:55:05Z</time>
      </trkpt>
      <trkpt lat="44.12716" lon="4.07627">
        <ele>164.52</ele>
        <time>2012-10-11T06:56:02Z</time>
      </trkpt>
      <trkpt lat="44.12698" lon="4.07499">
        <ele>164.52</ele>
        <time>2012-10-11T06:56:19Z</time>
      </trkpt>
      <trkpt lat="44.12678" lon="4.07373">
        <ele>163.56</ele>
        <time>2012-10-11T06:56:36Z</time>
      </trkpt>
      <trkpt lat="44.12675" lon="4.07246">
        <ele>162.12</ele>
        <time>2012-10-11T06:56:53Z</time>
      </trkpt>
      <trkpt lat="44.12641" lon="4.07175">
        <ele>162.12</ele>
        <time>2012-10-11T06:57:13Z</time>
      </trkpt>
      <trkpt lat="44.12553" lon="4.07131">
        <ele>160.68</ele>
        <time>2012-10-11T06:57:31Z</time>
      </trkpt>
      <trkpt lat="44.12466" lon="4.07099">
        <ele>160.68</ele>
        <time>2012-10-11T06:57:48Z</time>
      </trkpt>
      <trkpt lat="44.12371" lon="4.07112">
        <ele>159.24</ele>
        <time>2012-10-11T06:58:06Z</time>
      </trkpt>
      <trkpt lat="44.12292" lon="4.07174">
        <ele>159.72</ele>
        <time>2012-10-11T06:58:21Z</time>
      </trkpt>
      <trkpt lat="44.12207" lon="4.07215">
        <ele>158.27</ele>
        <time>2012-10-11T06:58:40Z</time>
      </trkpt>
      <trkpt lat="44.12137" lon="4.07136">
        <ele>161.16</ele>
        <time>2012-10-11T06:59:00Z</time>
      </trkpt>
      <trkpt lat="44.12123" lon="4.07012">
        <ele>164.52</ele>
        <time>2012-10-11T06:59:28Z</time>
      </trkpt>
      <trkpt lat="44.12123" lon="4.06879">
        <ele>166.93</ele>
        <time>2012-10-11T06:59:57Z</time>
      </trkpt>
      <trkpt lat="44.12084" lon="4.06759">
        <ele>166.93</ele>
        <time>2012-10-11T07:00:17Z</time>
      </trkpt>
      <trkpt lat="44.12069" lon="4.06631">
        <ele>169.81</ele>
        <time>2012-10-11T07:00:42Z</time>
      </trkpt>
      <trkpt lat="44.12073" lon="4.06503">
        <ele>174.62</ele>
        <time>2012-10-11T07:01:15Z</time>
      </trkpt>
      <trkpt lat="44.12098" lon="4.06375">
        <ele>176.54</ele>
        <time>2012-10-11T07:01:42Z</time>
      </trkpt>
      <trkpt lat="44.12105" lon="4.06241">
        <ele>177.02</ele>
        <time>2012-10-11T07:02:04Z</time>
      </trkpt>
      <trkpt lat="44.12125" lon="4.06116">
        <ele>177.02</ele>
        <time>2012-10-11T07:02:23Z</time>
      </trkpt>
      <trkpt lat="44.12171" lon="4.06004">
        <ele>182.31</ele>
        <time>2012-10-11T07:02:53Z</time>
      </trkpt>
      <trkpt lat="44.12141" lon="4.05889">
        <ele>188.56</ele>
        <time>2012-10-11T07:03:32Z</time>
      </trkpt>
      <trkpt lat="44.12066" lon="4.05811">
        <ele>193.36</ele>
        <time>2012-10-11T07:04:06Z</time>
      </trkpt>
      <trkpt lat="44.11982" lon="4.05764">
        <ele>196.25</ele>
        <time>2012-10-11T07:04:34Z</time>
      </trkpt>
      <trkpt lat="44.11925" lon="4.05657">
        <ele>200.57</ele>
        <time>2012-10-11T07:05:06Z</time>
      </trkpt>
      <trkpt lat="44.11862" lon="4.05549">
        <ele>205.38</ele>
        <time>2012-10-11T07:05:39Z</time>
      </trkpt>
      <trkpt lat="44.11794" lon="4.05456">
        <ele>210.67</ele>
        <time>2012-10-11T07:06:16Z</time>
      </trkpt>
      <trkpt lat="44.11707" lon="4.05468">
        <ele>215.47</ele>
        <time>2012-10-11T07:06:54Z</time>
      </trkpt>
      <trkpt lat="44.11665" lon="4.05347">
        <ele>221.72</ele>
        <time>2012-10-11T07:07:37Z</time>
      </trkpt>
      <trkpt lat="44.11666" lon="4.0522">
        <ele>220.28</ele>
        <time>2012-10-11T07:08:05Z</time>
      </trkpt>
      <trkpt lat="44.11706" lon="4.05101">
        <ele>215.95</ele>
        <time>2012-10-11T07:08:19Z</time>
      </trkpt>
      <trkpt lat="44.11627" lon="4.05045">
        <ele>212.59</ele>
        <time>2012-10-11T07:08:34Z</time>
      </trkpt>
      <trkpt lat="44.11541" lon="4.04997">
        <ele>212.11</ele>
        <time>2012-10-11T07:08:51Z</time>
      </trkpt>
      <trkpt lat="44.11471" lon="4.04912">
        <ele>209.22</ele>
        <time>2012-10-11T07:09:08Z</time>
      </trkpt>
      <trkpt lat="44.11398" lon="4.04834">
        <ele>207.78</ele>
        <time>2012-10-11T07:09:23Z</time>
      </trkpt>
      <trkpt lat="44.11328" lon="4.04748">
        <ele>205.38</ele>
        <time>2012-10-11T07:09:37Z</time>
      </trkpt>
      <trkpt lat="44.1127" lon="4.04647">
        <ele>206.34</ele>
        <time>2012-10-11T07:09:53Z</time>
      </trkpt>
      <trkpt lat="44.11208" lon="4.04549">
        <ele>208.26</ele>
        <time>2012-10-11T07:10:15Z</time>
      </trkpt>
      <trkpt lat="44.11179" lon="4.04429">
        <ele>211.15</ele>
        <time>2012-10-11T07:10:38Z</time>
      </trkpt>
      <trkpt lat="44.11211" lon="4.04308">
        <ele>214.51</ele>
        <time>2012-10-11T07:11:03Z</time>
      </trkpt>
      <trkpt lat="44.11228" lon="4.0418">
        <ele>217.88</ele>
        <time>2012-10-11T07:11:29Z</time>
      </trkpt>
      <trkpt lat="44.1126" lon="4.04057">
        <ele>220.28</ele>
        <time>2012-10-11T07:11:55Z</time>
      </trkpt>
      <trkpt lat="44.11236" lon="4.03939">
        <ele>223.64</ele>
        <time>2012-10-11T07:12:21Z</time>
      </trkpt>
      <trkpt lat="44.11177" lon="4.03912">
        <ele>225.57</ele>
        <time>2012-10-11T07:17:15Z</time>
      </trkpt>
      <trkpt lat="44.11107" lon="4.0383">
        <ele>231.33</ele>
        <time>2012-10-11T07:17:52Z</time>
      </trkpt>
      <trkpt lat="44.11045" lon="4.03737">
        <ele>237.1</ele>
        <time>2012-10-11T07:18:28Z</time>
      </trkpt>
      <trkpt lat="44.10986" lon="4.03639">
        <ele>242.39</ele>
        <time>2012-10-11T07:19:04Z</time>
      </trkpt>
      <trkpt lat="44.10908" lon="4.03575">
        <ele>247.2</ele>
        <time>2012-10-11T07:19:39Z</time>
      </trkpt>
      <trkpt lat="44.1084" lon="4.0349">
        <ele>252.96</ele>
        <time>2012-10-11T07:20:14Z</time>
      </trkpt>
      <trkpt lat="44.10798" lon="4.03377">
        <ele>257.77</ele>
        <time>2012-10-11T07:20:49Z</time>
      </trkpt>
      <trkpt lat="44.10826" lon="4.03254">
        <ele>263.06</ele>
        <time>2012-10-11T07:21:24Z</time>
      </trkpt>
      <trkpt lat="44.10821" lon="4.03125">
        <ele>268.83</ele>
        <time>2012-10-11T07:21:59Z</time>
      </trkpt>
      <trkpt lat="44.10826" lon="4.02998">
        <ele>275.56</ele>
        <time>2012-10-11T07:22:35Z</time>
      </trkpt>
      <trkpt lat="44.1082" lon="4.02878">
        <ele>278.44</ele>
        <time>2012-10-11T07:23:07Z</time>
      </trkpt>
      <trkpt lat="44.10807" lon="4.02754">
        <ele>280.36</ele>
        <time>2012-10-11T07:23:35Z</time>
      </trkpt>
      <trkpt lat="44.10788" lon="4.02632">
        <ele>281.32</ele>
        <time>2012-10-11T07:24:01Z</time>
      </trkpt>
      <trkpt lat="44.10739" lon="4.02521">
        <ele>281.8</ele>
        <time>2012-10-11T07:24:23Z</time>
      </trkpt>
      <trkpt lat="44.10682" lon="4.02424">
        <ele>283.73</ele>
        <time>2012-10-11T07:24:45Z</time>
      </trkpt>
      <trkpt lat="44.10631" lon="4.02314">
        <ele>284.69</ele>
        <time>2012-10-11T07:25:07Z</time>
      </trkpt>
      <trkpt lat="44.10583" lon="4.02207">
        <ele>285.65</ele>
        <time>2012-10-11T07:25:27Z</time>
      </trkpt>
      <trkpt lat="44.10535" lon="4.021">
        <ele>286.61</ele>
        <time>2012-10-11T07:25:48Z</time>
      </trkpt>
      <trkpt lat="44.10488" lon="4.01993">
        <ele>288.05</ele>
        <time>2012-10-11T07:26:10Z</time>
      </trkpt>
      <trkpt lat="44.10448" lon="4.01879">
        <ele>290.46</ele>
        <time>2012-10-11T07:26:33Z</time>
      </trkpt>
      <trkpt lat="44.10408" lon="4.01767">
        <ele>290.94</ele>
        <time>2012-10-11T07:26:55Z</time>
      </trkpt>
      <trkpt lat="44.10364" lon="4.01651">
        <ele>286.61</ele>
        <time>2012-10-11T07:27:15Z</time>
      </trkpt>
      <trkpt lat="44.10288" lon="4.01573">
        <ele>284.21</ele>
        <time>2012-10-11T07:27:28Z</time>
      </trkpt>
      <trkpt lat="44.10206" lon="4.01509">
        <ele>280.84</ele>
        <time>2012-10-11T07:27:39Z</time>
      </trkpt>
      <trkpt lat="44.10133" lon="4.01429">
        <ele>277.48</ele>
        <time>2012-10-11T07:27:50Z</time>
      </trkpt>
      <trkpt lat="44.10136" lon="4.01303">
        <ele>274.11</ele>
        <time>2012-10-11T07:28:01Z</time>
      </trkpt>
      <trkpt lat="44.10112" lon="4.01173">
        <ele>269.31</ele>
        <time>2012-10-11T07:28:12Z</time>
      </trkpt>
      <trkpt lat="44.10074" lon="4.01054">
        <ele>264.5</ele>
        <time>2012-10-11T07:28:22Z</time>
      </trkpt>
      <trkpt lat="44.10017" lon="4.0095">
        <ele>260.65</ele>
        <time>2012-10-11T07:28:32Z</time>
      </trkpt>
      <trkpt lat="44.09934" lon="4.00902">
        <ele>256.33</ele>
        <time>2012-10-11T07:28:42Z</time>
      </trkpt>
      <trkpt lat="44.09843" lon="4.00864">
        <ele>251.04</ele>
        <time>2012-10-11T07:28:52Z</time>
      </trkpt>
      <trkpt lat="44.0977" lon="4.00777">
        <ele>246.23</ele>
        <time>2012-10-11T07:29:02Z</time>
      </trkpt>
      <trkpt lat="44.09756" lon="4.00655">
        <ele>241.43</ele>
        <time>2012-10-11T07:29:11Z</time>
      </trkpt>
      <trkpt lat="44.09735" lon="4.00537">
        <ele>237.1</ele>
        <time>2012-10-11T07:29:20Z</time>
      </trkpt>
      <trkpt lat="44.09709" lon="4.00416">
        <ele>231.81</ele>
        <time>2012-10-11T07:29:30Z</time>
      </trkpt>
      <trkpt lat="44.09745" lon="4.00292">
        <ele>227.49</ele>
        <time>2012-10-11T07:29:40Z</time>
      </trkpt>
      <trkpt lat="44.09815" lon="4.00198">
        <ele>221.72</ele>
        <time>2012-10-11T07:29:50Z</time>
      </trkpt>
      <trkpt lat="44.09791" lon="4.00069">
        <ele>215.47</ele>
        <time>2012-10-11T07:30:00Z</time>
      </trkpt>
      <trkpt lat="44.09805" lon="3.99949">
        <ele>211.63</ele>
        <time>2012-10-11T07:30:09Z</time>
      </trkpt>
      <trkpt lat="44.09837" lon="3.99822">
        <ele>206.82</ele>
        <time>2012-10-11T07:30:19Z</time>
      </trkpt>
      <trkpt lat="44.0987" lon="3.99698">
        <ele>202.01</ele>
        <time>2012-10-11T07:30:29Z</time>
      </trkpt>
      <trkpt lat="44.09857" lon="3.99573">
        <ele>197.21</ele>
        <time>2012-10-11T07:30:39Z</time>
      </trkpt>
      <trkpt lat="44.09788" lon="3.99487">
        <ele>193.84</ele>
        <time>2012-10-11T07:30:49Z</time>
      </trkpt>
      <trkpt lat="44.09737" lon="3.99382">
        <ele>191.44</ele>
        <time>2012-10-11T07:31:00Z</time>
      </trkpt>
      <trkpt lat="44.09775" lon="3.99264">
        <ele>190</ele>
        <time>2012-10-11T07:31:14Z</time>
      </trkpt>
      <trkpt lat="44.09717" lon="3.99184">
        <ele>189.52</ele>
        <time>2012-10-11T07:31:31Z</time>
      </trkpt>
      <trkpt lat="44.09628" lon="3.99148">
        <ele>186.63</ele>
        <time>2012-10-11T07:31:45Z</time>
      </trkpt>
      <trkpt lat="44.09538" lon="3.99121">
        <ele>184.71</ele>
        <time>2012-10-11T07:31:58Z</time>
      </trkpt>
      <trkpt lat="44.09446" lon="3.99114">
        <ele>183.75</ele>
        <time>2012-10-11T07:32:12Z</time>
      </trkpt>
      <trkpt lat="44.09358" lon="3.99089">
        <ele>182.79</ele>
        <time>2012-10-11T07:32:26Z</time>
      </trkpt>
      <trkpt lat="44.0927" lon="3.99039">
        <ele>181.83</ele>
        <time>2012-10-11T07:32:41Z</time>
      </trkpt>
      <trkpt lat="44.09193" lon="3.98972">
        <ele>181.83</ele>
        <time>2012-10-11T07:32:56Z</time>
      </trkpt>
      <trkpt lat="44.09113" lon="3.98908">
        <ele>180.87</ele>
        <time>2012-10-11T07:33:12Z</time>
      </trkpt>
      <trkpt lat="44.09022" lon="3.98868">
        <ele>180.38</ele>
        <time>2012-10-11T07:33:32Z</time>
      </trkpt>
      <trkpt lat="44.0894" lon="3.98813">
        <ele>178.46</ele>
        <time>2012-10-11T07:33:46Z</time>
      </trkpt>
      <trkpt lat="44.08861" lon="3.98749">
        <ele>176.54</ele>
        <time>2012-10-11T07:33:59Z</time>
      </trkpt>
      <trkpt lat="44.08781" lon="3.98694">
        <ele>174.62</ele>
        <time>2012-10-11T07:34:12Z</time>
      </trkpt>
      <trkpt lat="44.08688" lon="3.98666">
        <ele>174.14</ele>
        <time>2012-10-11T07:34:26Z</time>
      </trkpt>
      <trkpt lat="44.08599" lon="3.98643">
        <ele>173.17</ele>
        <time>2012-10-11T07:35:05Z</time>
      </trkpt>
      <trkpt lat="44.08519" lon="3.98574">
        <ele>172.21</ele>
        <time>2012-10-11T07:35:22Z</time>
      </trkpt>
      <trkpt lat="44.08433" lon="3.98521">
        <ele>171.73</ele>
        <time>2012-10-11T07:35:37Z</time>
      </trkpt>
      <trkpt lat="44.08345" lon="3.98473">
        <ele>171.25</ele>
        <time>2012-10-11T07:35:52Z</time>
      </trkpt>
      <trkpt lat="44.08257" lon="3.98444">
        <ele>173.66</ele>
        <time>2012-10-11T07:36:11Z</time>
      </trkpt>
      <trkpt lat="44.08169" lon="3.98433">
        <ele>176.54</ele>
        <time>2012-10-11T07:36:33Z</time>
      </trkpt>
      <trkpt lat="44.08103" lon="3.98375">
        <ele>173.66</ele>
        <time>2012-10-11T07:41:03Z</time>
      </trkpt>
      <trkpt lat="44.08035" lon="3.98291">
        <ele>169.33</ele>
        <time>2012-10-11T07:41:18Z</time>
      </trkpt>
      <trkpt lat="44.07958" lon="3.98222">
        <ele>166.45</ele>
        <time>2012-10-11T07:41:31Z</time>
      </trkpt>
      <trkpt lat="44.07868" lon="3.98183">
        <ele>163.08</ele>
        <time>2012-10-11T07:41:43Z</time>
      </trkpt>
      <trkpt lat="44.07786" lon="3.98137">
        <ele>159.72</ele>
        <time>2012-10-11T07:41:54Z</time>
      </trkpt>
      <trkpt lat="44.0771" lon="3.98069">
        <ele>159.72</ele>
        <time>2012-10-11T07:42:08Z</time>
      </trkpt>
      <trkpt lat="44.07619" lon="3.98059">
        <ele>159.72</ele>
        <time>2012-10-11T07:42:23Z</time>
      </trkpt>
      <trkpt lat="44.07533" lon="3.98113">
        <ele>160.2</ele>
        <time>2012-10-11T07:42:42Z</time>
      </trkpt>
      <trkpt lat="44.07475" lon="3.98161">
        <ele>160.68</ele>
        <time>2012-10-11T07:44:26Z</time>
      </trkpt>
      <trkpt lat="44.07395" lon="3.98235">
        <ele>157.31</ele>
        <time>2012-10-11T07:44:42Z</time>
      </trkpt>
      <trkpt lat="44.07318" lon="3.98301">
        <ele>155.87</ele>
        <time>2012-10-11T07:44:55Z</time>
      </trkpt>
      <trkpt lat="44.07226" lon="3.98339">
        <ele>155.87</ele>
        <time>2012-10-11T07:45:10Z</time>
      </trkpt>
      <trkpt lat="44.07137" lon="3.98342">
        <ele>154.91</ele>
        <time>2012-10-11T07:45:25Z</time>
      </trkpt>
      <trkpt lat="44.07062" lon="3.98277">
        <ele>153.95</ele>
        <time>2012-10-11T07:45:40Z</time>
      </trkpt>
      <trkpt lat="44.07043" lon="3.98149">
        <ele>151.54</ele>
        <time>2012-10-11T07:45:55Z</time>
      </trkpt>
      <trkpt lat="44.07091" lon="3.98159">
        <ele>150.1</ele>
        <time>2012-10-11T07:46:26Z</time>
      </trkpt>
      <trkpt lat="44.0705" lon="3.98061">
        <ele>149.14</ele>
        <time>2012-10-11T07:46:46Z</time>
      </trkpt>
      <trkpt lat="44.06982" lon="3.97994">
        <ele>151.06</ele>
        <time>2012-10-11T07:47:18Z</time>
      </trkpt>
      <trkpt lat="44.06887" lon="3.97978">
        <ele>152.03</ele>
        <time>2012-10-11T07:47:54Z</time>
      </trkpt>
      <trkpt lat="44.06794" lon="3.98001">
        <ele>148.66</ele>
        <time>2012-10-11T07:48:14Z</time>
      </trkpt>
      <trkpt lat="44.06706" lon="3.9804">
        <ele>147.7</ele>
        <time>2012-10-11T07:48:28Z</time>
      </trkpt>
      <trkpt lat="44.06613" lon="3.98063">
        <ele>146.74</ele>
        <time>2012-10-11T07:48:43Z</time>
      </trkpt>
      <trkpt lat="44.06521" lon="3.98077">
        <ele>146.26</ele>
        <time>2012-10-11T07:48:58Z</time>
      </trkpt>
      <trkpt lat="44.06429" lon="3.98092">
        <ele>146.26</ele>
        <time>2012-10-11T07:49:15Z</time>
      </trkpt>
      <trkpt lat="44.06337" lon="3.98106">
        <ele>145.78</ele>
        <time>2012-10-11T07:49:32Z</time>
      </trkpt>
      <trkpt lat="44.06279" lon="3.98198">
        <ele>145.3</ele>
        <time>2012-10-11T07:49:47Z</time>
      </trkpt>
      <trkpt lat="44.06232" lon="3.98305">
        <ele>144.82</ele>
        <time>2012-10-11T07:50:04Z</time>
      </trkpt>
      <trkpt lat="44.06159" lon="3.98384">
        <ele>143.85</ele>
        <time>2012-10-11T07:50:20Z</time>
      </trkpt>
      <trkpt lat="44.06084" lon="3.98456">
        <ele>142.41</ele>
        <time>2012-10-11T07:50:35Z</time>
      </trkpt>
      <trkpt lat="44.06004" lon="3.98536">
        <ele>143.37</ele>
        <time>2012-10-11T07:50:52Z</time>
      </trkpt>
      <trkpt lat="44.05938" lon="3.98627">
        <ele>145.3</ele>
        <time>2012-10-11T07:51:10Z</time>
      </trkpt>
      <trkpt lat="44.0586" lon="3.98699">
        <ele>144.34</ele>
        <time>2012-10-11T07:51:29Z</time>
      </trkpt>
      <trkpt lat="44.05779" lon="3.98757">
        <ele>142.89</ele>
        <time>2012-10-11T07:51:44Z</time>
      </trkpt>
      <trkpt lat="44.05691" lon="3.98806">
        <ele>141.45</ele>
        <time>2012-10-11T07:52:00Z</time>
      </trkpt>
      <trkpt lat="44.05615" lon="3.98881">
        <ele>143.37</ele>
        <time>2012-10-11T07:52:16Z</time>
      </trkpt>
      <trkpt lat="44.05566" lon="3.98902">
        <ele>145.78</ele>
        <time>2012-10-11T07:52:41Z</time>
      </trkpt>
      <trkpt lat="44.05585" lon="3.98809">
        <ele>146.74</ele>
        <time>2012-10-11T07:53:10Z</time>
      </trkpt>
      <trkpt lat="44.05543" lon="3.98716">
        <ele>144.34</ele>
        <time>2012-10-11T07:53:38Z</time>
      </trkpt>
      <trkpt lat="44.05452" lon="3.98725">
        <ele>139.05</ele>
        <time>2012-10-11T07:53:52Z</time>
      </trkpt>
      <trkpt lat="44.05378" lon="3.98679">
        <ele>139.05</ele>
        <time>2012-10-11T07:54:13Z</time>
      </trkpt>
      <trkpt lat="44.05418" lon="3.98594">
        <ele>141.93</ele>
        <time>2012-10-11T07:55:02Z</time>
      </trkpt>
      <trkpt lat="44.05467" lon="3.98605">
        <ele>144.82</ele>
        <time>2012-10-11T08:11:45Z</time>
      </trkpt>
      <trkpt lat="44.0553" lon="3.98568">
        <ele>147.7</ele>
        <time>2012-10-11T08:13:57Z</time>
      </trkpt>
      <trkpt lat="44.05462" lon="3.98567">
        <ele>146.26</ele>
        <time>2012-10-11T08:15:54Z</time>
      </trkpt>
      <trkpt lat="44.05375" lon="3.98674">
        <ele>140.01</ele>
        <time>2012-10-11T08:18:13Z</time>
      </trkpt>
      <trkpt lat="44.05362" lon="3.98584">
        <ele>141.45</ele>
        <time>2012-10-11T08:18:50Z</time>
      </trkpt>
      <trkpt lat="44.05285" lon="3.9853">
        <ele>142.89</ele>
        <time>2012-10-11T08:19:26Z</time>
      </trkpt>
      <trkpt lat="44.05189" lon="3.98525">
        <ele>142.89</ele>
        <time>2012-10-11T08:19:48Z</time>
      </trkpt>
      <trkpt lat="44.05094" lon="3.98516">
        <ele>142.89</ele>
        <time>2012-10-11T08:20:08Z</time>
      </trkpt>
      <trkpt lat="44.04997" lon="3.98516">
        <ele>143.37</ele>
        <time>2012-10-11T08:20:28Z</time>
      </trkpt>
      <trkpt lat="44.04908" lon="3.98542">
        <ele>142.41</ele>
        <time>2012-10-11T08:20:47Z</time>
      </trkpt>
      <trkpt lat="44.04815" lon="3.98583">
        <ele>141.93</ele>
        <time>2012-10-11T08:21:04Z</time>
      </trkpt>
      <trkpt lat="44.04726" lon="3.98553">
        <ele>143.37</ele>
        <time>2012-10-11T08:21:22Z</time>
      </trkpt>
      <trkpt lat="44.04645" lon="3.98496">
        <ele>143.85</ele>
        <time>2012-10-11T08:21:40Z</time>
      </trkpt>
      <trkpt lat="44.04551" lon="3.9849">
        <ele>143.85</ele>
        <time>2012-10-11T08:21:58Z</time>
      </trkpt>
      <trkpt lat="44.04455" lon="3.98484">
        <ele>144.34</ele>
        <time>2012-10-11T08:22:15Z</time>
      </trkpt>
      <trkpt lat="44.04361" lon="3.98479">
        <ele>144.82</ele>
        <time>2012-10-11T08:22:32Z</time>
      </trkpt>
      <trkpt lat="44.0427" lon="3.98477">
        <ele>144.82</ele>
        <time>2012-10-11T08:22:49Z</time>
      </trkpt>
      <trkpt lat="44.04172" lon="3.98474">
        <ele>145.3</ele>
        <time>2012-10-11T08:23:07Z</time>
      </trkpt>
      <trkpt lat="44.04096" lon="3.98537">
        <ele>147.22</ele>
        <time>2012-10-11T08:23:27Z</time>
      </trkpt>
      <trkpt lat="44.04047" lon="3.98645">
        <ele>145.3</ele>
        <time>2012-10-11T08:23:43Z</time>
      </trkpt>
      <trkpt lat="44.03999" lon="3.98754">
        <ele>144.82</ele>
        <time>2012-10-11T08:23:58Z</time>
      </trkpt>
      <trkpt lat="44.03948" lon="3.98865">
        <ele>143.37</ele>
        <time>2012-10-11T08:24:13Z</time>
      </trkpt>
      <trkpt lat="44.03894" lon="3.98977">
        <ele>140.97</ele>
        <time>2012-10-11T08:24:28Z</time>
      </trkpt>
      <trkpt lat="44.03905" lon="3.99103">
        <ele>138.57</ele>
        <time>2012-10-11T08:24:41Z</time>
      </trkpt>
      <trkpt lat="44.0386" lon="3.99216">
        <ele>140.01</ele>
        <time>2012-10-11T08:24:57Z</time>
      </trkpt>
      <trkpt lat="44.03836" lon="3.99343">
        <ele>138.09</ele>
        <time>2012-10-11T08:25:12Z</time>
      </trkpt>
      <trkpt lat="44.0384" lon="3.99473">
        <ele>136.64</ele>
        <time>2012-10-11T08:25:26Z</time>
      </trkpt>
      <trkpt lat="44.0386" lon="3.996">
        <ele>135.68</ele>
        <time>2012-10-11T08:25:40Z</time>
      </trkpt>
      <trkpt lat="44.03872" lon="3.99711">
        <ele>135.2</ele>
        <time>2012-10-11T08:26:27Z</time>
      </trkpt>
      <trkpt lat="44.03847" lon="3.99826">
        <ele>134.72</ele>
        <time>2012-10-11T08:29:29Z</time>
      </trkpt>
      <trkpt lat="44.03844" lon="3.99958">
        <ele>133.76</ele>
        <time>2012-10-11T08:29:49Z</time>
      </trkpt>
      <trkpt lat="44.03795" lon="4.00046">
        <ele>137.13</ele>
        <time>2012-10-11T08:30:14Z</time>
      </trkpt>
      <trkpt lat="44.03707" lon="4.00101">
        <ele>135.2</ele>
        <time>2012-10-11T08:30:33Z</time>
      </trkpt>
      <trkpt lat="44.03662" lon="4.00214">
        <ele>133.76</ele>
        <time>2012-10-11T08:30:47Z</time>
      </trkpt>
      <trkpt lat="44.03601" lon="4.00307">
        <ele>134.24</ele>
        <time>2012-10-11T08:31:03Z</time>
      </trkpt>
      <trkpt lat="44.03509" lon="4.00328">
        <ele>135.2</ele>
        <time>2012-10-11T08:31:21Z</time>
      </trkpt>
      <trkpt lat="44.03416" lon="4.00321">
        <ele>136.16</ele>
        <time>2012-10-11T08:31:40Z</time>
      </trkpt>
      <trkpt lat="44.03323" lon="4.00302">
        <ele>136.64</ele>
        <time>2012-10-11T08:31:59Z</time>
      </trkpt>
      <trkpt lat="44.0324" lon="4.00259">
        <ele>137.13</ele>
        <time>2012-10-11T08:32:17Z</time>
      </trkpt>
      <trkpt lat="44.03174" lon="4.00173">
        <ele>140.01</ele>
        <time>2012-10-11T08:32:38Z</time>
      </trkpt>
      <trkpt lat="44.031" lon="4.00101">
        <ele>140.97</ele>
        <time>2012-10-11T08:32:59Z</time>
      </trkpt>
      <trkpt lat="44.03018" lon="4.00036">
        <ele>141.93</ele>
        <time>2012-10-11T08:33:19Z</time>
      </trkpt>
      <trkpt lat="44.02947" lon="3.99957">
        <ele>143.37</ele>
        <time>2012-10-11T08:33:38Z</time>
      </trkpt>
      <trkpt lat="44.02869" lon="3.99898">
        <ele>145.78</ele>
        <time>2012-10-11T08:33:59Z</time>
      </trkpt>
      <trkpt lat="44.02785" lon="3.99849">
        <ele>146.74</ele>
        <time>2012-10-11T08:34:19Z</time>
      </trkpt>
      <trkpt lat="44.02695" lon="3.99813">
        <ele>147.7</ele>
        <time>2012-10-11T08:34:39Z</time>
      </trkpt>
      <trkpt lat="44.02604" lon="3.99779">
        <ele>149.62</ele>
        <time>2012-10-11T08:35:00Z</time>
      </trkpt>
      <trkpt lat="44.02515" lon="3.99747">
        <ele>151.06</ele>
        <time>2012-10-11T08:35:19Z</time>
      </trkpt>
      <trkpt lat="44.02423" lon="3.9973">
        <ele>149.62</ele>
        <time>2012-10-11T08:35:36Z</time>
      </trkpt>
      <trkpt lat="44.02331" lon="3.99718">
        <ele>149.62</ele>
        <time>2012-10-11T08:35:52Z</time>
      </trkpt>
      <trkpt lat="44.02241" lon="3.99678">
        <ele>149.62</ele>
        <time>2012-10-11T08:36:10Z</time>
      </trkpt>
      <trkpt lat="44.02166" lon="3.99606">
        <ele>150.58</ele>
        <time>2012-10-11T08:36:28Z</time>
      </trkpt>
      <trkpt lat="44.02085" lon="3.99537">
        <ele>152.51</ele>
        <time>2012-10-11T08:36:48Z</time>
      </trkpt>
      <trkpt lat="44.01995" lon="3.99484">
        <ele>152.51</ele>
        <time>2012-10-11T08:37:07Z</time>
      </trkpt>
      <trkpt lat="44.01902" lon="3.99451">
        <ele>150.58</ele>
        <time>2012-10-11T08:37:23Z</time>
      </trkpt>
      <trkpt lat="44.01817" lon="3.99399">
        <ele>150.58</ele>
        <time>2012-10-11T08:37:38Z</time>
      </trkpt>
      <trkpt lat="44.01743" lon="3.99322">
        <ele>150.58</ele>
        <time>2012-10-11T08:37:54Z</time>
      </trkpt>
      <trkpt lat="44.01665" lon="3.99247">
        <ele>151.54</ele>
        <time>2012-10-11T08:38:12Z</time>
      </trkpt>
      <trkpt lat="44.01586" lon="3.99193">
        <ele>153.47</ele>
        <time>2012-10-11T08:38:31Z</time>
      </trkpt>
      <trkpt lat="44.01587" lon="3.993">
        <ele>155.87</ele>
        <time>2012-10-11T08:38:53Z</time>
      </trkpt>
      <trkpt lat="44.01589" lon="3.99408">
        <ele>161.16</ele>
        <time>2012-10-11T08:39:20Z</time>
      </trkpt>
      <trkpt lat="44.01496" lon="3.99411">
        <ele>166.45</ele>
        <time>2012-10-11T08:39:53Z</time>
      </trkpt>
      <trkpt lat="44.01406" lon="3.99363">
        <ele>169.81</ele>
        <time>2012-10-11T08:40:24Z</time>
      </trkpt>
      <trkpt lat="44.01314" lon="3.99355">
        <ele>173.66</ele>
        <time>2012-10-11T08:40:53Z</time>
      </trkpt>
      <trkpt lat="44.01228" lon="3.99316">
        <ele>178.46</ele>
        <time>2012-10-11T08:41:23Z</time>
      </trkpt>
      <trkpt lat="44.01157" lon="3.99232">
        <ele>183.75</ele>
        <time>2012-10-11T08:41:56Z</time>
      </trkpt>
      <trkpt lat="44.01125" lon="3.99114">
        <ele>188.08</ele>
        <time>2012-10-11T08:42:27Z</time>
      </trkpt>
      <trkpt lat="44.01104" lon="3.98994">
        <ele>190</ele>
        <time>2012-10-11T08:42:57Z</time>
      </trkpt>
      <trkpt lat="44.01056" lon="3.9888">
        <ele>188.08</ele>
        <time>2012-10-11T08:43:14Z</time>
      </trkpt>
      <trkpt lat="44.01028" lon="3.98757">
        <ele>186.63</ele>
        <time>2012-10-11T08:43:28Z</time>
      </trkpt>
      <trkpt lat="44.01029" lon="3.98629">
        <ele>185.19</ele>
        <time>2012-10-11T08:43:42Z</time>
      </trkpt>
      <trkpt lat="44.00992" lon="3.98513">
        <ele>182.31</ele>
        <time>2012-10-11T08:43:55Z</time>
      </trkpt>
      <trkpt lat="44.00914" lon="3.98445">
        <ele>181.35</ele>
        <time>2012-10-11T08:44:08Z</time>
      </trkpt>
      <trkpt lat="44.00826" lon="3.98393">
        <ele>180.38</ele>
        <time>2012-10-11T08:44:22Z</time>
      </trkpt>
      <trkpt lat="44.00736" lon="3.98348">
        <ele>178.94</ele>
        <time>2012-10-11T08:44:35Z</time>
      </trkpt>
      <trkpt lat="44.00648" lon="3.98303">
        <ele>179.9</ele>
        <time>2012-10-11T08:44:50Z</time>
      </trkpt>
      <trkpt lat="44.00563" lon="3.98249">
        <ele>178.46</ele>
        <time>2012-10-11T08:45:05Z</time>
      </trkpt>
      <trkpt lat="44.00494" lon="3.98161">
        <ele>178.46</ele>
        <time>2012-10-11T08:45:19Z</time>
      </trkpt>
      <trkpt lat="44.00422" lon="3.9808">
        <ele>178.94</ele>
        <time>2012-10-11T08:45:35Z</time>
      </trkpt>
      <trkpt lat="44.00336" lon="3.98023">
        <ele>179.9</ele>
        <time>2012-10-11T08:45:52Z</time>
      </trkpt>
      <trkpt lat="44.00257" lon="3.97963">
        <ele>178.94</ele>
        <time>2012-10-11T08:46:07Z</time>
      </trkpt>
      <trkpt lat="44.00187" lon="3.97883">
        <ele>176.06</ele>
        <time>2012-10-11T08:46:20Z</time>
      </trkpt>
      <trkpt lat="44.00113" lon="3.97798">
        <ele>174.14</ele>
        <time>2012-10-11T08:46:34Z</time>
      </trkpt>
      <trkpt lat="44.00043" lon="3.97717">
        <ele>173.17</ele>
        <time>2012-10-11T08:46:47Z</time>
      </trkpt>
      <trkpt lat="43.99975" lon="3.97624">
        <ele>171.25</ele>
        <time>2012-10-11T08:47:01Z</time>
      </trkpt>
      <trkpt lat="43.99906" lon="3.97546">
        <ele>172.21</ele>
        <time>2012-10-11T08:47:15Z</time>
      </trkpt>
      <trkpt lat="43.99828" lon="3.97483">
        <ele>176.06</ele>
        <time>2012-10-11T08:47:34Z</time>
      </trkpt>
      <trkpt lat="43.99748" lon="3.97415">
        <ele>180.38</ele>
        <time>2012-10-11T08:48:03Z</time>
      </trkpt>
      <trkpt lat="43.9968" lon="3.97328">
        <ele>178.94</ele>
        <time>2012-10-11T08:48:21Z</time>
      </trkpt>
      <trkpt lat="43.99619" lon="3.97226">
        <ele>174.62</ele>
        <time>2012-10-11T08:48:33Z</time>
      </trkpt>
      <trkpt lat="43.99558" lon="3.97127">
        <ele>171.73</ele>
        <time>2012-10-11T08:48:44Z</time>
      </trkpt>
      <trkpt lat="43.99495" lon="3.9703">
        <ele>166.93</ele>
        <time>2012-10-11T08:48:54Z</time>
      </trkpt>
      <trkpt lat="43.99442" lon="3.96928">
        <ele>163.08</ele>
        <time>2012-10-11T08:49:03Z</time>
      </trkpt>
      <trkpt lat="43.99389" lon="3.96821">
        <ele>162.12</ele>
        <time>2012-10-11T08:49:14Z</time>
      </trkpt>
      <trkpt lat="43.99347" lon="3.96705">
        <ele>164.04</ele>
        <time>2012-10-11T08:49:29Z</time>
      </trkpt>
      <trkpt lat="43.99328" lon="3.96579">
        <ele>166.93</ele>
        <time>2012-10-11T08:49:48Z</time>
      </trkpt>
      <trkpt lat="43.99308" lon="3.96456">
        <ele>168.85</ele>
        <time>2012-10-11T08:50:07Z</time>
      </trkpt>
      <trkpt lat="43.99289" lon="3.96329">
        <ele>169.81</ele>
        <time>2012-10-11T08:50:26Z</time>
      </trkpt>
      <trkpt lat="43.99263" lon="3.96207">
        <ele>169.33</ele>
        <time>2012-10-11T08:50:43Z</time>
      </trkpt>
      <trkpt lat="43.9923" lon="3.96083">
        <ele>167.41</ele>
        <time>2012-10-11T08:50:59Z</time>
      </trkpt>
      <trkpt lat="43.99179" lon="3.95994">
        <ele>165</ele>
        <time>2012-10-11T08:51:16Z</time>
      </trkpt>
      <trkpt lat="43.99122" lon="3.9589">
        <ele>166.93</ele>
        <time>2012-10-11T08:52:08Z</time>
      </trkpt>
      <trkpt lat="43.99071" lon="3.95779">
        <ele>170.77</ele>
        <time>2012-10-11T08:52:36Z</time>
      </trkpt>
      <trkpt lat="43.9902" lon="3.95673">
        <ele>175.58</ele>
        <time>2012-10-11T08:53:06Z</time>
      </trkpt>
      <trkpt lat="43.98972" lon="3.95566">
        <ele>177.98</ele>
        <time>2012-10-11T08:53:32Z</time>
      </trkpt>
      <trkpt lat="43.98933" lon="3.95442">
        <ele>180.38</ele>
        <time>2012-10-11T08:53:59Z</time>
      </trkpt>
      <trkpt lat="43.98919" lon="3.9531">
        <ele>181.83</ele>
        <time>2012-10-11T08:54:22Z</time>
      </trkpt>
      <trkpt lat="43.98907" lon="3.95181">
        <ele>182.79</ele>
        <time>2012-10-11T08:54:43Z</time>
      </trkpt>
      <trkpt lat="43.98892" lon="3.95052">
        <ele>182.79</ele>
        <time>2012-10-11T08:55:00Z</time>
      </trkpt>
      <trkpt lat="43.9888" lon="3.94921">
        <ele>183.27</ele>
        <time>2012-10-11T08:55:18Z</time>
      </trkpt>
      <trkpt lat="43.98877" lon="3.94791">
        <ele>184.71</ele>
        <time>2012-10-11T08:55:37Z</time>
      </trkpt>
      <trkpt lat="43.98865" lon="3.94666">
        <ele>187.59</ele>
        <time>2012-10-11T08:55:58Z</time>
      </trkpt>
      <trkpt lat="43.98846" lon="3.94543">
        <ele>190.48</ele>
        <time>2012-10-11T08:56:22Z</time>
      </trkpt>
      <trkpt lat="43.98821" lon="3.94421">
        <ele>192.88</ele>
        <time>2012-10-11T08:56:47Z</time>
      </trkpt>
      <trkpt lat="43.98793" lon="3.94299">
        <ele>194.32</ele>
        <time>2012-10-11T08:57:09Z</time>
      </trkpt>
      <trkpt lat="43.98763" lon="3.94179">
        <ele>197.69</ele>
        <time>2012-10-11T08:57:30Z</time>
      </trkpt>
      <trkpt lat="43.98734" lon="3.94058">
        <ele>202.98</ele>
        <time>2012-10-11T08:57:53Z</time>
      </trkpt>
      <trkpt lat="43.98698" lon="3.93943">
        <ele>205.38</ele>
        <time>2012-10-11T08:58:18Z</time>
      </trkpt>
      <trkpt lat="43.98645" lon="3.93835">
        <ele>204.9</ele>
        <time>2012-10-11T08:58:38Z</time>
      </trkpt>
      <trkpt lat="43.98594" lon="3.93725">
        <ele>203.94</ele>
        <time>2012-10-11T08:58:54Z</time>
      </trkpt>
      <trkpt lat="43.98537" lon="3.93625">
        <ele>201.53</ele>
        <time>2012-10-11T08:59:08Z</time>
      </trkpt>
      <trkpt lat="43.98466" lon="3.93536">
        <ele>200.57</ele>
        <time>2012-10-11T08:59:21Z</time>
      </trkpt>
      <trkpt lat="43.98403" lon="3.93446">
        <ele>200.09</ele>
        <time>2012-10-11T08:59:34Z</time>
      </trkpt>
      <trkpt lat="43.98354" lon="3.93341">
        <ele>198.17</ele>
        <time>2012-10-11T09:00:26Z</time>
      </trkpt>
      <trkpt lat="43.98305" lon="3.93228">
        <ele>198.17</ele>
        <time>2012-10-11T09:00:43Z</time>
      </trkpt>
      <trkpt lat="43.98246" lon="3.93123">
        <ele>200.57</ele>
        <time>2012-10-11T09:01:02Z</time>
      </trkpt>
      <trkpt lat="43.98167" lon="3.93052">
        <ele>202.01</ele>
        <time>2012-10-11T09:01:23Z</time>
      </trkpt>
      <trkpt lat="43.98091" lon="3.92975">
        <ele>198.65</ele>
        <time>2012-10-11T09:01:38Z</time>
      </trkpt>
      <trkpt lat="43.98023" lon="3.92892">
        <ele>194.32</ele>
        <time>2012-10-11T09:01:48Z</time>
      </trkpt>
      <trkpt lat="43.97951" lon="3.92806">
        <ele>190</ele>
        <time>2012-10-11T09:01:58Z</time>
      </trkpt>
      <trkpt lat="43.97877" lon="3.92716">
        <ele>186.63</ele>
        <time>2012-10-11T09:02:09Z</time>
      </trkpt>
      <trkpt lat="43.97809" lon="3.92633">
        <ele>183.75</ele>
        <time>2012-10-11T09:02:19Z</time>
      </trkpt>
      <trkpt lat="43.97735" lon="3.92549">
        <ele>181.35</ele>
        <time>2012-10-11T09:02:30Z</time>
      </trkpt>
      <trkpt lat="43.9765" lon="3.92494">
        <ele>180.38</ele>
        <time>2012-10-11T09:02:42Z</time>
      </trkpt>
      <trkpt lat="43.97559" lon="3.92465">
        <ele>180.87</ele>
        <time>2012-10-11T09:02:57Z</time>
      </trkpt>
      <trkpt lat="43.97466" lon="3.92465">
        <ele>182.79</ele>
        <time>2012-10-11T09:03:15Z</time>
      </trkpt>
      <trkpt lat="43.97374" lon="3.92486">
        <ele>183.27</ele>
        <time>2012-10-11T09:03:33Z</time>
      </trkpt>
      <trkpt lat="43.9728" lon="3.9249">
        <ele>183.27</ele>
        <time>2012-10-11T09:03:50Z</time>
      </trkpt>
      <trkpt lat="43.97187" lon="3.92465">
        <ele>183.27</ele>
        <time>2012-10-11T09:04:08Z</time>
      </trkpt>
      <trkpt lat="43.97098" lon="3.9244">
        <ele>183.75</ele>
        <time>2012-10-11T09:04:25Z</time>
      </trkpt>
      <trkpt lat="43.97009" lon="3.92411">
        <ele>180.87</ele>
        <time>2012-10-11T09:06:20Z</time>
      </trkpt>
      <trkpt lat="43.96928" lon="3.92355">
        <ele>178.94</ele>
        <time>2012-10-11T09:06:35Z</time>
      </trkpt>
      <trkpt lat="43.96866" lon="3.92265">
        <ele>178.94</ele>
        <time>2012-10-11T09:06:51Z</time>
      </trkpt>
      <trkpt lat="43.96802" lon="3.92171">
        <ele>179.42</ele>
        <time>2012-10-11T09:07:09Z</time>
      </trkpt>
      <trkpt lat="43.96738" lon="3.92076">
        <ele>180.87</ele>
        <time>2012-10-11T09:07:26Z</time>
      </trkpt>
      <trkpt lat="43.96673" lon="3.91979">
        <ele>180.38</ele>
        <time>2012-10-11T09:07:43Z</time>
      </trkpt>
      <trkpt lat="43.96612" lon="3.91873">
        <ele>178.94</ele>
        <time>2012-10-11T09:07:57Z</time>
      </trkpt>
      <trkpt lat="43.9656" lon="3.91767">
        <ele>176.06</ele>
        <time>2012-10-11T09:08:10Z</time>
      </trkpt>
      <trkpt lat="43.9651" lon="3.91661">
        <ele>177.5</ele>
        <time>2012-10-11T09:08:24Z</time>
      </trkpt>
      <trkpt lat="43.96458" lon="3.91558">
        <ele>178.94</ele>
        <time>2012-10-11T09:08:42Z</time>
      </trkpt>
      <trkpt lat="43.96407" lon="3.91452">
        <ele>180.38</ele>
        <time>2012-10-11T09:09:02Z</time>
      </trkpt>
      <trkpt lat="43.96354" lon="3.91346">
        <ele>182.79</ele>
        <time>2012-10-11T09:09:22Z</time>
      </trkpt>
      <trkpt lat="43.96303" lon="3.91239">
        <ele>185.19</ele>
        <time>2012-10-11T09:09:45Z</time>
      </trkpt>
      <trkpt lat="43.96243" lon="3.91143">
        <ele>188.56</ele>
        <time>2012-10-11T09:10:11Z</time>
      </trkpt>
      <trkpt lat="43.96183" lon="3.9105">
        <ele>189.52</ele>
        <time>2012-10-11T09:11:28Z</time>
      </trkpt>
      <trkpt lat="43.96119" lon="3.90952">
        <ele>189.52</ele>
        <time>2012-10-11T09:11:47Z</time>
      </trkpt>
      <trkpt lat="43.96062" lon="3.90852">
        <ele>189.04</ele>
        <time>2012-10-11T09:12:06Z</time>
      </trkpt>
      <trkpt lat="43.9603" lon="3.90734">
        <ele>189.52</ele>
        <time>2012-10-11T09:12:23Z</time>
      </trkpt>
      <trkpt lat="43.96017" lon="3.90605">
        <ele>189.04</ele>
        <time>2012-10-11T09:12:39Z</time>
      </trkpt>
      <trkpt lat="43.9602" lon="3.90476">
        <ele>188.56</ele>
        <time>2012-10-11T09:12:54Z</time>
      </trkpt>
      <trkpt lat="43.96058" lon="3.90354">
        <ele>188.56</ele>
        <time>2012-10-11T09:13:10Z</time>
      </trkpt>
      <trkpt lat="43.9607" lon="3.90232">
        <ele>190.48</ele>
        <time>2012-10-11T09:13:28Z</time>
      </trkpt>
      <trkpt lat="43.96063" lon="3.90106">
        <ele>193.36</ele>
        <time>2012-10-11T09:13:51Z</time>
      </trkpt>
      <trkpt lat="43.96055" lon="3.89979">
        <ele>196.25</ele>
        <time>2012-10-11T09:14:14Z</time>
      </trkpt>
      <trkpt lat="43.96077" lon="3.89855">
        <ele>198.65</ele>
        <time>2012-10-11T09:14:37Z</time>
      </trkpt>
      <trkpt lat="43.96138" lon="3.89759">
        <ele>201.53</ele>
        <time>2012-10-11T09:15:00Z</time>
      </trkpt>
      <trkpt lat="43.9619" lon="3.8965">
        <ele>203.94</ele>
        <time>2012-10-11T09:15:23Z</time>
      </trkpt>
      <trkpt lat="43.96238" lon="3.89535">
        <ele>202.98</ele>
        <time>2012-10-11T09:15:43Z</time>
      </trkpt>
      <trkpt lat="43.9626" lon="3.89411">
        <ele>200.09</ele>
        <time>2012-10-11T09:15:56Z</time>
      </trkpt>
      <trkpt lat="43.96237" lon="3.89291">
        <ele>196.25</ele>
        <time>2012-10-11T09:16:06Z</time>
      </trkpt>
      <trkpt lat="43.96233" lon="3.89155">
        <ele>190</ele>
        <time>2012-10-11T09:16:16Z</time>
      </trkpt>
      <trkpt lat="43.96234" lon="3.89027">
        <ele>182.31</ele>
        <time>2012-10-11T09:16:24Z</time>
      </trkpt>
      <trkpt lat="43.96233" lon="3.88896">
        <ele>177.02</ele>
        <time>2012-10-11T09:16:32Z</time>
      </trkpt>
      <trkpt lat="43.96205" lon="3.88771">
        <ele>173.17</ele>
        <time>2012-10-11T09:16:42Z</time>
      </trkpt>
      <trkpt lat="43.96154" lon="3.88653">
        <ele>166.93</ele>
        <time>2012-10-11T09:16:52Z</time>
      </trkpt>
      <trkpt lat="43.96125" lon="3.88529">
        <ele>163.56</ele>
        <time>2012-10-11T09:17:02Z</time>
      </trkpt>
      <trkpt lat="43.96098" lon="3.884">
        <ele>164.04</ele>
        <time>2012-10-11T09:17:14Z</time>
      </trkpt>
      <trkpt lat="43.96101" lon="3.88268">
        <ele>162.6</ele>
        <time>2012-10-11T09:17:27Z</time>
      </trkpt>
      <trkpt lat="43.9612" lon="3.88143">
        <ele>161.64</ele>
        <time>2012-10-11T09:17:40Z</time>
      </trkpt>
      <trkpt lat="43.96111" lon="3.88013">
        <ele>162.12</ele>
        <time>2012-10-11T09:17:55Z</time>
      </trkpt>
      <trkpt lat="43.96094" lon="3.87895">
        <ele>162.6</ele>
        <time>2012-10-11T09:18:14Z</time>
      </trkpt>
      <trkpt lat="43.96018" lon="3.87817">
        <ele>161.64</ele>
        <time>2012-10-11T09:18:30Z</time>
      </trkpt>
      <trkpt lat="43.95937" lon="3.87756">
        <ele>161.16</ele>
        <time>2012-10-11T09:18:45Z</time>
      </trkpt>
      <trkpt lat="43.95845" lon="3.87737">
        <ele>160.68</ele>
        <time>2012-10-11T09:19:00Z</time>
      </trkpt>
      <trkpt lat="43.95752" lon="3.87749">
        <ele>159.72</ele>
        <time>2012-10-11T09:19:16Z</time>
      </trkpt>
      <trkpt lat="43.9566" lon="3.87729">
        <ele>161.16</ele>
        <time>2012-10-11T09:19:33Z</time>
      </trkpt>
      <trkpt lat="43.95577" lon="3.87663">
        <ele>160.68</ele>
        <time>2012-10-11T09:19:50Z</time>
      </trkpt>
      <trkpt lat="43.95497" lon="3.87591">
        <ele>160.2</ele>
        <time>2012-10-11T09:20:06Z</time>
      </trkpt>
      <trkpt lat="43.95421" lon="3.87518">
        <ele>160.2</ele>
        <time>2012-10-11T09:20:23Z</time>
      </trkpt>
      <trkpt lat="43.95449" lon="3.87396">
        <ele>159.24</ele>
        <time>2012-10-11T09:20:41Z</time>
      </trkpt>
      <trkpt lat="43.95493" lon="3.87281">
        <ele>158.75</ele>
        <time>2012-10-11T09:20:56Z</time>
      </trkpt>
      <trkpt lat="43.95536" lon="3.87168">
        <ele>159.72</ele>
        <time>2012-10-11T09:21:12Z</time>
      </trkpt>
      <trkpt lat="43.95577" lon="3.87056">
        <ele>160.2</ele>
        <time>2012-10-11T09:21:28Z</time>
      </trkpt>
      <trkpt lat="43.95599" lon="3.86926">
        <ele>159.72</ele>
        <time>2012-10-11T09:21:45Z</time>
      </trkpt>
      <trkpt lat="43.9563" lon="3.86795">
        <ele>160.68</ele>
        <time>2012-10-11T09:22:02Z</time>
      </trkpt>
      <trkpt lat="43.95671" lon="3.86674">
        <ele>163.08</ele>
        <time>2012-10-11T09:22:21Z</time>
      </trkpt>
      <trkpt lat="43.95701" lon="3.86548">
        <ele>163.56</ele>
        <time>2012-10-11T09:22:41Z</time>
      </trkpt>
      <trkpt lat="43.95728" lon="3.86421">
        <ele>165</ele>
        <time>2012-10-11T09:23:00Z</time>
      </trkpt>
      <trkpt lat="43.95754" lon="3.86291">
        <ele>166.45</ele>
        <time>2012-10-11T09:23:18Z</time>
      </trkpt>
      <trkpt lat="43.9578" lon="3.86164">
        <ele>167.89</ele>
        <time>2012-10-11T09:23:36Z</time>
      </trkpt>
      <trkpt lat="43.95847" lon="3.86093">
        <ele>168.37</ele>
        <time>2012-10-11T09:23:54Z</time>
      </trkpt>
      <trkpt lat="43.95918" lon="3.8601">
        <ele>167.89</ele>
        <time>2012-10-11T09:24:10Z</time>
      </trkpt>
      <trkpt lat="43.95986" lon="3.85924">
        <ele>167.89</ele>
        <time>2012-10-11T09:24:26Z</time>
      </trkpt>
      <trkpt lat="43.96055" lon="3.85833">
        <ele>167.89</ele>
        <time>2012-10-11T09:24:42Z</time>
      </trkpt>
      <trkpt lat="43.96127" lon="3.85749">
        <ele>169.33</ele>
        <time>2012-10-11T09:24:58Z</time>
      </trkpt>
      <trkpt lat="43.96197" lon="3.85674">
        <ele>171.25</ele>
        <time>2012-10-11T09:25:18Z</time>
      </trkpt>
      <trkpt lat="43.96259" lon="3.85581">
        <ele>173.66</ele>
        <time>2012-10-11T09:25:41Z</time>
      </trkpt>
      <trkpt lat="43.96332" lon="3.85492">
        <ele>176.06</ele>
        <time>2012-10-11T09:26:05Z</time>
      </trkpt>
      <trkpt lat="43.96407" lon="3.85392">
        <ele>179.9</ele>
        <time>2012-10-11T09:26:33Z</time>
      </trkpt>
      <trkpt lat="43.96461" lon="3.85476">
        <ele>178.94</ele>
        <time>2012-10-11T09:27:01Z</time>
      </trkpt>
      <trkpt lat="43.96505" lon="3.85599">
        <ele>177.02</ele>
        <time>2012-10-11T09:27:30Z</time>
      </trkpt>
      <trkpt lat="43.96603" lon="3.85594">
        <ele>175.58</ele>
        <time>2012-10-11T09:28:03Z</time>
      </trkpt>
      <trkpt lat="43.96543" lon="3.85597">
        <ele>180.38</ele>
        <time>2012-10-11T09:40:16Z</time>
      </trkpt>
      <trkpt lat="43.96513" lon="3.85464">
        <ele>184.71</ele>
        <time>2012-10-11T09:41:27Z</time>
      </trkpt>
      <trkpt lat="43.96473" lon="3.8534">
        <ele>187.59</ele>
        <time>2012-10-11T09:42:53Z</time>
      </trkpt>
      <trkpt lat="43.96403" lon="3.85316">
        <ele>186.15</ele>
        <time>2012-10-11T09:43:17Z</time>
      </trkpt>
      <trkpt lat="43.96349" lon="3.85211">
        <ele>186.15</ele>
        <time>2012-10-11T09:43:37Z</time>
      </trkpt>
      <trkpt lat="43.96294" lon="3.85099">
        <ele>186.15</ele>
        <time>2012-10-11T09:43:56Z</time>
      </trkpt>
      <trkpt lat="43.9624" lon="3.84991">
        <ele>185.67</ele>
        <time>2012-10-11T09:44:14Z</time>
      </trkpt>
      <trkpt lat="43.96194" lon="3.84881">
        <ele>186.63</ele>
        <time>2012-10-11T09:44:32Z</time>
      </trkpt>
      <trkpt lat="43.96131" lon="3.84792">
        <ele>187.59</ele>
        <time>2012-10-11T09:44:51Z</time>
      </trkpt>
      <trkpt lat="43.96058" lon="3.84705">
        <ele>187.11</ele>
        <time>2012-10-11T09:45:09Z</time>
      </trkpt>
      <trkpt lat="43.95992" lon="3.84617">
        <ele>188.08</ele>
        <time>2012-10-11T09:45:25Z</time>
      </trkpt>
      <trkpt lat="43.95954" lon="3.84504">
        <ele>189.04</ele>
        <time>2012-10-11T09:45:43Z</time>
      </trkpt>
      <trkpt lat="43.95918" lon="3.84384">
        <ele>190.96</ele>
        <time>2012-10-11T09:46:04Z</time>
      </trkpt>
      <trkpt lat="43.95895" lon="3.84265">
        <ele>192.4</ele>
        <time>2012-10-11T09:46:24Z</time>
      </trkpt>
      <trkpt lat="43.95881" lon="3.84137">
        <ele>193.36</ele>
        <time>2012-10-11T09:46:44Z</time>
      </trkpt>
      <trkpt lat="43.95868" lon="3.8401">
        <ele>195.77</ele>
        <time>2012-10-11T09:47:05Z</time>
      </trkpt>
      <trkpt lat="43.95856" lon="3.83883">
        <ele>197.69</ele>
        <time>2012-10-11T09:47:26Z</time>
      </trkpt>
      <trkpt lat="43.95845" lon="3.83759">
        <ele>199.13</ele>
        <time>2012-10-11T09:47:46Z</time>
      </trkpt>
      <trkpt lat="43.95832" lon="3.83632">
        <ele>200.57</ele>
        <time>2012-10-11T09:48:06Z</time>
      </trkpt>
      <trkpt lat="43.95819" lon="3.83504">
        <ele>201.05</ele>
        <time>2012-10-11T09:48:25Z</time>
      </trkpt>
      <trkpt lat="43.95823" lon="3.83376">
        <ele>202.01</ele>
        <time>2012-10-11T09:48:43Z</time>
      </trkpt>
      <trkpt lat="43.95839" lon="3.83248">
        <ele>202.49</ele>
        <time>2012-10-11T09:49:01Z</time>
      </trkpt>
      <trkpt lat="43.95887" lon="3.83135">
        <ele>202.98</ele>
        <time>2012-10-11T09:49:19Z</time>
      </trkpt>
      <trkpt lat="43.95905" lon="3.83011">
        <ele>204.9</ele>
        <time>2012-10-11T09:49:37Z</time>
      </trkpt>
      <trkpt lat="43.95893" lon="3.82885">
        <ele>207.3</ele>
        <time>2012-10-11T09:49:57Z</time>
      </trkpt>
      <trkpt lat="43.9588" lon="3.8276">
        <ele>211.63</ele>
        <time>2012-10-11T09:50:22Z</time>
      </trkpt>
      <trkpt lat="43.95855" lon="3.82642">
        <ele>214.51</ele>
        <time>2012-10-11T09:50:47Z</time>
      </trkpt>
      <trkpt lat="43.95826" lon="3.82521">
        <ele>216.91</ele>
        <time>2012-10-11T09:51:12Z</time>
      </trkpt>
      <trkpt lat="43.95797" lon="3.82401">
        <ele>218.36</ele>
        <time>2012-10-11T09:51:35Z</time>
      </trkpt>
      <trkpt lat="43.95768" lon="3.82282">
        <ele>220.28</ele>
        <time>2012-10-11T09:51:57Z</time>
      </trkpt>
      <trkpt lat="43.95739" lon="3.82161">
        <ele>222.68</ele>
        <time>2012-10-11T09:52:20Z</time>
      </trkpt>
      <trkpt lat="43.95709" lon="3.82042">
        <ele>225.09</ele>
        <time>2012-10-11T09:52:42Z</time>
      </trkpt>
      <trkpt lat="43.9568" lon="3.81924">
        <ele>227.49</ele>
        <time>2012-10-11T09:53:04Z</time>
      </trkpt>
      <trkpt lat="43.95652" lon="3.81801">
        <ele>228.93</ele>
        <time>2012-10-11T09:53:26Z</time>
      </trkpt>
      <trkpt lat="43.95625" lon="3.81674">
        <ele>230.85</ele>
        <time>2012-10-11T09:53:48Z</time>
      </trkpt>
      <trkpt lat="43.95598" lon="3.8155">
        <ele>231.81</ele>
        <time>2012-10-11T09:54:08Z</time>
      </trkpt>
      <trkpt lat="43.95572" lon="3.81424">
        <ele>233.74</ele>
        <time>2012-10-11T09:54:25Z</time>
      </trkpt>
      <trkpt lat="43.95545" lon="3.81303">
        <ele>236.14</ele>
        <time>2012-10-11T09:54:43Z</time>
      </trkpt>
      <trkpt lat="43.95519" lon="3.8118">
        <ele>239.02</ele>
        <time>2012-10-11T09:55:04Z</time>
      </trkpt>
      <trkpt lat="43.95497" lon="3.8107">
        <ele>239.99</ele>
        <time>2012-10-11T09:56:06Z</time>
      </trkpt>
      <trkpt lat="43.95473" lon="3.80945">
        <ele>241.43</ele>
        <time>2012-10-11T09:56:35Z</time>
      </trkpt>
      <trkpt lat="43.95443" lon="3.80823">
        <ele>239.99</ele>
        <time>2012-10-11T09:59:18Z</time>
      </trkpt>
      <trkpt lat="43.95412" lon="3.80704">
        <ele>238.54</ele>
        <time>2012-10-11T09:59:41Z</time>
      </trkpt>
      <trkpt lat="43.95383" lon="3.80584">
        <ele>236.14</ele>
        <time>2012-10-11T09:59:57Z</time>
      </trkpt>
      <trkpt lat="43.95353" lon="3.80458">
        <ele>233.26</ele>
        <time>2012-10-11T10:00:33Z</time>
      </trkpt>
      <trkpt lat="43.95324" lon="3.80339">
        <ele>229.41</ele>
        <time>2012-10-11T10:00:45Z</time>
      </trkpt>
      <trkpt lat="43.95295" lon="3.80218">
        <ele>226.53</ele>
        <time>2012-10-11T10:00:57Z</time>
      </trkpt>
      <trkpt lat="43.95266" lon="3.80099">
        <ele>225.57</ele>
        <time>2012-10-11T10:01:10Z</time>
      </trkpt>
      <trkpt lat="43.95237" lon="3.79979">
        <ele>225.09</ele>
        <time>2012-10-11T10:01:24Z</time>
      </trkpt>
      <trkpt lat="43.95209" lon="3.79858">
        <ele>221.72</ele>
        <time>2012-10-11T10:01:37Z</time>
      </trkpt>
      <trkpt lat="43.9518" lon="3.79734">
        <ele>219.8</ele>
        <time>2012-10-11T10:01:50Z</time>
      </trkpt>
      <trkpt lat="43.95151" lon="3.79612">
        <ele>218.84</ele>
        <time>2012-10-11T10:02:03Z</time>
      </trkpt>
      <trkpt lat="43.95121" lon="3.79487">
        <ele>218.84</ele>
        <time>2012-10-11T10:02:18Z</time>
      </trkpt>
      <trkpt lat="43.95093" lon="3.79367">
        <ele>219.32</ele>
        <time>2012-10-11T10:02:34Z</time>
      </trkpt>
      <trkpt lat="43.95064" lon="3.79245">
        <ele>219.8</ele>
        <time>2012-10-11T10:02:50Z</time>
      </trkpt>
      <trkpt lat="43.95034" lon="3.79121">
        <ele>221.24</ele>
        <time>2012-10-11T10:03:09Z</time>
      </trkpt>
      <trkpt lat="43.95013" lon="3.79001">
        <ele>219.32</ele>
        <time>2012-10-11T10:03:24Z</time>
      </trkpt>
      <trkpt lat="43.95001" lon="3.78876">
        <ele>217.4</ele>
        <time>2012-10-11T10:03:37Z</time>
      </trkpt>
      <trkpt lat="43.94992" lon="3.78746">
        <ele>216.43</ele>
        <time>2012-10-11T10:03:51Z</time>
      </trkpt>
      <trkpt lat="43.94981" lon="3.78618">
        <ele>215.95</ele>
        <time>2012-10-11T10:04:06Z</time>
      </trkpt>
      <trkpt lat="43.9497" lon="3.78489">
        <ele>216.43</ele>
        <time>2012-10-11T10:04:23Z</time>
      </trkpt>
      <trkpt lat="43.94959" lon="3.78362">
        <ele>217.4</ele>
        <time>2012-10-11T10:04:41Z</time>
      </trkpt>
      <trkpt lat="43.94947" lon="3.78233">
        <ele>218.36</ele>
        <time>2012-10-11T10:04:59Z</time>
      </trkpt>
      <trkpt lat="43.94936" lon="3.78103">
        <ele>219.32</ele>
        <time>2012-10-11T10:05:17Z</time>
      </trkpt>
      <trkpt lat="43.94925" lon="3.77972">
        <ele>220.28</ele>
        <time>2012-10-11T10:05:38Z</time>
      </trkpt>
      <trkpt lat="43.94914" lon="3.77846">
        <ele>218.36</ele>
        <time>2012-10-11T10:05:54Z</time>
      </trkpt>
      <trkpt lat="43.94902" lon="3.77714">
        <ele>217.88</ele>
        <time>2012-10-11T10:06:09Z</time>
      </trkpt>
      <trkpt lat="43.9489" lon="3.77584">
        <ele>220.28</ele>
        <time>2012-10-11T10:06:26Z</time>
      </trkpt>
      <trkpt lat="43.94877" lon="3.77456">
        <ele>222.68</ele>
        <time>2012-10-11T10:06:46Z</time>
      </trkpt>
      <trkpt lat="43.94866" lon="3.77332">
        <ele>222.68</ele>
        <time>2012-10-11T10:07:03Z</time>
      </trkpt>
      <trkpt lat="43.94855" lon="3.77204">
        <ele>221.72</ele>
        <time>2012-10-11T10:07:19Z</time>
      </trkpt>
      <trkpt lat="43.94844" lon="3.77078">
        <ele>220.76</ele>
        <time>2012-10-11T10:07:34Z</time>
      </trkpt>
      <trkpt lat="43.94831" lon="3.76946">
        <ele>220.28</ele>
        <time>2012-10-11T10:07:49Z</time>
      </trkpt>
      <trkpt lat="43.94819" lon="3.76815">
        <ele>220.76</ele>
        <time>2012-10-11T10:08:05Z</time>
      </trkpt>
      <trkpt lat="43.94807" lon="3.76689">
        <ele>221.24</ele>
        <time>2012-10-11T10:08:22Z</time>
      </trkpt>
      <trkpt lat="43.94795" lon="3.76561">
        <ele>222.2</ele>
        <time>2012-10-11T10:08:39Z</time>
      </trkpt>
      <trkpt lat="43.94784" lon="3.76433">
        <ele>226.05</ele>
        <time>2012-10-11T10:09:01Z</time>
      </trkpt>
      <trkpt lat="43.94771" lon="3.76307">
        <ele>229.41</ele>
        <time>2012-10-11T10:09:24Z</time>
      </trkpt>
      <trkpt lat="43.94762" lon="3.76182">
        <ele>230.85</ele>
        <time>2012-10-11T10:09:48Z</time>
      </trkpt>
      <trkpt lat="43.94722" lon="3.76065">
        <ele>231.81</ele>
        <time>2012-10-11T10:10:06Z</time>
      </trkpt>
      <trkpt lat="43.94671" lon="3.75953">
        <ele>237.58</ele>
        <time>2012-10-11T10:10:30Z</time>
      </trkpt>
      <trkpt lat="43.94636" lon="3.75832">
        <ele>235.18</ele>
        <time>2012-10-11T10:10:50Z</time>
      </trkpt>
      <trkpt lat="43.94636" lon="3.75702">
        <ele>229.41</ele>
        <time>2012-10-11T10:11:01Z</time>
      </trkpt>
      <trkpt lat="43.94639" lon="3.75571">
        <ele>224.61</ele>
        <time>2012-10-11T10:11:11Z</time>
      </trkpt>
      <trkpt lat="43.94642" lon="3.75442">
        <ele>220.76</ele>
        <time>2012-10-11T10:11:20Z</time>
      </trkpt>
      <trkpt lat="43.94642" lon="3.75306">
        <ele>217.4</ele>
        <time>2012-10-11T10:11:30Z</time>
      </trkpt>
      <trkpt lat="43.94643" lon="3.75171">
        <ele>214.51</ele>
        <time>2012-10-11T10:11:41Z</time>
      </trkpt>
      <trkpt lat="43.94644" lon="3.75044">
        <ele>214.03</ele>
        <time>2012-10-11T10:11:53Z</time>
      </trkpt>
      <trkpt lat="43.94645" lon="3.74917">
        <ele>215.95</ele>
        <time>2012-10-11T10:12:09Z</time>
      </trkpt>
      <trkpt lat="43.94645" lon="3.74788">
        <ele>216.91</ele>
        <time>2012-10-11T10:12:27Z</time>
      </trkpt>
      <trkpt lat="43.94648" lon="3.74662">
        <ele>216.91</ele>
        <time>2012-10-11T10:12:44Z</time>
      </trkpt>
      <trkpt lat="43.94649" lon="3.74528">
        <ele>214.03</ele>
        <time>2012-10-11T10:12:58Z</time>
      </trkpt>
      <trkpt lat="43.94651" lon="3.74399">
        <ele>213.07</ele>
        <time>2012-10-11T10:13:12Z</time>
      </trkpt>
      <trkpt lat="43.94651" lon="3.74272">
        <ele>213.55</ele>
        <time>2012-10-11T10:13:28Z</time>
      </trkpt>
      <trkpt lat="43.9464" lon="3.74146">
        <ele>211.63</ele>
        <time>2012-10-11T10:13:43Z</time>
      </trkpt>
      <trkpt lat="43.94612" lon="3.74024">
        <ele>207.78</ele>
        <time>2012-10-11T10:13:55Z</time>
      </trkpt>
      <trkpt lat="43.94584" lon="3.73897">
        <ele>202.98</ele>
        <time>2012-10-11T10:14:05Z</time>
      </trkpt>
      <trkpt lat="43.94559" lon="3.73777">
        <ele>198.65</ele>
        <time>2012-10-11T10:14:15Z</time>
      </trkpt>
      <trkpt lat="43.94532" lon="3.73654">
        <ele>194.8</ele>
        <time>2012-10-11T10:14:26Z</time>
      </trkpt>
      <trkpt lat="43.9451" lon="3.73531">
        <ele>191.92</ele>
        <time>2012-10-11T10:14:37Z</time>
      </trkpt>
      <trkpt lat="43.94483" lon="3.73407">
        <ele>190</ele>
        <time>2012-10-11T10:14:50Z</time>
      </trkpt>
      <trkpt lat="43.94585" lon="3.73898">
        <ele>199.61</ele>
        <time>2012-10-11T10:17:06Z</time>
      </trkpt>
      <trkpt lat="43.94344" lon="3.72669">
        <ele>183.27</ele>
        <time>2012-10-11T10:18:11Z</time>
      </trkpt>
      <trkpt lat="43.94353" lon="3.72542">
        <ele>184.23</ele>
        <time>2012-10-11T10:18:31Z</time>
      </trkpt>
      <trkpt lat="43.9437" lon="3.72418">
        <ele>183.75</ele>
        <time>2012-10-11T10:18:48Z</time>
      </trkpt>
      <trkpt lat="43.94386" lon="3.72294">
        <ele>182.31</ele>
        <time>2012-10-11T10:19:03Z</time>
      </trkpt>
      <trkpt lat="43.94403" lon="3.72165">
        <ele>183.75</ele>
        <time>2012-10-11T10:19:20Z</time>
      </trkpt>
      <trkpt lat="43.94421" lon="3.72036">
        <ele>187.59</ele>
        <time>2012-10-11T10:19:43Z</time>
      </trkpt>
      <trkpt lat="43.94437" lon="3.7191">
        <ele>190.96</ele>
        <time>2012-10-11T10:20:09Z</time>
      </trkpt>
      <trkpt lat="43.94417" lon="3.7179">
        <ele>194.32</ele>
        <time>2012-10-11T10:20:34Z</time>
      </trkpt>
      <trkpt lat="43.94432" lon="3.71675">
        <ele>192.88</ele>
        <time>2012-10-11T10:20:55Z</time>
      </trkpt>
      <trkpt lat="43.94354" lon="3.71625">
        <ele>191.92</ele>
        <time>2012-10-11T10:21:12Z</time>
      </trkpt>
      <trkpt lat="43.94328" lon="3.71507">
        <ele>189.52</ele>
        <time>2012-10-11T10:21:26Z</time>
      </trkpt>
      <trkpt lat="43.9433" lon="3.71376">
        <ele>185.67</ele>
        <time>2012-10-11T10:21:40Z</time>
      </trkpt>
      <trkpt lat="43.94256" lon="3.71317">
        <ele>182.79</ele>
        <time>2012-10-11T10:21:53Z</time>
      </trkpt>
      <trkpt lat="43.94164" lon="3.71337">
        <ele>179.9</ele>
        <time>2012-10-11T10:22:05Z</time>
      </trkpt>
      <trkpt lat="43.94071" lon="3.71329">
        <ele>176.54</ele>
        <time>2012-10-11T10:22:18Z</time>
      </trkpt>
      <trkpt lat="43.93986" lon="3.71353">
        <ele>174.14</ele>
        <time>2012-10-11T10:22:30Z</time>
      </trkpt>
      <trkpt lat="43.93904" lon="3.71417">
        <ele>170.77</ele>
        <time>2012-10-11T10:22:43Z</time>
      </trkpt>
      <trkpt lat="43.93823" lon="3.71367">
        <ele>167.41</ele>
        <time>2012-10-11T10:22:55Z</time>
      </trkpt>
      <trkpt lat="43.93752" lon="3.7128">
        <ele>163.56</ele>
        <time>2012-10-11T10:23:07Z</time>
      </trkpt>
      <trkpt lat="43.9369" lon="3.71186">
        <ele>163.08</ele>
        <time>2012-10-11T10:23:19Z</time>
      </trkpt>
      <trkpt lat="43.93634" lon="3.71091">
        <ele>162.6</ele>
        <time>2012-10-11T10:23:37Z</time>
      </trkpt>
      <trkpt lat="43.93624" lon="3.7096">
        <ele>165.96</ele>
        <time>2012-10-11T10:24:09Z</time>
      </trkpt>
      <trkpt lat="43.93558" lon="3.70863">
        <ele>167.89</ele>
        <time>2012-10-11T10:24:39Z</time>
      </trkpt>
      <trkpt lat="43.93477" lon="3.70806">
        <ele>165.48</ele>
        <time>2012-10-11T10:25:09Z</time>
      </trkpt>
      <trkpt lat="43.93432" lon="3.70723">
        <ele>165.48</ele>
        <time>2012-10-11T10:25:52Z</time>
      </trkpt>
      <trkpt lat="43.93355" lon="3.70646">
        <ele>164.04</ele>
        <time>2012-10-11T10:26:27Z</time>
      </trkpt>
      <trkpt lat="43.93304" lon="3.70539">
        <ele>163.56</ele>
        <time>2012-10-11T10:26:50Z</time>
      </trkpt>
      <trkpt lat="43.93214" lon="3.70505">
        <ele>162.12</ele>
        <time>2012-10-11T10:27:10Z</time>
      </trkpt>
      <trkpt lat="43.93153" lon="3.7042">
        <ele>159.72</ele>
        <time>2012-10-11T10:27:32Z</time>
      </trkpt>
      <trkpt lat="43.93093" lon="3.70322">
        <ele>158.27</ele>
        <time>2012-10-11T10:27:51Z</time>
      </trkpt>
      <trkpt lat="43.93056" lon="3.70231">
        <ele>157.79</ele>
        <time>2012-10-11T10:28:47Z</time>
      </trkpt>
      <trkpt lat="43.93133" lon="3.7016">
        <ele>155.39</ele>
        <time>2012-10-11T10:29:02Z</time>
      </trkpt>
      <trkpt lat="43.93197" lon="3.7006">
        <ele>155.87</ele>
        <time>2012-10-11T10:29:21Z</time>
      </trkpt>
      <trkpt lat="43.93265" lon="3.69974">
        <ele>156.83</ele>
        <time>2012-10-11T10:29:40Z</time>
      </trkpt>
      <trkpt lat="43.93346" lon="3.69908">
        <ele>156.83</ele>
        <time>2012-10-11T10:29:58Z</time>
      </trkpt>
      <trkpt lat="43.93413" lon="3.69821">
        <ele>155.39</ele>
        <time>2012-10-11T10:30:14Z</time>
      </trkpt>
      <trkpt lat="43.93484" lon="3.69738">
        <ele>155.39</ele>
        <time>2012-10-11T10:30:30Z</time>
      </trkpt>
      <trkpt lat="43.93553" lon="3.69653">
        <ele>155.87</ele>
        <time>2012-10-11T10:30:46Z</time>
      </trkpt>
      <trkpt lat="43.93617" lon="3.69561">
        <ele>156.83</ele>
        <time>2012-10-11T10:31:02Z</time>
      </trkpt>
      <trkpt lat="43.93683" lon="3.69472">
        <ele>158.75</ele>
        <time>2012-10-11T10:31:20Z</time>
      </trkpt>
      <trkpt lat="43.93736" lon="3.69364">
        <ele>162.12</ele>
        <time>2012-10-11T10:31:44Z</time>
      </trkpt>
      <trkpt lat="43.93751" lon="3.69233">
        <ele>161.16</ele>
        <time>2012-10-11T10:32:03Z</time>
      </trkpt>
      <trkpt lat="43.93768" lon="3.69109">
        <ele>162.12</ele>
        <time>2012-10-11T10:32:22Z</time>
      </trkpt>
      <trkpt lat="43.93809" lon="3.68996">
        <ele>161.16</ele>
        <time>2012-10-11T10:32:39Z</time>
      </trkpt>
      <trkpt lat="43.93888" lon="3.68933">
        <ele>161.16</ele>
        <time>2012-10-11T10:33:00Z</time>
      </trkpt>
      <trkpt lat="43.93914" lon="3.68827">
        <ele>161.64</ele>
        <time>2012-10-11T10:38:42Z</time>
      </trkpt>
      <trkpt lat="43.9389" lon="3.68692">
        <ele>162.12</ele>
        <time>2012-10-11T10:39:09Z</time>
      </trkpt>
      <trkpt lat="43.93895" lon="3.6856">
        <ele>164.04</ele>
        <time>2012-10-11T10:40:35Z</time>
      </trkpt>
      <trkpt lat="43.93948" lon="3.68451">
        <ele>167.41</ele>
        <time>2012-10-11T10:41:02Z</time>
      </trkpt>
      <trkpt lat="43.94006" lon="3.68345">
        <ele>168.85</ele>
        <time>2012-10-11T10:41:30Z</time>
      </trkpt>
      <trkpt lat="43.93965" lon="3.68226">
        <ele>165</ele>
        <time>2012-10-11T10:41:44Z</time>
      </trkpt>
      <trkpt lat="43.93926" lon="3.68107">
        <ele>164.52</ele>
        <time>2012-10-11T10:41:58Z</time>
      </trkpt>
      <trkpt lat="43.93877" lon="3.68">
        <ele>165</ele>
        <time>2012-10-11T10:42:15Z</time>
      </trkpt>
      <trkpt lat="43.9383" lon="3.6789">
        <ele>167.41</ele>
        <time>2012-10-11T10:42:34Z</time>
      </trkpt>
      <trkpt lat="43.93798" lon="3.67769">
        <ele>167.41</ele>
        <time>2012-10-11T10:42:51Z</time>
      </trkpt>
      <trkpt lat="43.93766" lon="3.67646">
        <ele>171.73</ele>
        <time>2012-10-11T10:43:16Z</time>
      </trkpt>
      <trkpt lat="43.93731" lon="3.67523">
        <ele>176.54</ele>
        <time>2012-10-11T10:43:45Z</time>
      </trkpt>
      <trkpt lat="43.93688" lon="3.67404">
        <ele>176.54</ele>
        <time>2012-10-11T10:44:09Z</time>
      </trkpt>
      <trkpt lat="43.93626" lon="3.67302">
        <ele>176.54</ele>
        <time>2012-10-11T10:44:27Z</time>
      </trkpt>
      <trkpt lat="43.93555" lon="3.6722">
        <ele>177.02</ele>
        <time>2012-10-11T10:44:45Z</time>
      </trkpt>
      <trkpt lat="43.93481" lon="3.67137">
        <ele>177.02</ele>
        <time>2012-10-11T10:45:05Z</time>
      </trkpt>
      <trkpt lat="43.93413" lon="3.67043">
        <ele>177.02</ele>
        <time>2012-10-11T10:45:22Z</time>
      </trkpt>
      <trkpt lat="43.93347" lon="3.66954">
        <ele>177.02</ele>
        <time>2012-10-11T10:45:39Z</time>
      </trkpt>
      <trkpt lat="43.93283" lon="3.66865">
        <ele>178.46</ele>
        <time>2012-10-11T10:45:57Z</time>
      </trkpt>
      <trkpt lat="43.93205" lon="3.66794">
        <ele>180.38</ele>
        <time>2012-10-11T10:46:16Z</time>
      </trkpt>
      <trkpt lat="43.93117" lon="3.66741">
        <ele>179.42</ele>
        <time>2012-10-11T10:46:33Z</time>
      </trkpt>
      <trkpt lat="43.93036" lon="3.66676">
        <ele>179.42</ele>
        <time>2012-10-11T10:46:48Z</time>
      </trkpt>
      <trkpt lat="43.92957" lon="3.66611">
        <ele>179.9</ele>
        <time>2012-10-11T10:47:04Z</time>
      </trkpt>
      <trkpt lat="43.92864" lon="3.66602">
        <ele>181.35</ele>
        <time>2012-10-11T10:48:12Z</time>
      </trkpt>
      <trkpt lat="43.92771" lon="3.66617">
        <ele>180.87</ele>
        <time>2012-10-11T10:48:33Z</time>
      </trkpt>
      <trkpt lat="43.92676" lon="3.66619">
        <ele>179.9</ele>
        <time>2012-10-11T10:48:50Z</time>
      </trkpt>
      <trkpt lat="43.92599" lon="3.66556">
        <ele>179.42</ele>
        <time>2012-10-11T10:49:06Z</time>
      </trkpt>
      <trkpt lat="43.92536" lon="3.66458">
        <ele>179.42</ele>
        <time>2012-10-11T10:49:22Z</time>
      </trkpt>
      <trkpt lat="43.92486" lon="3.66348">
        <ele>181.83</ele>
        <time>2012-10-11T10:49:42Z</time>
      </trkpt>
      <trkpt lat="43.9241" lon="3.66268">
        <ele>182.79</ele>
        <time>2012-10-11T10:50:03Z</time>
      </trkpt>
      <trkpt lat="43.92332" lon="3.66191">
        <ele>182.79</ele>
        <time>2012-10-11T10:50:22Z</time>
      </trkpt>
      <trkpt lat="43.92245" lon="3.66138">
        <ele>182.79</ele>
        <time>2012-10-11T10:50:39Z</time>
      </trkpt>
      <trkpt lat="43.92159" lon="3.66091">
        <ele>183.75</ele>
        <time>2012-10-11T10:50:55Z</time>
      </trkpt>
      <trkpt lat="43.92065" lon="3.66065">
        <ele>185.67</ele>
        <time>2012-10-11T10:51:15Z</time>
      </trkpt>
      <trkpt lat="43.91973" lon="3.66023">
        <ele>187.11</ele>
        <time>2012-10-11T10:51:37Z</time>
      </trkpt>
      <trkpt lat="43.91886" lon="3.65978">
        <ele>188.08</ele>
        <time>2012-10-11T10:52:00Z</time>
      </trkpt>
      <trkpt lat="43.91799" lon="3.65928">
        <ele>190</ele>
        <time>2012-10-11T10:52:22Z</time>
      </trkpt>
      <trkpt lat="43.91717" lon="3.6587">
        <ele>192.4</ele>
        <time>2012-10-11T10:52:43Z</time>
      </trkpt>
      <trkpt lat="43.91622" lon="3.6585">
        <ele>192.88</ele>
        <time>2012-10-11T10:53:02Z</time>
      </trkpt>
      <trkpt lat="43.91532" lon="3.65817">
        <ele>194.32</ele>
        <time>2012-10-11T10:53:21Z</time>
      </trkpt>
      <trkpt lat="43.91447" lon="3.65772">
        <ele>193.36</ele>
        <time>2012-10-11T10:53:38Z</time>
      </trkpt>
      <trkpt lat="43.91361" lon="3.65708">
        <ele>191.44</ele>
        <time>2012-10-11T10:53:55Z</time>
      </trkpt>
      <trkpt lat="43.91284" lon="3.6564">
        <ele>188.56</ele>
        <time>2012-10-11T10:54:07Z</time>
      </trkpt>
      <trkpt lat="43.91191" lon="3.65619">
        <ele>188.08</ele>
        <time>2012-10-11T10:54:20Z</time>
      </trkpt>
      <trkpt lat="43.91095" lon="3.65606">
        <ele>191.44</ele>
        <time>2012-10-11T10:54:38Z</time>
      </trkpt>
      <trkpt lat="43.91002" lon="3.65555">
        <ele>190</ele>
        <time>2012-10-11T10:54:55Z</time>
      </trkpt>
      <trkpt lat="43.90906" lon="3.65547">
        <ele>190.48</ele>
        <time>2012-10-11T10:55:12Z</time>
      </trkpt>
      <trkpt lat="43.9081" lon="3.65546">
        <ele>189.04</ele>
        <time>2012-10-11T10:55:29Z</time>
      </trkpt>
      <trkpt lat="43.90717" lon="3.65543">
        <ele>188.08</ele>
        <time>2012-10-11T10:55:45Z</time>
      </trkpt>
      <trkpt lat="43.9063" lon="3.65589">
        <ele>188.56</ele>
        <time>2012-10-11T10:56:01Z</time>
      </trkpt>
      <trkpt lat="43.90547" lon="3.65656">
        <ele>189.04</ele>
        <time>2012-10-11T10:56:18Z</time>
      </trkpt>
      <trkpt lat="43.90473" lon="3.65737">
        <ele>190</ele>
        <time>2012-10-11T10:56:35Z</time>
      </trkpt>
      <trkpt lat="43.90392" lon="3.658">
        <ele>191.92</ele>
        <time>2012-10-11T10:56:54Z</time>
      </trkpt>
      <trkpt lat="43.90297" lon="3.65778">
        <ele>194.32</ele>
        <time>2012-10-11T10:57:16Z</time>
      </trkpt>
      <trkpt lat="43.90224" lon="3.65697">
        <ele>195.28</ele>
        <time>2012-10-11T10:57:39Z</time>
      </trkpt>
      <trkpt lat="43.90174" lon="3.65587">
        <ele>199.13</ele>
        <time>2012-10-11T10:58:04Z</time>
      </trkpt>
      <trkpt lat="43.90133" lon="3.65472">
        <ele>203.46</ele>
        <time>2012-10-11T10:58:32Z</time>
      </trkpt>
      <trkpt lat="43.90063" lon="3.65397">
        <ele>206.34</ele>
        <time>2012-10-11T10:58:59Z</time>
      </trkpt>
      <trkpt lat="43.89976" lon="3.65448">
        <ele>207.78</ele>
        <time>2012-10-11T10:59:30Z</time>
      </trkpt>
      <trkpt lat="43.89895" lon="3.65508">
        <ele>208.26</ele>
        <time>2012-10-11T10:59:53Z</time>
      </trkpt>
      <trkpt lat="43.89803" lon="3.65509">
        <ele>207.3</ele>
        <time>2012-10-11T11:00:47Z</time>
      </trkpt>
      <trkpt lat="43.8973" lon="3.65436">
        <ele>206.82</ele>
        <time>2012-10-11T11:01:04Z</time>
      </trkpt>
      <trkpt lat="43.89699" lon="3.65319">
        <ele>204.9</ele>
        <time>2012-10-11T11:01:20Z</time>
      </trkpt>
      <trkpt lat="43.8969" lon="3.65194">
        <ele>204.42</ele>
        <time>2012-10-11T11:01:37Z</time>
      </trkpt>
      <trkpt lat="43.89686" lon="3.65062">
        <ele>205.38</ele>
        <time>2012-10-11T11:01:55Z</time>
      </trkpt>
      <trkpt lat="43.89632" lon="3.64963">
        <ele>205.38</ele>
        <time>2012-10-11T11:02:13Z</time>
      </trkpt>
      <trkpt lat="43.89557" lon="3.64887">
        <ele>206.34</ele>
        <time>2012-10-11T11:02:31Z</time>
      </trkpt>
      <trkpt lat="43.89494" lon="3.64795">
        <ele>207.78</ele>
        <time>2012-10-11T11:02:49Z</time>
      </trkpt>
      <trkpt lat="43.89432" lon="3.64696">
        <ele>206.82</ele>
        <time>2012-10-11T11:03:06Z</time>
      </trkpt>
      <trkpt lat="43.8936" lon="3.64605">
        <ele>204.9</ele>
        <time>2012-10-11T11:03:21Z</time>
      </trkpt>
      <trkpt lat="43.89321" lon="3.64488">
        <ele>202.98</ele>
        <time>2012-10-11T11:03:34Z</time>
      </trkpt>
      <trkpt lat="43.89292" lon="3.64364">
        <ele>200.09</ele>
        <time>2012-10-11T11:03:47Z</time>
      </trkpt>
      <trkpt lat="43.89244" lon="3.64255">
        <ele>198.65</ele>
        <time>2012-10-11T11:04:01Z</time>
      </trkpt>
      <trkpt lat="43.89162" lon="3.6419">
        <ele>201.05</ele>
        <time>2012-10-11T11:04:17Z</time>
      </trkpt>
      <trkpt lat="43.89092" lon="3.64108">
        <ele>200.57</ele>
        <time>2012-10-11T11:04:34Z</time>
      </trkpt>
      <trkpt lat="43.89102" lon="3.63986">
        <ele>199.61</ele>
        <time>2012-10-11T11:04:48Z</time>
      </trkpt>
      <trkpt lat="43.89144" lon="3.63866">
        <ele>199.61</ele>
        <time>2012-10-11T11:05:07Z</time>
      </trkpt>
      <trkpt lat="43.89168" lon="3.63742">
        <ele>201.53</ele>
        <time>2012-10-11T11:05:26Z</time>
      </trkpt>
      <trkpt lat="43.89112" lon="3.63638">
        <ele>203.94</ele>
        <time>2012-10-11T11:05:46Z</time>
      </trkpt>
      <trkpt lat="43.89056" lon="3.63539">
        <ele>205.86</ele>
        <time>2012-10-11T11:06:08Z</time>
      </trkpt>
      <trkpt lat="43.89012" lon="3.63427">
        <ele>206.34</ele>
        <time>2012-10-11T11:06:27Z</time>
      </trkpt>
      <trkpt lat="43.88977" lon="3.63304">
        <ele>203.94</ele>
        <time>2012-10-11T11:06:43Z</time>
      </trkpt>
      <trkpt lat="43.88988" lon="3.63176">
        <ele>203.46</ele>
        <time>2012-10-11T11:06:59Z</time>
      </trkpt>
      <trkpt lat="43.89063" lon="3.63103">
        <ele>203.46</ele>
        <time>2012-10-11T11:07:15Z</time>
      </trkpt>
      <trkpt lat="43.89142" lon="3.63038">
        <ele>203.94</ele>
        <time>2012-10-11T11:07:32Z</time>
      </trkpt>
      <trkpt lat="43.89205" lon="3.62935">
        <ele>204.42</ele>
        <time>2012-10-11T11:07:50Z</time>
      </trkpt>
      <trkpt lat="43.89203" lon="3.62814">
        <ele>205.86</ele>
        <time>2012-10-11T11:08:07Z</time>
      </trkpt>
      <trkpt lat="43.8913" lon="3.62734">
        <ele>206.34</ele>
        <time>2012-10-11T11:08:24Z</time>
      </trkpt>
      <trkpt lat="43.89057" lon="3.62656">
        <ele>208.26</ele>
        <time>2012-10-11T11:08:42Z</time>
      </trkpt>
      <trkpt lat="43.89044" lon="3.62535">
        <ele>208.74</ele>
        <time>2012-10-11T11:10:11Z</time>
      </trkpt>
      <trkpt lat="43.88961" lon="3.62481">
        <ele>210.67</ele>
        <time>2012-10-11T11:10:37Z</time>
      </trkpt>
      <trkpt lat="43.88869" lon="3.62435">
        <ele>211.63</ele>
        <time>2012-10-11T11:11:00Z</time>
      </trkpt>
      <trkpt lat="43.88822" lon="3.62341">
        <ele>211.15</ele>
        <time>2012-10-11T11:11:20Z</time>
      </trkpt>
      <trkpt lat="43.88818" lon="3.62212">
        <ele>212.59</ele>
        <time>2012-10-11T11:11:39Z</time>
      </trkpt>
      <trkpt lat="43.88817" lon="3.62086">
        <ele>214.99</ele>
        <time>2012-10-11T11:12:00Z</time>
      </trkpt>
      <trkpt lat="43.88795" lon="3.61956">
        <ele>217.4</ele>
        <time>2012-10-11T11:12:25Z</time>
      </trkpt>
      <trkpt lat="43.88767" lon="3.61828">
        <ele>220.28</ele>
        <time>2012-10-11T11:12:48Z</time>
      </trkpt>
      <trkpt lat="43.88728" lon="3.61714">
        <ele>220.76</ele>
        <time>2012-10-11T11:13:08Z</time>
      </trkpt>
      <trkpt lat="43.88671" lon="3.6161">
        <ele>221.72</ele>
        <time>2012-10-11T11:13:28Z</time>
      </trkpt>
      <trkpt lat="43.88591" lon="3.61546">
        <ele>222.2</ele>
        <time>2012-10-11T11:13:46Z</time>
      </trkpt>
      <trkpt lat="43.88508" lon="3.61485">
        <ele>222.2</ele>
        <time>2012-10-11T11:14:04Z</time>
      </trkpt>
      <trkpt lat="43.88416" lon="3.61464">
        <ele>220.28</ele>
        <time>2012-10-11T11:14:19Z</time>
      </trkpt>
      <trkpt lat="43.88338" lon="3.61392">
        <ele>217.4</ele>
        <time>2012-10-11T11:14:32Z</time>
      </trkpt>
      <trkpt lat="43.88265" lon="3.61312">
        <ele>216.43</ele>
        <time>2012-10-11T11:14:45Z</time>
      </trkpt>
      <trkpt lat="43.88192" lon="3.61229">
        <ele>216.91</ele>
        <time>2012-10-11T11:15:01Z</time>
      </trkpt>
      <trkpt lat="43.88121" lon="3.61144">
        <ele>217.4</ele>
        <time>2012-10-11T11:15:17Z</time>
      </trkpt>
      <trkpt lat="43.88048" lon="3.61064">
        <ele>217.4</ele>
        <time>2012-10-11T11:15:33Z</time>
      </trkpt>
      <trkpt lat="43.87972" lon="3.60987">
        <ele>218.36</ele>
        <time>2012-10-11T11:15:51Z</time>
      </trkpt>
      <trkpt lat="43.8789" lon="3.6092">
        <ele>219.8</ele>
        <time>2012-10-11T11:16:10Z</time>
      </trkpt>
      <trkpt lat="43.87811" lon="3.60848">
        <ele>220.76</ele>
        <time>2012-10-11T11:16:29Z</time>
      </trkpt>
      <trkpt lat="43.87723" lon="3.60797">
        <ele>221.24</ele>
        <time>2012-10-11T11:16:48Z</time>
      </trkpt>
      <trkpt lat="43.87625" lon="3.60759">
        <ele>221.24</ele>
        <time>2012-10-11T11:17:07Z</time>
      </trkpt>
      <trkpt lat="43.87527" lon="3.60711">
        <ele>220.28</ele>
        <time>2012-10-11T11:17:25Z</time>
      </trkpt>
      <trkpt lat="43.87465" lon="3.60615">
        <ele>220.28</ele>
        <time>2012-10-11T11:17:41Z</time>
      </trkpt>
      <trkpt lat="43.87404" lon="3.60514">
        <ele>219.8</ele>
        <time>2012-10-11T11:17:57Z</time>
      </trkpt>
      <trkpt lat="43.87329" lon="3.60443">
        <ele>219.8</ele>
        <time>2012-10-11T11:18:13Z</time>
      </trkpt>
      <trkpt lat="43.87243" lon="3.60387">
        <ele>221.24</ele>
        <time>2012-10-11T11:18:32Z</time>
      </trkpt>
      <trkpt lat="43.87161" lon="3.60322">
        <ele>223.16</ele>
        <time>2012-10-11T11:18:52Z</time>
      </trkpt>
      <trkpt lat="43.87081" lon="3.6026">
        <ele>224.61</ele>
        <time>2012-10-11T11:19:11Z</time>
      </trkpt>
      <trkpt lat="43.86999" lon="3.60197">
        <ele>222.2</ele>
        <time>2012-10-11T11:19:27Z</time>
      </trkpt>
      <trkpt lat="43.86929" lon="3.60121">
        <ele>221.72</ele>
        <time>2012-10-11T11:19:42Z</time>
      </trkpt>
      <trkpt lat="43.86873" lon="3.60023">
        <ele>221.24</ele>
        <time>2012-10-11T11:20:01Z</time>
      </trkpt>
      <trkpt lat="43.86835" lon="3.59901">
        <ele>222.68</ele>
        <time>2012-10-11T11:22:03Z</time>
      </trkpt>
      <trkpt lat="43.8681" lon="3.5977">
        <ele>224.12</ele>
        <time>2012-10-11T11:22:23Z</time>
      </trkpt>
      <trkpt lat="43.86788" lon="3.59636">
        <ele>224.12</ele>
        <time>2012-10-11T11:22:41Z</time>
      </trkpt>
      <trkpt lat="43.86768" lon="3.59507">
        <ele>225.09</ele>
        <time>2012-10-11T11:22:59Z</time>
      </trkpt>
      <trkpt lat="43.86742" lon="3.59385">
        <ele>225.57</ele>
        <time>2012-10-11T11:23:17Z</time>
      </trkpt>
      <trkpt lat="43.86707" lon="3.59261">
        <ele>227.01</ele>
        <time>2012-10-11T11:23:36Z</time>
      </trkpt>
      <trkpt lat="43.86698" lon="3.59131">
        <ele>227.49</ele>
        <time>2012-10-11T11:23:54Z</time>
      </trkpt>
      <trkpt lat="43.86691" lon="3.59001">
        <ele>227.01</ele>
        <time>2012-10-11T11:24:11Z</time>
      </trkpt>
      <trkpt lat="43.86653" lon="3.5889">
        <ele>226.53</ele>
        <time>2012-10-11T11:24:27Z</time>
      </trkpt>
      <trkpt lat="43.86599" lon="3.58782">
        <ele>227.97</ele>
        <time>2012-10-11T11:24:47Z</time>
      </trkpt>
      <trkpt lat="43.86528" lon="3.58686">
        <ele>229.41</ele>
        <time>2012-10-11T11:25:08Z</time>
      </trkpt>
      <trkpt lat="43.86436" lon="3.58637">
        <ele>228.93</ele>
        <time>2012-10-11T11:25:29Z</time>
      </trkpt>
      <trkpt lat="43.86337" lon="3.58636">
        <ele>228.45</ele>
        <time>2012-10-11T11:25:49Z</time>
      </trkpt>
      <trkpt lat="43.86239" lon="3.58609">
        <ele>228.93</ele>
        <time>2012-10-11T11:26:09Z</time>
      </trkpt>
      <trkpt lat="43.86131" lon="3.58583">
        <ele>230.37</ele>
        <time>2012-10-11T11:26:29Z</time>
      </trkpt>
      <trkpt lat="43.86036" lon="3.58526">
        <ele>230.85</ele>
        <time>2012-10-11T11:26:48Z</time>
      </trkpt>
      <trkpt lat="43.85984" lon="3.58433">
        <ele>230.37</ele>
        <time>2012-10-11T11:27:15Z</time>
      </trkpt>
      <trkpt lat="43.85943" lon="3.58362">
        <ele>232.78</ele>
        <time>2012-10-11T11:49:03Z</time>
      </trkpt>
      <trkpt lat="43.85909" lon="3.58245">
        <ele>233.26</ele>
        <time>2012-10-11T11:49:28Z</time>
      </trkpt>
      <trkpt lat="43.85892" lon="3.58116">
        <ele>233.74</ele>
        <time>2012-10-11T11:49:52Z</time>
      </trkpt>
      <trkpt lat="43.85879" lon="3.57991">
        <ele>235.66</ele>
        <time>2012-10-11T11:50:15Z</time>
      </trkpt>
      <trkpt lat="43.85862" lon="3.57866">
        <ele>237.1</ele>
        <time>2012-10-11T11:50:36Z</time>
      </trkpt>
      <trkpt lat="43.85819" lon="3.57759">
        <ele>238.06</ele>
        <time>2012-10-11T11:50:56Z</time>
      </trkpt>
      <trkpt lat="43.85768" lon="3.5766">
        <ele>239.02</ele>
        <time>2012-10-11T11:51:17Z</time>
      </trkpt>
      <trkpt lat="43.85711" lon="3.57567">
        <ele>240.47</ele>
        <time>2012-10-11T11:51:38Z</time>
      </trkpt>
      <trkpt lat="43.85648" lon="3.57473">
        <ele>242.39</ele>
        <time>2012-10-11T11:52:00Z</time>
      </trkpt>
      <trkpt lat="43.85586" lon="3.57381">
        <ele>243.83</ele>
        <time>2012-10-11T11:52:21Z</time>
      </trkpt>
      <trkpt lat="43.85523" lon="3.57281">
        <ele>246.23</ele>
        <time>2012-10-11T11:52:43Z</time>
      </trkpt>
      <trkpt lat="43.85464" lon="3.5718">
        <ele>248.16</ele>
        <time>2012-10-11T11:53:05Z</time>
      </trkpt>
      <trkpt lat="43.85406" lon="3.57084">
        <ele>249.12</ele>
        <time>2012-10-11T11:53:27Z</time>
      </trkpt>
      <trkpt lat="43.85346" lon="3.56993">
        <ele>250.08</ele>
        <time>2012-10-11T11:53:47Z</time>
      </trkpt>
      <trkpt lat="43.85358" lon="3.56863">
        <ele>250.08</ele>
        <time>2012-10-11T11:54:07Z</time>
      </trkpt>
      <trkpt lat="43.85378" lon="3.56733">
        <ele>249.6</ele>
        <time>2012-10-11T11:54:26Z</time>
      </trkpt>
      <trkpt lat="43.85421" lon="3.56621">
        <ele>250.56</ele>
        <time>2012-10-11T11:54:45Z</time>
      </trkpt>
      <trkpt lat="43.85436" lon="3.56489">
        <ele>251.04</ele>
        <time>2012-10-11T11:55:19Z</time>
      </trkpt>
      <trkpt lat="43.85403" lon="3.5638">
        <ele>250.08</ele>
        <time>2012-10-11T11:55:43Z</time>
      </trkpt>
      <trkpt lat="43.85358" lon="3.56283">
        <ele>251.04</ele>
        <time>2012-10-11T11:56:42Z</time>
      </trkpt>
      <trkpt lat="43.85438" lon="3.56211">
        <ele>251.04</ele>
        <time>2012-10-11T11:57:02Z</time>
      </trkpt>
      <trkpt lat="43.85505" lon="3.56126">
        <ele>251.04</ele>
        <time>2012-10-11T11:57:20Z</time>
      </trkpt>
      <trkpt lat="43.85561" lon="3.56018">
        <ele>251.04</ele>
        <time>2012-10-11T11:58:09Z</time>
      </trkpt>
      <trkpt lat="43.85605" lon="3.55903">
        <ele>252</ele>
        <time>2012-10-11T11:58:31Z</time>
      </trkpt>
      <trkpt lat="43.85622" lon="3.55777">
        <ele>252</ele>
        <time>2012-10-11T11:58:50Z</time>
      </trkpt>
      <trkpt lat="43.85588" lon="3.55656">
        <ele>252.96</ele>
        <time>2012-10-11T11:59:09Z</time>
      </trkpt>
      <trkpt lat="43.85511" lon="3.55583">
        <ele>253.93</ele>
        <time>2012-10-11T11:59:27Z</time>
      </trkpt>
      <trkpt lat="43.85417" lon="3.55589">
        <ele>255.85</ele>
        <time>2012-10-11T11:59:48Z</time>
      </trkpt>
      <trkpt lat="43.85319" lon="3.55582">
        <ele>259.69</ele>
        <time>2012-10-11T12:00:14Z</time>
      </trkpt>
      <trkpt lat="43.8522" lon="3.55531">
        <ele>262.58</ele>
        <time>2012-10-11T12:00:41Z</time>
      </trkpt>
      <trkpt lat="43.85125" lon="3.55457">
        <ele>267.38</ele>
        <time>2012-10-11T12:01:13Z</time>
      </trkpt>
      <trkpt lat="43.85071" lon="3.55339">
        <ele>270.75</ele>
        <time>2012-10-11T12:01:41Z</time>
      </trkpt>
      <trkpt lat="43.85064" lon="3.55201">
        <ele>274.59</ele>
        <time>2012-10-11T12:02:09Z</time>
      </trkpt>
      <trkpt lat="43.85076" lon="3.55073">
        <ele>277.96</ele>
        <time>2012-10-11T12:02:37Z</time>
      </trkpt>
      <trkpt lat="43.8507" lon="3.54943">
        <ele>281.32</ele>
        <time>2012-10-11T12:03:06Z</time>
      </trkpt>
      <trkpt lat="43.85069" lon="3.54814">
        <ele>284.69</ele>
        <time>2012-10-11T12:03:33Z</time>
      </trkpt>
      <trkpt lat="43.85114" lon="3.54703">
        <ele>288.53</ele>
        <time>2012-10-11T12:04:03Z</time>
      </trkpt>
      <trkpt lat="43.85149" lon="3.54588">
        <ele>292.86</ele>
        <time>2012-10-11T12:04:57Z</time>
      </trkpt>
      <trkpt lat="43.85152" lon="3.54467">
        <ele>297.67</ele>
        <time>2012-10-11T12:05:56Z</time>
      </trkpt>
      <trkpt lat="43.85138" lon="3.54345">
        <ele>304.39</ele>
        <time>2012-10-11T12:06:34Z</time>
      </trkpt>
      <trkpt lat="43.85101" lon="3.54237">
        <ele>309.68</ele>
        <time>2012-10-11T12:07:12Z</time>
      </trkpt>
      <trkpt lat="43.85049" lon="3.54138">
        <ele>316.41</ele>
        <time>2012-10-11T12:07:50Z</time>
      </trkpt>
      <trkpt lat="43.85" lon="3.54029">
        <ele>324.58</ele>
        <time>2012-10-11T12:08:32Z</time>
      </trkpt>
      <trkpt lat="43.84966" lon="3.53918">
        <ele>331.31</ele>
        <time>2012-10-11T12:09:11Z</time>
      </trkpt>
      <trkpt lat="43.84998" lon="3.5383">
        <ele>338.04</ele>
        <time>2012-10-11T12:09:58Z</time>
      </trkpt>
      <trkpt lat="43.85055" lon="3.5393">
        <ele>345.25</ele>
        <time>2012-10-11T12:11:52Z</time>
      </trkpt>
      <trkpt lat="43.85126" lon="3.54007">
        <ele>352.94</ele>
        <time>2012-10-11T12:12:33Z</time>
      </trkpt>
      <trkpt lat="43.8516" lon="3.54025">
        <ele>358.23</ele>
        <time>2012-10-11T12:13:14Z</time>
      </trkpt>
      <trkpt lat="43.85097" lon="3.53928">
        <ele>365.44</ele>
        <time>2012-10-11T12:13:55Z</time>
      </trkpt>
      <trkpt lat="43.85055" lon="3.53815">
        <ele>372.17</ele>
        <time>2012-10-11T12:14:35Z</time>
      </trkpt>
      <trkpt lat="43.84988" lon="3.53732">
        <ele>378.42</ele>
        <time>2012-10-11T12:15:15Z</time>
      </trkpt>
      <trkpt lat="43.84938" lon="3.53625">
        <ele>385.63</ele>
        <time>2012-10-11T12:15:55Z</time>
      </trkpt>
      <trkpt lat="43.84872" lon="3.53543">
        <ele>392.36</ele>
        <time>2012-10-11T12:16:35Z</time>
      </trkpt>
      <trkpt lat="43.84799" lon="3.53469">
        <ele>400.05</ele>
        <time>2012-10-11T12:17:15Z</time>
      </trkpt>
      <trkpt lat="43.84741" lon="3.53376">
        <ele>405.81</ele>
        <time>2012-10-11T12:17:53Z</time>
      </trkpt>
      <trkpt lat="43.84694" lon="3.53268">
        <ele>413.02</ele>
        <time>2012-10-11T12:18:31Z</time>
      </trkpt>
      <trkpt lat="43.84703" lon="3.53278">
        <ele>420.23</ele>
        <time>2012-10-11T12:19:15Z</time>
      </trkpt>
      <trkpt lat="43.84767" lon="3.5337">
        <ele>427.44</ele>
        <time>2012-10-11T12:20:00Z</time>
      </trkpt>
      <trkpt lat="43.84837" lon="3.53448">
        <ele>433.69</ele>
        <time>2012-10-11T12:20:40Z</time>
      </trkpt>
      <trkpt lat="43.8492" lon="3.53501">
        <ele>439.94</ele>
        <time>2012-10-11T12:21:24Z</time>
      </trkpt>
      <trkpt lat="43.84997" lon="3.53566">
        <ele>446.67</ele>
        <time>2012-10-11T12:22:09Z</time>
      </trkpt>
      <trkpt lat="43.85066" lon="3.53647">
        <ele>453.4</ele>
        <time>2012-10-11T12:23:24Z</time>
      </trkpt>
      <trkpt lat="43.85062" lon="3.53615">
        <ele>459.65</ele>
        <time>2012-10-11T12:24:08Z</time>
      </trkpt>
      <trkpt lat="43.85" lon="3.53521">
        <ele>466.86</ele>
        <time>2012-10-11T12:24:50Z</time>
      </trkpt>
      <trkpt lat="43.84934" lon="3.53429">
        <ele>474.07</ele>
        <time>2012-10-11T12:25:37Z</time>
      </trkpt>
      <trkpt lat="43.84859" lon="3.53364">
        <ele>480.32</ele>
        <time>2012-10-11T12:26:20Z</time>
      </trkpt>
      <trkpt lat="43.84803" lon="3.53262">
        <ele>488.49</ele>
        <time>2012-10-11T12:27:01Z</time>
      </trkpt>
      <trkpt lat="43.84773" lon="3.53142">
        <ele>496.18</ele>
        <time>2012-10-11T12:27:44Z</time>
      </trkpt>
      <trkpt lat="43.84727" lon="3.53039">
        <ele>502.43</ele>
        <time>2012-10-11T12:28:29Z</time>
      </trkpt>
      <trkpt lat="43.84751" lon="3.53046">
        <ele>509.64</ele>
        <time>2012-10-11T12:29:16Z</time>
      </trkpt>
      <trkpt lat="43.848" lon="3.53154">
        <ele>516.85</ele>
        <time>2012-10-11T12:29:56Z</time>
      </trkpt>
      <trkpt lat="43.84853" lon="3.53252">
        <ele>522.61</ele>
        <time>2012-10-11T12:30:35Z</time>
      </trkpt>
      <trkpt lat="43.84938" lon="3.53262">
        <ele>529.34</ele>
        <time>2012-10-11T12:33:41Z</time>
      </trkpt>
      <trkpt lat="43.84899" lon="3.53253">
        <ele>534.15</ele>
        <time>2012-10-11T12:34:17Z</time>
      </trkpt>
      <trkpt lat="43.84833" lon="3.53173">
        <ele>539.92</ele>
        <time>2012-10-11T12:34:51Z</time>
      </trkpt>
      <trkpt lat="43.8481" lon="3.53052">
        <ele>545.2</ele>
        <time>2012-10-11T12:35:29Z</time>
      </trkpt>
      <trkpt lat="43.84747" lon="3.52964">
        <ele>550.97</ele>
        <time>2012-10-11T12:36:05Z</time>
      </trkpt>
      <trkpt lat="43.84705" lon="3.52875">
        <ele>553.86</ele>
        <time>2012-10-11T12:36:38Z</time>
      </trkpt>
      <trkpt lat="43.84788" lon="3.52824">
        <ele>560.59</ele>
        <time>2012-10-11T12:37:11Z</time>
      </trkpt>
      <trkpt lat="43.84873" lon="3.52776">
        <ele>564.43</ele>
        <time>2012-10-11T12:37:44Z</time>
      </trkpt>
      <trkpt lat="43.84955" lon="3.52716">
        <ele>568.28</ele>
        <time>2012-10-11T12:38:14Z</time>
      </trkpt>
      <trkpt lat="43.84997" lon="3.52615">
        <ele>569.72</ele>
        <time>2012-10-11T12:39:54Z</time>
      </trkpt>
      <trkpt lat="43.84931" lon="3.52532">
        <ele>576.45</ele>
        <time>2012-10-11T12:40:28Z</time>
      </trkpt>
      <trkpt lat="43.84919" lon="3.52409">
        <ele>582.22</ele>
        <time>2012-10-11T12:41:04Z</time>
      </trkpt>
      <trkpt lat="43.84851" lon="3.52346">
        <ele>584.62</ele>
        <time>2012-10-11T12:41:32Z</time>
      </trkpt>
      <trkpt lat="43.84789" lon="3.52251">
        <ele>586.06</ele>
        <time>2012-10-11T12:41:55Z</time>
      </trkpt>
      <trkpt lat="43.84782" lon="3.52127">
        <ele>588.46</ele>
        <time>2012-10-11T12:42:22Z</time>
      </trkpt>
      <trkpt lat="43.84788" lon="3.52001">
        <ele>589.91</ele>
        <time>2012-10-11T12:42:46Z</time>
      </trkpt>
      <trkpt lat="43.84735" lon="3.51896">
        <ele>588.95</ele>
        <time>2012-10-11T12:43:07Z</time>
      </trkpt>
      <trkpt lat="43.84646" lon="3.51863">
        <ele>586.06</ele>
        <time>2012-10-11T12:43:23Z</time>
      </trkpt>
      <trkpt lat="43.84553" lon="3.51872">
        <ele>585.1</ele>
        <time>2012-10-11T12:43:44Z</time>
      </trkpt>
      <trkpt lat="43.84475" lon="3.51799">
        <ele>581.25</ele>
        <time>2012-10-11T12:44:01Z</time>
      </trkpt>
      <trkpt lat="43.84402" lon="3.51708">
        <ele>576.93</ele>
        <time>2012-10-11T12:44:13Z</time>
      </trkpt>
      <trkpt lat="43.84331" lon="3.5162">
        <ele>578.37</ele>
        <time>2012-10-11T12:44:27Z</time>
      </trkpt>
      <trkpt lat="43.84261" lon="3.51532">
        <ele>579.81</ele>
        <time>2012-10-11T12:44:47Z</time>
      </trkpt>
      <trkpt lat="43.84191" lon="3.51446">
        <ele>579.81</ele>
        <time>2012-10-11T12:45:06Z</time>
      </trkpt>
      <trkpt lat="43.84123" lon="3.51361">
        <ele>582.7</ele>
        <time>2012-10-11T12:45:28Z</time>
      </trkpt>
      <trkpt lat="43.84053" lon="3.51274">
        <ele>586.06</ele>
        <time>2012-10-11T12:45:57Z</time>
      </trkpt>
      <trkpt lat="43.83984" lon="3.51189">
        <ele>589.43</ele>
        <time>2012-10-11T12:46:25Z</time>
      </trkpt>
      <trkpt lat="43.83913" lon="3.51102">
        <ele>593.75</ele>
        <time>2012-10-11T12:46:53Z</time>
      </trkpt>
      <trkpt lat="43.83844" lon="3.51014">
        <ele>593.75</ele>
        <time>2012-10-11T12:47:14Z</time>
      </trkpt>
      <trkpt lat="43.83774" lon="3.50927">
        <ele>591.83</ele>
        <time>2012-10-11T12:47:30Z</time>
      </trkpt>
      <trkpt lat="43.83707" lon="3.50843">
        <ele>587.98</ele>
        <time>2012-10-11T12:47:42Z</time>
      </trkpt>
      <trkpt lat="43.83636" lon="3.50754">
        <ele>586.06</ele>
        <time>2012-10-11T12:47:55Z</time>
      </trkpt>
      <trkpt lat="43.83568" lon="3.50669">
        <ele>585.58</ele>
        <time>2012-10-11T12:48:09Z</time>
      </trkpt>
      <trkpt lat="43.83501" lon="3.50584">
        <ele>586.06</ele>
        <time>2012-10-11T12:48:29Z</time>
      </trkpt>
      <trkpt lat="43.83434" lon="3.50496">
        <ele>585.58</ele>
        <time>2012-10-11T12:48:47Z</time>
      </trkpt>
      <trkpt lat="43.83378" lon="3.5039">
        <ele>584.62</ele>
        <time>2012-10-11T12:49:03Z</time>
      </trkpt>
      <trkpt lat="43.83339" lon="3.5027">
        <ele>582.22</ele>
        <time>2012-10-11T12:49:18Z</time>
      </trkpt>
      <trkpt lat="43.83302" lon="3.50153">
        <ele>580.29</ele>
        <time>2012-10-11T12:49:32Z</time>
      </trkpt>
      <trkpt lat="43.83267" lon="3.50035">
        <ele>578.37</ele>
        <time>2012-10-11T12:49:45Z</time>
      </trkpt>
      <trkpt lat="43.83229" lon="3.49913">
        <ele>575.97</ele>
        <time>2012-10-11T12:49:58Z</time>
      </trkpt>
      <trkpt lat="43.83193" lon="3.49793">
        <ele>574.53</ele>
        <time>2012-10-11T12:50:11Z</time>
      </trkpt>
      <trkpt lat="43.83157" lon="3.49679">
        <ele>574.53</ele>
        <time>2012-10-11T12:50:25Z</time>
      </trkpt>
      <trkpt lat="43.83122" lon="3.49566">
        <ele>575.01</ele>
        <time>2012-10-11T12:50:40Z</time>
      </trkpt>
      <trkpt lat="43.83085" lon="3.49446">
        <ele>574.53</ele>
        <time>2012-10-11T12:50:57Z</time>
      </trkpt>
      <trkpt lat="43.83028" lon="3.49348">
        <ele>574.04</ele>
        <time>2012-10-11T12:51:13Z</time>
      </trkpt>
      <trkpt lat="43.82962" lon="3.49261">
        <ele>572.12</ele>
        <time>2012-10-11T12:51:29Z</time>
      </trkpt>
      <trkpt lat="43.82895" lon="3.4917">
        <ele>572.6</ele>
        <time>2012-10-11T12:51:46Z</time>
      </trkpt>
      <trkpt lat="43.82831" lon="3.49083">
        <ele>572.6</ele>
        <time>2012-10-11T12:52:03Z</time>
      </trkpt>
      <trkpt lat="43.82765" lon="3.48996">
        <ele>574.04</ele>
        <time>2012-10-11T12:52:20Z</time>
      </trkpt>
      <trkpt lat="43.82698" lon="3.48905">
        <ele>575.01</ele>
        <time>2012-10-11T12:52:40Z</time>
      </trkpt>
      <trkpt lat="43.82631" lon="3.48816">
        <ele>576.93</ele>
        <time>2012-10-11T12:53:02Z</time>
      </trkpt>
      <trkpt lat="43.82565" lon="3.48728">
        <ele>578.85</ele>
        <time>2012-10-11T12:53:23Z</time>
      </trkpt>
      <trkpt lat="43.82499" lon="3.4864">
        <ele>580.29</ele>
        <time>2012-10-11T12:53:44Z</time>
      </trkpt>
      <trkpt lat="43.82434" lon="3.48551">
        <ele>582.7</ele>
        <time>2012-10-11T12:54:05Z</time>
      </trkpt>
      <trkpt lat="43.82368" lon="3.48463">
        <ele>583.18</ele>
        <time>2012-10-11T12:54:26Z</time>
      </trkpt>
      <trkpt lat="43.82301" lon="3.48373">
        <ele>584.62</ele>
        <time>2012-10-11T12:54:47Z</time>
      </trkpt>
      <trkpt lat="43.82234" lon="3.48283">
        <ele>585.1</ele>
        <time>2012-10-11T12:55:08Z</time>
      </trkpt>
      <trkpt lat="43.82169" lon="3.48195">
        <ele>587.5</ele>
        <time>2012-10-11T13:01:11Z</time>
      </trkpt>
      <trkpt lat="43.82104" lon="3.48107">
        <ele>587.5</ele>
        <time>2012-10-11T13:01:34Z</time>
      </trkpt>
      <trkpt lat="43.82039" lon="3.4802">
        <ele>587.5</ele>
        <time>2012-10-11T13:01:55Z</time>
      </trkpt>
      <trkpt lat="43.81972" lon="3.4793">
        <ele>587.5</ele>
        <time>2012-10-11T13:02:15Z</time>
      </trkpt>
      <trkpt lat="43.81907" lon="3.47843">
        <ele>586.54</ele>
        <time>2012-10-11T13:02:35Z</time>
      </trkpt>
      <trkpt lat="43.81842" lon="3.47756">
        <ele>586.06</ele>
        <time>2012-10-11T13:02:54Z</time>
      </trkpt>
      <trkpt lat="43.81776" lon="3.47667">
        <ele>585.1</ele>
        <time>2012-10-11T13:03:13Z</time>
      </trkpt>
      <trkpt lat="43.81709" lon="3.47579">
        <ele>584.62</ele>
        <time>2012-10-11T13:03:31Z</time>
      </trkpt>
      <trkpt lat="43.81644" lon="3.47491">
        <ele>584.62</ele>
        <time>2012-10-11T13:03:48Z</time>
      </trkpt>
      <trkpt lat="43.81576" lon="3.474">
        <ele>585.58</ele>
        <time>2012-10-11T13:04:06Z</time>
      </trkpt>
      <trkpt lat="43.81509" lon="3.47308">
        <ele>586.06</ele>
        <time>2012-10-11T13:04:24Z</time>
      </trkpt>
      <trkpt lat="43.81442" lon="3.47218">
        <ele>586.06</ele>
        <time>2012-10-11T13:04:42Z</time>
      </trkpt>
      <trkpt lat="43.81376" lon="3.47131">
        <ele>585.58</ele>
        <time>2012-10-11T13:05:02Z</time>
      </trkpt>
      <trkpt lat="43.81309" lon="3.47039">
        <ele>586.54</ele>
        <time>2012-10-11T13:05:21Z</time>
      </trkpt>
      <trkpt lat="43.81243" lon="3.46951">
        <ele>586.54</ele>
        <time>2012-10-11T13:05:39Z</time>
      </trkpt>
      <trkpt lat="43.81178" lon="3.46863">
        <ele>587.98</ele>
        <time>2012-10-11T13:05:57Z</time>
      </trkpt>
      <trkpt lat="43.81112" lon="3.46775">
        <ele>588.46</ele>
        <time>2012-10-11T13:06:16Z</time>
      </trkpt>
      <trkpt lat="43.81047" lon="3.46687">
        <ele>590.39</ele>
        <time>2012-10-11T13:06:36Z</time>
      </trkpt>
      <trkpt lat="43.80979" lon="3.46597">
        <ele>592.31</ele>
        <time>2012-10-11T13:06:57Z</time>
      </trkpt>
      <trkpt lat="43.80913" lon="3.46508">
        <ele>592.79</ele>
        <time>2012-10-11T13:07:18Z</time>
      </trkpt>
      <trkpt lat="43.80848" lon="3.46421">
        <ele>594.23</ele>
        <time>2012-10-11T13:07:39Z</time>
      </trkpt>
      <trkpt lat="43.80784" lon="3.46334">
        <ele>595.67</ele>
        <time>2012-10-11T13:07:58Z</time>
      </trkpt>
      <trkpt lat="43.80718" lon="3.46247">
        <ele>596.64</ele>
        <time>2012-10-11T13:08:17Z</time>
      </trkpt>
      <trkpt lat="43.80654" lon="3.4616">
        <ele>596.64</ele>
        <time>2012-10-11T13:08:36Z</time>
      </trkpt>
      <trkpt lat="43.80587" lon="3.4607">
        <ele>597.6</ele>
        <time>2012-10-11T13:08:55Z</time>
      </trkpt>
      <trkpt lat="43.8052" lon="3.4598">
        <ele>598.08</ele>
        <time>2012-10-11T13:09:15Z</time>
      </trkpt>
      <trkpt lat="43.80455" lon="3.45894">
        <ele>599.52</ele>
        <time>2012-10-11T13:09:35Z</time>
      </trkpt>
      <trkpt lat="43.8039" lon="3.45807">
        <ele>600.96</ele>
        <time>2012-10-11T13:09:54Z</time>
      </trkpt>
      <trkpt lat="43.80322" lon="3.45716">
        <ele>602.4</ele>
        <time>2012-10-11T13:10:14Z</time>
      </trkpt>
      <trkpt lat="43.80254" lon="3.45625">
        <ele>604.33</ele>
        <time>2012-10-11T13:10:34Z</time>
      </trkpt>
      <trkpt lat="43.80188" lon="3.45538">
        <ele>605.29</ele>
        <time>2012-10-11T13:10:54Z</time>
      </trkpt>
      <trkpt lat="43.80122" lon="3.45448">
        <ele>606.73</ele>
        <time>2012-10-11T13:11:14Z</time>
      </trkpt>
      <trkpt lat="43.80054" lon="3.45359">
        <ele>607.69</ele>
        <time>2012-10-11T13:11:34Z</time>
      </trkpt>
      <trkpt lat="43.79987" lon="3.4527">
        <ele>608.65</ele>
        <time>2012-10-11T13:11:54Z</time>
      </trkpt>
      <trkpt lat="43.79923" lon="3.45183">
        <ele>609.61</ele>
        <time>2012-10-11T13:12:13Z</time>
      </trkpt>
      <trkpt lat="43.79857" lon="3.45096">
        <ele>610.57</ele>
        <time>2012-10-11T13:12:33Z</time>
      </trkpt>
      <trkpt lat="43.79791" lon="3.45008">
        <ele>611.54</ele>
        <time>2012-10-11T13:12:53Z</time>
      </trkpt>
      <trkpt lat="43.79725" lon="3.44919">
        <ele>612.98</ele>
        <time>2012-10-11T13:13:13Z</time>
      </trkpt>
      <trkpt lat="43.79661" lon="3.44833">
        <ele>613.46</ele>
        <time>2012-10-11T13:13:33Z</time>
      </trkpt>
      <trkpt lat="43.79595" lon="3.44744">
        <ele>615.38</ele>
        <time>2012-10-11T13:13:53Z</time>
      </trkpt>
      <trkpt lat="43.7953" lon="3.44657">
        <ele>616.82</ele>
        <time>2012-10-11T13:14:12Z</time>
      </trkpt>
      <trkpt lat="43.79463" lon="3.44568">
        <ele>618.26</ele>
        <time>2012-10-11T13:14:32Z</time>
      </trkpt>
      <trkpt lat="43.79453" lon="3.44453">
        <ele>620.67</ele>
        <time>2012-10-11T13:14:54Z</time>
      </trkpt>
      <trkpt lat="43.79487" lon="3.44334">
        <ele>624.51</ele>
        <time>2012-10-11T13:15:20Z</time>
      </trkpt>
      <trkpt lat="43.79507" lon="3.44209">
        <ele>628.84</ele>
        <time>2012-10-11T13:15:51Z</time>
      </trkpt>
      <trkpt lat="43.79501" lon="3.44084">
        <ele>631.72</ele>
        <time>2012-10-11T13:16:18Z</time>
      </trkpt>
      <trkpt lat="43.79489" lon="3.43955">
        <ele>632.68</ele>
        <time>2012-10-11T13:16:39Z</time>
      </trkpt>
      <trkpt lat="43.79475" lon="3.43825">
        <ele>632.68</ele>
        <time>2012-10-11T13:16:58Z</time>
      </trkpt>
      <trkpt lat="43.79462" lon="3.43699">
        <ele>633.17</ele>
        <time>2012-10-11T13:17:16Z</time>
      </trkpt>
      <trkpt lat="43.7945" lon="3.43574">
        <ele>634.61</ele>
        <time>2012-10-11T13:17:35Z</time>
      </trkpt>
      <trkpt lat="43.79437" lon="3.43446">
        <ele>634.13</ele>
        <time>2012-10-11T13:17:54Z</time>
      </trkpt>
      <trkpt lat="43.79425" lon="3.43315">
        <ele>632.68</ele>
        <time>2012-10-11T13:18:12Z</time>
      </trkpt>
      <trkpt lat="43.79411" lon="3.4319">
        <ele>630.28</ele>
        <time>2012-10-11T13:18:27Z</time>
      </trkpt>
      <trkpt lat="43.794" lon="3.43055">
        <ele>628.36</ele>
        <time>2012-10-11T13:18:42Z</time>
      </trkpt>
      <trkpt lat="43.79386" lon="3.42929">
        <ele>628.36</ele>
        <time>2012-10-11T13:18:57Z</time>
      </trkpt>
      <trkpt lat="43.79372" lon="3.42801">
        <ele>630.28</ele>
        <time>2012-10-11T13:19:14Z</time>
      </trkpt>
      <trkpt lat="43.7936" lon="3.42676">
        <ele>630.76</ele>
        <time>2012-10-11T13:19:33Z</time>
      </trkpt>
      <trkpt lat="43.79324" lon="3.42575">
        <ele>631.72</ele>
        <time>2012-10-11T13:19:59Z</time>
      </trkpt>
      <trkpt lat="43.79275" lon="3.42468">
        <ele>629.8</ele>
        <time>2012-10-11T13:20:21Z</time>
      </trkpt>
      <trkpt lat="43.79271" lon="3.42347">
        <ele>629.8</ele>
        <time>2012-10-11T13:20:43Z</time>
      </trkpt>
      <trkpt lat="43.79221" lon="3.42252">
        <ele>624.99</ele>
        <time>2012-10-11T13:21:34Z</time>
      </trkpt>
      <trkpt lat="43.79196" lon="3.42129">
        <ele>619.71</ele>
        <time>2012-10-11T13:21:46Z</time>
      </trkpt>
      <trkpt lat="43.79149" lon="3.42014">
        <ele>614.42</ele>
        <time>2012-10-11T13:21:57Z</time>
      </trkpt>
      <trkpt lat="43.7911" lon="3.41891">
        <ele>612.02</ele>
        <time>2012-10-11T13:22:09Z</time>
      </trkpt>
      <trkpt lat="43.79091" lon="3.41766">
        <ele>607.69</ele>
        <time>2012-10-11T13:22:21Z</time>
      </trkpt>
      <trkpt lat="43.79069" lon="3.41641">
        <ele>603.36</ele>
        <time>2012-10-11T13:22:31Z</time>
      </trkpt>
      <trkpt lat="43.79037" lon="3.41516">
        <ele>599.52</ele>
        <time>2012-10-11T13:22:41Z</time>
      </trkpt>
      <trkpt lat="43.78995" lon="3.41406">
        <ele>595.67</ele>
        <time>2012-10-11T13:22:51Z</time>
      </trkpt>
      <trkpt lat="43.7894" lon="3.41295">
        <ele>590.87</ele>
        <time>2012-10-11T13:23:02Z</time>
      </trkpt>
      <trkpt lat="43.78888" lon="3.41194">
        <ele>588.46</ele>
        <time>2012-10-11T13:23:12Z</time>
      </trkpt>
      <trkpt lat="43.78841" lon="3.41082">
        <ele>583.18</ele>
        <time>2012-10-11T13:23:23Z</time>
      </trkpt>
      <trkpt lat="43.78867" lon="3.40955">
        <ele>575.97</ele>
        <time>2012-10-11T13:23:34Z</time>
      </trkpt>
      <trkpt lat="43.78794" lon="3.40985">
        <ele>573.08</ele>
        <time>2012-10-11T13:23:46Z</time>
      </trkpt>
      <trkpt lat="43.7871" lon="3.40979">
        <ele>566.35</ele>
        <time>2012-10-11T13:23:57Z</time>
      </trkpt>
      <trkpt lat="43.78755" lon="3.41089">
        <ele>560.59</ele>
        <time>2012-10-11T13:24:08Z</time>
      </trkpt>
      <trkpt lat="43.7879" lon="3.41221">
        <ele>555.3</ele>
        <time>2012-10-11T13:24:17Z</time>
      </trkpt>
      <trkpt lat="43.78808" lon="3.41353">
        <ele>548.57</ele>
        <time>2012-10-11T13:24:25Z</time>
      </trkpt>
      <trkpt lat="43.78817" lon="3.41481">
        <ele>541.84</ele>
        <time>2012-10-11T13:24:33Z</time>
      </trkpt>
      <trkpt lat="43.78734" lon="3.4157">
        <ele>534.15</ele>
        <time>2012-10-11T13:24:43Z</time>
      </trkpt>
      <trkpt lat="43.78646" lon="3.41633">
        <ele>527.9</ele>
        <time>2012-10-11T13:24:52Z</time>
      </trkpt>
      <trkpt lat="43.78547" lon="3.41612">
        <ele>522.13</ele>
        <time>2012-10-11T13:25:01Z</time>
      </trkpt>
      <trkpt lat="43.78503" lon="3.41491">
        <ele>514.44</ele>
        <time>2012-10-11T13:25:11Z</time>
      </trkpt>
      <trkpt lat="43.78445" lon="3.41397">
        <ele>506.75</ele>
        <time>2012-10-11T13:25:20Z</time>
      </trkpt>
      <trkpt lat="43.78353" lon="3.41399">
        <ele>500.5</ele>
        <time>2012-10-11T13:25:30Z</time>
      </trkpt>
      <trkpt lat="43.78261" lon="3.41379">
        <ele>494.26</ele>
        <time>2012-10-11T13:25:40Z</time>
      </trkpt>
      <trkpt lat="43.78199" lon="3.41295">
        <ele>484.16</ele>
        <time>2012-10-11T13:25:57Z</time>
      </trkpt>
      <trkpt lat="43.7811" lon="3.41246">
        <ele>478.39</ele>
        <time>2012-10-11T13:26:37Z</time>
      </trkpt>
      <trkpt lat="43.78014" lon="3.4124">
        <ele>472.63</ele>
        <time>2012-10-11T13:26:48Z</time>
      </trkpt>
      <trkpt lat="43.77924" lon="3.41266">
        <ele>467.82</ele>
        <time>2012-10-11T13:26:57Z</time>
      </trkpt>
      <trkpt lat="43.77857" lon="3.41181">
        <ele>460.61</ele>
        <time>2012-10-11T13:27:06Z</time>
      </trkpt>
      <trkpt lat="43.77823" lon="3.4106">
        <ele>453.4</ele>
        <time>2012-10-11T13:27:15Z</time>
      </trkpt>
      <trkpt lat="43.77735" lon="3.41003">
        <ele>448.59</ele>
        <time>2012-10-11T13:27:24Z</time>
      </trkpt>
      <trkpt lat="43.77689" lon="3.40894">
        <ele>440.9</ele>
        <time>2012-10-11T13:27:33Z</time>
      </trkpt>
      <trkpt lat="43.77685" lon="3.40758">
        <ele>433.69</ele>
        <time>2012-10-11T13:27:42Z</time>
      </trkpt>
      <trkpt lat="43.77719" lon="3.40641">
        <ele>426</ele>
        <time>2012-10-11T13:27:50Z</time>
      </trkpt>
      <trkpt lat="43.77715" lon="3.40506">
        <ele>418.79</ele>
        <time>2012-10-11T13:27:58Z</time>
      </trkpt>
      <trkpt lat="43.77704" lon="3.40377">
        <ele>409.66</ele>
        <time>2012-10-11T13:28:07Z</time>
      </trkpt>
      <trkpt lat="43.77639" lon="3.40307">
        <ele>403.89</ele>
        <time>2012-10-11T13:28:16Z</time>
      </trkpt>
      <trkpt lat="43.77587" lon="3.40201">
        <ele>398.12</ele>
        <time>2012-10-11T13:28:25Z</time>
      </trkpt>
      <trkpt lat="43.77548" lon="3.40078">
        <ele>390.43</ele>
        <time>2012-10-11T13:28:34Z</time>
      </trkpt>
      <trkpt lat="43.7749" lon="3.3997">
        <ele>384.18</ele>
        <time>2012-10-11T13:28:43Z</time>
      </trkpt>
      <trkpt lat="43.77466" lon="3.39846">
        <ele>377.94</ele>
        <time>2012-10-11T13:28:51Z</time>
      </trkpt>
      <trkpt lat="43.77466" lon="3.39718">
        <ele>372.65</ele>
        <time>2012-10-11T13:28:59Z</time>
      </trkpt>
      <trkpt lat="43.77446" lon="3.39582">
        <ele>364.96</ele>
        <time>2012-10-11T13:29:08Z</time>
      </trkpt>
      <trkpt lat="43.77435" lon="3.39459">
        <ele>361.11</ele>
        <time>2012-10-11T13:29:17Z</time>
      </trkpt>
      <trkpt lat="43.77425" lon="3.39338">
        <ele>356.31</ele>
        <time>2012-10-11T13:29:26Z</time>
      </trkpt>
      <trkpt lat="43.77428" lon="3.39215">
        <ele>350.54</ele>
        <time>2012-10-11T13:29:35Z</time>
      </trkpt>
      <trkpt lat="43.77461" lon="3.39099">
        <ele>344.29</ele>
        <time>2012-10-11T13:29:45Z</time>
      </trkpt>
      <trkpt lat="43.77374" lon="3.39053">
        <ele>339.96</ele>
        <time>2012-10-11T13:29:56Z</time>
      </trkpt>
      <trkpt lat="43.77338" lon="3.38932">
        <ele>334.68</ele>
        <time>2012-10-11T13:30:06Z</time>
      </trkpt>
      <trkpt lat="43.77299" lon="3.38805">
        <ele>328.91</ele>
        <time>2012-10-11T13:30:16Z</time>
      </trkpt>
      <trkpt lat="43.77246" lon="3.3869">
        <ele>323.62</ele>
        <time>2012-10-11T13:30:26Z</time>
      </trkpt>
      <trkpt lat="43.77202" lon="3.38578">
        <ele>318.33</ele>
        <time>2012-10-11T13:30:35Z</time>
      </trkpt>
      <trkpt lat="43.77162" lon="3.3845">
        <ele>312.09</ele>
        <time>2012-10-11T13:30:45Z</time>
      </trkpt>
      <trkpt lat="43.77098" lon="3.38365">
        <ele>306.32</ele>
        <time>2012-10-11T13:30:54Z</time>
      </trkpt>
      <trkpt lat="43.77035" lon="3.38265">
        <ele>301.03</ele>
        <time>2012-10-11T13:31:04Z</time>
      </trkpt>
      <trkpt lat="43.76972" lon="3.38166">
        <ele>298.63</ele>
        <time>2012-10-11T13:31:15Z</time>
      </trkpt>
      <trkpt lat="43.7692" lon="3.3806">
        <ele>296.7</ele>
        <time>2012-10-11T13:31:27Z</time>
      </trkpt>
      <trkpt lat="43.76902" lon="3.37932">
        <ele>295.26</ele>
        <time>2012-10-11T13:31:41Z</time>
      </trkpt>
      <trkpt lat="43.76899" lon="3.37798">
        <ele>292.86</ele>
        <time>2012-10-11T13:31:56Z</time>
      </trkpt>
      <trkpt lat="43.76921" lon="3.37668">
        <ele>289.97</ele>
        <time>2012-10-11T13:32:10Z</time>
      </trkpt>
      <trkpt lat="43.76981" lon="3.37564">
        <ele>287.09</ele>
        <time>2012-10-11T13:32:24Z</time>
      </trkpt>
      <trkpt lat="43.7703" lon="3.37464">
        <ele>285.17</ele>
        <time>2012-10-11T13:32:38Z</time>
      </trkpt>
      <trkpt lat="43.76982" lon="3.37352">
        <ele>285.17</ele>
        <time>2012-10-11T13:32:52Z</time>
      </trkpt>
      <trkpt lat="43.76931" lon="3.37243">
        <ele>285.17</ele>
        <time>2012-10-11T13:33:08Z</time>
      </trkpt>
      <trkpt lat="43.76882" lon="3.37137">
        <ele>284.21</ele>
        <time>2012-10-11T13:33:25Z</time>
      </trkpt>
      <trkpt lat="43.76818" lon="3.3704">
        <ele>284.69</ele>
        <time>2012-10-11T13:33:41Z</time>
      </trkpt>
      <trkpt lat="43.76758" lon="3.36944">
        <ele>284.21</ele>
        <time>2012-10-11T13:33:58Z</time>
      </trkpt>
      <trkpt lat="43.767" lon="3.36847">
        <ele>284.69</ele>
        <time>2012-10-11T13:34:15Z</time>
      </trkpt>
      <trkpt lat="43.76643" lon="3.36751">
        <ele>283.73</ele>
        <time>2012-10-11T13:34:32Z</time>
      </trkpt>
      <trkpt lat="43.76597" lon="3.36643">
        <ele>282.77</ele>
        <time>2012-10-11T13:34:46Z</time>
      </trkpt>
      <trkpt lat="43.76546" lon="3.36528">
        <ele>281.32</ele>
        <time>2012-10-11T13:35:00Z</time>
      </trkpt>
      <trkpt lat="43.76496" lon="3.36411">
        <ele>279.4</ele>
        <time>2012-10-11T13:35:13Z</time>
      </trkpt>
      <trkpt lat="43.76448" lon="3.36302">
        <ele>275.56</ele>
        <time>2012-10-11T13:35:24Z</time>
      </trkpt>
      <trkpt lat="43.76403" lon="3.36193">
        <ele>271.71</ele>
        <time>2012-10-11T13:35:35Z</time>
      </trkpt>
      <trkpt lat="43.76388" lon="3.36074">
        <ele>268.35</ele>
        <time>2012-10-11T13:35:47Z</time>
      </trkpt>
      <trkpt lat="43.76414" lon="3.35982">
        <ele>264.02</ele>
        <time>2012-10-11T13:40:42Z</time>
      </trkpt>
      <trkpt lat="43.76453" lon="3.35863">
        <ele>262.1</ele>
        <time>2012-10-11T13:41:01Z</time>
      </trkpt>
      <trkpt lat="43.76494" lon="3.35742">
        <ele>260.65</ele>
        <time>2012-10-11T13:41:16Z</time>
      </trkpt>
      <trkpt lat="43.76534" lon="3.35622">
        <ele>257.77</ele>
        <time>2012-10-11T13:41:30Z</time>
      </trkpt>
      <trkpt lat="43.76573" lon="3.35509">
        <ele>255.85</ele>
        <time>2012-10-11T13:41:43Z</time>
      </trkpt>
      <trkpt lat="43.76612" lon="3.35387">
        <ele>252.96</ele>
        <time>2012-10-11T13:41:57Z</time>
      </trkpt>
      <trkpt lat="43.76631" lon="3.35263">
        <ele>251.04</ele>
        <time>2012-10-11T13:42:12Z</time>
      </trkpt>
      <trkpt lat="43.76608" lon="3.35131">
        <ele>250.56</ele>
        <time>2012-10-11T13:42:28Z</time>
      </trkpt>
      <trkpt lat="43.76587" lon="3.35001">
        <ele>250.56</ele>
        <time>2012-10-11T13:42:45Z</time>
      </trkpt>
      <trkpt lat="43.76576" lon="3.34871">
        <ele>250.56</ele>
        <time>2012-10-11T13:43:03Z</time>
      </trkpt>
      <trkpt lat="43.76584" lon="3.34736">
        <ele>250.08</ele>
        <time>2012-10-11T13:43:21Z</time>
      </trkpt>
      <trkpt lat="43.76585" lon="3.34607">
        <ele>248.16</ele>
        <time>2012-10-11T13:43:36Z</time>
      </trkpt>
      <trkpt lat="43.76583" lon="3.34476">
        <ele>247.2</ele>
        <time>2012-10-11T13:43:51Z</time>
      </trkpt>
      <trkpt lat="43.76576" lon="3.34343">
        <ele>247.2</ele>
        <time>2012-10-11T13:44:07Z</time>
      </trkpt>
      <trkpt lat="43.76575" lon="3.34225">
        <ele>245.75</ele>
        <time>2012-10-11T13:44:26Z</time>
      </trkpt>
      <trkpt lat="43.76591" lon="3.34101">
        <ele>247.2</ele>
        <time>2012-10-11T13:44:45Z</time>
      </trkpt>
      <trkpt lat="43.76611" lon="3.33964">
        <ele>248.64</ele>
        <time>2012-10-11T13:45:07Z</time>
      </trkpt>
      <trkpt lat="43.76576" lon="3.33842">
        <ele>247.2</ele>
        <time>2012-10-11T13:45:26Z</time>
      </trkpt>
      <trkpt lat="43.76532" lon="3.33723">
        <ele>244.79</ele>
        <time>2012-10-11T13:45:42Z</time>
      </trkpt>
      <trkpt lat="43.76487" lon="3.33602">
        <ele>242.87</ele>
        <time>2012-10-11T13:45:56Z</time>
      </trkpt>
      <trkpt lat="43.76445" lon="3.3349">
        <ele>239.99</ele>
        <time>2012-10-11T13:46:09Z</time>
      </trkpt>
      <trkpt lat="43.76402" lon="3.33373">
        <ele>237.1</ele>
        <time>2012-10-11T13:46:22Z</time>
      </trkpt>
      <trkpt lat="43.76334" lon="3.33283">
        <ele>235.18</ele>
        <time>2012-10-11T13:46:35Z</time>
      </trkpt>
      <trkpt lat="43.76249" lon="3.33227">
        <ele>231.33</ele>
        <time>2012-10-11T13:46:46Z</time>
      </trkpt>
      <trkpt lat="43.7617" lon="3.33164">
        <ele>228.93</ele>
        <time>2012-10-11T13:46:57Z</time>
      </trkpt>
      <trkpt lat="43.76095" lon="3.33082">
        <ele>229.41</ele>
        <time>2012-10-11T13:47:13Z</time>
      </trkpt>
      <trkpt lat="43.76016" lon="3.33017">
        <ele>227.01</ele>
        <time>2012-10-11T13:47:28Z</time>
      </trkpt>
      <trkpt lat="43.75924" lon="3.3298">
        <ele>225.09</ele>
        <time>2012-10-11T13:47:42Z</time>
      </trkpt>
      <trkpt lat="43.75828" lon="3.32974">
        <ele>222.2</ele>
        <time>2012-10-11T13:47:56Z</time>
      </trkpt>
      <trkpt lat="43.75733" lon="3.32989">
        <ele>218.84</ele>
        <time>2012-10-11T13:48:11Z</time>
      </trkpt>
      <trkpt lat="43.75636" lon="3.32992">
        <ele>212.59</ele>
        <time>2012-10-11T13:48:23Z</time>
      </trkpt>
      <trkpt lat="43.75561" lon="3.3298">
        <ele>207.78</ele>
        <time>2012-10-11T13:48:35Z</time>
      </trkpt>
      <trkpt lat="43.75489" lon="3.32994">
        <ele>208.26</ele>
        <time>2012-10-11T13:48:52Z</time>
      </trkpt>
      <trkpt lat="43.754" lon="3.32962">
        <ele>210.19</ele>
        <time>2012-10-11T13:49:10Z</time>
      </trkpt>
      <trkpt lat="43.75309" lon="3.32943">
        <ele>210.19</ele>
        <time>2012-10-11T13:49:27Z</time>
      </trkpt>
      <trkpt lat="43.75221" lon="3.32975">
        <ele>207.78</ele>
        <time>2012-10-11T13:49:42Z</time>
      </trkpt>
      <trkpt lat="43.75131" lon="3.33016">
        <ele>206.34</ele>
        <time>2012-10-11T13:49:58Z</time>
      </trkpt>
      <trkpt lat="43.75044" lon="3.33053">
        <ele>204.42</ele>
        <time>2012-10-11T13:50:13Z</time>
      </trkpt>
      <trkpt lat="43.74952" lon="3.33066">
        <ele>202.49</ele>
        <time>2012-10-11T13:50:29Z</time>
      </trkpt>
      <trkpt lat="43.74858" lon="3.33079">
        <ele>202.49</ele>
        <time>2012-10-11T13:50:44Z</time>
      </trkpt>
      <trkpt lat="43.74764" lon="3.33111">
        <ele>201.53</ele>
        <time>2012-10-11T13:50:59Z</time>
      </trkpt>
      <trkpt lat="43.74674" lon="3.33136">
        <ele>202.49</ele>
        <time>2012-10-11T13:51:15Z</time>
      </trkpt>
      <trkpt lat="43.74603" lon="3.3305">
        <ele>198.65</ele>
        <time>2012-10-11T13:51:29Z</time>
      </trkpt>
      <trkpt lat="43.74515" lon="3.32996">
        <ele>198.17</ele>
        <time>2012-10-11T13:51:43Z</time>
      </trkpt>
      <trkpt lat="43.74423" lon="3.33006">
        <ele>197.21</ele>
        <time>2012-10-11T13:51:57Z</time>
      </trkpt>
      <trkpt lat="43.7433" lon="3.33019">
        <ele>195.77</ele>
        <time>2012-10-11T13:52:11Z</time>
      </trkpt>
      <trkpt lat="43.7424" lon="3.33018">
        <ele>194.8</ele>
        <time>2012-10-11T13:52:25Z</time>
      </trkpt>
      <trkpt lat="43.74144" lon="3.33007">
        <ele>194.8</ele>
        <time>2012-10-11T13:52:40Z</time>
      </trkpt>
      <trkpt lat="43.74051" lon="3.3301">
        <ele>193.36</ele>
        <time>2012-10-11T13:52:55Z</time>
      </trkpt>
      <trkpt lat="43.73959" lon="3.32985">
        <ele>193.84</ele>
        <time>2012-10-11T13:53:10Z</time>
      </trkpt>
      <trkpt lat="43.73879" lon="3.32924">
        <ele>191.92</ele>
        <time>2012-10-11T13:53:25Z</time>
      </trkpt>
      <trkpt lat="43.73847" lon="3.32812">
        <ele>191.44</ele>
        <time>2012-10-11T13:53:39Z</time>
      </trkpt>
      <trkpt lat="43.73857" lon="3.32688">
        <ele>190.96</ele>
        <time>2012-10-11T13:53:54Z</time>
      </trkpt>
      <trkpt lat="43.73877" lon="3.32582">
        <ele>190.96</ele>
        <time>2012-10-11T13:54:18Z</time>
      </trkpt>
      <trkpt lat="43.73842" lon="3.32661">
        <ele>190</ele>
        <time>2012-10-11T13:55:12Z</time>
      </trkpt>
      <trkpt lat="43.73854" lon="3.32556">
        <ele>189.52</ele>
        <time>2012-10-11T13:55:36Z</time>
      </trkpt>
      <trkpt lat="43.7378" lon="3.32476">
        <ele>186.63</ele>
        <time>2012-10-11T13:55:52Z</time>
      </trkpt>
      <trkpt lat="43.73704" lon="3.32391">
        <ele>184.23</ele>
        <time>2012-10-11T13:56:06Z</time>
      </trkpt>
      <trkpt lat="43.73631" lon="3.32307">
        <ele>183.27</ele>
        <time>2012-10-11T13:56:21Z</time>
      </trkpt>
      <trkpt lat="43.73558" lon="3.32224">
        <ele>181.83</ele>
        <time>2012-10-11T13:56:37Z</time>
      </trkpt>
      <trkpt lat="43.73486" lon="3.32149">
        <ele>181.35</ele>
        <time>2012-10-11T13:56:53Z</time>
      </trkpt>
      <trkpt lat="43.73417" lon="3.32065">
        <ele>183.27</ele>
        <time>2012-10-11T13:57:14Z</time>
      </trkpt>
      <trkpt lat="43.73348" lon="3.31989">
        <ele>185.19</ele>
        <time>2012-10-11T13:57:38Z</time>
      </trkpt>
      <trkpt lat="43.73279" lon="3.31906">
        <ele>187.59</ele>
        <time>2012-10-11T13:58:28Z</time>
      </trkpt>
      <trkpt lat="43.73275" lon="3.3194">
        <ele>188.08</ele>
        <time>2012-10-11T14:02:24Z</time>
      </trkpt>
      <trkpt lat="43.73285" lon="3.31916">
        <ele>186.63</ele>
        <time>2012-10-11T14:16:32Z</time>
      </trkpt>
      <trkpt lat="43.73255" lon="3.31997">
        <ele>187.59</ele>
        <time>2012-10-11T14:31:57Z</time>
      </trkpt>
      <trkpt lat="43.73199" lon="3.32095">
        <ele>184.23</ele>
        <time>2012-10-11T14:32:24Z</time>
      </trkpt>
      <trkpt lat="43.73118" lon="3.32148">
        <ele>182.79</ele>
        <time>2012-10-11T14:32:56Z</time>
      </trkpt>
      <trkpt lat="43.73057" lon="3.32135">
        <ele>184.71</ele>
        <time>2012-10-11T14:37:20Z</time>
      </trkpt>
      <trkpt lat="43.73068" lon="3.32137">
        <ele>183.27</ele>
        <time>2012-10-11T14:45:06Z</time>
      </trkpt>
      <trkpt lat="43.73072" lon="3.32003">
        <ele>183.27</ele>
        <time>2012-10-11T14:47:37Z</time>
      </trkpt>
      <trkpt lat="43.73003" lon="3.32032">
        <ele>180.87</ele>
        <time>2012-10-11T14:48:04Z</time>
      </trkpt>
      <trkpt lat="43.72986" lon="3.32163">
        <ele>177.98</ele>
        <time>2012-10-11T14:48:27Z</time>
      </trkpt>
      <trkpt lat="43.7303" lon="3.32281">
        <ele>175.58</ele>
        <time>2012-10-11T14:48:53Z</time>
      </trkpt>
      <trkpt lat="43.73107" lon="3.32341">
        <ele>176.54</ele>
        <time>2012-10-11T14:49:13Z</time>
      </trkpt>
      <trkpt lat="43.73049" lon="3.32409">
        <ele>175.1</ele>
        <time>2012-10-11T14:50:35Z</time>
      </trkpt>
      <trkpt lat="43.72961" lon="3.32454">
        <ele>175.58</ele>
        <time>2012-10-11T14:50:53Z</time>
      </trkpt>
      <trkpt lat="43.72871" lon="3.32479">
        <ele>175.58</ele>
        <time>2012-10-11T14:51:11Z</time>
      </trkpt>
      <trkpt lat="43.72788" lon="3.32414">
        <ele>174.62</ele>
        <time>2012-10-11T14:51:28Z</time>
      </trkpt>
      <trkpt lat="43.72703" lon="3.32348">
        <ele>173.17</ele>
        <time>2012-10-11T14:51:44Z</time>
      </trkpt>
      <trkpt lat="43.72623" lon="3.32285">
        <ele>172.69</ele>
        <time>2012-10-11T14:51:59Z</time>
      </trkpt>
      <trkpt lat="43.72554" lon="3.322">
        <ele>171.73</ele>
        <time>2012-10-11T14:52:15Z</time>
      </trkpt>
      <trkpt lat="43.72468" lon="3.32155">
        <ele>171.25</ele>
        <time>2012-10-11T14:52:29Z</time>
      </trkpt>
      <trkpt lat="43.72388" lon="3.32203">
        <ele>171.73</ele>
        <time>2012-10-11T14:52:44Z</time>
      </trkpt>
      <trkpt lat="43.72354" lon="3.32319">
        <ele>175.58</ele>
        <time>2012-10-11T14:53:08Z</time>
      </trkpt>
      <trkpt lat="43.72268" lon="3.32348">
        <ele>173.17</ele>
        <time>2012-10-11T14:53:29Z</time>
      </trkpt>
      <trkpt lat="43.72182" lon="3.32398">
        <ele>169.33</ele>
        <time>2012-10-11T14:53:40Z</time>
      </trkpt>
      <trkpt lat="43.72087" lon="3.32413">
        <ele>169.33</ele>
        <time>2012-10-11T14:53:54Z</time>
      </trkpt>
      <trkpt lat="43.71994" lon="3.32412">
        <ele>167.89</ele>
        <time>2012-10-11T14:54:08Z</time>
      </trkpt>
      <trkpt lat="43.719" lon="3.3241">
        <ele>168.85</ele>
        <time>2012-10-11T14:54:24Z</time>
      </trkpt>
      <trkpt lat="43.71811" lon="3.32409">
        <ele>168.37</ele>
        <time>2012-10-11T14:54:39Z</time>
      </trkpt>
      <trkpt lat="43.71714" lon="3.32408">
        <ele>165.96</ele>
        <time>2012-10-11T14:54:54Z</time>
      </trkpt>
      <trkpt lat="43.71622" lon="3.32407">
        <ele>165.96</ele>
        <time>2012-10-11T14:55:08Z</time>
      </trkpt>
      <trkpt lat="43.71526" lon="3.32406">
        <ele>164.04</ele>
        <time>2012-10-11T14:55:23Z</time>
      </trkpt>
      <trkpt lat="43.71435" lon="3.32398">
        <ele>163.56</ele>
        <time>2012-10-11T14:55:39Z</time>
      </trkpt>
      <trkpt lat="43.71343" lon="3.32402">
        <ele>163.08</ele>
        <time>2012-10-11T14:55:54Z</time>
      </trkpt>
      <trkpt lat="43.71253" lon="3.32403">
        <ele>162.12</ele>
        <time>2012-10-11T14:56:08Z</time>
      </trkpt>
      <trkpt lat="43.71164" lon="3.32417">
        <ele>159.72</ele>
        <time>2012-10-11T14:56:22Z</time>
      </trkpt>
      <trkpt lat="43.71073" lon="3.32462">
        <ele>158.27</ele>
        <time>2012-10-11T14:56:36Z</time>
      </trkpt>
      <trkpt lat="43.70988" lon="3.32512">
        <ele>156.35</ele>
        <time>2012-10-11T14:56:49Z</time>
      </trkpt>
      <trkpt lat="43.70902" lon="3.32562">
        <ele>156.35</ele>
        <time>2012-10-11T14:57:03Z</time>
      </trkpt>
      <trkpt lat="43.70815" lon="3.32611">
        <ele>155.87</ele>
        <time>2012-10-11T14:57:17Z</time>
      </trkpt>
      <trkpt lat="43.70731" lon="3.3266">
        <ele>155.39</ele>
        <time>2012-10-11T14:57:31Z</time>
      </trkpt>
      <trkpt lat="43.70647" lon="3.32708">
        <ele>153.95</ele>
        <time>2012-10-11T14:57:45Z</time>
      </trkpt>
      <trkpt lat="43.70563" lon="3.32757">
        <ele>153.47</ele>
        <time>2012-10-11T14:57:59Z</time>
      </trkpt>
      <trkpt lat="43.70473" lon="3.3281">
        <ele>152.03</ele>
        <time>2012-10-11T14:58:14Z</time>
      </trkpt>
      <trkpt lat="43.70388" lon="3.32859">
        <ele>151.54</ele>
        <time>2012-10-11T14:58:28Z</time>
      </trkpt>
      <trkpt lat="43.70298" lon="3.32912">
        <ele>151.54</ele>
        <time>2012-10-11T14:58:43Z</time>
      </trkpt>
      <trkpt lat="43.70215" lon="3.32959">
        <ele>150.58</ele>
        <time>2012-10-11T14:58:57Z</time>
      </trkpt>
      <trkpt lat="43.70132" lon="3.33008">
        <ele>150.1</ele>
        <time>2012-10-11T14:59:11Z</time>
      </trkpt>
      <trkpt lat="43.70045" lon="3.33057">
        <ele>149.14</ele>
        <time>2012-10-11T14:59:26Z</time>
      </trkpt>
      <trkpt lat="43.69957" lon="3.3311">
        <ele>149.62</ele>
        <time>2012-10-11T14:59:42Z</time>
      </trkpt>
      <trkpt lat="43.69881" lon="3.33188">
        <ele>149.62</ele>
        <time>2012-10-11T14:59:59Z</time>
      </trkpt>
      <trkpt lat="43.6983" lon="3.33294">
        <ele>147.7</ele>
        <time>2012-10-11T15:02:48Z</time>
      </trkpt>
      <trkpt lat="43.69798" lon="3.33416">
        <ele>147.22</ele>
        <time>2012-10-11T15:03:07Z</time>
      </trkpt>
      <trkpt lat="43.69787" lon="3.33541">
        <ele>146.26</ele>
        <time>2012-10-11T15:03:22Z</time>
      </trkpt>
      <trkpt lat="43.69774" lon="3.3367">
        <ele>144.34</ele>
        <time>2012-10-11T15:03:37Z</time>
      </trkpt>
      <trkpt lat="43.69756" lon="3.33793">
        <ele>142.89</ele>
        <time>2012-10-11T15:03:51Z</time>
      </trkpt>
      <trkpt lat="43.69706" lon="3.33898">
        <ele>141.93</ele>
        <time>2012-10-11T15:04:05Z</time>
      </trkpt>
      <trkpt lat="43.6965" lon="3.33997">
        <ele>140.97</ele>
        <time>2012-10-11T15:04:19Z</time>
      </trkpt>
      <trkpt lat="43.69595" lon="3.34103">
        <ele>140.49</ele>
        <time>2012-10-11T15:04:34Z</time>
      </trkpt>
      <trkpt lat="43.6954" lon="3.34202">
        <ele>140.01</ele>
        <time>2012-10-11T15:04:49Z</time>
      </trkpt>
      <trkpt lat="43.69453" lon="3.34243">
        <ele>140.49</ele>
        <time>2012-10-11T15:05:05Z</time>
      </trkpt>
      <trkpt lat="43.69364" lon="3.34269">
        <ele>141.45</ele>
        <time>2012-10-11T15:05:22Z</time>
      </trkpt>
      <trkpt lat="43.69274" lon="3.3425">
        <ele>142.89</ele>
        <time>2012-10-11T15:05:40Z</time>
      </trkpt>
      <trkpt lat="43.69221" lon="3.34341">
        <ele>141.45</ele>
        <time>2012-10-11T15:05:58Z</time>
      </trkpt>
      <trkpt lat="43.6922" lon="3.34463">
        <ele>138.57</ele>
        <time>2012-10-11T15:06:12Z</time>
      </trkpt>
      <trkpt lat="43.69225" lon="3.34596">
        <ele>136.16</ele>
        <time>2012-10-11T15:06:24Z</time>
      </trkpt>
      <trkpt lat="43.69193" lon="3.34714">
        <ele>134.72</ele>
        <time>2012-10-11T15:06:36Z</time>
      </trkpt>
      <trkpt lat="43.69156" lon="3.34827">
        <ele>132.32</ele>
        <time>2012-10-11T15:06:49Z</time>
      </trkpt>
      <trkpt lat="43.69096" lon="3.34929">
        <ele>131.36</ele>
        <time>2012-10-11T15:07:03Z</time>
      </trkpt>
      <trkpt lat="43.69034" lon="3.35024">
        <ele>130.88</ele>
        <time>2012-10-11T15:07:17Z</time>
      </trkpt>
      <trkpt lat="43.68972" lon="3.3512">
        <ele>130.4</ele>
        <time>2012-10-11T15:07:32Z</time>
      </trkpt>
      <trkpt lat="43.68909" lon="3.35218">
        <ele>130.4</ele>
        <time>2012-10-11T15:07:49Z</time>
      </trkpt>
      <trkpt lat="43.68847" lon="3.35315">
        <ele>129.43</ele>
        <time>2012-10-11T15:08:05Z</time>
      </trkpt>
      <trkpt lat="43.68785" lon="3.35409">
        <ele>129.92</ele>
        <time>2012-10-11T15:08:21Z</time>
      </trkpt>
      <trkpt lat="43.68722" lon="3.35507">
        <ele>129.43</ele>
        <time>2012-10-11T15:08:38Z</time>
      </trkpt>
      <trkpt lat="43.68652" lon="3.3559">
        <ele>129.92</ele>
        <time>2012-10-11T15:08:55Z</time>
      </trkpt>
      <trkpt lat="43.68569" lon="3.35649">
        <ele>130.88</ele>
        <time>2012-10-11T15:09:12Z</time>
      </trkpt>
      <trkpt lat="43.68491" lon="3.35719">
        <ele>130.88</ele>
        <time>2012-10-11T15:09:31Z</time>
      </trkpt>
      <trkpt lat="43.68437" lon="3.35783">
        <ele>127.99</ele>
        <time>2012-10-11T15:10:22Z</time>
      </trkpt>
      <trkpt lat="43.68473" lon="3.35891">
        <ele>127.99</ele>
        <time>2012-10-11T15:10:40Z</time>
      </trkpt>
      <trkpt lat="43.68479" lon="3.36018">
        <ele>126.55</ele>
        <time>2012-10-11T15:10:54Z</time>
      </trkpt>
      <trkpt lat="43.68486" lon="3.36146">
        <ele>124.15</ele>
        <time>2012-10-11T15:11:07Z</time>
      </trkpt>
      <trkpt lat="43.68492" lon="3.36275">
        <ele>124.15</ele>
        <time>2012-10-11T15:11:21Z</time>
      </trkpt>
      <trkpt lat="43.68493" lon="3.36402">
        <ele>124.63</ele>
        <time>2012-10-11T15:11:37Z</time>
      </trkpt>
      <trkpt lat="43.68487" lon="3.36527">
        <ele>126.55</ele>
        <time>2012-10-11T15:11:58Z</time>
      </trkpt>
      <trkpt lat="43.68473" lon="3.36655">
        <ele>127.03</ele>
        <time>2012-10-11T15:12:19Z</time>
      </trkpt>
      <trkpt lat="43.68449" lon="3.36774">
        <ele>125.59</ele>
        <time>2012-10-11T15:12:35Z</time>
      </trkpt>
      <trkpt lat="43.68417" lon="3.36898">
        <ele>123.67</ele>
        <time>2012-10-11T15:12:49Z</time>
      </trkpt>
      <trkpt lat="43.68384" lon="3.37024">
        <ele>121.26</ele>
        <time>2012-10-11T15:13:02Z</time>
      </trkpt>
      <trkpt lat="43.68346" lon="3.37137">
        <ele>119.34</ele>
        <time>2012-10-11T15:13:14Z</time>
      </trkpt>
      <trkpt lat="43.68304" lon="3.37253">
        <ele>117.9</ele>
        <time>2012-10-11T15:13:27Z</time>
      </trkpt>
      <trkpt lat="43.68261" lon="3.37371">
        <ele>115.98</ele>
        <time>2012-10-11T15:13:40Z</time>
      </trkpt>
      <trkpt lat="43.68221" lon="3.37485">
        <ele>114.05</ele>
        <time>2012-10-11T15:13:52Z</time>
      </trkpt>
      <trkpt lat="43.68179" lon="3.37602">
        <ele>113.09</ele>
        <time>2012-10-11T15:14:05Z</time>
      </trkpt>
      <trkpt lat="43.68121" lon="3.37707">
        <ele>113.09</ele>
        <time>2012-10-11T15:14:19Z</time>
      </trkpt>
      <trkpt lat="43.6807" lon="3.37808">
        <ele>113.57</ele>
        <time>2012-10-11T15:14:34Z</time>
      </trkpt>
      <trkpt lat="43.68042" lon="3.37928">
        <ele>115.5</ele>
        <time>2012-10-11T15:14:50Z</time>
      </trkpt>
      <trkpt lat="43.6802" lon="3.3805">
        <ele>116.46</ele>
        <time>2012-10-11T15:15:06Z</time>
      </trkpt>
      <trkpt lat="43.67996" lon="3.38179">
        <ele>115.5</ele>
        <time>2012-10-11T15:15:23Z</time>
      </trkpt>
      <trkpt lat="43.67977" lon="3.38304">
        <ele>114.05</ele>
        <time>2012-10-11T15:15:38Z</time>
      </trkpt>
      <trkpt lat="43.67966" lon="3.38434">
        <ele>110.69</ele>
        <time>2012-10-11T15:15:53Z</time>
      </trkpt>
      <trkpt lat="43.67966" lon="3.38564">
        <ele>109.73</ele>
        <time>2012-10-11T15:16:07Z</time>
      </trkpt>
      <trkpt lat="43.67967" lon="3.38695">
        <ele>108.29</ele>
        <time>2012-10-11T15:16:21Z</time>
      </trkpt>
      <trkpt lat="43.67968" lon="3.38819">
        <ele>107.81</ele>
        <time>2012-10-11T15:16:34Z</time>
      </trkpt>
      <trkpt lat="43.67968" lon="3.38949">
        <ele>105.88</ele>
        <time>2012-10-11T15:16:47Z</time>
      </trkpt>
      <trkpt lat="43.67975" lon="3.39082">
        <ele>104.44</ele>
        <time>2012-10-11T15:17:00Z</time>
      </trkpt>
      <trkpt lat="43.67985" lon="3.39211">
        <ele>103.96</ele>
        <time>2012-10-11T15:17:13Z</time>
      </trkpt>
      <trkpt lat="43.67979" lon="3.39336">
        <ele>102.52</ele>
        <time>2012-10-11T15:17:26Z</time>
      </trkpt>
      <trkpt lat="43.6796" lon="3.39467">
        <ele>103</ele>
        <time>2012-10-11T15:17:40Z</time>
      </trkpt>
      <trkpt lat="43.67942" lon="3.3959">
        <ele>102.52</ele>
        <time>2012-10-11T15:17:54Z</time>
      </trkpt>
      <trkpt lat="43.67924" lon="3.39715">
        <ele>103</ele>
        <time>2012-10-11T15:18:09Z</time>
      </trkpt>
      <trkpt lat="43.67906" lon="3.39838">
        <ele>103.96</ele>
        <time>2012-10-11T15:18:24Z</time>
      </trkpt>
      <trkpt lat="43.67889" lon="3.39961">
        <ele>103</ele>
        <time>2012-10-11T15:18:40Z</time>
      </trkpt>
      <trkpt lat="43.67871" lon="3.40087">
        <ele>103.96</ele>
        <time>2012-10-11T15:18:57Z</time>
      </trkpt>
      <trkpt lat="43.67852" lon="3.40212">
        <ele>103</ele>
        <time>2012-10-11T15:19:12Z</time>
      </trkpt>
      <trkpt lat="43.67832" lon="3.40335">
        <ele>102.04</ele>
        <time>2012-10-11T15:19:26Z</time>
      </trkpt>
      <trkpt lat="43.67814" lon="3.40461">
        <ele>101.08</ele>
        <time>2012-10-11T15:19:40Z</time>
      </trkpt>
      <trkpt lat="43.67789" lon="3.40584">
        <ele>103</ele>
        <time>2012-10-11T15:19:56Z</time>
      </trkpt>
      <trkpt lat="43.67712" lon="3.40654">
        <ele>103.48</ele>
        <time>2012-10-11T15:20:14Z</time>
      </trkpt>
      <trkpt lat="43.67649" lon="3.4073">
        <ele>103</ele>
        <time>2012-10-11T15:20:34Z</time>
      </trkpt>
      <trkpt lat="43.67561" lon="3.40733">
        <ele>100.11</ele>
        <time>2012-10-11T15:25:10Z</time>
      </trkpt>
      <trkpt lat="43.6747" lon="3.40719">
        <ele>98.19</ele>
        <time>2012-10-11T15:25:32Z</time>
      </trkpt>
      <trkpt lat="43.67378" lon="3.40704">
        <ele>98.19</ele>
        <time>2012-10-11T15:25:50Z</time>
      </trkpt>
      <trkpt lat="43.67304" lon="3.40764">
        <ele>102.52</ele>
        <time>2012-10-11T15:26:17Z</time>
      </trkpt>
      <trkpt lat="43.67233" lon="3.40832">
        <ele>108.29</ele>
        <time>2012-10-11T15:26:47Z</time>
      </trkpt>
      <trkpt lat="43.67188" lon="3.40944">
        <ele>109.25</ele>
        <time>2012-10-11T15:27:15Z</time>
      </trkpt>
      <trkpt lat="43.67138" lon="3.41051">
        <ele>108.29</ele>
        <time>2012-10-11T15:27:36Z</time>
      </trkpt>
      <trkpt lat="43.67068" lon="3.41136">
        <ele>106.36</ele>
        <time>2012-10-11T15:27:53Z</time>
      </trkpt>
      <trkpt lat="43.67013" lon="3.41238">
        <ele>103.48</ele>
        <time>2012-10-11T15:28:11Z</time>
      </trkpt>
      <trkpt lat="43.66994" lon="3.41333">
        <ele>95.31</ele>
        <time>2012-10-11T15:28:25Z</time>
      </trkpt>
      <trkpt lat="43.66917" lon="3.41408">
        <ele>91.94</ele>
        <time>2012-10-11T15:28:36Z</time>
      </trkpt>
      <trkpt lat="43.66851" lon="3.41491">
        <ele>94.35</ele>
        <time>2012-10-11T15:28:54Z</time>
      </trkpt>
      <trkpt lat="43.66808" lon="3.416">
        <ele>95.79</ele>
        <time>2012-10-11T15:29:16Z</time>
      </trkpt>
      <trkpt lat="43.66788" lon="3.41723">
        <ele>94.35</ele>
        <time>2012-10-11T15:30:06Z</time>
      </trkpt>
      <trkpt lat="43.66751" lon="3.41841">
        <ele>92.9</ele>
        <time>2012-10-11T15:30:24Z</time>
      </trkpt>
      <trkpt lat="43.66729" lon="3.41967">
        <ele>90.98</ele>
        <time>2012-10-11T15:30:40Z</time>
      </trkpt>
      <trkpt lat="43.66697" lon="3.42082">
        <ele>89.54</ele>
        <time>2012-10-11T15:30:54Z</time>
      </trkpt>
      <trkpt lat="43.66687" lon="3.4221">
        <ele>90.98</ele>
        <time>2012-10-11T15:31:13Z</time>
      </trkpt>
      <trkpt lat="43.66662" lon="3.42333">
        <ele>93.39</ele>
        <time>2012-10-11T15:31:36Z</time>
      </trkpt>
      <trkpt lat="43.66635" lon="3.4246">
        <ele>94.35</ele>
        <time>2012-10-11T15:31:58Z</time>
      </trkpt>
      <trkpt lat="43.666" lon="3.42578">
        <ele>94.35</ele>
        <time>2012-10-11T15:32:17Z</time>
      </trkpt>
      <trkpt lat="43.66567" lon="3.42697">
        <ele>96.27</ele>
        <time>2012-10-11T15:32:37Z</time>
      </trkpt>
      <trkpt lat="43.66567" lon="3.42829">
        <ele>96.27</ele>
        <time>2012-10-11T15:32:56Z</time>
      </trkpt>
      <trkpt lat="43.66547" lon="3.42953">
        <ele>96.27</ele>
        <time>2012-10-11T15:33:14Z</time>
      </trkpt>
      <trkpt lat="43.66545" lon="3.43083">
        <ele>96.27</ele>
        <time>2012-10-11T15:33:32Z</time>
      </trkpt>
      <trkpt lat="43.66484" lon="3.43151">
        <ele>95.79</ele>
        <time>2012-10-11T15:33:49Z</time>
      </trkpt>
      <trkpt lat="43.66391" lon="3.43127">
        <ele>93.87</ele>
        <time>2012-10-11T15:34:05Z</time>
      </trkpt>
      <trkpt lat="43.66302" lon="3.43104">
        <ele>91.94</ele>
        <time>2012-10-11T15:34:21Z</time>
      </trkpt>
      <trkpt lat="43.66208" lon="3.43081">
        <ele>92.9</ele>
        <time>2012-10-11T15:34:38Z</time>
      </trkpt>
      <trkpt lat="43.66118" lon="3.43056">
        <ele>92.9</ele>
        <time>2012-10-11T15:34:55Z</time>
      </trkpt>
      <trkpt lat="43.6604" lon="3.43093">
        <ele>93.39</ele>
        <time>2012-10-11T15:35:13Z</time>
      </trkpt>
      <trkpt lat="43.6598" lon="3.43167">
        <ele>92.42</ele>
        <time>2012-10-11T15:35:31Z</time>
      </trkpt>
      <trkpt lat="43.65922" lon="3.43269">
        <ele>92.42</ele>
        <time>2012-10-11T15:35:48Z</time>
      </trkpt>
      <trkpt lat="43.6585" lon="3.43343">
        <ele>91.46</ele>
        <time>2012-10-11T15:36:03Z</time>
      </trkpt>
      <trkpt lat="43.65774" lon="3.4333">
        <ele>92.9</ele>
        <time>2012-10-11T15:36:24Z</time>
      </trkpt>
      <trkpt lat="43.65722" lon="3.43224">
        <ele>99.63</ele>
        <time>2012-10-11T15:36:58Z</time>
      </trkpt>
      <trkpt lat="43.65679" lon="3.43112">
        <ele>104.44</ele>
        <time>2012-10-11T15:37:31Z</time>
      </trkpt>
      <trkpt lat="43.6567" lon="3.43199">
        <ele>108.29</ele>
        <time>2012-10-11T15:38:02Z</time>
      </trkpt>
      <trkpt lat="43.65654" lon="3.43313">
        <ele>113.57</ele>
        <time>2012-10-11T15:38:31Z</time>
      </trkpt>
      <trkpt lat="43.65571" lon="3.43369">
        <ele>118.86</ele>
        <time>2012-10-11T15:38:59Z</time>
      </trkpt>
      <trkpt lat="43.6548" lon="3.43412">
        <ele>123.19</ele>
        <time>2012-10-11T15:39:32Z</time>
      </trkpt>
      <trkpt lat="43.65391" lon="3.43447">
        <ele>127.99</ele>
        <time>2012-10-11T15:40:05Z</time>
      </trkpt>
      <trkpt lat="43.65298" lon="3.43491">
        <ele>133.76</ele>
        <time>2012-10-11T15:40:38Z</time>
      </trkpt>
      <trkpt lat="43.65217" lon="3.43557">
        <ele>138.57</ele>
        <time>2012-10-11T15:41:09Z</time>
      </trkpt>
      <trkpt lat="43.65132" lon="3.43617">
        <ele>143.37</ele>
        <time>2012-10-11T15:41:39Z</time>
      </trkpt>
      <trkpt lat="43.65044" lon="3.43663">
        <ele>147.7</ele>
        <time>2012-10-11T15:42:08Z</time>
      </trkpt>
      <trkpt lat="43.64956" lon="3.43707">
        <ele>152.51</ele>
        <time>2012-10-11T15:42:37Z</time>
      </trkpt>
      <trkpt lat="43.64864" lon="3.43744">
        <ele>157.79</ele>
        <time>2012-10-11T15:43:05Z</time>
      </trkpt>
      <trkpt lat="43.64768" lon="3.43769">
        <ele>157.31</ele>
        <time>2012-10-11T15:43:27Z</time>
      </trkpt>
      <trkpt lat="43.64674" lon="3.43735">
        <ele>164.04</ele>
        <time>2012-10-11T15:43:59Z</time>
      </trkpt>
      <trkpt lat="43.64579" lon="3.43712">
        <ele>171.73</ele>
        <time>2012-10-11T15:44:39Z</time>
      </trkpt>
      <trkpt lat="43.64514" lon="3.43641">
        <ele>176.06</ele>
        <time>2012-10-11T15:45:13Z</time>
      </trkpt>
      <trkpt lat="43.64516" lon="3.43513">
        <ele>171.25</ele>
        <time>2012-10-11T15:45:41Z</time>
      </trkpt>
      <trkpt lat="43.64433" lon="3.43455">
        <ele>166.45</ele>
        <time>2012-10-11T15:46:24Z</time>
      </trkpt>
      <trkpt lat="43.64343" lon="3.43404">
        <ele>158.75</ele>
        <time>2012-10-11T15:46:37Z</time>
      </trkpt>
      <trkpt lat="43.64247" lon="3.43397">
        <ele>152.99</ele>
        <time>2012-10-11T15:46:47Z</time>
      </trkpt>
      <trkpt lat="43.64161" lon="3.43433">
        <ele>144.82</ele>
        <time>2012-10-11T15:46:58Z</time>
      </trkpt>
      <trkpt lat="43.64213" lon="3.43353">
        <ele>138.57</ele>
        <time>2012-10-11T15:47:15Z</time>
      </trkpt>
      <trkpt lat="43.64299" lon="3.43291">
        <ele>132.8</ele>
        <time>2012-10-11T15:47:27Z</time>
      </trkpt>
      <trkpt lat="43.64377" lon="3.43249">
        <ele>127.03</ele>
        <time>2012-10-11T15:47:41Z</time>
      </trkpt>
      <trkpt lat="43.64274" lon="3.43255">
        <ele>122.71</ele>
        <time>2012-10-11T15:47:55Z</time>
      </trkpt>
      <trkpt lat="43.64185" lon="3.4329">
        <ele>117.9</ele>
        <time>2012-10-11T15:48:06Z</time>
      </trkpt>
      <trkpt lat="43.64101" lon="3.43283">
        <ele>111.65</ele>
        <time>2012-10-11T15:48:18Z</time>
      </trkpt>
      <trkpt lat="43.64015" lon="3.43294">
        <ele>110.69</ele>
        <time>2012-10-11T15:48:31Z</time>
      </trkpt>
      <trkpt lat="43.63961" lon="3.43402">
        <ele>108.29</ele>
        <time>2012-10-11T15:48:44Z</time>
      </trkpt>
      <trkpt lat="43.63873" lon="3.43417">
        <ele>107.32</ele>
        <time>2012-10-11T15:48:59Z</time>
      </trkpt>
      <trkpt lat="43.63781" lon="3.43401">
        <ele>103.96</ele>
        <time>2012-10-11T15:49:13Z</time>
      </trkpt>
      <trkpt lat="43.6369" lon="3.43388">
        <ele>101.08</ele>
        <time>2012-10-11T15:49:25Z</time>
      </trkpt>
      <trkpt lat="43.63599" lon="3.43369">
        <ele>104.44</ele>
        <time>2012-10-11T15:49:46Z</time>
      </trkpt>
      <trkpt lat="43.63515" lon="3.43319">
        <ele>105.88</ele>
        <time>2012-10-11T15:50:09Z</time>
      </trkpt>
      <trkpt lat="43.63465" lon="3.43223">
        <ele>106.36</ele>
        <time>2012-10-11T15:50:30Z</time>
      </trkpt>
      <trkpt lat="43.63546" lon="3.4323">
        <ele>112.13</ele>
        <time>2012-10-11T15:51:04Z</time>
      </trkpt>
      <trkpt lat="43.63635" lon="3.43241">
        <ele>115.01</ele>
        <time>2012-10-11T15:51:37Z</time>
      </trkpt>
      <trkpt lat="43.63707" lon="3.43151">
        <ele>114.05</ele>
        <time>2012-10-11T15:51:52Z</time>
      </trkpt>
      <trkpt lat="43.63756" lon="3.43039">
        <ele>115.98</ele>
        <time>2012-10-11T15:52:10Z</time>
      </trkpt>
      <trkpt lat="43.63787" lon="3.42918">
        <ele>118.38</ele>
        <time>2012-10-11T15:52:32Z</time>
      </trkpt>
      <trkpt lat="43.63849" lon="3.42844">
        <ele>115.5</ele>
        <time>2012-10-11T15:52:57Z</time>
      </trkpt>
      <trkpt lat="43.6393" lon="3.42796">
        <ele>121.74</ele>
        <time>2012-10-11T15:53:26Z</time>
      </trkpt>
      <trkpt lat="43.64006" lon="3.42724">
        <ele>135.2</ele>
        <time>2012-10-11T15:54:27Z</time>
      </trkpt>
      <trkpt lat="43.64089" lon="3.42679">
        <ele>143.85</ele>
        <time>2012-10-11T15:55:21Z</time>
      </trkpt>
      <trkpt lat="43.64165" lon="3.42628">
        <ele>154.91</ele>
        <time>2012-10-11T15:56:18Z</time>
      </trkpt>
      <trkpt lat="43.64147" lon="3.42502">
        <ele>162.12</ele>
        <time>2012-10-11T15:57:06Z</time>
      </trkpt>
      <trkpt lat="43.64102" lon="3.42394">
        <ele>169.81</ele>
        <time>2012-10-11T15:57:49Z</time>
      </trkpt>
      <trkpt lat="43.64035" lon="3.42314">
        <ele>168.85</ele>
        <time>2012-10-11T15:58:21Z</time>
      </trkpt>
      <trkpt lat="43.63964" lon="3.42223">
        <ele>161.64</ele>
        <time>2012-10-11T15:58:36Z</time>
      </trkpt>
      <trkpt lat="43.63973" lon="3.42115">
        <ele>159.24</ele>
        <time>2012-10-11T15:59:04Z</time>
      </trkpt>
      <trkpt lat="43.63988" lon="3.41985">
        <ele>167.41</ele>
        <time>2012-10-11T15:59:40Z</time>
      </trkpt>
      <trkpt lat="43.63936" lon="3.41912">
        <ele>179.42</ele>
        <time>2012-10-11T16:00:21Z</time>
      </trkpt>
      <trkpt lat="43.63966" lon="3.41868">
        <ele>183.27</ele>
        <time>2012-10-11T16:01:02Z</time>
      </trkpt>
      <trkpt lat="43.64039" lon="3.41794">
        <ele>188.56</ele>
        <time>2012-10-11T16:01:34Z</time>
      </trkpt>
      <trkpt lat="43.64055" lon="3.41678">
        <ele>190</ele>
        <time>2012-10-11T16:02:01Z</time>
      </trkpt>
      <trkpt lat="43.64019" lon="3.41563">
        <ele>189.04</ele>
        <time>2012-10-11T16:02:18Z</time>
      </trkpt>
      <trkpt lat="43.64008" lon="3.41434">
        <ele>187.59</ele>
        <time>2012-10-11T16:02:34Z</time>
      </trkpt>
      <trkpt lat="43.64029" lon="3.41326">
        <ele>186.63</ele>
        <time>2012-10-11T16:02:50Z</time>
      </trkpt>
      <trkpt lat="43.64073" lon="3.41212">
        <ele>191.44</ele>
        <time>2012-10-11T16:03:14Z</time>
      </trkpt>
      <trkpt lat="43.64108" lon="3.41091">
        <ele>193.84</ele>
        <time>2012-10-11T16:03:43Z</time>
      </trkpt>
      <trkpt lat="43.64168" lon="3.40985">
        <ele>197.69</ele>
        <time>2012-10-11T16:04:11Z</time>
      </trkpt>
      <trkpt lat="43.64205" lon="3.40868">
        <ele>201.05</ele>
        <time>2012-10-11T16:04:36Z</time>
      </trkpt>
      <trkpt lat="43.64233" lon="3.40746">
        <ele>202.01</ele>
        <time>2012-10-11T16:05:02Z</time>
      </trkpt>
      <trkpt lat="43.64253" lon="3.40624">
        <ele>198.65</ele>
        <time>2012-10-11T16:05:17Z</time>
      </trkpt>
      <trkpt lat="43.64234" lon="3.405">
        <ele>196.25</ele>
        <time>2012-10-11T16:05:29Z</time>
      </trkpt>
      <trkpt lat="43.6421" lon="3.40378">
        <ele>191.44</ele>
        <time>2012-10-11T16:06:15Z</time>
      </trkpt>
      <trkpt lat="43.64187" lon="3.40251">
        <ele>188.56</ele>
        <time>2012-10-11T16:06:30Z</time>
      </trkpt>
      <trkpt lat="43.64163" lon="3.40127">
        <ele>185.67</ele>
        <time>2012-10-11T16:06:43Z</time>
      </trkpt>
      <trkpt lat="43.64135" lon="3.40007">
        <ele>180.87</ele>
        <time>2012-10-11T16:06:55Z</time>
      </trkpt>
      <trkpt lat="43.64119" lon="3.39881">
        <ele>177.98</ele>
        <time>2012-10-11T16:07:07Z</time>
      </trkpt>
      <trkpt lat="43.64155" lon="3.39768">
        <ele>172.69</ele>
        <time>2012-10-11T16:07:18Z</time>
      </trkpt>
      <trkpt lat="43.64201" lon="3.39656">
        <ele>169.81</ele>
        <time>2012-10-11T16:07:29Z</time>
      </trkpt>
      <trkpt lat="43.64247" lon="3.39545">
        <ele>165.48</ele>
        <time>2012-10-11T16:07:40Z</time>
      </trkpt>
      <trkpt lat="43.64293" lon="3.39433">
        <ele>161.64</ele>
        <time>2012-10-11T16:07:51Z</time>
      </trkpt>
      <trkpt lat="43.64339" lon="3.39322">
        <ele>158.27</ele>
        <time>2012-10-11T16:08:02Z</time>
      </trkpt>
      <trkpt lat="43.64384" lon="3.39213">
        <ele>155.87</ele>
        <time>2012-10-11T16:08:14Z</time>
      </trkpt>
      <trkpt lat="43.64428" lon="3.39104">
        <ele>153.47</ele>
        <time>2012-10-11T16:08:27Z</time>
      </trkpt>
      <trkpt lat="43.64491" lon="3.39017">
        <ele>151.06</ele>
        <time>2012-10-11T16:08:41Z</time>
      </trkpt>
      <trkpt lat="43.64553" lon="3.39008">
        <ele>149.14</ele>
        <time>2012-10-11T16:09:56Z</time>
      </trkpt>
      <trkpt lat="43.64556" lon="3.39018">
        <ele>150.1</ele>
        <time>2012-10-11T16:16:28Z</time>
      </trkpt>
      <trkpt lat="43.64562" lon="3.39067">
        <ele>151.54</ele>
        <time>2012-10-11T16:18:06Z</time>
      </trkpt>
      <trkpt lat="43.6459" lon="3.39178">
        <ele>152.51</ele>
        <time>2012-10-11T16:19:09Z</time>
      </trkpt>
      <trkpt lat="43.64562" lon="3.39166">
        <ele>149.14</ele>
        <time>2012-10-11T16:20:52Z</time>
      </trkpt>
      <trkpt lat="43.64562" lon="3.39167">
        <ele>150.58</ele>
        <time>2012-10-11T16:20:56Z</time>
      </trkpt>
      <trkpt lat="43.64561" lon="3.39169">
        <ele>141.45</ele>
        <time>2012-10-12T05:46:28Z</time>
      </trkpt>
      <trkpt lat="43.64564" lon="3.3917">
        <ele>148.66</ele>
        <time>2012-10-12T05:54:39Z</time>
      </trkpt>
      <trkpt lat="43.64557" lon="3.39152">
        <ele>147.22</ele>
        <time>2012-10-12T06:09:05Z</time>
      </trkpt>
      <trkpt lat="43.64567" lon="3.39033">
        <ele>150.1</ele>
        <time>2012-10-12T06:09:36Z</time>
      </trkpt>
      <trkpt lat="43.64551" lon="3.38987">
        <ele>152.99</ele>
        <time>2012-10-12T06:10:18Z</time>
      </trkpt>
      <trkpt lat="43.64469" lon="3.39017">
        <ele>157.31</ele>
        <time>2012-10-12T06:18:13Z</time>
      </trkpt>
      <trkpt lat="43.64417" lon="3.3912">
        <ele>159.72</ele>
        <time>2012-10-12T06:18:45Z</time>
      </trkpt>
      <trkpt lat="43.64372" lon="3.39228">
        <ele>162.12</ele>
        <time>2012-10-12T06:19:13Z</time>
      </trkpt>
      <trkpt lat="43.64327" lon="3.3934">
        <ele>164.52</ele>
        <time>2012-10-12T06:19:41Z</time>
      </trkpt>
      <trkpt lat="43.64281" lon="3.39451">
        <ele>167.41</ele>
        <time>2012-10-12T06:20:11Z</time>
      </trkpt>
      <trkpt lat="43.64234" lon="3.39561">
        <ele>170.77</ele>
        <time>2012-10-12T06:20:41Z</time>
      </trkpt>
      <trkpt lat="43.64187" lon="3.39677">
        <ele>175.1</ele>
        <time>2012-10-12T06:21:10Z</time>
      </trkpt>
      <trkpt lat="43.6414" lon="3.39793">
        <ele>179.9</ele>
        <time>2012-10-12T06:21:41Z</time>
      </trkpt>
      <trkpt lat="43.64115" lon="3.39913">
        <ele>184.23</ele>
        <time>2012-10-12T06:22:15Z</time>
      </trkpt>
      <trkpt lat="43.64135" lon="3.40041">
        <ele>187.59</ele>
        <time>2012-10-12T06:23:25Z</time>
      </trkpt>
      <trkpt lat="43.64163" lon="3.40164">
        <ele>191.44</ele>
        <time>2012-10-12T06:23:56Z</time>
      </trkpt>
      <trkpt lat="43.64189" lon="3.40292">
        <ele>194.8</ele>
        <time>2012-10-12T06:24:26Z</time>
      </trkpt>
      <trkpt lat="43.64212" lon="3.40415">
        <ele>198.65</ele>
        <time>2012-10-12T06:24:55Z</time>
      </trkpt>
      <trkpt lat="43.64235" lon="3.40538">
        <ele>202.49</ele>
        <time>2012-10-12T06:25:23Z</time>
      </trkpt>
      <trkpt lat="43.64245" lon="3.40663">
        <ele>205.38</ele>
        <time>2012-10-12T06:25:53Z</time>
      </trkpt>
      <trkpt lat="43.6422" lon="3.40786">
        <ele>209.7</ele>
        <time>2012-10-12T06:26:23Z</time>
      </trkpt>
      <trkpt lat="43.64189" lon="3.40912">
        <ele>207.3</ele>
        <time>2012-10-12T06:26:43Z</time>
      </trkpt>
      <trkpt lat="43.64141" lon="3.41018">
        <ele>203.94</ele>
        <time>2012-10-12T06:26:56Z</time>
      </trkpt>
      <trkpt lat="43.64089" lon="3.41128">
        <ele>201.05</ele>
        <time>2012-10-12T06:27:08Z</time>
      </trkpt>
      <trkpt lat="43.64054" lon="3.41253">
        <ele>197.21</ele>
        <time>2012-10-12T06:27:20Z</time>
      </trkpt>
      <trkpt lat="43.63998" lon="3.41351">
        <ele>194.32</ele>
        <time>2012-10-12T06:27:31Z</time>
      </trkpt>
      <trkpt lat="43.64007" lon="3.41477">
        <ele>194.8</ele>
        <time>2012-10-12T06:27:45Z</time>
      </trkpt>
      <trkpt lat="43.64023" lon="3.41603">
        <ele>196.25</ele>
        <time>2012-10-12T06:28:02Z</time>
      </trkpt>
      <trkpt lat="43.6406" lon="3.41724">
        <ele>197.21</ele>
        <time>2012-10-12T06:28:21Z</time>
      </trkpt>
      <trkpt lat="43.64011" lon="3.41819">
        <ele>194.8</ele>
        <time>2012-10-12T06:28:36Z</time>
      </trkpt>
      <trkpt lat="43.63922" lon="3.4186">
        <ele>188.56</ele>
        <time>2012-10-12T06:28:47Z</time>
      </trkpt>
      <trkpt lat="43.63824" lon="3.41851">
        <ele>182.79</ele>
        <time>2012-10-12T06:28:57Z</time>
      </trkpt>
      <trkpt lat="43.63731" lon="3.41844">
        <ele>176.06</ele>
        <time>2012-10-12T06:29:06Z</time>
      </trkpt>
      <trkpt lat="43.63633" lon="3.41836">
        <ele>170.77</ele>
        <time>2012-10-12T06:29:16Z</time>
      </trkpt>
      <trkpt lat="43.63541" lon="3.4183">
        <ele>167.41</ele>
        <time>2012-10-12T06:29:26Z</time>
      </trkpt>
      <trkpt lat="43.63447" lon="3.41821">
        <ele>164.52</ele>
        <time>2012-10-12T06:29:37Z</time>
      </trkpt>
      <trkpt lat="43.63353" lon="3.41796">
        <ele>160.68</ele>
        <time>2012-10-12T06:29:49Z</time>
      </trkpt>
      <trkpt lat="43.63269" lon="3.41758">
        <ele>156.83</ele>
        <time>2012-10-12T06:30:01Z</time>
      </trkpt>
      <trkpt lat="43.63189" lon="3.41817">
        <ele>155.39</ele>
        <time>2012-10-12T06:30:17Z</time>
      </trkpt>
      <trkpt lat="43.631" lon="3.41862">
        <ele>152.03</ele>
        <time>2012-10-12T06:30:30Z</time>
      </trkpt>
      <trkpt lat="43.6301" lon="3.41909">
        <ele>149.14</ele>
        <time>2012-10-12T06:30:43Z</time>
      </trkpt>
      <trkpt lat="43.62933" lon="3.41951">
        <ele>146.26</ele>
        <time>2012-10-12T06:30:59Z</time>
      </trkpt>
      <trkpt lat="43.62861" lon="3.42033">
        <ele>141.93</ele>
        <time>2012-10-12T06:31:15Z</time>
      </trkpt>
      <trkpt lat="43.62798" lon="3.4213">
        <ele>138.57</ele>
        <time>2012-10-12T06:31:30Z</time>
      </trkpt>
      <trkpt lat="43.62737" lon="3.42235">
        <ele>133.28</ele>
        <time>2012-10-12T06:31:44Z</time>
      </trkpt>
      <trkpt lat="43.62686" lon="3.4234">
        <ele>129.43</ele>
        <time>2012-10-12T06:31:56Z</time>
      </trkpt>
      <trkpt lat="43.62637" lon="3.42454">
        <ele>126.07</ele>
        <time>2012-10-12T06:32:07Z</time>
      </trkpt>
      <trkpt lat="43.6259" lon="3.42559">
        <ele>123.67</ele>
        <time>2012-10-12T06:32:19Z</time>
      </trkpt>
      <trkpt lat="43.62571" lon="3.42662">
        <ele>121.74</ele>
        <time>2012-10-12T06:32:37Z</time>
      </trkpt>
      <trkpt lat="43.62584" lon="3.42786">
        <ele>119.34</ele>
        <time>2012-10-12T06:32:50Z</time>
      </trkpt>
      <trkpt lat="43.62595" lon="3.42917">
        <ele>116.94</ele>
        <time>2012-10-12T06:33:03Z</time>
      </trkpt>
      <trkpt lat="43.62598" lon="3.43043">
        <ele>113.09</ele>
        <time>2012-10-12T06:33:20Z</time>
      </trkpt>
      <trkpt lat="43.62627" lon="3.4313">
        <ele>111.17</ele>
        <time>2012-10-12T06:33:57Z</time>
      </trkpt>
      <trkpt lat="43.62735" lon="3.43074">
        <ele>115.98</ele>
        <time>2012-10-12T06:34:59Z</time>
      </trkpt>
      <trkpt lat="43.62722" lon="3.42957">
        <ele>118.38</ele>
        <time>2012-10-12T06:36:00Z</time>
      </trkpt>
      <trkpt lat="43.62734" lon="3.43078">
        <ele>115.01</ele>
        <time>2012-10-12T06:38:17Z</time>
      </trkpt>
      <trkpt lat="43.62788" lon="3.43206">
        <ele>110.21</ele>
        <time>2012-10-12T06:38:54Z</time>
      </trkpt>
      <trkpt lat="43.62847" lon="3.43307">
        <ele>106.36</ele>
        <time>2012-10-12T06:39:19Z</time>
      </trkpt>
      <trkpt lat="43.62882" lon="3.43414">
        <ele>102.52</ele>
        <time>2012-10-12T06:39:39Z</time>
      </trkpt>
      <trkpt lat="43.62919" lon="3.43475">
        <ele>101.56</ele>
        <time>2012-10-12T06:40:55Z</time>
      </trkpt>
      <trkpt lat="43.6283" lon="3.43443">
        <ele>103.48</ele>
        <time>2012-10-12T06:41:21Z</time>
      </trkpt>
      <trkpt lat="43.62741" lon="3.43406">
        <ele>105.88</ele>
        <time>2012-10-12T06:41:46Z</time>
      </trkpt>
      <trkpt lat="43.62649" lon="3.43368">
        <ele>107.81</ele>
        <time>2012-10-12T06:42:14Z</time>
      </trkpt>
      <trkpt lat="43.62559" lon="3.43334">
        <ele>109.25</ele>
        <time>2012-10-12T06:42:39Z</time>
      </trkpt>
      <trkpt lat="43.62494" lon="3.43394">
        <ele>110.21</ele>
        <time>2012-10-12T06:43:04Z</time>
      </trkpt>
      <trkpt lat="43.62434" lon="3.43491">
        <ele>111.65</ele>
        <time>2012-10-12T06:43:25Z</time>
      </trkpt>
      <trkpt lat="43.62366" lon="3.43584">
        <ele>114.05</ele>
        <time>2012-10-12T06:43:47Z</time>
      </trkpt>
      <trkpt lat="43.62274" lon="3.43625">
        <ele>117.42</ele>
        <time>2012-10-12T06:44:12Z</time>
      </trkpt>
      <trkpt lat="43.6218" lon="3.43647">
        <ele>119.82</ele>
        <time>2012-10-12T06:44:38Z</time>
      </trkpt>
      <trkpt lat="43.62084" lon="3.43655">
        <ele>120.3</ele>
        <time>2012-10-12T06:45:01Z</time>
      </trkpt>
      <trkpt lat="43.61992" lon="3.4366">
        <ele>117.9</ele>
        <time>2012-10-12T06:45:18Z</time>
      </trkpt>
      <trkpt lat="43.61909" lon="3.43696">
        <ele>115.5</ele>
        <time>2012-10-12T06:47:26Z</time>
      </trkpt>
      <trkpt lat="43.61822" lon="3.43669">
        <ele>117.9</ele>
        <time>2012-10-12T06:47:49Z</time>
      </trkpt>
      <trkpt lat="43.6173" lon="3.43669">
        <ele>121.74</ele>
        <time>2012-10-12T06:48:14Z</time>
      </trkpt>
      <trkpt lat="43.61637" lon="3.4367">
        <ele>124.63</ele>
        <time>2012-10-12T06:48:43Z</time>
      </trkpt>
      <trkpt lat="43.61541" lon="3.43672">
        <ele>129.43</ele>
        <time>2012-10-12T06:49:12Z</time>
      </trkpt>
      <trkpt lat="43.61449" lon="3.43677">
        <ele>132.8</ele>
        <time>2012-10-12T06:49:39Z</time>
      </trkpt>
      <trkpt lat="43.61356" lon="3.43679">
        <ele>135.2</ele>
        <time>2012-10-12T06:50:05Z</time>
      </trkpt>
      <trkpt lat="43.61266" lon="3.43683">
        <ele>132.8</ele>
        <time>2012-10-12T06:50:22Z</time>
      </trkpt>
      <trkpt lat="43.61175" lon="3.43686">
        <ele>131.84</ele>
        <time>2012-10-12T06:50:37Z</time>
      </trkpt>
      <trkpt lat="43.61078" lon="3.43684">
        <ele>127.99</ele>
        <time>2012-10-12T06:50:51Z</time>
      </trkpt>
      <trkpt lat="43.60984" lon="3.43674">
        <ele>125.11</ele>
        <time>2012-10-12T06:51:03Z</time>
      </trkpt>
      <trkpt lat="43.60892" lon="3.43654">
        <ele>122.71</ele>
        <time>2012-10-12T06:51:14Z</time>
      </trkpt>
      <trkpt lat="43.60797" lon="3.43632">
        <ele>118.86</ele>
        <time>2012-10-12T06:51:25Z</time>
      </trkpt>
      <trkpt lat="43.60703" lon="3.4361">
        <ele>116.94</ele>
        <time>2012-10-12T06:51:37Z</time>
      </trkpt>
      <trkpt lat="43.60611" lon="3.43611">
        <ele>115.01</ele>
        <time>2012-10-12T06:51:51Z</time>
      </trkpt>
      <trkpt lat="43.60521" lon="3.43663">
        <ele>113.09</ele>
        <time>2012-10-12T06:52:04Z</time>
      </trkpt>
      <trkpt lat="43.60439" lon="3.43732">
        <ele>110.69</ele>
        <time>2012-10-12T06:52:17Z</time>
      </trkpt>
      <trkpt lat="43.6036" lon="3.43797">
        <ele>109.73</ele>
        <time>2012-10-12T06:52:30Z</time>
      </trkpt>
      <trkpt lat="43.60279" lon="3.43862">
        <ele>106.36</ele>
        <time>2012-10-12T06:52:44Z</time>
      </trkpt>
      <trkpt lat="43.602" lon="3.43926">
        <ele>103.96</ele>
        <time>2012-10-12T06:52:57Z</time>
      </trkpt>
      <trkpt lat="43.60148" lon="3.43969">
        <ele>100.6</ele>
        <time>2012-10-12T07:03:14Z</time>
      </trkpt>
      <trkpt lat="43.60064" lon="3.44037">
        <ele>98.67</ele>
        <time>2012-10-12T07:03:31Z</time>
      </trkpt>
      <trkpt lat="43.59981" lon="3.44105">
        <ele>96.75</ele>
        <time>2012-10-12T07:03:45Z</time>
      </trkpt>
      <trkpt lat="43.59901" lon="3.44172">
        <ele>93.87</ele>
        <time>2012-10-12T07:03:58Z</time>
      </trkpt>
      <trkpt lat="43.59817" lon="3.4424">
        <ele>92.9</ele>
        <time>2012-10-12T07:04:11Z</time>
      </trkpt>
      <trkpt lat="43.59741" lon="3.44312">
        <ele>90.5</ele>
        <time>2012-10-12T07:04:24Z</time>
      </trkpt>
      <trkpt lat="43.59673" lon="3.44402">
        <ele>89.06</ele>
        <time>2012-10-12T07:04:36Z</time>
      </trkpt>
      <trkpt lat="43.59613" lon="3.44504">
        <ele>86.18</ele>
        <time>2012-10-12T07:04:48Z</time>
      </trkpt>
      <trkpt lat="43.59551" lon="3.44607">
        <ele>83.77</ele>
        <time>2012-10-12T07:05:00Z</time>
      </trkpt>
      <trkpt lat="43.5949" lon="3.44709">
        <ele>81.85</ele>
        <time>2012-10-12T07:05:12Z</time>
      </trkpt>
      <trkpt lat="43.59432" lon="3.44808">
        <ele>79.45</ele>
        <time>2012-10-12T07:05:24Z</time>
      </trkpt>
      <trkpt lat="43.59374" lon="3.44908">
        <ele>77.52</ele>
        <time>2012-10-12T07:05:37Z</time>
      </trkpt>
      <trkpt lat="43.59314" lon="3.4501">
        <ele>76.08</ele>
        <time>2012-10-12T07:05:51Z</time>
      </trkpt>
      <trkpt lat="43.59255" lon="3.45113">
        <ele>74.16</ele>
        <time>2012-10-12T07:06:05Z</time>
      </trkpt>
      <trkpt lat="43.59193" lon="3.45217">
        <ele>72.72</ele>
        <time>2012-10-12T07:06:19Z</time>
      </trkpt>
      <trkpt lat="43.59135" lon="3.45315">
        <ele>70.31</ele>
        <time>2012-10-12T07:06:32Z</time>
      </trkpt>
      <trkpt lat="43.59064" lon="3.45402">
        <ele>67.43</ele>
        <time>2012-10-12T07:06:44Z</time>
      </trkpt>
      <trkpt lat="43.58982" lon="3.45467">
        <ele>64.55</ele>
        <time>2012-10-12T07:06:55Z</time>
      </trkpt>
      <trkpt lat="43.58898" lon="3.45531">
        <ele>62.62</ele>
        <time>2012-10-12T07:07:06Z</time>
      </trkpt>
      <trkpt lat="43.58817" lon="3.45592">
        <ele>62.62</ele>
        <time>2012-10-12T07:07:20Z</time>
      </trkpt>
      <trkpt lat="43.58735" lon="3.45655">
        <ele>62.14</ele>
        <time>2012-10-12T07:07:36Z</time>
      </trkpt>
      <trkpt lat="43.58652" lon="3.45717">
        <ele>63.1</ele>
        <time>2012-10-12T07:07:52Z</time>
      </trkpt>
      <trkpt lat="43.58567" lon="3.45782">
        <ele>62.62</ele>
        <time>2012-10-12T07:08:08Z</time>
      </trkpt>
      <trkpt lat="43.58487" lon="3.45844">
        <ele>62.62</ele>
        <time>2012-10-12T07:08:23Z</time>
      </trkpt>
      <trkpt lat="43.58408" lon="3.45905">
        <ele>61.66</ele>
        <time>2012-10-12T07:08:37Z</time>
      </trkpt>
      <trkpt lat="43.58329" lon="3.45965">
        <ele>60.7</ele>
        <time>2012-10-12T07:08:51Z</time>
      </trkpt>
      <trkpt lat="43.5825" lon="3.46027">
        <ele>60.22</ele>
        <time>2012-10-12T07:09:05Z</time>
      </trkpt>
      <trkpt lat="43.58169" lon="3.46088">
        <ele>59.26</ele>
        <time>2012-10-12T07:09:19Z</time>
      </trkpt>
      <trkpt lat="43.58088" lon="3.4615">
        <ele>57.34</ele>
        <time>2012-10-12T07:09:33Z</time>
      </trkpt>
      <trkpt lat="43.58005" lon="3.46209">
        <ele>56.37</ele>
        <time>2012-10-12T07:09:49Z</time>
      </trkpt>
      <trkpt lat="43.57929" lon="3.4623">
        <ele>53.97</ele>
        <time>2012-10-12T07:10:39Z</time>
      </trkpt>
      <trkpt lat="43.57847" lon="3.46268">
        <ele>53.01</ele>
        <time>2012-10-12T07:11:15Z</time>
      </trkpt>
      <trkpt lat="43.57755" lon="3.46293">
        <ele>51.57</ele>
        <time>2012-10-12T07:11:32Z</time>
      </trkpt>
      <trkpt lat="43.57666" lon="3.46317">
        <ele>51.57</ele>
        <time>2012-10-12T07:11:47Z</time>
      </trkpt>
      <trkpt lat="43.57574" lon="3.46346">
        <ele>50.61</ele>
        <time>2012-10-12T07:12:02Z</time>
      </trkpt>
      <trkpt lat="43.57484" lon="3.46372">
        <ele>50.61</ele>
        <time>2012-10-12T07:12:17Z</time>
      </trkpt>
      <trkpt lat="43.57394" lon="3.46358">
        <ele>50.13</ele>
        <time>2012-10-12T07:12:32Z</time>
      </trkpt>
      <trkpt lat="43.57302" lon="3.46344">
        <ele>50.13</ele>
        <time>2012-10-12T07:12:49Z</time>
      </trkpt>
      <trkpt lat="43.57214" lon="3.46381">
        <ele>52.05</ele>
        <time>2012-10-12T07:13:07Z</time>
      </trkpt>
      <trkpt lat="43.57134" lon="3.4645">
        <ele>51.57</ele>
        <time>2012-10-12T07:13:24Z</time>
      </trkpt>
      <trkpt lat="43.57046" lon="3.46498">
        <ele>51.09</ele>
        <time>2012-10-12T07:13:40Z</time>
      </trkpt>
      <trkpt lat="43.56952" lon="3.46523">
        <ele>50.61</ele>
        <time>2012-10-12T07:13:56Z</time>
      </trkpt>
      <trkpt lat="43.56864" lon="3.46552">
        <ele>48.2</ele>
        <time>2012-10-12T07:14:09Z</time>
      </trkpt>
      <trkpt lat="43.56773" lon="3.46584">
        <ele>47.24</ele>
        <time>2012-10-12T07:14:22Z</time>
      </trkpt>
      <trkpt lat="43.56682" lon="3.46612">
        <ele>47.24</ele>
        <time>2012-10-12T07:14:36Z</time>
      </trkpt>
      <trkpt lat="43.56594" lon="3.46638">
        <ele>47.24</ele>
        <time>2012-10-12T07:14:50Z</time>
      </trkpt>
      <trkpt lat="43.56501" lon="3.46667">
        <ele>46.28</ele>
        <time>2012-10-12T07:15:05Z</time>
      </trkpt>
      <trkpt lat="43.56412" lon="3.46693">
        <ele>45.8</ele>
        <time>2012-10-12T07:15:19Z</time>
      </trkpt>
      <trkpt lat="43.56323" lon="3.4672">
        <ele>46.28</ele>
        <time>2012-10-12T07:15:33Z</time>
      </trkpt>
      <trkpt lat="43.5623" lon="3.46749">
        <ele>45.32</ele>
        <time>2012-10-12T07:15:48Z</time>
      </trkpt>
      <trkpt lat="43.56142" lon="3.46775">
        <ele>45.32</ele>
        <time>2012-10-12T07:16:02Z</time>
      </trkpt>
      <trkpt lat="43.56054" lon="3.46801">
        <ele>44.84</ele>
        <time>2012-10-12T07:16:16Z</time>
      </trkpt>
      <trkpt lat="43.55962" lon="3.46829">
        <ele>45.32</ele>
        <time>2012-10-12T07:16:31Z</time>
      </trkpt>
      <trkpt lat="43.55873" lon="3.46853">
        <ele>44.36</ele>
        <time>2012-10-12T07:16:46Z</time>
      </trkpt>
      <trkpt lat="43.5578" lon="3.46883">
        <ele>44.84</ele>
        <time>2012-10-12T07:17:02Z</time>
      </trkpt>
      <trkpt lat="43.55689" lon="3.46912">
        <ele>44.84</ele>
        <time>2012-10-12T07:17:19Z</time>
      </trkpt>
      <trkpt lat="43.55597" lon="3.46929">
        <ele>46.28</ele>
        <time>2012-10-12T07:17:36Z</time>
      </trkpt>
      <trkpt lat="43.55506" lon="3.46923">
        <ele>46.76</ele>
        <time>2012-10-12T07:17:53Z</time>
      </trkpt>
      <trkpt lat="43.55415" lon="3.46894">
        <ele>47.24</ele>
        <time>2012-10-12T07:18:10Z</time>
      </trkpt>
      <trkpt lat="43.55326" lon="3.46846">
        <ele>47.72</ele>
        <time>2012-10-12T07:18:27Z</time>
      </trkpt>
      <trkpt lat="43.5524" lon="3.46794">
        <ele>47.24</ele>
        <time>2012-10-12T07:18:44Z</time>
      </trkpt>
      <trkpt lat="43.55156" lon="3.46743">
        <ele>47.24</ele>
        <time>2012-10-12T07:19:01Z</time>
      </trkpt>
      <trkpt lat="43.55071" lon="3.46692">
        <ele>47.72</ele>
        <time>2012-10-12T07:19:18Z</time>
      </trkpt>
      <trkpt lat="43.54984" lon="3.46639">
        <ele>47.24</ele>
        <time>2012-10-12T07:19:35Z</time>
      </trkpt>
      <trkpt lat="43.54898" lon="3.46586">
        <ele>46.28</ele>
        <time>2012-10-12T07:19:51Z</time>
      </trkpt>
      <trkpt lat="43.5481" lon="3.46532">
        <ele>45.8</ele>
        <time>2012-10-12T07:20:07Z</time>
      </trkpt>
      <trkpt lat="43.54728" lon="3.4648">
        <ele>45.32</ele>
        <time>2012-10-12T07:20:22Z</time>
      </trkpt>
      <trkpt lat="43.54645" lon="3.46429">
        <ele>44.36</ele>
        <time>2012-10-12T07:20:37Z</time>
      </trkpt>
      <trkpt lat="43.54559" lon="3.46376">
        <ele>43.88</ele>
        <time>2012-10-12T07:20:54Z</time>
      </trkpt>
      <trkpt lat="43.54473" lon="3.46324">
        <ele>43.4</ele>
        <time>2012-10-12T07:21:13Z</time>
      </trkpt>
      <trkpt lat="43.5439" lon="3.46271">
        <ele>44.36</ele>
        <time>2012-10-12T07:21:29Z</time>
      </trkpt>
      <trkpt lat="43.54304" lon="3.46219">
        <ele>43.88</ele>
        <time>2012-10-12T07:21:46Z</time>
      </trkpt>
      <trkpt lat="43.54218" lon="3.46169">
        <ele>44.36</ele>
        <time>2012-10-12T07:22:03Z</time>
      </trkpt>
      <trkpt lat="43.54133" lon="3.46115">
        <ele>42.92</ele>
        <time>2012-10-12T07:22:19Z</time>
      </trkpt>
      <trkpt lat="43.5406" lon="3.46031">
        <ele>42.44</ele>
        <time>2012-10-12T07:22:37Z</time>
      </trkpt>
      <trkpt lat="43.54033" lon="3.45912">
        <ele>43.88</ele>
        <time>2012-10-12T07:22:54Z</time>
      </trkpt>
      <trkpt lat="43.53969" lon="3.45813">
        <ele>44.84</ele>
        <time>2012-10-12T07:23:13Z</time>
      </trkpt>
      <trkpt lat="43.53908" lon="3.45712">
        <ele>46.28</ele>
        <time>2012-10-12T07:23:33Z</time>
      </trkpt>
      <trkpt lat="43.5384" lon="3.45621">
        <ele>47.72</ele>
        <time>2012-10-12T07:23:53Z</time>
      </trkpt>
      <trkpt lat="43.5376" lon="3.45566">
        <ele>47.24</ele>
        <time>2012-10-12T07:24:10Z</time>
      </trkpt>
      <trkpt lat="43.53667" lon="3.45531">
        <ele>47.24</ele>
        <time>2012-10-12T07:24:26Z</time>
      </trkpt>
      <trkpt lat="43.53578" lon="3.45497">
        <ele>47.24</ele>
        <time>2012-10-12T07:24:41Z</time>
      </trkpt>
      <trkpt lat="43.53484" lon="3.45463">
        <ele>44.84</ele>
        <time>2012-10-12T07:24:56Z</time>
      </trkpt>
      <trkpt lat="43.53396" lon="3.45431">
        <ele>44.36</ele>
        <time>2012-10-12T07:25:10Z</time>
      </trkpt>
      <trkpt lat="43.53303" lon="3.45395">
        <ele>43.88</ele>
        <time>2012-10-12T07:25:25Z</time>
      </trkpt>
      <trkpt lat="43.5322" lon="3.45346">
        <ele>43.4</ele>
        <time>2012-10-12T07:25:40Z</time>
      </trkpt>
      <trkpt lat="43.53126" lon="3.45333">
        <ele>43.4</ele>
        <time>2012-10-12T07:25:55Z</time>
      </trkpt>
      <trkpt lat="43.53036" lon="3.45299">
        <ele>43.4</ele>
        <time>2012-10-12T07:26:10Z</time>
      </trkpt>
      <trkpt lat="43.52946" lon="3.45267">
        <ele>43.4</ele>
        <time>2012-10-12T07:26:25Z</time>
      </trkpt>
      <trkpt lat="43.52856" lon="3.45235">
        <ele>43.4</ele>
        <time>2012-10-12T07:26:40Z</time>
      </trkpt>
      <trkpt lat="43.52769" lon="3.45203">
        <ele>42.44</ele>
        <time>2012-10-12T07:26:54Z</time>
      </trkpt>
      <trkpt lat="43.52677" lon="3.4517">
        <ele>41.47</ele>
        <time>2012-10-12T07:27:09Z</time>
      </trkpt>
      <trkpt lat="43.52589" lon="3.45138">
        <ele>40.99</ele>
        <time>2012-10-12T07:27:23Z</time>
      </trkpt>
      <trkpt lat="43.52496" lon="3.45104">
        <ele>40.03</ele>
        <time>2012-10-12T07:27:38Z</time>
      </trkpt>
      <trkpt lat="43.52409" lon="3.45072">
        <ele>40.03</ele>
        <time>2012-10-12T07:27:52Z</time>
      </trkpt>
      <trkpt lat="43.52317" lon="3.45039">
        <ele>40.99</ele>
        <time>2012-10-12T07:28:07Z</time>
      </trkpt>
      <trkpt lat="43.52225" lon="3.45006">
        <ele>40.99</ele>
        <time>2012-10-12T07:28:22Z</time>
      </trkpt>
      <trkpt lat="43.52138" lon="3.44974">
        <ele>40.99</ele>
        <time>2012-10-12T07:28:36Z</time>
      </trkpt>
      <trkpt lat="43.52048" lon="3.44941">
        <ele>40.03</ele>
        <time>2012-10-12T07:28:50Z</time>
      </trkpt>
      <trkpt lat="43.51959" lon="3.44906">
        <ele>38.59</ele>
        <time>2012-10-12T07:29:04Z</time>
      </trkpt>
      <trkpt lat="43.5187" lon="3.44887">
        <ele>38.59</ele>
        <time>2012-10-12T07:29:18Z</time>
      </trkpt>
      <trkpt lat="43.51778" lon="3.44897">
        <ele>38.11</ele>
        <time>2012-10-12T07:29:33Z</time>
      </trkpt>
      <trkpt lat="43.51687" lon="3.44899">
        <ele>37.63</ele>
        <time>2012-10-12T07:29:47Z</time>
      </trkpt>
      <trkpt lat="43.51595" lon="3.44888">
        <ele>37.15</ele>
        <time>2012-10-12T07:30:01Z</time>
      </trkpt>
      <trkpt lat="43.51505" lon="3.44871">
        <ele>36.67</ele>
        <time>2012-10-12T07:30:15Z</time>
      </trkpt>
      <trkpt lat="43.51416" lon="3.44855">
        <ele>35.71</ele>
        <time>2012-10-12T07:30:29Z</time>
      </trkpt>
      <trkpt lat="43.51323" lon="3.44838">
        <ele>35.71</ele>
        <time>2012-10-12T07:30:44Z</time>
      </trkpt>
      <trkpt lat="43.51229" lon="3.44821">
        <ele>36.19</ele>
        <time>2012-10-12T07:30:59Z</time>
      </trkpt>
      <trkpt lat="43.51137" lon="3.44804">
        <ele>36.19</ele>
        <time>2012-10-12T07:31:14Z</time>
      </trkpt>
      <trkpt lat="43.51047" lon="3.4479">
        <ele>35.71</ele>
        <time>2012-10-12T07:31:29Z</time>
      </trkpt>
      <trkpt lat="43.50957" lon="3.44784">
        <ele>36.19</ele>
        <time>2012-10-12T07:31:44Z</time>
      </trkpt>
      <trkpt lat="43.50864" lon="3.44786">
        <ele>36.19</ele>
        <time>2012-10-12T07:31:59Z</time>
      </trkpt>
      <trkpt lat="43.50767" lon="3.44789">
        <ele>35.23</ele>
        <time>2012-10-12T07:32:14Z</time>
      </trkpt>
      <trkpt lat="43.50672" lon="3.44792">
        <ele>34.26</ele>
        <time>2012-10-12T07:32:29Z</time>
      </trkpt>
      <trkpt lat="43.50583" lon="3.44797">
        <ele>32.82</ele>
        <time>2012-10-12T07:32:43Z</time>
      </trkpt>
      <trkpt lat="43.50487" lon="3.448">
        <ele>31.38</ele>
        <time>2012-10-12T07:32:57Z</time>
      </trkpt>
      <trkpt lat="43.50391" lon="3.44804">
        <ele>30.42</ele>
        <time>2012-10-12T07:33:11Z</time>
      </trkpt>
      <trkpt lat="43.50296" lon="3.44807">
        <ele>29.46</ele>
        <time>2012-10-12T07:33:25Z</time>
      </trkpt>
      <trkpt lat="43.50204" lon="3.44784">
        <ele>28.5</ele>
        <time>2012-10-12T07:33:39Z</time>
      </trkpt>
      <trkpt lat="43.50129" lon="3.44714">
        <ele>29.94</ele>
        <time>2012-10-12T07:33:54Z</time>
      </trkpt>
      <trkpt lat="43.50065" lon="3.44624">
        <ele>34.26</ele>
        <time>2012-10-12T07:34:15Z</time>
      </trkpt>
      <trkpt lat="43.49999" lon="3.44533">
        <ele>34.74</ele>
        <time>2012-10-12T07:34:37Z</time>
      </trkpt>
      <trkpt lat="43.49934" lon="3.44445">
        <ele>33.78</ele>
        <time>2012-10-12T07:34:55Z</time>
      </trkpt>
      <trkpt lat="43.49858" lon="3.44363">
        <ele>31.86</ele>
        <time>2012-10-12T07:35:10Z</time>
      </trkpt>
      <trkpt lat="43.49778" lon="3.44294">
        <ele>31.38</ele>
        <time>2012-10-12T07:35:25Z</time>
      </trkpt>
      <trkpt lat="43.49704" lon="3.44221">
        <ele>32.34</ele>
        <time>2012-10-12T07:35:41Z</time>
      </trkpt>
      <trkpt lat="43.49636" lon="3.4414">
        <ele>31.86</ele>
        <time>2012-10-12T07:35:57Z</time>
      </trkpt>
      <trkpt lat="43.49571" lon="3.44043">
        <ele>32.34</ele>
        <time>2012-10-12T07:36:14Z</time>
      </trkpt>
      <trkpt lat="43.49512" lon="3.43946">
        <ele>31.38</ele>
        <time>2012-10-12T07:36:30Z</time>
      </trkpt>
      <trkpt lat="43.49457" lon="3.43856">
        <ele>31.86</ele>
        <time>2012-10-12T07:36:47Z</time>
      </trkpt>
      <trkpt lat="43.49367" lon="3.43842">
        <ele>29.94</ele>
        <time>2012-10-12T07:37:03Z</time>
      </trkpt>
      <trkpt lat="43.49272" lon="3.43844">
        <ele>29.46</ele>
        <time>2012-10-12T07:37:19Z</time>
      </trkpt>
      <trkpt lat="43.49179" lon="3.43831">
        <ele>28.5</ele>
        <time>2012-10-12T07:37:34Z</time>
      </trkpt>
      <trkpt lat="43.49093" lon="3.4378">
        <ele>27.05</ele>
        <time>2012-10-12T07:37:48Z</time>
      </trkpt>
      <trkpt lat="43.49002" lon="3.43743">
        <ele>27.05</ele>
        <time>2012-10-12T07:38:03Z</time>
      </trkpt>
      <trkpt lat="43.48908" lon="3.43738">
        <ele>27.05</ele>
        <time>2012-10-12T07:38:19Z</time>
      </trkpt>
      <trkpt lat="43.48821" lon="3.43782">
        <ele>26.09</ele>
        <time>2012-10-12T07:38:33Z</time>
      </trkpt>
      <trkpt lat="43.48732" lon="3.43821">
        <ele>25.61</ele>
        <time>2012-10-12T07:38:47Z</time>
      </trkpt>
      <trkpt lat="43.48641" lon="3.43818">
        <ele>26.09</ele>
        <time>2012-10-12T07:39:02Z</time>
      </trkpt>
      <trkpt lat="43.48548" lon="3.43799">
        <ele>26.57</ele>
        <time>2012-10-12T07:39:18Z</time>
      </trkpt>
      <trkpt lat="43.48456" lon="3.43776">
        <ele>27.05</ele>
        <time>2012-10-12T07:39:34Z</time>
      </trkpt>
      <trkpt lat="43.48362" lon="3.43753">
        <ele>26.57</ele>
        <time>2012-10-12T07:39:50Z</time>
      </trkpt>
      <trkpt lat="43.48271" lon="3.4373">
        <ele>27.05</ele>
        <time>2012-10-12T07:40:05Z</time>
      </trkpt>
      <trkpt lat="43.48178" lon="3.43707">
        <ele>27.05</ele>
        <time>2012-10-12T07:40:20Z</time>
      </trkpt>
      <trkpt lat="43.48086" lon="3.43684">
        <ele>26.57</ele>
        <time>2012-10-12T07:40:35Z</time>
      </trkpt>
      <trkpt lat="43.47992" lon="3.43662">
        <ele>26.57</ele>
        <time>2012-10-12T07:40:50Z</time>
      </trkpt>
      <trkpt lat="43.47896" lon="3.43653">
        <ele>26.09</ele>
        <time>2012-10-12T07:41:05Z</time>
      </trkpt>
      <trkpt lat="43.47804" lon="3.43626">
        <ele>26.09</ele>
        <time>2012-10-12T07:41:20Z</time>
      </trkpt>
      <trkpt lat="43.47716" lon="3.43589">
        <ele>26.09</ele>
        <time>2012-10-12T07:41:36Z</time>
      </trkpt>
      <trkpt lat="43.47626" lon="3.43585">
        <ele>25.61</ele>
        <time>2012-10-12T07:41:55Z</time>
      </trkpt>
      <trkpt lat="43.47672" lon="3.43617">
        <ele>25.13</ele>
        <time>2012-10-12T07:42:13Z</time>
      </trkpt>
      <trkpt lat="43.47631" lon="3.4351">
        <ele>26.09</ele>
        <time>2012-10-12T07:42:30Z</time>
      </trkpt>
      <trkpt lat="43.47578" lon="3.43411">
        <ele>26.57</ele>
        <time>2012-10-12T07:42:48Z</time>
      </trkpt>
      <trkpt lat="43.47517" lon="3.43318">
        <ele>27.53</ele>
        <time>2012-10-12T07:43:04Z</time>
      </trkpt>
      <trkpt lat="43.47456" lon="3.43224">
        <ele>28.02</ele>
        <time>2012-10-12T07:43:20Z</time>
      </trkpt>
      <trkpt lat="43.47393" lon="3.43134">
        <ele>28.5</ele>
        <time>2012-10-12T07:43:36Z</time>
      </trkpt>
      <trkpt lat="43.47315" lon="3.43072">
        <ele>28.98</ele>
        <time>2012-10-12T07:43:51Z</time>
      </trkpt>
      <trkpt lat="43.47223" lon="3.43088">
        <ele>27.05</ele>
        <time>2012-10-12T07:44:05Z</time>
      </trkpt>
      <trkpt lat="43.47134" lon="3.4314">
        <ele>25.61</ele>
        <time>2012-10-12T07:44:19Z</time>
      </trkpt>
      <trkpt lat="43.47044" lon="3.43175">
        <ele>25.13</ele>
        <time>2012-10-12T07:44:32Z</time>
      </trkpt>
      <trkpt lat="43.46956" lon="3.43147">
        <ele>24.65</ele>
        <time>2012-10-12T07:44:45Z</time>
      </trkpt>
      <trkpt lat="43.46874" lon="3.43084">
        <ele>24.17</ele>
        <time>2012-10-12T07:45:00Z</time>
      </trkpt>
      <trkpt lat="43.46794" lon="3.43023">
        <ele>24.17</ele>
        <time>2012-10-12T07:45:16Z</time>
      </trkpt>
      <trkpt lat="43.46712" lon="3.42959">
        <ele>24.65</ele>
        <time>2012-10-12T07:45:32Z</time>
      </trkpt>
      <trkpt lat="43.4663" lon="3.42896">
        <ele>24.17</ele>
        <time>2012-10-12T07:45:47Z</time>
      </trkpt>
      <trkpt lat="43.46548" lon="3.42834">
        <ele>24.65</ele>
        <time>2012-10-12T07:46:02Z</time>
      </trkpt>
      <trkpt lat="43.46468" lon="3.42772">
        <ele>24.17</ele>
        <time>2012-10-12T07:46:17Z</time>
      </trkpt>
      <trkpt lat="43.46385" lon="3.42709">
        <ele>23.21</ele>
        <time>2012-10-12T07:46:32Z</time>
      </trkpt>
      <trkpt lat="43.46325" lon="3.42637">
        <ele>22.25</ele>
        <time>2012-10-12T07:57:35Z</time>
      </trkpt>
      <trkpt lat="43.46272" lon="3.42533">
        <ele>25.13</ele>
        <time>2012-10-12T07:58:06Z</time>
      </trkpt>
      <trkpt lat="43.46223" lon="3.42424">
        <ele>26.09</ele>
        <time>2012-10-12T07:58:34Z</time>
      </trkpt>
      <trkpt lat="43.46197" lon="3.42361">
        <ele>25.13</ele>
        <time>2012-10-12T07:59:07Z</time>
      </trkpt>
      <trkpt lat="43.46113" lon="3.42427">
        <ele>22.73</ele>
        <time>2012-10-12T07:59:36Z</time>
      </trkpt>
      <trkpt lat="43.46027" lon="3.42381">
        <ele>23.21</ele>
        <time>2012-10-12T08:01:04Z</time>
      </trkpt>
      <trkpt lat="43.45987" lon="3.42301">
        <ele>25.61</ele>
        <time>2012-10-12T08:02:46Z</time>
      </trkpt>
      <trkpt lat="43.46063" lon="3.42302">
        <ele>26.57</ele>
        <time>2012-10-12T08:05:16Z</time>
      </trkpt>
      <trkpt lat="43.4616" lon="3.4233">
        <ele>28.02</ele>
        <time>2012-10-12T08:07:21Z</time>
      </trkpt>
      <trkpt lat="43.46144" lon="3.42413">
        <ele>24.65</ele>
        <time>2012-10-12T08:07:58Z</time>
      </trkpt>
      <trkpt lat="43.46073" lon="3.42501">
        <ele>26.09</ele>
        <time>2012-10-12T08:18:39Z</time>
      </trkpt>
      <trkpt lat="43.4603" lon="3.4261">
        <ele>26.09</ele>
        <time>2012-10-12T08:19:28Z</time>
      </trkpt>
      <trkpt lat="43.4596" lon="3.42697">
        <ele>26.09</ele>
        <time>2012-10-12T08:19:47Z</time>
      </trkpt>
      <trkpt lat="43.45873" lon="3.42671">
        <ele>26.57</ele>
        <time>2012-10-12T08:20:08Z</time>
      </trkpt>
      <trkpt lat="43.45813" lon="3.42593">
        <ele>28.5</ele>
        <time>2012-10-12T08:20:29Z</time>
      </trkpt>
      <trkpt lat="43.45728" lon="3.42532">
        <ele>28.02</ele>
        <time>2012-10-12T08:21:41Z</time>
      </trkpt>
      <trkpt lat="43.45657" lon="3.42447">
        <ele>27.05</ele>
        <time>2012-10-12T08:22:01Z</time>
      </trkpt>
      <trkpt lat="43.45589" lon="3.42356">
        <ele>27.05</ele>
        <time>2012-10-12T08:22:18Z</time>
      </trkpt>
      <trkpt lat="43.45521" lon="3.42264">
        <ele>27.05</ele>
        <time>2012-10-12T08:22:35Z</time>
      </trkpt>
      <trkpt lat="43.45453" lon="3.42175">
        <ele>27.05</ele>
        <time>2012-10-12T08:22:52Z</time>
      </trkpt>
      <trkpt lat="43.45386" lon="3.42082">
        <ele>27.53</ele>
        <time>2012-10-12T08:23:09Z</time>
      </trkpt>
      <trkpt lat="43.45318" lon="3.41989">
        <ele>26.57</ele>
        <time>2012-10-12T08:23:26Z</time>
      </trkpt>
      <trkpt lat="43.45251" lon="3.419">
        <ele>27.05</ele>
        <time>2012-10-12T08:23:42Z</time>
      </trkpt>
      <trkpt lat="43.45186" lon="3.41809">
        <ele>26.57</ele>
        <time>2012-10-12T08:23:58Z</time>
      </trkpt>
      <trkpt lat="43.45121" lon="3.41721">
        <ele>26.09</ele>
        <time>2012-10-12T08:24:14Z</time>
      </trkpt>
      <trkpt lat="43.4508" lon="3.41617">
        <ele>27.53</ele>
        <time>2012-10-12T08:24:37Z</time>
      </trkpt>
      <trkpt lat="43.45016" lon="3.4153">
        <ele>27.53</ele>
        <time>2012-10-12T08:24:55Z</time>
      </trkpt>
      <trkpt lat="43.44967" lon="3.4142">
        <ele>27.05</ele>
        <time>2012-10-12T08:25:12Z</time>
      </trkpt>
      <trkpt lat="43.44919" lon="3.41312">
        <ele>27.05</ele>
        <time>2012-10-12T08:25:29Z</time>
      </trkpt>
      <trkpt lat="43.44866" lon="3.41201">
        <ele>26.57</ele>
        <time>2012-10-12T08:25:46Z</time>
      </trkpt>
      <trkpt lat="43.44816" lon="3.41093">
        <ele>25.61</ele>
        <time>2012-10-12T08:26:02Z</time>
      </trkpt>
      <trkpt lat="43.44765" lon="3.40983">
        <ele>26.57</ele>
        <time>2012-10-12T08:26:18Z</time>
      </trkpt>
      <trkpt lat="43.44716" lon="3.40871">
        <ele>26.57</ele>
        <time>2012-10-12T08:26:34Z</time>
      </trkpt>
      <trkpt lat="43.44696" lon="3.40756">
        <ele>26.09</ele>
        <time>2012-10-12T08:27:01Z</time>
      </trkpt>
      <trkpt lat="43.44661" lon="3.40649">
        <ele>26.09</ele>
        <time>2012-10-12T08:27:25Z</time>
      </trkpt>
      <trkpt lat="43.44652" lon="3.40527">
        <ele>26.57</ele>
        <time>2012-10-12T08:27:47Z</time>
      </trkpt>
      <trkpt lat="43.44637" lon="3.40403">
        <ele>28.98</ele>
        <time>2012-10-12T08:32:43Z</time>
      </trkpt>
      <trkpt lat="43.4461" lon="3.40284">
        <ele>29.94</ele>
        <time>2012-10-12T08:33:06Z</time>
      </trkpt>
      <trkpt lat="43.44569" lon="3.40168">
        <ele>30.9</ele>
        <time>2012-10-12T08:33:27Z</time>
      </trkpt>
      <trkpt lat="43.44519" lon="3.40061">
        <ele>30.9</ele>
        <time>2012-10-12T08:33:46Z</time>
      </trkpt>
      <trkpt lat="43.44461" lon="3.39967">
        <ele>29.94</ele>
        <time>2012-10-12T08:34:03Z</time>
      </trkpt>
      <trkpt lat="43.44393" lon="3.39878">
        <ele>29.94</ele>
        <time>2012-10-12T08:34:20Z</time>
      </trkpt>
      <trkpt lat="43.44328" lon="3.39791">
        <ele>30.9</ele>
        <time>2012-10-12T08:34:38Z</time>
      </trkpt>
      <trkpt lat="43.44261" lon="3.39704">
        <ele>33.78</ele>
        <time>2012-10-12T08:34:58Z</time>
      </trkpt>
      <trkpt lat="43.44195" lon="3.39616">
        <ele>35.71</ele>
        <time>2012-10-12T08:35:18Z</time>
      </trkpt>
      <trkpt lat="43.4413" lon="3.39527">
        <ele>38.11</ele>
        <time>2012-10-12T08:35:38Z</time>
      </trkpt>
      <trkpt lat="43.44068" lon="3.39437">
        <ele>39.55</ele>
        <time>2012-10-12T08:35:58Z</time>
      </trkpt>
      <trkpt lat="43.44012" lon="3.39339">
        <ele>41.47</ele>
        <time>2012-10-12T08:36:18Z</time>
      </trkpt>
      <trkpt lat="43.4396" lon="3.39231">
        <ele>41.95</ele>
        <time>2012-10-12T08:36:38Z</time>
      </trkpt>
      <trkpt lat="43.43905" lon="3.39126">
        <ele>42.92</ele>
        <time>2012-10-12T08:36:58Z</time>
      </trkpt>
      <trkpt lat="43.43851" lon="3.39024">
        <ele>42.92</ele>
        <time>2012-10-12T08:37:16Z</time>
      </trkpt>
      <trkpt lat="43.43795" lon="3.38918">
        <ele>42.92</ele>
        <time>2012-10-12T08:37:34Z</time>
      </trkpt>
      <trkpt lat="43.43742" lon="3.38815">
        <ele>43.88</ele>
        <time>2012-10-12T08:37:52Z</time>
      </trkpt>
      <trkpt lat="43.43685" lon="3.38709">
        <ele>45.32</ele>
        <time>2012-10-12T08:38:12Z</time>
      </trkpt>
      <trkpt lat="43.4363" lon="3.38603">
        <ele>46.76</ele>
        <time>2012-10-12T08:38:32Z</time>
      </trkpt>
      <trkpt lat="43.43577" lon="3.38501">
        <ele>47.72</ele>
        <time>2012-10-12T08:38:52Z</time>
      </trkpt>
      <trkpt lat="43.43523" lon="3.38395">
        <ele>50.61</ele>
        <time>2012-10-12T08:39:14Z</time>
      </trkpt>
      <trkpt lat="43.43464" lon="3.38284">
        <ele>53.49</ele>
        <time>2012-10-12T08:39:42Z</time>
      </trkpt>
      <trkpt lat="43.43404" lon="3.38169">
        <ele>57.34</ele>
        <time>2012-10-12T08:40:09Z</time>
      </trkpt>
      <trkpt lat="43.43351" lon="3.38068">
        <ele>58.78</ele>
        <time>2012-10-12T08:40:32Z</time>
      </trkpt>
      <trkpt lat="43.43295" lon="3.37962">
        <ele>59.74</ele>
        <time>2012-10-12T08:40:54Z</time>
      </trkpt>
      <trkpt lat="43.43241" lon="3.37859">
        <ele>60.7</ele>
        <time>2012-10-12T08:41:15Z</time>
      </trkpt>
      <trkpt lat="43.43186" lon="3.37754">
        <ele>61.66</ele>
        <time>2012-10-12T08:41:36Z</time>
      </trkpt>
      <trkpt lat="43.43132" lon="3.37652">
        <ele>62.62</ele>
        <time>2012-10-12T08:41:56Z</time>
      </trkpt>
      <trkpt lat="43.43077" lon="3.37545">
        <ele>63.1</ele>
        <time>2012-10-12T08:42:17Z</time>
      </trkpt>
      <trkpt lat="43.43021" lon="3.37437">
        <ele>65.03</ele>
        <time>2012-10-12T08:42:38Z</time>
      </trkpt>
      <trkpt lat="43.42963" lon="3.3733">
        <ele>68.39</ele>
        <time>2012-10-12T08:43:04Z</time>
      </trkpt>
      <trkpt lat="43.42905" lon="3.37221">
        <ele>73.2</ele>
        <time>2012-10-12T08:43:34Z</time>
      </trkpt>
      <trkpt lat="43.42848" lon="3.37108">
        <ele>76.08</ele>
        <time>2012-10-12T08:44:01Z</time>
      </trkpt>
      <trkpt lat="43.42792" lon="3.37005">
        <ele>77.52</ele>
        <time>2012-10-12T08:44:24Z</time>
      </trkpt>
      <trkpt lat="43.42728" lon="3.36915">
        <ele>77.04</ele>
        <time>2012-10-12T08:44:43Z</time>
      </trkpt>
      <trkpt lat="43.42652" lon="3.36848">
        <ele>75.12</ele>
        <time>2012-10-12T08:44:58Z</time>
      </trkpt>
      <trkpt lat="43.42569" lon="3.368">
        <ele>71.76</ele>
        <time>2012-10-12T08:45:10Z</time>
      </trkpt>
      <trkpt lat="43.42483" lon="3.36749">
        <ele>68.39</ele>
        <time>2012-10-12T08:45:21Z</time>
      </trkpt>
      <trkpt lat="43.42393" lon="3.36696">
        <ele>64.55</ele>
        <time>2012-10-12T08:45:32Z</time>
      </trkpt>
      <trkpt lat="43.42303" lon="3.36643">
        <ele>62.62</ele>
        <time>2012-10-12T08:45:44Z</time>
      </trkpt>
      <trkpt lat="43.42213" lon="3.36593">
        <ele>60.7</ele>
        <time>2012-10-12T08:45:57Z</time>
      </trkpt>
      <trkpt lat="43.42125" lon="3.36542">
        <ele>62.14</ele>
        <time>2012-10-12T08:46:15Z</time>
      </trkpt>
      <trkpt lat="43.42039" lon="3.3649">
        <ele>64.55</ele>
        <time>2012-10-12T08:46:35Z</time>
      </trkpt>
      <trkpt lat="43.41951" lon="3.36437">
        <ele>64.55</ele>
        <time>2012-10-12T08:46:54Z</time>
      </trkpt>
      <trkpt lat="43.41865" lon="3.36387">
        <ele>64.07</ele>
        <time>2012-10-12T08:47:11Z</time>
      </trkpt>
      <trkpt lat="43.41782" lon="3.36323">
        <ele>63.58</ele>
        <time>2012-10-12T08:47:30Z</time>
      </trkpt>
      <trkpt lat="43.41706" lon="3.36261">
        <ele>62.14</ele>
        <time>2012-10-12T08:47:46Z</time>
      </trkpt>
      <trkpt lat="43.41638" lon="3.36178">
        <ele>60.7</ele>
        <time>2012-10-12T08:48:00Z</time>
      </trkpt>
      <trkpt lat="43.41569" lon="3.36093">
        <ele>58.3</ele>
        <time>2012-10-12T08:48:14Z</time>
      </trkpt>
      <trkpt lat="43.41497" lon="3.36005">
        <ele>57.34</ele>
        <time>2012-10-12T08:48:28Z</time>
      </trkpt>
      <trkpt lat="43.41427" lon="3.35917">
        <ele>54.45</ele>
        <time>2012-10-12T08:48:42Z</time>
      </trkpt>
      <trkpt lat="43.41359" lon="3.35833">
        <ele>52.53</ele>
        <time>2012-10-12T08:48:55Z</time>
      </trkpt>
      <trkpt lat="43.41289" lon="3.35747">
        <ele>50.61</ele>
        <time>2012-10-12T08:49:08Z</time>
      </trkpt>
      <trkpt lat="43.41224" lon="3.35655">
        <ele>48.68</ele>
        <time>2012-10-12T08:49:21Z</time>
      </trkpt>
      <trkpt lat="43.41152" lon="3.35579">
        <ele>45.8</ele>
        <time>2012-10-12T08:49:34Z</time>
      </trkpt>
      <trkpt lat="43.41081" lon="3.35491">
        <ele>43.88</ele>
        <time>2012-10-12T08:49:47Z</time>
      </trkpt>
      <trkpt lat="43.41012" lon="3.35405">
        <ele>41.47</ele>
        <time>2012-10-12T08:50:00Z</time>
      </trkpt>
      <trkpt lat="43.40945" lon="3.35322">
        <ele>40.99</ele>
        <time>2012-10-12T08:50:14Z</time>
      </trkpt>
      <trkpt lat="43.40876" lon="3.35236">
        <ele>40.51</ele>
        <time>2012-10-12T08:50:29Z</time>
      </trkpt>
      <trkpt lat="43.40805" lon="3.35149">
        <ele>40.51</ele>
        <time>2012-10-12T08:50:44Z</time>
      </trkpt>
      <trkpt lat="43.40736" lon="3.35062">
        <ele>40.03</ele>
        <time>2012-10-12T08:50:59Z</time>
      </trkpt>
      <trkpt lat="43.40681" lon="3.34965">
        <ele>40.03</ele>
        <time>2012-10-12T08:51:14Z</time>
      </trkpt>
      <trkpt lat="43.40635" lon="3.34856">
        <ele>39.55</ele>
        <time>2012-10-12T08:51:30Z</time>
      </trkpt>
      <trkpt lat="43.40589" lon="3.34745">
        <ele>39.55</ele>
        <time>2012-10-12T08:51:46Z</time>
      </trkpt>
      <trkpt lat="43.40545" lon="3.34637">
        <ele>40.03</ele>
        <time>2012-10-12T08:52:01Z</time>
      </trkpt>
      <trkpt lat="43.40497" lon="3.34523">
        <ele>39.55</ele>
        <time>2012-10-12T08:52:17Z</time>
      </trkpt>
      <trkpt lat="43.40451" lon="3.34408">
        <ele>39.07</ele>
        <time>2012-10-12T08:52:32Z</time>
      </trkpt>
      <trkpt lat="43.40407" lon="3.34298">
        <ele>38.59</ele>
        <time>2012-10-12T08:52:46Z</time>
      </trkpt>
      <trkpt lat="43.40363" lon="3.34188">
        <ele>38.59</ele>
        <time>2012-10-12T08:53:00Z</time>
      </trkpt>
      <trkpt lat="43.40316" lon="3.34081">
        <ele>38.11</ele>
        <time>2012-10-12T08:53:14Z</time>
      </trkpt>
      <trkpt lat="43.40265" lon="3.33972">
        <ele>38.11</ele>
        <time>2012-10-12T08:53:29Z</time>
      </trkpt>
      <trkpt lat="43.40215" lon="3.33862">
        <ele>38.11</ele>
        <time>2012-10-12T08:53:44Z</time>
      </trkpt>
      <trkpt lat="43.40165" lon="3.33757">
        <ele>38.59</ele>
        <time>2012-10-12T08:53:59Z</time>
      </trkpt>
      <trkpt lat="43.40114" lon="3.33649">
        <ele>40.03</ele>
        <time>2012-10-12T08:54:16Z</time>
      </trkpt>
      <trkpt lat="43.40061" lon="3.33541">
        <ele>42.44</ele>
        <time>2012-10-12T08:54:36Z</time>
      </trkpt>
      <trkpt lat="43.40008" lon="3.33435">
        <ele>44.36</ele>
        <time>2012-10-12T08:54:56Z</time>
      </trkpt>
      <trkpt lat="43.39974" lon="3.33326">
        <ele>44.84</ele>
        <time>2012-10-12T08:55:15Z</time>
      </trkpt>
      <trkpt lat="43.39907" lon="3.33236">
        <ele>43.4</ele>
        <time>2012-10-12T08:55:35Z</time>
      </trkpt>
      <trkpt lat="43.39847" lon="3.33137">
        <ele>42.44</ele>
        <time>2012-10-12T08:55:50Z</time>
      </trkpt>
      <trkpt lat="43.39787" lon="3.33037">
        <ele>42.44</ele>
        <time>2012-10-12T08:56:05Z</time>
      </trkpt>
      <trkpt lat="43.39729" lon="3.32941">
        <ele>45.32</ele>
        <time>2012-10-12T08:56:22Z</time>
      </trkpt>
      <trkpt lat="43.3967" lon="3.32843">
        <ele>47.72</ele>
        <time>2012-10-12T08:56:42Z</time>
      </trkpt>
      <trkpt lat="43.39611" lon="3.32744">
        <ele>49.65</ele>
        <time>2012-10-12T08:57:02Z</time>
      </trkpt>
      <trkpt lat="43.39554" lon="3.32649">
        <ele>51.57</ele>
        <time>2012-10-12T08:57:21Z</time>
      </trkpt>
      <trkpt lat="43.39497" lon="3.32551">
        <ele>52.53</ele>
        <time>2012-10-12T08:57:40Z</time>
      </trkpt>
      <trkpt lat="43.3944" lon="3.3245">
        <ele>53.49</ele>
        <time>2012-10-12T08:57:58Z</time>
      </trkpt>
      <trkpt lat="43.39383" lon="3.32346">
        <ele>53.97</ele>
        <time>2012-10-12T08:58:15Z</time>
      </trkpt>
      <trkpt lat="43.39328" lon="3.32242">
        <ele>56.86</ele>
        <time>2012-10-12T08:58:33Z</time>
      </trkpt>
      <trkpt lat="43.39272" lon="3.32139">
        <ele>61.66</ele>
        <time>2012-10-12T08:58:57Z</time>
      </trkpt>
      <trkpt lat="43.39211" lon="3.32045">
        <ele>63.58</ele>
        <time>2012-10-12T08:59:20Z</time>
      </trkpt>
      <trkpt lat="43.39149" lon="3.31956">
        <ele>65.03</ele>
        <time>2012-10-12T08:59:40Z</time>
      </trkpt>
      <trkpt lat="43.39084" lon="3.31861">
        <ele>65.51</ele>
        <time>2012-10-12T09:00:00Z</time>
      </trkpt>
      <trkpt lat="43.39021" lon="3.31772">
        <ele>66.95</ele>
        <time>2012-10-12T09:00:19Z</time>
      </trkpt>
      <trkpt lat="43.38959" lon="3.31681">
        <ele>67.91</ele>
        <time>2012-10-12T09:00:38Z</time>
      </trkpt>
      <trkpt lat="43.38896" lon="3.31593">
        <ele>67.91</ele>
        <time>2012-10-12T09:00:56Z</time>
      </trkpt>
      <trkpt lat="43.38837" lon="3.31507">
        <ele>68.87</ele>
        <time>2012-10-12T09:01:16Z</time>
      </trkpt>
      <trkpt lat="43.38769" lon="3.31417">
        <ele>68.39</ele>
        <time>2012-10-12T09:01:35Z</time>
      </trkpt>
      <trkpt lat="43.38702" lon="3.31325">
        <ele>67.91</ele>
        <time>2012-10-12T09:01:52Z</time>
      </trkpt>
      <trkpt lat="43.38636" lon="3.31233">
        <ele>66.47</ele>
        <time>2012-10-12T09:02:08Z</time>
      </trkpt>
      <trkpt lat="43.38575" lon="3.31142">
        <ele>63.58</ele>
        <time>2012-10-12T09:02:22Z</time>
      </trkpt>
      <trkpt lat="43.38516" lon="3.3104">
        <ele>59.74</ele>
        <time>2012-10-12T09:02:36Z</time>
      </trkpt>
      <trkpt lat="43.38458" lon="3.3094">
        <ele>55.41</ele>
        <time>2012-10-12T09:02:48Z</time>
      </trkpt>
      <trkpt lat="43.38398" lon="3.30837">
        <ele>51.09</ele>
        <time>2012-10-12T09:02:59Z</time>
      </trkpt>
      <trkpt lat="43.38341" lon="3.30737">
        <ele>46.76</ele>
        <time>2012-10-12T09:03:14Z</time>
      </trkpt>
      <trkpt lat="43.38284" lon="3.30638">
        <ele>46.28</ele>
        <time>2012-10-12T09:04:18Z</time>
      </trkpt>
      <trkpt lat="43.38224" lon="3.30535">
        <ele>45.8</ele>
        <time>2012-10-12T09:04:37Z</time>
      </trkpt>
      <trkpt lat="43.38168" lon="3.30435">
        <ele>46.28</ele>
        <time>2012-10-12T09:04:54Z</time>
      </trkpt>
      <trkpt lat="43.38109" lon="3.30334">
        <ele>46.76</ele>
        <time>2012-10-12T09:05:12Z</time>
      </trkpt>
      <trkpt lat="43.38051" lon="3.30232">
        <ele>47.24</ele>
        <time>2012-10-12T09:05:30Z</time>
      </trkpt>
      <trkpt lat="43.37993" lon="3.30131">
        <ele>47.72</ele>
        <time>2012-10-12T09:05:48Z</time>
      </trkpt>
      <trkpt lat="43.37935" lon="3.3003">
        <ele>50.61</ele>
        <time>2012-10-12T09:06:09Z</time>
      </trkpt>
      <trkpt lat="43.37878" lon="3.2993">
        <ele>53.01</ele>
        <time>2012-10-12T09:06:32Z</time>
      </trkpt>
      <trkpt lat="43.3783" lon="3.29821">
        <ele>56.37</ele>
        <time>2012-10-12T09:06:55Z</time>
      </trkpt>
      <trkpt lat="43.37801" lon="3.29705">
        <ele>57.82</ele>
        <time>2012-10-12T09:07:16Z</time>
      </trkpt>
      <trkpt lat="43.37781" lon="3.29579">
        <ele>57.34</ele>
        <time>2012-10-12T09:07:35Z</time>
      </trkpt>
      <trkpt lat="43.37762" lon="3.29455">
        <ele>56.86</ele>
        <time>2012-10-12T09:07:53Z</time>
      </trkpt>
      <trkpt lat="43.37743" lon="3.29331">
        <ele>56.86</ele>
        <time>2012-10-12T09:08:10Z</time>
      </trkpt>
      <trkpt lat="43.37724" lon="3.2921">
        <ele>56.37</ele>
        <time>2012-10-12T09:08:27Z</time>
      </trkpt>
      <trkpt lat="43.37704" lon="3.29085">
        <ele>55.89</ele>
        <time>2012-10-12T09:08:44Z</time>
      </trkpt>
      <trkpt lat="43.37685" lon="3.2896">
        <ele>55.89</ele>
        <time>2012-10-12T09:09:01Z</time>
      </trkpt>
      <trkpt lat="43.37665" lon="3.28832">
        <ele>55.89</ele>
        <time>2012-10-12T09:09:19Z</time>
      </trkpt>
      <trkpt lat="43.37646" lon="3.28708">
        <ele>53.97</ele>
        <time>2012-10-12T09:09:41Z</time>
      </trkpt>
      <trkpt lat="43.37607" lon="3.28589">
        <ele>51.09</ele>
        <time>2012-10-12T09:10:01Z</time>
      </trkpt>
      <trkpt lat="43.37555" lon="3.28485">
        <ele>49.65</ele>
        <time>2012-10-12T09:10:14Z</time>
      </trkpt>
      <trkpt lat="43.37496" lon="3.2838">
        <ele>48.2</ele>
        <time>2012-10-12T09:10:28Z</time>
      </trkpt>
      <trkpt lat="43.37439" lon="3.28278">
        <ele>47.72</ele>
        <time>2012-10-12T09:10:43Z</time>
      </trkpt>
      <trkpt lat="43.37383" lon="3.28178">
        <ele>47.24</ele>
        <time>2012-10-12T09:11:00Z</time>
      </trkpt>
      <trkpt lat="43.37327" lon="3.28077">
        <ele>46.76</ele>
        <time>2012-10-12T09:11:17Z</time>
      </trkpt>
      <trkpt lat="43.3727" lon="3.27974">
        <ele>45.8</ele>
        <time>2012-10-12T09:11:34Z</time>
      </trkpt>
      <trkpt lat="43.37214" lon="3.27874">
        <ele>45.32</ele>
        <time>2012-10-12T09:11:51Z</time>
      </trkpt>
      <trkpt lat="43.37158" lon="3.27774">
        <ele>45.32</ele>
        <time>2012-10-12T09:12:08Z</time>
      </trkpt>
      <trkpt lat="43.37099" lon="3.27671">
        <ele>45.32</ele>
        <time>2012-10-12T09:12:25Z</time>
      </trkpt>
      <trkpt lat="43.37043" lon="3.27569">
        <ele>45.32</ele>
        <time>2012-10-12T09:12:42Z</time>
      </trkpt>
      <trkpt lat="43.3699" lon="3.27468">
        <ele>45.32</ele>
        <time>2012-10-12T09:14:26Z</time>
      </trkpt>
      <trkpt lat="43.36933" lon="3.27364">
        <ele>46.28</ele>
        <time>2012-10-12T09:14:48Z</time>
      </trkpt>
      <trkpt lat="43.36888" lon="3.27254">
        <ele>50.13</ele>
        <time>2012-10-12T09:15:15Z</time>
      </trkpt>
      <trkpt lat="43.36848" lon="3.27139">
        <ele>54.45</ele>
        <time>2012-10-12T09:15:42Z</time>
      </trkpt>
      <trkpt lat="43.36809" lon="3.27027">
        <ele>58.3</ele>
        <time>2012-10-12T09:16:09Z</time>
      </trkpt>
      <trkpt lat="43.3677" lon="3.26912">
        <ele>62.14</ele>
        <time>2012-10-12T09:16:39Z</time>
      </trkpt>
      <trkpt lat="43.36728" lon="3.26798">
        <ele>64.55</ele>
        <time>2012-10-12T09:17:07Z</time>
      </trkpt>
      <trkpt lat="43.36671" lon="3.26702">
        <ele>69.35</ele>
        <time>2012-10-12T09:17:33Z</time>
      </trkpt>
      <trkpt lat="43.36607" lon="3.26612">
        <ele>73.68</ele>
        <time>2012-10-12T09:18:00Z</time>
      </trkpt>
      <trkpt lat="43.3655" lon="3.26513">
        <ele>78</ele>
        <time>2012-10-12T09:18:29Z</time>
      </trkpt>
      <trkpt lat="43.36501" lon="3.26409">
        <ele>82.33</ele>
        <time>2012-10-12T09:18:59Z</time>
      </trkpt>
      <trkpt lat="43.36462" lon="3.26294">
        <ele>85.21</ele>
        <time>2012-10-12T09:19:28Z</time>
      </trkpt>
      <trkpt lat="43.36437" lon="3.2617">
        <ele>86.18</ele>
        <time>2012-10-12T09:19:51Z</time>
      </trkpt>
      <trkpt lat="43.36409" lon="3.26052">
        <ele>84.25</ele>
        <time>2012-10-12T09:20:09Z</time>
      </trkpt>
      <trkpt lat="43.36377" lon="3.25937">
        <ele>83.29</ele>
        <time>2012-10-12T09:20:26Z</time>
      </trkpt>
      <trkpt lat="43.36344" lon="3.2582">
        <ele>84.25</ele>
        <time>2012-10-12T09:20:52Z</time>
      </trkpt>
      <trkpt lat="43.36311" lon="3.25703">
        <ele>84.25</ele>
        <time>2012-10-12T09:21:12Z</time>
      </trkpt>
      <trkpt lat="43.363" lon="3.25581">
        <ele>84.73</ele>
        <time>2012-10-12T09:21:34Z</time>
      </trkpt>
      <trkpt lat="43.36245" lon="3.2549">
        <ele>86.18</ele>
        <time>2012-10-12T09:21:54Z</time>
      </trkpt>
      <trkpt lat="43.36207" lon="3.25374">
        <ele>87.62</ele>
        <time>2012-10-12T09:22:15Z</time>
      </trkpt>
      <trkpt lat="43.36176" lon="3.25258">
        <ele>87.62</ele>
        <time>2012-10-12T09:22:34Z</time>
      </trkpt>
      <trkpt lat="43.36148" lon="3.25135">
        <ele>85.69</ele>
        <time>2012-10-12T09:22:52Z</time>
      </trkpt>
      <trkpt lat="43.36133" lon="3.25011">
        <ele>86.66</ele>
        <time>2012-10-12T09:23:10Z</time>
      </trkpt>
      <trkpt lat="43.36074" lon="3.24938">
        <ele>86.18</ele>
        <time>2012-10-12T09:23:32Z</time>
      </trkpt>
      <trkpt lat="43.36028" lon="3.24828">
        <ele>88.1</ele>
        <time>2012-10-12T09:23:52Z</time>
      </trkpt>
      <trkpt lat="43.35994" lon="3.24707">
        <ele>86.18</ele>
        <time>2012-10-12T09:24:11Z</time>
      </trkpt>
      <trkpt lat="43.3594" lon="3.246">
        <ele>82.81</ele>
        <time>2012-10-12T09:24:30Z</time>
      </trkpt>
      <trkpt lat="43.35879" lon="3.24493">
        <ele>79.45</ele>
        <time>2012-10-12T09:24:43Z</time>
      </trkpt>
      <trkpt lat="43.35824" lon="3.24388">
        <ele>78.48</ele>
        <time>2012-10-12T09:24:57Z</time>
      </trkpt>
      <trkpt lat="43.35772" lon="3.24284">
        <ele>78.97</ele>
        <time>2012-10-12T09:25:12Z</time>
      </trkpt>
      <trkpt lat="43.3572" lon="3.24178">
        <ele>79.93</ele>
        <time>2012-10-12T09:25:30Z</time>
      </trkpt>
      <trkpt lat="43.35668" lon="3.24075">
        <ele>82.33</ele>
        <time>2012-10-12T09:25:50Z</time>
      </trkpt>
      <trkpt lat="43.35621" lon="3.2398">
        <ele>83.29</ele>
        <time>2012-10-12T09:26:11Z</time>
      </trkpt>
      <trkpt lat="43.35569" lon="3.23876">
        <ele>83.29</ele>
        <time>2012-10-12T09:26:29Z</time>
      </trkpt>
      <trkpt lat="43.35523" lon="3.2377">
        <ele>83.77</ele>
        <time>2012-10-12T09:26:48Z</time>
      </trkpt>
      <trkpt lat="43.35469" lon="3.23679">
        <ele>82.81</ele>
        <time>2012-10-12T09:27:06Z</time>
      </trkpt>
      <trkpt lat="43.35422" lon="3.23567">
        <ele>81.37</ele>
        <time>2012-10-12T09:27:24Z</time>
      </trkpt>
      <trkpt lat="43.35373" lon="3.23454">
        <ele>79.93</ele>
        <time>2012-10-12T09:27:39Z</time>
      </trkpt>
      <trkpt lat="43.35319" lon="3.23347">
        <ele>80.41</ele>
        <time>2012-10-12T09:27:56Z</time>
      </trkpt>
      <trkpt lat="43.3526" lon="3.23243">
        <ele>83.29</ele>
        <time>2012-10-12T09:28:24Z</time>
      </trkpt>
      <trkpt lat="43.35199" lon="3.23143">
        <ele>86.18</ele>
        <time>2012-10-12T09:28:51Z</time>
      </trkpt>
      <trkpt lat="43.35139" lon="3.2304">
        <ele>91.94</ele>
        <time>2012-10-12T09:29:20Z</time>
      </trkpt>
      <trkpt lat="43.3509" lon="3.2293">
        <ele>89.54</ele>
        <time>2012-10-12T09:29:40Z</time>
      </trkpt>
      <trkpt lat="43.35038" lon="3.22813">
        <ele>86.18</ele>
        <time>2012-10-12T09:29:57Z</time>
      </trkpt>
      <trkpt lat="43.34994" lon="3.22698">
        <ele>78</ele>
        <time>2012-10-12T09:30:13Z</time>
      </trkpt>
      <trkpt lat="43.34954" lon="3.22578">
        <ele>74.16</ele>
        <time>2012-10-12T09:30:39Z</time>
      </trkpt>
      <trkpt lat="43.34918" lon="3.22459">
        <ele>72.24</ele>
        <time>2012-10-12T09:31:19Z</time>
      </trkpt>
      <trkpt lat="43.34878" lon="3.22344">
        <ele>72.24</ele>
        <time>2012-10-12T09:31:38Z</time>
      </trkpt>
      <trkpt lat="43.34823" lon="3.22235">
        <ele>71.27</ele>
        <time>2012-10-12T09:31:59Z</time>
      </trkpt>
      <trkpt lat="43.34762" lon="3.22123">
        <ele>71.27</ele>
        <time>2012-10-12T09:32:17Z</time>
      </trkpt>
      <trkpt lat="43.34706" lon="3.22015">
        <ele>69.83</ele>
        <time>2012-10-12T09:32:37Z</time>
      </trkpt>
      <trkpt lat="43.34652" lon="3.21913">
        <ele>68.87</ele>
        <time>2012-10-12T09:33:34Z</time>
      </trkpt>
      <trkpt lat="43.34586" lon="3.2183">
        <ele>69.83</ele>
        <time>2012-10-12T09:34:03Z</time>
      </trkpt>
      <trkpt lat="43.34505" lon="3.21784">
        <ele>69.83</ele>
        <time>2012-10-12T09:34:43Z</time>
      </trkpt>
      <trkpt lat="43.34567" lon="3.21818">
        <ele>71.27</ele>
        <time>2012-10-12T09:35:22Z</time>
      </trkpt>
      <trkpt lat="43.34631" lon="3.21901">
        <ele>70.79</ele>
        <time>2012-10-12T09:36:03Z</time>
      </trkpt>
      <trkpt lat="43.34542" lon="3.21966">
        <ele>66.47</ele>
        <time>2012-10-12T09:37:09Z</time>
      </trkpt>
      <trkpt lat="43.345" lon="3.2202">
        <ele>65.51</ele>
        <time>2012-10-12T09:42:34Z</time>
      </trkpt>
      <trkpt lat="43.34412" lon="3.22041">
        <ele>62.14</ele>
        <time>2012-10-12T09:44:14Z</time>
      </trkpt>
      <trkpt lat="43.34328" lon="3.22085">
        <ele>60.22</ele>
        <time>2012-10-12T09:44:39Z</time>
      </trkpt>
      <trkpt lat="43.34246" lon="3.22112">
        <ele>58.78</ele>
        <time>2012-10-12T09:45:14Z</time>
      </trkpt>
      <trkpt lat="43.34214" lon="3.21985">
        <ele>63.1</ele>
        <time>2012-10-12T09:45:49Z</time>
      </trkpt>
      <trkpt lat="43.34186" lon="3.2186">
        <ele>67.91</ele>
        <time>2012-10-12T09:46:35Z</time>
      </trkpt>
      <trkpt lat="43.34158" lon="3.21745">
        <ele>71.76</ele>
        <time>2012-10-12T09:47:55Z</time>
      </trkpt>
      <trkpt lat="43.34084" lon="3.21807">
        <ele>69.83</ele>
        <time>2012-10-12T09:48:38Z</time>
      </trkpt>
      <trkpt lat="43.3406" lon="3.21832">
        <ele>69.35</ele>
        <time>2012-10-12T09:49:33Z</time>
      </trkpt>
      <trkpt lat="43.34148" lon="3.21761">
        <ele>70.31</ele>
        <time>2012-10-12T09:50:31Z</time>
      </trkpt>
      <trkpt lat="43.34262" lon="3.21691">
        <ele>73.2</ele>
        <time>2012-10-12T09:51:37Z</time>
      </trkpt>
      <trkpt lat="43.34178" lon="3.21741">
        <ele>83.29</ele>
        <time>2012-10-12T10:15:37Z</time>
      </trkpt>
      <trkpt lat="43.3409" lon="3.21814">
        <ele>81.85</ele>
        <time>2012-10-12T10:16:38Z</time>
      </trkpt>
      <trkpt lat="43.33988" lon="3.21792">
        <ele>76.08</ele>
        <time>2012-10-12T10:20:04Z</time>
      </trkpt>
      <trkpt lat="43.33953" lon="3.21865">
        <ele>75.12</ele>
        <time>2012-10-12T10:20:51Z</time>
      </trkpt>
      <trkpt lat="43.33961" lon="3.2177">
        <ele>70.31</ele>
        <time>2012-10-12T10:21:33Z</time>
      </trkpt>
      <trkpt lat="43.33968" lon="3.21671">
        <ele>63.1</ele>
        <time>2012-10-12T10:22:34Z</time>
      </trkpt>
      <trkpt lat="43.3397" lon="3.21577">
        <ele>65.03</ele>
        <time>2012-10-12T10:23:17Z</time>
      </trkpt>
      <trkpt lat="43.33892" lon="3.21533">
        <ele>60.7</ele>
        <time>2012-10-12T10:24:06Z</time>
      </trkpt>
      <trkpt lat="43.33802" lon="3.21558">
        <ele>57.82</ele>
        <time>2012-10-12T10:24:22Z</time>
      </trkpt>
      <trkpt lat="43.33713" lon="3.21527">
        <ele>53.01</ele>
        <time>2012-10-12T10:24:34Z</time>
      </trkpt>
      <trkpt lat="43.33704" lon="3.21414">
        <ele>48.2</ele>
        <time>2012-10-12T10:24:45Z</time>
      </trkpt>
      <trkpt lat="43.33755" lon="3.21315">
        <ele>43.88</ele>
        <time>2012-10-12T10:24:57Z</time>
      </trkpt>
      <trkpt lat="43.33825" lon="3.21231">
        <ele>39.07</ele>
        <time>2012-10-12T10:25:17Z</time>
      </trkpt>
      <trkpt lat="43.33896" lon="3.21146">
        <ele>38.11</ele>
        <time>2012-10-12T10:25:36Z</time>
      </trkpt>
      <trkpt lat="43.33903" lon="3.21029">
        <ele>38.11</ele>
        <time>2012-10-12T10:25:55Z</time>
      </trkpt>
      <trkpt lat="43.33861" lon="3.20915">
        <ele>39.55</ele>
        <time>2012-10-12T10:26:14Z</time>
      </trkpt>
      <trkpt lat="43.33823" lon="3.20806">
        <ele>36.19</ele>
        <time>2012-10-12T10:27:53Z</time>
      </trkpt>
      <trkpt lat="43.33806" lon="3.20685">
        <ele>33.3</ele>
        <time>2012-10-12T10:28:12Z</time>
      </trkpt>
      <trkpt lat="43.33835" lon="3.20563">
        <ele>31.38</ele>
        <time>2012-10-12T10:28:28Z</time>
      </trkpt>
      <trkpt lat="43.33815" lon="3.20447">
        <ele>31.38</ele>
        <time>2012-10-12T10:28:46Z</time>
      </trkpt>
      <trkpt lat="43.33804" lon="3.20327">
        <ele>30.42</ele>
        <time>2012-10-12T10:29:35Z</time>
      </trkpt>
      <trkpt lat="43.33789" lon="3.20245">
        <ele>30.42</ele>
        <time>2012-10-12T10:30:09Z</time>
      </trkpt>
      <trkpt lat="43.33734" lon="3.20205">
        <ele>33.3</ele>
        <time>2012-10-12T10:30:29Z</time>
      </trkpt>
      <trkpt lat="43.33662" lon="3.20192">
        <ele>30.42</ele>
        <time>2012-10-12T10:30:48Z</time>
      </trkpt>
      <trkpt lat="43.33613" lon="3.20086">
        <ele>29.94</ele>
        <time>2012-10-12T10:31:07Z</time>
      </trkpt>
      <trkpt lat="43.33565" lon="3.19977">
        <ele>31.38</ele>
        <time>2012-10-12T10:31:26Z</time>
      </trkpt>
      <trkpt lat="43.33518" lon="3.1991">
        <ele>30.9</ele>
        <time>2012-10-12T10:32:03Z</time>
      </trkpt>
      <trkpt lat="43.33501" lon="3.19819">
        <ele>31.38</ele>
        <time>2012-10-12T10:32:45Z</time>
      </trkpt>
      <trkpt lat="43.33441" lon="3.19725">
        <ele>33.3</ele>
        <time>2012-10-12T10:33:07Z</time>
      </trkpt>
      <trkpt lat="43.33377" lon="3.19631">
        <ele>37.15</ele>
        <time>2012-10-12T10:33:34Z</time>
      </trkpt>
      <trkpt lat="43.33315" lon="3.19538">
        <ele>42.44</ele>
        <time>2012-10-12T10:34:02Z</time>
      </trkpt>
      <trkpt lat="43.33241" lon="3.19461">
        <ele>46.76</ele>
        <time>2012-10-12T10:34:34Z</time>
      </trkpt>
      <trkpt lat="43.33158" lon="3.19412">
        <ele>52.05</ele>
        <time>2012-10-12T10:35:04Z</time>
      </trkpt>
      <trkpt lat="43.33069" lon="3.19385">
        <ele>53.01</ele>
        <time>2012-10-12T10:35:30Z</time>
      </trkpt>
      <trkpt lat="43.32977" lon="3.19361">
        <ele>52.53</ele>
        <time>2012-10-12T10:35:51Z</time>
      </trkpt>
      <trkpt lat="43.32889" lon="3.19332">
        <ele>53.01</ele>
        <time>2012-10-12T10:36:08Z</time>
      </trkpt>
      <trkpt lat="43.32809" lon="3.19281">
        <ele>52.05</ele>
        <time>2012-10-12T10:37:43Z</time>
      </trkpt>
      <trkpt lat="43.32731" lon="3.19214">
        <ele>53.01</ele>
        <time>2012-10-12T10:38:07Z</time>
      </trkpt>
      <trkpt lat="43.32649" lon="3.19151">
        <ele>51.09</ele>
        <time>2012-10-12T10:38:24Z</time>
      </trkpt>
      <trkpt lat="43.32569" lon="3.19088">
        <ele>51.09</ele>
        <time>2012-10-12T10:38:40Z</time>
      </trkpt>
      <trkpt lat="43.32489" lon="3.19023">
        <ele>49.16</ele>
        <time>2012-10-12T10:38:58Z</time>
      </trkpt>
      <trkpt lat="43.3241" lon="3.18959">
        <ele>49.65</ele>
        <time>2012-10-12T10:39:17Z</time>
      </trkpt>
      <trkpt lat="43.32335" lon="3.18887">
        <ele>51.57</ele>
        <time>2012-10-12T10:39:36Z</time>
      </trkpt>
      <trkpt lat="43.32268" lon="3.188">
        <ele>52.53</ele>
        <time>2012-10-12T10:39:58Z</time>
      </trkpt>
      <trkpt lat="43.32198" lon="3.18712">
        <ele>56.86</ele>
        <time>2012-10-12T10:40:23Z</time>
      </trkpt>
      <trkpt lat="43.32119" lon="3.18653">
        <ele>59.26</ele>
        <time>2012-10-12T10:42:18Z</time>
      </trkpt>
      <trkpt lat="43.32034" lon="3.18609">
        <ele>62.62</ele>
        <time>2012-10-12T10:42:45Z</time>
      </trkpt>
      <trkpt lat="43.31955" lon="3.18548">
        <ele>66.95</ele>
        <time>2012-10-12T10:43:12Z</time>
      </trkpt>
      <trkpt lat="43.31872" lon="3.18499">
        <ele>70.31</ele>
        <time>2012-10-12T10:43:37Z</time>
      </trkpt>
      <trkpt lat="43.31785" lon="3.18451">
        <ele>70.31</ele>
        <time>2012-10-12T10:43:58Z</time>
      </trkpt>
      <trkpt lat="43.3171" lon="3.18383">
        <ele>70.31</ele>
        <time>2012-10-12T10:44:14Z</time>
      </trkpt>
      <trkpt lat="43.31647" lon="3.18289">
        <ele>71.27</ele>
        <time>2012-10-12T10:44:31Z</time>
      </trkpt>
      <trkpt lat="43.31585" lon="3.18194">
        <ele>71.27</ele>
        <time>2012-10-12T10:44:48Z</time>
      </trkpt>
      <trkpt lat="43.31523" lon="3.18098">
        <ele>70.79</ele>
        <time>2012-10-12T10:45:06Z</time>
      </trkpt>
      <trkpt lat="43.31463" lon="3.18005">
        <ele>71.27</ele>
        <time>2012-10-12T10:45:24Z</time>
      </trkpt>
      <trkpt lat="43.31402" lon="3.1791">
        <ele>72.72</ele>
        <time>2012-10-12T10:45:45Z</time>
      </trkpt>
      <trkpt lat="43.31349" lon="3.17807">
        <ele>72.24</ele>
        <time>2012-10-12T10:46:04Z</time>
      </trkpt>
      <trkpt lat="43.31304" lon="3.17697">
        <ele>70.79</ele>
        <time>2012-10-12T10:46:20Z</time>
      </trkpt>
      <trkpt lat="43.31259" lon="3.17584">
        <ele>69.83</ele>
        <time>2012-10-12T10:46:34Z</time>
      </trkpt>
      <trkpt lat="43.31211" lon="3.17474">
        <ele>69.35</ele>
        <time>2012-10-12T10:46:49Z</time>
      </trkpt>
      <trkpt lat="43.31154" lon="3.17379">
        <ele>69.35</ele>
        <time>2012-10-12T10:47:04Z</time>
      </trkpt>
      <trkpt lat="43.3109" lon="3.17287">
        <ele>70.31</ele>
        <time>2012-10-12T10:47:21Z</time>
      </trkpt>
      <trkpt lat="43.31029" lon="3.17189">
        <ele>69.83</ele>
        <time>2012-10-12T10:47:40Z</time>
      </trkpt>
      <trkpt lat="43.30969" lon="3.17088">
        <ele>71.27</ele>
        <time>2012-10-12T10:48:01Z</time>
      </trkpt>
      <trkpt lat="43.30917" lon="3.16985">
        <ele>74.64</ele>
        <time>2012-10-12T10:48:24Z</time>
      </trkpt>
      <trkpt lat="43.30868" lon="3.16876">
        <ele>75.12</ele>
        <time>2012-10-12T10:48:48Z</time>
      </trkpt>
      <trkpt lat="43.30846" lon="3.16762">
        <ele>75.12</ele>
        <time>2012-10-12T10:49:08Z</time>
      </trkpt>
      <trkpt lat="43.30781" lon="3.16685">
        <ele>76.08</ele>
        <time>2012-10-12T10:49:26Z</time>
      </trkpt>
      <trkpt lat="43.30733" lon="3.16578">
        <ele>76.56</ele>
        <time>2012-10-12T10:49:43Z</time>
      </trkpt>
      <trkpt lat="43.30685" lon="3.16472">
        <ele>75.6</ele>
        <time>2012-10-12T10:49:59Z</time>
      </trkpt>
      <trkpt lat="43.30635" lon="3.16361">
        <ele>74.16</ele>
        <time>2012-10-12T10:50:15Z</time>
      </trkpt>
      <trkpt lat="43.30588" lon="3.16256">
        <ele>73.68</ele>
        <time>2012-10-12T10:50:30Z</time>
      </trkpt>
      <trkpt lat="43.3054" lon="3.1615">
        <ele>74.16</ele>
        <time>2012-10-12T10:50:45Z</time>
      </trkpt>
      <trkpt lat="43.30491" lon="3.16043">
        <ele>74.16</ele>
        <time>2012-10-12T10:51:01Z</time>
      </trkpt>
      <trkpt lat="43.30444" lon="3.15938">
        <ele>74.64</ele>
        <time>2012-10-12T10:51:18Z</time>
      </trkpt>
      <trkpt lat="43.30396" lon="3.1583">
        <ele>76.08</ele>
        <time>2012-10-12T10:51:36Z</time>
      </trkpt>
      <trkpt lat="43.30344" lon="3.15724">
        <ele>76.08</ele>
        <time>2012-10-12T10:51:54Z</time>
      </trkpt>
      <trkpt lat="43.30286" lon="3.15627">
        <ele>76.08</ele>
        <time>2012-10-12T10:52:11Z</time>
      </trkpt>
      <trkpt lat="43.30224" lon="3.1554">
        <ele>75.6</ele>
        <time>2012-10-12T10:52:28Z</time>
      </trkpt>
      <trkpt lat="43.30154" lon="3.1545">
        <ele>76.08</ele>
        <time>2012-10-12T10:52:46Z</time>
      </trkpt>
      <trkpt lat="43.30083" lon="3.1537">
        <ele>76.08</ele>
        <time>2012-10-12T10:53:03Z</time>
      </trkpt>
      <trkpt lat="43.30008" lon="3.15291">
        <ele>76.08</ele>
        <time>2012-10-12T10:53:20Z</time>
      </trkpt>
      <trkpt lat="43.29939" lon="3.15207">
        <ele>76.08</ele>
        <time>2012-10-12T10:53:36Z</time>
      </trkpt>
      <trkpt lat="43.29874" lon="3.15114">
        <ele>74.16</ele>
        <time>2012-10-12T10:53:52Z</time>
      </trkpt>
      <trkpt lat="43.29816" lon="3.15011">
        <ele>74.16</ele>
        <time>2012-10-12T10:54:08Z</time>
      </trkpt>
      <trkpt lat="43.29767" lon="3.14905">
        <ele>74.16</ele>
        <time>2012-10-12T10:54:23Z</time>
      </trkpt>
      <trkpt lat="43.29725" lon="3.14792">
        <ele>74.16</ele>
        <time>2012-10-12T10:54:39Z</time>
      </trkpt>
      <trkpt lat="43.29689" lon="3.14675">
        <ele>72.72</ele>
        <time>2012-10-12T10:54:55Z</time>
      </trkpt>
      <trkpt lat="43.29654" lon="3.14554">
        <ele>72.24</ele>
        <time>2012-10-12T10:55:11Z</time>
      </trkpt>
      <trkpt lat="43.29619" lon="3.14435">
        <ele>71.27</ele>
        <time>2012-10-12T10:55:27Z</time>
      </trkpt>
      <trkpt lat="43.29585" lon="3.1432">
        <ele>69.83</ele>
        <time>2012-10-12T10:55:42Z</time>
      </trkpt>
      <trkpt lat="43.29551" lon="3.14203">
        <ele>69.35</ele>
        <time>2012-10-12T10:55:57Z</time>
      </trkpt>
      <trkpt lat="43.29519" lon="3.14087">
        <ele>68.39</ele>
        <time>2012-10-12T10:56:12Z</time>
      </trkpt>
      <trkpt lat="43.29503" lon="3.13965">
        <ele>67.43</ele>
        <time>2012-10-12T10:56:29Z</time>
      </trkpt>
      <trkpt lat="43.29506" lon="3.13841">
        <ele>66.95</ele>
        <time>2012-10-12T10:56:46Z</time>
      </trkpt>
      <trkpt lat="43.29522" lon="3.13717">
        <ele>66.47</ele>
        <time>2012-10-12T10:57:05Z</time>
      </trkpt>
      <trkpt lat="43.29533" lon="3.13593">
        <ele>66.95</ele>
        <time>2012-10-12T10:57:24Z</time>
      </trkpt>
      <trkpt lat="43.29525" lon="3.13465">
        <ele>65.99</ele>
        <time>2012-10-12T10:57:42Z</time>
      </trkpt>
      <trkpt lat="43.29501" lon="3.13345">
        <ele>64.55</ele>
        <time>2012-10-12T10:57:59Z</time>
      </trkpt>
      <trkpt lat="43.29473" lon="3.13228">
        <ele>62.14</ele>
        <time>2012-10-12T10:58:14Z</time>
      </trkpt>
      <trkpt lat="43.29445" lon="3.13109">
        <ele>59.74</ele>
        <time>2012-10-12T10:58:29Z</time>
      </trkpt>
      <trkpt lat="43.29416" lon="3.12988">
        <ele>55.89</ele>
        <time>2012-10-12T10:58:42Z</time>
      </trkpt>
      <trkpt lat="43.29386" lon="3.12864">
        <ele>52.05</ele>
        <time>2012-10-12T10:58:54Z</time>
      </trkpt>
      <trkpt lat="43.29358" lon="3.12745">
        <ele>49.65</ele>
        <time>2012-10-12T10:59:06Z</time>
      </trkpt>
      <trkpt lat="43.2933" lon="3.12625">
        <ele>45.32</ele>
        <time>2012-10-12T10:59:19Z</time>
      </trkpt>
      <trkpt lat="43.29299" lon="3.12498">
        <ele>41.47</ele>
        <time>2012-10-12T10:59:32Z</time>
      </trkpt>
      <trkpt lat="43.29269" lon="3.12378">
        <ele>38.59</ele>
        <time>2012-10-12T10:59:44Z</time>
      </trkpt>
      <trkpt lat="43.2924" lon="3.1226">
        <ele>34.74</ele>
        <time>2012-10-12T10:59:55Z</time>
      </trkpt>
      <trkpt lat="43.29212" lon="3.1214">
        <ele>30.9</ele>
        <time>2012-10-12T11:00:06Z</time>
      </trkpt>
      <trkpt lat="43.29175" lon="3.1202">
        <ele>27.05</ele>
        <time>2012-10-12T11:00:18Z</time>
      </trkpt>
      <trkpt lat="43.29127" lon="3.11913">
        <ele>26.57</ele>
        <time>2012-10-12T11:00:30Z</time>
      </trkpt>
      <trkpt lat="43.29076" lon="3.11803">
        <ele>26.09</ele>
        <time>2012-10-12T11:00:45Z</time>
      </trkpt>
      <trkpt lat="43.29028" lon="3.11696">
        <ele>25.61</ele>
        <time>2012-10-12T11:01:01Z</time>
      </trkpt>
      <trkpt lat="43.28979" lon="3.11587">
        <ele>25.61</ele>
        <time>2012-10-12T11:01:18Z</time>
      </trkpt>
      <trkpt lat="43.28931" lon="3.11481">
        <ele>23.21</ele>
        <time>2012-10-12T11:01:33Z</time>
      </trkpt>
      <trkpt lat="43.2888" lon="3.1137">
        <ele>21.77</ele>
        <time>2012-10-12T11:01:49Z</time>
      </trkpt>
      <trkpt lat="43.28832" lon="3.11261">
        <ele>21.77</ele>
        <time>2012-10-12T11:02:05Z</time>
      </trkpt>
      <trkpt lat="43.28783" lon="3.11151">
        <ele>22.73</ele>
        <time>2012-10-12T11:02:21Z</time>
      </trkpt>
      <trkpt lat="43.28735" lon="3.11044">
        <ele>21.77</ele>
        <time>2012-10-12T11:02:37Z</time>
      </trkpt>
      <trkpt lat="43.28687" lon="3.10938">
        <ele>22.25</ele>
        <time>2012-10-12T11:02:54Z</time>
      </trkpt>
      <trkpt lat="43.28637" lon="3.10828">
        <ele>22.25</ele>
        <time>2012-10-12T11:03:13Z</time>
      </trkpt>
      <trkpt lat="43.2859" lon="3.10724">
        <ele>22.25</ele>
        <time>2012-10-12T11:03:32Z</time>
      </trkpt>
      <trkpt lat="43.28531" lon="3.10625">
        <ele>22.25</ele>
        <time>2012-10-12T11:03:51Z</time>
      </trkpt>
      <trkpt lat="43.28469" lon="3.10532">
        <ele>23.69</ele>
        <time>2012-10-12T11:04:09Z</time>
      </trkpt>
      <trkpt lat="43.28398" lon="3.10455">
        <ele>24.65</ele>
        <time>2012-10-12T11:04:28Z</time>
      </trkpt>
      <trkpt lat="43.28317" lon="3.10391">
        <ele>25.13</ele>
        <time>2012-10-12T11:04:47Z</time>
      </trkpt>
      <trkpt lat="43.2824" lon="3.10321">
        <ele>26.57</ele>
        <time>2012-10-12T11:05:06Z</time>
      </trkpt>
      <trkpt lat="43.28176" lon="3.10233">
        <ele>27.53</ele>
        <time>2012-10-12T11:05:26Z</time>
      </trkpt>
      <trkpt lat="43.28123" lon="3.1013">
        <ele>29.94</ele>
        <time>2012-10-12T11:05:47Z</time>
      </trkpt>
      <trkpt lat="43.28071" lon="3.10028">
        <ele>30.42</ele>
        <time>2012-10-12T11:06:09Z</time>
      </trkpt>
      <trkpt lat="43.2802" lon="3.09926">
        <ele>32.34</ele>
        <time>2012-10-12T11:06:31Z</time>
      </trkpt>
      <trkpt lat="43.27968" lon="3.09823">
        <ele>33.3</ele>
        <time>2012-10-12T11:06:53Z</time>
      </trkpt>
      <trkpt lat="43.27916" lon="3.09719">
        <ele>36.19</ele>
        <time>2012-10-12T11:07:15Z</time>
      </trkpt>
      <trkpt lat="43.27864" lon="3.09617">
        <ele>38.11</ele>
        <time>2012-10-12T11:07:37Z</time>
      </trkpt>
      <trkpt lat="43.27812" lon="3.09513">
        <ele>39.55</ele>
        <time>2012-10-12T11:07:59Z</time>
      </trkpt>
      <trkpt lat="43.27762" lon="3.09409">
        <ele>41.47</ele>
        <time>2012-10-12T11:08:20Z</time>
      </trkpt>
      <trkpt lat="43.27723" lon="3.09291">
        <ele>40.99</ele>
        <time>2012-10-12T11:08:41Z</time>
      </trkpt>
      <trkpt lat="43.27703" lon="3.09165">
        <ele>41.95</ele>
        <time>2012-10-12T11:09:03Z</time>
      </trkpt>
      <trkpt lat="43.27689" lon="3.09041">
        <ele>43.4</ele>
        <time>2012-10-12T11:09:23Z</time>
      </trkpt>
      <trkpt lat="43.27676" lon="3.08921">
        <ele>44.84</ele>
        <time>2012-10-12T11:09:44Z</time>
      </trkpt>
      <trkpt lat="43.27663" lon="3.08793">
        <ele>44.84</ele>
        <time>2012-10-12T11:10:08Z</time>
      </trkpt>
      <trkpt lat="43.27649" lon="3.08669">
        <ele>44.84</ele>
        <time>2012-10-12T11:10:30Z</time>
      </trkpt>
      <trkpt lat="43.27645" lon="3.08546">
        <ele>44.84</ele>
        <time>2012-10-12T11:10:51Z</time>
      </trkpt>
      <trkpt lat="43.27651" lon="3.08423">
        <ele>42.44</ele>
        <time>2012-10-12T11:11:09Z</time>
      </trkpt>
      <trkpt lat="43.27655" lon="3.08296">
        <ele>40.03</ele>
        <time>2012-10-12T11:11:26Z</time>
      </trkpt>
      <trkpt lat="43.27639" lon="3.08167">
        <ele>35.71</ele>
        <time>2012-10-12T11:11:42Z</time>
      </trkpt>
      <trkpt lat="43.27596" lon="3.08054">
        <ele>31.38</ele>
        <time>2012-10-12T11:11:56Z</time>
      </trkpt>
      <trkpt lat="43.27529" lon="3.07963">
        <ele>28.98</ele>
        <time>2012-10-12T11:12:09Z</time>
      </trkpt>
      <trkpt lat="43.27453" lon="3.07892">
        <ele>29.46</ele>
        <time>2012-10-12T11:12:23Z</time>
      </trkpt>
      <trkpt lat="43.27377" lon="3.07821">
        <ele>31.86</ele>
        <time>2012-10-12T11:12:40Z</time>
      </trkpt>
      <trkpt lat="43.27294" lon="3.07759">
        <ele>34.26</ele>
        <time>2012-10-12T11:12:59Z</time>
      </trkpt>
      <trkpt lat="43.27203" lon="3.07759">
        <ele>33.78</ele>
        <time>2012-10-12T11:13:16Z</time>
      </trkpt>
      <trkpt lat="43.27121" lon="3.07823">
        <ele>31.38</ele>
        <time>2012-10-12T11:13:29Z</time>
      </trkpt>
      <trkpt lat="43.27066" lon="3.07924">
        <ele>27.05</ele>
        <time>2012-10-12T11:14:30Z</time>
      </trkpt>
      <trkpt lat="43.26998" lon="3.0801">
        <ele>23.69</ele>
        <time>2012-10-12T11:14:42Z</time>
      </trkpt>
      <trkpt lat="43.26905" lon="3.08049">
        <ele>20.81</ele>
        <time>2012-10-12T11:14:53Z</time>
      </trkpt>
      <trkpt lat="43.26812" lon="3.08077">
        <ele>18.88</ele>
        <time>2012-10-12T11:15:03Z</time>
      </trkpt>
      <trkpt lat="43.26717" lon="3.08102">
        <ele>16</ele>
        <time>2012-10-12T11:15:13Z</time>
      </trkpt>
      <trkpt lat="43.2662" lon="3.08089">
        <ele>14.08</ele>
        <time>2012-10-12T11:15:24Z</time>
      </trkpt>
      <trkpt lat="43.26537" lon="3.08037">
        <ele>13.6</ele>
        <time>2012-10-12T11:15:36Z</time>
      </trkpt>
      <trkpt lat="43.26452" lon="3.0798">
        <ele>13.12</ele>
        <time>2012-10-12T11:15:50Z</time>
      </trkpt>
      <trkpt lat="43.26369" lon="3.07925">
        <ele>12.15</ele>
        <time>2012-10-12T11:16:05Z</time>
      </trkpt>
      <trkpt lat="43.26285" lon="3.07869">
        <ele>13.6</ele>
        <time>2012-10-12T11:16:21Z</time>
      </trkpt>
      <trkpt lat="43.26199" lon="3.07813">
        <ele>13.12</ele>
        <time>2012-10-12T11:16:37Z</time>
      </trkpt>
      <trkpt lat="43.26114" lon="3.07756">
        <ele>13.12</ele>
        <time>2012-10-12T11:16:53Z</time>
      </trkpt>
      <trkpt lat="43.26031" lon="3.07699">
        <ele>16</ele>
        <time>2012-10-12T11:17:09Z</time>
      </trkpt>
      <trkpt lat="43.25953" lon="3.07634">
        <ele>14.08</ele>
        <time>2012-10-12T11:17:25Z</time>
      </trkpt>
      <trkpt lat="43.25873" lon="3.07569">
        <ele>14.08</ele>
        <time>2012-10-12T11:17:42Z</time>
      </trkpt>
      <trkpt lat="43.25792" lon="3.07504">
        <ele>14.08</ele>
        <time>2012-10-12T11:17:59Z</time>
      </trkpt>
      <trkpt lat="43.25716" lon="3.0744">
        <ele>14.08</ele>
        <time>2012-10-12T11:18:16Z</time>
      </trkpt>
      <trkpt lat="43.25636" lon="3.07373">
        <ele>14.56</ele>
        <time>2012-10-12T11:18:32Z</time>
      </trkpt>
      <trkpt lat="43.25555" lon="3.07305">
        <ele>14.56</ele>
        <time>2012-10-12T11:18:49Z</time>
      </trkpt>
      <trkpt lat="43.25472" lon="3.07238">
        <ele>14.56</ele>
        <time>2012-10-12T11:19:06Z</time>
      </trkpt>
      <trkpt lat="43.25393" lon="3.07175">
        <ele>14.56</ele>
        <time>2012-10-12T11:19:22Z</time>
      </trkpt>
      <trkpt lat="43.25313" lon="3.0711">
        <ele>14.56</ele>
        <time>2012-10-12T11:19:38Z</time>
      </trkpt>
      <trkpt lat="43.25233" lon="3.07044">
        <ele>14.08</ele>
        <time>2012-10-12T11:19:54Z</time>
      </trkpt>
      <trkpt lat="43.25153" lon="3.06978">
        <ele>13.12</ele>
        <time>2012-10-12T11:20:10Z</time>
      </trkpt>
      <trkpt lat="43.25074" lon="3.06913">
        <ele>13.6</ele>
        <time>2012-10-12T11:20:26Z</time>
      </trkpt>
      <trkpt lat="43.24993" lon="3.06847">
        <ele>13.6</ele>
        <time>2012-10-12T11:20:42Z</time>
      </trkpt>
      <trkpt lat="43.24915" lon="3.06783">
        <ele>14.56</ele>
        <time>2012-10-12T11:20:58Z</time>
      </trkpt>
      <trkpt lat="43.24835" lon="3.06718">
        <ele>14.08</ele>
        <time>2012-10-12T11:21:14Z</time>
      </trkpt>
      <trkpt lat="43.24757" lon="3.06654">
        <ele>14.08</ele>
        <time>2012-10-12T11:21:29Z</time>
      </trkpt>
      <trkpt lat="43.24679" lon="3.0659">
        <ele>13.6</ele>
        <time>2012-10-12T11:21:44Z</time>
      </trkpt>
      <trkpt lat="43.24601" lon="3.06526">
        <ele>13.6</ele>
        <time>2012-10-12T11:21:59Z</time>
      </trkpt>
      <trkpt lat="43.2452" lon="3.0646">
        <ele>13.12</ele>
        <time>2012-10-12T11:22:15Z</time>
      </trkpt>
      <trkpt lat="43.2444" lon="3.06394">
        <ele>13.6</ele>
        <time>2012-10-12T11:22:32Z</time>
      </trkpt>
      <trkpt lat="43.24358" lon="3.06327">
        <ele>13.6</ele>
        <time>2012-10-12T11:22:49Z</time>
      </trkpt>
      <trkpt lat="43.24282" lon="3.06258">
        <ele>13.12</ele>
        <time>2012-10-12T11:23:05Z</time>
      </trkpt>
      <trkpt lat="43.24216" lon="3.06169">
        <ele>13.12</ele>
        <time>2012-10-12T11:23:21Z</time>
      </trkpt>
      <trkpt lat="43.24157" lon="3.0607">
        <ele>14.08</ele>
        <time>2012-10-12T11:23:38Z</time>
      </trkpt>
      <trkpt lat="43.24085" lon="3.05995">
        <ele>15.04</ele>
        <time>2012-10-12T11:23:55Z</time>
      </trkpt>
      <trkpt lat="43.23994" lon="3.0596">
        <ele>15.52</ele>
        <time>2012-10-12T11:24:12Z</time>
      </trkpt>
      <trkpt lat="43.23907" lon="3.05933">
        <ele>15.04</ele>
        <time>2012-10-12T11:24:29Z</time>
      </trkpt>
      <trkpt lat="43.23819" lon="3.05884">
        <ele>14.56</ele>
        <time>2012-10-12T11:24:46Z</time>
      </trkpt>
      <trkpt lat="43.23736" lon="3.05818">
        <ele>14.08</ele>
        <time>2012-10-12T11:25:04Z</time>
      </trkpt>
      <trkpt lat="43.23657" lon="3.05744">
        <ele>13.6</ele>
        <time>2012-10-12T11:25:24Z</time>
      </trkpt>
      <trkpt lat="43.23581" lon="3.05707">
        <ele>16.96</ele>
        <time>2012-10-12T11:26:36Z</time>
      </trkpt>
      <trkpt lat="43.23493" lon="3.05741">
        <ele>13.6</ele>
        <time>2012-10-12T11:27:01Z</time>
      </trkpt>
      <trkpt lat="43.23402" lon="3.05703">
        <ele>13.12</ele>
        <time>2012-10-12T11:27:39Z</time>
      </trkpt>
      <trkpt lat="43.2333" lon="3.05621">
        <ele>13.12</ele>
        <time>2012-10-12T11:27:59Z</time>
      </trkpt>
      <trkpt lat="43.23262" lon="3.0554">
        <ele>13.6</ele>
        <time>2012-10-12T11:28:20Z</time>
      </trkpt>
      <trkpt lat="43.23193" lon="3.0546">
        <ele>13.12</ele>
        <time>2012-10-12T11:28:38Z</time>
      </trkpt>
      <trkpt lat="43.23125" lon="3.05377">
        <ele>13.12</ele>
        <time>2012-10-12T11:28:56Z</time>
      </trkpt>
      <trkpt lat="43.23052" lon="3.05291">
        <ele>13.12</ele>
        <time>2012-10-12T11:29:14Z</time>
      </trkpt>
      <trkpt lat="43.22984" lon="3.0521">
        <ele>12.63</ele>
        <time>2012-10-12T11:29:31Z</time>
      </trkpt>
      <trkpt lat="43.22917" lon="3.05127">
        <ele>12.15</ele>
        <time>2012-10-12T11:29:49Z</time>
      </trkpt>
      <trkpt lat="43.22847" lon="3.05039">
        <ele>13.12</ele>
        <time>2012-10-12T11:30:08Z</time>
      </trkpt>
      <trkpt lat="43.22779" lon="3.04957">
        <ele>12.63</ele>
        <time>2012-10-12T11:30:26Z</time>
      </trkpt>
      <trkpt lat="43.22707" lon="3.0487">
        <ele>12.63</ele>
        <time>2012-10-12T11:30:44Z</time>
      </trkpt>
      <trkpt lat="43.22636" lon="3.04786">
        <ele>12.15</ele>
        <time>2012-10-12T11:31:02Z</time>
      </trkpt>
      <trkpt lat="43.22591" lon="3.04732">
        <ele>10.71</ele>
        <time>2012-10-12T11:31:35Z</time>
      </trkpt>
      <trkpt lat="43.22588" lon="3.04728">
        <ele>8</ele>
        <time>2012-10-12T11:33:08Z</time>
      </trkpt>
      <trkpt lat="43.22524" lon="3.04647">
        <ele>6</ele>
        <time>2012-10-12T11:33:51Z</time>
      </trkpt>
      <trkpt lat="43.22452" lon="3.04564">
        <ele>7</ele>
        <time>2012-10-12T11:34:10Z</time>
      </trkpt>
      <trkpt lat="43.22381" lon="3.04481">
        <ele>8</ele>
        <time>2012-10-12T11:34:28Z</time>
      </trkpt>
      <trkpt lat="43.22307" lon="3.04391">
        <ele>8</ele>
        <time>2012-10-12T11:34:47Z</time>
      </trkpt>
      <trkpt lat="43.22234" lon="3.04308">
        <ele>9</ele>
        <time>2012-10-12T11:35:05Z</time>
      </trkpt>
      <trkpt lat="43.22165" lon="3.04225">
        <ele>9</ele>
        <time>2012-10-12T11:35:22Z</time>
      </trkpt>
      <trkpt lat="43.22095" lon="3.04143">
        <ele>8</ele>
        <time>2012-10-12T11:35:39Z</time>
      </trkpt>
      <trkpt lat="43.22022" lon="3.04056">
        <ele>8</ele>
        <time>2012-10-12T11:36:10Z</time>
      </trkpt>
      <trkpt lat="43.21947" lon="3.03969">
        <ele>7</ele>
        <time>2012-10-12T11:36:29Z</time>
      </trkpt>
      <trkpt lat="43.21875" lon="3.03882">
        <ele>6</ele>
        <time>2012-10-12T11:36:48Z</time>
      </trkpt>
      <trkpt lat="43.21807" lon="3.03799">
        <ele>7</ele>
        <time>2012-10-12T11:37:06Z</time>
      </trkpt>
      <trkpt lat="43.21737" lon="3.03717">
        <ele>7</ele>
        <time>2012-10-12T11:37:24Z</time>
      </trkpt>
      <trkpt lat="43.21666" lon="3.03632">
        <ele>8</ele>
        <time>2012-10-12T11:37:42Z</time>
      </trkpt>
      <trkpt lat="43.21598" lon="3.0355">
        <ele>8</ele>
        <time>2012-10-12T11:37:59Z</time>
      </trkpt>
      <trkpt lat="43.21527" lon="3.03466">
        <ele>7</ele>
        <time>2012-10-12T11:38:16Z</time>
      </trkpt>
      <trkpt lat="43.21457" lon="3.03385">
        <ele>6</ele>
        <time>2012-10-12T11:38:33Z</time>
      </trkpt>
      <trkpt lat="43.21387" lon="3.033">
        <ele>6</ele>
        <time>2012-10-12T11:38:50Z</time>
      </trkpt>
      <trkpt lat="43.21318" lon="3.03216">
        <ele>7</ele>
        <time>2012-10-12T11:39:07Z</time>
      </trkpt>
      <trkpt lat="43.21249" lon="3.03132">
        <ele>6</ele>
        <time>2012-10-12T11:39:24Z</time>
      </trkpt>
      <trkpt lat="43.21179" lon="3.03048">
        <ele>5</ele>
        <time>2012-10-12T11:39:41Z</time>
      </trkpt>
      <trkpt lat="43.21109" lon="3.02964">
        <ele>0.14</ele>
        <time>2012-10-12T11:39:58Z</time>
      </trkpt>
      <trkpt lat="43.21039" lon="3.02881">
        <ele>0.62</ele>
        <time>2012-10-12T11:40:15Z</time>
      </trkpt>
      <trkpt lat="43.20967" lon="3.02797">
        <ele>0.62</ele>
        <time>2012-10-12T11:40:32Z</time>
      </trkpt>
      <trkpt lat="43.20894" lon="3.02712">
        <ele>1.1</ele>
        <time>2012-10-12T11:40:49Z</time>
      </trkpt>
      <trkpt lat="43.20824" lon="3.02625">
        <ele>5</ele>
        <time>2012-10-12T11:41:06Z</time>
      </trkpt>
      <trkpt lat="43.20752" lon="3.02538">
        <ele>0.14</ele>
        <time>2012-10-12T11:41:23Z</time>
      </trkpt>
      <trkpt lat="43.20683" lon="3.02456">
        <ele>7</ele>
        <time>2012-10-12T11:41:39Z</time>
      </trkpt>
      <trkpt lat="43.20612" lon="3.02371">
        <ele>0.14</ele>
        <time>2012-10-12T11:41:55Z</time>
      </trkpt>
      <trkpt lat="43.2054" lon="3.02286">
        <ele>0.62</ele>
        <time>2012-10-12T11:42:11Z</time>
      </trkpt>
      <trkpt lat="43.20469" lon="3.022">
        <ele>0.14</ele>
        <time>2012-10-12T11:42:27Z</time>
      </trkpt>
      <trkpt lat="43.20397" lon="3.02114">
        <ele>5</ele>
        <time>2012-10-12T11:42:43Z</time>
      </trkpt>
      <trkpt lat="43.20318" lon="3.02043">
        <ele>0.62</ele>
        <time>2012-10-12T11:42:58Z</time>
      </trkpt>
      <trkpt lat="43.20231" lon="3.02006">
        <ele>2.06</ele>
        <time>2012-10-12T11:43:13Z</time>
      </trkpt>
      <trkpt lat="43.20142" lon="3.01973">
        <ele>0.14</ele>
        <time>2012-10-12T11:43:28Z</time>
      </trkpt>
      <trkpt lat="43.20078" lon="3.01899">
        <ele>0.62</ele>
        <time>2012-10-12T11:43:45Z</time>
      </trkpt>
      <trkpt lat="43.20002" lon="3.01854">
        <ele>0.62</ele>
        <time>2012-10-12T11:44:02Z</time>
      </trkpt>
      <trkpt lat="43.19964" lon="3.01735">
        <ele>0.62</ele>
        <time>2012-10-12T11:44:19Z</time>
      </trkpt>
      <trkpt lat="43.19943" lon="3.01615">
        <ele>1.58</ele>
        <time>2012-10-12T11:44:36Z</time>
      </trkpt>
      <trkpt lat="43.19891" lon="3.0151">
        <ele>1.58</ele>
        <time>2012-10-12T11:44:54Z</time>
      </trkpt>
      <trkpt lat="43.19818" lon="3.0143">
        <ele>1.58</ele>
        <time>2012-10-12T11:45:11Z</time>
      </trkpt>
      <trkpt lat="43.19738" lon="3.01356">
        <ele>2.06</ele>
        <time>2012-10-12T11:45:28Z</time>
      </trkpt>
      <trkpt lat="43.19667" lon="3.01271">
        <ele>2.06</ele>
        <time>2012-10-12T11:45:46Z</time>
      </trkpt>
      <trkpt lat="43.19594" lon="3.01185">
        <ele>2.06</ele>
        <time>2012-10-12T11:46:03Z</time>
      </trkpt>
      <trkpt lat="43.19522" lon="3.01099">
        <ele>3.5</ele>
        <time>2012-10-12T11:46:19Z</time>
      </trkpt>
      <trkpt lat="43.19446" lon="3.01015">
        <ele>4.46</ele>
        <time>2012-10-12T11:46:35Z</time>
      </trkpt>
      <trkpt lat="43.19365" lon="3.00954">
        <ele>3.98</ele>
        <time>2012-10-12T11:46:54Z</time>
      </trkpt>
      <trkpt lat="43.19273" lon="3.00952">
        <ele>5.42</ele>
        <time>2012-10-12T11:47:12Z</time>
      </trkpt>
      <trkpt lat="43.19179" lon="3.00934">
        <ele>6.39</ele>
        <time>2012-10-12T11:47:28Z</time>
      </trkpt>
      <trkpt lat="43.19084" lon="3.00914">
        <ele>5.91</ele>
        <time>2012-10-12T11:47:44Z</time>
      </trkpt>
      <trkpt lat="43.18993" lon="3.00897">
        <ele>6.87</ele>
        <time>2012-10-12T11:48:00Z</time>
      </trkpt>
      <trkpt lat="43.18901" lon="3.0088">
        <ele>7.83</ele>
        <time>2012-10-12T11:48:18Z</time>
      </trkpt>
      <trkpt lat="43.18809" lon="3.00857">
        <ele>8.31</ele>
        <time>2012-10-12T11:48:40Z</time>
      </trkpt>
      <trkpt lat="43.1877" lon="3.00749">
        <ele>8.79</ele>
        <time>2012-10-12T11:49:32Z</time>
      </trkpt>
      <trkpt lat="43.18704" lon="3.0083">
        <ele>8.79</ele>
        <time>2012-10-12T11:49:56Z</time>
      </trkpt>
      <trkpt lat="43.18613" lon="3.00898">
        <ele>7.35</ele>
        <time>2012-10-12T11:50:18Z</time>
      </trkpt>
      <trkpt lat="43.18513" lon="3.00928">
        <ele>6.87</ele>
        <time>2012-10-12T11:50:51Z</time>
      </trkpt>
      <trkpt lat="43.18429" lon="3.00871">
        <ele>6.39</ele>
        <time>2012-10-12T11:51:11Z</time>
      </trkpt>
      <trkpt lat="43.18342" lon="3.00806">
        <ele>4.94</ele>
        <time>2012-10-12T11:51:36Z</time>
      </trkpt>
      <trkpt lat="43.18253" lon="3.00736">
        <ele>3.5</ele>
        <time>2012-10-12T11:51:54Z</time>
      </trkpt>
      <trkpt lat="43.18161" lon="3.00639">
        <ele>3.5</ele>
        <time>2012-10-12T11:52:36Z</time>
      </trkpt>
      <trkpt lat="43.18168" lon="3.00529">
        <ele>3.98</ele>
        <time>2012-10-12T11:56:48Z</time>
      </trkpt>
      <trkpt lat="43.18237" lon="3.00429">
        <ele>3.5</ele>
        <time>2012-10-12T11:57:48Z</time>
      </trkpt>
      <trkpt lat="43.18295" lon="3.0033">
        <ele>3.98</ele>
        <time>2012-10-12T11:58:23Z</time>
      </trkpt>
      <trkpt lat="43.18366" lon="3.00273">
        <ele>3.02</ele>
        <time>2012-10-12T11:58:50Z</time>
      </trkpt>
      <trkpt lat="43.18405" lon="3.00157">
        <ele>3.02</ele>
        <time>2012-10-12T11:59:10Z</time>
      </trkpt>
      <trkpt lat="43.18462" lon="3.00075">
        <ele>6.39</ele>
        <time>2012-10-12T11:59:37Z</time>
      </trkpt>
      <trkpt lat="43.18447" lon="3.00192">
        <ele>4.94</ele>
        <time>2012-10-12T12:00:11Z</time>
      </trkpt>
      <trkpt lat="43.18397" lon="3.00316">
        <ele>4.46</ele>
        <time>2012-10-12T12:01:49Z</time>
      </trkpt>
      <trkpt lat="43.18357" lon="3.00408">
        <ele>4.94</ele>
        <time>2012-10-12T12:03:32Z</time>
      </trkpt>
      <trkpt lat="43.18421" lon="3.00411">
        <ele>35.23</ele>
        <time>2012-10-12T12:32:45Z</time>
      </trkpt>
      <trkpt lat="43.18455" lon="3.00379">
        <ele>36.67</ele>
        <time>2012-10-12T12:36:04Z</time>
      </trkpt>
      <trkpt lat="43.1835" lon="3.00417">
        <ele>32.34</ele>
        <time>2012-10-12T12:39:34Z</time>
      </trkpt>
      <trkpt lat="43.18274" lon="3.00524">
        <ele>32.82</ele>
        <time>2012-10-12T12:40:39Z</time>
      </trkpt>
      <trkpt lat="43.18205" lon="3.00679">
        <ele>33.78</ele>
        <time>2012-10-12T12:41:48Z</time>
      </trkpt>
      <trkpt lat="43.18144" lon="3.00783">
        <ele>30.9</ele>
        <time>2012-10-12T12:42:14Z</time>
      </trkpt>
      <trkpt lat="43.18099" lon="3.00901">
        <ele>30.42</ele>
        <time>2012-10-12T12:42:33Z</time>
      </trkpt>
      <trkpt lat="43.18071" lon="3.01025">
        <ele>30.9</ele>
        <time>2012-10-12T12:42:50Z</time>
      </trkpt>
      <trkpt lat="43.18051" lon="3.01152">
        <ele>29.94</ele>
        <time>2012-10-12T12:43:09Z</time>
      </trkpt>
      <trkpt lat="43.18042" lon="3.01276">
        <ele>29.94</ele>
        <time>2012-10-12T12:43:27Z</time>
      </trkpt>
      <trkpt lat="43.1802" lon="3.01393">
        <ele>30.42</ele>
        <time>2012-10-12T12:43:51Z</time>
      </trkpt>
      <trkpt lat="43.18018" lon="3.01522">
        <ele>30.42</ele>
        <time>2012-10-12T12:44:09Z</time>
      </trkpt>
      <trkpt lat="43.1801" lon="3.01646">
        <ele>29.46</ele>
        <time>2012-10-12T12:44:25Z</time>
      </trkpt>
      <trkpt lat="43.17995" lon="3.01768">
        <ele>28.98</ele>
        <time>2012-10-12T12:44:41Z</time>
      </trkpt>
      <trkpt lat="43.17962" lon="3.01881">
        <ele>28.5</ele>
        <time>2012-10-12T12:44:57Z</time>
      </trkpt>
      <trkpt lat="43.17926" lon="3.01998">
        <ele>28.02</ele>
        <time>2012-10-12T12:45:20Z</time>
      </trkpt>
      <trkpt lat="43.17867" lon="3.02098">
        <ele>28.02</ele>
        <time>2012-10-12T12:45:37Z</time>
      </trkpt>
      <trkpt lat="43.17808" lon="3.02199">
        <ele>28.02</ele>
        <time>2012-10-12T12:45:53Z</time>
      </trkpt>
      <trkpt lat="43.1775" lon="3.02296">
        <ele>27.05</ele>
        <time>2012-10-12T12:46:08Z</time>
      </trkpt>
      <trkpt lat="43.1769" lon="3.02392">
        <ele>28.02</ele>
        <time>2012-10-12T12:46:24Z</time>
      </trkpt>
      <trkpt lat="43.17634" lon="3.02491">
        <ele>28.5</ele>
        <time>2012-10-12T12:46:40Z</time>
      </trkpt>
      <trkpt lat="43.1757" lon="3.02579">
        <ele>29.46</ele>
        <time>2012-10-12T12:46:57Z</time>
      </trkpt>
      <trkpt lat="43.17514" lon="3.02664">
        <ele>28.98</ele>
        <time>2012-10-12T12:47:14Z</time>
      </trkpt>
      <trkpt lat="43.17451" lon="3.02754">
        <ele>28.5</ele>
        <time>2012-10-12T12:47:30Z</time>
      </trkpt>
      <trkpt lat="43.17394" lon="3.02851">
        <ele>27.53</ele>
        <time>2012-10-12T12:47:48Z</time>
      </trkpt>
      <trkpt lat="43.17356" lon="3.02957">
        <ele>27.53</ele>
        <time>2012-10-12T12:48:13Z</time>
      </trkpt>
      <trkpt lat="43.17322" lon="3.03073">
        <ele>26.57</ele>
        <time>2012-10-12T12:48:29Z</time>
      </trkpt>
      <trkpt lat="43.17287" lon="3.0319">
        <ele>27.05</ele>
        <time>2012-10-12T12:48:45Z</time>
      </trkpt>
      <trkpt lat="43.17244" lon="3.03299">
        <ele>27.05</ele>
        <time>2012-10-12T12:49:00Z</time>
      </trkpt>
      <trkpt lat="43.17178" lon="3.03393">
        <ele>27.05</ele>
        <time>2012-10-12T12:49:16Z</time>
      </trkpt>
      <trkpt lat="43.17105" lon="3.03473">
        <ele>26.57</ele>
        <time>2012-10-12T12:49:31Z</time>
      </trkpt>
      <trkpt lat="43.17035" lon="3.0356">
        <ele>26.57</ele>
        <time>2012-10-12T12:49:46Z</time>
      </trkpt>
      <trkpt lat="43.16968" lon="3.03645">
        <ele>25.61</ele>
        <time>2012-10-12T12:50:01Z</time>
      </trkpt>
      <trkpt lat="43.16885" lon="3.03699">
        <ele>26.57</ele>
        <time>2012-10-12T12:50:17Z</time>
      </trkpt>
      <trkpt lat="43.16797" lon="3.03746">
        <ele>27.05</ele>
        <time>2012-10-12T12:50:34Z</time>
      </trkpt>
      <trkpt lat="43.1671" lon="3.03796">
        <ele>26.09</ele>
        <time>2012-10-12T12:50:51Z</time>
      </trkpt>
      <trkpt lat="43.16625" lon="3.03843">
        <ele>26.09</ele>
        <time>2012-10-12T12:51:07Z</time>
      </trkpt>
      <trkpt lat="43.16538" lon="3.03891">
        <ele>26.57</ele>
        <time>2012-10-12T12:51:24Z</time>
      </trkpt>
      <trkpt lat="43.16451" lon="3.03936">
        <ele>25.61</ele>
        <time>2012-10-12T12:51:41Z</time>
      </trkpt>
      <trkpt lat="43.16367" lon="3.03989">
        <ele>24.65</ele>
        <time>2012-10-12T12:51:58Z</time>
      </trkpt>
      <trkpt lat="43.16286" lon="3.04056">
        <ele>25.13</ele>
        <time>2012-10-12T12:52:15Z</time>
      </trkpt>
      <trkpt lat="43.16205" lon="3.04121">
        <ele>25.13</ele>
        <time>2012-10-12T12:52:32Z</time>
      </trkpt>
      <trkpt lat="43.16123" lon="3.04189">
        <ele>23.21</ele>
        <time>2012-10-12T12:52:51Z</time>
      </trkpt>
      <trkpt lat="43.16125" lon="3.04186">
        <ele>24.17</ele>
        <time>2012-10-12T12:53:42Z</time>
      </trkpt>
      <trkpt lat="43.16102" lon="3.04143">
        <ele>24.65</ele>
        <time>2012-10-12T12:54:08Z</time>
      </trkpt>
      <trkpt lat="43.16011" lon="3.0412">
        <ele>24.17</ele>
        <time>2012-10-12T12:54:26Z</time>
      </trkpt>
      <trkpt lat="43.15921" lon="3.04098">
        <ele>24.17</ele>
        <time>2012-10-12T12:56:01Z</time>
      </trkpt>
      <trkpt lat="43.15832" lon="3.04077">
        <ele>23.69</ele>
        <time>2012-10-12T12:56:19Z</time>
      </trkpt>
      <trkpt lat="43.1574" lon="3.04049">
        <ele>23.21</ele>
        <time>2012-10-12T12:56:37Z</time>
      </trkpt>
      <trkpt lat="43.15719" lon="3.03959">
        <ele>23.21</ele>
        <time>2012-10-12T12:56:55Z</time>
      </trkpt>
      <trkpt lat="43.15689" lon="3.03874">
        <ele>23.69</ele>
        <time>2012-10-12T12:57:14Z</time>
      </trkpt>
      <trkpt lat="43.15599" lon="3.03831">
        <ele>22.73</ele>
        <time>2012-10-12T12:57:31Z</time>
      </trkpt>
      <trkpt lat="43.15517" lon="3.03781">
        <ele>22.73</ele>
        <time>2012-10-12T12:57:49Z</time>
      </trkpt>
      <trkpt lat="43.15434" lon="3.0372">
        <ele>22.73</ele>
        <time>2012-10-12T12:58:07Z</time>
      </trkpt>
      <trkpt lat="43.15357" lon="3.03654">
        <ele>22.25</ele>
        <time>2012-10-12T12:58:24Z</time>
      </trkpt>
      <trkpt lat="43.15306" lon="3.03611">
        <ele>19.36</ele>
        <time>2012-10-12T13:03:57Z</time>
      </trkpt>
      <trkpt lat="43.15229" lon="3.03546">
        <ele>18.88</ele>
        <time>2012-10-12T13:04:20Z</time>
      </trkpt>
      <trkpt lat="43.15149" lon="3.03475">
        <ele>19.36</ele>
        <time>2012-10-12T13:04:40Z</time>
      </trkpt>
      <trkpt lat="43.15073" lon="3.0341">
        <ele>19.84</ele>
        <time>2012-10-12T13:04:59Z</time>
      </trkpt>
      <trkpt lat="43.14995" lon="3.03349">
        <ele>19.36</ele>
        <time>2012-10-12T13:05:18Z</time>
      </trkpt>
      <trkpt lat="43.14909" lon="3.03303">
        <ele>17.92</ele>
        <time>2012-10-12T13:05:37Z</time>
      </trkpt>
      <trkpt lat="43.14822" lon="3.03268">
        <ele>18.4</ele>
        <time>2012-10-12T13:05:54Z</time>
      </trkpt>
      <trkpt lat="43.14734" lon="3.03233">
        <ele>17.92</ele>
        <time>2012-10-12T13:06:11Z</time>
      </trkpt>
      <trkpt lat="43.14647" lon="3.03197">
        <ele>18.88</ele>
        <time>2012-10-12T13:06:28Z</time>
      </trkpt>
      <trkpt lat="43.14559" lon="3.03172">
        <ele>17.92</ele>
        <time>2012-10-12T13:06:47Z</time>
      </trkpt>
      <trkpt lat="43.14496" lon="3.0324">
        <ele>17.92</ele>
        <time>2012-10-12T13:07:05Z</time>
      </trkpt>
      <trkpt lat="43.14403" lon="3.03265">
        <ele>17.92</ele>
        <time>2012-10-12T13:07:22Z</time>
      </trkpt>
      <trkpt lat="43.14313" lon="3.03267">
        <ele>17.92</ele>
        <time>2012-10-12T13:07:41Z</time>
      </trkpt>
      <trkpt lat="43.14219" lon="3.03264">
        <ele>17.92</ele>
        <time>2012-10-12T13:08:02Z</time>
      </trkpt>
      <trkpt lat="43.14128" lon="3.0326">
        <ele>17.44</ele>
        <time>2012-10-12T13:08:19Z</time>
      </trkpt>
      <trkpt lat="43.14035" lon="3.03257">
        <ele>17.44</ele>
        <time>2012-10-12T13:08:36Z</time>
      </trkpt>
      <trkpt lat="43.13941" lon="3.03255">
        <ele>16.96</ele>
        <time>2012-10-12T13:08:53Z</time>
      </trkpt>
      <trkpt lat="43.13849" lon="3.03257">
        <ele>16.96</ele>
        <time>2012-10-12T13:09:09Z</time>
      </trkpt>
      <trkpt lat="43.13754" lon="3.03259">
        <ele>16.96</ele>
        <time>2012-10-12T13:09:26Z</time>
      </trkpt>
      <trkpt lat="43.13662" lon="3.03268">
        <ele>16.96</ele>
        <time>2012-10-12T13:09:42Z</time>
      </trkpt>
      <trkpt lat="43.13568" lon="3.0329">
        <ele>16.96</ele>
        <time>2012-10-12T13:09:58Z</time>
      </trkpt>
      <trkpt lat="43.13479" lon="3.0332">
        <ele>16</ele>
        <time>2012-10-12T13:10:13Z</time>
      </trkpt>
      <trkpt lat="43.13389" lon="3.03355">
        <ele>16</ele>
        <time>2012-10-12T13:10:28Z</time>
      </trkpt>
      <trkpt lat="43.13295" lon="3.03389">
        <ele>16.96</ele>
        <time>2012-10-12T13:10:44Z</time>
      </trkpt>
      <trkpt lat="43.13204" lon="3.03408">
        <ele>16.48</ele>
        <time>2012-10-12T13:11:00Z</time>
      </trkpt>
      <trkpt lat="43.13112" lon="3.03393">
        <ele>16.48</ele>
        <time>2012-10-12T13:11:48Z</time>
      </trkpt>
      <trkpt lat="43.13019" lon="3.03396">
        <ele>14.56</ele>
        <time>2012-10-12T13:12:06Z</time>
      </trkpt>
      <trkpt lat="43.12926" lon="3.03427">
        <ele>15.52</ele>
        <time>2012-10-12T13:12:22Z</time>
      </trkpt>
      <trkpt lat="43.12836" lon="3.0346">
        <ele>15.52</ele>
        <time>2012-10-12T13:12:38Z</time>
      </trkpt>
      <trkpt lat="43.12747" lon="3.03502">
        <ele>14.56</ele>
        <time>2012-10-12T13:12:54Z</time>
      </trkpt>
      <trkpt lat="43.12662" lon="3.03548">
        <ele>15.04</ele>
        <time>2012-10-12T13:13:09Z</time>
      </trkpt>
      <trkpt lat="43.12585" lon="3.0362">
        <ele>14.08</ele>
        <time>2012-10-12T13:13:23Z</time>
      </trkpt>
      <trkpt lat="43.12521" lon="3.03709">
        <ele>16.48</ele>
        <time>2012-10-12T13:13:38Z</time>
      </trkpt>
      <trkpt lat="43.12455" lon="3.03798">
        <ele>14.56</ele>
        <time>2012-10-12T13:13:54Z</time>
      </trkpt>
      <trkpt lat="43.12378" lon="3.03865">
        <ele>14.08</ele>
        <time>2012-10-12T13:14:10Z</time>
      </trkpt>
      <trkpt lat="43.12292" lon="3.03914">
        <ele>14.56</ele>
        <time>2012-10-12T13:14:25Z</time>
      </trkpt>
      <trkpt lat="43.12205" lon="3.03968">
        <ele>15.04</ele>
        <time>2012-10-12T13:14:40Z</time>
      </trkpt>
      <trkpt lat="43.12115" lon="3.0398">
        <ele>15.04</ele>
        <time>2012-10-12T13:14:55Z</time>
      </trkpt>
      <trkpt lat="43.12025" lon="3.04002">
        <ele>14.08</ele>
        <time>2012-10-12T13:15:11Z</time>
      </trkpt>
      <trkpt lat="43.11941" lon="3.04054">
        <ele>15.04</ele>
        <time>2012-10-12T13:15:28Z</time>
      </trkpt>
      <trkpt lat="43.11859" lon="3.04117">
        <ele>14.08</ele>
        <time>2012-10-12T13:15:46Z</time>
      </trkpt>
      <trkpt lat="43.1177" lon="3.04158">
        <ele>14.56</ele>
        <time>2012-10-12T13:16:01Z</time>
      </trkpt>
      <trkpt lat="43.11683" lon="3.04137">
        <ele>14.08</ele>
        <time>2012-10-12T13:16:16Z</time>
      </trkpt>
      <trkpt lat="43.11602" lon="3.04081">
        <ele>14.08</ele>
        <time>2012-10-12T13:16:32Z</time>
      </trkpt>
      <trkpt lat="43.11518" lon="3.04027">
        <ele>13.12</ele>
        <time>2012-10-12T13:16:51Z</time>
      </trkpt>
      <trkpt lat="43.11467" lon="3.04135">
        <ele>13.12</ele>
        <time>2012-10-12T13:17:11Z</time>
      </trkpt>
      <trkpt lat="43.11424" lon="3.04246">
        <ele>12.63</ele>
        <time>2012-10-12T13:17:26Z</time>
      </trkpt>
      <trkpt lat="43.11382" lon="3.04356">
        <ele>12.63</ele>
        <time>2012-10-12T13:17:40Z</time>
      </trkpt>
      <trkpt lat="43.11339" lon="3.04473">
        <ele>13.6</ele>
        <time>2012-10-12T13:17:55Z</time>
      </trkpt>
      <trkpt lat="43.11292" lon="3.04585">
        <ele>13.6</ele>
        <time>2012-10-12T13:18:10Z</time>
      </trkpt>
      <trkpt lat="43.11257" lon="3.04706">
        <ele>13.12</ele>
        <time>2012-10-12T13:18:25Z</time>
      </trkpt>
      <trkpt lat="43.11271" lon="3.04663">
        <ele>14.56</ele>
        <time>2012-10-12T13:19:01Z</time>
      </trkpt>
      <trkpt lat="43.11313" lon="3.04552">
        <ele>14.08</ele>
        <time>2012-10-12T13:19:25Z</time>
      </trkpt>
      <trkpt lat="43.11353" lon="3.04441">
        <ele>15.04</ele>
        <time>2012-10-12T13:19:51Z</time>
      </trkpt>
      <trkpt lat="43.11316" lon="3.04336">
        <ele>10.71</ele>
        <time>2012-10-12T13:23:23Z</time>
      </trkpt>
      <trkpt lat="43.11269" lon="3.04229">
        <ele>8.31</ele>
        <time>2012-10-12T13:24:04Z</time>
      </trkpt>
      <trkpt lat="43.11217" lon="3.04149">
        <ele>10.71</ele>
        <time>2012-10-12T13:25:18Z</time>
      </trkpt>
      <trkpt lat="43.11215" lon="3.04148">
        <ele>9.75</ele>
        <time>2012-10-12T13:28:32Z</time>
      </trkpt>
      <trkpt lat="43.11268" lon="3.04227">
        <ele>7.35</ele>
        <time>2012-10-12T13:29:28Z</time>
      </trkpt>
      <trkpt lat="43.11315" lon="3.04331">
        <ele>7.35</ele>
        <time>2012-10-12T13:30:43Z</time>
      </trkpt>
      <trkpt lat="43.11358" lon="3.04429">
        <ele>10.71</ele>
        <time>2012-10-12T13:31:24Z</time>
      </trkpt>
      <trkpt lat="43.114" lon="3.04312">
        <ele>9.75</ele>
        <time>2012-10-12T13:31:51Z</time>
      </trkpt>
      <trkpt lat="43.11445" lon="3.04198">
        <ele>9.75</ele>
        <time>2012-10-12T13:32:15Z</time>
      </trkpt>
      <trkpt lat="43.11488" lon="3.04084">
        <ele>10.23</ele>
        <time>2012-10-12T13:32:40Z</time>
      </trkpt>
      <trkpt lat="43.11547" lon="3.03995">
        <ele>9.75</ele>
        <time>2012-10-12T13:33:05Z</time>
      </trkpt>
      <trkpt lat="43.11617" lon="3.0391">
        <ele>9.75</ele>
        <time>2012-10-12T13:33:30Z</time>
      </trkpt>
      <trkpt lat="43.11684" lon="3.03827">
        <ele>9.75</ele>
        <time>2012-10-12T13:33:54Z</time>
      </trkpt>
      <trkpt lat="43.11752" lon="3.03744">
        <ele>9.75</ele>
        <time>2012-10-12T13:34:18Z</time>
      </trkpt>
      <trkpt lat="43.11821" lon="3.0366">
        <ele>9.75</ele>
        <time>2012-10-12T13:34:42Z</time>
      </trkpt>
      <trkpt lat="43.1189" lon="3.03576">
        <ele>10.71</ele>
        <time>2012-10-12T13:35:06Z</time>
      </trkpt>
      <trkpt lat="43.1196" lon="3.03493">
        <ele>9.75</ele>
        <time>2012-10-12T13:35:30Z</time>
      </trkpt>
      <trkpt lat="43.12029" lon="3.0341">
        <ele>9.75</ele>
        <time>2012-10-12T13:35:53Z</time>
      </trkpt>
      <trkpt lat="43.12096" lon="3.03326">
        <ele>8.79</ele>
        <time>2012-10-12T13:36:16Z</time>
      </trkpt>
      <trkpt lat="43.12164" lon="3.03243">
        <ele>8.79</ele>
        <time>2012-10-12T13:36:38Z</time>
      </trkpt>
      <trkpt lat="43.12184" lon="3.03125">
        <ele>9.75</ele>
        <time>2012-10-12T13:36:59Z</time>
      </trkpt>
      <trkpt lat="43.12127" lon="3.03106">
        <ele>9.27</ele>
        <time>2012-10-12T13:39:51Z</time>
      </trkpt>
      <trkpt lat="43.12034" lon="3.03098">
        <ele>8.31</ele>
        <time>2012-10-12T13:40:12Z</time>
      </trkpt>
      <trkpt lat="43.11941" lon="3.03089">
        <ele>8.31</ele>
        <time>2012-10-12T13:40:31Z</time>
      </trkpt>
      <trkpt lat="43.11846" lon="3.03081">
        <ele>9.27</ele>
        <time>2012-10-12T13:40:50Z</time>
      </trkpt>
      <trkpt lat="43.11754" lon="3.03072">
        <ele>6.87</ele>
        <time>2012-10-12T13:41:08Z</time>
      </trkpt>
      <trkpt lat="43.1166" lon="3.03062">
        <ele>8.79</ele>
        <time>2012-10-12T13:41:26Z</time>
      </trkpt>
      <trkpt lat="43.11566" lon="3.03054">
        <ele>7.83</ele>
        <time>2012-10-12T13:41:44Z</time>
      </trkpt>
      <trkpt lat="43.11472" lon="3.03054">
        <ele>8.31</ele>
        <time>2012-10-12T13:42:02Z</time>
      </trkpt>
      <trkpt lat="43.11382" lon="3.03083">
        <ele>6.87</ele>
        <time>2012-10-12T13:42:19Z</time>
      </trkpt>
      <trkpt lat="43.11289" lon="3.03101">
        <ele>7.35</ele>
        <time>2012-10-12T13:42:36Z</time>
      </trkpt>
      <trkpt lat="43.11196" lon="3.03122">
        <ele>7.35</ele>
        <time>2012-10-12T13:42:53Z</time>
      </trkpt>
      <trkpt lat="43.11102" lon="3.03133">
        <ele>7.35</ele>
        <time>2012-10-12T13:43:11Z</time>
      </trkpt>
      <trkpt lat="43.11012" lon="3.03125">
        <ele>6.87</ele>
        <time>2012-10-12T13:43:28Z</time>
      </trkpt>
      <trkpt lat="43.10923" lon="3.0316">
        <ele>6.87</ele>
        <time>2012-10-12T13:43:46Z</time>
      </trkpt>
      <trkpt lat="43.1083" lon="3.03202">
        <ele>8.31</ele>
        <time>2012-10-12T13:44:05Z</time>
      </trkpt>
      <trkpt lat="43.10739" lon="3.03236">
        <ele>7.35</ele>
        <time>2012-10-12T13:44:22Z</time>
      </trkpt>
      <trkpt lat="43.10649" lon="3.03236">
        <ele>8.31</ele>
        <time>2012-10-12T13:44:38Z</time>
      </trkpt>
      <trkpt lat="43.10557" lon="3.0324">
        <ele>8.31</ele>
        <time>2012-10-12T13:44:55Z</time>
      </trkpt>
      <trkpt lat="43.1047" lon="3.03204">
        <ele>7.83</ele>
        <time>2012-10-12T13:45:12Z</time>
      </trkpt>
      <trkpt lat="43.10381" lon="3.03158">
        <ele>8.31</ele>
        <time>2012-10-12T13:45:31Z</time>
      </trkpt>
      <trkpt lat="43.10292" lon="3.03149">
        <ele>7.83</ele>
        <time>2012-10-12T13:45:49Z</time>
      </trkpt>
      <trkpt lat="43.10202" lon="3.03149">
        <ele>8.79</ele>
        <time>2012-10-12T13:46:06Z</time>
      </trkpt>
      <trkpt lat="43.10118" lon="3.03098">
        <ele>8.79</ele>
        <time>2012-10-12T13:46:23Z</time>
      </trkpt>
      <trkpt lat="43.10027" lon="3.03076">
        <ele>6.87</ele>
        <time>2012-10-12T13:46:41Z</time>
      </trkpt>
      <trkpt lat="43.09934" lon="3.03069">
        <ele>7.35</ele>
        <time>2012-10-12T13:46:58Z</time>
      </trkpt>
      <trkpt lat="43.09847" lon="3.03022">
        <ele>6.39</ele>
        <time>2012-10-12T13:47:16Z</time>
      </trkpt>
      <trkpt lat="43.09757" lon="3.03053">
        <ele>6.87</ele>
        <time>2012-10-12T13:47:35Z</time>
      </trkpt>
      <trkpt lat="43.09667" lon="3.03073">
        <ele>6.87</ele>
        <time>2012-10-12T13:47:53Z</time>
      </trkpt>
      <trkpt lat="43.09576" lon="3.03045">
        <ele>6.87</ele>
        <time>2012-10-12T13:48:10Z</time>
      </trkpt>
      <trkpt lat="43.09489" lon="3.03091">
        <ele>6.39</ele>
        <time>2012-10-12T13:48:27Z</time>
      </trkpt>
      <trkpt lat="43.09399" lon="3.03094">
        <ele>5.91</ele>
        <time>2012-10-12T13:48:43Z</time>
      </trkpt>
      <trkpt lat="43.09307" lon="3.03063">
        <ele>6.87</ele>
        <time>2012-10-12T13:49:00Z</time>
      </trkpt>
      <trkpt lat="43.09218" lon="3.03108">
        <ele>6.39</ele>
        <time>2012-10-12T13:49:17Z</time>
      </trkpt>
      <trkpt lat="43.09131" lon="3.0314">
        <ele>6.87</ele>
        <time>2012-10-12T13:49:35Z</time>
      </trkpt>
      <trkpt lat="43.09037" lon="3.03119">
        <ele>6.39</ele>
        <time>2012-10-12T13:49:53Z</time>
      </trkpt>
      <trkpt lat="43.08943" lon="3.03109">
        <ele>6.39</ele>
        <time>2012-10-12T13:50:10Z</time>
      </trkpt>
      <trkpt lat="43.08853" lon="3.03096">
        <ele>5.91</ele>
        <time>2012-10-12T13:50:26Z</time>
      </trkpt>
      <trkpt lat="43.08768" lon="3.03041">
        <ele>5.91</ele>
        <time>2012-10-12T13:50:43Z</time>
      </trkpt>
      <trkpt lat="43.0868" lon="3.03006">
        <ele>6.39</ele>
        <time>2012-10-12T13:51:00Z</time>
      </trkpt>
      <trkpt lat="43.08591" lon="3.02985">
        <ele>5.91</ele>
        <time>2012-10-12T13:51:16Z</time>
      </trkpt>
      <trkpt lat="43.08503" lon="3.02954">
        <ele>5.91</ele>
        <time>2012-10-12T13:51:32Z</time>
      </trkpt>
      <trkpt lat="43.08413" lon="3.02938">
        <ele>6.39</ele>
        <time>2012-10-12T13:51:48Z</time>
      </trkpt>
      <trkpt lat="43.08336" lon="3.02867">
        <ele>6.87</ele>
        <time>2012-10-12T13:52:06Z</time>
      </trkpt>
      <trkpt lat="43.08251" lon="3.02814">
        <ele>5.42</ele>
        <time>2012-10-12T13:52:26Z</time>
      </trkpt>
      <trkpt lat="43.08169" lon="3.02755">
        <ele>6.39</ele>
        <time>2012-10-12T13:52:45Z</time>
      </trkpt>
      <trkpt lat="43.08086" lon="3.02692">
        <ele>6.39</ele>
        <time>2012-10-12T13:53:04Z</time>
      </trkpt>
      <trkpt lat="43.08005" lon="3.02629">
        <ele>6.87</ele>
        <time>2012-10-12T13:53:22Z</time>
      </trkpt>
      <trkpt lat="43.07925" lon="3.02567">
        <ele>5.91</ele>
        <time>2012-10-12T13:53:40Z</time>
      </trkpt>
      <trkpt lat="43.07844" lon="3.02506">
        <ele>6.87</ele>
        <time>2012-10-12T13:53:59Z</time>
      </trkpt>
      <trkpt lat="43.07761" lon="3.02445">
        <ele>6.39</ele>
        <time>2012-10-12T13:54:19Z</time>
      </trkpt>
      <trkpt lat="43.07674" lon="3.02406">
        <ele>5.91</ele>
        <time>2012-10-12T13:54:37Z</time>
      </trkpt>
      <trkpt lat="43.07582" lon="3.02394">
        <ele>5.91</ele>
        <time>2012-10-12T13:54:55Z</time>
      </trkpt>
      <trkpt lat="43.075" lon="3.02346">
        <ele>5.42</ele>
        <time>2012-10-12T13:55:12Z</time>
      </trkpt>
      <trkpt lat="43.07415" lon="3.0229">
        <ele>4.94</ele>
        <time>2012-10-12T13:55:33Z</time>
      </trkpt>
      <trkpt lat="43.07326" lon="3.02276">
        <ele>3.98</ele>
        <time>2012-10-12T13:55:51Z</time>
      </trkpt>
      <trkpt lat="43.07269" lon="3.02371">
        <ele>4.94</ele>
        <time>2012-10-12T13:56:59Z</time>
      </trkpt>
      <trkpt lat="43.07221" lon="3.02481">
        <ele>4.94</ele>
        <time>2012-10-12T13:57:19Z</time>
      </trkpt>
      <trkpt lat="43.07153" lon="3.02571">
        <ele>4.46</ele>
        <time>2012-10-12T13:57:37Z</time>
      </trkpt>
      <trkpt lat="43.07093" lon="3.02671">
        <ele>4.46</ele>
        <time>2012-10-12T13:57:53Z</time>
      </trkpt>
      <trkpt lat="43.07032" lon="3.02765">
        <ele>4.94</ele>
        <time>2012-10-12T13:58:08Z</time>
      </trkpt>
      <trkpt lat="43.0696" lon="3.02841">
        <ele>4.94</ele>
        <time>2012-10-12T13:58:23Z</time>
      </trkpt>
      <trkpt lat="43.06885" lon="3.0291">
        <ele>4.94</ele>
        <time>2012-10-12T13:58:39Z</time>
      </trkpt>
      <trkpt lat="43.06811" lon="3.02978">
        <ele>4.46</ele>
        <time>2012-10-12T13:58:54Z</time>
      </trkpt>
      <trkpt lat="43.06727" lon="3.03031">
        <ele>4.46</ele>
        <time>2012-10-12T13:59:09Z</time>
      </trkpt>
      <trkpt lat="43.06642" lon="3.0309">
        <ele>4.94</ele>
        <time>2012-10-12T13:59:24Z</time>
      </trkpt>
      <trkpt lat="43.06555" lon="3.03136">
        <ele>4.46</ele>
        <time>2012-10-12T13:59:39Z</time>
      </trkpt>
      <trkpt lat="43.0648" lon="3.03216">
        <ele>4.46</ele>
        <time>2012-10-12T13:59:54Z</time>
      </trkpt>
      <trkpt lat="43.06401" lon="3.03283">
        <ele>3.98</ele>
        <time>2012-10-12T14:00:09Z</time>
      </trkpt>
      <trkpt lat="43.06318" lon="3.03347">
        <ele>4.46</ele>
        <time>2012-10-12T14:00:24Z</time>
      </trkpt>
      <trkpt lat="43.06244" lon="3.03421">
        <ele>4.46</ele>
        <time>2012-10-12T14:00:40Z</time>
      </trkpt>
      <trkpt lat="43.06179" lon="3.03512">
        <ele>4.46</ele>
        <time>2012-10-12T14:00:59Z</time>
      </trkpt>
      <trkpt lat="43.06117" lon="3.03609">
        <ele>5.42</ele>
        <time>2012-10-12T14:01:17Z</time>
      </trkpt>
      <trkpt lat="43.06057" lon="3.03703">
        <ele>4.94</ele>
        <time>2012-10-12T14:01:40Z</time>
      </trkpt>
      <trkpt lat="43.05995" lon="3.03802">
        <ele>4.46</ele>
        <time>2012-10-12T14:02:01Z</time>
      </trkpt>
      <trkpt lat="43.05934" lon="3.03898">
        <ele>4.46</ele>
        <time>2012-10-12T14:02:18Z</time>
      </trkpt>
      <trkpt lat="43.05871" lon="3.03997">
        <ele>4.46</ele>
        <time>2012-10-12T14:02:35Z</time>
      </trkpt>
      <trkpt lat="43.05809" lon="3.04093">
        <ele>4.94</ele>
        <time>2012-10-12T14:02:51Z</time>
      </trkpt>
      <trkpt lat="43.05749" lon="3.04188">
        <ele>4.94</ele>
        <time>2012-10-12T14:03:07Z</time>
      </trkpt>
      <trkpt lat="43.05689" lon="3.04284">
        <ele>4.46</ele>
        <time>2012-10-12T14:03:23Z</time>
      </trkpt>
      <trkpt lat="43.05646" lon="3.04394">
        <ele>4.94</ele>
        <time>2012-10-12T14:03:39Z</time>
      </trkpt>
      <trkpt lat="43.05621" lon="3.04512">
        <ele>4.94</ele>
        <time>2012-10-12T14:03:55Z</time>
      </trkpt>
      <trkpt lat="43.05611" lon="3.0464">
        <ele>5.42</ele>
        <time>2012-10-12T14:04:12Z</time>
      </trkpt>
      <trkpt lat="43.05582" lon="3.04757">
        <ele>5.91</ele>
        <time>2012-10-12T14:04:28Z</time>
      </trkpt>
      <trkpt lat="43.05538" lon="3.04865">
        <ele>5.91</ele>
        <time>2012-10-12T14:04:46Z</time>
      </trkpt>
      <trkpt lat="43.05487" lon="3.04975">
        <ele>4.94</ele>
        <time>2012-10-12T14:05:03Z</time>
      </trkpt>
      <trkpt lat="43.05436" lon="3.05083">
        <ele>5.42</ele>
        <time>2012-10-12T14:05:20Z</time>
      </trkpt>
      <trkpt lat="43.05386" lon="3.05187">
        <ele>5.42</ele>
        <time>2012-10-12T14:05:36Z</time>
      </trkpt>
      <trkpt lat="43.05354" lon="3.05306">
        <ele>6.39</ele>
        <time>2012-10-12T14:05:53Z</time>
      </trkpt>
      <trkpt lat="43.05378" lon="3.05431">
        <ele>6.39</ele>
        <time>2012-10-12T14:06:14Z</time>
      </trkpt>
      <trkpt lat="43.05402" lon="3.05552">
        <ele>6.39</ele>
        <time>2012-10-12T14:06:31Z</time>
      </trkpt>
      <trkpt lat="43.05397" lon="3.05676">
        <ele>5.91</ele>
        <time>2012-10-12T14:06:48Z</time>
      </trkpt>
      <trkpt lat="43.05333" lon="3.05763">
        <ele>5.91</ele>
        <time>2012-10-12T14:07:04Z</time>
      </trkpt>
      <trkpt lat="43.05241" lon="3.05787">
        <ele>5.91</ele>
        <time>2012-10-12T14:07:37Z</time>
      </trkpt>
      <trkpt lat="43.05145" lon="3.05809">
        <ele>5.91</ele>
        <time>2012-10-12T14:07:58Z</time>
      </trkpt>
      <trkpt lat="43.05054" lon="3.05806">
        <ele>7.83</ele>
        <time>2012-10-12T14:08:15Z</time>
      </trkpt>
      <trkpt lat="43.04966" lon="3.05763">
        <ele>6.39</ele>
        <time>2012-10-12T14:08:34Z</time>
      </trkpt>
      <trkpt lat="43.0488" lon="3.05708">
        <ele>6.87</ele>
        <time>2012-10-12T14:08:52Z</time>
      </trkpt>
      <trkpt lat="43.04797" lon="3.05655">
        <ele>6.39</ele>
        <time>2012-10-12T14:09:10Z</time>
      </trkpt>
      <trkpt lat="43.04716" lon="3.05598">
        <ele>6.87</ele>
        <time>2012-10-12T14:09:38Z</time>
      </trkpt>
      <trkpt lat="43.0463" lon="3.05549">
        <ele>6.39</ele>
        <time>2012-10-12T14:10:06Z</time>
      </trkpt>
      <trkpt lat="43.04544" lon="3.05492">
        <ele>6.87</ele>
        <time>2012-10-12T14:10:25Z</time>
      </trkpt>
      <trkpt lat="43.04461" lon="3.05439">
        <ele>6.39</ele>
        <time>2012-10-12T14:10:42Z</time>
      </trkpt>
      <trkpt lat="43.04376" lon="3.05385">
        <ele>5.91</ele>
        <time>2012-10-12T14:11:00Z</time>
      </trkpt>
      <trkpt lat="43.04293" lon="3.05332">
        <ele>6.39</ele>
        <time>2012-10-12T14:11:19Z</time>
      </trkpt>
      <trkpt lat="43.04209" lon="3.0528">
        <ele>5.42</ele>
        <time>2012-10-12T14:11:38Z</time>
      </trkpt>
      <trkpt lat="43.04123" lon="3.05225">
        <ele>6.87</ele>
        <time>2012-10-12T14:11:57Z</time>
      </trkpt>
      <trkpt lat="43.04039" lon="3.05172">
        <ele>5.91</ele>
        <time>2012-10-12T14:12:18Z</time>
      </trkpt>
      <trkpt lat="43.03957" lon="3.05117">
        <ele>6.87</ele>
        <time>2012-10-12T14:12:36Z</time>
      </trkpt>
      <trkpt lat="43.03871" lon="3.05063">
        <ele>5.91</ele>
        <time>2012-10-12T14:12:54Z</time>
      </trkpt>
      <trkpt lat="43.03785" lon="3.05008">
        <ele>6.39</ele>
        <time>2012-10-12T14:13:12Z</time>
      </trkpt>
      <trkpt lat="43.037" lon="3.04952">
        <ele>6.87</ele>
        <time>2012-10-12T14:13:29Z</time>
      </trkpt>
      <trkpt lat="43.03614" lon="3.04897">
        <ele>6.39</ele>
        <time>2012-10-12T14:13:46Z</time>
      </trkpt>
      <trkpt lat="43.03531" lon="3.04844">
        <ele>7.83</ele>
        <time>2012-10-12T14:14:03Z</time>
      </trkpt>
      <trkpt lat="43.03446" lon="3.0479">
        <ele>6.39</ele>
        <time>2012-10-12T14:14:20Z</time>
      </trkpt>
      <trkpt lat="43.03364" lon="3.04738">
        <ele>5.91</ele>
        <time>2012-10-12T14:14:37Z</time>
      </trkpt>
      <trkpt lat="43.0328" lon="3.04684">
        <ele>7.35</ele>
        <time>2012-10-12T14:14:54Z</time>
      </trkpt>
      <trkpt lat="43.03199" lon="3.04631">
        <ele>7.35</ele>
        <time>2012-10-12T14:15:11Z</time>
      </trkpt>
      <trkpt lat="43.03115" lon="3.04579">
        <ele>8.31</ele>
        <time>2012-10-12T14:15:30Z</time>
      </trkpt>
      <trkpt lat="43.03029" lon="3.04524">
        <ele>7.83</ele>
        <time>2012-10-12T14:15:49Z</time>
      </trkpt>
      <trkpt lat="43.02944" lon="3.04471">
        <ele>6.87</ele>
        <time>2012-10-12T14:16:07Z</time>
      </trkpt>
      <trkpt lat="43.02859" lon="3.04415">
        <ele>6.87</ele>
        <time>2012-10-12T14:16:25Z</time>
      </trkpt>
      <trkpt lat="43.02775" lon="3.0436">
        <ele>9.27</ele>
        <time>2012-10-12T14:16:43Z</time>
      </trkpt>
      <trkpt lat="43.02691" lon="3.04308">
        <ele>6.87</ele>
        <time>2012-10-12T14:17:03Z</time>
      </trkpt>
      <trkpt lat="43.02608" lon="3.0425">
        <ele>5.42</ele>
        <time>2012-10-12T14:17:23Z</time>
      </trkpt>
      <trkpt lat="43.02533" lon="3.04241">
        <ele>6.39</ele>
        <time>2012-10-12T14:17:53Z</time>
      </trkpt>
      <trkpt lat="43.02454" lon="3.0423">
        <ele>9.27</ele>
        <time>2012-10-12T14:19:11Z</time>
      </trkpt>
      <trkpt lat="43.02367" lon="3.04196">
        <ele>10.71</ele>
        <time>2012-10-12T14:20:08Z</time>
      </trkpt>
      <trkpt lat="43.02313" lon="3.04272">
        <ele>7.35</ele>
        <time>2012-10-12T14:20:26Z</time>
      </trkpt>
      <trkpt lat="43.02261" lon="3.04357">
        <ele>5.91</ele>
        <time>2012-10-12T14:20:49Z</time>
      </trkpt>
      <trkpt lat="43.02174" lon="3.04304">
        <ele>5.91</ele>
        <time>2012-10-12T14:21:19Z</time>
      </trkpt>
      <trkpt lat="43.02088" lon="3.04252">
        <ele>7.35</ele>
        <time>2012-10-12T14:21:43Z</time>
      </trkpt>
      <trkpt lat="43.0203" lon="3.0424">
        <ele>5.42</ele>
        <time>2012-10-12T14:30:47Z</time>
      </trkpt>
      <trkpt lat="43.01992" lon="3.04354">
        <ele>5.91</ele>
        <time>2012-10-12T14:32:03Z</time>
      </trkpt>
      <trkpt lat="43.01954" lon="3.04469">
        <ele>5.42</ele>
        <time>2012-10-12T14:32:31Z</time>
      </trkpt>
      <trkpt lat="43.01901" lon="3.04558">
        <ele>6.87</ele>
        <time>2012-10-12T14:32:56Z</time>
      </trkpt>
      <trkpt lat="43.01814" lon="3.04536">
        <ele>6.39</ele>
        <time>2012-10-12T14:33:18Z</time>
      </trkpt>
      <trkpt lat="43.01728" lon="3.0457">
        <ele>5.91</ele>
        <time>2012-10-12T14:33:38Z</time>
      </trkpt>
      <trkpt lat="43.01637" lon="3.04606">
        <ele>5.91</ele>
        <time>2012-10-12T14:33:56Z</time>
      </trkpt>
      <trkpt lat="43.01549" lon="3.0464">
        <ele>6.39</ele>
        <time>2012-10-12T14:34:13Z</time>
      </trkpt>
      <trkpt lat="43.01461" lon="3.04675">
        <ele>7.35</ele>
        <time>2012-10-12T14:34:33Z</time>
      </trkpt>
      <trkpt lat="43.01401" lon="3.04589">
        <ele>7.35</ele>
        <time>2012-10-12T14:34:52Z</time>
      </trkpt>
      <trkpt lat="43.01373" lon="3.04467">
        <ele>7.35</ele>
        <time>2012-10-12T14:35:10Z</time>
      </trkpt>
      <trkpt lat="43.01342" lon="3.04351">
        <ele>6.87</ele>
        <time>2012-10-12T14:35:27Z</time>
      </trkpt>
      <trkpt lat="43.01312" lon="3.04232">
        <ele>10.23</ele>
        <time>2012-10-12T14:35:49Z</time>
      </trkpt>
      <trkpt lat="43.01281" lon="3.04112">
        <ele>14.08</ele>
        <time>2012-10-12T14:36:17Z</time>
      </trkpt>
      <trkpt lat="43.01261" lon="3.03991">
        <ele>15.04</ele>
        <time>2012-10-12T14:36:43Z</time>
      </trkpt>
      <trkpt lat="43.01242" lon="3.03866">
        <ele>15.04</ele>
        <time>2012-10-12T14:37:07Z</time>
      </trkpt>
      <trkpt lat="43.01266" lon="3.03742">
        <ele>10.71</ele>
        <time>2012-10-12T14:37:24Z</time>
      </trkpt>
      <trkpt lat="43.01268" lon="3.03648">
        <ele>6.87</ele>
        <time>2012-10-12T14:37:42Z</time>
      </trkpt>
      <trkpt lat="43.01185" lon="3.03703">
        <ele>6.87</ele>
        <time>2012-10-12T14:37:58Z</time>
      </trkpt>
      <trkpt lat="43.01093" lon="3.03737">
        <ele>7.35</ele>
        <time>2012-10-12T14:38:13Z</time>
      </trkpt>
      <trkpt lat="43.01005" lon="3.03766">
        <ele>5.91</ele>
        <time>2012-10-12T14:38:28Z</time>
      </trkpt>
      <trkpt lat="43.00916" lon="3.03795">
        <ele>6.39</ele>
        <time>2012-10-12T14:38:43Z</time>
      </trkpt>
      <trkpt lat="43.00832" lon="3.03812">
        <ele>6.39</ele>
        <time>2012-10-12T14:39:03Z</time>
      </trkpt>
      <trkpt lat="43.0075" lon="3.0385">
        <ele>6.39</ele>
        <time>2012-10-12T14:43:54Z</time>
      </trkpt>
      <trkpt lat="43.00657" lon="3.03881">
        <ele>6.87</ele>
        <time>2012-10-12T14:44:14Z</time>
      </trkpt>
      <trkpt lat="43.00564" lon="3.03911">
        <ele>6.87</ele>
        <time>2012-10-12T14:44:32Z</time>
      </trkpt>
      <trkpt lat="43.00473" lon="3.03941">
        <ele>6.87</ele>
        <time>2012-10-12T14:44:50Z</time>
      </trkpt>
      <trkpt lat="43.00384" lon="3.0397">
        <ele>6.39</ele>
        <time>2012-10-12T14:45:07Z</time>
      </trkpt>
      <trkpt lat="43.00291" lon="3.04">
        <ele>5.42</ele>
        <time>2012-10-12T14:45:24Z</time>
      </trkpt>
      <trkpt lat="43.00204" lon="3.04029">
        <ele>7.35</ele>
        <time>2012-10-12T14:45:40Z</time>
      </trkpt>
      <trkpt lat="43.00115" lon="3.04058">
        <ele>6.87</ele>
        <time>2012-10-12T14:45:56Z</time>
      </trkpt>
      <trkpt lat="43.00023" lon="3.04088">
        <ele>6.39</ele>
        <time>2012-10-12T14:46:12Z</time>
      </trkpt>
      <trkpt lat="42.99933" lon="3.04118">
        <ele>6.39</ele>
        <time>2012-10-12T14:46:28Z</time>
      </trkpt>
      <trkpt lat="42.99843" lon="3.04147">
        <ele>5.42</ele>
        <time>2012-10-12T14:46:44Z</time>
      </trkpt>
      <trkpt lat="42.99752" lon="3.04173">
        <ele>6.87</ele>
        <time>2012-10-12T14:47:00Z</time>
      </trkpt>
      <trkpt lat="42.99664" lon="3.04154">
        <ele>6.39</ele>
        <time>2012-10-12T14:47:16Z</time>
      </trkpt>
      <trkpt lat="42.99585" lon="3.04094">
        <ele>6.87</ele>
        <time>2012-10-12T14:47:32Z</time>
      </trkpt>
      <trkpt lat="42.99504" lon="3.04027">
        <ele>6.87</ele>
        <time>2012-10-12T14:47:49Z</time>
      </trkpt>
      <trkpt lat="42.99423" lon="3.03958">
        <ele>7.35</ele>
        <time>2012-10-12T14:48:06Z</time>
      </trkpt>
      <trkpt lat="42.99342" lon="3.0389">
        <ele>6.39</ele>
        <time>2012-10-12T14:48:23Z</time>
      </trkpt>
      <trkpt lat="42.99265" lon="3.03824">
        <ele>6.39</ele>
        <time>2012-10-12T14:48:40Z</time>
      </trkpt>
      <trkpt lat="42.99188" lon="3.03761">
        <ele>6.39</ele>
        <time>2012-10-12T14:48:57Z</time>
      </trkpt>
      <trkpt lat="42.99107" lon="3.03694">
        <ele>5.91</ele>
        <time>2012-10-12T14:49:14Z</time>
      </trkpt>
      <trkpt lat="42.99028" lon="3.03627">
        <ele>5.91</ele>
        <time>2012-10-12T14:49:30Z</time>
      </trkpt>
      <trkpt lat="42.98951" lon="3.03563">
        <ele>5.42</ele>
        <time>2012-10-12T14:49:45Z</time>
      </trkpt>
      <trkpt lat="42.98873" lon="3.03496">
        <ele>5.42</ele>
        <time>2012-10-12T14:50:01Z</time>
      </trkpt>
      <trkpt lat="42.98795" lon="3.03431">
        <ele>4.94</ele>
        <time>2012-10-12T14:50:17Z</time>
      </trkpt>
      <trkpt lat="42.98714" lon="3.03362">
        <ele>5.91</ele>
        <time>2012-10-12T14:50:33Z</time>
      </trkpt>
      <trkpt lat="42.98643" lon="3.0328">
        <ele>6.39</ele>
        <time>2012-10-12T14:50:49Z</time>
      </trkpt>
      <trkpt lat="42.98581" lon="3.03191">
        <ele>4.46</ele>
        <time>2012-10-12T14:51:05Z</time>
      </trkpt>
      <trkpt lat="42.98529" lon="3.03086">
        <ele>6.39</ele>
        <time>2012-10-12T14:51:22Z</time>
      </trkpt>
      <trkpt lat="42.98484" lon="3.02977">
        <ele>5.42</ele>
        <time>2012-10-12T14:51:39Z</time>
      </trkpt>
      <trkpt lat="42.98439" lon="3.02867">
        <ele>5.91</ele>
        <time>2012-10-12T14:51:56Z</time>
      </trkpt>
      <trkpt lat="42.98395" lon="3.02759">
        <ele>5.42</ele>
        <time>2012-10-12T14:52:12Z</time>
      </trkpt>
      <trkpt lat="42.98351" lon="3.0265">
        <ele>5.91</ele>
        <time>2012-10-12T14:52:28Z</time>
      </trkpt>
      <trkpt lat="42.98307" lon="3.02538">
        <ele>6.87</ele>
        <time>2012-10-12T14:52:44Z</time>
      </trkpt>
      <trkpt lat="42.98263" lon="3.02428">
        <ele>6.87</ele>
        <time>2012-10-12T14:53:00Z</time>
      </trkpt>
      <trkpt lat="42.98219" lon="3.02317">
        <ele>6.39</ele>
        <time>2012-10-12T14:53:16Z</time>
      </trkpt>
      <trkpt lat="42.98174" lon="3.02204">
        <ele>7.35</ele>
        <time>2012-10-12T14:53:32Z</time>
      </trkpt>
      <trkpt lat="42.9813" lon="3.02096">
        <ele>6.87</ele>
        <time>2012-10-12T14:53:48Z</time>
      </trkpt>
      <trkpt lat="42.98085" lon="3.01982">
        <ele>5.91</ele>
        <time>2012-10-12T14:54:05Z</time>
      </trkpt>
      <trkpt lat="42.9804" lon="3.01869">
        <ele>6.39</ele>
        <time>2012-10-12T14:54:21Z</time>
      </trkpt>
      <trkpt lat="42.97997" lon="3.01761">
        <ele>6.87</ele>
        <time>2012-10-12T14:54:37Z</time>
      </trkpt>
      <trkpt lat="42.97953" lon="3.0165">
        <ele>6.87</ele>
        <time>2012-10-12T14:54:53Z</time>
      </trkpt>
      <trkpt lat="42.97908" lon="3.0154">
        <ele>7.35</ele>
        <time>2012-10-12T14:55:09Z</time>
      </trkpt>
      <trkpt lat="42.97865" lon="3.01431">
        <ele>7.35</ele>
        <time>2012-10-12T14:55:26Z</time>
      </trkpt>
      <trkpt lat="42.97821" lon="3.01322">
        <ele>6.39</ele>
        <time>2012-10-12T14:55:44Z</time>
      </trkpt>
      <trkpt lat="42.97777" lon="3.01213">
        <ele>6.87</ele>
        <time>2012-10-12T14:56:01Z</time>
      </trkpt>
      <trkpt lat="42.97734" lon="3.01105">
        <ele>7.83</ele>
        <time>2012-10-12T14:56:18Z</time>
      </trkpt>
      <trkpt lat="42.9769" lon="3.00999">
        <ele>6.39</ele>
        <time>2012-10-12T14:57:37Z</time>
      </trkpt>
      <trkpt lat="42.97647" lon="3.0089">
        <ele>6.87</ele>
        <time>2012-10-12T14:57:58Z</time>
      </trkpt>
      <trkpt lat="42.97604" lon="3.00782">
        <ele>6.39</ele>
        <time>2012-10-12T14:58:18Z</time>
      </trkpt>
      <trkpt lat="42.97561" lon="3.00673">
        <ele>7.83</ele>
        <time>2012-10-12T14:59:53Z</time>
      </trkpt>
      <trkpt lat="42.97516" lon="3.00562">
        <ele>7.35</ele>
        <time>2012-10-12T15:00:12Z</time>
      </trkpt>
      <trkpt lat="42.97473" lon="3.00453">
        <ele>8.31</ele>
        <time>2012-10-12T15:00:30Z</time>
      </trkpt>
      <trkpt lat="42.97428" lon="3.00342">
        <ele>7.83</ele>
        <time>2012-10-12T15:00:48Z</time>
      </trkpt>
      <trkpt lat="42.9738" lon="3.00231">
        <ele>8.31</ele>
        <time>2012-10-12T15:01:06Z</time>
      </trkpt>
      <trkpt lat="42.97314" lon="3.00141">
        <ele>8.31</ele>
        <time>2012-10-12T15:01:24Z</time>
      </trkpt>
      <trkpt lat="42.97239" lon="3.00069">
        <ele>6.87</ele>
        <time>2012-10-12T15:01:42Z</time>
      </trkpt>
      <trkpt lat="42.97158" lon="3.00015">
        <ele>7.35</ele>
        <time>2012-10-12T15:01:59Z</time>
      </trkpt>
      <trkpt lat="42.97073" lon="2.99971">
        <ele>7.35</ele>
        <time>2012-10-12T15:02:16Z</time>
      </trkpt>
      <trkpt lat="42.96987" lon="2.99925">
        <ele>6.87</ele>
        <time>2012-10-12T15:02:33Z</time>
      </trkpt>
      <trkpt lat="42.969" lon="2.99878">
        <ele>6.87</ele>
        <time>2012-10-12T15:02:50Z</time>
      </trkpt>
      <trkpt lat="42.96812" lon="2.99831">
        <ele>8.31</ele>
        <time>2012-10-12T15:03:07Z</time>
      </trkpt>
      <trkpt lat="42.96726" lon="2.99784">
        <ele>7.83</ele>
        <time>2012-10-12T15:03:24Z</time>
      </trkpt>
      <trkpt lat="42.96639" lon="2.99739">
        <ele>8.31</ele>
        <time>2012-10-12T15:03:41Z</time>
      </trkpt>
      <trkpt lat="42.9655" lon="2.99691">
        <ele>9.27</ele>
        <time>2012-10-12T15:03:58Z</time>
      </trkpt>
      <trkpt lat="42.96467" lon="2.99637">
        <ele>6.87</ele>
        <time>2012-10-12T15:04:14Z</time>
      </trkpt>
      <trkpt lat="42.96402" lon="2.99546">
        <ele>6.87</ele>
        <time>2012-10-12T15:04:30Z</time>
      </trkpt>
      <trkpt lat="42.96354" lon="2.99433">
        <ele>5.91</ele>
        <time>2012-10-12T15:04:47Z</time>
      </trkpt>
      <trkpt lat="42.96308" lon="2.99321">
        <ele>7.35</ele>
        <time>2012-10-12T15:05:04Z</time>
      </trkpt>
      <trkpt lat="42.96261" lon="2.99208">
        <ele>8.31</ele>
        <time>2012-10-12T15:05:22Z</time>
      </trkpt>
      <trkpt lat="42.96216" lon="2.99099">
        <ele>7.35</ele>
        <time>2012-10-12T15:05:39Z</time>
      </trkpt>
      <trkpt lat="42.96171" lon="2.98991">
        <ele>8.79</ele>
        <time>2012-10-12T15:05:57Z</time>
      </trkpt>
      <trkpt lat="42.96127" lon="2.98882">
        <ele>8.31</ele>
        <time>2012-10-12T15:06:17Z</time>
      </trkpt>
      <trkpt lat="42.9608" lon="2.98771">
        <ele>10.23</ele>
        <time>2012-10-12T15:06:38Z</time>
      </trkpt>
      <trkpt lat="42.96029" lon="2.98669">
        <ele>11.19</ele>
        <time>2012-10-12T15:06:59Z</time>
      </trkpt>
      <trkpt lat="42.95954" lon="2.98595">
        <ele>12.63</ele>
        <time>2012-10-12T15:07:20Z</time>
      </trkpt>
      <trkpt lat="42.95913" lon="2.98496">
        <ele>15.04</ele>
        <time>2012-10-12T15:07:44Z</time>
      </trkpt>
      <trkpt lat="42.95843" lon="2.98507">
        <ele>14.08</ele>
        <time>2012-10-12T15:08:05Z</time>
      </trkpt>
      <trkpt lat="42.95755" lon="2.98525">
        <ele>13.6</ele>
        <time>2012-10-12T15:08:20Z</time>
      </trkpt>
      <trkpt lat="42.95666" lon="2.98523">
        <ele>15.04</ele>
        <time>2012-10-12T15:08:36Z</time>
      </trkpt>
      <trkpt lat="42.95575" lon="2.98545">
        <ele>14.56</ele>
        <time>2012-10-12T15:08:52Z</time>
      </trkpt>
      <trkpt lat="42.95482" lon="2.98572">
        <ele>16.96</ele>
        <time>2012-10-12T15:09:08Z</time>
      </trkpt>
      <trkpt lat="42.95389" lon="2.986">
        <ele>17.92</ele>
        <time>2012-10-12T15:09:24Z</time>
      </trkpt>
      <trkpt lat="42.953" lon="2.98626">
        <ele>18.4</ele>
        <time>2012-10-12T15:09:39Z</time>
      </trkpt>
      <trkpt lat="42.95211" lon="2.98654">
        <ele>17.92</ele>
        <time>2012-10-12T15:09:54Z</time>
      </trkpt>
      <trkpt lat="42.95121" lon="2.98681">
        <ele>18.88</ele>
        <time>2012-10-12T15:10:09Z</time>
      </trkpt>
      <trkpt lat="42.95029" lon="2.98708">
        <ele>20.81</ele>
        <time>2012-10-12T15:10:24Z</time>
      </trkpt>
      <trkpt lat="42.94938" lon="2.98736">
        <ele>21.29</ele>
        <time>2012-10-12T15:10:39Z</time>
      </trkpt>
      <trkpt lat="42.94846" lon="2.98764">
        <ele>22.73</ele>
        <time>2012-10-12T15:10:54Z</time>
      </trkpt>
      <trkpt lat="42.94753" lon="2.98791">
        <ele>21.77</ele>
        <time>2012-10-12T15:11:09Z</time>
      </trkpt>
      <trkpt lat="42.9466" lon="2.98819">
        <ele>22.73</ele>
        <time>2012-10-12T15:11:24Z</time>
      </trkpt>
      <trkpt lat="42.94566" lon="2.98847">
        <ele>22.73</ele>
        <time>2012-10-12T15:11:39Z</time>
      </trkpt>
      <trkpt lat="42.94478" lon="2.98873">
        <ele>22.73</ele>
        <time>2012-10-12T15:11:53Z</time>
      </trkpt>
      <trkpt lat="42.94387" lon="2.989">
        <ele>23.21</ele>
        <time>2012-10-12T15:12:07Z</time>
      </trkpt>
      <trkpt lat="42.94297" lon="2.98926">
        <ele>22.73</ele>
        <time>2012-10-12T15:12:20Z</time>
      </trkpt>
      <trkpt lat="42.94208" lon="2.98953">
        <ele>22.25</ele>
        <time>2012-10-12T15:12:33Z</time>
      </trkpt>
      <trkpt lat="42.94114" lon="2.9898">
        <ele>22.25</ele>
        <time>2012-10-12T15:12:46Z</time>
      </trkpt>
      <trkpt lat="42.94023" lon="2.99007">
        <ele>21.29</ele>
        <time>2012-10-12T15:12:59Z</time>
      </trkpt>
      <trkpt lat="42.93934" lon="2.99033">
        <ele>21.77</ele>
        <time>2012-10-12T15:13:12Z</time>
      </trkpt>
      <trkpt lat="42.93844" lon="2.99058">
        <ele>20.81</ele>
        <time>2012-10-12T15:13:25Z</time>
      </trkpt>
      <trkpt lat="42.93749" lon="2.99082">
        <ele>20.81</ele>
        <time>2012-10-12T15:13:38Z</time>
      </trkpt>
      <trkpt lat="42.93661" lon="2.9911">
        <ele>19.84</ele>
        <time>2012-10-12T15:13:50Z</time>
      </trkpt>
      <trkpt lat="42.93567" lon="2.9914">
        <ele>19.36</ele>
        <time>2012-10-12T15:14:02Z</time>
      </trkpt>
      <trkpt lat="42.93479" lon="2.99164">
        <ele>18.4</ele>
        <time>2012-10-12T15:14:14Z</time>
      </trkpt>
      <trkpt lat="42.93388" lon="2.99192">
        <ele>18.88</ele>
        <time>2012-10-12T15:14:26Z</time>
      </trkpt>
      <trkpt lat="42.93296" lon="2.99223">
        <ele>19.36</ele>
        <time>2012-10-12T15:14:39Z</time>
      </trkpt>
      <trkpt lat="42.93207" lon="2.99249">
        <ele>17.92</ele>
        <time>2012-10-12T15:14:52Z</time>
      </trkpt>
      <trkpt lat="42.93115" lon="2.99274">
        <ele>18.4</ele>
        <time>2012-10-12T15:15:05Z</time>
      </trkpt>
      <trkpt lat="42.93023" lon="2.99302">
        <ele>17.44</ele>
        <time>2012-10-12T15:15:18Z</time>
      </trkpt>
      <trkpt lat="42.92934" lon="2.99328">
        <ele>17.44</ele>
        <time>2012-10-12T15:15:30Z</time>
      </trkpt>
      <trkpt lat="42.92846" lon="2.99355">
        <ele>16.48</ele>
        <time>2012-10-12T15:15:42Z</time>
      </trkpt>
      <trkpt lat="42.92751" lon="2.99383">
        <ele>16.48</ele>
        <time>2012-10-12T15:15:55Z</time>
      </trkpt>
      <trkpt lat="42.9266" lon="2.9941">
        <ele>16.96</ele>
        <time>2012-10-12T15:16:08Z</time>
      </trkpt>
      <trkpt lat="42.92566" lon="2.99438">
        <ele>16.96</ele>
        <time>2012-10-12T15:16:22Z</time>
      </trkpt>
      <trkpt lat="42.92475" lon="2.99465">
        <ele>16.48</ele>
        <time>2012-10-12T15:16:36Z</time>
      </trkpt>
      <trkpt lat="42.92387" lon="2.99491">
        <ele>16</ele>
        <time>2012-10-12T15:16:49Z</time>
      </trkpt>
      <trkpt lat="42.92295" lon="2.99519">
        <ele>14.56</ele>
        <time>2012-10-12T15:17:02Z</time>
      </trkpt>
      <trkpt lat="42.92207" lon="2.99546">
        <ele>14.08</ele>
        <time>2012-10-12T15:17:15Z</time>
      </trkpt>
      <trkpt lat="42.92116" lon="2.99572">
        <ele>13.12</ele>
        <time>2012-10-12T15:17:28Z</time>
      </trkpt>
      <trkpt lat="42.92023" lon="2.996">
        <ele>13.12</ele>
        <time>2012-10-12T15:17:42Z</time>
      </trkpt>
      <trkpt lat="42.91932" lon="2.99626">
        <ele>12.63</ele>
        <time>2012-10-12T15:17:56Z</time>
      </trkpt>
      <trkpt lat="42.91841" lon="2.99654">
        <ele>12.63</ele>
        <time>2012-10-12T15:18:11Z</time>
      </trkpt>
      <trkpt lat="42.91753" lon="2.99682">
        <ele>13.12</ele>
        <time>2012-10-12T15:18:26Z</time>
      </trkpt>
      <trkpt lat="42.91659" lon="2.99713">
        <ele>10.23</ele>
        <time>2012-10-12T15:18:40Z</time>
      </trkpt>
      <trkpt lat="42.91566" lon="2.99743">
        <ele>10.23</ele>
        <time>2012-10-12T15:18:54Z</time>
      </trkpt>
      <trkpt lat="42.91476" lon="2.99773">
        <ele>11.19</ele>
        <time>2012-10-12T15:19:08Z</time>
      </trkpt>
      <trkpt lat="42.91384" lon="2.99803">
        <ele>13.6</ele>
        <time>2012-10-12T15:19:26Z</time>
      </trkpt>
      <trkpt lat="42.91292" lon="2.99825">
        <ele>13.6</ele>
        <time>2012-10-12T15:19:43Z</time>
      </trkpt>
      <trkpt lat="42.91198" lon="2.99849">
        <ele>12.63</ele>
        <time>2012-10-12T15:19:58Z</time>
      </trkpt>
      <trkpt lat="42.91109" lon="2.99871">
        <ele>12.15</ele>
        <time>2012-10-12T15:20:12Z</time>
      </trkpt>
      <trkpt lat="42.91016" lon="2.99894">
        <ele>12.15</ele>
        <time>2012-10-12T15:20:27Z</time>
      </trkpt>
      <trkpt lat="42.90922" lon="2.99918">
        <ele>12.63</ele>
        <time>2012-10-12T15:20:42Z</time>
      </trkpt>
      <trkpt lat="42.90833" lon="2.9994">
        <ele>15.04</ele>
        <time>2012-10-12T15:20:58Z</time>
      </trkpt>
      <trkpt lat="42.90739" lon="2.99962">
        <ele>14.56</ele>
        <time>2012-10-12T15:21:15Z</time>
      </trkpt>
      <trkpt lat="42.90649" lon="2.99984">
        <ele>15.04</ele>
        <time>2012-10-12T15:21:30Z</time>
      </trkpt>
      <trkpt lat="42.90557" lon="3.0001">
        <ele>15.52</ele>
        <time>2012-10-12T15:21:46Z</time>
      </trkpt>
      <trkpt lat="42.90463" lon="3.00041">
        <ele>11.19</ele>
        <time>2012-10-12T15:21:59Z</time>
      </trkpt>
      <trkpt lat="42.90371" lon="3.00073">
        <ele>7.83</ele>
        <time>2012-10-12T15:22:10Z</time>
      </trkpt>
      <trkpt lat="42.90279" lon="3.00092">
        <ele>10.23</ele>
        <time>2012-10-12T15:22:21Z</time>
      </trkpt>
      <trkpt lat="42.90188" lon="3.00075">
        <ele>10.23</ele>
        <time>2012-10-12T15:22:35Z</time>
      </trkpt>
      <trkpt lat="42.901" lon="3.00024">
        <ele>8.79</ele>
        <time>2012-10-12T15:22:49Z</time>
      </trkpt>
      <trkpt lat="42.90021" lon="2.99946">
        <ele>7.35</ele>
        <time>2012-10-12T15:23:02Z</time>
      </trkpt>
      <trkpt lat="42.89935" lon="2.99895">
        <ele>5.91</ele>
        <time>2012-10-12T15:23:15Z</time>
      </trkpt>
      <trkpt lat="42.89844" lon="2.99863">
        <ele>6.87</ele>
        <time>2012-10-12T15:23:29Z</time>
      </trkpt>
      <trkpt lat="42.89756" lon="2.9983">
        <ele>6.87</ele>
        <time>2012-10-12T15:23:44Z</time>
      </trkpt>
      <trkpt lat="42.89664" lon="2.99795">
        <ele>5.42</ele>
        <time>2012-10-12T15:23:57Z</time>
      </trkpt>
      <trkpt lat="42.89577" lon="2.99761">
        <ele>5.91</ele>
        <time>2012-10-12T15:24:11Z</time>
      </trkpt>
      <trkpt lat="42.89486" lon="2.99728">
        <ele>5.42</ele>
        <time>2012-10-12T15:24:26Z</time>
      </trkpt>
      <trkpt lat="42.89398" lon="2.99697">
        <ele>6.39</ele>
        <time>2012-10-12T15:24:41Z</time>
      </trkpt>
      <trkpt lat="42.89308" lon="2.99664">
        <ele>4.46</ele>
        <time>2012-10-12T15:24:57Z</time>
      </trkpt>
      <trkpt lat="42.8922" lon="2.99631">
        <ele>3.98</ele>
        <time>2012-10-12T15:25:12Z</time>
      </trkpt>
      <trkpt lat="42.89128" lon="2.99597">
        <ele>4.94</ele>
        <time>2012-10-12T15:25:28Z</time>
      </trkpt>
      <trkpt lat="42.89039" lon="2.99564">
        <ele>6.39</ele>
        <time>2012-10-12T15:25:44Z</time>
      </trkpt>
      <trkpt lat="42.8895" lon="2.99534">
        <ele>4.46</ele>
        <time>2012-10-12T15:27:06Z</time>
      </trkpt>
      <trkpt lat="42.8886" lon="2.99499">
        <ele>5.42</ele>
        <time>2012-10-12T15:27:24Z</time>
      </trkpt>
      <trkpt lat="42.8877" lon="2.9947">
        <ele>6.39</ele>
        <time>2012-10-12T15:27:41Z</time>
      </trkpt>
      <trkpt lat="42.88676" lon="2.99457">
        <ele>6.39</ele>
        <time>2012-10-12T15:27:57Z</time>
      </trkpt>
      <trkpt lat="42.88586" lon="2.99421">
        <ele>6.39</ele>
        <time>2012-10-12T15:28:13Z</time>
      </trkpt>
      <trkpt lat="42.88496" lon="2.99381">
        <ele>6.39</ele>
        <time>2012-10-12T15:28:28Z</time>
      </trkpt>
      <trkpt lat="42.88407" lon="2.9934">
        <ele>6.39</ele>
        <time>2012-10-12T15:28:42Z</time>
      </trkpt>
      <trkpt lat="42.88318" lon="2.99299">
        <ele>5.91</ele>
        <time>2012-10-12T15:28:56Z</time>
      </trkpt>
      <trkpt lat="42.88228" lon="2.99272">
        <ele>5.91</ele>
        <time>2012-10-12T15:29:11Z</time>
      </trkpt>
      <trkpt lat="42.88135" lon="2.99277">
        <ele>6.39</ele>
        <time>2012-10-12T15:29:26Z</time>
      </trkpt>
      <trkpt lat="42.88041" lon="2.99285">
        <ele>8.31</ele>
        <time>2012-10-12T15:29:42Z</time>
      </trkpt>
      <trkpt lat="42.87946" lon="2.99295">
        <ele>8.79</ele>
        <time>2012-10-12T15:29:59Z</time>
      </trkpt>
      <trkpt lat="42.87852" lon="2.99304">
        <ele>10.23</ele>
        <time>2012-10-12T15:30:16Z</time>
      </trkpt>
      <trkpt lat="42.8776" lon="2.99307">
        <ele>10.23</ele>
        <time>2012-10-12T15:30:31Z</time>
      </trkpt>
      <trkpt lat="42.87668" lon="2.99279">
        <ele>9.27</ele>
        <time>2012-10-12T15:30:45Z</time>
      </trkpt>
      <trkpt lat="42.87576" lon="2.99251">
        <ele>8.31</ele>
        <time>2012-10-12T15:30:59Z</time>
      </trkpt>
      <trkpt lat="42.87488" lon="2.99224">
        <ele>9.75</ele>
        <time>2012-10-12T15:31:14Z</time>
      </trkpt>
      <trkpt lat="42.87399" lon="2.99193">
        <ele>11.67</ele>
        <time>2012-10-12T15:31:30Z</time>
      </trkpt>
      <trkpt lat="42.87312" lon="2.99139">
        <ele>10.71</ele>
        <time>2012-10-12T15:31:46Z</time>
      </trkpt>
      <trkpt lat="42.87242" lon="2.99061">
        <ele>9.27</ele>
        <time>2012-10-12T15:31:59Z</time>
      </trkpt>
      <trkpt lat="42.87191" lon="2.9895">
        <ele>7.83</ele>
        <time>2012-10-12T15:32:12Z</time>
      </trkpt>
      <trkpt lat="42.87132" lon="2.98858">
        <ele>6.87</ele>
        <time>2012-10-12T15:32:25Z</time>
      </trkpt>
      <trkpt lat="42.87053" lon="2.98798">
        <ele>6.87</ele>
        <time>2012-10-12T15:32:39Z</time>
      </trkpt>
      <trkpt lat="42.8697" lon="2.98741">
        <ele>6.87</ele>
        <time>2012-10-12T15:32:54Z</time>
      </trkpt>
      <trkpt lat="42.86885" lon="2.98682">
        <ele>5.91</ele>
        <time>2012-10-12T15:33:10Z</time>
      </trkpt>
      <trkpt lat="42.86811" lon="2.98604">
        <ele>6.39</ele>
        <time>2012-10-12T15:33:25Z</time>
      </trkpt>
      <trkpt lat="42.86745" lon="2.98514">
        <ele>7.83</ele>
        <time>2012-10-12T15:33:42Z</time>
      </trkpt>
      <trkpt lat="42.86692" lon="2.98408">
        <ele>9.27</ele>
        <time>2012-10-12T15:34:01Z</time>
      </trkpt>
      <trkpt lat="42.86651" lon="2.98296">
        <ele>8.31</ele>
        <time>2012-10-12T15:34:19Z</time>
      </trkpt>
      <trkpt lat="42.86615" lon="2.98179">
        <ele>4.94</ele>
        <time>2012-10-12T15:34:36Z</time>
      </trkpt>
      <trkpt lat="42.86566" lon="2.98069">
        <ele>6.39</ele>
        <time>2012-10-12T15:34:54Z</time>
      </trkpt>
      <trkpt lat="42.86514" lon="2.97966">
        <ele>7.35</ele>
        <time>2012-10-12T15:35:11Z</time>
      </trkpt>
      <trkpt lat="42.86463" lon="2.97865">
        <ele>7.83</ele>
        <time>2012-10-12T15:35:28Z</time>
      </trkpt>
      <trkpt lat="42.86413" lon="2.97754">
        <ele>7.35</ele>
        <time>2012-10-12T15:35:45Z</time>
      </trkpt>
      <trkpt lat="42.86366" lon="2.97647">
        <ele>5.42</ele>
        <time>2012-10-12T15:36:00Z</time>
      </trkpt>
      <trkpt lat="42.8632" lon="2.97541">
        <ele>5.42</ele>
        <time>2012-10-12T15:36:14Z</time>
      </trkpt>
      <trkpt lat="42.86273" lon="2.97432">
        <ele>5.42</ele>
        <time>2012-10-12T15:36:30Z</time>
      </trkpt>
      <trkpt lat="42.86224" lon="2.97321">
        <ele>6.39</ele>
        <time>2012-10-12T15:36:46Z</time>
      </trkpt>
      <trkpt lat="42.86177" lon="2.97211">
        <ele>6.87</ele>
        <time>2012-10-12T15:37:01Z</time>
      </trkpt>
      <trkpt lat="42.8613" lon="2.97105">
        <ele>7.83</ele>
        <time>2012-10-12T15:37:17Z</time>
      </trkpt>
      <trkpt lat="42.86082" lon="2.96998">
        <ele>8.31</ele>
        <time>2012-10-12T15:37:34Z</time>
      </trkpt>
      <trkpt lat="42.86035" lon="2.96889">
        <ele>8.79</ele>
        <time>2012-10-12T15:37:52Z</time>
      </trkpt>
      <trkpt lat="42.85989" lon="2.96782">
        <ele>9.27</ele>
        <time>2012-10-12T15:38:09Z</time>
      </trkpt>
      <trkpt lat="42.85947" lon="2.96672">
        <ele>9.75</ele>
        <time>2012-10-12T15:38:26Z</time>
      </trkpt>
      <trkpt lat="42.85909" lon="2.96556">
        <ele>7.83</ele>
        <time>2012-10-12T15:38:42Z</time>
      </trkpt>
      <trkpt lat="42.85875" lon="2.96436">
        <ele>6.39</ele>
        <time>2012-10-12T15:38:57Z</time>
      </trkpt>
      <trkpt lat="42.85856" lon="2.96314">
        <ele>7.35</ele>
        <time>2012-10-12T15:39:14Z</time>
      </trkpt>
      <trkpt lat="42.85844" lon="2.96188">
        <ele>7.83</ele>
        <time>2012-10-12T15:39:31Z</time>
      </trkpt>
      <trkpt lat="42.85838" lon="2.9606">
        <ele>5.91</ele>
        <time>2012-10-12T15:39:46Z</time>
      </trkpt>
      <trkpt lat="42.85834" lon="2.9593">
        <ele>6.39</ele>
        <time>2012-10-12T15:40:01Z</time>
      </trkpt>
      <trkpt lat="42.85828" lon="2.95806">
        <ele>6.39</ele>
        <time>2012-10-12T15:40:17Z</time>
      </trkpt>
      <trkpt lat="42.85812" lon="2.95683">
        <ele>7.35</ele>
        <time>2012-10-12T15:40:35Z</time>
      </trkpt>
      <trkpt lat="42.85785" lon="2.95563">
        <ele>7.83</ele>
        <time>2012-10-12T15:40:54Z</time>
      </trkpt>
      <trkpt lat="42.85747" lon="2.95447">
        <ele>9.27</ele>
        <time>2012-10-12T15:41:14Z</time>
      </trkpt>
      <trkpt lat="42.85704" lon="2.95338">
        <ele>9.75</ele>
        <time>2012-10-12T15:41:34Z</time>
      </trkpt>
      <trkpt lat="42.85661" lon="2.95229">
        <ele>11.19</ele>
        <time>2012-10-12T15:41:52Z</time>
      </trkpt>
      <trkpt lat="42.85619" lon="2.95119">
        <ele>12.63</ele>
        <time>2012-10-12T15:42:11Z</time>
      </trkpt>
      <trkpt lat="42.85575" lon="2.95008">
        <ele>16.48</ele>
        <time>2012-10-12T15:42:32Z</time>
      </trkpt>
      <trkpt lat="42.85532" lon="2.94896">
        <ele>18.4</ele>
        <time>2012-10-12T15:42:53Z</time>
      </trkpt>
      <trkpt lat="42.8549" lon="2.94787">
        <ele>19.36</ele>
        <time>2012-10-12T15:43:14Z</time>
      </trkpt>
      <trkpt lat="42.85446" lon="2.94672">
        <ele>18.88</ele>
        <time>2012-10-12T15:43:35Z</time>
      </trkpt>
      <trkpt lat="42.85402" lon="2.94556">
        <ele>18.4</ele>
        <time>2012-10-12T15:43:54Z</time>
      </trkpt>
      <trkpt lat="42.85358" lon="2.94443">
        <ele>16.48</ele>
        <time>2012-10-12T15:44:10Z</time>
      </trkpt>
      <trkpt lat="42.85315" lon="2.9433">
        <ele>13.12</ele>
        <time>2012-10-12T15:44:25Z</time>
      </trkpt>
      <trkpt lat="42.85274" lon="2.94218">
        <ele>10.23</ele>
        <time>2012-10-12T15:44:39Z</time>
      </trkpt>
      <trkpt lat="42.85249" lon="2.94091">
        <ele>8.79</ele>
        <time>2012-10-12T15:44:53Z</time>
      </trkpt>
      <trkpt lat="42.85231" lon="2.93967">
        <ele>8.79</ele>
        <time>2012-10-12T15:45:08Z</time>
      </trkpt>
      <trkpt lat="42.85152" lon="2.93931">
        <ele>4.94</ele>
        <time>2012-10-12T15:45:23Z</time>
      </trkpt>
      <trkpt lat="42.85095" lon="2.93858">
        <ele>5.42</ele>
        <time>2012-10-12T15:45:40Z</time>
      </trkpt>
      <trkpt lat="42.85102" lon="2.93733">
        <ele>6.87</ele>
        <time>2012-10-12T15:45:59Z</time>
      </trkpt>
      <trkpt lat="42.85095" lon="2.93607">
        <ele>7.35</ele>
        <time>2012-10-12T15:46:19Z</time>
      </trkpt>
      <trkpt lat="42.85052" lon="2.93492">
        <ele>8.31</ele>
        <time>2012-10-12T15:46:39Z</time>
      </trkpt>
      <trkpt lat="42.84996" lon="2.93394">
        <ele>8.31</ele>
        <time>2012-10-12T15:46:59Z</time>
      </trkpt>
      <trkpt lat="42.84923" lon="2.9332">
        <ele>7.83</ele>
        <time>2012-10-12T15:47:17Z</time>
      </trkpt>
      <trkpt lat="42.84849" lon="2.93245">
        <ele>8.31</ele>
        <time>2012-10-12T15:47:35Z</time>
      </trkpt>
      <trkpt lat="42.84774" lon="2.9317">
        <ele>8.79</ele>
        <time>2012-10-12T15:47:53Z</time>
      </trkpt>
      <trkpt lat="42.847" lon="2.93095">
        <ele>8.79</ele>
        <time>2012-10-12T15:48:53Z</time>
      </trkpt>
      <trkpt lat="42.84625" lon="2.93019">
        <ele>8.31</ele>
        <time>2012-10-12T15:49:12Z</time>
      </trkpt>
      <trkpt lat="42.84551" lon="2.92945">
        <ele>9.75</ele>
        <time>2012-10-12T15:49:29Z</time>
      </trkpt>
      <trkpt lat="42.8448" lon="2.92867">
        <ele>10.23</ele>
        <time>2012-10-12T15:49:45Z</time>
      </trkpt>
      <trkpt lat="42.84405" lon="2.92792">
        <ele>9.75</ele>
        <time>2012-10-12T15:50:04Z</time>
      </trkpt>
      <trkpt lat="42.84329" lon="2.92716">
        <ele>9.27</ele>
        <time>2012-10-12T15:50:21Z</time>
      </trkpt>
      <trkpt lat="42.84256" lon="2.9264">
        <ele>7.83</ele>
        <time>2012-10-12T15:50:39Z</time>
      </trkpt>
      <trkpt lat="42.84178" lon="2.92562">
        <ele>6.87</ele>
        <time>2012-10-12T15:50:55Z</time>
      </trkpt>
      <trkpt lat="42.84103" lon="2.92491">
        <ele>7.35</ele>
        <time>2012-10-12T15:51:10Z</time>
      </trkpt>
      <trkpt lat="42.84027" lon="2.92418">
        <ele>6.87</ele>
        <time>2012-10-12T15:51:27Z</time>
      </trkpt>
      <trkpt lat="42.83953" lon="2.92343">
        <ele>6.87</ele>
        <time>2012-10-12T15:51:44Z</time>
      </trkpt>
      <trkpt lat="42.83877" lon="2.92277">
        <ele>6.39</ele>
        <time>2012-10-12T15:52:00Z</time>
      </trkpt>
      <trkpt lat="42.8379" lon="2.92234">
        <ele>6.39</ele>
        <time>2012-10-12T15:52:16Z</time>
      </trkpt>
      <trkpt lat="42.83698" lon="2.92203">
        <ele>5.42</ele>
        <time>2012-10-12T15:52:33Z</time>
      </trkpt>
      <trkpt lat="42.836" lon="2.92195">
        <ele>6.39</ele>
        <time>2012-10-12T15:52:50Z</time>
      </trkpt>
      <trkpt lat="42.83508" lon="2.9221">
        <ele>6.87</ele>
        <time>2012-10-12T15:53:06Z</time>
      </trkpt>
      <trkpt lat="42.83416" lon="2.9224">
        <ele>6.87</ele>
        <time>2012-10-12T15:53:22Z</time>
      </trkpt>
      <trkpt lat="42.83325" lon="2.92282">
        <ele>6.39</ele>
        <time>2012-10-12T15:53:37Z</time>
      </trkpt>
      <trkpt lat="42.83236" lon="2.92325">
        <ele>7.35</ele>
        <time>2012-10-12T15:53:52Z</time>
      </trkpt>
      <trkpt lat="42.83151" lon="2.92367">
        <ele>8.79</ele>
        <time>2012-10-12T15:54:07Z</time>
      </trkpt>
      <trkpt lat="42.83059" lon="2.924">
        <ele>8.79</ele>
        <time>2012-10-12T15:54:23Z</time>
      </trkpt>
      <trkpt lat="42.82966" lon="2.92414">
        <ele>10.71</ele>
        <time>2012-10-12T15:54:39Z</time>
      </trkpt>
      <trkpt lat="42.82878" lon="2.92395">
        <ele>9.27</ele>
        <time>2012-10-12T15:54:55Z</time>
      </trkpt>
      <trkpt lat="42.82795" lon="2.92348">
        <ele>9.27</ele>
        <time>2012-10-12T15:55:13Z</time>
      </trkpt>
      <trkpt lat="42.82716" lon="2.92279">
        <ele>9.75</ele>
        <time>2012-10-12T15:59:22Z</time>
      </trkpt>
      <trkpt lat="42.82649" lon="2.92191">
        <ele>10.71</ele>
        <time>2012-10-12T15:59:42Z</time>
      </trkpt>
      <trkpt lat="42.82586" lon="2.92104">
        <ele>12.15</ele>
        <time>2012-10-12T16:00:01Z</time>
      </trkpt>
      <trkpt lat="42.82527" lon="2.92004">
        <ele>11.19</ele>
        <time>2012-10-12T16:00:20Z</time>
      </trkpt>
      <trkpt lat="42.82471" lon="2.91907">
        <ele>12.63</ele>
        <time>2012-10-12T16:00:37Z</time>
      </trkpt>
      <trkpt lat="42.8241" lon="2.91812">
        <ele>13.12</ele>
        <time>2012-10-12T16:00:54Z</time>
      </trkpt>
      <trkpt lat="42.82336" lon="2.9173">
        <ele>13.6</ele>
        <time>2012-10-12T16:01:12Z</time>
      </trkpt>
      <trkpt lat="42.82255" lon="2.9167">
        <ele>14.56</ele>
        <time>2012-10-12T16:01:29Z</time>
      </trkpt>
      <trkpt lat="42.82165" lon="2.91629">
        <ele>13.6</ele>
        <time>2012-10-12T16:01:45Z</time>
      </trkpt>
      <trkpt lat="42.82074" lon="2.91601">
        <ele>14.08</ele>
        <time>2012-10-12T16:02:01Z</time>
      </trkpt>
      <trkpt lat="42.81983" lon="2.91574">
        <ele>14.08</ele>
        <time>2012-10-12T16:02:17Z</time>
      </trkpt>
      <trkpt lat="42.81893" lon="2.91547">
        <ele>14.56</ele>
        <time>2012-10-12T16:02:33Z</time>
      </trkpt>
      <trkpt lat="42.81802" lon="2.9152">
        <ele>15.04</ele>
        <time>2012-10-12T16:02:50Z</time>
      </trkpt>
      <trkpt lat="42.81713" lon="2.91493">
        <ele>15.04</ele>
        <time>2012-10-12T16:03:07Z</time>
      </trkpt>
      <trkpt lat="42.81625" lon="2.91466">
        <ele>15.04</ele>
        <time>2012-10-12T16:03:23Z</time>
      </trkpt>
      <trkpt lat="42.81533" lon="2.91439">
        <ele>14.56</ele>
        <time>2012-10-12T16:03:39Z</time>
      </trkpt>
      <trkpt lat="42.81444" lon="2.91412">
        <ele>15.52</ele>
        <time>2012-10-12T16:03:55Z</time>
      </trkpt>
      <trkpt lat="42.81353" lon="2.91385">
        <ele>15.52</ele>
        <time>2012-10-12T16:04:11Z</time>
      </trkpt>
      <trkpt lat="42.81266" lon="2.91358">
        <ele>16</ele>
        <time>2012-10-12T16:04:26Z</time>
      </trkpt>
      <trkpt lat="42.81174" lon="2.9133">
        <ele>15.52</ele>
        <time>2012-10-12T16:04:42Z</time>
      </trkpt>
      <trkpt lat="42.81082" lon="2.91302">
        <ele>16</ele>
        <time>2012-10-12T16:04:58Z</time>
      </trkpt>
      <trkpt lat="42.80994" lon="2.91274">
        <ele>15.04</ele>
        <time>2012-10-12T16:05:13Z</time>
      </trkpt>
      <trkpt lat="42.80903" lon="2.91246">
        <ele>15.52</ele>
        <time>2012-10-12T16:05:28Z</time>
      </trkpt>
      <trkpt lat="42.80815" lon="2.9122">
        <ele>16.48</ele>
        <time>2012-10-12T16:05:43Z</time>
      </trkpt>
      <trkpt lat="42.80725" lon="2.91193">
        <ele>16</ele>
        <time>2012-10-12T16:05:58Z</time>
      </trkpt>
      <trkpt lat="42.80637" lon="2.91166">
        <ele>16</ele>
        <time>2012-10-12T16:06:13Z</time>
      </trkpt>
      <trkpt lat="42.80548" lon="2.91138">
        <ele>16</ele>
        <time>2012-10-12T16:06:29Z</time>
      </trkpt>
      <trkpt lat="42.80457" lon="2.91111">
        <ele>15.52</ele>
        <time>2012-10-12T16:06:45Z</time>
      </trkpt>
      <trkpt lat="42.80365" lon="2.91083">
        <ele>16.48</ele>
        <time>2012-10-12T16:07:01Z</time>
      </trkpt>
      <trkpt lat="42.80273" lon="2.91054">
        <ele>16</ele>
        <time>2012-10-12T16:07:17Z</time>
      </trkpt>
      <trkpt lat="42.80179" lon="2.91025">
        <ele>16.48</ele>
        <time>2012-10-12T16:07:33Z</time>
      </trkpt>
      <trkpt lat="42.80088" lon="2.90998">
        <ele>16</ele>
        <time>2012-10-12T16:07:49Z</time>
      </trkpt>
      <trkpt lat="42.8" lon="2.90971">
        <ele>16.48</ele>
        <time>2012-10-12T16:08:04Z</time>
      </trkpt>
      <trkpt lat="42.79908" lon="2.90942">
        <ele>16.48</ele>
        <time>2012-10-12T16:08:20Z</time>
      </trkpt>
      <trkpt lat="42.79815" lon="2.90914">
        <ele>16.48</ele>
        <time>2012-10-12T16:08:36Z</time>
      </trkpt>
      <trkpt lat="42.79726" lon="2.90886">
        <ele>16.96</ele>
        <time>2012-10-12T16:08:51Z</time>
      </trkpt>
      <trkpt lat="42.79633" lon="2.90859">
        <ele>16.96</ele>
        <time>2012-10-12T16:09:07Z</time>
      </trkpt>
      <trkpt lat="42.79541" lon="2.90832">
        <ele>17.92</ele>
        <time>2012-10-12T16:09:22Z</time>
      </trkpt>
      <trkpt lat="42.7945" lon="2.90804">
        <ele>15.52</ele>
        <time>2012-10-12T16:09:37Z</time>
      </trkpt>
      <trkpt lat="42.79357" lon="2.90774">
        <ele>16.96</ele>
        <time>2012-10-12T16:09:52Z</time>
      </trkpt>
      <trkpt lat="42.79263" lon="2.90745">
        <ele>18.4</ele>
        <time>2012-10-12T16:10:07Z</time>
      </trkpt>
      <trkpt lat="42.79172" lon="2.90715">
        <ele>18.4</ele>
        <time>2012-10-12T16:10:23Z</time>
      </trkpt>
      <trkpt lat="42.79084" lon="2.9068">
        <ele>18.4</ele>
        <time>2012-10-12T16:12:14Z</time>
      </trkpt>
      <trkpt lat="42.78995" lon="2.90661">
        <ele>18.4</ele>
        <time>2012-10-12T16:12:32Z</time>
      </trkpt>
      <trkpt lat="42.78903" lon="2.90633">
        <ele>18.4</ele>
        <time>2012-10-12T16:12:49Z</time>
      </trkpt>
      <trkpt lat="42.78812" lon="2.90605">
        <ele>18.88</ele>
        <time>2012-10-12T16:13:05Z</time>
      </trkpt>
      <trkpt lat="42.78721" lon="2.90578">
        <ele>19.36</ele>
        <time>2012-10-12T16:13:21Z</time>
      </trkpt>
      <trkpt lat="42.78629" lon="2.90549">
        <ele>19.84</ele>
        <time>2012-10-12T16:13:37Z</time>
      </trkpt>
      <trkpt lat="42.78539" lon="2.90523">
        <ele>19.84</ele>
        <time>2012-10-12T16:13:53Z</time>
      </trkpt>
      <trkpt lat="42.78447" lon="2.90495">
        <ele>20.32</ele>
        <time>2012-10-12T16:14:09Z</time>
      </trkpt>
      <trkpt lat="42.78355" lon="2.90467">
        <ele>20.32</ele>
        <time>2012-10-12T16:14:25Z</time>
      </trkpt>
      <trkpt lat="42.78265" lon="2.90439">
        <ele>21.29</ele>
        <time>2012-10-12T16:14:41Z</time>
      </trkpt>
      <trkpt lat="42.78177" lon="2.9041">
        <ele>21.29</ele>
        <time>2012-10-12T16:14:57Z</time>
      </trkpt>
      <trkpt lat="42.78088" lon="2.90384">
        <ele>20.81</ele>
        <time>2012-10-12T16:15:13Z</time>
      </trkpt>
      <trkpt lat="42.77999" lon="2.90358">
        <ele>20.81</ele>
        <time>2012-10-12T16:15:28Z</time>
      </trkpt>
      <trkpt lat="42.77906" lon="2.90324">
        <ele>20.81</ele>
        <time>2012-10-12T16:15:43Z</time>
      </trkpt>
      <trkpt lat="42.77814" lon="2.90295">
        <ele>20.81</ele>
        <time>2012-10-12T16:15:57Z</time>
      </trkpt>
      <trkpt lat="42.77722" lon="2.90264">
        <ele>20.81</ele>
        <time>2012-10-12T16:16:11Z</time>
      </trkpt>
      <trkpt lat="42.77632" lon="2.90235">
        <ele>20.81</ele>
        <time>2012-10-12T16:16:25Z</time>
      </trkpt>
      <trkpt lat="42.77538" lon="2.90209">
        <ele>20.81</ele>
        <time>2012-10-12T16:16:40Z</time>
      </trkpt>
      <trkpt lat="42.77445" lon="2.90182">
        <ele>22.25</ele>
        <time>2012-10-12T16:16:56Z</time>
      </trkpt>
      <trkpt lat="42.77358" lon="2.90154">
        <ele>22.73</ele>
        <time>2012-10-12T16:17:12Z</time>
      </trkpt>
      <trkpt lat="42.77269" lon="2.90127">
        <ele>23.69</ele>
        <time>2012-10-12T16:17:28Z</time>
      </trkpt>
      <trkpt lat="42.77175" lon="2.90096">
        <ele>22.73</ele>
        <time>2012-10-12T16:17:44Z</time>
      </trkpt>
      <trkpt lat="42.77087" lon="2.90066">
        <ele>19.84</ele>
        <time>2012-10-12T16:17:58Z</time>
      </trkpt>
      <trkpt lat="42.77044" lon="2.89986">
        <ele>19.36</ele>
        <time>2012-10-12T16:18:12Z</time>
      </trkpt>
      <trkpt lat="42.77087" lon="2.89875">
        <ele>18.88</ele>
        <time>2012-10-12T16:18:31Z</time>
      </trkpt>
      <trkpt lat="42.77119" lon="2.89762">
        <ele>18.88</ele>
        <time>2012-10-12T16:20:53Z</time>
      </trkpt>
      <trkpt lat="42.77124" lon="2.89635">
        <ele>19.84</ele>
        <time>2012-10-12T16:21:15Z</time>
      </trkpt>
      <trkpt lat="42.77122" lon="2.89511">
        <ele>23.69</ele>
        <time>2012-10-12T16:21:38Z</time>
      </trkpt>
      <trkpt lat="42.77122" lon="2.89386">
        <ele>28.02</ele>
        <time>2012-10-12T16:22:04Z</time>
      </trkpt>
      <trkpt lat="42.77121" lon="2.89262">
        <ele>30.9</ele>
        <time>2012-10-12T16:22:29Z</time>
      </trkpt>
      <trkpt lat="42.77121" lon="2.89133">
        <ele>28.02</ele>
        <time>2012-10-12T16:22:47Z</time>
      </trkpt>
      <trkpt lat="42.77121" lon="2.89001">
        <ele>24.65</ele>
        <time>2012-10-12T16:23:01Z</time>
      </trkpt>
      <trkpt lat="42.7712" lon="2.88878">
        <ele>21.77</ele>
        <time>2012-10-12T16:23:13Z</time>
      </trkpt>
      <trkpt lat="42.7712" lon="2.88751">
        <ele>20.81</ele>
        <time>2012-10-12T16:23:28Z</time>
      </trkpt>
      <trkpt lat="42.7712" lon="2.88627">
        <ele>21.29</ele>
        <time>2012-10-12T16:23:44Z</time>
      </trkpt>
      <trkpt lat="42.77119" lon="2.88504">
        <ele>21.29</ele>
        <time>2012-10-12T16:24:02Z</time>
      </trkpt>
      <trkpt lat="42.771" lon="2.8841">
        <ele>20.32</ele>
        <time>2012-10-12T16:24:22Z</time>
      </trkpt>
      <trkpt lat="42.77021" lon="2.88341">
        <ele>21.29</ele>
        <time>2012-10-12T16:24:40Z</time>
      </trkpt>
      <trkpt lat="42.76941" lon="2.88273">
        <ele>21.29</ele>
        <time>2012-10-12T16:25:02Z</time>
      </trkpt>
      <trkpt lat="42.76863" lon="2.88213">
        <ele>21.29</ele>
        <time>2012-10-12T16:25:19Z</time>
      </trkpt>
      <trkpt lat="42.76786" lon="2.88157">
        <ele>21.77</ele>
        <time>2012-10-12T16:25:38Z</time>
      </trkpt>
      <trkpt lat="42.76765" lon="2.88266">
        <ele>20.32</ele>
        <time>2012-10-12T16:25:59Z</time>
      </trkpt>
      <trkpt lat="42.76704" lon="2.8832">
        <ele>20.32</ele>
        <time>2012-10-12T16:26:25Z</time>
      </trkpt>
      <trkpt lat="42.76751" lon="2.88302">
        <ele>21.29</ele>
        <time>2012-10-12T16:29:24Z</time>
      </trkpt>
      <trkpt lat="42.76797" lon="2.88189">
        <ele>22.25</ele>
        <time>2012-10-12T16:29:46Z</time>
      </trkpt>
      <trkpt lat="42.76742" lon="2.88108">
        <ele>22.25</ele>
        <time>2012-10-12T16:30:10Z</time>
      </trkpt>
      <trkpt lat="42.76661" lon="2.88041">
        <ele>21.29</ele>
        <time>2012-10-12T16:30:28Z</time>
      </trkpt>
      <trkpt lat="42.76594" lon="2.8796">
        <ele>21.77</ele>
        <time>2012-10-12T16:30:47Z</time>
      </trkpt>
      <trkpt lat="42.76511" lon="2.87898">
        <ele>21.77</ele>
        <time>2012-10-12T16:31:04Z</time>
      </trkpt>
      <trkpt lat="42.76436" lon="2.87827">
        <ele>22.25</ele>
        <time>2012-10-12T16:31:20Z</time>
      </trkpt>
      <trkpt lat="42.76374" lon="2.87748">
        <ele>23.21</ele>
        <time>2012-10-12T16:31:37Z</time>
      </trkpt>
      <trkpt lat="42.76446" lon="2.87668">
        <ele>23.69</ele>
        <time>2012-10-12T16:31:56Z</time>
      </trkpt>
      <trkpt lat="42.76522" lon="2.87598">
        <ele>23.69</ele>
        <time>2012-10-12T16:32:16Z</time>
      </trkpt>
      <trkpt lat="42.76578" lon="2.87498">
        <ele>24.17</ele>
        <time>2012-10-12T16:32:37Z</time>
      </trkpt>
      <trkpt lat="42.76643" lon="2.8741">
        <ele>24.65</ele>
        <time>2012-10-12T16:32:59Z</time>
      </trkpt>
      <trkpt lat="42.76703" lon="2.8731">
        <ele>24.17</ele>
        <time>2012-10-12T16:33:26Z</time>
      </trkpt>
      <trkpt lat="42.76722" lon="2.87262">
        <ele>24.65</ele>
        <time>2012-10-12T16:34:58Z</time>
      </trkpt>
      <trkpt lat="42.76722" lon="2.87263">
        <ele>22.25</ele>
        <time>2012-10-12T16:35:02Z</time>
      </trkpt>
      <trkpt lat="42.76724" lon="2.87257">
        <ele>6.39</ele>
        <time>2012-10-13T06:31:58Z</time>
      </trkpt>
      <trkpt lat="42.76694" lon="2.88379">
        <ele>8.31</ele>
        <time>2012-10-13T06:32:38Z</time>
      </trkpt>
      <trkpt lat="42.76747" lon="2.88319">
        <ele>22.25</ele>
        <time>2012-10-13T06:33:45Z</time>
      </trkpt>
      <trkpt lat="42.76774" lon="2.88247">
        <ele>22.25</ele>
        <time>2012-10-13T06:34:16Z</time>
      </trkpt>
      <trkpt lat="42.76784" lon="2.88146">
        <ele>23.21</ele>
        <time>2012-10-13T06:34:44Z</time>
      </trkpt>
      <trkpt lat="42.76708" lon="2.88074">
        <ele>22.25</ele>
        <time>2012-10-13T06:35:05Z</time>
      </trkpt>
      <trkpt lat="42.7664" lon="2.87996">
        <ele>22.73</ele>
        <time>2012-10-13T06:35:25Z</time>
      </trkpt>
      <trkpt lat="42.76562" lon="2.87937">
        <ele>22.73</ele>
        <time>2012-10-13T06:35:44Z</time>
      </trkpt>
      <trkpt lat="42.76484" lon="2.87872">
        <ele>23.69</ele>
        <time>2012-10-13T06:36:03Z</time>
      </trkpt>
      <trkpt lat="42.76407" lon="2.87807">
        <ele>23.21</ele>
        <time>2012-10-13T06:36:21Z</time>
      </trkpt>
      <trkpt lat="42.76347" lon="2.8773">
        <ele>23.21</ele>
        <time>2012-10-13T06:36:40Z</time>
      </trkpt>
      <trkpt lat="42.76268" lon="2.8767">
        <ele>23.69</ele>
        <time>2012-10-13T06:36:58Z</time>
      </trkpt>
      <trkpt lat="42.76185" lon="2.87621">
        <ele>23.69</ele>
        <time>2012-10-13T06:37:16Z</time>
      </trkpt>
      <trkpt lat="42.76097" lon="2.87583">
        <ele>24.17</ele>
        <time>2012-10-13T06:37:34Z</time>
      </trkpt>
      <trkpt lat="42.76008" lon="2.87556">
        <ele>26.09</ele>
        <time>2012-10-13T06:37:56Z</time>
      </trkpt>
      <trkpt lat="42.76025" lon="2.87651">
        <ele>26.57</ele>
        <time>2012-10-13T06:38:24Z</time>
      </trkpt>
      <trkpt lat="42.76023" lon="2.87775">
        <ele>27.53</ele>
        <time>2012-10-13T06:38:45Z</time>
      </trkpt>
      <trkpt lat="42.75999" lon="2.87896">
        <ele>26.57</ele>
        <time>2012-10-13T06:39:04Z</time>
      </trkpt>
      <trkpt lat="42.75978" lon="2.87991">
        <ele>25.61</ele>
        <time>2012-10-13T06:39:27Z</time>
      </trkpt>
      <trkpt lat="42.75952" lon="2.88075">
        <ele>26.09</ele>
        <time>2012-10-13T06:39:48Z</time>
      </trkpt>
      <trkpt lat="42.75951" lon="2.88204">
        <ele>23.69</ele>
        <time>2012-10-13T06:40:04Z</time>
      </trkpt>
      <trkpt lat="42.75923" lon="2.88326">
        <ele>22.73</ele>
        <time>2012-10-13T06:40:18Z</time>
      </trkpt>
      <trkpt lat="42.7589" lon="2.8844">
        <ele>22.25</ele>
        <time>2012-10-13T06:40:32Z</time>
      </trkpt>
      <trkpt lat="42.75845" lon="2.88551">
        <ele>22.25</ele>
        <time>2012-10-13T06:40:47Z</time>
      </trkpt>
      <trkpt lat="42.75803" lon="2.88665">
        <ele>22.25</ele>
        <time>2012-10-13T06:41:03Z</time>
      </trkpt>
      <trkpt lat="42.75778" lon="2.88783">
        <ele>20.81</ele>
        <time>2012-10-13T06:41:17Z</time>
      </trkpt>
      <trkpt lat="42.75747" lon="2.88905">
        <ele>19.84</ele>
        <time>2012-10-13T06:41:32Z</time>
      </trkpt>
      <trkpt lat="42.75697" lon="2.89011">
        <ele>19.84</ele>
        <time>2012-10-13T06:41:47Z</time>
      </trkpt>
      <trkpt lat="42.7565" lon="2.89118">
        <ele>19.84</ele>
        <time>2012-10-13T06:42:02Z</time>
      </trkpt>
      <trkpt lat="42.75618" lon="2.89237">
        <ele>19.36</ele>
        <time>2012-10-13T06:42:17Z</time>
      </trkpt>
      <trkpt lat="42.75573" lon="2.89345">
        <ele>19.36</ele>
        <time>2012-10-13T06:42:32Z</time>
      </trkpt>
      <trkpt lat="42.75501" lon="2.8942">
        <ele>18.4</ele>
        <time>2012-10-13T06:42:48Z</time>
      </trkpt>
      <trkpt lat="42.75416" lon="2.89472">
        <ele>18.4</ele>
        <time>2012-10-13T06:43:12Z</time>
      </trkpt>
      <trkpt lat="42.75366" lon="2.89575">
        <ele>18.4</ele>
        <time>2012-10-13T06:44:30Z</time>
      </trkpt>
      <trkpt lat="42.75337" lon="2.89698">
        <ele>17.92</ele>
        <time>2012-10-13T06:44:47Z</time>
      </trkpt>
      <trkpt lat="42.75344" lon="2.89819">
        <ele>17.92</ele>
        <time>2012-10-13T06:45:03Z</time>
      </trkpt>
      <trkpt lat="42.75329" lon="2.89938">
        <ele>17.44</ele>
        <time>2012-10-13T06:45:21Z</time>
      </trkpt>
      <trkpt lat="42.75287" lon="2.9005">
        <ele>16.96</ele>
        <time>2012-10-13T06:45:37Z</time>
      </trkpt>
      <trkpt lat="42.75243" lon="2.90162">
        <ele>16.96</ele>
        <time>2012-10-13T06:45:53Z</time>
      </trkpt>
      <trkpt lat="42.75195" lon="2.90269">
        <ele>16.96</ele>
        <time>2012-10-13T06:46:09Z</time>
      </trkpt>
      <trkpt lat="42.75139" lon="2.90366">
        <ele>17.44</ele>
        <time>2012-10-13T06:46:25Z</time>
      </trkpt>
      <trkpt lat="42.7509" lon="2.90478">
        <ele>17.92</ele>
        <time>2012-10-13T06:46:42Z</time>
      </trkpt>
      <trkpt lat="42.75053" lon="2.90589">
        <ele>18.4</ele>
        <time>2012-10-13T06:46:58Z</time>
      </trkpt>
      <trkpt lat="42.75023" lon="2.90706">
        <ele>18.88</ele>
        <time>2012-10-13T06:47:14Z</time>
      </trkpt>
      <trkpt lat="42.75" lon="2.90827">
        <ele>16.96</ele>
        <time>2012-10-13T06:47:29Z</time>
      </trkpt>
      <trkpt lat="42.74977" lon="2.90948">
        <ele>16.48</ele>
        <time>2012-10-13T06:47:44Z</time>
      </trkpt>
      <trkpt lat="42.74941" lon="2.91061">
        <ele>16.48</ele>
        <time>2012-10-13T06:47:59Z</time>
      </trkpt>
      <trkpt lat="42.74892" lon="2.91172">
        <ele>16.48</ele>
        <time>2012-10-13T06:48:15Z</time>
      </trkpt>
      <trkpt lat="42.74834" lon="2.91271">
        <ele>17.92</ele>
        <time>2012-10-13T06:48:33Z</time>
      </trkpt>
      <trkpt lat="42.74779" lon="2.91368">
        <ele>19.84</ele>
        <time>2012-10-13T06:48:53Z</time>
      </trkpt>
      <trkpt lat="42.74703" lon="2.91439">
        <ele>21.29</ele>
        <time>2012-10-13T06:49:13Z</time>
      </trkpt>
      <trkpt lat="42.74627" lon="2.91504">
        <ele>22.25</ele>
        <time>2012-10-13T06:49:33Z</time>
      </trkpt>
      <trkpt lat="42.74536" lon="2.9153">
        <ele>23.21</ele>
        <time>2012-10-13T06:49:52Z</time>
      </trkpt>
      <trkpt lat="42.74441" lon="2.91528">
        <ele>24.17</ele>
        <time>2012-10-13T06:50:11Z</time>
      </trkpt>
      <trkpt lat="42.74404" lon="2.9143">
        <ele>24.17</ele>
        <time>2012-10-13T06:50:34Z</time>
      </trkpt>
      <trkpt lat="42.74363" lon="2.9133">
        <ele>24.17</ele>
        <time>2012-10-13T06:50:52Z</time>
      </trkpt>
      <trkpt lat="42.74279" lon="2.91276">
        <ele>24.65</ele>
        <time>2012-10-13T06:51:09Z</time>
      </trkpt>
      <trkpt lat="42.74221" lon="2.9118">
        <ele>25.13</ele>
        <time>2012-10-13T06:51:26Z</time>
      </trkpt>
      <trkpt lat="42.74155" lon="2.91096">
        <ele>25.61</ele>
        <time>2012-10-13T06:51:43Z</time>
      </trkpt>
      <trkpt lat="42.74083" lon="2.91018">
        <ele>26.09</ele>
        <time>2012-10-13T06:52:00Z</time>
      </trkpt>
      <trkpt lat="42.74014" lon="2.90939">
        <ele>26.57</ele>
        <time>2012-10-13T06:52:18Z</time>
      </trkpt>
      <trkpt lat="42.73944" lon="2.90857">
        <ele>27.05</ele>
        <time>2012-10-13T06:52:37Z</time>
      </trkpt>
      <trkpt lat="42.73876" lon="2.90774">
        <ele>27.53</ele>
        <time>2012-10-13T06:52:54Z</time>
      </trkpt>
      <trkpt lat="42.73809" lon="2.90689">
        <ele>27.53</ele>
        <time>2012-10-13T06:53:11Z</time>
      </trkpt>
      <trkpt lat="42.73735" lon="2.90612">
        <ele>27.53</ele>
        <time>2012-10-13T06:53:28Z</time>
      </trkpt>
      <trkpt lat="42.7366" lon="2.90537">
        <ele>28.5</ele>
        <time>2012-10-13T06:53:45Z</time>
      </trkpt>
      <trkpt lat="42.73576" lon="2.90493">
        <ele>28.5</ele>
        <time>2012-10-13T06:54:02Z</time>
      </trkpt>
      <trkpt lat="42.73488" lon="2.90469">
        <ele>28.5</ele>
        <time>2012-10-13T06:54:19Z</time>
      </trkpt>
      <trkpt lat="42.73403" lon="2.90411">
        <ele>28.5</ele>
        <time>2012-10-13T06:54:36Z</time>
      </trkpt>
      <trkpt lat="42.73343" lon="2.90318">
        <ele>28.5</ele>
        <time>2012-10-13T06:54:54Z</time>
      </trkpt>
      <trkpt lat="42.73268" lon="2.90245">
        <ele>28.98</ele>
        <time>2012-10-13T06:55:11Z</time>
      </trkpt>
      <trkpt lat="42.7319" lon="2.90174">
        <ele>29.46</ele>
        <time>2012-10-13T06:55:28Z</time>
      </trkpt>
      <trkpt lat="42.73115" lon="2.90099">
        <ele>29.94</ele>
        <time>2012-10-13T06:55:45Z</time>
      </trkpt>
      <trkpt lat="42.73062" lon="2.89992">
        <ele>30.42</ele>
        <time>2012-10-13T06:56:02Z</time>
      </trkpt>
      <trkpt lat="42.73015" lon="2.89883">
        <ele>31.38</ele>
        <time>2012-10-13T06:56:19Z</time>
      </trkpt>
      <trkpt lat="42.72983" lon="2.89771">
        <ele>30.9</ele>
        <time>2012-10-13T06:56:38Z</time>
      </trkpt>
      <trkpt lat="42.72923" lon="2.89691">
        <ele>32.34</ele>
        <time>2012-10-13T06:56:56Z</time>
      </trkpt>
      <trkpt lat="42.72857" lon="2.89599">
        <ele>32.82</ele>
        <time>2012-10-13T06:57:14Z</time>
      </trkpt>
      <trkpt lat="42.72794" lon="2.89502">
        <ele>32.82</ele>
        <time>2012-10-13T06:57:32Z</time>
      </trkpt>
      <trkpt lat="42.72733" lon="2.8941">
        <ele>32.82</ele>
        <time>2012-10-13T06:57:49Z</time>
      </trkpt>
      <trkpt lat="42.72663" lon="2.89331">
        <ele>33.78</ele>
        <time>2012-10-13T06:58:07Z</time>
      </trkpt>
      <trkpt lat="42.72593" lon="2.89256">
        <ele>33.78</ele>
        <time>2012-10-13T06:58:27Z</time>
      </trkpt>
      <trkpt lat="42.72519" lon="2.89179">
        <ele>34.26</ele>
        <time>2012-10-13T06:58:46Z</time>
      </trkpt>
      <trkpt lat="42.72447" lon="2.891">
        <ele>33.78</ele>
        <time>2012-10-13T06:59:05Z</time>
      </trkpt>
      <trkpt lat="42.72359" lon="2.89092">
        <ele>33.78</ele>
        <time>2012-10-13T06:59:25Z</time>
      </trkpt>
      <trkpt lat="42.72266" lon="2.89067">
        <ele>33.3</ele>
        <time>2012-10-13T06:59:46Z</time>
      </trkpt>
      <trkpt lat="42.72174" lon="2.89043">
        <ele>32.82</ele>
        <time>2012-10-13T07:00:04Z</time>
      </trkpt>
      <trkpt lat="42.72081" lon="2.89017">
        <ele>32.34</ele>
        <time>2012-10-13T07:00:22Z</time>
      </trkpt>
      <trkpt lat="42.7199" lon="2.88993">
        <ele>31.38</ele>
        <time>2012-10-13T07:00:39Z</time>
      </trkpt>
      <trkpt lat="42.71896" lon="2.88967">
        <ele>29.46</ele>
        <time>2012-10-13T07:00:58Z</time>
      </trkpt>
      <trkpt lat="42.71803" lon="2.88945">
        <ele>30.9</ele>
        <time>2012-10-13T07:01:16Z</time>
      </trkpt>
      <trkpt lat="42.71711" lon="2.88921">
        <ele>29.94</ele>
        <time>2012-10-13T07:01:34Z</time>
      </trkpt>
      <trkpt lat="42.71633" lon="2.88857">
        <ele>31.38</ele>
        <time>2012-10-13T07:01:52Z</time>
      </trkpt>
      <trkpt lat="42.71586" lon="2.88772">
        <ele>30.9</ele>
        <time>2012-10-13T07:02:30Z</time>
      </trkpt>
      <trkpt lat="42.71512" lon="2.88841">
        <ele>30.42</ele>
        <time>2012-10-13T07:02:50Z</time>
      </trkpt>
      <trkpt lat="42.71419" lon="2.88875">
        <ele>30.42</ele>
        <time>2012-10-13T07:03:08Z</time>
      </trkpt>
      <trkpt lat="42.71331" lon="2.88908">
        <ele>30.42</ele>
        <time>2012-10-13T07:03:25Z</time>
      </trkpt>
      <trkpt lat="42.7124" lon="2.88946">
        <ele>29.94</ele>
        <time>2012-10-13T07:03:42Z</time>
      </trkpt>
      <trkpt lat="42.71147" lon="2.88987">
        <ele>29.94</ele>
        <time>2012-10-13T07:04:36Z</time>
      </trkpt>
      <trkpt lat="42.71055" lon="2.8902">
        <ele>29.94</ele>
        <time>2012-10-13T07:04:56Z</time>
      </trkpt>
      <trkpt lat="42.70967" lon="2.89055">
        <ele>30.9</ele>
        <time>2012-10-13T07:05:14Z</time>
      </trkpt>
      <trkpt lat="42.70874" lon="2.89094">
        <ele>31.38</ele>
        <time>2012-10-13T07:05:32Z</time>
      </trkpt>
      <trkpt lat="42.70781" lon="2.89128">
        <ele>31.38</ele>
        <time>2012-10-13T07:05:50Z</time>
      </trkpt>
      <trkpt lat="42.70692" lon="2.89162">
        <ele>31.86</ele>
        <time>2012-10-13T07:06:08Z</time>
      </trkpt>
      <trkpt lat="42.70601" lon="2.89196">
        <ele>32.82</ele>
        <time>2012-10-13T07:06:59Z</time>
      </trkpt>
      <trkpt lat="42.7049" lon="2.8924">
        <ele>33.78</ele>
        <time>2012-10-13T07:07:22Z</time>
      </trkpt>
      <trkpt lat="42.70396" lon="2.89282">
        <ele>34.74</ele>
        <time>2012-10-13T07:07:53Z</time>
      </trkpt>
      <trkpt lat="42.70307" lon="2.89318">
        <ele>34.74</ele>
        <time>2012-10-13T07:08:15Z</time>
      </trkpt>
      <trkpt lat="42.70217" lon="2.89334">
        <ele>32.82</ele>
        <time>2012-10-13T07:08:33Z</time>
      </trkpt>
      <trkpt lat="42.7012" lon="2.89312">
        <ele>33.3</ele>
        <time>2012-10-13T07:10:04Z</time>
      </trkpt>
      <trkpt lat="42.70088" lon="2.89188">
        <ele>34.26</ele>
        <time>2012-10-13T07:10:30Z</time>
      </trkpt>
      <trkpt lat="42.70058" lon="2.8906">
        <ele>34.74</ele>
        <time>2012-10-13T07:10:53Z</time>
      </trkpt>
      <trkpt lat="42.70012" lon="2.88937">
        <ele>35.23</ele>
        <time>2012-10-13T07:11:17Z</time>
      </trkpt>
      <trkpt lat="42.6993" lon="2.88862">
        <ele>35.23</ele>
        <time>2012-10-13T07:11:38Z</time>
      </trkpt>
      <trkpt lat="42.69868" lon="2.8876">
        <ele>35.71</ele>
        <time>2012-10-13T07:12:10Z</time>
      </trkpt>
      <trkpt lat="42.69784" lon="2.88753">
        <ele>36.19</ele>
        <time>2012-10-13T07:13:23Z</time>
      </trkpt>
      <trkpt lat="42.69695" lon="2.88799">
        <ele>36.67</ele>
        <time>2012-10-13T07:14:50Z</time>
      </trkpt>
      <trkpt lat="42.69606" lon="2.8884">
        <ele>37.15</ele>
        <time>2012-10-13T07:15:14Z</time>
      </trkpt>
      <trkpt lat="42.69513" lon="2.8889">
        <ele>37.15</ele>
        <time>2012-10-13T07:15:35Z</time>
      </trkpt>
      <trkpt lat="42.69432" lon="2.88959">
        <ele>38.11</ele>
        <time>2012-10-13T07:15:58Z</time>
      </trkpt>
      <trkpt lat="42.69365" lon="2.89015">
        <ele>40.03</ele>
        <time>2012-10-13T07:17:19Z</time>
      </trkpt>
      <trkpt lat="42.69357" lon="2.889">
        <ele>38.11</ele>
        <time>2012-10-13T07:18:12Z</time>
      </trkpt>
      <trkpt lat="42.69363" lon="2.88787">
        <ele>36.19</ele>
        <time>2012-10-13T07:18:41Z</time>
      </trkpt>
      <trkpt lat="42.69361" lon="2.88717">
        <ele>34.26</ele>
        <time>2012-10-13T07:19:15Z</time>
      </trkpt>
      <trkpt lat="42.69303" lon="2.88617">
        <ele>36.67</ele>
        <time>2012-10-13T07:19:35Z</time>
      </trkpt>
      <trkpt lat="42.69353" lon="2.88537">
        <ele>36.19</ele>
        <time>2012-10-13T07:19:58Z</time>
      </trkpt>
      <trkpt lat="42.69443" lon="2.88486">
        <ele>35.71</ele>
        <time>2012-10-13T07:20:16Z</time>
      </trkpt>
      <trkpt lat="42.69528" lon="2.88423">
        <ele>34.74</ele>
        <time>2012-10-13T07:20:36Z</time>
      </trkpt>
      <trkpt lat="42.69628" lon="2.88366">
        <ele>34.74</ele>
        <time>2012-10-13T07:20:57Z</time>
      </trkpt>
      <trkpt lat="42.69659" lon="2.88244">
        <ele>35.71</ele>
        <time>2012-10-13T07:21:22Z</time>
      </trkpt>
      <trkpt lat="42.69664" lon="2.88119">
        <ele>38.11</ele>
        <time>2012-10-13T07:21:58Z</time>
      </trkpt>
      <trkpt lat="42.69639" lon="2.87997">
        <ele>40.51</ele>
        <time>2012-10-13T07:22:27Z</time>
      </trkpt>
      <trkpt lat="42.69658" lon="2.88081">
        <ele>39.07</ele>
        <time>2012-10-13T07:24:02Z</time>
      </trkpt>
      <trkpt lat="42.69688" lon="2.88207">
        <ele>37.15</ele>
        <time>2012-10-13T07:24:28Z</time>
      </trkpt>
      <trkpt lat="42.69722" lon="2.88328">
        <ele>37.15</ele>
        <time>2012-10-13T07:24:49Z</time>
      </trkpt>
      <trkpt lat="42.69751" lon="2.8845">
        <ele>37.15</ele>
        <time>2012-10-13T07:25:09Z</time>
      </trkpt>
      <trkpt lat="42.69784" lon="2.8857">
        <ele>37.15</ele>
        <time>2012-10-13T07:25:28Z</time>
      </trkpt>
      <trkpt lat="42.69817" lon="2.88692">
        <ele>36.19</ele>
        <time>2012-10-13T07:25:48Z</time>
      </trkpt>
      <trkpt lat="42.6981" lon="2.888">
        <ele>35.23</ele>
        <time>2012-10-13T07:26:32Z</time>
      </trkpt>
      <trkpt lat="42.69823" lon="2.88927">
        <ele>33.78</ele>
        <time>2012-10-13T07:26:58Z</time>
      </trkpt>
      <trkpt lat="42.6988" lon="2.89052">
        <ele>33.3</ele>
        <time>2012-10-13T07:27:23Z</time>
      </trkpt>
      <trkpt lat="42.69844" lon="2.89153">
        <ele>34.26</ele>
        <time>2012-10-13T07:27:48Z</time>
      </trkpt>
      <trkpt lat="42.69875" lon="2.89231">
        <ele>33.3</ele>
        <time>2012-10-13T07:28:21Z</time>
      </trkpt>
      <trkpt lat="42.69897" lon="2.89352">
        <ele>34.26</ele>
        <time>2012-10-13T07:29:06Z</time>
      </trkpt>
      <trkpt lat="42.69972" lon="2.89492">
        <ele>33.78</ele>
        <time>2012-10-13T07:30:58Z</time>
      </trkpt>
      <trkpt lat="42.70056" lon="2.89427">
        <ele>32.34</ele>
        <time>2012-10-13T07:31:49Z</time>
      </trkpt>
      <trkpt lat="42.70093" lon="2.89424">
        <ele>33.3</ele>
        <time>2012-10-13T07:33:33Z</time>
      </trkpt>
      <trkpt lat="42.70001" lon="2.89481">
        <ele>32.82</ele>
        <time>2012-10-13T07:34:20Z</time>
      </trkpt>
      <trkpt lat="42.69928" lon="2.89555">
        <ele>35.23</ele>
        <time>2012-10-13T07:35:10Z</time>
      </trkpt>
      <trkpt lat="42.6985" lon="2.89534">
        <ele>36.67</ele>
        <time>2012-10-13T07:39:13Z</time>
      </trkpt>
      <trkpt lat="42.6988" lon="2.89527">
        <ele>43.88</ele>
        <time>2012-10-13T07:53:56Z</time>
      </trkpt>
      <trkpt lat="42.69822" lon="2.89495">
        <ele>46.76</ele>
        <time>2012-10-13T08:00:30Z</time>
      </trkpt>
      <trkpt lat="42.69822" lon="2.89333">
        <ele>46.28</ele>
        <time>2012-10-13T08:07:01Z</time>
      </trkpt>
      <trkpt lat="42.69879" lon="2.89236">
        <ele>47.24</ele>
        <time>2012-10-13T08:25:20Z</time>
      </trkpt>
      <trkpt lat="42.69839" lon="2.89167">
        <ele>48.2</ele>
        <time>2012-10-13T08:26:12Z</time>
      </trkpt>
      <trkpt lat="42.69886" lon="2.89087">
        <ele>46.28</ele>
        <time>2012-10-13T08:26:58Z</time>
      </trkpt>
      <trkpt lat="42.69848" lon="2.88974">
        <ele>46.76</ele>
        <time>2012-10-13T08:27:54Z</time>
      </trkpt>
      <trkpt lat="42.69816" lon="2.88805">
        <ele>48.2</ele>
        <time>2012-10-13T08:30:17Z</time>
      </trkpt>
      <trkpt lat="42.69831" lon="2.88726">
        <ele>49.16</ele>
        <time>2012-10-13T08:30:58Z</time>
      </trkpt>
      <trkpt lat="42.69793" lon="2.88613">
        <ele>49.16</ele>
        <time>2012-10-13T08:31:22Z</time>
      </trkpt>
      <trkpt lat="42.69768" lon="2.88475">
        <ele>49.65</ele>
        <time>2012-10-13T08:31:45Z</time>
      </trkpt>
      <trkpt lat="42.69734" lon="2.8834">
        <ele>49.16</ele>
        <time>2012-10-13T08:32:06Z</time>
      </trkpt>
      <trkpt lat="42.69711" lon="2.88209">
        <ele>49.65</ele>
        <time>2012-10-13T08:32:26Z</time>
      </trkpt>
      <trkpt lat="42.69672" lon="2.88081">
        <ele>51.09</ele>
        <time>2012-10-13T08:32:47Z</time>
      </trkpt>
      <trkpt lat="42.69626" lon="2.87998">
        <ele>50.61</ele>
        <time>2012-10-13T08:33:39Z</time>
      </trkpt>
      <trkpt lat="42.69627" lon="2.87993">
        <ele>36.19</ele>
        <time>2012-10-13T09:39:58Z</time>
      </trkpt>
      <trkpt lat="42.6984" lon="2.88787">
        <ele>83.77</ele>
        <time>2012-10-13T09:53:00Z</time>
      </trkpt>
      <trkpt lat="42.69754" lon="2.88818">
        <ele>84.25</ele>
        <time>2012-10-13T09:53:24Z</time>
      </trkpt>
      <trkpt lat="42.6967" lon="2.8882">
        <ele>85.21</ele>
        <time>2012-10-13T09:54:00Z</time>
      </trkpt>
      <trkpt lat="42.69581" lon="2.88857">
        <ele>85.69</ele>
        <time>2012-10-13T09:54:20Z</time>
      </trkpt>
      <trkpt lat="42.69488" lon="2.88902">
        <ele>85.21</ele>
        <time>2012-10-13T09:54:49Z</time>
      </trkpt>
      <trkpt lat="42.6941" lon="2.88989">
        <ele>86.66</ele>
        <time>2012-10-13T09:55:10Z</time>
      </trkpt>
      <trkpt lat="42.69342" lon="2.89078">
        <ele>89.54</ele>
        <time>2012-10-13T09:55:33Z</time>
      </trkpt>
      <trkpt lat="42.69276" lon="2.89167">
        <ele>90.98</ele>
        <time>2012-10-13T09:55:56Z</time>
      </trkpt>
      <trkpt lat="42.69211" lon="2.89256">
        <ele>91.46</ele>
        <time>2012-10-13T09:56:19Z</time>
      </trkpt>
      <trkpt lat="42.6914" lon="2.89333">
        <ele>90.5</ele>
        <time>2012-10-13T09:56:42Z</time>
      </trkpt>
      <trkpt lat="42.69051" lon="2.89381">
        <ele>90.02</ele>
        <time>2012-10-13T09:57:00Z</time>
      </trkpt>
      <trkpt lat="42.68962" lon="2.89427">
        <ele>87.62</ele>
        <time>2012-10-13T09:57:15Z</time>
      </trkpt>
      <trkpt lat="42.68877" lon="2.89463">
        <ele>89.54</ele>
        <time>2012-10-13T09:57:33Z</time>
      </trkpt>
      <trkpt lat="42.68846" lon="2.89542">
        <ele>88.1</ele>
        <time>2012-10-13T09:58:28Z</time>
      </trkpt>
      <trkpt lat="42.68824" lon="2.89666">
        <ele>89.06</ele>
        <time>2012-10-13T09:58:48Z</time>
      </trkpt>
      <trkpt lat="42.68796" lon="2.89787">
        <ele>91.46</ele>
        <time>2012-10-13T09:59:11Z</time>
      </trkpt>
      <trkpt lat="42.68772" lon="2.89913">
        <ele>94.35</ele>
        <time>2012-10-13T09:59:34Z</time>
      </trkpt>
      <trkpt lat="42.6875" lon="2.90035">
        <ele>95.79</ele>
        <time>2012-10-13T09:59:56Z</time>
      </trkpt>
      <trkpt lat="42.68724" lon="2.90153">
        <ele>95.31</ele>
        <time>2012-10-13T10:00:18Z</time>
      </trkpt>
      <trkpt lat="42.68699" lon="2.90278">
        <ele>90.98</ele>
        <time>2012-10-13T10:01:25Z</time>
      </trkpt>
      <trkpt lat="42.68672" lon="2.90402">
        <ele>90.02</ele>
        <time>2012-10-13T10:01:39Z</time>
      </trkpt>
      <trkpt lat="42.68646" lon="2.90531">
        <ele>89.06</ele>
        <time>2012-10-13T10:01:53Z</time>
      </trkpt>
      <trkpt lat="42.68625" lon="2.90654">
        <ele>88.1</ele>
        <time>2012-10-13T10:02:09Z</time>
      </trkpt>
      <trkpt lat="42.68589" lon="2.90764">
        <ele>87.62</ele>
        <time>2012-10-13T10:02:28Z</time>
      </trkpt>
      <trkpt lat="42.68515" lon="2.90837">
        <ele>87.62</ele>
        <time>2012-10-13T10:02:44Z</time>
      </trkpt>
      <trkpt lat="42.68429" lon="2.90885">
        <ele>85.21</ele>
        <time>2012-10-13T10:02:58Z</time>
      </trkpt>
      <trkpt lat="42.68341" lon="2.90933">
        <ele>83.77</ele>
        <time>2012-10-13T10:03:24Z</time>
      </trkpt>
      <trkpt lat="42.68257" lon="2.9098">
        <ele>82.81</ele>
        <time>2012-10-13T10:03:38Z</time>
      </trkpt>
      <trkpt lat="42.68171" lon="2.91028">
        <ele>81.37</ele>
        <time>2012-10-13T10:03:52Z</time>
      </trkpt>
      <trkpt lat="42.68086" lon="2.91061">
        <ele>80.89</ele>
        <time>2012-10-13T10:04:07Z</time>
      </trkpt>
      <trkpt lat="42.68002" lon="2.91123">
        <ele>80.41</ele>
        <time>2012-10-13T10:04:22Z</time>
      </trkpt>
      <trkpt lat="42.67917" lon="2.9117">
        <ele>80.41</ele>
        <time>2012-10-13T10:04:36Z</time>
      </trkpt>
      <trkpt lat="42.6784" lon="2.9123">
        <ele>80.89</ele>
        <time>2012-10-13T10:04:52Z</time>
      </trkpt>
      <trkpt lat="42.67762" lon="2.91284">
        <ele>82.81</ele>
        <time>2012-10-13T10:05:10Z</time>
      </trkpt>
      <trkpt lat="42.67676" lon="2.91313">
        <ele>84.25</ele>
        <time>2012-10-13T10:05:26Z</time>
      </trkpt>
      <trkpt lat="42.67585" lon="2.91352">
        <ele>84.25</ele>
        <time>2012-10-13T10:05:42Z</time>
      </trkpt>
      <trkpt lat="42.675" lon="2.91399">
        <ele>83.77</ele>
        <time>2012-10-13T10:05:56Z</time>
      </trkpt>
      <trkpt lat="42.67415" lon="2.91445">
        <ele>81.37</ele>
        <time>2012-10-13T10:06:09Z</time>
      </trkpt>
      <trkpt lat="42.67329" lon="2.91493">
        <ele>81.37</ele>
        <time>2012-10-13T10:06:22Z</time>
      </trkpt>
      <trkpt lat="42.67238" lon="2.91543">
        <ele>80.41</ele>
        <time>2012-10-13T10:06:35Z</time>
      </trkpt>
      <trkpt lat="42.67154" lon="2.91589">
        <ele>79.93</ele>
        <time>2012-10-13T10:06:47Z</time>
      </trkpt>
      <trkpt lat="42.67062" lon="2.9162">
        <ele>76.08</ele>
        <time>2012-10-13T10:06:59Z</time>
      </trkpt>
      <trkpt lat="42.66986" lon="2.91655">
        <ele>74.64</ele>
        <time>2012-10-13T10:07:11Z</time>
      </trkpt>
      <trkpt lat="42.66909" lon="2.91725">
        <ele>72.72</ele>
        <time>2012-10-13T10:07:22Z</time>
      </trkpt>
      <trkpt lat="42.66819" lon="2.91773">
        <ele>72.24</ele>
        <time>2012-10-13T10:07:34Z</time>
      </trkpt>
      <trkpt lat="42.66737" lon="2.91818">
        <ele>70.79</ele>
        <time>2012-10-13T10:07:46Z</time>
      </trkpt>
      <trkpt lat="42.66649" lon="2.91862">
        <ele>69.35</ele>
        <time>2012-10-13T10:07:59Z</time>
      </trkpt>
      <trkpt lat="42.66562" lon="2.91871">
        <ele>68.87</ele>
        <time>2012-10-13T10:08:15Z</time>
      </trkpt>
      <trkpt lat="42.66574" lon="2.91963">
        <ele>67.91</ele>
        <time>2012-10-13T10:08:34Z</time>
      </trkpt>
      <trkpt lat="42.66586" lon="2.91869">
        <ele>67.91</ele>
        <time>2012-10-13T10:08:53Z</time>
      </trkpt>
      <trkpt lat="42.66513" lon="2.91845">
        <ele>67.91</ele>
        <time>2012-10-13T10:09:09Z</time>
      </trkpt>
      <trkpt lat="42.66449" lon="2.9178">
        <ele>68.87</ele>
        <time>2012-10-13T10:09:25Z</time>
      </trkpt>
      <trkpt lat="42.66402" lon="2.91881">
        <ele>66.95</ele>
        <time>2012-10-13T10:09:40Z</time>
      </trkpt>
      <trkpt lat="42.66368" lon="2.91998">
        <ele>66.95</ele>
        <time>2012-10-13T10:09:55Z</time>
      </trkpt>
      <trkpt lat="42.66303" lon="2.92081">
        <ele>65.99</ele>
        <time>2012-10-13T10:10:15Z</time>
      </trkpt>
      <trkpt lat="42.66275" lon="2.92099">
        <ele>63.58</ele>
        <time>2012-10-13T10:12:23Z</time>
      </trkpt>
      <trkpt lat="42.66192" lon="2.92157">
        <ele>64.55</ele>
        <time>2012-10-13T10:12:40Z</time>
      </trkpt>
      <trkpt lat="42.6611" lon="2.92219">
        <ele>63.1</ele>
        <time>2012-10-13T10:12:54Z</time>
      </trkpt>
      <trkpt lat="42.6603" lon="2.92279">
        <ele>62.62</ele>
        <time>2012-10-13T10:13:07Z</time>
      </trkpt>
      <trkpt lat="42.65947" lon="2.92343">
        <ele>61.66</ele>
        <time>2012-10-13T10:13:20Z</time>
      </trkpt>
      <trkpt lat="42.65867" lon="2.92404">
        <ele>62.62</ele>
        <time>2012-10-13T10:13:32Z</time>
      </trkpt>
      <trkpt lat="42.65783" lon="2.92467">
        <ele>61.18</ele>
        <time>2012-10-13T10:13:44Z</time>
      </trkpt>
      <trkpt lat="42.65702" lon="2.92521">
        <ele>60.7</ele>
        <time>2012-10-13T10:13:55Z</time>
      </trkpt>
      <trkpt lat="42.65613" lon="2.92569">
        <ele>61.18</ele>
        <time>2012-10-13T10:14:07Z</time>
      </trkpt>
      <trkpt lat="42.6552" lon="2.92608">
        <ele>60.7</ele>
        <time>2012-10-13T10:14:20Z</time>
      </trkpt>
      <trkpt lat="42.6543" lon="2.92637">
        <ele>61.66</ele>
        <time>2012-10-13T10:14:33Z</time>
      </trkpt>
      <trkpt lat="42.65342" lon="2.92664">
        <ele>62.14</ele>
        <time>2012-10-13T10:14:46Z</time>
      </trkpt>
      <trkpt lat="42.65253" lon="2.92689">
        <ele>60.22</ele>
        <time>2012-10-13T10:14:59Z</time>
      </trkpt>
      <trkpt lat="42.65161" lon="2.92715">
        <ele>58.3</ele>
        <time>2012-10-13T10:15:12Z</time>
      </trkpt>
      <trkpt lat="42.65067" lon="2.92742">
        <ele>59.26</ele>
        <time>2012-10-13T10:15:25Z</time>
      </trkpt>
      <trkpt lat="42.64976" lon="2.9277">
        <ele>58.78</ele>
        <time>2012-10-13T10:15:37Z</time>
      </trkpt>
      <trkpt lat="42.64887" lon="2.92794">
        <ele>57.82</ele>
        <time>2012-10-13T10:15:49Z</time>
      </trkpt>
      <trkpt lat="42.64801" lon="2.9283">
        <ele>57.82</ele>
        <time>2012-10-13T10:16:01Z</time>
      </trkpt>
      <trkpt lat="42.64722" lon="2.92891">
        <ele>55.41</ele>
        <time>2012-10-13T10:16:12Z</time>
      </trkpt>
      <trkpt lat="42.64639" lon="2.92963">
        <ele>52.53</ele>
        <time>2012-10-13T10:16:23Z</time>
      </trkpt>
      <trkpt lat="42.64564" lon="2.9303">
        <ele>52.05</ele>
        <time>2012-10-13T10:16:33Z</time>
      </trkpt>
      <trkpt lat="42.64487" lon="2.93096">
        <ele>51.09</ele>
        <time>2012-10-13T10:16:43Z</time>
      </trkpt>
      <trkpt lat="42.64404" lon="2.93167">
        <ele>50.61</ele>
        <time>2012-10-13T10:16:54Z</time>
      </trkpt>
      <trkpt lat="42.64325" lon="2.93237">
        <ele>50.13</ele>
        <time>2012-10-13T10:17:05Z</time>
      </trkpt>
      <trkpt lat="42.64245" lon="2.93308">
        <ele>49.16</ele>
        <time>2012-10-13T10:17:16Z</time>
      </trkpt>
      <trkpt lat="42.64169" lon="2.93375">
        <ele>50.61</ele>
        <time>2012-10-13T10:17:26Z</time>
      </trkpt>
      <trkpt lat="42.64088" lon="2.93445">
        <ele>50.13</ele>
        <time>2012-10-13T10:17:37Z</time>
      </trkpt>
      <trkpt lat="42.64008" lon="2.93516">
        <ele>47.72</ele>
        <time>2012-10-13T10:17:49Z</time>
      </trkpt>
      <trkpt lat="42.63932" lon="2.93582">
        <ele>47.72</ele>
        <time>2012-10-13T10:18:01Z</time>
      </trkpt>
      <trkpt lat="42.63854" lon="2.93649">
        <ele>46.28</ele>
        <time>2012-10-13T10:18:13Z</time>
      </trkpt>
      <trkpt lat="42.63771" lon="2.93709">
        <ele>46.28</ele>
        <time>2012-10-13T10:18:26Z</time>
      </trkpt>
      <trkpt lat="42.6369" lon="2.93771">
        <ele>44.84</ele>
        <time>2012-10-13T10:18:40Z</time>
      </trkpt>
      <trkpt lat="42.63606" lon="2.93834">
        <ele>46.28</ele>
        <time>2012-10-13T10:18:54Z</time>
      </trkpt>
      <trkpt lat="42.63551" lon="2.93909">
        <ele>49.65</ele>
        <time>2012-10-13T10:19:13Z</time>
      </trkpt>
      <trkpt lat="42.63534" lon="2.93995">
        <ele>47.72</ele>
        <time>2012-10-13T10:19:30Z</time>
      </trkpt>
      <trkpt lat="42.63445" lon="2.94048">
        <ele>43.88</ele>
        <time>2012-10-13T10:19:43Z</time>
      </trkpt>
      <trkpt lat="42.63368" lon="2.94118">
        <ele>43.88</ele>
        <time>2012-10-13T10:19:56Z</time>
      </trkpt>
      <trkpt lat="42.63315" lon="2.94197">
        <ele>43.4</ele>
        <time>2012-10-13T10:20:10Z</time>
      </trkpt>
      <trkpt lat="42.63226" lon="2.9423">
        <ele>42.44</ele>
        <time>2012-10-13T10:20:25Z</time>
      </trkpt>
      <trkpt lat="42.63146" lon="2.94291">
        <ele>44.84</ele>
        <time>2012-10-13T10:20:40Z</time>
      </trkpt>
      <trkpt lat="42.6307" lon="2.94357">
        <ele>39.55</ele>
        <time>2012-10-13T10:20:55Z</time>
      </trkpt>
      <trkpt lat="42.62988" lon="2.94427">
        <ele>40.51</ele>
        <time>2012-10-13T10:21:11Z</time>
      </trkpt>
      <trkpt lat="42.62907" lon="2.94498">
        <ele>40.99</ele>
        <time>2012-10-13T10:21:26Z</time>
      </trkpt>
      <trkpt lat="42.62825" lon="2.94571">
        <ele>40.51</ele>
        <time>2012-10-13T10:21:41Z</time>
      </trkpt>
      <trkpt lat="42.62752" lon="2.94652">
        <ele>40.03</ele>
        <time>2012-10-13T10:21:57Z</time>
      </trkpt>
      <trkpt lat="42.6267" lon="2.94707">
        <ele>41.47</ele>
        <time>2012-10-13T10:22:13Z</time>
      </trkpt>
      <trkpt lat="42.62592" lon="2.94775">
        <ele>41.47</ele>
        <time>2012-10-13T10:22:30Z</time>
      </trkpt>
      <trkpt lat="42.62513" lon="2.94844">
        <ele>39.55</ele>
        <time>2012-10-13T10:22:47Z</time>
      </trkpt>
      <trkpt lat="42.62433" lon="2.94916">
        <ele>40.51</ele>
        <time>2012-10-13T10:23:03Z</time>
      </trkpt>
      <trkpt lat="42.62355" lon="2.94987">
        <ele>39.07</ele>
        <time>2012-10-13T10:23:18Z</time>
      </trkpt>
      <trkpt lat="42.62298" lon="2.95077">
        <ele>39.07</ele>
        <time>2012-10-13T10:23:34Z</time>
      </trkpt>
      <trkpt lat="42.62211" lon="2.95115">
        <ele>39.07</ele>
        <time>2012-10-13T10:23:49Z</time>
      </trkpt>
      <trkpt lat="42.62135" lon="2.95185">
        <ele>38.59</ele>
        <time>2012-10-13T10:24:04Z</time>
      </trkpt>
      <trkpt lat="42.62054" lon="2.95256">
        <ele>38.59</ele>
        <time>2012-10-13T10:24:20Z</time>
      </trkpt>
      <trkpt lat="42.61977" lon="2.95326">
        <ele>39.55</ele>
        <time>2012-10-13T10:24:35Z</time>
      </trkpt>
      <trkpt lat="42.619" lon="2.95393">
        <ele>39.07</ele>
        <time>2012-10-13T10:24:50Z</time>
      </trkpt>
      <trkpt lat="42.61821" lon="2.95467">
        <ele>39.07</ele>
        <time>2012-10-13T10:25:05Z</time>
      </trkpt>
      <trkpt lat="42.61753" lon="2.95558">
        <ele>38.59</ele>
        <time>2012-10-13T10:25:21Z</time>
      </trkpt>
      <trkpt lat="42.61718" lon="2.95672">
        <ele>40.99</ele>
        <time>2012-10-13T10:25:38Z</time>
      </trkpt>
      <trkpt lat="42.617" lon="2.9579">
        <ele>42.92</ele>
        <time>2012-10-13T10:25:56Z</time>
      </trkpt>
      <trkpt lat="42.61617" lon="2.95742">
        <ele>46.28</ele>
        <time>2012-10-13T10:26:16Z</time>
      </trkpt>
      <trkpt lat="42.61551" lon="2.95734">
        <ele>46.28</ele>
        <time>2012-10-13T10:26:36Z</time>
      </trkpt>
      <trkpt lat="42.61465" lon="2.95787">
        <ele>46.28</ele>
        <time>2012-10-13T10:26:53Z</time>
      </trkpt>
      <trkpt lat="42.61388" lon="2.95855">
        <ele>40.99</ele>
        <time>2012-10-13T10:27:04Z</time>
      </trkpt>
      <trkpt lat="42.6131" lon="2.95925">
        <ele>40.03</ele>
        <time>2012-10-13T10:27:17Z</time>
      </trkpt>
      <trkpt lat="42.61227" lon="2.96002">
        <ele>39.07</ele>
        <time>2012-10-13T10:27:32Z</time>
      </trkpt>
      <trkpt lat="42.61145" lon="2.96075">
        <ele>39.55</ele>
        <time>2012-10-13T10:27:46Z</time>
      </trkpt>
      <trkpt lat="42.61065" lon="2.96148">
        <ele>39.07</ele>
        <time>2012-10-13T10:28:00Z</time>
      </trkpt>
      <trkpt lat="42.60987" lon="2.96216">
        <ele>38.59</ele>
        <time>2012-10-13T10:28:14Z</time>
      </trkpt>
      <trkpt lat="42.60909" lon="2.96286">
        <ele>38.11</ele>
        <time>2012-10-13T10:28:28Z</time>
      </trkpt>
      <trkpt lat="42.6083" lon="2.96356">
        <ele>39.07</ele>
        <time>2012-10-13T10:28:42Z</time>
      </trkpt>
      <trkpt lat="42.60751" lon="2.96427">
        <ele>38.59</ele>
        <time>2012-10-13T10:28:56Z</time>
      </trkpt>
      <trkpt lat="42.60669" lon="2.96497">
        <ele>37.63</ele>
        <time>2012-10-13T10:29:11Z</time>
      </trkpt>
      <trkpt lat="42.60593" lon="2.96576">
        <ele>38.59</ele>
        <time>2012-10-13T10:29:26Z</time>
      </trkpt>
      <trkpt lat="42.60532" lon="2.96649">
        <ele>38.59</ele>
        <time>2012-10-13T10:29:44Z</time>
      </trkpt>
      <trkpt lat="42.60535" lon="2.96753">
        <ele>37.63</ele>
        <time>2012-10-13T10:30:00Z</time>
      </trkpt>
      <trkpt lat="42.60491" lon="2.96867">
        <ele>37.63</ele>
        <time>2012-10-13T10:30:15Z</time>
      </trkpt>
      <trkpt lat="42.6045" lon="2.96984">
        <ele>37.63</ele>
        <time>2012-10-13T10:30:30Z</time>
      </trkpt>
      <trkpt lat="42.60411" lon="2.971">
        <ele>37.15</ele>
        <time>2012-10-13T10:30:45Z</time>
      </trkpt>
      <trkpt lat="42.60372" lon="2.97211">
        <ele>37.15</ele>
        <time>2012-10-13T10:31:01Z</time>
      </trkpt>
      <trkpt lat="42.60329" lon="2.97325">
        <ele>37.15</ele>
        <time>2012-10-13T10:31:17Z</time>
      </trkpt>
      <trkpt lat="42.60293" lon="2.97441">
        <ele>38.59</ele>
        <time>2012-10-13T10:31:33Z</time>
      </trkpt>
      <trkpt lat="42.60246" lon="2.97553">
        <ele>41.47</ele>
        <time>2012-10-13T10:31:51Z</time>
      </trkpt>
      <trkpt lat="42.60186" lon="2.9765">
        <ele>43.4</ele>
        <time>2012-10-13T10:32:08Z</time>
      </trkpt>
      <trkpt lat="42.60111" lon="2.97727">
        <ele>42.44</ele>
        <time>2012-10-13T10:32:25Z</time>
      </trkpt>
      <trkpt lat="42.60025" lon="2.97783">
        <ele>40.99</ele>
        <time>2012-10-13T10:32:40Z</time>
      </trkpt>
      <trkpt lat="42.59936" lon="2.97813">
        <ele>39.07</ele>
        <time>2012-10-13T10:32:53Z</time>
      </trkpt>
      <trkpt lat="42.59841" lon="2.97819">
        <ele>36.19</ele>
        <time>2012-10-13T10:33:08Z</time>
      </trkpt>
      <trkpt lat="42.5975" lon="2.97816">
        <ele>38.11</ele>
        <time>2012-10-13T10:34:37Z</time>
      </trkpt>
      <trkpt lat="42.59658" lon="2.97811">
        <ele>38.59</ele>
        <time>2012-10-13T10:34:53Z</time>
      </trkpt>
      <trkpt lat="42.59565" lon="2.97807">
        <ele>37.63</ele>
        <time>2012-10-13T10:35:08Z</time>
      </trkpt>
      <trkpt lat="42.59472" lon="2.97804">
        <ele>38.11</ele>
        <time>2012-10-13T10:35:23Z</time>
      </trkpt>
      <trkpt lat="42.59378" lon="2.97809">
        <ele>38.59</ele>
        <time>2012-10-13T10:35:39Z</time>
      </trkpt>
      <trkpt lat="42.59287" lon="2.97835">
        <ele>38.11</ele>
        <time>2012-10-13T10:35:55Z</time>
      </trkpt>
      <trkpt lat="42.59201" lon="2.97891">
        <ele>37.63</ele>
        <time>2012-10-13T10:36:11Z</time>
      </trkpt>
      <trkpt lat="42.59124" lon="2.97965">
        <ele>37.15</ele>
        <time>2012-10-13T10:36:27Z</time>
      </trkpt>
      <trkpt lat="42.59045" lon="2.98038">
        <ele>36.67</ele>
        <time>2012-10-13T10:36:43Z</time>
      </trkpt>
      <trkpt lat="42.5897" lon="2.98113">
        <ele>37.15</ele>
        <time>2012-10-13T10:36:59Z</time>
      </trkpt>
      <trkpt lat="42.58919" lon="2.98218">
        <ele>36.67</ele>
        <time>2012-10-13T10:37:14Z</time>
      </trkpt>
      <trkpt lat="42.58835" lon="2.98265">
        <ele>38.11</ele>
        <time>2012-10-13T10:37:30Z</time>
      </trkpt>
      <trkpt lat="42.58749" lon="2.98317">
        <ele>38.59</ele>
        <time>2012-10-13T10:37:47Z</time>
      </trkpt>
      <trkpt lat="42.58669" lon="2.98389">
        <ele>40.51</ele>
        <time>2012-10-13T10:38:04Z</time>
      </trkpt>
      <trkpt lat="42.58594" lon="2.98461">
        <ele>40.51</ele>
        <time>2012-10-13T10:38:20Z</time>
      </trkpt>
      <trkpt lat="42.58518" lon="2.98533">
        <ele>40.99</ele>
        <time>2012-10-13T10:38:35Z</time>
      </trkpt>
      <trkpt lat="42.5844" lon="2.98604">
        <ele>40.99</ele>
        <time>2012-10-13T10:38:50Z</time>
      </trkpt>
      <trkpt lat="42.58359" lon="2.98655">
        <ele>38.59</ele>
        <time>2012-10-13T10:39:04Z</time>
      </trkpt>
      <trkpt lat="42.58356" lon="2.98546">
        <ele>37.15</ele>
        <time>2012-10-13T10:39:19Z</time>
      </trkpt>
      <trkpt lat="42.58354" lon="2.98488">
        <ele>35.71</ele>
        <time>2012-10-13T10:39:37Z</time>
      </trkpt>
      <trkpt lat="42.58318" lon="2.98599">
        <ele>35.71</ele>
        <time>2012-10-13T10:39:55Z</time>
      </trkpt>
      <trkpt lat="42.58299" lon="2.98717">
        <ele>35.23</ele>
        <time>2012-10-13T10:40:11Z</time>
      </trkpt>
      <trkpt lat="42.58224" lon="2.98787">
        <ele>35.23</ele>
        <time>2012-10-13T10:40:27Z</time>
      </trkpt>
      <trkpt lat="42.58143" lon="2.98866">
        <ele>33.3</ele>
        <time>2012-10-13T10:44:59Z</time>
      </trkpt>
      <trkpt lat="42.58064" lon="2.98942">
        <ele>32.82</ele>
        <time>2012-10-13T10:45:17Z</time>
      </trkpt>
      <trkpt lat="42.57984" lon="2.99019">
        <ele>32.34</ele>
        <time>2012-10-13T10:45:34Z</time>
      </trkpt>
      <trkpt lat="42.57903" lon="2.99095">
        <ele>32.34</ele>
        <time>2012-10-13T10:45:51Z</time>
      </trkpt>
      <trkpt lat="42.57828" lon="2.99165">
        <ele>32.34</ele>
        <time>2012-10-13T10:46:07Z</time>
      </trkpt>
      <trkpt lat="42.57752" lon="2.99243">
        <ele>32.82</ele>
        <time>2012-10-13T10:46:27Z</time>
      </trkpt>
      <trkpt lat="42.57674" lon="2.99319">
        <ele>34.26</ele>
        <time>2012-10-13T10:46:46Z</time>
      </trkpt>
      <trkpt lat="42.57594" lon="2.99393">
        <ele>33.3</ele>
        <time>2012-10-13T10:47:04Z</time>
      </trkpt>
      <trkpt lat="42.57514" lon="2.99463">
        <ele>30.9</ele>
        <time>2012-10-13T10:47:18Z</time>
      </trkpt>
      <trkpt lat="42.57435" lon="2.99537">
        <ele>29.94</ele>
        <time>2012-10-13T10:47:33Z</time>
      </trkpt>
      <trkpt lat="42.57357" lon="2.99606">
        <ele>29.94</ele>
        <time>2012-10-13T10:47:48Z</time>
      </trkpt>
      <trkpt lat="42.57276" lon="2.99671">
        <ele>29.46</ele>
        <time>2012-10-13T10:48:03Z</time>
      </trkpt>
      <trkpt lat="42.57196" lon="2.99738">
        <ele>29.46</ele>
        <time>2012-10-13T10:48:18Z</time>
      </trkpt>
      <trkpt lat="42.57117" lon="2.99812">
        <ele>28.98</ele>
        <time>2012-10-13T10:48:33Z</time>
      </trkpt>
      <trkpt lat="42.57038" lon="2.99887">
        <ele>28.98</ele>
        <time>2012-10-13T10:48:48Z</time>
      </trkpt>
      <trkpt lat="42.56962" lon="2.9996">
        <ele>28.5</ele>
        <time>2012-10-13T10:49:03Z</time>
      </trkpt>
      <trkpt lat="42.56884" lon="3.00035">
        <ele>29.46</ele>
        <time>2012-10-13T10:49:19Z</time>
      </trkpt>
      <trkpt lat="42.56807" lon="3.00112">
        <ele>28.98</ele>
        <time>2012-10-13T10:49:34Z</time>
      </trkpt>
      <trkpt lat="42.56728" lon="3.00163">
        <ele>28.5</ele>
        <time>2012-10-13T10:49:49Z</time>
      </trkpt>
      <trkpt lat="42.56656" lon="3.00235">
        <ele>28.5</ele>
        <time>2012-10-13T10:50:06Z</time>
      </trkpt>
      <trkpt lat="42.56587" lon="3.00319">
        <ele>29.46</ele>
        <time>2012-10-13T10:50:23Z</time>
      </trkpt>
      <trkpt lat="42.56512" lon="3.0039">
        <ele>30.42</ele>
        <time>2012-10-13T10:50:39Z</time>
      </trkpt>
      <trkpt lat="42.56436" lon="3.00356">
        <ele>32.34</ele>
        <time>2012-10-13T10:50:59Z</time>
      </trkpt>
      <trkpt lat="42.56352" lon="3.00383">
        <ele>34.26</ele>
        <time>2012-10-13T10:51:24Z</time>
      </trkpt>
      <trkpt lat="42.56401" lon="3.00475">
        <ele>35.71</ele>
        <time>2012-10-13T10:51:43Z</time>
      </trkpt>
      <trkpt lat="42.56438" lon="3.00588">
        <ele>35.71</ele>
        <time>2012-10-13T10:52:02Z</time>
      </trkpt>
      <trkpt lat="42.56416" lon="3.00684">
        <ele>30.42</ele>
        <time>2012-10-13T10:52:19Z</time>
      </trkpt>
      <trkpt lat="42.56342" lon="3.00695">
        <ele>30.42</ele>
        <time>2012-10-13T10:53:09Z</time>
      </trkpt>
      <trkpt lat="42.56255" lon="3.00681">
        <ele>31.38</ele>
        <time>2012-10-13T10:53:28Z</time>
      </trkpt>
      <trkpt lat="42.56178" lon="3.00754">
        <ele>31.38</ele>
        <time>2012-10-13T10:53:46Z</time>
      </trkpt>
      <trkpt lat="42.561" lon="3.00828">
        <ele>31.86</ele>
        <time>2012-10-13T10:54:03Z</time>
      </trkpt>
      <trkpt lat="42.56017" lon="3.00882">
        <ele>32.34</ele>
        <time>2012-10-13T10:54:20Z</time>
      </trkpt>
      <trkpt lat="42.55958" lon="3.00965">
        <ele>31.38</ele>
        <time>2012-10-13T10:54:36Z</time>
      </trkpt>
      <trkpt lat="42.5588" lon="3.01037">
        <ele>30.9</ele>
        <time>2012-10-13T10:54:51Z</time>
      </trkpt>
      <trkpt lat="42.55805" lon="3.01108">
        <ele>31.38</ele>
        <time>2012-10-13T10:55:06Z</time>
      </trkpt>
      <trkpt lat="42.55726" lon="3.01181">
        <ele>31.86</ele>
        <time>2012-10-13T10:55:21Z</time>
      </trkpt>
      <trkpt lat="42.55651" lon="3.01254">
        <ele>31.38</ele>
        <time>2012-10-13T10:55:36Z</time>
      </trkpt>
      <trkpt lat="42.55574" lon="3.01313">
        <ele>31.38</ele>
        <time>2012-10-13T10:55:52Z</time>
      </trkpt>
      <trkpt lat="42.55502" lon="3.01388">
        <ele>31.38</ele>
        <time>2012-10-13T10:56:08Z</time>
      </trkpt>
      <trkpt lat="42.55424" lon="3.0146">
        <ele>31.86</ele>
        <time>2012-10-13T10:56:23Z</time>
      </trkpt>
      <trkpt lat="42.55347" lon="3.01538">
        <ele>30.42</ele>
        <time>2012-10-13T10:56:38Z</time>
      </trkpt>
      <trkpt lat="42.55269" lon="3.01605">
        <ele>30.42</ele>
        <time>2012-10-13T10:56:52Z</time>
      </trkpt>
      <trkpt lat="42.55193" lon="3.01672">
        <ele>29.46</ele>
        <time>2012-10-13T10:57:06Z</time>
      </trkpt>
      <trkpt lat="42.55111" lon="3.01742">
        <ele>29.46</ele>
        <time>2012-10-13T10:57:21Z</time>
      </trkpt>
      <trkpt lat="42.55031" lon="3.01812">
        <ele>28.98</ele>
        <time>2012-10-13T10:57:36Z</time>
      </trkpt>
      <trkpt lat="42.54953" lon="3.0188">
        <ele>28.5</ele>
        <time>2012-10-13T10:57:50Z</time>
      </trkpt>
      <trkpt lat="42.54875" lon="3.01949">
        <ele>29.94</ele>
        <time>2012-10-13T10:58:05Z</time>
      </trkpt>
      <trkpt lat="42.54796" lon="3.02018">
        <ele>30.42</ele>
        <time>2012-10-13T10:58:22Z</time>
      </trkpt>
      <trkpt lat="42.54721" lon="3.02085">
        <ele>29.94</ele>
        <time>2012-10-13T10:58:40Z</time>
      </trkpt>
      <trkpt lat="42.54723" lon="3.0209">
        <ele>28.98</ele>
        <time>2012-10-13T10:59:50Z</time>
      </trkpt>
      <trkpt lat="42.54641" lon="3.02174">
        <ele>27.05</ele>
        <time>2012-10-13T11:00:12Z</time>
      </trkpt>
      <trkpt lat="42.54594" lon="3.02273">
        <ele>27.05</ele>
        <time>2012-10-13T11:00:43Z</time>
      </trkpt>
      <trkpt lat="42.54643" lon="3.02397">
        <ele>27.05</ele>
        <time>2012-10-13T11:01:46Z</time>
      </trkpt>
      <trkpt lat="42.54597" lon="3.02465">
        <ele>25.13</ele>
        <time>2012-10-13T11:02:28Z</time>
      </trkpt>
      <trkpt lat="42.54511" lon="3.02522">
        <ele>24.65</ele>
        <time>2012-10-13T11:02:48Z</time>
      </trkpt>
      <trkpt lat="42.54426" lon="3.02574">
        <ele>25.61</ele>
        <time>2012-10-13T11:03:07Z</time>
      </trkpt>
      <trkpt lat="42.54368" lon="3.02596">
        <ele>26.09</ele>
        <time>2012-10-13T11:03:28Z</time>
      </trkpt>
      <trkpt lat="42.54331" lon="3.02711">
        <ele>25.13</ele>
        <time>2012-10-13T11:03:44Z</time>
      </trkpt>
      <trkpt lat="42.54291" lon="3.02831">
        <ele>24.65</ele>
        <time>2012-10-13T11:04:00Z</time>
      </trkpt>
      <trkpt lat="42.54254" lon="3.02944">
        <ele>25.13</ele>
        <time>2012-10-13T11:04:15Z</time>
      </trkpt>
      <trkpt lat="42.54216" lon="3.03062">
        <ele>26.09</ele>
        <time>2012-10-13T11:04:30Z</time>
      </trkpt>
      <trkpt lat="42.54177" lon="3.03176">
        <ele>25.61</ele>
        <time>2012-10-13T11:04:45Z</time>
      </trkpt>
      <trkpt lat="42.54133" lon="3.03291">
        <ele>25.61</ele>
        <time>2012-10-13T11:05:00Z</time>
      </trkpt>
      <trkpt lat="42.54088" lon="3.03403">
        <ele>26.57</ele>
        <time>2012-10-13T11:05:15Z</time>
      </trkpt>
      <trkpt lat="42.54048" lon="3.03514">
        <ele>27.53</ele>
        <time>2012-10-13T11:05:30Z</time>
      </trkpt>
      <trkpt lat="42.53998" lon="3.03616">
        <ele>27.53</ele>
        <time>2012-10-13T11:05:46Z</time>
      </trkpt>
      <trkpt lat="42.53967" lon="3.03716">
        <ele>27.05</ele>
        <time>2012-10-13T11:07:00Z</time>
      </trkpt>
      <trkpt lat="42.53933" lon="3.03828">
        <ele>28.5</ele>
        <time>2012-10-13T11:07:19Z</time>
      </trkpt>
      <trkpt lat="42.5389" lon="3.03944">
        <ele>28.02</ele>
        <time>2012-10-13T11:07:37Z</time>
      </trkpt>
      <trkpt lat="42.53846" lon="3.04059">
        <ele>27.05</ele>
        <time>2012-10-13T11:07:53Z</time>
      </trkpt>
      <trkpt lat="42.53803" lon="3.04175">
        <ele>25.61</ele>
        <time>2012-10-13T11:08:07Z</time>
      </trkpt>
      <trkpt lat="42.5376" lon="3.04289">
        <ele>24.17</ele>
        <time>2012-10-13T11:08:20Z</time>
      </trkpt>
      <trkpt lat="42.53718" lon="3.04404">
        <ele>24.17</ele>
        <time>2012-10-13T11:08:34Z</time>
      </trkpt>
      <trkpt lat="42.53675" lon="3.04519">
        <ele>25.13</ele>
        <time>2012-10-13T11:08:49Z</time>
      </trkpt>
      <trkpt lat="42.53631" lon="3.04634">
        <ele>24.17</ele>
        <time>2012-10-13T11:09:04Z</time>
      </trkpt>
      <trkpt lat="42.53588" lon="3.04744">
        <ele>23.69</ele>
        <time>2012-10-13T11:09:20Z</time>
      </trkpt>
      <trkpt lat="42.53544" lon="3.04854">
        <ele>24.17</ele>
        <time>2012-10-13T11:09:36Z</time>
      </trkpt>
      <trkpt lat="42.53517" lon="3.04974">
        <ele>26.09</ele>
        <time>2012-10-13T11:09:51Z</time>
      </trkpt>
      <trkpt lat="42.53451" lon="3.05068">
        <ele>29.46</ele>
        <time>2012-10-13T11:10:13Z</time>
      </trkpt>
      <trkpt lat="42.53386" lon="3.05162">
        <ele>33.3</ele>
        <time>2012-10-13T11:10:41Z</time>
      </trkpt>
      <trkpt lat="42.53323" lon="3.05259">
        <ele>38.11</ele>
        <time>2012-10-13T11:11:12Z</time>
      </trkpt>
      <trkpt lat="42.53266" lon="3.05358">
        <ele>41.95</ele>
        <time>2012-10-13T11:11:40Z</time>
      </trkpt>
      <trkpt lat="42.53226" lon="3.05468">
        <ele>46.76</ele>
        <time>2012-10-13T11:12:07Z</time>
      </trkpt>
      <trkpt lat="42.53145" lon="3.0548">
        <ele>49.16</ele>
        <time>2012-10-13T11:12:31Z</time>
      </trkpt>
      <trkpt lat="42.53183" lon="3.0559">
        <ele>51.57</ele>
        <time>2012-10-13T11:12:53Z</time>
      </trkpt>
      <trkpt lat="42.53218" lon="3.05703">
        <ele>53.01</ele>
        <time>2012-10-13T11:13:16Z</time>
      </trkpt>
      <trkpt lat="42.53274" lon="3.058">
        <ele>52.05</ele>
        <time>2012-10-13T11:13:33Z</time>
      </trkpt>
      <trkpt lat="42.53332" lon="3.05906">
        <ele>49.16</ele>
        <time>2012-10-13T11:13:48Z</time>
      </trkpt>
      <trkpt lat="42.53373" lon="3.06017">
        <ele>44.84</ele>
        <time>2012-10-13T11:13:59Z</time>
      </trkpt>
      <trkpt lat="42.53408" lon="3.0614">
        <ele>38.11</ele>
        <time>2012-10-13T11:14:09Z</time>
      </trkpt>
      <trkpt lat="42.5344" lon="3.06264">
        <ele>35.23</ele>
        <time>2012-10-13T11:14:19Z</time>
      </trkpt>
      <trkpt lat="42.53442" lon="3.06392">
        <ele>33.3</ele>
        <time>2012-10-13T11:14:29Z</time>
      </trkpt>
      <trkpt lat="42.53413" lon="3.06517">
        <ele>29.94</ele>
        <time>2012-10-13T11:14:39Z</time>
      </trkpt>
      <trkpt lat="42.53374" lon="3.06636">
        <ele>27.05</ele>
        <time>2012-10-13T11:14:49Z</time>
      </trkpt>
      <trkpt lat="42.53311" lon="3.06717">
        <ele>27.53</ele>
        <time>2012-10-13T11:15:00Z</time>
      </trkpt>
      <trkpt lat="42.53219" lon="3.06715">
        <ele>31.38</ele>
        <time>2012-10-13T11:15:17Z</time>
      </trkpt>
      <trkpt lat="42.53173" lon="3.06781">
        <ele>33.78</ele>
        <time>2012-10-13T11:15:38Z</time>
      </trkpt>
      <trkpt lat="42.53201" lon="3.06895">
        <ele>36.19</ele>
        <time>2012-10-13T11:15:58Z</time>
      </trkpt>
      <trkpt lat="42.53122" lon="3.06938">
        <ele>40.03</ele>
        <time>2012-10-13T11:16:20Z</time>
      </trkpt>
      <trkpt lat="42.53032" lon="3.06915">
        <ele>43.4</ele>
        <time>2012-10-13T11:16:45Z</time>
      </trkpt>
      <trkpt lat="42.52975" lon="3.0701">
        <ele>46.28</ele>
        <time>2012-10-13T11:17:13Z</time>
      </trkpt>
      <trkpt lat="42.52908" lon="3.07089">
        <ele>49.65</ele>
        <time>2012-10-13T11:17:39Z</time>
      </trkpt>
      <trkpt lat="42.52921" lon="3.07196">
        <ele>53.01</ele>
        <time>2012-10-13T11:18:03Z</time>
      </trkpt>
      <trkpt lat="42.53008" lon="3.07173">
        <ele>55.41</ele>
        <time>2012-10-13T11:18:26Z</time>
      </trkpt>
      <trkpt lat="42.53064" lon="3.07263">
        <ele>58.3</ele>
        <time>2012-10-13T11:18:48Z</time>
      </trkpt>
      <trkpt lat="42.5301" lon="3.07364">
        <ele>61.66</ele>
        <time>2012-10-13T11:19:11Z</time>
      </trkpt>
      <trkpt lat="42.52977" lon="3.07479">
        <ele>64.55</ele>
        <time>2012-10-13T11:19:34Z</time>
      </trkpt>
      <trkpt lat="42.52968" lon="3.07604">
        <ele>67.43</ele>
        <time>2012-10-13T11:19:55Z</time>
      </trkpt>
      <trkpt lat="42.52924" lon="3.077">
        <ele>62.14</ele>
        <time>2012-10-13T11:20:14Z</time>
      </trkpt>
      <trkpt lat="42.52838" lon="3.07721">
        <ele>57.34</ele>
        <time>2012-10-13T11:20:28Z</time>
      </trkpt>
      <trkpt lat="42.52763" lon="3.07658">
        <ele>53.97</ele>
        <time>2012-10-13T11:20:40Z</time>
      </trkpt>
      <trkpt lat="42.52686" lon="3.07688">
        <ele>49.16</ele>
        <time>2012-10-13T11:20:51Z</time>
      </trkpt>
      <trkpt lat="42.52622" lon="3.07715">
        <ele>45.32</ele>
        <time>2012-10-13T11:21:03Z</time>
      </trkpt>
      <trkpt lat="42.52611" lon="3.07844">
        <ele>40.99</ele>
        <time>2012-10-13T11:21:14Z</time>
      </trkpt>
      <trkpt lat="42.52535" lon="3.07914">
        <ele>37.15</ele>
        <time>2012-10-13T11:21:24Z</time>
      </trkpt>
      <trkpt lat="42.52445" lon="3.079">
        <ele>32.82</ele>
        <time>2012-10-13T11:21:34Z</time>
      </trkpt>
      <trkpt lat="42.52397" lon="3.08004">
        <ele>29.94</ele>
        <time>2012-10-13T11:21:45Z</time>
      </trkpt>
      <trkpt lat="42.52422" lon="3.0812">
        <ele>27.05</ele>
        <time>2012-10-13T11:21:57Z</time>
      </trkpt>
      <trkpt lat="42.52445" lon="3.08236">
        <ele>24.17</ele>
        <time>2012-10-13T11:22:15Z</time>
      </trkpt>
      <trkpt lat="42.52424" lon="3.08359">
        <ele>21.77</ele>
        <time>2012-10-13T11:22:33Z</time>
      </trkpt>
      <trkpt lat="42.52415" lon="3.0849">
        <ele>16.96</ele>
        <time>2012-10-13T11:22:47Z</time>
      </trkpt>
      <trkpt lat="42.52389" lon="3.08559">
        <ele>16.48</ele>
        <time>2012-10-13T11:32:59Z</time>
      </trkpt>
      <trkpt lat="42.52368" lon="3.08677">
        <ele>17.44</ele>
        <time>2012-10-13T11:33:24Z</time>
      </trkpt>
      <trkpt lat="42.5239" lon="3.08785">
        <ele>21.77</ele>
        <time>2012-10-13T11:36:02Z</time>
      </trkpt>
      <trkpt lat="42.52446" lon="3.0885">
        <ele>25.61</ele>
        <time>2012-10-13T11:36:33Z</time>
      </trkpt>
      <trkpt lat="42.52429" lon="3.08966">
        <ele>29.94</ele>
        <time>2012-10-13T11:37:03Z</time>
      </trkpt>
      <trkpt lat="42.52511" lon="3.0901">
        <ele>32.82</ele>
        <time>2012-10-13T11:37:32Z</time>
      </trkpt>
      <trkpt lat="42.52534" lon="3.09134">
        <ele>34.74</ele>
        <time>2012-10-13T11:37:56Z</time>
      </trkpt>
      <trkpt lat="42.52467" lon="3.09216">
        <ele>34.26</ele>
        <time>2012-10-13T11:38:13Z</time>
      </trkpt>
      <trkpt lat="42.52378" lon="3.0926">
        <ele>32.82</ele>
        <time>2012-10-13T11:38:27Z</time>
      </trkpt>
      <trkpt lat="42.52382" lon="3.09373">
        <ele>33.78</ele>
        <time>2012-10-13T11:38:42Z</time>
      </trkpt>
      <trkpt lat="42.52303" lon="3.09418">
        <ele>33.3</ele>
        <time>2012-10-13T11:38:57Z</time>
      </trkpt>
      <trkpt lat="42.52323" lon="3.09509">
        <ele>33.3</ele>
        <time>2012-10-13T11:39:13Z</time>
      </trkpt>
      <trkpt lat="42.5234" lon="3.09633">
        <ele>33.3</ele>
        <time>2012-10-13T11:39:29Z</time>
      </trkpt>
      <trkpt lat="42.52328" lon="3.09756">
        <ele>32.82</ele>
        <time>2012-10-13T11:39:43Z</time>
      </trkpt>
      <trkpt lat="42.52313" lon="3.09885">
        <ele>32.34</ele>
        <time>2012-10-13T11:39:58Z</time>
      </trkpt>
      <trkpt lat="42.52316" lon="3.10009">
        <ele>32.82</ele>
        <time>2012-10-13T11:40:13Z</time>
      </trkpt>
      <trkpt lat="42.52319" lon="3.10134">
        <ele>37.15</ele>
        <time>2012-10-13T11:40:37Z</time>
      </trkpt>
      <trkpt lat="42.52278" lon="3.10241">
        <ele>37.63</ele>
        <time>2012-10-13T11:40:58Z</time>
      </trkpt>
      <trkpt lat="42.5222" lon="3.10342">
        <ele>37.15</ele>
        <time>2012-10-13T11:41:14Z</time>
      </trkpt>
      <trkpt lat="42.52172" lon="3.10455">
        <ele>34.74</ele>
        <time>2012-10-13T11:41:28Z</time>
      </trkpt>
      <trkpt lat="42.52102" lon="3.1053">
        <ele>28.98</ele>
        <time>2012-10-13T11:41:40Z</time>
      </trkpt>
      <trkpt lat="42.52051" lon="3.10639">
        <ele>24.17</ele>
        <time>2012-10-13T11:41:51Z</time>
      </trkpt>
      <trkpt lat="42.51993" lon="3.10733">
        <ele>18.88</ele>
        <time>2012-10-13T11:42:01Z</time>
      </trkpt>
      <trkpt lat="42.51901" lon="3.1077">
        <ele>15.52</ele>
        <time>2012-10-13T11:42:12Z</time>
      </trkpt>
      <trkpt lat="42.51823" lon="3.10697">
        <ele>15.52</ele>
        <time>2012-10-13T11:42:24Z</time>
      </trkpt>
      <trkpt lat="42.51746" lon="3.10628">
        <ele>15.04</ele>
        <time>2012-10-13T11:42:39Z</time>
      </trkpt>
      <trkpt lat="42.51666" lon="3.10559">
        <ele>15.52</ele>
        <time>2012-10-13T11:42:55Z</time>
      </trkpt>
      <trkpt lat="42.51596" lon="3.10607">
        <ele>16</ele>
        <time>2012-10-13T11:43:15Z</time>
      </trkpt>
      <trkpt lat="42.51579" lon="3.10718">
        <ele>15.52</ele>
        <time>2012-10-13T11:43:33Z</time>
      </trkpt>
      <trkpt lat="42.51659" lon="3.10784">
        <ele>15.04</ele>
        <time>2012-10-13T11:43:52Z</time>
      </trkpt>
      <trkpt lat="42.51706" lon="3.10882">
        <ele>16.48</ele>
        <time>2012-10-13T11:44:10Z</time>
      </trkpt>
      <trkpt lat="42.51691" lon="3.1099">
        <ele>17.92</ele>
        <time>2012-10-13T11:44:30Z</time>
      </trkpt>
      <trkpt lat="42.51602" lon="3.11011">
        <ele>19.36</ele>
        <time>2012-10-13T11:44:49Z</time>
      </trkpt>
      <trkpt lat="42.51575" lon="3.11119">
        <ele>21.77</ele>
        <time>2012-10-13T11:45:09Z</time>
      </trkpt>
      <trkpt lat="42.5151" lon="3.11174">
        <ele>24.65</ele>
        <time>2012-10-13T11:45:30Z</time>
      </trkpt>
      <trkpt lat="42.51483" lon="3.11257">
        <ele>26.57</ele>
        <time>2012-10-13T11:45:50Z</time>
      </trkpt>
      <trkpt lat="42.51543" lon="3.11354">
        <ele>22.25</ele>
        <time>2012-10-13T11:46:05Z</time>
      </trkpt>
      <trkpt lat="42.5156" lon="3.11437">
        <ele>27.53</ele>
        <time>2012-10-13T11:46:31Z</time>
      </trkpt>
      <trkpt lat="42.51509" lon="3.1154">
        <ele>32.34</ele>
        <time>2012-10-13T11:47:01Z</time>
      </trkpt>
      <trkpt lat="42.51431" lon="3.11591">
        <ele>40.99</ele>
        <time>2012-10-13T11:47:37Z</time>
      </trkpt>
      <trkpt lat="42.51347" lon="3.11544">
        <ele>47.72</ele>
        <time>2012-10-13T11:48:18Z</time>
      </trkpt>
      <trkpt lat="42.51286" lon="3.11461">
        <ele>53.01</ele>
        <time>2012-10-13T11:48:56Z</time>
      </trkpt>
      <trkpt lat="42.5129" lon="3.11337">
        <ele>58.3</ele>
        <time>2012-10-13T11:49:30Z</time>
      </trkpt>
      <trkpt lat="42.51305" lon="3.11215">
        <ele>60.7</ele>
        <time>2012-10-13T11:49:57Z</time>
      </trkpt>
      <trkpt lat="42.5129" lon="3.11129">
        <ele>62.62</ele>
        <time>2012-10-13T11:50:21Z</time>
      </trkpt>
      <trkpt lat="42.51244" lon="3.11223">
        <ele>67.91</ele>
        <time>2012-10-13T11:50:48Z</time>
      </trkpt>
      <trkpt lat="42.51237" lon="3.11344">
        <ele>73.68</ele>
        <time>2012-10-13T11:51:16Z</time>
      </trkpt>
      <trkpt lat="42.51216" lon="3.11463">
        <ele>78.97</ele>
        <time>2012-10-13T11:51:43Z</time>
      </trkpt>
      <trkpt lat="42.51182" lon="3.11577">
        <ele>84.73</ele>
        <time>2012-10-13T11:52:10Z</time>
      </trkpt>
      <trkpt lat="42.51153" lon="3.11653">
        <ele>90.98</ele>
        <time>2012-10-13T11:53:19Z</time>
      </trkpt>
      <trkpt lat="42.51057" lon="3.11632">
        <ele>83.77</ele>
        <time>2012-10-13T11:53:35Z</time>
      </trkpt>
      <trkpt lat="42.50992" lon="3.1154">
        <ele>76.08</ele>
        <time>2012-10-13T11:53:45Z</time>
      </trkpt>
      <trkpt lat="42.50901" lon="3.11555">
        <ele>69.35</ele>
        <time>2012-10-13T11:53:55Z</time>
      </trkpt>
      <trkpt lat="42.50845" lon="3.11649">
        <ele>64.07</ele>
        <time>2012-10-13T11:54:03Z</time>
      </trkpt>
      <trkpt lat="42.50768" lon="3.11712">
        <ele>56.37</ele>
        <time>2012-10-13T11:54:11Z</time>
      </trkpt>
      <trkpt lat="42.5068" lon="3.11722">
        <ele>48.68</ele>
        <time>2012-10-13T11:54:19Z</time>
      </trkpt>
      <trkpt lat="42.5066" lon="3.11598">
        <ele>43.4</ele>
        <time>2012-10-13T11:54:27Z</time>
      </trkpt>
      <trkpt lat="42.50619" lon="3.11571">
        <ele>36.67</ele>
        <time>2012-10-13T11:54:38Z</time>
      </trkpt>
      <trkpt lat="42.50608" lon="3.11708">
        <ele>31.86</ele>
        <time>2012-10-13T11:54:48Z</time>
      </trkpt>
      <trkpt lat="42.50588" lon="3.11828">
        <ele>27.53</ele>
        <time>2012-10-13T11:54:57Z</time>
      </trkpt>
      <trkpt lat="42.50574" lon="3.11964">
        <ele>22.25</ele>
        <time>2012-10-13T11:55:07Z</time>
      </trkpt>
      <trkpt lat="42.50533" lon="3.12074">
        <ele>18.88</ele>
        <time>2012-10-13T11:55:16Z</time>
      </trkpt>
      <trkpt lat="42.50444" lon="3.12117">
        <ele>17.92</ele>
        <time>2012-10-13T11:55:27Z</time>
      </trkpt>
      <trkpt lat="42.50354" lon="3.12134">
        <ele>19.36</ele>
        <time>2012-10-13T11:55:40Z</time>
      </trkpt>
      <trkpt lat="42.50264" lon="3.12101">
        <ele>20.81</ele>
        <time>2012-10-13T11:55:54Z</time>
      </trkpt>
      <trkpt lat="42.50203" lon="3.12046">
        <ele>20.32</ele>
        <time>2012-10-13T11:56:10Z</time>
      </trkpt>
      <trkpt lat="42.50113" lon="3.12086">
        <ele>19.84</ele>
        <time>2012-10-13T11:56:25Z</time>
      </trkpt>
      <trkpt lat="42.50027" lon="3.12046">
        <ele>20.81</ele>
        <time>2012-10-13T11:56:40Z</time>
      </trkpt>
      <trkpt lat="42.4997" lon="3.11952">
        <ele>27.53</ele>
        <time>2012-10-13T11:57:06Z</time>
      </trkpt>
      <trkpt lat="42.49879" lon="3.11948">
        <ele>32.82</ele>
        <time>2012-10-13T11:57:38Z</time>
      </trkpt>
      <trkpt lat="42.49788" lon="3.11948">
        <ele>38.11</ele>
        <time>2012-10-13T11:58:09Z</time>
      </trkpt>
      <trkpt lat="42.49698" lon="3.11938">
        <ele>44.84</ele>
        <time>2012-10-13T11:58:41Z</time>
      </trkpt>
      <trkpt lat="42.49631" lon="3.1186">
        <ele>51.57</ele>
        <time>2012-10-13T11:59:15Z</time>
      </trkpt>
      <trkpt lat="42.49546" lon="3.11817">
        <ele>59.26</ele>
        <time>2012-10-13T12:00:07Z</time>
      </trkpt>
      <trkpt lat="42.4946" lon="3.11853">
        <ele>65.99</ele>
        <time>2012-10-13T12:00:46Z</time>
      </trkpt>
      <trkpt lat="42.49381" lon="3.11915">
        <ele>72.24</ele>
        <time>2012-10-13T12:01:25Z</time>
      </trkpt>
      <trkpt lat="42.49291" lon="3.11926">
        <ele>79.93</ele>
        <time>2012-10-13T12:02:03Z</time>
      </trkpt>
      <trkpt lat="42.49208" lon="3.11885">
        <ele>82.33</ele>
        <time>2012-10-13T12:02:32Z</time>
      </trkpt>
      <trkpt lat="42.49112" lon="3.11903">
        <ele>77.52</ele>
        <time>2012-10-13T12:02:47Z</time>
      </trkpt>
      <trkpt lat="42.49043" lon="3.11987">
        <ele>70.79</ele>
        <time>2012-10-13T12:02:56Z</time>
      </trkpt>
      <trkpt lat="42.48988" lon="3.12102">
        <ele>64.55</ele>
        <time>2012-10-13T12:03:04Z</time>
      </trkpt>
      <trkpt lat="42.4894" lon="3.12209">
        <ele>57.34</ele>
        <time>2012-10-13T12:03:11Z</time>
      </trkpt>
      <trkpt lat="42.48893" lon="3.12317">
        <ele>51.57</ele>
        <time>2012-10-13T12:03:18Z</time>
      </trkpt>
      <trkpt lat="42.48862" lon="3.12441">
        <ele>44.84</ele>
        <time>2012-10-13T12:03:26Z</time>
      </trkpt>
      <trkpt lat="42.48875" lon="3.12559">
        <ele>37.63</ele>
        <time>2012-10-13T12:03:33Z</time>
      </trkpt>
      <trkpt lat="42.48871" lon="3.12691">
        <ele>29.94</ele>
        <time>2012-10-13T12:03:42Z</time>
      </trkpt>
      <trkpt lat="42.48791" lon="3.1271">
        <ele>23.21</ele>
        <time>2012-10-13T12:03:55Z</time>
      </trkpt>
      <trkpt lat="42.48708" lon="3.12649">
        <ele>20.81</ele>
        <time>2012-10-13T12:04:06Z</time>
      </trkpt>
      <trkpt lat="42.48623" lon="3.12603">
        <ele>24.17</ele>
        <time>2012-10-13T12:04:23Z</time>
      </trkpt>
      <trkpt lat="42.48566" lon="3.12643">
        <ele>28.98</ele>
        <time>2012-10-13T12:04:53Z</time>
      </trkpt>
      <trkpt lat="42.48598" lon="3.12756">
        <ele>34.74</ele>
        <time>2012-10-13T12:05:24Z</time>
      </trkpt>
      <trkpt lat="42.48658" lon="3.12836">
        <ele>16.1953125</ele>
        <time>2012-10-18T18:21:15Z</time>
      </trkpt>
      <trkpt lat="42.48658" lon="3.1284">
        <ele>15.75390625</ele>
        <time>2012-10-18T20:51:25Z</time>
      </trkpt>
      <trkpt lat="42.48658" lon="3.12819">
        <ele>17.96875</ele>
        <time>2012-10-18T20:54:00Z</time>
      </trkpt>
      <trkpt lat="42.48649" lon="3.12801">
        <ele>20.1640625</ele>
        <time>2012-10-19T05:49:22Z</time>
      </trkpt>
      <trkpt lat="42.48619" lon="3.12776">
        <ele>24.3828125</ele>
        <time>2012-10-19T05:50:17Z</time>
      </trkpt>
      <trkpt lat="42.48593" lon="3.1275">
        <ele>26.95703125</ele>
        <time>2012-10-19T05:55:22Z</time>
      </trkpt>
      <trkpt lat="42.48581" lon="3.12728">
        <ele>26.8046875</ele>
        <time>2012-10-19T05:56:02Z</time>
      </trkpt>
      <trkpt lat="42.48563" lon="3.12651">
        <ele>18.75</ele>
        <time>2012-10-19T05:56:27Z</time>
      </trkpt>
      <trkpt lat="42.48572" lon="3.12621">
        <ele>15.15625</ele>
        <time>2012-10-19T05:56:52Z</time>
      </trkpt>
      <trkpt lat="42.48529" lon="3.12591">
        <ele>18.6796875</ele>
        <time>2012-10-19T05:57:20Z</time>
      </trkpt>
      <trkpt lat="42.48495" lon="3.12583">
        <ele>21.3125</ele>
        <time>2012-10-19T05:57:49Z</time>
      </trkpt>
      <trkpt lat="42.48426" lon="3.12578">
        <ele>24.53125</ele>
        <time>2012-10-19T05:58:16Z</time>
      </trkpt>
      <trkpt lat="42.48366" lon="3.12578">
        <ele>24.609375</ele>
        <time>2012-10-19T05:58:52Z</time>
      </trkpt>
      <trkpt lat="42.48344" lon="3.12595">
        <ele>24.50390625</ele>
        <time>2012-10-19T05:59:29Z</time>
      </trkpt>
      <trkpt lat="42.48349" lon="3.12625">
        <ele>25.16796875</ele>
        <time>2012-10-19T06:01:52Z</time>
      </trkpt>
      <trkpt lat="42.48344" lon="3.12643">
        <ele>25.1640625</ele>
        <time>2012-10-19T06:03:50Z</time>
      </trkpt>
      <trkpt lat="42.48323" lon="3.12694">
        <ele>21.40234375</ele>
        <time>2012-10-19T06:04:32Z</time>
      </trkpt>
      <trkpt lat="42.48306" lon="3.12728">
        <ele>17.65234375</ele>
        <time>2012-10-19T06:05:15Z</time>
      </trkpt>
      <trkpt lat="42.48302" lon="3.12741">
        <ele>16.4140625</ele>
        <time>2012-10-19T06:06:01Z</time>
      </trkpt>
      <trkpt lat="42.48293" lon="3.12758">
        <ele>14.57421875</ele>
        <time>2012-10-19T06:06:45Z</time>
      </trkpt>
      <trkpt lat="42.48284" lon="3.12776">
        <ele>12.9921875</ele>
        <time>2012-10-19T06:07:24Z</time>
      </trkpt>
      <trkpt lat="42.48276" lon="3.12789">
        <ele>11.78125</ele>
        <time>2012-10-19T06:08:03Z</time>
      </trkpt>
      <trkpt lat="42.48276" lon="3.12823">
        <ele>10.55859375</ele>
        <time>2012-10-19T06:08:43Z</time>
      </trkpt>
      <trkpt lat="42.48246" lon="3.1284">
        <ele>7.9453125</ele>
        <time>2012-10-19T06:09:24Z</time>
      </trkpt>
      <trkpt lat="42.48233" lon="3.12844">
        <ele>7.7421875</ele>
        <time>2012-10-19T06:10:04Z</time>
      </trkpt>
      <trkpt lat="42.4822" lon="3.12853">
        <ele>7.43359375</ele>
        <time>2012-10-19T06:10:44Z</time>
      </trkpt>
      <trkpt lat="42.4822" lon="3.1287">
        <ele>6.81640625</ele>
        <time>2012-10-19T06:11:21Z</time>
      </trkpt>
      <trkpt lat="42.48224" lon="3.129">
        <ele>5.53515625</ele>
        <time>2012-10-19T06:11:59Z</time>
      </trkpt>
      <trkpt lat="42.48203" lon="3.12909">
        <ele>5.140625</ele>
        <time>2012-10-19T06:12:38Z</time>
      </trkpt>
      <trkpt lat="42.48147" lon="3.12943">
        <ele>4.1875</ele>
        <time>2012-10-19T06:13:14Z</time>
      </trkpt>
      <trkpt lat="42.48143" lon="3.12943">
        <ele>4.1875</ele>
        <time>2012-10-19T06:13:44Z</time>
      </trkpt>
      <trkpt lat="42.48143" lon="3.12952">
        <ele>3.87890625</ele>
        <time>2012-10-19T06:14:12Z</time>
      </trkpt>
      <trkpt lat="42.48113" lon="3.1299">
        <ele>2.7890625</ele>
        <time>2012-10-19T06:14:40Z</time>
      </trkpt>
      <trkpt lat="42.48083" lon="3.13059">
        <ele>2.84765625</ele>
        <time>2012-10-19T06:15:09Z</time>
      </trkpt>
      <trkpt lat="42.4807" lon="3.13102">
        <ele>3.625</ele>
        <time>2012-10-19T06:15:43Z</time>
      </trkpt>
      <trkpt lat="42.48057" lon="3.13132">
        <ele>5.12109375</ele>
        <time>2012-10-19T06:16:17Z</time>
      </trkpt>
      <trkpt lat="42.48053" lon="3.13166">
        <ele>5.78125</ele>
        <time>2012-10-19T06:16:53Z</time>
      </trkpt>
      <trkpt lat="42.4804" lon="3.13235">
        <ele>7.0234375</ele>
        <time>2012-10-19T06:17:29Z</time>
      </trkpt>
      <trkpt lat="42.48035" lon="3.13265">
        <ele>6.9140625</ele>
        <time>2012-10-19T06:18:07Z</time>
      </trkpt>
      <trkpt lat="42.48031" lon="3.13291">
        <ele>6.77734375</ele>
        <time>2012-10-19T06:18:45Z</time>
      </trkpt>
      <trkpt lat="42.48027" lon="3.13316">
        <ele>6.44921875</ele>
        <time>2012-10-19T06:19:19Z</time>
      </trkpt>
      <trkpt lat="42.47997" lon="3.13428">
        <ele>5.875</ele>
        <time>2012-10-19T06:19:57Z</time>
      </trkpt>
      <trkpt lat="42.47988" lon="3.13475">
        <ele>7.234375</ele>
        <time>2012-10-19T06:20:33Z</time>
      </trkpt>
      <trkpt lat="42.47993" lon="3.13535">
        <ele>8.5390625</ele>
        <time>2012-10-19T06:21:11Z</time>
      </trkpt>
      <trkpt lat="42.47997" lon="3.13552">
        <ele>8.578125</ele>
        <time>2012-10-19T06:21:49Z</time>
      </trkpt>
      <trkpt lat="42.4801" lon="3.13613">
        <ele>7.421875</ele>
        <time>2012-10-19T06:22:26Z</time>
      </trkpt>
      <trkpt lat="42.4801" lon="3.13634">
        <ele>7.421875</ele>
        <time>2012-10-19T06:23:02Z</time>
      </trkpt>
      <trkpt lat="42.47997" lon="3.13664">
        <ele>10.34375</ele>
        <time>2012-10-19T06:23:39Z</time>
      </trkpt>
      <trkpt lat="42.4795" lon="3.13711">
        <ele>19.4453125</ele>
        <time>2012-10-19T06:24:17Z</time>
      </trkpt>
      <trkpt lat="42.47945" lon="3.13724">
        <ele>20.33203125</ele>
        <time>2012-10-19T06:24:55Z</time>
      </trkpt>
      <trkpt lat="42.4795" lon="3.13741">
        <ele>21.30078125</ele>
        <time>2012-10-19T06:25:33Z</time>
      </trkpt>
      <trkpt lat="42.47958" lon="3.13746">
        <ele>20.82421875</ele>
        <time>2012-10-19T06:26:06Z</time>
      </trkpt>
      <trkpt lat="42.4798" lon="3.13737">
        <ele>17.82421875</ele>
        <time>2012-10-19T06:26:35Z</time>
      </trkpt>
      <trkpt lat="42.47997" lon="3.13711">
        <ele>13.671875</ele>
        <time>2012-10-19T06:27:10Z</time>
      </trkpt>
      <trkpt lat="42.48014" lon="3.13703">
        <ele>10.31640625</ele>
        <time>2012-10-19T06:27:46Z</time>
      </trkpt>
      <trkpt lat="42.48027" lon="3.13707">
        <ele>8.4453125</ele>
        <time>2012-10-19T06:28:19Z</time>
      </trkpt>
      <trkpt lat="42.4804" lon="3.13724">
        <ele>6.90625</ele>
        <time>2012-10-19T06:28:51Z</time>
      </trkpt>
      <trkpt lat="42.48048" lon="3.13741">
        <ele>6.0234375</ele>
        <time>2012-10-19T06:30:23Z</time>
      </trkpt>
      <trkpt lat="42.48048" lon="3.13797">
        <ele>8.1953125</ele>
        <time>2012-10-19T06:30:45Z</time>
      </trkpt>
      <trkpt lat="42.48048" lon="3.13836">
        <ele>9.62109375</ele>
        <time>2012-10-19T06:31:04Z</time>
      </trkpt>
      <trkpt lat="42.48044" lon="3.13857">
        <ele>11.6328125</ele>
        <time>2012-10-19T06:31:23Z</time>
      </trkpt>
      <trkpt lat="42.48001" lon="3.13917">
        <ele>25.26171875</ele>
        <time>2012-10-19T06:31:42Z</time>
      </trkpt>
      <trkpt lat="42.47997" lon="3.13939">
        <ele>26.49609375</ele>
        <time>2012-10-19T06:32:00Z</time>
      </trkpt>
      <trkpt lat="42.4801" lon="3.13977">
        <ele>22.71875</ele>
        <time>2012-10-19T06:32:18Z</time>
      </trkpt>
      <trkpt lat="42.48005" lon="3.1399">
        <ele>23.4921875</ele>
        <time>2012-10-19T06:32:36Z</time>
      </trkpt>
      <trkpt lat="42.47997" lon="3.1399">
        <ele>25.96484375</ele>
        <time>2012-10-19T06:32:56Z</time>
      </trkpt>
      <trkpt lat="42.47967" lon="3.13982">
        <ele>31.0078125</ele>
        <time>2012-10-19T06:33:14Z</time>
      </trkpt>
      <trkpt lat="42.47937" lon="3.13973">
        <ele>35.34375</ele>
        <time>2012-10-19T06:33:32Z</time>
      </trkpt>
      <trkpt lat="42.47915" lon="3.13973">
        <ele>38.4140625</ele>
        <time>2012-10-19T06:33:49Z</time>
      </trkpt>
      <trkpt lat="42.47911" lon="3.13982">
        <ele>39.33984375</ele>
        <time>2012-10-19T06:34:15Z</time>
      </trkpt>
      <trkpt lat="42.47907" lon="3.13999">
        <ele>40.57421875</ele>
        <time>2012-10-19T06:34:46Z</time>
      </trkpt>
      <trkpt lat="42.47924" lon="3.14037">
        <ele>38.84765625</ele>
        <time>2012-10-19T06:35:16Z</time>
      </trkpt>
      <trkpt lat="42.47924" lon="3.14067">
        <ele>39.390625</ele>
        <time>2012-10-19T06:35:39Z</time>
      </trkpt>
      <trkpt lat="42.47924" lon="3.14132">
        <ele>39.390625</ele>
        <time>2012-10-19T06:36:00Z</time>
      </trkpt>
      <trkpt lat="42.47924" lon="3.14162">
        <ele>36.53125</ele>
        <time>2012-10-19T06:36:20Z</time>
      </trkpt>
      <trkpt lat="42.4792" lon="3.14179">
        <ele>34.984375</ele>
        <time>2012-10-19T06:36:42Z</time>
      </trkpt>
      <trkpt lat="42.47915" lon="3.14196">
        <ele>33.44140625</ele>
        <time>2012-10-19T06:37:03Z</time>
      </trkpt>
      <trkpt lat="42.47898" lon="3.14209">
        <ele>35.19921875</ele>
        <time>2012-10-19T06:37:23Z</time>
      </trkpt>
      <trkpt lat="42.4786" lon="3.14222">
        <ele>41.7109375</ele>
        <time>2012-10-19T06:37:43Z</time>
      </trkpt>
      <trkpt lat="42.47825" lon="3.14265">
        <ele>41.171875</ele>
        <time>2012-10-19T06:38:04Z</time>
      </trkpt>
      <trkpt lat="42.47808" lon="3.14273">
        <ele>41.234375</ele>
        <time>2012-10-19T06:38:26Z</time>
      </trkpt>
      <trkpt lat="42.47799" lon="3.14273">
        <ele>42.03125</ele>
        <time>2012-10-19T06:38:49Z</time>
      </trkpt>
      <trkpt lat="42.47791" lon="3.14261">
        <ele>44.9375</ele>
        <time>2012-10-19T06:39:10Z</time>
      </trkpt>
      <trkpt lat="42.47778" lon="3.14218">
        <ele>52.46875</ele>
        <time>2012-10-19T06:39:29Z</time>
      </trkpt>
      <trkpt lat="42.47748" lon="3.14205">
        <ele>56.0234375</ele>
        <time>2012-10-19T06:39:48Z</time>
      </trkpt>
      <trkpt lat="42.47731" lon="3.14209">
        <ele>57.83984375</ele>
        <time>2012-10-19T06:40:06Z</time>
      </trkpt>
      <trkpt lat="42.47714" lon="3.1423">
        <ele>57.80859375</ele>
        <time>2012-10-19T06:40:25Z</time>
      </trkpt>
      <trkpt lat="42.47696" lon="3.14282">
        <ele>52.859375</ele>
        <time>2012-10-19T06:40:44Z</time>
      </trkpt>
      <trkpt lat="42.47679" lon="3.14303">
        <ele>52.2421875</ele>
        <time>2012-10-19T06:41:04Z</time>
      </trkpt>
      <trkpt lat="42.47658" lon="3.14312">
        <ele>53.76953125</ele>
        <time>2012-10-19T06:41:23Z</time>
      </trkpt>
      <trkpt lat="42.47636" lon="3.14308">
        <ele>54.10546875</ele>
        <time>2012-10-19T06:41:43Z</time>
      </trkpt>
      <trkpt lat="42.47628" lon="3.14299">
        <ele>55.21484375</ele>
        <time>2012-10-19T06:42:02Z</time>
      </trkpt>
      <trkpt lat="42.47623" lon="3.14291">
        <ele>56.2890625</ele>
        <time>2012-10-19T06:42:21Z</time>
      </trkpt>
      <trkpt lat="42.47606" lon="3.14205">
        <ele>66.70703125</ele>
        <time>2012-10-19T06:42:41Z</time>
      </trkpt>
      <trkpt lat="42.47602" lon="3.14183">
        <ele>69.46484375</ele>
        <time>2012-10-19T06:43:01Z</time>
      </trkpt>
      <trkpt lat="42.47593" lon="3.14179">
        <ele>69.90234375</ele>
        <time>2012-10-19T06:44:23Z</time>
      </trkpt>
      <trkpt lat="42.47581" lon="3.14183">
        <ele>69.08203125</ele>
        <time>2012-10-19T06:44:38Z</time>
      </trkpt>
      <trkpt lat="42.47551" lon="3.14213">
        <ele>66.89453125</ele>
        <time>2012-10-19T06:44:53Z</time>
      </trkpt>
      <trkpt lat="42.47529" lon="3.14213">
        <ele>68.55078125</ele>
        <time>2012-10-19T06:45:07Z</time>
      </trkpt>
      <trkpt lat="42.47508" lon="3.14196">
        <ele>73.20703125</ele>
        <time>2012-10-19T06:45:22Z</time>
      </trkpt>
      <trkpt lat="42.4749" lon="3.14192">
        <ele>75.55078125</ele>
        <time>2012-10-19T06:45:36Z</time>
      </trkpt>
      <trkpt lat="42.47469" lon="3.14222">
        <ele>72.4609375</ele>
        <time>2012-10-19T06:45:48Z</time>
      </trkpt>
      <trkpt lat="42.474" lon="3.14252">
        <ele>77.37890625</ele>
        <time>2012-10-19T06:46:01Z</time>
      </trkpt>
      <trkpt lat="42.47396" lon="3.14256">
        <ele>77.765625</ele>
        <time>2012-10-19T06:46:12Z</time>
      </trkpt>
      <trkpt lat="42.47379" lon="3.14303">
        <ele>76.6640625</ele>
        <time>2012-10-19T06:46:22Z</time>
      </trkpt>
      <trkpt lat="42.47357" lon="3.14333">
        <ele>80.234375</ele>
        <time>2012-10-19T06:46:33Z</time>
      </trkpt>
      <trkpt lat="42.47349" lon="3.14389">
        <ele>80.46875</ele>
        <time>2012-10-19T06:46:44Z</time>
      </trkpt>
      <trkpt lat="42.47353" lon="3.14415">
        <ele>81.30078125</ele>
        <time>2012-10-19T06:46:55Z</time>
      </trkpt>
      <trkpt lat="42.47383" lon="3.14449">
        <ele>78.36328125</ele>
        <time>2012-10-19T06:47:05Z</time>
      </trkpt>
      <trkpt lat="42.474" lon="3.14501">
        <ele>78.0546875</ele>
        <time>2012-10-19T06:47:15Z</time>
      </trkpt>
      <trkpt lat="42.474" lon="3.14522">
        <ele>78.82421875</ele>
        <time>2012-10-19T06:47:24Z</time>
      </trkpt>
      <trkpt lat="42.47383" lon="3.14552">
        <ele>83</ele>
        <time>2012-10-19T06:47:33Z</time>
      </trkpt>
      <trkpt lat="42.4737" lon="3.14578">
        <ele>85.53515625</ele>
        <time>2012-10-19T06:47:42Z</time>
      </trkpt>
      <trkpt lat="42.47379" lon="3.14638">
        <ele>83.9921875</ele>
        <time>2012-10-19T06:47:51Z</time>
      </trkpt>
      <trkpt lat="42.47362" lon="3.14673">
        <ele>83.75</ele>
        <time>2012-10-19T06:48:00Z</time>
      </trkpt>
      <trkpt lat="42.47327" lon="3.14707">
        <ele>86.26171875</ele>
        <time>2012-10-19T06:48:11Z</time>
      </trkpt>
      <trkpt lat="42.47289" lon="3.14728">
        <ele>92.2421875</ele>
        <time>2012-10-19T06:48:21Z</time>
      </trkpt>
      <trkpt lat="42.47267" lon="3.14776">
        <ele>91.3671875</ele>
        <time>2012-10-19T06:48:31Z</time>
      </trkpt>
      <trkpt lat="42.47259" lon="3.1478">
        <ele>92.91796875</ele>
        <time>2012-10-19T06:48:40Z</time>
      </trkpt>
      <trkpt lat="42.47237" lon="3.14771">
        <ele>98.49609375</ele>
        <time>2012-10-19T06:48:48Z</time>
      </trkpt>
      <trkpt lat="42.4722" lon="3.14776">
        <ele>101.125</ele>
        <time>2012-10-19T06:48:56Z</time>
      </trkpt>
      <trkpt lat="42.47164" lon="3.14857">
        <ele>100.73046875</ele>
        <time>2012-10-19T06:49:04Z</time>
      </trkpt>
      <trkpt lat="42.47151" lon="3.14874">
        <ele>98.34375</ele>
        <time>2012-10-19T06:49:13Z</time>
      </trkpt>
      <trkpt lat="42.47139" lon="3.14874">
        <ele>98.171875</ele>
        <time>2012-10-19T06:49:22Z</time>
      </trkpt>
      <trkpt lat="42.47104" lon="3.14848">
        <ele>103.35546875</ele>
        <time>2012-10-19T06:49:32Z</time>
      </trkpt>
      <trkpt lat="42.47078" lon="3.14848">
        <ele>103.9609375</ele>
        <time>2012-10-19T06:49:43Z</time>
      </trkpt>
      <trkpt lat="42.47044" lon="3.14827">
        <ele>115.140625</ele>
        <time>2012-10-19T06:49:52Z</time>
      </trkpt>
      <trkpt lat="42.47018" lon="3.14831">
        <ele>118.73046875</ele>
        <time>2012-10-19T06:50:01Z</time>
      </trkpt>
      <trkpt lat="42.47006" lon="3.14853">
        <ele>117.609375</ele>
        <time>2012-10-19T06:50:10Z</time>
      </trkpt>
      <trkpt lat="42.47001" lon="3.14909">
        <ele>109.50390625</ele>
        <time>2012-10-19T06:50:21Z</time>
      </trkpt>
      <trkpt lat="42.4698" lon="3.14947">
        <ele>108.3828125</ele>
        <time>2012-10-19T06:50:31Z</time>
      </trkpt>
      <trkpt lat="42.46941" lon="3.14969">
        <ele>114.1640625</ele>
        <time>2012-10-19T06:50:40Z</time>
      </trkpt>
      <trkpt lat="42.46911" lon="3.15003">
        <ele>114.4140625</ele>
        <time>2012-10-19T06:50:49Z</time>
      </trkpt>
      <trkpt lat="42.46881" lon="3.15007">
        <ele>124.73046875</ele>
        <time>2012-10-19T06:50:58Z</time>
      </trkpt>
      <trkpt lat="42.46868" lon="3.15024">
        <ele>126.16796875</ele>
        <time>2012-10-19T06:51:06Z</time>
      </trkpt>
      <trkpt lat="42.46851" lon="3.15059">
        <ele>126.2890625</ele>
        <time>2012-10-19T06:51:15Z</time>
      </trkpt>
      <trkpt lat="42.4686" lon="3.15136">
        <ele>117.32421875</ele>
        <time>2012-10-19T06:51:24Z</time>
      </trkpt>
      <trkpt lat="42.46825" lon="3.15179">
        <ele>129.34375</ele>
        <time>2012-10-19T06:51:33Z</time>
      </trkpt>
      <trkpt lat="42.46821" lon="3.15196">
        <ele>130.47265625</ele>
        <time>2012-10-19T06:51:43Z</time>
      </trkpt>
      <trkpt lat="42.46834" lon="3.15248">
        <ele>123.62109375</ele>
        <time>2012-10-19T06:51:52Z</time>
      </trkpt>
      <trkpt lat="42.4686" lon="3.15291">
        <ele>115.26171875</ele>
        <time>2012-10-19T06:52:00Z</time>
      </trkpt>
      <trkpt lat="42.4686" lon="3.15316">
        <ele>113.9375</ele>
        <time>2012-10-19T06:52:08Z</time>
      </trkpt>
      <trkpt lat="42.46825" lon="3.15329">
        <ele>120.62109375</ele>
        <time>2012-10-19T06:52:17Z</time>
      </trkpt>
      <trkpt lat="42.468" lon="3.15355">
        <ele>125.82421875</ele>
        <time>2012-10-19T06:52:26Z</time>
      </trkpt>
      <trkpt lat="42.46787" lon="3.15376">
        <ele>127.25390625</ele>
        <time>2012-10-19T06:52:36Z</time>
      </trkpt>
      <trkpt lat="42.46778" lon="3.15411">
        <ele>125.5546875</ele>
        <time>2012-10-19T06:52:46Z</time>
      </trkpt>
      <trkpt lat="42.46778" lon="3.15569">
        <ele>104.5546875</ele>
        <time>2012-10-19T06:52:58Z</time>
      </trkpt>
      <trkpt lat="42.46765" lon="3.15587">
        <ele>106.33203125</ele>
        <time>2012-10-19T06:53:11Z</time>
      </trkpt>
      <trkpt lat="42.46748" lon="3.15587">
        <ele>111.30078125</ele>
        <time>2012-10-19T06:53:24Z</time>
      </trkpt>
      <trkpt lat="42.46701" lon="3.15531">
        <ele>115.6875</ele>
        <time>2012-10-19T06:53:37Z</time>
      </trkpt>
      <trkpt lat="42.46671" lon="3.15505">
        <ele>119.609375</ele>
        <time>2012-10-19T06:53:49Z</time>
      </trkpt>
      <trkpt lat="42.46654" lon="3.15509">
        <ele>118.140625</ele>
        <time>2012-10-19T06:54:00Z</time>
      </trkpt>
      <trkpt lat="42.46606" lon="3.15548">
        <ele>108.09375</ele>
        <time>2012-10-19T06:54:11Z</time>
      </trkpt>
      <trkpt lat="42.46589" lon="3.15557">
        <ele>105.6171875</ele>
        <time>2012-10-19T06:54:22Z</time>
      </trkpt>
      <trkpt lat="42.46563" lon="3.15548">
        <ele>103.5625</ele>
        <time>2012-10-19T06:54:33Z</time>
      </trkpt>
      <trkpt lat="42.46521" lon="3.15492">
        <ele>103.14453125</ele>
        <time>2012-10-19T06:54:44Z</time>
      </trkpt>
      <trkpt lat="42.46508" lon="3.15471">
        <ele>102.5546875</ele>
        <time>2012-10-19T06:54:55Z</time>
      </trkpt>
      <trkpt lat="42.46482" lon="3.15316">
        <ele>96.37109375</ele>
        <time>2012-10-19T06:55:07Z</time>
      </trkpt>
      <trkpt lat="42.46491" lon="3.15282">
        <ele>96.3203125</ele>
        <time>2012-10-19T06:55:20Z</time>
      </trkpt>
      <trkpt lat="42.46521" lon="3.15235">
        <ele>101.28125</ele>
        <time>2012-10-19T06:55:33Z</time>
      </trkpt>
      <trkpt lat="42.46538" lon="3.15192">
        <ele>105.33984375</ele>
        <time>2012-10-19T06:55:46Z</time>
      </trkpt>
      <trkpt lat="42.46546" lon="3.15149">
        <ele>106.0625</ele>
        <time>2012-10-19T06:55:58Z</time>
      </trkpt>
      <trkpt lat="42.46542" lon="3.15132">
        <ele>106.38671875</ele>
        <time>2012-10-19T06:56:11Z</time>
      </trkpt>
      <trkpt lat="42.46529" lon="3.15119">
        <ele>106.3984375</ele>
        <time>2012-10-19T06:56:23Z</time>
      </trkpt>
      <trkpt lat="42.46516" lon="3.15123">
        <ele>102.90234375</ele>
        <time>2012-10-19T06:56:35Z</time>
      </trkpt>
      <trkpt lat="42.46491" lon="3.1514">
        <ele>93.15234375</ele>
        <time>2012-10-19T06:56:49Z</time>
      </trkpt>
      <trkpt lat="42.46469" lon="3.15149">
        <ele>91.234375</ele>
        <time>2012-10-19T06:57:02Z</time>
      </trkpt>
      <trkpt lat="42.46366" lon="3.15132">
        <ele>83</ele>
        <time>2012-10-19T06:57:15Z</time>
      </trkpt>
      <trkpt lat="42.4631" lon="3.15097">
        <ele>77.36328125</ele>
        <time>2012-10-19T06:57:28Z</time>
      </trkpt>
      <trkpt lat="42.46289" lon="3.15063">
        <ele>77.265625</ele>
        <time>2012-10-19T06:57:40Z</time>
      </trkpt>
      <trkpt lat="42.46272" lon="3.15016">
        <ele>79.08984375</ele>
        <time>2012-10-19T06:57:53Z</time>
      </trkpt>
      <trkpt lat="42.4625" lon="3.14982">
        <ele>75.6640625</ele>
        <time>2012-10-19T06:58:09Z</time>
      </trkpt>
      <trkpt lat="42.46203" lon="3.1496">
        <ele>69.87890625</ele>
        <time>2012-10-19T06:58:26Z</time>
      </trkpt>
      <trkpt lat="42.4619" lon="3.14939">
        <ele>71.42578125</ele>
        <time>2012-10-19T06:58:42Z</time>
      </trkpt>
      <trkpt lat="42.4619" lon="3.14926">
        <ele>73.74609375</ele>
        <time>2012-10-19T06:58:58Z</time>
      </trkpt>
      <trkpt lat="42.4619" lon="3.149">
        <ele>78.3828125</ele>
        <time>2012-10-19T06:59:13Z</time>
      </trkpt>
      <trkpt lat="42.46207" lon="3.14857">
        <ele>87.71484375</ele>
        <time>2012-10-19T06:59:27Z</time>
      </trkpt>
      <trkpt lat="42.46203" lon="3.1484">
        <ele>89.8671875</ele>
        <time>2012-10-19T06:59:41Z</time>
      </trkpt>
      <trkpt lat="42.4619" lon="3.14831">
        <ele>90.83203125</ele>
        <time>2012-10-19T06:59:56Z</time>
      </trkpt>
      <trkpt lat="42.46139" lon="3.14883">
        <ele>78.58203125</ele>
        <time>2012-10-19T07:00:10Z</time>
      </trkpt>
      <trkpt lat="42.46109" lon="3.14921">
        <ele>74.23046875</ele>
        <time>2012-10-19T07:00:24Z</time>
      </trkpt>
      <trkpt lat="42.46104" lon="3.14947">
        <ele>70.609375</ele>
        <time>2012-10-19T07:00:38Z</time>
      </trkpt>
      <trkpt lat="42.46109" lon="3.15003">
        <ele>61.8125</ele>
        <time>2012-10-19T07:00:54Z</time>
      </trkpt>
      <trkpt lat="42.46106" lon="3.1501">
        <ele>61.0546875</ele>
        <time>2012-10-19T07:01:14Z</time>
      </trkpt>
      <trkpt lat="42.461" lon="3.15029">
        <ele>59.02734375</ele>
        <time>2012-10-19T07:03:12Z</time>
      </trkpt>
      <trkpt lat="42.46091" lon="3.15033">
        <ele>59.33984375</ele>
        <time>2012-10-19T07:03:29Z</time>
      </trkpt>
      <trkpt lat="42.46074" lon="3.15033">
        <ele>59.53125</ele>
        <time>2012-10-19T07:03:43Z</time>
      </trkpt>
      <trkpt lat="42.46036" lon="3.15007">
        <ele>54.46875</ele>
        <time>2012-10-19T07:03:56Z</time>
      </trkpt>
      <trkpt lat="42.46023" lon="3.14986">
        <ele>53.6171875</ele>
        <time>2012-10-19T07:04:09Z</time>
      </trkpt>
      <trkpt lat="42.46018" lon="3.14973">
        <ele>53.80078125</ele>
        <time>2012-10-19T07:04:23Z</time>
      </trkpt>
      <trkpt lat="42.46018" lon="3.14857">
        <ele>65.27734375</ele>
        <time>2012-10-19T07:04:37Z</time>
      </trkpt>
      <trkpt lat="42.46006" lon="3.14793">
        <ele>64.765625</ele>
        <time>2012-10-19T07:04:50Z</time>
      </trkpt>
      <trkpt lat="42.46006" lon="3.14767">
        <ele>67.13671875</ele>
        <time>2012-10-19T07:05:04Z</time>
      </trkpt>
      <trkpt lat="42.46018" lon="3.14728">
        <ele>73.546875</ele>
        <time>2012-10-19T07:05:18Z</time>
      </trkpt>
      <trkpt lat="42.4601" lon="3.14711">
        <ele>73.015625</ele>
        <time>2012-10-19T07:05:32Z</time>
      </trkpt>
      <trkpt lat="42.45997" lon="3.14715">
        <ele>70.16015625</ele>
        <time>2012-10-19T07:05:46Z</time>
      </trkpt>
      <trkpt lat="42.45971" lon="3.1475">
        <ele>71.56640625</ele>
        <time>2012-10-19T07:06:00Z</time>
      </trkpt>
      <trkpt lat="42.45941" lon="3.14814">
        <ele>65.1796875</ele>
        <time>2012-10-19T07:06:14Z</time>
      </trkpt>
      <trkpt lat="42.45937" lon="3.1484">
        <ele>62.02734375</ele>
        <time>2012-10-19T07:06:28Z</time>
      </trkpt>
      <trkpt lat="42.45941" lon="3.14879">
        <ele>56.72265625</ele>
        <time>2012-10-19T07:06:42Z</time>
      </trkpt>
      <trkpt lat="42.45937" lon="3.149">
        <ele>53.51171875</ele>
        <time>2012-10-19T07:06:56Z</time>
      </trkpt>
      <trkpt lat="42.45911" lon="3.149">
        <ele>52.57421875</ele>
        <time>2012-10-19T07:07:10Z</time>
      </trkpt>
      <trkpt lat="42.45855" lon="3.14861">
        <ele>60.7578125</ele>
        <time>2012-10-19T07:07:24Z</time>
      </trkpt>
      <trkpt lat="42.45838" lon="3.14844">
        <ele>63.69140625</ele>
        <time>2012-10-19T07:07:39Z</time>
      </trkpt>
      <trkpt lat="42.45825" lon="3.14844">
        <ele>64.6640625</ele>
        <time>2012-10-19T07:07:54Z</time>
      </trkpt>
      <trkpt lat="42.45817" lon="3.14857">
        <ele>64.6640625</ele>
        <time>2012-10-19T07:08:08Z</time>
      </trkpt>
      <trkpt lat="42.4583" lon="3.14934">
        <ele>55.50390625</ele>
        <time>2012-10-19T07:08:23Z</time>
      </trkpt>
      <trkpt lat="42.45821" lon="3.14994">
        <ele>59.5703125</ele>
        <time>2012-10-19T07:08:37Z</time>
      </trkpt>
      <trkpt lat="42.45825" lon="3.1502">
        <ele>60.65234375</ele>
        <time>2012-10-19T07:08:51Z</time>
      </trkpt>
      <trkpt lat="42.45873" lon="3.15089">
        <ele>53.390625</ele>
        <time>2012-10-19T07:09:05Z</time>
      </trkpt>
      <trkpt lat="42.45894" lon="3.15162">
        <ele>51.015625</ele>
        <time>2012-10-19T07:09:20Z</time>
      </trkpt>
      <trkpt lat="42.45903" lon="3.152">
        <ele>50.39453125</ele>
        <time>2012-10-19T07:09:34Z</time>
      </trkpt>
      <trkpt lat="42.45898" lon="3.15295">
        <ele>52.0546875</ele>
        <time>2012-10-19T07:09:49Z</time>
      </trkpt>
      <trkpt lat="42.45911" lon="3.15355">
        <ele>44.90234375</ele>
        <time>2012-10-19T07:10:04Z</time>
      </trkpt>
      <trkpt lat="42.45903" lon="3.15385">
        <ele>43.3515625</ele>
        <time>2012-10-19T07:10:20Z</time>
      </trkpt>
      <trkpt lat="42.4589" lon="3.15393">
        <ele>43.3046875</ele>
        <time>2012-10-19T07:10:35Z</time>
      </trkpt>
      <trkpt lat="42.45868" lon="3.15393">
        <ele>44.80859375</ele>
        <time>2012-10-19T07:10:50Z</time>
      </trkpt>
      <trkpt lat="42.45808" lon="3.15363">
        <ele>57.59375</ele>
        <time>2012-10-19T07:11:05Z</time>
      </trkpt>
      <trkpt lat="42.45787" lon="3.15368">
        <ele>59.0078125</ele>
        <time>2012-10-19T07:11:20Z</time>
      </trkpt>
      <trkpt lat="42.45679" lon="3.15479">
        <ele>50.90234375</ele>
        <time>2012-10-19T07:11:35Z</time>
      </trkpt>
      <trkpt lat="42.45645" lon="3.15492">
        <ele>57.55078125</ele>
        <time>2012-10-19T07:11:50Z</time>
      </trkpt>
      <trkpt lat="42.45632" lon="3.15505">
        <ele>60.4140625</ele>
        <time>2012-10-19T07:12:05Z</time>
      </trkpt>
      <trkpt lat="42.45632" lon="3.15522">
        <ele>60.25390625</ele>
        <time>2012-10-19T07:12:21Z</time>
      </trkpt>
      <trkpt lat="42.45641" lon="3.15544">
        <ele>57.6875</ele>
        <time>2012-10-19T07:12:38Z</time>
      </trkpt>
      <trkpt lat="42.45667" lon="3.15591">
        <ele>52.78125</ele>
        <time>2012-10-19T07:12:56Z</time>
      </trkpt>
      <trkpt lat="42.45692" lon="3.15617">
        <ele>50</ele>
        <time>2012-10-19T07:13:14Z</time>
      </trkpt>
      <trkpt lat="42.45701" lon="3.15642">
        <ele>50.1640625</ele>
        <time>2012-10-19T07:13:32Z</time>
      </trkpt>
      <trkpt lat="42.45705" lon="3.1566">
        <ele>48.7734375</ele>
        <time>2012-10-19T07:13:49Z</time>
      </trkpt>
      <trkpt lat="42.45688" lon="3.15728">
        <ele>49.15234375</ele>
        <time>2012-10-19T07:14:05Z</time>
      </trkpt>
      <trkpt lat="42.45688" lon="3.15754">
        <ele>46.6484375</ele>
        <time>2012-10-19T07:14:20Z</time>
      </trkpt>
      <trkpt lat="42.45615" lon="3.15831">
        <ele>50.98828125</ele>
        <time>2012-10-19T07:14:34Z</time>
      </trkpt>
      <trkpt lat="42.45572" lon="3.1587">
        <ele>51.24609375</ele>
        <time>2012-10-19T07:14:48Z</time>
      </trkpt>
      <trkpt lat="42.45564" lon="3.15866">
        <ele>52.19140625</ele>
        <time>2012-10-19T07:15:02Z</time>
      </trkpt>
      <trkpt lat="42.45546" lon="3.15874">
        <ele>51.14453125</ele>
        <time>2012-10-19T07:15:15Z</time>
      </trkpt>
      <trkpt lat="42.45529" lon="3.1587">
        <ele>52.41796875</ele>
        <time>2012-10-19T07:15:28Z</time>
      </trkpt>
      <trkpt lat="42.45508" lon="3.15836">
        <ele>61.16796875</ele>
        <time>2012-10-19T07:15:42Z</time>
      </trkpt>
      <trkpt lat="42.45491" lon="3.15831">
        <ele>63.79296875</ele>
        <time>2012-10-19T07:15:57Z</time>
      </trkpt>
      <trkpt lat="42.45452" lon="3.1584">
        <ele>66.07421875</ele>
        <time>2012-10-19T07:16:15Z</time>
      </trkpt>
      <trkpt lat="42.45396" lon="3.15883">
        <ele>55.4765625</ele>
        <time>2012-10-19T07:16:35Z</time>
      </trkpt>
      <trkpt lat="42.45358" lon="3.15887">
        <ele>51.3359375</ele>
        <time>2012-10-19T07:16:50Z</time>
      </trkpt>
      <trkpt lat="42.45336" lon="3.15878">
        <ele>52.89453125</ele>
        <time>2012-10-19T07:17:05Z</time>
      </trkpt>
      <trkpt lat="42.45319" lon="3.15866">
        <ele>55.44140625</ele>
        <time>2012-10-19T07:17:22Z</time>
      </trkpt>
      <trkpt lat="42.45259" lon="3.15797">
        <ele>63.19140625</ele>
        <time>2012-10-19T07:17:40Z</time>
      </trkpt>
      <trkpt lat="42.45246" lon="3.15767">
        <ele>68.67578125</ele>
        <time>2012-10-19T07:17:58Z</time>
      </trkpt>
      <trkpt lat="42.45233" lon="3.15754">
        <ele>71.015625</ele>
        <time>2012-10-19T07:18:15Z</time>
      </trkpt>
      <trkpt lat="42.4522" lon="3.15754">
        <ele>69.65625</ele>
        <time>2012-10-19T07:18:32Z</time>
      </trkpt>
      <trkpt lat="42.45152" lon="3.15784">
        <ele>57.26953125</ele>
        <time>2012-10-19T07:18:49Z</time>
      </trkpt>
      <trkpt lat="42.45122" lon="3.15788">
        <ele>54.10546875</ele>
        <time>2012-10-19T07:19:06Z</time>
      </trkpt>
      <trkpt lat="42.45113" lon="3.15784">
        <ele>54.09375</ele>
        <time>2012-10-19T07:19:25Z</time>
      </trkpt>
      <trkpt lat="42.451" lon="3.15763">
        <ele>56.30859375</ele>
        <time>2012-10-19T07:19:44Z</time>
      </trkpt>
      <trkpt lat="42.451" lon="3.15739">
        <ele>59.87890625</ele>
        <time>2012-10-19T07:20:02Z</time>
      </trkpt>
      <trkpt lat="42.451" lon="3.15677">
        <ele>69.82421875</ele>
        <time>2012-10-19T07:20:20Z</time>
      </trkpt>
      <trkpt lat="42.45096" lon="3.1566">
        <ele>71.88671875</ele>
        <time>2012-10-19T07:20:37Z</time>
      </trkpt>
      <trkpt lat="42.45087" lon="3.15655">
        <ele>71.12109375</ele>
        <time>2012-10-19T07:20:55Z</time>
      </trkpt>
      <trkpt lat="42.45074" lon="3.15668">
        <ele>69.01953125</ele>
        <time>2012-10-19T07:21:13Z</time>
      </trkpt>
      <trkpt lat="42.45053" lon="3.15707">
        <ele>65.90234375</ele>
        <time>2012-10-19T07:21:31Z</time>
      </trkpt>
      <trkpt lat="42.44984" lon="3.15771">
        <ele>65.015625</ele>
        <time>2012-10-19T07:21:48Z</time>
      </trkpt>
      <trkpt lat="42.44967" lon="3.15797">
        <ele>67.3671875</ele>
        <time>2012-10-19T07:22:05Z</time>
      </trkpt>
      <trkpt lat="42.44958" lon="3.15964">
        <ele>55.55859375</ele>
        <time>2012-10-19T07:22:24Z</time>
      </trkpt>
      <trkpt lat="42.44954" lon="3.1599">
        <ele>54.046875</ele>
        <time>2012-10-19T07:22:44Z</time>
      </trkpt>
      <trkpt lat="42.44937" lon="3.16007">
        <ele>55.50390625</ele>
        <time>2012-10-19T07:23:04Z</time>
      </trkpt>
      <trkpt lat="42.44881" lon="3.16011">
        <ele>66.69921875</ele>
        <time>2012-10-19T07:23:23Z</time>
      </trkpt>
      <trkpt lat="42.44864" lon="3.16037">
        <ele>67.64453125</ele>
        <time>2012-10-19T07:23:42Z</time>
      </trkpt>
      <trkpt lat="42.4486" lon="3.16063">
        <ele>66.59375</ele>
        <time>2012-10-19T07:24:01Z</time>
      </trkpt>
      <trkpt lat="42.44894" lon="3.16187">
        <ele>54.65625</ele>
        <time>2012-10-19T07:24:20Z</time>
      </trkpt>
      <trkpt lat="42.44894" lon="3.16222">
        <ele>54.3671875</ele>
        <time>2012-10-19T07:24:39Z</time>
      </trkpt>
      <trkpt lat="42.44881" lon="3.16265">
        <ele>55.0234375</ele>
        <time>2012-10-19T07:24:57Z</time>
      </trkpt>
      <trkpt lat="42.44864" lon="3.16342">
        <ele>51.3125</ele>
        <time>2012-10-19T07:25:18Z</time>
      </trkpt>
      <trkpt lat="42.44847" lon="3.16359">
        <ele>53.7890625</ele>
        <time>2012-10-19T07:25:38Z</time>
      </trkpt>
      <trkpt lat="42.44817" lon="3.16363">
        <ele>62.15625</ele>
        <time>2012-10-19T07:25:56Z</time>
      </trkpt>
      <trkpt lat="42.44804" lon="3.16372">
        <ele>65.0390625</ele>
        <time>2012-10-19T07:26:14Z</time>
      </trkpt>
      <trkpt lat="42.44795" lon="3.16393">
        <ele>65.0859375</ele>
        <time>2012-10-19T07:26:32Z</time>
      </trkpt>
      <trkpt lat="42.44791" lon="3.16415">
        <ele>64.52734375</ele>
        <time>2012-10-19T07:26:50Z</time>
      </trkpt>
      <trkpt lat="42.44804" lon="3.16514">
        <ele>51.203125</ele>
        <time>2012-10-19T07:27:08Z</time>
      </trkpt>
      <trkpt lat="42.44795" lon="3.16544">
        <ele>51.52734375</ele>
        <time>2012-10-19T07:27:25Z</time>
      </trkpt>
      <trkpt lat="42.44787" lon="3.16569">
        <ele>51.140625</ele>
        <time>2012-10-19T07:27:42Z</time>
      </trkpt>
      <trkpt lat="42.44761" lon="3.16608">
        <ele>52.62890625</ele>
        <time>2012-10-19T07:28:00Z</time>
      </trkpt>
      <trkpt lat="42.44752" lon="3.16617">
        <ele>53.69921875</ele>
        <time>2012-10-19T07:28:18Z</time>
      </trkpt>
      <trkpt lat="42.44718" lon="3.16651">
        <ele>52</ele>
        <time>2012-10-19T07:28:35Z</time>
      </trkpt>
      <trkpt lat="42.44684" lon="3.16655">
        <ele>55.0546875</ele>
        <time>2012-10-19T07:28:52Z</time>
      </trkpt>
      <trkpt lat="42.44662" lon="3.1666">
        <ele>56.71875</ele>
        <time>2012-10-19T07:29:09Z</time>
      </trkpt>
      <trkpt lat="42.44654" lon="3.16651">
        <ele>59.15625</ele>
        <time>2012-10-19T07:29:26Z</time>
      </trkpt>
      <trkpt lat="42.44632" lon="3.16642">
        <ele>63.04296875</ele>
        <time>2012-10-19T07:29:44Z</time>
      </trkpt>
      <trkpt lat="42.44607" lon="3.16681">
        <ele>57.890625</ele>
        <time>2012-10-19T07:30:03Z</time>
      </trkpt>
      <trkpt lat="42.44581" lon="3.16694">
        <ele>57.44140625</ele>
        <time>2012-10-19T07:30:22Z</time>
      </trkpt>
      <trkpt lat="42.44465" lon="3.16677">
        <ele>50.3671875</ele>
        <time>2012-10-19T07:30:40Z</time>
      </trkpt>
      <trkpt lat="42.44443" lon="3.16668">
        <ele>48.62890625</ele>
        <time>2012-10-19T07:30:59Z</time>
      </trkpt>
      <trkpt lat="42.44422" lon="3.1669">
        <ele>42.03515625</ele>
        <time>2012-10-19T07:31:18Z</time>
      </trkpt>
      <trkpt lat="42.44396" lon="3.16702">
        <ele>36.1953125</ele>
        <time>2012-10-19T07:31:36Z</time>
      </trkpt>
      <trkpt lat="42.44358" lon="3.16647">
        <ele>35.23828125</ele>
        <time>2012-10-19T07:31:54Z</time>
      </trkpt>
      <trkpt lat="42.44349" lon="3.16647">
        <ele>33.4296875</ele>
        <time>2012-10-19T07:32:11Z</time>
      </trkpt>
      <trkpt lat="42.4434" lon="3.16638">
        <ele>32.2890625</ele>
        <time>2012-10-19T07:32:29Z</time>
      </trkpt>
      <trkpt lat="42.44315" lon="3.16604">
        <ele>29.265625</ele>
        <time>2012-10-19T07:32:47Z</time>
      </trkpt>
      <trkpt lat="42.44302" lon="3.16544">
        <ele>28.91796875</ele>
        <time>2012-10-19T07:33:05Z</time>
      </trkpt>
      <trkpt lat="42.44298" lon="3.16539">
        <ele>28.02734375</ele>
        <time>2012-10-19T07:33:23Z</time>
      </trkpt>
      <trkpt lat="42.44289" lon="3.16539">
        <ele>26.12890625</ele>
        <time>2012-10-19T07:33:41Z</time>
      </trkpt>
      <trkpt lat="42.44285" lon="3.16552">
        <ele>24.6171875</ele>
        <time>2012-10-19T07:33:59Z</time>
      </trkpt>
      <trkpt lat="42.44289" lon="3.16565">
        <ele>25.19921875</ele>
        <time>2012-10-19T07:34:18Z</time>
      </trkpt>
      <trkpt lat="42.44289" lon="3.16569">
        <ele>25.04296875</ele>
        <time>2012-10-19T07:34:37Z</time>
      </trkpt>
      <trkpt lat="42.44298" lon="3.16599">
        <ele>25.81640625</ele>
        <time>2012-10-19T07:34:56Z</time>
      </trkpt>
      <trkpt lat="42.44289" lon="3.16612">
        <ele>23.5</ele>
        <time>2012-10-19T07:35:15Z</time>
      </trkpt>
      <trkpt lat="42.44272" lon="3.16642">
        <ele>19.30859375</ele>
        <time>2012-10-19T07:35:33Z</time>
      </trkpt>
      <trkpt lat="42.44259" lon="3.1666">
        <ele>16.296875</ele>
        <time>2012-10-19T07:35:51Z</time>
      </trkpt>
      <trkpt lat="42.44255" lon="3.16668">
        <ele>15.22265625</ele>
        <time>2012-10-19T07:36:08Z</time>
      </trkpt>
      <trkpt lat="42.44246" lon="3.16651">
        <ele>14.4296875</ele>
        <time>2012-10-19T07:36:25Z</time>
      </trkpt>
      <trkpt lat="42.44268" lon="3.16625">
        <ele>18.890625</ele>
        <time>2012-10-19T07:36:49Z</time>
      </trkpt>
      <trkpt lat="42.44272" lon="3.16617">
        <ele>19.90234375</ele>
        <time>2012-10-19T07:37:19Z</time>
      </trkpt>
      <trkpt lat="42.44268" lon="3.16587">
        <ele>19.5625</ele>
        <time>2012-10-19T07:37:42Z</time>
      </trkpt>
      <trkpt lat="42.44246" lon="3.16565">
        <ele>14.89453125</ele>
        <time>2012-10-19T07:38:02Z</time>
      </trkpt>
      <trkpt lat="42.44237" lon="3.16587">
        <ele>14.03125</ele>
        <time>2012-10-19T07:38:22Z</time>
      </trkpt>
      <trkpt lat="42.44229" lon="3.16578">
        <ele>13.33203125</ele>
        <time>2012-10-19T07:38:45Z</time>
      </trkpt>
      <trkpt lat="42.4422" lon="3.16574">
        <ele>12.66015625</ele>
        <time>2012-10-19T07:39:06Z</time>
      </trkpt>
      <trkpt lat="42.44188" lon="3.16548">
        <ele>11.26171875</ele>
        <time>2012-10-19T07:39:26Z</time>
      </trkpt>
      <trkpt lat="42.4419" lon="3.16544">
        <ele>11.6796875</ele>
        <time>2012-10-19T07:39:44Z</time>
      </trkpt>
      <trkpt lat="42.44188" lon="3.16548">
        <ele>11.26171875</ele>
        <time>2012-10-19T07:40:02Z</time>
      </trkpt>
      <trkpt lat="42.44177" lon="3.16539">
        <ele>10.8046875</ele>
        <time>2012-10-19T07:40:19Z</time>
      </trkpt>
      <trkpt lat="42.44147" lon="3.16531">
        <ele>10.74609375</ele>
        <time>2012-10-19T07:40:36Z</time>
      </trkpt>
      <trkpt lat="42.44139" lon="3.16509">
        <ele>12.1640625</ele>
        <time>2012-10-19T07:40:53Z</time>
      </trkpt>
      <trkpt lat="42.44139" lon="3.16479">
        <ele>13.57421875</ele>
        <time>2012-10-19T07:41:10Z</time>
      </trkpt>
      <trkpt lat="42.44143" lon="3.16462">
        <ele>14.15234375</ele>
        <time>2012-10-19T07:41:27Z</time>
      </trkpt>
      <trkpt lat="42.44134" lon="3.16454">
        <ele>15.08203125</ele>
        <time>2012-10-19T07:41:44Z</time>
      </trkpt>
      <trkpt lat="42.44126" lon="3.16441">
        <ele>16.05078125</ele>
        <time>2012-10-19T07:42:01Z</time>
      </trkpt>
      <trkpt lat="42.44109" lon="3.16428">
        <ele>17.10546875</ele>
        <time>2012-10-19T07:42:17Z</time>
      </trkpt>
      <trkpt lat="42.44096" lon="3.16415">
        <ele>17.68359375</ele>
        <time>2012-10-19T07:42:34Z</time>
      </trkpt>
      <trkpt lat="42.44083" lon="3.16436">
        <ele>17.9140625</ele>
        <time>2012-10-19T07:42:51Z</time>
      </trkpt>
      <trkpt lat="42.44087" lon="3.16454">
        <ele>17.6484375</ele>
        <time>2012-10-19T07:43:08Z</time>
      </trkpt>
      <trkpt lat="42.44057" lon="3.16475">
        <ele>23.875</ele>
        <time>2012-10-19T07:43:25Z</time>
      </trkpt>
      <trkpt lat="42.44053" lon="3.16462">
        <ele>25.03515625</ele>
        <time>2012-10-19T07:43:42Z</time>
      </trkpt>
      <trkpt lat="42.4404" lon="3.16471">
        <ele>28.28125</ele>
        <time>2012-10-19T07:43:59Z</time>
      </trkpt>
      <trkpt lat="42.44027" lon="3.16488">
        <ele>30.5234375</ele>
        <time>2012-10-19T07:44:18Z</time>
      </trkpt>
      <trkpt lat="42.43997" lon="3.16535">
        <ele>34.703125</ele>
        <time>2012-10-19T07:44:37Z</time>
      </trkpt>
      <trkpt lat="42.44006" lon="3.16587">
        <ele>26.80859375</ele>
        <time>2012-10-19T07:44:55Z</time>
      </trkpt>
      <trkpt lat="42.44001" lon="3.16604">
        <ele>25.390625</ele>
        <time>2012-10-19T07:45:12Z</time>
      </trkpt>
      <trkpt lat="42.43971" lon="3.1666">
        <ele>27.125</ele>
        <time>2012-10-19T07:45:29Z</time>
      </trkpt>
      <trkpt lat="42.43993" lon="3.16668">
        <ele>21.24609375</ele>
        <time>2012-10-19T07:45:46Z</time>
      </trkpt>
      <trkpt lat="42.43993" lon="3.16685">
        <ele>20.66015625</ele>
        <time>2012-10-19T07:46:03Z</time>
      </trkpt>
      <trkpt lat="42.43971" lon="3.16711">
        <ele>25.8515625</ele>
        <time>2012-10-19T07:46:21Z</time>
      </trkpt>
      <trkpt lat="42.43984" lon="3.16724">
        <ele>21.8359375</ele>
        <time>2012-10-19T07:46:39Z</time>
      </trkpt>
      <trkpt lat="42.44006" lon="3.1672">
        <ele>16.3828125</ele>
        <time>2012-10-19T07:48:30Z</time>
      </trkpt>
      <trkpt lat="42.44014" lon="3.16728">
        <ele>14.6328125</ele>
        <time>2012-10-19T07:48:53Z</time>
      </trkpt>
      <trkpt lat="42.44031" lon="3.16758">
        <ele>12.13671875</ele>
        <time>2012-10-19T07:49:13Z</time>
      </trkpt>
      <trkpt lat="42.44036" lon="3.16775">
        <ele>11.75</ele>
        <time>2012-10-19T07:49:33Z</time>
      </trkpt>
      <trkpt lat="42.44014" lon="3.16848">
        <ele>19.16796875</ele>
        <time>2012-10-19T07:49:51Z</time>
      </trkpt>
      <trkpt lat="42.44006" lon="3.1687">
        <ele>21.640625</ele>
        <time>2012-10-19T07:50:09Z</time>
      </trkpt>
      <trkpt lat="42.43984" lon="3.16896">
        <ele>27.02734375</ele>
        <time>2012-10-19T07:50:29Z</time>
      </trkpt>
      <trkpt lat="42.43916" lon="3.16921">
        <ele>41.7265625</ele>
        <time>2012-10-19T07:50:48Z</time>
      </trkpt>
      <trkpt lat="42.43903" lon="3.16934">
        <ele>45.18359375</ele>
        <time>2012-10-19T07:51:05Z</time>
      </trkpt>
      <trkpt lat="42.43903" lon="3.16947">
        <ele>45.18359375</ele>
        <time>2012-10-19T07:51:21Z</time>
      </trkpt>
      <trkpt lat="42.43907" lon="3.16956">
        <ele>44</ele>
        <time>2012-10-19T07:51:37Z</time>
      </trkpt>
      <trkpt lat="42.43959" lon="3.16986">
        <ele>34.66796875</ele>
        <time>2012-10-19T07:51:56Z</time>
      </trkpt>
      <trkpt lat="42.43997" lon="3.17007">
        <ele>28.28515625</ele>
        <time>2012-10-19T07:53:31Z</time>
      </trkpt>
      <trkpt lat="42.44001" lon="3.17016">
        <ele>27.18359375</ele>
        <time>2012-10-19T07:53:51Z</time>
      </trkpt>
      <trkpt lat="42.43997" lon="3.17037">
        <ele>29.375</ele>
        <time>2012-10-19T07:54:11Z</time>
      </trkpt>
      <trkpt lat="42.4398" lon="3.17067">
        <ele>33.50390625</ele>
        <time>2012-10-19T07:54:31Z</time>
      </trkpt>
      <trkpt lat="42.4392" lon="3.17153">
        <ele>47.10546875</ele>
        <time>2012-10-19T07:54:59Z</time>
      </trkpt>
      <trkpt lat="42.43911" lon="3.1717">
        <ele>50.10546875</ele>
        <time>2012-10-19T07:55:17Z</time>
      </trkpt>
      <trkpt lat="42.43911" lon="3.17192">
        <ele>50.72265625</ele>
        <time>2012-10-19T07:55:34Z</time>
      </trkpt>
      <trkpt lat="42.43916" lon="3.17196">
        <ele>49.734375</ele>
        <time>2012-10-19T07:55:51Z</time>
      </trkpt>
      <trkpt lat="42.43946" lon="3.17209">
        <ele>44.42578125</ele>
        <time>2012-10-19T07:56:09Z</time>
      </trkpt>
      <trkpt lat="42.44006" lon="3.1723">
        <ele>35.2421875</ele>
        <time>2012-10-19T07:56:26Z</time>
      </trkpt>
      <trkpt lat="42.44023" lon="3.17247">
        <ele>33.765625</ele>
        <time>2012-10-19T07:56:47Z</time>
      </trkpt>
      <trkpt lat="42.44027" lon="3.17312">
        <ele>38.77734375</ele>
        <time>2012-10-19T07:57:08Z</time>
      </trkpt>
      <trkpt lat="42.44036" lon="3.17411">
        <ele>39.6796875</ele>
        <time>2012-10-19T07:57:22Z</time>
      </trkpt>
      <trkpt lat="42.44031" lon="3.17514">
        <ele>35.76171875</ele>
        <time>2012-10-19T07:57:34Z</time>
      </trkpt>
      <trkpt lat="42.44027" lon="3.17535">
        <ele>34.0625</ele>
        <time>2012-10-19T07:57:52Z</time>
      </trkpt>
      <trkpt lat="42.44014" lon="3.17552">
        <ele>34.0625</ele>
        <time>2012-10-19T07:58:12Z</time>
      </trkpt>
      <trkpt lat="42.44001" lon="3.17552">
        <ele>35.91796875</ele>
        <time>2012-10-19T07:58:33Z</time>
      </trkpt>
      <trkpt lat="42.43997" lon="3.17544">
        <ele>37.3203125</ele>
        <time>2012-10-19T07:58:50Z</time>
      </trkpt>
      <trkpt lat="42.43997" lon="3.17531">
        <ele>38.6328125</ele>
        <time>2012-10-19T07:59:06Z</time>
      </trkpt>
      <trkpt lat="42.43997" lon="3.17531">
        <ele>38.6328125</ele>
        <time>2012-10-19T07:59:23Z</time>
      </trkpt>
      <trkpt lat="42.28983" lon="3.28143">
        <ele>16.96</ele>
        <time>2012-10-19T07:59:40Z</time>
      </trkpt>
      <trkpt lat="42.28983" lon="3.28144">
        <ele>3.98</ele>
        <time>2012-10-19T07:59:57Z</time>
      </trkpt>
      <trkpt lat="42.28983" lon="3.2814">
        <ele>3.98</ele>
        <time>2012-10-19T08:00:15Z</time>
      </trkpt>
      <trkpt lat="42.28982" lon="3.28139">
        <ele>16</ele>
        <time>2012-10-19T08:00:34Z</time>
      </trkpt>
      <trkpt lat="42.28989" lon="3.28137">
        <ele>11.19</ele>
        <time>2012-10-19T08:00:53Z</time>
      </trkpt>
      <trkpt lat="42.28929" lon="3.28132">
        <ele>2.54</ele>
        <time>2012-10-19T08:01:11Z</time>
      </trkpt>
      <trkpt lat="42.28875" lon="3.28031">
        <ele>14</ele>
        <time>2012-10-19T08:01:29Z</time>
      </trkpt>
      <trkpt lat="42.28902" lon="3.2792">
        <ele>12</ele>
        <time>2012-10-19T08:01:47Z</time>
      </trkpt>
      <trkpt lat="42.28882" lon="3.27799">
        <ele>8</ele>
        <time>2012-10-19T08:02:03Z</time>
      </trkpt>
      <trkpt lat="42.28959" lon="3.27723">
        <ele>1.1</ele>
        <time>2012-10-19T08:02:19Z</time>
      </trkpt>
      <trkpt lat="42.28998" lon="3.27605">
        <ele>1.58</ele>
        <time>2012-10-19T08:02:39Z</time>
      </trkpt>
      <trkpt lat="42.29007" lon="3.27475">
        <ele>3.02</ele>
        <time>2012-10-19T08:02:57Z</time>
      </trkpt>
      <trkpt lat="42.29038" lon="3.27373">
        <ele>8.31</ele>
        <time>2012-10-19T08:03:17Z</time>
      </trkpt>
      <trkpt lat="42.29092" lon="3.27271">
        <ele>13.12</ele>
        <time>2012-10-19T08:03:39Z</time>
      </trkpt>
      <trkpt lat="42.29019" lon="3.27227">
        <ele>19.36</ele>
        <time>2012-10-19T08:03:58Z</time>
      </trkpt>
      <trkpt lat="42.28944" lon="3.27161">
        <ele>25.13</ele>
        <time>2012-10-19T08:04:18Z</time>
      </trkpt>
      <trkpt lat="42.28901" lon="3.27057">
        <ele>32.34</ele>
        <time>2012-10-19T08:04:38Z</time>
      </trkpt>
      <trkpt lat="42.28948" lon="3.26985">
        <ele>40.51</ele>
        <time>2012-10-19T08:04:57Z</time>
      </trkpt>
      <trkpt lat="42.29041" lon="3.26996">
        <ele>47.24</ele>
        <time>2012-10-19T08:05:14Z</time>
      </trkpt>
      <trkpt lat="42.29128" lon="3.27031">
        <ele>53.97</ele>
        <time>2012-10-19T08:05:30Z</time>
      </trkpt>
      <trkpt lat="42.2922" lon="3.27011">
        <ele>60.7</ele>
        <time>2012-10-19T08:05:48Z</time>
      </trkpt>
      <trkpt lat="42.29292" lon="3.26947">
        <ele>66.47</ele>
        <time>2012-10-19T08:06:07Z</time>
      </trkpt>
      <trkpt lat="42.29269" lon="3.26827">
        <ele>72.72</ele>
        <time>2012-10-19T08:06:27Z</time>
      </trkpt>
      <trkpt lat="42.29267" lon="3.26704">
        <ele>79.45</ele>
        <time>2012-10-19T08:06:47Z</time>
      </trkpt>
      <trkpt lat="42.29245" lon="3.26591">
        <ele>86.18</ele>
        <time>2012-10-19T08:07:06Z</time>
      </trkpt>
      <trkpt lat="42.29294" lon="3.2649">
        <ele>91.46</ele>
        <time>2012-10-19T08:07:24Z</time>
      </trkpt>
      <trkpt lat="42.29285" lon="3.2638">
        <ele>96.75</ele>
        <time>2012-10-19T08:07:42Z</time>
      </trkpt>
      <trkpt lat="42.29315" lon="3.26274">
        <ele>101.56</ele>
        <time>2012-10-19T08:08:00Z</time>
      </trkpt>
      <trkpt lat="42.294" lon="3.26228">
        <ele>105.88</ele>
        <time>2012-10-19T08:08:19Z</time>
      </trkpt>
      <trkpt lat="42.2938" lon="3.26147">
        <ele>109.73</ele>
        <time>2012-10-19T08:08:38Z</time>
      </trkpt>
      <trkpt lat="42.29338" lon="3.26051">
        <ele>112.61</ele>
        <time>2012-10-19T08:08:56Z</time>
      </trkpt>
      <trkpt lat="42.29398" lon="3.25962">
        <ele>115.5</ele>
        <time>2012-10-19T08:09:13Z</time>
      </trkpt>
      <trkpt lat="42.29491" lon="3.25973">
        <ele>118.86</ele>
        <time>2012-10-19T08:09:30Z</time>
      </trkpt>
      <trkpt lat="42.29492" lon="3.25874">
        <ele>122.22</ele>
        <time>2012-10-19T08:09:49Z</time>
      </trkpt>
      <trkpt lat="42.29517" lon="3.25767">
        <ele>127.51</ele>
        <time>2012-10-19T08:10:08Z</time>
      </trkpt>
      <trkpt lat="42.29586" lon="3.25689">
        <ele>132.8</ele>
        <time>2012-10-19T08:10:28Z</time>
      </trkpt>
      <trkpt lat="42.29579" lon="3.25595">
        <ele>137.61</ele>
        <time>2012-10-19T08:10:48Z</time>
      </trkpt>
      <trkpt lat="42.29491" lon="3.25587">
        <ele>142.89</ele>
        <time>2012-10-19T08:12:07Z</time>
      </trkpt>
      <trkpt lat="42.29406" lon="3.25574">
        <ele>148.18</ele>
        <time>2012-10-19T08:12:31Z</time>
      </trkpt>
      <trkpt lat="42.29364" lon="3.25487">
        <ele>153.95</ele>
        <time>2012-10-19T08:12:52Z</time>
      </trkpt>
      <trkpt lat="42.29308" lon="3.25425">
        <ele>159.72</ele>
        <time>2012-10-19T08:13:14Z</time>
      </trkpt>
      <trkpt lat="42.29302" lon="3.25301">
        <ele>164.04</ele>
        <time>2012-10-19T08:13:36Z</time>
      </trkpt>
      <trkpt lat="42.29338" lon="3.25186">
        <ele>168.37</ele>
        <time>2012-10-19T08:15:27Z</time>
      </trkpt>
      <trkpt lat="42.29341" lon="3.25069">
        <ele>173.66</ele>
        <time>2012-10-19T08:16:02Z</time>
      </trkpt>
      <trkpt lat="42.29377" lon="3.24963">
        <ele>178.94</ele>
        <time>2012-10-19T08:16:25Z</time>
      </trkpt>
      <trkpt lat="42.2945" lon="3.24893">
        <ele>184.71</ele>
        <time>2012-10-19T08:16:49Z</time>
      </trkpt>
      <trkpt lat="42.29479" lon="3.24794">
        <ele>189.52</ele>
        <time>2012-10-19T08:17:07Z</time>
      </trkpt>
      <trkpt lat="42.29516" lon="3.24701">
        <ele>194.8</ele>
        <time>2012-10-19T08:17:25Z</time>
      </trkpt>
      <trkpt lat="42.29504" lon="3.24586">
        <ele>200.57</ele>
        <time>2012-10-19T08:17:43Z</time>
      </trkpt>
      <trkpt lat="42.29516" lon="3.24476">
        <ele>207.78</ele>
        <time>2012-10-19T08:18:00Z</time>
      </trkpt>
      <trkpt lat="42.29585" lon="3.24409">
        <ele>213.07</ele>
        <time>2012-10-19T08:18:17Z</time>
      </trkpt>
      <trkpt lat="42.29619" lon="3.24358">
        <ele>217.88</ele>
        <time>2012-10-19T08:18:33Z</time>
      </trkpt>
      <trkpt lat="42.29578" lon="3.24265">
        <ele>221.72</ele>
        <time>2012-10-19T08:18:50Z</time>
      </trkpt>
      <trkpt lat="42.29617" lon="3.24151">
        <ele>227.97</ele>
        <time>2012-10-19T08:19:07Z</time>
      </trkpt>
      <trkpt lat="42.29646" lon="3.24036">
        <ele>233.74</ele>
        <time>2012-10-19T08:19:24Z</time>
      </trkpt>
      <trkpt lat="42.29666" lon="3.23916">
        <ele>238.54</ele>
        <time>2012-10-19T08:19:41Z</time>
      </trkpt>
      <trkpt lat="42.2964" lon="3.23799">
        <ele>241.91</ele>
        <time>2012-10-19T08:19:59Z</time>
      </trkpt>
      <trkpt lat="42.29655" lon="3.23684">
        <ele>244.31</ele>
        <time>2012-10-19T08:20:17Z</time>
      </trkpt>
      <trkpt lat="42.29688" lon="3.23577">
        <ele>244.79</ele>
        <time>2012-10-19T08:20:35Z</time>
      </trkpt>
      <trkpt lat="42.29646" lon="3.23493">
        <ele>243.83</ele>
        <time>2012-10-19T08:20:53Z</time>
      </trkpt>
      <trkpt lat="42.29556" lon="3.23461">
        <ele>243.35</ele>
        <time>2012-10-19T08:21:12Z</time>
      </trkpt>
      <trkpt lat="42.29462" lon="3.23468">
        <ele>243.83</ele>
        <time>2012-10-19T08:21:33Z</time>
      </trkpt>
      <trkpt lat="42.29378" lon="3.23413">
        <ele>242.87</ele>
        <time>2012-10-19T08:21:53Z</time>
      </trkpt>
      <trkpt lat="42.29323" lon="3.23316">
        <ele>243.35</ele>
        <time>2012-10-19T08:22:12Z</time>
      </trkpt>
      <trkpt lat="42.29233" lon="3.23313">
        <ele>243.83</ele>
        <time>2012-10-19T08:22:32Z</time>
      </trkpt>
      <trkpt lat="42.29142" lon="3.23317">
        <ele>242.39</ele>
        <time>2012-10-19T08:22:52Z</time>
      </trkpt>
      <trkpt lat="42.29168" lon="3.23221">
        <ele>243.35</ele>
        <time>2012-10-19T08:23:12Z</time>
      </trkpt>
      <trkpt lat="42.29197" lon="3.23122">
        <ele>243.35</ele>
        <time>2012-10-19T08:23:34Z</time>
      </trkpt>
      <trkpt lat="42.29184" lon="3.23042">
        <ele>243.35</ele>
        <time>2012-10-19T08:23:55Z</time>
      </trkpt>
      <trkpt lat="42.29273" lon="3.23022">
        <ele>249.12</ele>
        <time>2012-10-19T08:24:14Z</time>
      </trkpt>
      <trkpt lat="42.29345" lon="3.22946">
        <ele>255.85</ele>
        <time>2012-10-19T08:24:31Z</time>
      </trkpt>
      <trkpt lat="42.29387" lon="3.22842">
        <ele>260.17</ele>
        <time>2012-10-19T08:24:47Z</time>
      </trkpt>
      <trkpt lat="42.29396" lon="3.22719">
        <ele>260.65</ele>
        <time>2012-10-19T08:25:01Z</time>
      </trkpt>
      <trkpt lat="42.29381" lon="3.22599">
        <ele>262.1</ele>
        <time>2012-10-19T08:25:16Z</time>
      </trkpt>
      <trkpt lat="42.29319" lon="3.22524">
        <ele>264.02</ele>
        <time>2012-10-19T08:25:31Z</time>
      </trkpt>
      <trkpt lat="42.29246" lon="3.22494">
        <ele>265.46</ele>
        <time>2012-10-19T08:25:46Z</time>
      </trkpt>
      <trkpt lat="42.29199" lon="3.22391">
        <ele>265.46</ele>
        <time>2012-10-19T08:26:02Z</time>
      </trkpt>
      <trkpt lat="42.29114" lon="3.22342">
        <ele>266.9</ele>
        <time>2012-10-19T08:26:20Z</time>
      </trkpt>
      <trkpt lat="42.29029" lon="3.22301">
        <ele>268.83</ele>
        <time>2012-10-19T08:26:40Z</time>
      </trkpt>
      <trkpt lat="42.2894" lon="3.22282">
        <ele>269.79</ele>
        <time>2012-10-19T08:27:02Z</time>
      </trkpt>
      <trkpt lat="42.28852" lon="3.22245">
        <ele>272.19</ele>
        <time>2012-10-19T08:27:26Z</time>
      </trkpt>
      <trkpt lat="42.2876" lon="3.22236">
        <ele>273.63</ele>
        <time>2012-10-19T08:27:50Z</time>
      </trkpt>
      <trkpt lat="42.28731" lon="3.22183">
        <ele>274.11</ele>
        <time>2012-10-19T08:28:17Z</time>
      </trkpt>
      <trkpt lat="42.28821" lon="3.22162">
        <ele>273.63</ele>
        <time>2012-10-19T08:28:44Z</time>
      </trkpt>
      <trkpt lat="42.28909" lon="3.22128">
        <ele>274.59</ele>
        <time>2012-10-19T08:29:09Z</time>
      </trkpt>
      <trkpt lat="42.28992" lon="3.2208">
        <ele>276.52</ele>
        <time>2012-10-19T08:29:32Z</time>
      </trkpt>
      <trkpt lat="42.29038" lon="3.21978">
        <ele>277.48</ele>
        <time>2012-10-19T08:29:57Z</time>
      </trkpt>
      <trkpt lat="42.29124" lon="3.21975">
        <ele>281.8</ele>
        <time>2012-10-19T08:30:25Z</time>
      </trkpt>
      <trkpt lat="42.29163" lon="3.21887">
        <ele>282.28</ele>
        <time>2012-10-19T08:30:56Z</time>
      </trkpt>
      <trkpt lat="42.29127" lon="3.21773">
        <ele>282.28</ele>
        <time>2012-10-19T08:31:22Z</time>
      </trkpt>
      <trkpt lat="42.2905" lon="3.21706">
        <ele>282.77</ele>
        <time>2012-10-19T08:31:47Z</time>
      </trkpt>
      <trkpt lat="42.28964" lon="3.21682">
        <ele>283.25</ele>
        <time>2012-10-19T08:32:12Z</time>
      </trkpt>
      <trkpt lat="42.28876" lon="3.21664">
        <ele>284.69</ele>
        <time>2012-10-19T08:32:36Z</time>
      </trkpt>
      <trkpt lat="42.28868" lon="3.21571">
        <ele>285.65</ele>
        <time>2012-10-19T08:33:01Z</time>
      </trkpt>
      <trkpt lat="42.28899" lon="3.21458">
        <ele>286.13</ele>
        <time>2012-10-19T08:33:25Z</time>
      </trkpt>
      <trkpt lat="42.28879" lon="3.21353">
        <ele>284.21</ele>
        <time>2012-10-19T08:33:50Z</time>
      </trkpt>
      <trkpt lat="42.28867" lon="3.21227">
        <ele>281.8</ele>
        <time>2012-10-19T08:34:11Z</time>
      </trkpt>
      <trkpt lat="42.28835" lon="3.21109">
        <ele>283.25</ele>
        <time>2012-10-19T08:34:30Z</time>
      </trkpt>
      <trkpt lat="42.28904" lon="3.21022">
        <ele>282.28</ele>
        <time>2012-10-19T08:34:50Z</time>
      </trkpt>
      <trkpt lat="42.28952" lon="3.20915">
        <ele>281.32</ele>
        <time>2012-10-19T08:35:11Z</time>
      </trkpt>
      <trkpt lat="42.29001" lon="3.20806">
        <ele>282.28</ele>
        <time>2012-10-19T08:35:31Z</time>
      </trkpt>
      <trkpt lat="42.29075" lon="3.20804">
        <ele>280.84</ele>
        <time>2012-10-19T08:35:49Z</time>
      </trkpt>
      <trkpt lat="42.29163" lon="3.20801">
        <ele>279.4</ele>
        <time>2012-10-19T08:36:07Z</time>
      </trkpt>
      <trkpt lat="42.29253" lon="3.20761">
        <ele>276.04</ele>
        <time>2012-10-19T08:36:24Z</time>
      </trkpt>
      <trkpt lat="42.29343" lon="3.20754">
        <ele>273.63</ele>
        <time>2012-10-19T08:36:40Z</time>
      </trkpt>
      <trkpt lat="42.29421" lon="3.20683">
        <ele>269.79</ele>
        <time>2012-10-19T08:37:00Z</time>
      </trkpt>
      <trkpt lat="42.29486" lon="3.20584">
        <ele>266.9</ele>
        <time>2012-10-19T08:37:22Z</time>
      </trkpt>
      <trkpt lat="42.29565" lon="3.20542">
        <ele>264.5</ele>
        <time>2012-10-19T08:37:45Z</time>
      </trkpt>
      <trkpt lat="42.29606" lon="3.2046">
        <ele>257.29</ele>
        <time>2012-10-19T08:38:10Z</time>
      </trkpt>
      <trkpt lat="42.29593" lon="3.20334">
        <ele>251.52</ele>
        <time>2012-10-19T08:38:33Z</time>
      </trkpt>
      <trkpt lat="42.29627" lon="3.20218">
        <ele>244.79</ele>
        <time>2012-10-19T08:38:51Z</time>
      </trkpt>
      <trkpt lat="42.29708" lon="3.20155">
        <ele>239.02</ele>
        <time>2012-10-19T08:39:04Z</time>
      </trkpt>
      <trkpt lat="42.29669" lon="3.20056">
        <ele>232.78</ele>
        <time>2012-10-19T08:39:27Z</time>
      </trkpt>
      <trkpt lat="42.29584" lon="3.19992">
        <ele>225.57</ele>
        <time>2012-10-19T08:49:01Z</time>
      </trkpt>
      <trkpt lat="42.29491" lon="3.19955">
        <ele>219.32</ele>
        <time>2012-10-19T08:49:13Z</time>
      </trkpt>
      <trkpt lat="42.29544" lon="3.19885">
        <ele>214.99</ele>
        <time>2012-10-19T08:49:23Z</time>
      </trkpt>
      <trkpt lat="42.29616" lon="3.19799">
        <ele>210.67</ele>
        <time>2012-10-19T08:49:33Z</time>
      </trkpt>
      <trkpt lat="42.29624" lon="3.19692">
        <ele>203.94</ele>
        <time>2012-10-19T08:49:42Z</time>
      </trkpt>
      <trkpt lat="42.29555" lon="3.19603">
        <ele>196.73</ele>
        <time>2012-10-19T08:49:52Z</time>
      </trkpt>
      <trkpt lat="42.29472" lon="3.19553">
        <ele>190.48</ele>
        <time>2012-10-19T08:50:03Z</time>
      </trkpt>
      <trkpt lat="42.29403" lon="3.19463">
        <ele>185.19</ele>
        <time>2012-10-19T08:50:16Z</time>
      </trkpt>
      <trkpt lat="42.29387" lon="3.19343">
        <ele>178.94</ele>
        <time>2012-10-19T08:50:31Z</time>
      </trkpt>
      <trkpt lat="42.29469" lon="3.19281">
        <ele>172.69</ele>
        <time>2012-10-19T08:50:48Z</time>
      </trkpt>
      <trkpt lat="42.29569" lon="3.19263">
        <ele>168.37</ele>
        <time>2012-10-19T08:51:05Z</time>
      </trkpt>
      <trkpt lat="42.29664" lon="3.19269">
        <ele>159.72</ele>
        <time>2012-10-19T08:51:21Z</time>
      </trkpt>
      <trkpt lat="42.29611" lon="3.19168">
        <ele>154.91</ele>
        <time>2012-10-19T08:51:37Z</time>
      </trkpt>
      <trkpt lat="42.29542" lon="3.19084">
        <ele>149.14</ele>
        <time>2012-10-19T08:51:52Z</time>
      </trkpt>
      <trkpt lat="42.29515" lon="3.18958">
        <ele>140.97</ele>
        <time>2012-10-19T08:52:07Z</time>
      </trkpt>
      <trkpt lat="42.29581" lon="3.18876">
        <ele>134.24</ele>
        <time>2012-10-19T08:52:25Z</time>
      </trkpt>
      <trkpt lat="42.29539" lon="3.18798">
        <ele>130.88</ele>
        <time>2012-10-19T08:52:43Z</time>
      </trkpt>
      <trkpt lat="42.29468" lon="3.18706">
        <ele>125.11</ele>
        <time>2012-10-19T08:53:04Z</time>
      </trkpt>
      <trkpt lat="42.29402" lon="3.18629">
        <ele>119.34</ele>
        <time>2012-10-19T08:53:26Z</time>
      </trkpt>
      <trkpt lat="42.29337" lon="3.18559">
        <ele>110.69</ele>
        <time>2012-10-19T08:53:48Z</time>
      </trkpt>
      <trkpt lat="42.29244" lon="3.18513">
        <ele>105.4</ele>
        <time>2012-10-19T08:54:08Z</time>
      </trkpt>
      <trkpt lat="42.29167" lon="3.18466">
        <ele>99.63</ele>
        <time>2012-10-19T08:54:26Z</time>
      </trkpt>
      <trkpt lat="42.29094" lon="3.18411">
        <ele>93.87</ele>
        <time>2012-10-19T08:54:42Z</time>
      </trkpt>
      <trkpt lat="42.29026" lon="3.18337">
        <ele>88.1</ele>
        <time>2012-10-19T08:54:58Z</time>
      </trkpt>
      <trkpt lat="42.28934" lon="3.18313">
        <ele>81.37</ele>
        <time>2012-10-19T08:55:14Z</time>
      </trkpt>
      <trkpt lat="42.28919" lon="3.18204">
        <ele>74.16</ele>
        <time>2012-10-19T08:55:30Z</time>
      </trkpt>
      <trkpt lat="42.28845" lon="3.18128">
        <ele>69.35</ele>
        <time>2012-10-19T08:55:45Z</time>
      </trkpt>
      <trkpt lat="42.28784" lon="3.18037">
        <ele>64.55</ele>
        <time>2012-10-19T08:56:00Z</time>
      </trkpt>
      <trkpt lat="42.28715" lon="3.17951">
        <ele>61.18</ele>
        <time>2012-10-19T08:56:15Z</time>
      </trkpt>
      <trkpt lat="42.28648" lon="3.17855">
        <ele>58.3</ele>
        <time>2012-10-19T08:56:30Z</time>
      </trkpt>
      <trkpt lat="42.28623" lon="3.17739">
        <ele>55.89</ele>
        <time>2012-10-19T08:56:45Z</time>
      </trkpt>
      <trkpt lat="42.28595" lon="3.17614">
        <ele>52.05</ele>
        <time>2012-10-19T08:57:00Z</time>
      </trkpt>
      <trkpt lat="42.2854" lon="3.17513">
        <ele>49.65</ele>
        <time>2012-10-19T08:57:17Z</time>
      </trkpt>
      <trkpt lat="42.28485" lon="3.17411">
        <ele>46.76</ele>
        <time>2012-10-19T08:57:35Z</time>
      </trkpt>
      <trkpt lat="42.28431" lon="3.1731">
        <ele>48.68</ele>
        <time>2012-10-19T08:57:53Z</time>
      </trkpt>
      <trkpt lat="42.28375" lon="3.17209">
        <ele>47.72</ele>
        <time>2012-10-19T08:58:11Z</time>
      </trkpt>
      <trkpt lat="42.28318" lon="3.17104">
        <ele>47.24</ele>
        <time>2012-10-19T08:58:29Z</time>
      </trkpt>
      <trkpt lat="42.28261" lon="3.17001">
        <ele>45.8</ele>
        <time>2012-10-19T08:58:47Z</time>
      </trkpt>
      <trkpt lat="42.28203" lon="3.16897">
        <ele>43.88</ele>
        <time>2012-10-19T08:59:05Z</time>
      </trkpt>
      <trkpt lat="42.28145" lon="3.16793">
        <ele>40.99</ele>
        <time>2012-10-19T08:59:26Z</time>
      </trkpt>
      <trkpt lat="42.28089" lon="3.16686">
        <ele>38.59</ele>
        <time>2012-10-19T09:02:40Z</time>
      </trkpt>
      <trkpt lat="42.28028" lon="3.16585">
        <ele>36.67</ele>
        <time>2012-10-19T09:03:00Z</time>
      </trkpt>
      <trkpt lat="42.27972" lon="3.16486">
        <ele>35.71</ele>
        <time>2012-10-19T09:03:18Z</time>
      </trkpt>
      <trkpt lat="42.27918" lon="3.16386">
        <ele>33.78</ele>
        <time>2012-10-19T09:03:37Z</time>
      </trkpt>
      <trkpt lat="42.27861" lon="3.1628">
        <ele>33.78</ele>
        <time>2012-10-19T09:04:01Z</time>
      </trkpt>
      <trkpt lat="42.27805" lon="3.16177">
        <ele>32.82</ele>
        <time>2012-10-19T09:04:27Z</time>
      </trkpt>
      <trkpt lat="42.2775" lon="3.16078">
        <ele>30.9</ele>
        <time>2012-10-19T09:04:57Z</time>
      </trkpt>
      <trkpt lat="42.27694" lon="3.15976">
        <ele>29.46</ele>
        <time>2012-10-19T09:05:22Z</time>
      </trkpt>
      <trkpt lat="42.27658" lon="3.15872">
        <ele>27.53</ele>
        <time>2012-10-19T09:05:42Z</time>
      </trkpt>
      <trkpt lat="42.27588" lon="3.15785">
        <ele>24.17</ele>
        <time>2012-10-19T09:05:59Z</time>
      </trkpt>
      <trkpt lat="42.27531" lon="3.15681">
        <ele>22.73</ele>
        <time>2012-10-19T09:06:17Z</time>
      </trkpt>
      <trkpt lat="42.27477" lon="3.15581">
        <ele>21.77</ele>
        <time>2012-10-19T09:06:37Z</time>
      </trkpt>
      <trkpt lat="42.27421" lon="3.15477">
        <ele>20.32</ele>
        <time>2012-10-19T09:06:56Z</time>
      </trkpt>
      <trkpt lat="42.27365" lon="3.15379">
        <ele>19.36</ele>
        <time>2012-10-19T09:07:12Z</time>
      </trkpt>
      <trkpt lat="42.27309" lon="3.15278">
        <ele>17.92</ele>
        <time>2012-10-19T09:07:25Z</time>
      </trkpt>
      <trkpt lat="42.27253" lon="3.15176">
        <ele>16</ele>
        <time>2012-10-19T09:07:36Z</time>
      </trkpt>
      <trkpt lat="42.27197" lon="3.15078">
        <ele>14.56</ele>
        <time>2012-10-19T09:07:46Z</time>
      </trkpt>
      <trkpt lat="42.27156" lon="3.1497">
        <ele>13.6</ele>
        <time>2012-10-19T09:07:56Z</time>
      </trkpt>
      <trkpt lat="42.27174" lon="3.14851">
        <ele>14.56</ele>
        <time>2012-10-19T09:08:07Z</time>
      </trkpt>
      <trkpt lat="42.27159" lon="3.14733">
        <ele>14.08</ele>
        <time>2012-10-19T09:08:23Z</time>
      </trkpt>
      <trkpt lat="42.27167" lon="3.14608">
        <ele>15.04</ele>
        <time>2012-10-19T09:08:43Z</time>
      </trkpt>
      <trkpt lat="42.27172" lon="3.14479">
        <ele>14.08</ele>
        <time>2012-10-19T09:09:03Z</time>
      </trkpt>
      <trkpt lat="42.27178" lon="3.14349">
        <ele>13.6</ele>
        <time>2012-10-19T09:09:22Z</time>
      </trkpt>
      <trkpt lat="42.27185" lon="3.14225">
        <ele>14.08</ele>
        <time>2012-10-19T09:09:39Z</time>
      </trkpt>
      <trkpt lat="42.2719" lon="3.14099">
        <ele>13.6</ele>
        <time>2012-10-19T09:09:56Z</time>
      </trkpt>
      <trkpt lat="42.27196" lon="3.1397">
        <ele>13.12</ele>
        <time>2012-10-19T09:10:13Z</time>
      </trkpt>
      <trkpt lat="42.27201" lon="3.13844">
        <ele>13.6</ele>
        <time>2012-10-19T09:10:32Z</time>
      </trkpt>
      <trkpt lat="42.27212" lon="3.13716">
        <ele>13.12</ele>
        <time>2012-10-19T09:10:48Z</time>
      </trkpt>
      <trkpt lat="42.27235" lon="3.13592">
        <ele>13.6</ele>
        <time>2012-10-19T09:11:08Z</time>
      </trkpt>
      <trkpt lat="42.27256" lon="3.13477">
        <ele>15.04</ele>
        <time>2012-10-19T09:11:29Z</time>
      </trkpt>
      <trkpt lat="42.27207" lon="3.13377">
        <ele>17.92</ele>
        <time>2012-10-19T09:11:41Z</time>
      </trkpt>
      <trkpt lat="42.2715" lon="3.13283">
        <ele>17.92</ele>
        <time>2012-10-19T09:11:51Z</time>
      </trkpt>
      <trkpt lat="42.27089" lon="3.1319">
        <ele>16.96</ele>
        <time>2012-10-19T09:12:01Z</time>
      </trkpt>
      <trkpt lat="42.27026" lon="3.13094">
        <ele>15.04</ele>
        <time>2012-10-19T09:12:11Z</time>
      </trkpt>
      <trkpt lat="42.26965" lon="3.13">
        <ele>14.56</ele>
        <time>2012-10-19T09:12:21Z</time>
      </trkpt>
      <trkpt lat="42.26904" lon="3.1291">
        <ele>14.08</ele>
        <time>2012-10-19T09:12:32Z</time>
      </trkpt>
      <trkpt lat="42.26841" lon="3.12813">
        <ele>14.08</ele>
        <time>2012-10-19T09:12:43Z</time>
      </trkpt>
      <trkpt lat="42.26778" lon="3.12716">
        <ele>14.56</ele>
        <time>2012-10-19T09:12:53Z</time>
      </trkpt>
      <trkpt lat="42.26725" lon="3.12617">
        <ele>12.15</ele>
        <time>2012-10-19T09:13:03Z</time>
      </trkpt>
      <trkpt lat="42.26686" lon="3.12504">
        <ele>13.12</ele>
        <time>2012-10-19T09:13:12Z</time>
      </trkpt>
      <trkpt lat="42.26645" lon="3.12389">
        <ele>12.63</ele>
        <time>2012-10-19T09:13:22Z</time>
      </trkpt>
      <trkpt lat="42.26605" lon="3.12275">
        <ele>13.12</ele>
        <time>2012-10-19T09:13:34Z</time>
      </trkpt>
      <trkpt lat="42.26565" lon="3.12163">
        <ele>14.08</ele>
        <time>2012-10-19T09:13:47Z</time>
      </trkpt>
      <trkpt lat="42.26533" lon="3.12048">
        <ele>14.08</ele>
        <time>2012-10-19T09:13:59Z</time>
      </trkpt>
      <trkpt lat="42.26525" lon="3.11926">
        <ele>14.08</ele>
        <time>2012-10-19T09:14:11Z</time>
      </trkpt>
      <trkpt lat="42.26523" lon="3.118">
        <ele>14.56</ele>
        <time>2012-10-19T09:14:23Z</time>
      </trkpt>
      <trkpt lat="42.2652" lon="3.11672">
        <ele>13.6</ele>
        <time>2012-10-19T09:14:35Z</time>
      </trkpt>
      <trkpt lat="42.26517" lon="3.11542">
        <ele>13.6</ele>
        <time>2012-10-19T09:14:47Z</time>
      </trkpt>
      <trkpt lat="42.26515" lon="3.11419">
        <ele>14.08</ele>
        <time>2012-10-19T09:14:59Z</time>
      </trkpt>
      <trkpt lat="42.26511" lon="3.11295">
        <ele>14.56</ele>
        <time>2012-10-19T09:15:11Z</time>
      </trkpt>
      <trkpt lat="42.26506" lon="3.11169">
        <ele>14.08</ele>
        <time>2012-10-19T09:15:23Z</time>
      </trkpt>
      <trkpt lat="42.26488" lon="3.11058">
        <ele>14.08</ele>
        <time>2012-10-19T09:15:34Z</time>
      </trkpt>
      <trkpt lat="42.26453" lon="3.10945">
        <ele>13.12</ele>
        <time>2012-10-19T09:15:45Z</time>
      </trkpt>
      <trkpt lat="42.2642" lon="3.10825">
        <ele>13.6</ele>
        <time>2012-10-19T09:15:56Z</time>
      </trkpt>
      <trkpt lat="42.2639" lon="3.1071">
        <ele>13.12</ele>
        <time>2012-10-19T09:16:08Z</time>
      </trkpt>
      <trkpt lat="42.2636" lon="3.10591">
        <ele>13.6</ele>
        <time>2012-10-19T09:16:24Z</time>
      </trkpt>
      <trkpt lat="42.2633" lon="3.10474">
        <ele>12.63</ele>
        <time>2012-10-19T09:16:44Z</time>
      </trkpt>
      <trkpt lat="42.26301" lon="3.1036">
        <ele>13.6</ele>
        <time>2012-10-19T09:17:06Z</time>
      </trkpt>
      <trkpt lat="42.26274" lon="3.10245">
        <ele>13.6</ele>
        <time>2012-10-19T09:17:26Z</time>
      </trkpt>
      <trkpt lat="42.26243" lon="3.10124">
        <ele>13.6</ele>
        <time>2012-10-19T09:17:46Z</time>
      </trkpt>
      <trkpt lat="42.26215" lon="3.10001">
        <ele>13.6</ele>
        <time>2012-10-19T09:18:09Z</time>
      </trkpt>
      <trkpt lat="42.26183" lon="3.09883">
        <ele>14.08</ele>
        <time>2012-10-19T09:18:35Z</time>
      </trkpt>
      <trkpt lat="42.26151" lon="3.09765">
        <ele>14.08</ele>
        <time>2012-10-19T09:19:01Z</time>
      </trkpt>
      <trkpt lat="42.26121" lon="3.09648">
        <ele>14.08</ele>
        <time>2012-10-19T09:19:27Z</time>
      </trkpt>
      <trkpt lat="42.2609" lon="3.09527">
        <ele>15.04</ele>
        <time>2012-10-19T09:19:52Z</time>
      </trkpt>
      <trkpt lat="42.26068" lon="3.09407">
        <ele>15.52</ele>
        <time>2012-10-19T09:20:18Z</time>
      </trkpt>
      <trkpt lat="42.2603" lon="3.09297">
        <ele>15.04</ele>
        <time>2012-10-19T09:20:43Z</time>
      </trkpt>
      <trkpt lat="42.25997" lon="3.09177">
        <ele>16</ele>
        <time>2012-10-19T09:21:08Z</time>
      </trkpt>
      <trkpt lat="42.25954" lon="3.09071">
        <ele>16.48</ele>
        <time>2012-10-19T09:21:33Z</time>
      </trkpt>
      <trkpt lat="42.25897" lon="3.08975">
        <ele>18.4</ele>
        <time>2012-10-19T09:21:57Z</time>
      </trkpt>
      <trkpt lat="42.25829" lon="3.08894">
        <ele>19.84</ele>
        <time>2012-10-19T09:22:19Z</time>
      </trkpt>
      <trkpt lat="42.2575" lon="3.0883">
        <ele>21.29</ele>
        <time>2012-10-19T09:22:40Z</time>
      </trkpt>
      <trkpt lat="42.25668" lon="3.08775">
        <ele>21.77</ele>
        <time>2012-10-19T09:23:01Z</time>
      </trkpt>
      <trkpt lat="42.25587" lon="3.08716">
        <ele>22.73</ele>
        <time>2012-10-19T09:23:20Z</time>
      </trkpt>
      <trkpt lat="42.25506" lon="3.08661">
        <ele>22.73</ele>
        <time>2012-10-19T09:23:37Z</time>
      </trkpt>
      <trkpt lat="42.25423" lon="3.08606">
        <ele>22.73</ele>
        <time>2012-10-19T09:25:11Z</time>
      </trkpt>
      <trkpt lat="42.2534" lon="3.08542">
        <ele>22.25</ele>
        <time>2012-10-19T09:25:30Z</time>
      </trkpt>
      <trkpt lat="42.25281" lon="3.08441">
        <ele>20.32</ele>
        <time>2012-10-19T09:25:45Z</time>
      </trkpt>
      <trkpt lat="42.25245" lon="3.08326">
        <ele>19.84</ele>
        <time>2012-10-19T09:25:58Z</time>
      </trkpt>
      <trkpt lat="42.25208" lon="3.08207">
        <ele>20.32</ele>
        <time>2012-10-19T09:26:12Z</time>
      </trkpt>
      <trkpt lat="42.25177" lon="3.08088">
        <ele>19.36</ele>
        <time>2012-10-19T09:26:26Z</time>
      </trkpt>
      <trkpt lat="42.25159" lon="3.07965">
        <ele>19.36</ele>
        <time>2012-10-19T09:26:41Z</time>
      </trkpt>
      <trkpt lat="42.25154" lon="3.07839">
        <ele>20.81</ele>
        <time>2012-10-19T09:26:56Z</time>
      </trkpt>
      <trkpt lat="42.25152" lon="3.07712">
        <ele>19.84</ele>
        <time>2012-10-19T09:27:09Z</time>
      </trkpt>
      <trkpt lat="42.25173" lon="3.07597">
        <ele>20.81</ele>
        <time>2012-10-19T09:27:21Z</time>
      </trkpt>
      <trkpt lat="42.25091" lon="3.07585">
        <ele>17.92</ele>
        <time>2012-10-19T09:27:33Z</time>
      </trkpt>
      <trkpt lat="42.25005" lon="3.07537">
        <ele>15.52</ele>
        <time>2012-10-19T09:27:45Z</time>
      </trkpt>
      <trkpt lat="42.24916" lon="3.07517">
        <ele>14.56</ele>
        <time>2012-10-19T09:27:59Z</time>
      </trkpt>
      <trkpt lat="42.24826" lon="3.07499">
        <ele>15.04</ele>
        <time>2012-10-19T09:28:16Z</time>
      </trkpt>
      <trkpt lat="42.24735" lon="3.075">
        <ele>14.56</ele>
        <time>2012-10-19T09:28:33Z</time>
      </trkpt>
      <trkpt lat="42.24644" lon="3.07536">
        <ele>15.52</ele>
        <time>2012-10-19T09:28:49Z</time>
      </trkpt>
      <trkpt lat="42.24572" lon="3.07609">
        <ele>14.56</ele>
        <time>2012-10-19T09:29:05Z</time>
      </trkpt>
      <trkpt lat="42.24491" lon="3.07669">
        <ele>13.6</ele>
        <time>2012-10-19T09:29:20Z</time>
      </trkpt>
      <trkpt lat="42.24407" lon="3.07728">
        <ele>14.08</ele>
        <time>2012-10-19T09:29:36Z</time>
      </trkpt>
      <trkpt lat="42.24324" lon="3.07783">
        <ele>14.08</ele>
        <time>2012-10-19T09:29:52Z</time>
      </trkpt>
      <trkpt lat="42.24237" lon="3.07834">
        <ele>14.08</ele>
        <time>2012-10-19T09:30:07Z</time>
      </trkpt>
      <trkpt lat="42.24151" lon="3.07878">
        <ele>13.12</ele>
        <time>2012-10-19T09:30:20Z</time>
      </trkpt>
      <trkpt lat="42.24065" lon="3.07923">
        <ele>14.08</ele>
        <time>2012-10-19T09:30:34Z</time>
      </trkpt>
      <trkpt lat="42.23977" lon="3.07967">
        <ele>14.08</ele>
        <time>2012-10-19T09:30:49Z</time>
      </trkpt>
      <trkpt lat="42.23895" lon="3.08018">
        <ele>14.08</ele>
        <time>2012-10-19T09:31:03Z</time>
      </trkpt>
      <trkpt lat="42.23813" lon="3.08083">
        <ele>12.15</ele>
        <time>2012-10-19T09:31:15Z</time>
      </trkpt>
      <trkpt lat="42.23728" lon="3.08136">
        <ele>12.15</ele>
        <time>2012-10-19T09:31:26Z</time>
      </trkpt>
      <trkpt lat="42.23645" lon="3.08191">
        <ele>10.71</ele>
        <time>2012-10-19T09:31:38Z</time>
      </trkpt>
      <trkpt lat="42.23566" lon="3.08255">
        <ele>11.67</ele>
        <time>2012-10-19T09:31:50Z</time>
      </trkpt>
      <trkpt lat="42.2348" lon="3.08295">
        <ele>10.71</ele>
        <time>2012-10-19T09:32:00Z</time>
      </trkpt>
      <trkpt lat="42.23392" lon="3.08336">
        <ele>9.27</ele>
        <time>2012-10-19T09:32:09Z</time>
      </trkpt>
      <trkpt lat="42.23299" lon="3.08347">
        <ele>9.27</ele>
        <time>2012-10-19T09:32:19Z</time>
      </trkpt>
      <trkpt lat="42.23206" lon="3.08346">
        <ele>8.31</ele>
        <time>2012-10-19T09:32:30Z</time>
      </trkpt>
      <trkpt lat="42.23115" lon="3.08372">
        <ele>8.79</ele>
        <time>2012-10-19T09:32:41Z</time>
      </trkpt>
      <trkpt lat="42.23027" lon="3.08416">
        <ele>9.27</ele>
        <time>2012-10-19T09:32:51Z</time>
      </trkpt>
      <trkpt lat="42.22944" lon="3.08467">
        <ele>8.79</ele>
        <time>2012-10-19T09:33:00Z</time>
      </trkpt>
      <trkpt lat="42.22862" lon="3.08522">
        <ele>8.79</ele>
        <time>2012-10-19T09:33:09Z</time>
      </trkpt>
      <trkpt lat="42.22779" lon="3.08582">
        <ele>9.27</ele>
        <time>2012-10-19T09:33:18Z</time>
      </trkpt>
      <trkpt lat="42.22696" lon="3.08639">
        <ele>9.75</ele>
        <time>2012-10-19T09:33:26Z</time>
      </trkpt>
      <trkpt lat="42.2261" lon="3.08682">
        <ele>9.27</ele>
        <time>2012-10-19T09:33:34Z</time>
      </trkpt>
      <trkpt lat="42.22523" lon="3.08735">
        <ele>9.75</ele>
        <time>2012-10-19T09:33:41Z</time>
      </trkpt>
      <trkpt lat="42.22434" lon="3.08772">
        <ele>7.83</ele>
        <time>2012-10-19T09:33:48Z</time>
      </trkpt>
      <trkpt lat="42.22341" lon="3.08754">
        <ele>7.83</ele>
        <time>2012-10-19T09:33:55Z</time>
      </trkpt>
      <trkpt lat="42.22252" lon="3.08739">
        <ele>7.83</ele>
        <time>2012-10-19T09:34:03Z</time>
      </trkpt>
      <trkpt lat="42.22161" lon="3.0877">
        <ele>7.83</ele>
        <time>2012-10-19T09:34:12Z</time>
      </trkpt>
      <trkpt lat="42.22075" lon="3.08824">
        <ele>7.83</ele>
        <time>2012-10-19T09:34:22Z</time>
      </trkpt>
      <trkpt lat="42.21987" lon="3.08858">
        <ele>7.83</ele>
        <time>2012-10-19T09:34:33Z</time>
      </trkpt>
      <trkpt lat="42.21896" lon="3.0885">
        <ele>7.35</ele>
        <time>2012-10-19T09:34:45Z</time>
      </trkpt>
      <trkpt lat="42.21801" lon="3.08843">
        <ele>6.87</ele>
        <time>2012-10-19T09:34:58Z</time>
      </trkpt>
      <trkpt lat="42.21707" lon="3.08864">
        <ele>7.35</ele>
        <time>2012-10-19T09:35:12Z</time>
      </trkpt>
      <trkpt lat="42.21615" lon="3.08857">
        <ele>6.39</ele>
        <time>2012-10-19T09:35:27Z</time>
      </trkpt>
      <trkpt lat="42.21535" lon="3.08802">
        <ele>7.35</ele>
        <time>2012-10-19T09:35:41Z</time>
      </trkpt>
      <trkpt lat="42.21452" lon="3.08746">
        <ele>7.35</ele>
        <time>2012-10-19T09:35:55Z</time>
      </trkpt>
      <trkpt lat="42.21367" lon="3.0869">
        <ele>6.39</ele>
        <time>2012-10-19T09:36:09Z</time>
      </trkpt>
      <trkpt lat="42.21284" lon="3.08635">
        <ele>6.87</ele>
        <time>2012-10-19T09:36:22Z</time>
      </trkpt>
      <trkpt lat="42.21202" lon="3.08581">
        <ele>6.87</ele>
        <time>2012-10-19T09:36:35Z</time>
      </trkpt>
      <trkpt lat="42.21111" lon="3.08552">
        <ele>7.83</ele>
        <time>2012-10-19T09:36:48Z</time>
      </trkpt>
      <trkpt lat="42.21019" lon="3.08535">
        <ele>5.42</ele>
        <time>2012-10-19T09:37:02Z</time>
      </trkpt>
      <trkpt lat="42.20928" lon="3.08521">
        <ele>6.39</ele>
        <time>2012-10-19T09:37:15Z</time>
      </trkpt>
      <trkpt lat="42.20838" lon="3.08506">
        <ele>7.83</ele>
        <time>2012-10-19T09:37:30Z</time>
      </trkpt>
      <trkpt lat="42.20744" lon="3.08489">
        <ele>6.87</ele>
        <time>2012-10-19T09:37:50Z</time>
      </trkpt>
      <trkpt lat="42.2065" lon="3.08473">
        <ele>8.31</ele>
        <time>2012-10-19T09:38:05Z</time>
      </trkpt>
      <trkpt lat="42.20555" lon="3.08457">
        <ele>6.39</ele>
        <time>2012-10-19T09:38:20Z</time>
      </trkpt>
      <trkpt lat="42.20461" lon="3.08441">
        <ele>6.39</ele>
        <time>2012-10-19T09:38:37Z</time>
      </trkpt>
      <trkpt lat="42.20369" lon="3.08426">
        <ele>5.42</ele>
        <time>2012-10-19T09:38:52Z</time>
      </trkpt>
      <trkpt lat="42.20278" lon="3.08411">
        <ele>5.91</ele>
        <time>2012-10-19T09:39:06Z</time>
      </trkpt>
      <trkpt lat="42.20186" lon="3.08395">
        <ele>5.91</ele>
        <time>2012-10-19T09:39:19Z</time>
      </trkpt>
      <trkpt lat="42.20094" lon="3.0838">
        <ele>6.39</ele>
        <time>2012-10-19T09:39:32Z</time>
      </trkpt>
      <trkpt lat="42.20004" lon="3.08365">
        <ele>6.39</ele>
        <time>2012-10-19T09:39:51Z</time>
      </trkpt>
      <trkpt lat="42.19913" lon="3.08349">
        <ele>6.39</ele>
        <time>2012-10-19T09:40:25Z</time>
      </trkpt>
      <trkpt lat="42.19822" lon="3.08335">
        <ele>6.39</ele>
        <time>2012-10-19T09:41:00Z</time>
      </trkpt>
      <trkpt lat="42.1973" lon="3.08318">
        <ele>5.91</ele>
        <time>2012-10-19T09:41:33Z</time>
      </trkpt>
      <trkpt lat="42.19636" lon="3.08302">
        <ele>5.91</ele>
        <time>2012-10-19T09:42:05Z</time>
      </trkpt>
      <trkpt lat="42.19545" lon="3.08288">
        <ele>5.91</ele>
        <time>2012-10-19T09:42:34Z</time>
      </trkpt>
      <trkpt lat="42.19452" lon="3.0828">
        <ele>6.39</ele>
        <time>2012-10-19T09:43:05Z</time>
      </trkpt>
      <trkpt lat="42.19361" lon="3.08267">
        <ele>6.39</ele>
        <time>2012-10-19T09:43:36Z</time>
      </trkpt>
      <trkpt lat="42.19268" lon="3.08252">
        <ele>6.39</ele>
        <time>2012-10-19T09:44:05Z</time>
      </trkpt>
      <trkpt lat="42.19179" lon="3.08236">
        <ele>5.91</ele>
        <time>2012-10-19T09:44:30Z</time>
      </trkpt>
      <trkpt lat="42.19126" lon="3.08156">
        <ele>7.83</ele>
        <time>2012-10-19T09:44:44Z</time>
      </trkpt>
      <trkpt lat="42.19029" lon="3.08143">
        <ele>8.31</ele>
        <time>2012-10-19T09:44:54Z</time>
      </trkpt>
      <trkpt lat="42.18941" lon="3.08117">
        <ele>8.79</ele>
        <time>2012-10-19T09:45:02Z</time>
      </trkpt>
      <trkpt lat="42.18847" lon="3.08093">
        <ele>8.31</ele>
        <time>2012-10-19T09:45:10Z</time>
      </trkpt>
      <trkpt lat="42.18752" lon="3.08083">
        <ele>9.27</ele>
        <time>2012-10-19T09:45:18Z</time>
      </trkpt>
      <trkpt lat="42.18659" lon="3.08097">
        <ele>8.79</ele>
        <time>2012-10-19T09:45:26Z</time>
      </trkpt>
      <trkpt lat="42.18589" lon="3.08046">
        <ele>8.79</ele>
        <time>2012-10-19T09:45:34Z</time>
      </trkpt>
      <trkpt lat="42.18584" lon="3.07924">
        <ele>8.79</ele>
        <time>2012-10-19T09:45:43Z</time>
      </trkpt>
      <trkpt lat="42.1858" lon="3.078">
        <ele>9.27</ele>
        <time>2012-10-19T09:45:53Z</time>
      </trkpt>
      <trkpt lat="42.18557" lon="3.07684">
        <ele>9.27</ele>
        <time>2012-10-19T09:46:04Z</time>
      </trkpt>
      <trkpt lat="42.1851" lon="3.07577">
        <ele>8.79</ele>
        <time>2012-10-19T09:46:17Z</time>
      </trkpt>
      <trkpt lat="42.18461" lon="3.07469">
        <ele>9.75</ele>
        <time>2012-10-19T09:46:30Z</time>
      </trkpt>
      <trkpt lat="42.18414" lon="3.07363">
        <ele>10.23</ele>
        <time>2012-10-19T09:46:45Z</time>
      </trkpt>
      <trkpt lat="42.18366" lon="3.07255">
        <ele>9.27</ele>
        <time>2012-10-19T09:47:03Z</time>
      </trkpt>
      <trkpt lat="42.18318" lon="3.07147">
        <ele>10.23</ele>
        <time>2012-10-19T09:47:22Z</time>
      </trkpt>
      <trkpt lat="42.18271" lon="3.07037">
        <ele>10.23</ele>
        <time>2012-10-19T09:47:40Z</time>
      </trkpt>
      <trkpt lat="42.1823" lon="3.06929">
        <ele>11.19</ele>
        <time>2012-10-19T09:47:53Z</time>
      </trkpt>
      <trkpt lat="42.18193" lon="3.0681">
        <ele>10.71</ele>
        <time>2012-10-19T09:48:05Z</time>
      </trkpt>
      <trkpt lat="42.18163" lon="3.0669">
        <ele>11.19</ele>
        <time>2012-10-19T09:48:20Z</time>
      </trkpt>
      <trkpt lat="42.1813" lon="3.06571">
        <ele>10.71</ele>
        <time>2012-10-19T09:48:37Z</time>
      </trkpt>
      <trkpt lat="42.18095" lon="3.06457">
        <ele>11.19</ele>
        <time>2012-10-19T09:48:53Z</time>
      </trkpt>
      <trkpt lat="42.1806" lon="3.06339">
        <ele>11.19</ele>
        <time>2012-10-19T09:49:10Z</time>
      </trkpt>
      <trkpt lat="42.18024" lon="3.06227">
        <ele>11.19</ele>
        <time>2012-10-19T09:49:26Z</time>
      </trkpt>
      <trkpt lat="42.17988" lon="3.06109">
        <ele>12.63</ele>
        <time>2012-10-19T09:49:42Z</time>
      </trkpt>
      <trkpt lat="42.17951" lon="3.05992">
        <ele>12.63</ele>
        <time>2012-10-19T09:49:58Z</time>
      </trkpt>
      <trkpt lat="42.17915" lon="3.05872">
        <ele>12.63</ele>
        <time>2012-10-19T09:50:14Z</time>
      </trkpt>
      <trkpt lat="42.17879" lon="3.05758">
        <ele>11.67</ele>
        <time>2012-10-19T09:50:29Z</time>
      </trkpt>
      <trkpt lat="42.17842" lon="3.05641">
        <ele>10.71</ele>
        <time>2012-10-19T09:50:45Z</time>
      </trkpt>
      <trkpt lat="42.17804" lon="3.05522">
        <ele>11.19</ele>
        <time>2012-10-19T09:51:00Z</time>
      </trkpt>
      <trkpt lat="42.17771" lon="3.05407">
        <ele>11.19</ele>
        <time>2012-10-19T09:51:17Z</time>
      </trkpt>
      <trkpt lat="42.1774" lon="3.05288">
        <ele>11.19</ele>
        <time>2012-10-19T09:51:36Z</time>
      </trkpt>
      <trkpt lat="42.17712" lon="3.05166">
        <ele>10.71</ele>
        <time>2012-10-19T09:51:56Z</time>
      </trkpt>
      <trkpt lat="42.17683" lon="3.05051">
        <ele>11.19</ele>
        <time>2012-10-19T09:53:28Z</time>
      </trkpt>
      <trkpt lat="42.1764" lon="3.04942">
        <ele>12.15</ele>
        <time>2012-10-19T09:53:46Z</time>
      </trkpt>
      <trkpt lat="42.17579" lon="3.04855">
        <ele>14.08</ele>
        <time>2012-10-19T09:54:01Z</time>
      </trkpt>
      <trkpt lat="42.17493" lon="3.04806">
        <ele>15.04</ele>
        <time>2012-10-19T09:54:16Z</time>
      </trkpt>
      <trkpt lat="42.17404" lon="3.0478">
        <ele>16</ele>
        <time>2012-10-19T09:54:32Z</time>
      </trkpt>
      <trkpt lat="42.1733" lon="3.04705">
        <ele>16.96</ele>
        <time>2012-10-19T09:54:47Z</time>
      </trkpt>
      <trkpt lat="42.17297" lon="3.04592">
        <ele>16.48</ele>
        <time>2012-10-19T09:55:02Z</time>
      </trkpt>
      <trkpt lat="42.17302" lon="3.04465">
        <ele>16</ele>
        <time>2012-10-19T09:55:17Z</time>
      </trkpt>
      <trkpt lat="42.17313" lon="3.04337">
        <ele>16.48</ele>
        <time>2012-10-19T09:55:34Z</time>
      </trkpt>
      <trkpt lat="42.17323" lon="3.04215">
        <ele>16</ele>
        <time>2012-10-19T09:55:49Z</time>
      </trkpt>
      <trkpt lat="42.17335" lon="3.04091">
        <ele>16.48</ele>
        <time>2012-10-19T09:56:04Z</time>
      </trkpt>
      <trkpt lat="42.1735" lon="3.03973">
        <ele>16.48</ele>
        <time>2012-10-19T09:56:19Z</time>
      </trkpt>
      <trkpt lat="42.17318" lon="3.03963">
        <ele>16.96</ele>
        <time>2012-10-19T09:56:35Z</time>
      </trkpt>
      <trkpt lat="42.17235" lon="3.04011">
        <ele>17.44</ele>
        <time>2012-10-19T09:56:50Z</time>
      </trkpt>
      <trkpt lat="42.17145" lon="3.04041">
        <ele>16.96</ele>
        <time>2012-10-19T09:57:05Z</time>
      </trkpt>
      <trkpt lat="42.17057" lon="3.0407">
        <ele>16.96</ele>
        <time>2012-10-19T09:57:21Z</time>
      </trkpt>
      <trkpt lat="42.17029" lon="3.04086">
        <ele>17.44</ele>
        <time>2012-10-19T09:57:37Z</time>
      </trkpt>
      <trkpt lat="42.1712" lon="3.04058">
        <ele>16.96</ele>
        <time>2012-10-19T09:57:53Z</time>
      </trkpt>
      <trkpt lat="42.17212" lon="3.04028">
        <ele>16.96</ele>
        <time>2012-10-19T09:58:10Z</time>
      </trkpt>
      <trkpt lat="42.17302" lon="3.03994">
        <ele>16.48</ele>
        <time>2012-10-19T09:58:27Z</time>
      </trkpt>
      <trkpt lat="42.17356" lon="3.03924">
        <ele>15.52</ele>
        <time>2012-10-19T09:58:44Z</time>
      </trkpt>
      <trkpt lat="42.17358" lon="3.03798">
        <ele>16.48</ele>
        <time>2012-10-19T09:59:01Z</time>
      </trkpt>
      <trkpt lat="42.17352" lon="3.03674">
        <ele>22.73</ele>
        <time>2012-10-19T09:59:18Z</time>
      </trkpt>
      <trkpt lat="42.17334" lon="3.03556">
        <ele>24.65</ele>
        <time>2012-10-19T09:59:34Z</time>
      </trkpt>
      <trkpt lat="42.17305" lon="3.03429">
        <ele>19.36</ele>
        <time>2012-10-19T09:59:50Z</time>
      </trkpt>
      <trkpt lat="42.17284" lon="3.03309">
        <ele>18.4</ele>
        <time>2012-10-19T10:00:05Z</time>
      </trkpt>
      <trkpt lat="42.17277" lon="3.03368">
        <ele>18.4</ele>
        <time>2012-10-19T10:00:20Z</time>
      </trkpt>
      <trkpt lat="42.17302" lon="3.03486">
        <ele>21.77</ele>
        <time>2012-10-19T10:00:36Z</time>
      </trkpt>
      <trkpt lat="42.17297" lon="3.03608">
        <ele>21.29</ele>
        <time>2012-10-19T10:00:54Z</time>
      </trkpt>
      <trkpt lat="42.17261" lon="3.03724">
        <ele>18.88</ele>
        <time>2012-10-19T10:01:11Z</time>
      </trkpt>
      <trkpt lat="42.17211" lon="3.03825">
        <ele>17.44</ele>
        <time>2012-10-19T10:01:29Z</time>
      </trkpt>
      <trkpt lat="42.1715" lon="3.03919">
        <ele>17.44</ele>
        <time>2012-10-19T10:01:46Z</time>
      </trkpt>
      <trkpt lat="42.17081" lon="3.03998">
        <ele>16.96</ele>
        <time>2012-10-19T10:02:03Z</time>
      </trkpt>
      <trkpt lat="42.17003" lon="3.04062">
        <ele>16.48</ele>
        <time>2012-10-19T10:02:20Z</time>
      </trkpt>
      <trkpt lat="42.16917" lon="3.04111">
        <ele>17.92</ele>
        <time>2012-10-19T10:02:36Z</time>
      </trkpt>
      <trkpt lat="42.16829" lon="3.04145">
        <ele>17.44</ele>
        <time>2012-10-19T10:03:08Z</time>
      </trkpt>
      <trkpt lat="42.16737" lon="3.04175">
        <ele>17.92</ele>
        <time>2012-10-19T10:03:27Z</time>
      </trkpt>
      <trkpt lat="42.16649" lon="3.04204">
        <ele>17.92</ele>
        <time>2012-10-19T10:03:44Z</time>
      </trkpt>
      <trkpt lat="42.1656" lon="3.04234">
        <ele>18.4</ele>
        <time>2012-10-19T10:04:02Z</time>
      </trkpt>
      <trkpt lat="42.16466" lon="3.04265">
        <ele>18.4</ele>
        <time>2012-10-19T10:04:23Z</time>
      </trkpt>
      <trkpt lat="42.16378" lon="3.04292">
        <ele>18.4</ele>
        <time>2012-10-19T10:04:54Z</time>
      </trkpt>
      <trkpt lat="42.16289" lon="3.04314">
        <ele>18.4</ele>
        <time>2012-10-19T10:05:19Z</time>
      </trkpt>
      <trkpt lat="42.16195" lon="3.04319">
        <ele>17.92</ele>
        <time>2012-10-19T10:05:40Z</time>
      </trkpt>
      <trkpt lat="42.16102" lon="3.04318">
        <ele>16.96</ele>
        <time>2012-10-19T10:06:40Z</time>
      </trkpt>
      <trkpt lat="42.16008" lon="3.04329">
        <ele>16</ele>
        <time>2012-10-19T10:07:13Z</time>
      </trkpt>
      <trkpt lat="42.15919" lon="3.04368">
        <ele>15.04</ele>
        <time>2012-10-19T10:07:44Z</time>
      </trkpt>
      <trkpt lat="42.15837" lon="3.04426">
        <ele>16</ele>
      </trkpt>
      <trkpt lat="42.15767" lon="3.04502">
        <ele>16</ele>
      </trkpt>
      <trkpt lat="42.1571" lon="3.04601">
        <ele>17.92</ele>
      </trkpt>
      <trkpt lat="42.15669" lon="3.04711">
        <ele>16.96</ele>
      </trkpt>
      <trkpt lat="42.15629" lon="3.04823">
        <ele>16</ele>
      </trkpt>
      <trkpt lat="42.15581" lon="3.04934">
        <ele>15.04</ele>
      </trkpt>
      <trkpt lat="42.15526" lon="3.05035">
        <ele>14.56</ele>
      </trkpt>
      <trkpt lat="42.15465" lon="3.05126">
        <ele>14.56</ele>
      </trkpt>
      <trkpt lat="42.15397" lon="3.05207">
        <ele>15.04</ele>
      </trkpt>
      <trkpt lat="42.15325" lon="3.05282">
        <ele>16</ele>
      </trkpt>
      <trkpt lat="42.15251" lon="3.05358">
        <ele>15.04</ele>
      </trkpt>
      <trkpt lat="42.15178" lon="3.05434">
        <ele>14.56</ele>
      </trkpt>
      <trkpt lat="42.15106" lon="3.05508">
        <ele>14.08</ele>
      </trkpt>
      <trkpt lat="42.15033" lon="3.05583">
        <ele>14.08</ele>
      </trkpt>
      <trkpt lat="42.14955" lon="3.05654">
        <ele>13.6</ele>
      </trkpt>
      <trkpt lat="42.14874" lon="3.05715">
        <ele>14.56</ele>
      </trkpt>
      <trkpt lat="42.14788" lon="3.05766">
        <ele>14.08</ele>
      </trkpt>
      <trkpt lat="42.14702" lon="3.05811">
        <ele>14.08</ele>
      </trkpt>
      <trkpt lat="42.14615" lon="3.05857">
        <ele>14.08</ele>
      </trkpt>
      <trkpt lat="42.14528" lon="3.05904">
        <ele>14.08</ele>
      </trkpt>
      <trkpt lat="42.1444" lon="3.05949">
        <ele>15.52</ele>
      </trkpt>
      <trkpt lat="42.14356" lon="3.05994">
        <ele>16.48</ele>
      </trkpt>
      <trkpt lat="42.1427" lon="3.06037">
        <ele>15.52</ele>
      </trkpt>
      <trkpt lat="42.14184" lon="3.06075">
        <ele>16.48</ele>
      </trkpt>
      <trkpt lat="42.14098" lon="3.06109">
        <ele>17.44</ele>
      </trkpt>
      <trkpt lat="42.14008" lon="3.06137">
        <ele>18.4</ele>
      </trkpt>
      <trkpt lat="42.13919" lon="3.06129">
        <ele>20.81</ele>
      </trkpt>
      <trkpt lat="42.13903" lon="3.06016">
        <ele>20.32</ele>
      </trkpt>
      <trkpt lat="42.13924" lon="3.05906">
        <ele>20.32</ele>
      </trkpt>
      <trkpt lat="42.13951" lon="3.05787">
        <ele>20.81</ele>
      </trkpt>
      <trkpt lat="42.13977" lon="3.05671">
        <ele>21.29</ele>
      </trkpt>
      <trkpt lat="42.14005" lon="3.05548">
        <ele>21.29</ele>
      </trkpt>
      <trkpt lat="42.14033" lon="3.05429">
        <ele>21.77</ele>
      </trkpt>
      <trkpt lat="42.1406" lon="3.05309">
        <ele>22.73</ele>
      </trkpt>
      <trkpt lat="42.14088" lon="3.05188">
        <ele>23.21</ele>
      </trkpt>
      <trkpt lat="42.14115" lon="3.0507">
        <ele>23.21</ele>
      </trkpt>
      <trkpt lat="42.14143" lon="3.04948">
        <ele>23.21</ele>
      </trkpt>
      <trkpt lat="42.14169" lon="3.04832">
        <ele>23.69</ele>
      </trkpt>
      <trkpt lat="42.14197" lon="3.04713">
        <ele>23.69</ele>
      </trkpt>
      <trkpt lat="42.14224" lon="3.04593">
        <ele>24.17</ele>
      </trkpt>
      <trkpt lat="42.14251" lon="3.04478">
        <ele>24.17</ele>
      </trkpt>
      <trkpt lat="42.14278" lon="3.04362">
        <ele>24.17</ele>
      </trkpt>
      <trkpt lat="42.14305" lon="3.04242">
        <ele>24.17</ele>
      </trkpt>
      <trkpt lat="42.14332" lon="3.04122">
        <ele>24.65</ele>
      </trkpt>
      <trkpt lat="42.1436" lon="3.04">
        <ele>24.65</ele>
      </trkpt>
      <trkpt lat="42.14388" lon="3.0388">
        <ele>25.13</ele>
      </trkpt>
      <trkpt lat="42.14415" lon="3.0376">
        <ele>26.57</ele>
      </trkpt>
      <trkpt lat="42.14444" lon="3.03639">
        <ele>28.02</ele>
      </trkpt>
      <trkpt lat="42.1447" lon="3.03519">
        <ele>29.94</ele>
      </trkpt>
      <trkpt lat="42.14487" lon="3.03398">
        <ele>31.38</ele>
      </trkpt>
      <trkpt lat="42.14488" lon="3.0327">
        <ele>31.86</ele>
      </trkpt>
      <trkpt lat="42.14478" lon="3.03145">
        <ele>32.82</ele>
      </trkpt>
      <trkpt lat="42.14466" lon="3.03022">
        <ele>35.23</ele>
      </trkpt>
      <trkpt lat="42.14454" lon="3.02897">
        <ele>37.63</ele>
      </trkpt>
      <trkpt lat="42.14443" lon="3.02776">
        <ele>40.03</ele>
      </trkpt>
      <trkpt lat="42.14431" lon="3.02655">
        <ele>40.51</ele>
      </trkpt>
      <trkpt lat="42.1442" lon="3.02529">
        <ele>38.59</ele>
      </trkpt>
      <trkpt lat="42.14408" lon="3.02406">
        <ele>37.15</ele>
      </trkpt>
      <trkpt lat="42.14396" lon="3.02282">
        <ele>37.15</ele>
      </trkpt>
      <trkpt lat="42.14384" lon="3.0216">
        <ele>37.15</ele>
      </trkpt>
      <trkpt lat="42.14373" lon="3.02036">
        <ele>36.67</ele>
      </trkpt>
      <trkpt lat="42.14361" lon="3.01916">
        <ele>37.63</ele>
      </trkpt>
      <trkpt lat="42.14335" lon="3.01796">
        <ele>38.11</ele>
      </trkpt>
      <trkpt lat="42.14284" lon="3.0169">
        <ele>40.03</ele>
      </trkpt>
      <trkpt lat="42.14213" lon="3.01613">
        <ele>40.99</ele>
      </trkpt>
      <trkpt lat="42.14138" lon="3.01539">
        <ele>42.44</ele>
      </trkpt>
      <trkpt lat="42.14064" lon="3.01467">
        <ele>45.32</ele>
      </trkpt>
      <trkpt lat="42.13988" lon="3.01393">
        <ele>47.72</ele>
      </trkpt>
      <trkpt lat="42.13915" lon="3.0132">
        <ele>50.13</ele>
      </trkpt>
      <trkpt lat="42.13839" lon="3.01246">
        <ele>53.01</ele>
      </trkpt>
      <trkpt lat="42.13761" lon="3.01172">
        <ele>55.89</ele>
      </trkpt>
      <trkpt lat="42.13686" lon="3.01099">
        <ele>59.74</ele>
      </trkpt>
      <trkpt lat="42.13612" lon="3.01027">
        <ele>63.1</ele>
      </trkpt>
      <trkpt lat="42.13529" lon="3.00967">
        <ele>67.91</ele>
      </trkpt>
      <trkpt lat="42.13439" lon="3.00921">
        <ele>72.24</ele>
      </trkpt>
      <trkpt lat="42.13346" lon="3.0088">
        <ele>76.08</ele>
      </trkpt>
      <trkpt lat="42.13258" lon="3.00843">
        <ele>79.93</ele>
      </trkpt>
      <trkpt lat="42.1317" lon="3.00804">
        <ele>83.77</ele>
      </trkpt>
      <trkpt lat="42.1309" lon="3.00747">
        <ele>86.18</ele>
      </trkpt>
      <trkpt lat="42.13028" lon="3.00656">
        <ele>89.54</ele>
      </trkpt>
      <trkpt lat="42.1299" lon="3.00545">
        <ele>92.9</ele>
      </trkpt>
      <trkpt lat="42.12978" lon="3.00421">
        <ele>95.79</ele>
      </trkpt>
      <trkpt lat="42.12989" lon="3.00291">
        <ele>99.63</ele>
      </trkpt>
      <trkpt lat="42.13002" lon="3.0017">
        <ele>102.52</ele>
      </trkpt>
      <trkpt lat="42.13014" lon="3.00048">
        <ele>104.44</ele>
      </trkpt>
      <trkpt lat="42.13026" lon="2.99927">
        <ele>107.32</ele>
      </trkpt>
      <trkpt lat="42.13038" lon="2.99805">
        <ele>107.81</ele>
      </trkpt>
      <trkpt lat="42.13079" lon="2.99696">
        <ele>106.84</ele>
      </trkpt>
      <trkpt lat="42.13085" lon="2.99576">
        <ele>107.32</ele>
      </trkpt>
      <trkpt lat="42.13113" lon="2.9946">
        <ele>108.29</ele>
      </trkpt>
      <trkpt lat="42.13141" lon="2.99344">
        <ele>108.29</ele>
      </trkpt>
      <trkpt lat="42.13168" lon="2.99225">
        <ele>113.09</ele>
      </trkpt>
      <trkpt lat="42.13173" lon="2.99103">
        <ele>116.94</ele>
      </trkpt>
      <trkpt lat="42.13171" lon="2.98977">
        <ele>119.34</ele>
      </trkpt>
      <trkpt lat="42.13167" lon="2.98852">
        <ele>123.67</ele>
      </trkpt>
      <trkpt lat="42.13164" lon="2.98724">
        <ele>125.59</ele>
      </trkpt>
      <trkpt lat="42.13153" lon="2.98599">
        <ele>124.15</ele>
      </trkpt>
      <trkpt lat="42.13128" lon="2.98479">
        <ele>119.82</ele>
      </trkpt>
      <trkpt lat="42.13118" lon="2.98362">
        <ele>114.05</ele>
      </trkpt>
      <trkpt lat="42.13071" lon="2.98239">
        <ele>105.88</ele>
      </trkpt>
      <trkpt lat="42.13044" lon="2.98118">
        <ele>100.6</ele>
      </trkpt>
      <trkpt lat="42.13016" lon="2.97998">
        <ele>94.83</ele>
      </trkpt>
      <trkpt lat="42.12986" lon="2.97871">
        <ele>90.02</ele>
      </trkpt>
      <trkpt lat="42.12961" lon="2.97755">
        <ele>83.77</ele>
      </trkpt>
      <trkpt lat="42.12932" lon="2.97628">
        <ele>80.41</ele>
      </trkpt>
      <trkpt lat="42.12904" lon="2.97505">
        <ele>79.93</ele>
      </trkpt>
      <trkpt lat="42.12877" lon="2.97389">
        <ele>80.89</ele>
      </trkpt>
      <trkpt lat="42.12849" lon="2.97271">
        <ele>81.85</ele>
      </trkpt>
      <trkpt lat="42.12821" lon="2.9715">
        <ele>83.29</ele>
      </trkpt>
      <trkpt lat="42.12793" lon="2.97031">
        <ele>84.25</ele>
      </trkpt>
      <trkpt lat="42.12766" lon="2.96911">
        <ele>84.73</ele>
      </trkpt>
      <trkpt lat="42.12738" lon="2.9679">
        <ele>85.21</ele>
      </trkpt>
      <trkpt lat="42.12711" lon="2.96673">
        <ele>85.69</ele>
      </trkpt>
      <trkpt lat="42.12685" lon="2.96557">
        <ele>87.14</ele>
      </trkpt>
      <trkpt lat="42.12657" lon="2.96435">
        <ele>90.02</ele>
      </trkpt>
      <trkpt lat="42.12629" lon="2.96315">
        <ele>92.9</ele>
      </trkpt>
      <trkpt lat="42.12615" lon="2.96195">
        <ele>96.27</ele>
      </trkpt>
      <trkpt lat="42.12577" lon="2.96089">
        <ele>98.67</ele>
      </trkpt>
      <trkpt lat="42.12548" lon="2.95967">
        <ele>101.56</ele>
      </trkpt>
      <trkpt lat="42.12522" lon="2.95851">
        <ele>103.96</ele>
      </trkpt>
      <trkpt lat="42.12494" lon="2.95731">
        <ele>103.48</ele>
      </trkpt>
      <trkpt lat="42.12469" lon="2.95616">
        <ele>103.96</ele>
      </trkpt>
      <trkpt lat="42.12441" lon="2.95495">
        <ele>104.92</ele>
      </trkpt>
      <trkpt lat="42.1242" lon="2.95372">
        <ele>104.92</ele>
      </trkpt>
      <trkpt lat="42.12413" lon="2.95243">
        <ele>105.4</ele>
      </trkpt>
      <trkpt lat="42.12409" lon="2.9512">
        <ele>106.36</ele>
      </trkpt>
      <trkpt lat="42.12409" lon="2.94997">
        <ele>106.84</ele>
      </trkpt>
      <trkpt lat="42.12425" lon="2.9487">
        <ele>107.32</ele>
      </trkpt>
      <trkpt lat="42.12447" lon="2.94748">
        <ele>108.29</ele>
      </trkpt>
      <trkpt lat="42.12457" lon="2.94627">
        <ele>108.29</ele>
      </trkpt>
      <trkpt lat="42.12448" lon="2.94504">
        <ele>108.29</ele>
      </trkpt>
      <trkpt lat="42.12435" lon="2.9438">
        <ele>110.21</ele>
      </trkpt>
      <trkpt lat="42.12423" lon="2.9426">
        <ele>113.09</ele>
      </trkpt>
      <trkpt lat="42.12411" lon="2.94138">
        <ele>115.5</ele>
      </trkpt>
      <trkpt lat="42.12401" lon="2.94016">
        <ele>117.9</ele>
      </trkpt>
      <trkpt lat="42.12411" lon="2.93892">
        <ele>119.34</ele>
      </trkpt>
      <trkpt lat="42.12445" lon="2.93774">
        <ele>121.26</ele>
      </trkpt>
      <trkpt lat="42.12478" lon="2.93657">
        <ele>123.19</ele>
      </trkpt>
      <trkpt lat="42.12509" lon="2.93539">
        <ele>123.19</ele>
      </trkpt>
      <trkpt lat="42.12539" lon="2.93419">
        <ele>125.11</ele>
      </trkpt>
      <trkpt lat="42.12566" lon="2.93302">
        <ele>126.07</ele>
      </trkpt>
      <trkpt lat="42.12579" lon="2.93177">
        <ele>126.55</ele>
      </trkpt>
      <trkpt lat="42.12586" lon="2.93054">
        <ele>129.92</ele>
      </trkpt>
      <trkpt lat="42.12592" lon="2.92929">
        <ele>135.68</ele>
      </trkpt>
      <trkpt lat="42.126" lon="2.92804">
        <ele>140.97</ele>
      </trkpt>
      <trkpt lat="42.12606" lon="2.92679">
        <ele>146.26</ele>
      </trkpt>
      <trkpt lat="42.12614" lon="2.92559">
        <ele>149.14</ele>
      </trkpt>
      <trkpt lat="42.12622" lon="2.92425">
        <ele>150.58</ele>
      </trkpt>
      <trkpt lat="42.1263" lon="2.92304">
        <ele>150.58</ele>
      </trkpt>
      <trkpt lat="42.12637" lon="2.92181">
        <ele>152.51</ele>
      </trkpt>
      <trkpt lat="42.12643" lon="2.92059">
        <ele>154.43</ele>
      </trkpt>
      <trkpt lat="42.1265" lon="2.91937">
        <ele>155.87</ele>
      </trkpt>
      <trkpt lat="42.12657" lon="2.9181">
        <ele>154.91</ele>
      </trkpt>
      <trkpt lat="42.1267" lon="2.9168">
        <ele>151.06</ele>
      </trkpt>
      <trkpt lat="42.12683" lon="2.91551">
        <ele>146.26</ele>
      </trkpt>
      <trkpt lat="42.12695" lon="2.91423">
        <ele>142.89</ele>
      </trkpt>
      <trkpt lat="42.12707" lon="2.91295">
        <ele>139.53</ele>
      </trkpt>
      <trkpt lat="42.12718" lon="2.91173">
        <ele>140.49</ele>
      </trkpt>
      <trkpt lat="42.12732" lon="2.91051">
        <ele>144.82</ele>
      </trkpt>
      <trkpt lat="42.12744" lon="2.9093">
        <ele>148.66</ele>
      </trkpt>
      <trkpt lat="42.1276" lon="2.90808">
        <ele>151.54</ele>
      </trkpt>
      <trkpt lat="42.12793" lon="2.90693">
        <ele>152.99</ele>
      </trkpt>
      <trkpt lat="42.12852" lon="2.90602">
        <ele>153.47</ele>
      </trkpt>
      <trkpt lat="42.12932" lon="2.90541">
        <ele>154.91</ele>
      </trkpt>
      <trkpt lat="42.13015" lon="2.90483">
        <ele>155.39</ele>
      </trkpt>
      <trkpt lat="42.13101" lon="2.90469">
        <ele>155.39</ele>
      </trkpt>
      <trkpt lat="42.13095" lon="2.9035">
        <ele>155.39</ele>
      </trkpt>
      <trkpt lat="42.13126" lon="2.90234">
        <ele>160.2</ele>
      </trkpt>
      <trkpt lat="42.13201" lon="2.90252">
        <ele>160.2</ele>
      </trkpt>
      <trkpt lat="42.13134" lon="2.90311">
        <ele>152.51</ele>
      </trkpt>
      <trkpt lat="42.13042" lon="2.90275">
        <ele>149.62</ele>
      </trkpt>
      <trkpt lat="42.12951" lon="2.90267">
        <ele>145.78</ele>
      </trkpt>
      <trkpt lat="42.12859" lon="2.90288">
        <ele>141.45</ele>
      </trkpt>
      <trkpt lat="42.12768" lon="2.90305">
        <ele>138.57</ele>
      </trkpt>
      <trkpt lat="42.12671" lon="2.90313">
        <ele>135.2</ele>
      </trkpt>
      <trkpt lat="42.12574" lon="2.90312">
        <ele>131.84</ele>
      </trkpt>
      <trkpt lat="42.12483" lon="2.90309">
        <ele>128.95</ele>
      </trkpt>
      <trkpt lat="42.12389" lon="2.90307">
        <ele>124.15</ele>
      </trkpt>
      <trkpt lat="42.12296" lon="2.903">
        <ele>119.82</ele>
      </trkpt>
      <trkpt lat="42.122" lon="2.90286">
        <ele>117.9</ele>
      </trkpt>
      <trkpt lat="42.12105" lon="2.90274">
        <ele>117.9</ele>
      </trkpt>
      <trkpt lat="42.12009" lon="2.90266">
        <ele>115.98</ele>
      </trkpt>
      <trkpt lat="42.1192" lon="2.90242">
        <ele>113.57</ele>
      </trkpt>
      <trkpt lat="42.11827" lon="2.90218">
        <ele>111.17</ele>
      </trkpt>
      <trkpt lat="42.11735" lon="2.90194">
        <ele>108.29</ele>
      </trkpt>
      <trkpt lat="42.11645" lon="2.90169">
        <ele>106.36</ele>
      </trkpt>
      <trkpt lat="42.11554" lon="2.90146">
        <ele>104.44</ele>
      </trkpt>
      <trkpt lat="42.11462" lon="2.90121">
        <ele>103</ele>
      </trkpt>
      <trkpt lat="42.11372" lon="2.90099">
        <ele>100.11</ele>
      </trkpt>
      <trkpt lat="42.11278" lon="2.90074">
        <ele>97.71</ele>
      </trkpt>
      <trkpt lat="42.11186" lon="2.90049">
        <ele>93.87</ele>
      </trkpt>
      <trkpt lat="42.11095" lon="2.90009">
        <ele>90.98</ele>
      </trkpt>
      <trkpt lat="42.11006" lon="2.89965">
        <ele>88.1</ele>
      </trkpt>
      <trkpt lat="42.10919" lon="2.8992">
        <ele>86.66</ele>
      </trkpt>
      <trkpt lat="42.10835" lon="2.89878">
        <ele>89.06</ele>
      </trkpt>
      <trkpt lat="42.10751" lon="2.89835">
        <ele>90.02</ele>
      </trkpt>
      <trkpt lat="42.10666" lon="2.89792">
        <ele>93.87</ele>
      </trkpt>
      <trkpt lat="42.10586" lon="2.89731">
        <ele>94.83</ele>
      </trkpt>
      <trkpt lat="42.10506" lon="2.89665">
        <ele>97.23</ele>
      </trkpt>
      <trkpt lat="42.10428" lon="2.89599">
        <ele>102.52</ele>
      </trkpt>
      <trkpt lat="42.10348" lon="2.89539">
        <ele>106.36</ele>
      </trkpt>
      <trkpt lat="42.10265" lon="2.89483">
        <ele>112.61</ele>
      </trkpt>
      <trkpt lat="42.10184" lon="2.89424">
        <ele>116.94</ele>
      </trkpt>
      <trkpt lat="42.10106" lon="2.89362">
        <ele>121.74</ele>
      </trkpt>
      <trkpt lat="42.10029" lon="2.89297">
        <ele>126.07</ele>
      </trkpt>
      <trkpt lat="42.09951" lon="2.89236">
        <ele>129.92</ele>
      </trkpt>
      <trkpt lat="42.09865" lon="2.89193">
        <ele>133.28</ele>
      </trkpt>
      <trkpt lat="42.09775" lon="2.89169">
        <ele>136.16</ele>
      </trkpt>
      <trkpt lat="42.09683" lon="2.89176">
        <ele>140.01</ele>
      </trkpt>
      <trkpt lat="42.09594" lon="2.89202">
        <ele>142.41</ele>
      </trkpt>
      <trkpt lat="42.09507" lon="2.89232">
        <ele>144.82</ele>
      </trkpt>
      <trkpt lat="42.09418" lon="2.89258">
        <ele>146.26</ele>
      </trkpt>
      <trkpt lat="42.09328" lon="2.89258">
        <ele>146.74</ele>
      </trkpt>
      <trkpt lat="42.09236" lon="2.89241">
        <ele>146.26</ele>
      </trkpt>
      <trkpt lat="42.09152" lon="2.89208">
        <ele>144.34</ele>
      </trkpt>
      <trkpt lat="42.09064" lon="2.89157">
        <ele>142.41</ele>
      </trkpt>
      <trkpt lat="42.08982" lon="2.89094">
        <ele>140.97</ele>
      </trkpt>
      <trkpt lat="42.08902" lon="2.8903">
        <ele>138.57</ele>
      </trkpt>
      <trkpt lat="42.08819" lon="2.88968">
        <ele>138.09</ele>
      </trkpt>
      <trkpt lat="42.08736" lon="2.88924">
        <ele>137.61</ele>
      </trkpt>
      <trkpt lat="42.08652" lon="2.88882">
        <ele>138.09</ele>
      </trkpt>
      <trkpt lat="42.08564" lon="2.88843">
        <ele>137.13</ele>
      </trkpt>
      <trkpt lat="42.08475" lon="2.88826">
        <ele>134.24</ele>
      </trkpt>
      <trkpt lat="42.08382" lon="2.88818">
        <ele>130.88</ele>
      </trkpt>
      <trkpt lat="42.08291" lon="2.88807">
        <ele>127.51</ele>
      </trkpt>
      <trkpt lat="42.08202" lon="2.88776">
        <ele>127.03</ele>
      </trkpt>
      <trkpt lat="42.08119" lon="2.88719">
        <ele>126.07</ele>
      </trkpt>
      <trkpt lat="42.0804" lon="2.88653">
        <ele>129.43</ele>
      </trkpt>
      <trkpt lat="42.07957" lon="2.88595">
        <ele>129.92</ele>
      </trkpt>
      <trkpt lat="42.0787" lon="2.88555">
        <ele>129.43</ele>
      </trkpt>
      <trkpt lat="42.07776" lon="2.88535">
        <ele>127.99</ele>
      </trkpt>
      <trkpt lat="42.07685" lon="2.88532">
        <ele>129.92</ele>
      </trkpt>
      <trkpt lat="42.07592" lon="2.88533">
        <ele>129.43</ele>
      </trkpt>
      <trkpt lat="42.075" lon="2.88534">
        <ele>130.4</ele>
      </trkpt>
      <trkpt lat="42.07404" lon="2.88519">
        <ele>129.43</ele>
      </trkpt>
      <trkpt lat="42.07312" lon="2.88493">
        <ele>127.99</ele>
      </trkpt>
      <trkpt lat="42.07221" lon="2.88469">
        <ele>127.99</ele>
      </trkpt>
      <trkpt lat="42.07129" lon="2.88441">
        <ele>127.03</ele>
      </trkpt>
      <trkpt lat="42.07041" lon="2.88385">
        <ele>124.15</ele>
      </trkpt>
      <trkpt lat="42.06961" lon="2.88319">
        <ele>120.78</ele>
      </trkpt>
      <trkpt lat="42.06881" lon="2.88254">
        <ele>117.42</ele>
      </trkpt>
      <trkpt lat="42.06797" lon="2.88202">
        <ele>116.46</ele>
      </trkpt>
      <trkpt lat="42.06706" lon="2.88176">
        <ele>115.01</ele>
      </trkpt>
      <trkpt lat="42.06613" lon="2.88176">
        <ele>111.17</ele>
      </trkpt>
      <trkpt lat="42.0652" lon="2.88188">
        <ele>108.77</ele>
      </trkpt>
      <trkpt lat="42.06426" lon="2.88175">
        <ele>108.29</ele>
      </trkpt>
      <trkpt lat="42.06338" lon="2.88126">
        <ele>106.36</ele>
      </trkpt>
      <trkpt lat="42.06251" lon="2.88067">
        <ele>103.96</ele>
      </trkpt>
      <trkpt lat="42.06161" lon="2.88032">
        <ele>98.19</ele>
      </trkpt>
      <trkpt lat="42.06066" lon="2.88012">
        <ele>93.87</ele>
      </trkpt>
      <trkpt lat="42.05967" lon="2.87987">
        <ele>89.06</ele>
      </trkpt>
      <trkpt lat="42.0587" lon="2.87953">
        <ele>82.81</ele>
      </trkpt>
      <trkpt lat="42.05779" lon="2.87924">
        <ele>78</ele>
      </trkpt>
      <trkpt lat="42.05686" lon="2.87885">
        <ele>72.72</ele>
      </trkpt>
      <trkpt lat="42.05601" lon="2.87834">
        <ele>66.47</ele>
      </trkpt>
      <trkpt lat="42.05516" lon="2.87773">
        <ele>59.26</ele>
      </trkpt>
      <trkpt lat="42.05438" lon="2.87711">
        <ele>55.89</ele>
      </trkpt>
      <trkpt lat="42.0536" lon="2.87635">
        <ele>52.53</ele>
      </trkpt>
      <trkpt lat="42.05283" lon="2.87557">
        <ele>52.53</ele>
      </trkpt>
      <trkpt lat="42.05209" lon="2.87481">
        <ele>52.05</ele>
      </trkpt>
      <trkpt lat="42.05137" lon="2.87399">
        <ele>52.05</ele>
      </trkpt>
      <trkpt lat="42.0507" lon="2.87304">
        <ele>53.01</ele>
      </trkpt>
      <trkpt lat="42.05007" lon="2.87215">
        <ele>53.97</ele>
      </trkpt>
      <trkpt lat="42.04953" lon="2.87118">
        <ele>55.41</ele>
      </trkpt>
      <trkpt lat="42.04902" lon="2.87014">
        <ele>56.37</ele>
      </trkpt>
      <trkpt lat="42.04845" lon="2.8692">
        <ele>56.37</ele>
      </trkpt>
      <trkpt lat="42.04786" lon="2.86825">
        <ele>56.37</ele>
      </trkpt>
      <trkpt lat="42.04728" lon="2.86719">
        <ele>56.37</ele>
      </trkpt>
      <trkpt lat="42.0468" lon="2.86608">
        <ele>55.89</ele>
      </trkpt>
      <trkpt lat="42.04634" lon="2.86497">
        <ele>56.37</ele>
      </trkpt>
      <trkpt lat="42.04591" lon="2.8639">
        <ele>56.86</ele>
      </trkpt>
      <trkpt lat="42.04545" lon="2.86275">
        <ele>56.86</ele>
      </trkpt>
      <trkpt lat="42.04502" lon="2.8617">
        <ele>56.86</ele>
      </trkpt>
      <trkpt lat="42.04459" lon="2.8606">
        <ele>57.82</ele>
      </trkpt>
      <trkpt lat="42.0441" lon="2.85953">
        <ele>58.3</ele>
      </trkpt>
      <trkpt lat="42.04349" lon="2.85859">
        <ele>56.86</ele>
      </trkpt>
      <trkpt lat="42.04298" lon="2.85761">
        <ele>60.22</ele>
      </trkpt>
      <trkpt lat="42.04258" lon="2.85645">
        <ele>63.1</ele>
      </trkpt>
      <trkpt lat="42.04238" lon="2.85526">
        <ele>63.1</ele>
      </trkpt>
      <trkpt lat="42.04241" lon="2.85404">
        <ele>62.14</ele>
      </trkpt>
      <trkpt lat="42.04256" lon="2.85283">
        <ele>61.18</ele>
      </trkpt>
      <trkpt lat="42.04272" lon="2.85163">
        <ele>60.7</ele>
      </trkpt>
      <trkpt lat="42.0429" lon="2.85043">
        <ele>65.03</ele>
      </trkpt>
      <trkpt lat="42.04308" lon="2.84915">
        <ele>71.76</ele>
      </trkpt>
      <trkpt lat="42.0428" lon="2.84802">
        <ele>78</ele>
      </trkpt>
      <trkpt lat="42.04201" lon="2.84746">
        <ele>84.73</ele>
      </trkpt>
      <trkpt lat="42.04116" lon="2.84698">
        <ele>91.94</ele>
      </trkpt>
      <trkpt lat="42.04036" lon="2.84641">
        <ele>97.71</ele>
      </trkpt>
      <trkpt lat="42.03957" lon="2.84578">
        <ele>103</ele>
      </trkpt>
      <trkpt lat="42.03922" lon="2.84463">
        <ele>109.25</ele>
      </trkpt>
      <trkpt lat="42.03909" lon="2.8434">
        <ele>112.61</ele>
      </trkpt>
      <trkpt lat="42.03854" lon="2.84243">
        <ele>112.13</ele>
      </trkpt>
      <trkpt lat="42.03781" lon="2.84159">
        <ele>107.81</ele>
      </trkpt>
      <trkpt lat="42.03706" lon="2.84075">
        <ele>101.08</ele>
      </trkpt>
      <trkpt lat="42.0362" lon="2.84039">
        <ele>95.31</ele>
      </trkpt>
      <trkpt lat="42.03545" lon="2.83956">
        <ele>88.58</ele>
      </trkpt>
      <trkpt lat="42.03458" lon="2.8391">
        <ele>83.77</ele>
      </trkpt>
      <trkpt lat="42.03362" lon="2.83876">
        <ele>74.64</ele>
      </trkpt>
      <trkpt lat="42.03275" lon="2.83829">
        <ele>70.31</ele>
      </trkpt>
      <trkpt lat="42.03192" lon="2.83775">
        <ele>67.91</ele>
      </trkpt>
      <trkpt lat="42.03109" lon="2.83718">
        <ele>65.51</ele>
      </trkpt>
      <trkpt lat="42.03036" lon="2.83644">
        <ele>64.07</ele>
      </trkpt>
      <trkpt lat="42.0298" lon="2.83541">
        <ele>63.1</ele>
      </trkpt>
      <trkpt lat="42.02942" lon="2.83423">
        <ele>62.62</ele>
      </trkpt>
      <trkpt lat="42.02905" lon="2.83305">
        <ele>63.58</ele>
      </trkpt>
      <trkpt lat="42.02848" lon="2.83205">
        <ele>65.51</ele>
      </trkpt>
      <trkpt lat="42.02803" lon="2.83091">
        <ele>67.91</ele>
      </trkpt>
      <trkpt lat="42.02758" lon="2.82986">
        <ele>69.35</ele>
      </trkpt>
      <trkpt lat="42.02694" lon="2.8289">
        <ele>65.03</ele>
      </trkpt>
      <trkpt lat="42.02617" lon="2.82815">
        <ele>65.51</ele>
      </trkpt>
      <trkpt lat="42.02537" lon="2.82754">
        <ele>66.95</ele>
      </trkpt>
      <trkpt lat="42.02455" lon="2.82702">
        <ele>66.47</ele>
      </trkpt>
      <trkpt lat="42.02379" lon="2.82636">
        <ele>66.47</ele>
      </trkpt>
      <trkpt lat="42.02304" lon="2.82576">
        <ele>67.43</ele>
      </trkpt>
      <trkpt lat="42.02227" lon="2.82509">
        <ele>69.35</ele>
      </trkpt>
      <trkpt lat="42.0215" lon="2.8244">
        <ele>70.31</ele>
      </trkpt>
      <trkpt lat="42.02072" lon="2.8237">
        <ele>70.31</ele>
      </trkpt>
      <trkpt lat="42.01995" lon="2.82304">
        <ele>71.76</ele>
      </trkpt>
      <trkpt lat="42.0192" lon="2.82237">
        <ele>71.76</ele>
      </trkpt>
      <trkpt lat="42.0184" lon="2.82164">
        <ele>72.72</ele>
      </trkpt>
      <trkpt lat="42.01764" lon="2.82097">
        <ele>73.2</ele>
      </trkpt>
      <trkpt lat="42.01701" lon="2.82016">
        <ele>72.72</ele>
      </trkpt>
      <trkpt lat="42.01633" lon="2.82063">
        <ele>72.72</ele>
      </trkpt>
      <trkpt lat="42.01572" lon="2.82156">
        <ele>72.72</ele>
      </trkpt>
      <trkpt lat="42.01501" lon="2.82206">
        <ele>72.72</ele>
      </trkpt>
      <trkpt lat="42.01413" lon="2.82163">
        <ele>71.76</ele>
      </trkpt>
      <trkpt lat="42.0134" lon="2.82089">
        <ele>70.79</ele>
      </trkpt>
      <trkpt lat="42.01269" lon="2.82005">
        <ele>71.27</ele>
      </trkpt>
      <trkpt lat="42.0119" lon="2.81934">
        <ele>69.83</ele>
      </trkpt>
      <trkpt lat="42.01111" lon="2.81875">
        <ele>71.76</ele>
      </trkpt>
      <trkpt lat="42.0103" lon="2.81816">
        <ele>72.72</ele>
      </trkpt>
      <trkpt lat="42.00947" lon="2.81755">
        <ele>71.27</ele>
      </trkpt>
      <trkpt lat="42.00908" lon="2.81662">
        <ele>71.76</ele>
      </trkpt>
      <trkpt lat="42.00817" lon="2.81675">
        <ele>71.27</ele>
      </trkpt>
      <trkpt lat="42.00723" lon="2.81659">
        <ele>71.76</ele>
      </trkpt>
      <trkpt lat="42.00633" lon="2.81643">
        <ele>72.72</ele>
      </trkpt>
      <trkpt lat="42.00541" lon="2.81627">
        <ele>74.16</ele>
      </trkpt>
      <trkpt lat="42.0045" lon="2.81614">
        <ele>74.64</ele>
      </trkpt>
      <trkpt lat="42.00361" lon="2.81599">
        <ele>76.08</ele>
      </trkpt>
      <trkpt lat="42.00266" lon="2.81596">
        <ele>76.08</ele>
      </trkpt>
      <trkpt lat="42.00174" lon="2.81615">
        <ele>77.04</ele>
      </trkpt>
      <trkpt lat="42.00084" lon="2.81648">
        <ele>78.97</ele>
      </trkpt>
      <trkpt lat="42.00001" lon="2.81713">
        <ele>79.93</ele>
      </trkpt>
      <trkpt lat="41.99944" lon="2.81795">
        <ele>81.37</ele>
      </trkpt>
      <trkpt lat="41.99869" lon="2.81872">
        <ele>80.41</ele>
      </trkpt>
      <trkpt lat="41.99783" lon="2.81919">
        <ele>78.97</ele>
      </trkpt>
      <trkpt lat="41.99688" lon="2.81928">
        <ele>78.97</ele>
      </trkpt>
      <trkpt lat="41.99591" lon="2.8192">
        <ele>78.97</ele>
      </trkpt>
      <trkpt lat="41.995" lon="2.81898">
        <ele>78.48</ele>
      </trkpt>
      <trkpt lat="41.99409" lon="2.81879">
        <ele>78.48</ele>
      </trkpt>
      <trkpt lat="41.99317" lon="2.81854">
        <ele>78.48</ele>
      </trkpt>
      <trkpt lat="41.99234" lon="2.81815">
        <ele>78.97</ele>
      </trkpt>
      <trkpt lat="41.99151" lon="2.81856">
        <ele>78.97</ele>
      </trkpt>
      <trkpt lat="41.99061" lon="2.81894">
        <ele>78.48</ele>
      </trkpt>
      <trkpt lat="41.98982" lon="2.81945">
        <ele>78.97</ele>
      </trkpt>
      <trkpt lat="41.98976" lon="2.82072">
        <ele>78</ele>
      </trkpt>
      <trkpt lat="41.98919" lon="2.82178">
        <ele>75.12</ele>
      </trkpt>
      <trkpt lat="41.98838" lon="2.82223">
        <ele>74.16</ele>
      </trkpt>
      <trkpt lat="41.98757" lon="2.82178">
        <ele>74.16</ele>
      </trkpt>
      <trkpt lat="41.98684" lon="2.82102">
        <ele>74.64</ele>
      </trkpt>
      <trkpt lat="41.98641" lon="2.81996">
        <ele>74.16</ele>
      </trkpt>
      <trkpt lat="41.98611" lon="2.81877">
        <ele>74.64</ele>
      </trkpt>
      <trkpt lat="41.9857" lon="2.81762">
        <ele>74.64</ele>
      </trkpt>
      <trkpt lat="41.98496" lon="2.81686">
        <ele>75.6</ele>
      </trkpt>
      <trkpt lat="41.9843" lon="2.81763">
        <ele>76.56</ele>
      </trkpt>
      <trkpt lat="41.98324" lon="2.81828">
        <ele>77.52</ele>
      </trkpt>
      <trkpt lat="41.9822" lon="2.8188">
        <ele>76.56</ele>
      </trkpt>
      <trkpt lat="41.98082" lon="2.81877">
        <ele>77.04</ele>
      </trkpt>
      <trkpt lat="41.97984" lon="2.81847">
        <ele>77.52</ele>
      </trkpt>
      <trkpt lat="41.97941" lon="2.81729">
        <ele>79.45</ele>
      </trkpt>
    </trkseg>
  </trk>
</gpx>